<?xml version="1.0" encoding="UTF-8" standalone="no" ?><gpx xmlns="http://www.topografix.com/GPX/1/1" xmlns:gpxx="http://www.garmin.com/xmlschemas/GpxExtensions/v3" xmlns:wptx1="http://www.garmin.com/xmlschemas/WaypointExtension/v1" xmlns:gpxtpx="http://www.garmin.com/xmlschemas/TrackPointExtension/v1" creator="GuideVTT.com" version="1.1" xmlns:xsi="http://www.w3.org/2001/XMLSchema-instance" xsi:schemaLocation="http://www.topografix.com/GPX/1/1 http://www.topografix.com/GPX/1/1/gpx.xsd http://www.garmin.com/xmlschemas/GpxExtensions/v3 http://www8.garmin.com/xmlschemas/GpxExtensionsv3.xsd http://www.garmin.com/xmlschemas/WaypointExtension/v1 http://www8.garmin.com/xmlschemas/WaypointExtensionv1.xsd http://www.garmin.com/xmlschemas/TrackPointExtension/v1 http://www.garmin.com/xmlschemas/TrackPointExtensionv1.xsd">
<metadata><link href="http://www.garmin.com"><text>Garmin International</text></link><time>2013-06-22T15:13:50Z</time></metadata>
<trk><name>bulle-saint_saturnin_les_apt_2013.gpx</name><extensions><gpxx:TrackExtension><gpxx:DisplayColor>Cyan</gpxx:DisplayColor></gpxx:TrackExtension></extensions><trkseg>
<trkpt lat="46.615344034507871" lon="7.052086740732193"><ele></ele><time>2015-2-2T20:40:32Z</time></trkpt>
<trkpt lat="46.615197686478496" lon="7.051404369994998"><ele></ele><time>2015-2-2T20:40:35Z</time></trkpt>
<trkpt lat="46.615068688988686" lon="7.050718562677503"><ele></ele><time>2015-2-2T20:40:38Z</time></trkpt>
<trkpt lat="46.614928878843784" lon="7.050052704289556"><ele></ele><time>2015-2-2T20:40:41Z</time></trkpt>
<trkpt lat="46.614792672917247" lon="7.049417607486248"><ele></ele><time>2015-2-2T20:40:44Z</time></trkpt>
<trkpt lat="46.614654790610075" lon="7.048737667500973"><ele></ele><time>2015-2-2T20:40:47Z</time></trkpt>
<trkpt lat="46.614525709301233" lon="7.048081113025546"><ele></ele><time>2015-2-2T20:40:50Z</time></trkpt>
<trkpt lat="46.614407105371356" lon="7.04739086329937"><ele></ele><time>2015-2-2T20:40:53Z</time></trkpt>
<trkpt lat="46.614251537248492" lon="7.046737661585212"><ele></ele><time>2015-2-2T20:40:56Z</time></trkpt>
<trkpt lat="46.61411901935935" lon="7.046106169000268"><ele></ele><time>2015-2-2T20:40:59Z</time></trkpt>
<trkpt lat="46.613985495641828" lon="7.045460008084774"><ele></ele><time>2015-2-2T20:41:2Z</time></trkpt>
<trkpt lat="46.613852307200432" lon="7.044810075312853"><ele></ele><time>2015-2-2T20:41:5Z</time></trkpt>
<trkpt lat="46.613730099052191" lon="7.044160226359963"><ele></ele><time>2015-2-2T20:41:8Z</time></trkpt>
<trkpt lat="46.613607639446855" lon="7.043525464832783"><ele></ele><time>2015-2-2T20:41:11Z</time></trkpt>
<trkpt lat="46.613512504845858" lon="7.042820462957025"><ele></ele><time>2015-2-2T20:41:14Z</time></trkpt>
<trkpt lat="46.61346422508359" lon="7.04215913079679"><ele></ele><time>2015-2-2T20:41:17Z</time></trkpt>
<trkpt lat="46.613459447398782" lon="7.041497630998492"><ele></ele><time>2015-2-2T20:41:20Z</time></trkpt>
<trkpt lat="46.61341686733067" lon="7.040845267474651"><ele></ele><time>2015-2-2T20:41:23Z</time></trkpt>
<trkpt lat="46.613379484042525" lon="7.040131464600563"><ele></ele><time>2015-2-2T20:41:26Z</time></trkpt>
<trkpt lat="46.613406557589769" lon="7.039476921781898"><ele></ele><time>2015-2-2T20:41:29Z</time></trkpt>
<trkpt lat="46.613489203155041" lon="7.038822462782264"><ele></ele><time>2015-2-2T20:41:32Z</time></trkpt>
<trkpt lat="46.613578218966722" lon="7.038123328238726"><ele></ele><time>2015-2-2T20:41:35Z</time></trkpt>
<trkpt lat="46.613700008019805" lon="7.037416147068143"><ele></ele><time>2015-2-2T20:41:38Z</time></trkpt>
<trkpt lat="46.613774439319968" lon="7.036722041666508"><ele></ele><time>2015-2-2T20:41:41Z</time></trkpt>
<trkpt lat="46.613867226988077" lon="7.036056853830814"><ele></ele><time>2015-2-2T20:41:44Z</time></trkpt>
<trkpt lat="46.613956158980727" lon="7.035400131717324"><ele></ele><time>2015-2-2T20:41:47Z</time></trkpt>
<trkpt lat="46.614042911678553" lon="7.034749863669276"><ele></ele><time>2015-2-2T20:41:50Z</time></trkpt>
<trkpt lat="46.614152966067195" lon="7.034054752439261"><ele></ele><time>2015-2-2T20:41:53Z</time></trkpt>
<trkpt lat="46.614327393472195" lon="7.033403730019927"><ele></ele><time>2015-2-2T20:41:56Z</time></trkpt>
<trkpt lat="46.6145895794034" lon="7.032768046483398"><ele></ele><time>2015-2-2T20:41:59Z</time></trkpt>
<trkpt lat="46.614921754226089" lon="7.03218818642199"><ele></ele><time>2015-2-2T20:42:2Z</time></trkpt>
<trkpt lat="46.615265160799026" lon="7.031622994691134"><ele></ele><time>2015-2-2T20:42:5Z</time></trkpt>
<trkpt lat="46.615560119971633" lon="7.031085547059774"><ele></ele><time>2015-2-2T20:42:8Z</time></trkpt>
<trkpt lat="46.615835716947913" lon="7.030497053638101"><ele></ele><time>2015-2-2T20:42:11Z</time></trkpt>
<trkpt lat="46.616103854030371" lon="7.029890958219767"><ele></ele><time>2015-2-2T20:42:14Z</time></trkpt>
<trkpt lat="46.616338547319174" lon="7.029262483119965"><ele></ele><time>2015-2-2T20:42:17Z</time></trkpt>
<trkpt lat="46.616552537307143" lon="7.028659153729677"><ele></ele><time>2015-2-2T20:42:20Z</time></trkpt>
<trkpt lat="46.616896195337176" lon="7.028069235384464"><ele></ele><time>2015-2-2T20:42:23Z</time></trkpt>
<trkpt lat="46.617239685729146" lon="7.027639746665955"><ele></ele><time>2015-2-2T20:42:26Z</time></trkpt>
<trkpt lat="46.617655428126454" lon="7.027283431962133"><ele></ele><time>2015-2-2T20:42:29Z</time></trkpt>
<trkpt lat="46.618047365918756" lon="7.026905743405223"><ele></ele><time>2015-2-2T20:42:32Z</time></trkpt>
<trkpt lat="46.618113499134779" lon="7.02622689306736"><ele></ele><time>2015-2-2T20:42:35Z</time></trkpt>
<trkpt lat="46.618083408102393" lon="7.02552474103868"><ele></ele><time>2015-2-2T20:42:38Z</time></trkpt>
<trkpt lat="46.61803831346333" lon="7.024823846295476"><ele></ele><time>2015-2-2T20:42:41Z</time></trkpt>
<trkpt lat="46.617887606844306" lon="7.02419369481504"><ele></ele><time>2015-2-2T20:42:44Z</time></trkpt>
<trkpt lat="46.61773044615984" lon="7.023551473394036"><ele></ele><time>2015-2-2T20:42:47Z</time></trkpt>
<trkpt lat="46.617670431733131" lon="7.022817889228463"><ele></ele><time>2015-2-2T20:42:50Z</time></trkpt>
<trkpt lat="46.617633467540145" lon="7.022134680300951"><ele></ele><time>2015-2-2T20:42:53Z</time></trkpt>
<trkpt lat="46.617673952132463" lon="7.021439233794808"><ele></ele><time>2015-2-2T20:42:56Z</time></trkpt>
<trkpt lat="46.617741174995899" lon="7.020747475326061"><ele></ele><time>2015-2-2T20:42:59Z</time></trkpt>
<trkpt lat="46.617621649056673" lon="7.020077342167497"><ele></ele><time>2015-2-2T20:43:2Z</time></trkpt>
<trkpt lat="46.617406737059355" lon="7.019485663622618"><ele></ele><time>2015-2-2T20:43:5Z</time></trkpt>
<trkpt lat="46.617283187806606" lon="7.018795078620315"><ele></ele><time>2015-2-2T20:43:8Z</time></trkpt>
<trkpt lat="46.617708066478372" lon="7.018501041457057"><ele></ele><time>2015-2-2T20:43:11Z</time></trkpt>
<trkpt lat="46.618134705349803" lon="7.018193257972598"><ele></ele><time>2015-2-2T20:43:14Z</time></trkpt>
<trkpt lat="46.618533683940768" lon="7.017817329615355"><ele></ele><time>2015-2-2T20:43:17Z</time></trkpt>
<trkpt lat="46.618877593427896" lon="7.01737099327147"><ele></ele><time>2015-2-2T20:43:20Z</time></trkpt>
<trkpt lat="46.619007680565119" lon="7.016744026914239"><ele></ele><time>2015-2-2T20:43:23Z</time></trkpt>
<trkpt lat="46.618924699723721" lon="7.016093088313937"><ele></ele><time>2015-2-2T20:43:26Z</time></trkpt>
<trkpt lat="46.618872229009867" lon="7.015442736446858"><ele></ele><time>2015-2-2T20:43:29Z</time></trkpt>
<trkpt lat="46.618838869035244" lon="7.014780063182116"><ele></ele><time>2015-2-2T20:43:32Z</time></trkpt>
<trkpt lat="46.618787487968802" lon="7.014055196195841"><ele></ele><time>2015-2-2T20:43:35Z</time></trkpt>
<trkpt lat="46.61869796924293" lon="7.013391433283687"><ele></ele><time>2015-2-2T20:43:38Z</time></trkpt>
<trkpt lat="46.618614569306374" lon="7.012715265154839"><ele></ele><time>2015-2-2T20:43:41Z</time></trkpt>
<trkpt lat="46.618570731952786" lon="7.012035241350532"><ele></ele><time>2015-2-2T20:43:44Z</time></trkpt>
<trkpt lat="46.6185113042593" lon="7.011327557265759"><ele></ele><time>2015-2-2T20:43:47Z</time></trkpt>
<trkpt lat="46.61834760569036" lon="7.010615933686495"><ele></ele><time>2015-2-2T20:43:50Z</time></trkpt>
<trkpt lat="46.618308126926422" lon="7.009900622069836"><ele></ele><time>2015-2-2T20:43:53Z</time></trkpt>
<trkpt lat="46.618631081655622" lon="7.009244570508599"><ele></ele><time>2015-2-2T20:43:56Z</time></trkpt>
<trkpt lat="46.618955796584487" lon="7.008785158395767"><ele></ele><time>2015-2-2T20:43:59Z</time></trkpt>
<trkpt lat="46.619226867333055" lon="7.008160455152392"><ele></ele><time>2015-2-2T20:44:2Z</time></trkpt>
<trkpt lat="46.619373466819525" lon="7.007539523765445"><ele></ele><time>2015-2-2T20:44:5Z</time></trkpt>
<trkpt lat="46.619479162618518" lon="7.006822116672993"><ele></ele><time>2015-2-2T20:44:8Z</time></trkpt>
<trkpt lat="46.619447479024529" lon="7.006131783127785"><ele></ele><time>2015-2-2T20:44:11Z</time></trkpt>
<trkpt lat="46.619348153471947" lon="7.005485789850354"><ele></ele><time>2015-2-2T20:44:14Z</time></trkpt>
<trkpt lat="46.619246900081635" lon="7.004742985591292"><ele></ele><time>2015-2-2T20:44:17Z</time></trkpt>
<trkpt lat="46.619263412430882" lon="7.003994146361947"><ele></ele><time>2015-2-2T20:44:20Z</time></trkpt>
<trkpt lat="46.619372880086303" lon="7.003255449235439"><ele></ele><time>2015-2-2T20:44:23Z</time></trkpt>
<trkpt lat="46.619353517889977" lon="7.002543574199081"><ele></ele><time>2015-2-2T20:44:26Z</time></trkpt>
<trkpt lat="46.619226196780801" lon="7.001832369714975"><ele></ele><time>2015-2-2T20:44:29Z</time></trkpt>
<trkpt lat="46.61913039162755" lon="7.001103479415178"><ele></ele><time>2015-2-2T20:44:32Z</time></trkpt>
<trkpt lat="46.619157548993826" lon="7.00044047087431"><ele></ele><time>2015-2-2T20:44:35Z</time></trkpt>
<trkpt lat="46.619276739656925" lon="6.99972172267735"><ele></ele><time>2015-2-2T20:44:38Z</time></trkpt>
<trkpt lat="46.619394337758422" lon="6.999007919803262"><ele></ele><time>2015-2-2T20:44:41Z</time></trkpt>
<trkpt lat="46.619499195367098" lon="6.998346671462059"><ele></ele><time>2015-2-2T20:44:44Z</time></trkpt>
<trkpt lat="46.619728356599808" lon="6.997757172212005"><ele></ele><time>2015-2-2T20:44:47Z</time></trkpt>
<trkpt lat="46.620064051821828" lon="6.997258951887488"><ele></ele><time>2015-2-2T20:44:50Z</time></trkpt>
<trkpt lat="46.620387174189091" lon="6.996765090152621"><ele></ele><time>2015-2-2T20:44:53Z</time></trkpt>
<trkpt lat="46.620622454211116" lon="6.996199395507574"><ele></ele><time>2015-2-2T20:44:56Z</time></trkpt>
<trkpt lat="46.620705267414451" lon="6.995544685050845"><ele></ele><time>2015-2-2T20:44:59Z</time></trkpt>
<trkpt lat="46.620668806135654" lon="6.994852423667908"><ele></ele><time>2015-2-2T20:45:2Z</time></trkpt>
<trkpt lat="46.620614575222135" lon="6.994171813130379"><ele></ele><time>2015-2-2T20:45:5Z</time></trkpt>
<trkpt lat="46.620602756738663" lon="6.993507212027907"><ele></ele><time>2015-2-2T20:45:8Z</time></trkpt>
<trkpt lat="46.620768886059523" lon="6.992851747199893"><ele></ele><time>2015-2-2T20:45:11Z</time></trkpt>
<trkpt lat="46.621006848290563" lon="6.992254704236984"><ele></ele><time>2015-2-2T20:45:14Z</time></trkpt>
<trkpt lat="46.621084967628121" lon="6.991555904969573"><ele></ele><time>2015-2-2T20:45:17Z</time></trkpt>
<trkpt lat="46.621074741706252" lon="6.990891471505165"><ele></ele><time>2015-2-2T20:45:20Z</time></trkpt>
<trkpt lat="46.621004501357675" lon="6.990231648087502"><ele></ele><time>2015-2-2T20:45:23Z</time></trkpt>
<trkpt lat="46.620728652924299" lon="6.989700738340616"><ele></ele><time>2015-2-2T20:45:26Z</time></trkpt>
<trkpt lat="46.620460851117969" lon="6.989175276830792"><ele></ele><time>2015-2-2T20:45:29Z</time></trkpt>
<trkpt lat="46.620235629379749" lon="6.988581418991089"><ele></ele><time>2015-2-2T20:45:32Z</time></trkpt>
<trkpt lat="46.620065560564399" lon="6.987946406006813"><ele></ele><time>2015-2-2T20:45:35Z</time></trkpt>
<trkpt lat="46.619939664378762" lon="6.987308878451586"><ele></ele><time>2015-2-2T20:45:38Z</time></trkpt>
<trkpt lat="46.619806727394462" lon="6.986636985093355"><ele></ele><time>2015-2-2T20:45:41Z</time></trkpt>
<trkpt lat="46.619673455134034" lon="6.985948663204908"><ele></ele><time>2015-2-2T20:45:44Z</time></trkpt>
<trkpt lat="46.619537835940719" lon="6.985242823138833"><ele></ele><time>2015-2-2T20:45:47Z</time></trkpt>
<trkpt lat="46.619399199262261" lon="6.984527092427015"><ele></ele><time>2015-2-2T20:45:50Z</time></trkpt>
<trkpt lat="46.619278835132718" lon="6.983894342556596"><ele></ele><time>2015-2-2T20:45:53Z</time></trkpt>
<trkpt lat="46.619157884269953" lon="6.983260251581669"><ele></ele><time>2015-2-2T20:45:56Z</time></trkpt>
<trkpt lat="46.618998711928725" lon="6.982567235827446"><ele></ele><time>2015-2-2T20:45:59Z</time></trkpt>
<trkpt lat="46.618830822408199" lon="6.981904814019799"><ele></ele><time>2015-2-2T20:46:2Z</time></trkpt>
<trkpt lat="46.618646923452616" lon="6.981238285079598"><ele></ele><time>2015-2-2T20:46:5Z</time></trkpt>
<trkpt lat="46.61844483576715" lon="6.980620538815856"><ele></ele><time>2015-2-2T20:46:8Z</time></trkpt>
<trkpt lat="46.618224726989865" lon="6.979949567466974"><ele></ele><time>2015-2-2T20:46:11Z</time></trkpt>
<trkpt lat="46.618025070056319" lon="6.979332156479359"><ele></ele><time>2015-2-2T20:46:14Z</time></trkpt>
<trkpt lat="46.617884170264006" lon="6.978666381910443"><ele></ele><time>2015-2-2T20:46:17Z</time></trkpt>
<trkpt lat="46.617820886895061" lon="6.977949813008308"><ele></ele><time>2015-2-2T20:46:20Z</time></trkpt>
<trkpt lat="46.617781911045313" lon="6.97721547447145"><ele></ele><time>2015-2-2T20:46:23Z</time></trkpt>
<trkpt lat="46.617743689566851" lon="6.976511981338263"><ele></ele><time>2015-2-2T20:46:26Z</time></trkpt>
<trkpt lat="46.617709910497069" lon="6.975806560367346"><ele></ele><time>2015-2-2T20:46:29Z</time></trkpt>
<trkpt lat="46.617706222459674" lon="6.975144725292921"><ele></ele><time>2015-2-2T20:46:32Z</time></trkpt>
<trkpt lat="46.617946783080697" lon="6.974547682330012"><ele></ele><time>2015-2-2T20:46:35Z</time></trkpt>
<trkpt lat="46.618177201598883" lon="6.973923901095986"><ele></ele><time>2015-2-2T20:46:38Z</time></trkpt>
<trkpt lat="46.618255404755473" lon="6.97325611487031"><ele></ele><time>2015-2-2T20:46:41Z</time></trkpt>
<trkpt lat="46.618190947920084" lon="6.972552537918091"><ele></ele><time>2015-2-2T20:46:44Z</time></trkpt>
<trkpt lat="46.61808717995882" lon="6.971911238506436"><ele></ele><time>2015-2-2T20:46:47Z</time></trkpt>
<trkpt lat="46.617978634312749" lon="6.971246469765902"><ele></ele><time>2015-2-2T20:46:50Z</time></trkpt>
<trkpt lat="46.617916440591216" lon="6.970549011602998"><ele></ele><time>2015-2-2T20:46:53Z</time></trkpt>
<trkpt lat="46.617886265739799" lon="6.96988214738667"><ele></ele><time>2015-2-2T20:46:56Z</time></trkpt>
<trkpt lat="46.617916775867343" lon="6.969210086390376"><ele></ele><time>2015-2-2T20:46:59Z</time></trkpt>
<trkpt lat="46.617727428674698" lon="6.96854623965919"><ele></ele><time>2015-2-2T20:47:2Z</time></trkpt>
<trkpt lat="46.617589630186558" lon="6.967830089852214"><ele></ele><time>2015-2-2T20:47:5Z</time></trkpt>
<trkpt lat="46.617453172802925" lon="6.967162722721696"><ele></ele><time>2015-2-2T20:47:8Z</time></trkpt>
<trkpt lat="46.617228789255023" lon="6.966587053611875"><ele></ele><time>2015-2-2T20:47:11Z</time></trkpt>
<trkpt lat="46.616868367418647" lon="6.966076930984855"><ele></ele><time>2015-2-2T20:47:14Z</time></trkpt>
<trkpt lat="46.616498222574592" lon="6.965585835278034"><ele></ele><time>2015-2-2T20:47:17Z</time></trkpt>
<trkpt lat="46.616159761324525" lon="6.965126087889075"><ele></ele><time>2015-2-2T20:47:20Z</time></trkpt>
<trkpt lat="46.615859856829047" lon="6.964725013822317"><ele></ele><time>2015-2-2T20:47:23Z</time></trkpt>
<trkpt lat="46.615503458306193" lon="6.964262165129185"><ele></ele><time>2015-2-2T20:47:26Z</time></trkpt>
<trkpt lat="46.615148819983006" lon="6.963823959231377"><ele></ele><time>2015-2-2T20:47:29Z</time></trkpt>
<trkpt lat="46.614714805036783" lon="6.96348306722939"><ele></ele><time>2015-2-2T20:47:32Z</time></trkpt>
<trkpt lat="46.614220691844821" lon="6.963087525218725"><ele></ele><time>2015-2-2T20:47:35Z</time></trkpt>
<trkpt lat="46.613859934732318" lon="6.962577905505896"><ele></ele><time>2015-2-2T20:47:38Z</time></trkpt>
<trkpt lat="46.613588193431497" lon="6.962037105113268"><ele></ele><time>2015-2-2T20:47:41Z</time></trkpt>
<trkpt lat="46.613312177360058" lon="6.961471829563379"><ele></ele><time>2015-2-2T20:47:44Z</time></trkpt>
<trkpt lat="46.613040268421173" lon="6.960901357233524"><ele></ele><time>2015-2-2T20:47:47Z</time></trkpt>
<trkpt lat="46.612751008942723" lon="6.960320072248578"><ele></ele><time>2015-2-2T20:47:50Z</time></trkpt>
<trkpt lat="46.612459737807512" lon="6.959728142246604"><ele></ele><time>2015-2-2T20:47:53Z</time></trkpt>
<trkpt lat="46.612173663452268" lon="6.959140487015247"><ele></ele><time>2015-2-2T20:47:56Z</time></trkpt>
<trkpt lat="46.611895048990846" lon="6.958581078797579"><ele></ele><time>2015-2-2T20:47:59Z</time></trkpt>
<trkpt lat="46.611628420650959" lon="6.95802946574986"><ele></ele><time>2015-2-2T20:48:2Z</time></trkpt>
<trkpt lat="46.611354080960155" lon="6.957476930692792"><ele></ele><time>2015-2-2T20:48:5Z</time></trkpt>
<trkpt lat="46.611080495640635" lon="6.956918444484472"><ele></ele><time>2015-2-2T20:48:8Z</time></trkpt>
<trkpt lat="46.610804060474038" lon="6.956348223611713"><ele></ele><time>2015-2-2T20:48:11Z</time></trkpt>
<trkpt lat="46.610524524003267" lon="6.955774733796716"><ele></ele><time>2015-2-2T20:48:14Z</time></trkpt>
<trkpt lat="46.610210202634335" lon="6.955217253416777"><ele></ele><time>2015-2-2T20:48:17Z</time></trkpt>
<trkpt lat="46.60987769253552" lon="6.954637560993433"><ele></ele><time>2015-2-2T20:48:20Z</time></trkpt>
<trkpt lat="46.609548954293132" lon="6.95408770814538"><ele></ele><time>2015-2-2T20:48:23Z</time></trkpt>
<trkpt lat="46.609238907694817" lon="6.953564006835222"><ele></ele><time>2015-2-2T20:48:26Z</time></trkpt>
<trkpt lat="46.609062971547246" lon="6.952936453744769"><ele></ele><time>2015-2-2T20:48:29Z</time></trkpt>
<trkpt lat="46.608750829473138" lon="6.952419793233275"><ele></ele><time>2015-2-2T20:48:32Z</time></trkpt>
<trkpt lat="46.608434664085507" lon="6.951864324510098"><ele></ele><time>2015-2-2T20:48:35Z</time></trkpt>
<trkpt lat="46.608107015490532" lon="6.951313298195601"><ele></ele><time>2015-2-2T20:48:38Z</time></trkpt>
<trkpt lat="46.607798729091883" lon="6.950770569965243"><ele></ele><time>2015-2-2T20:48:41Z</time></trkpt>
<trkpt lat="46.60747954621911" lon="6.950214933604002"><ele></ele><time>2015-2-2T20:48:44Z</time></trkpt>
<trkpt lat="46.607188191264868" lon="6.949622752144933"><ele></ele><time>2015-2-2T20:48:47Z</time></trkpt>
<trkpt lat="46.60689708776772" lon="6.9490269664675"><ele></ele><time>2015-2-2T20:48:50Z</time></trkpt>
<trkpt lat="46.606602296233177" lon="6.94841131567955"><ele></ele><time>2015-2-2T20:48:53Z</time></trkpt>
<trkpt lat="46.60630633123219" lon="6.947780326008797"><ele></ele><time>2015-2-2T20:48:56Z</time></trkpt>
<trkpt lat="46.606064010411501" lon="6.947194682434201"><ele></ele><time>2015-2-2T20:48:59Z</time></trkpt>
<trkpt lat="46.60583384335041" lon="6.946578780189157"><ele></ele><time>2015-2-2T20:49:2Z</time></trkpt>
<trkpt lat="46.605596886947751" lon="6.945960028097034"><ele></ele><time>2015-2-2T20:49:5Z</time></trkpt>
<trkpt lat="46.605365462601185" lon="6.945357033982873"><ele></ele><time>2015-2-2T20:49:8Z</time></trkpt>
<trkpt lat="46.605140827596188" lon="6.944771390408278"><ele></ele><time>2015-2-2T20:49:11Z</time></trkpt>
<trkpt lat="46.604887694120407" lon="6.944114668294787"><ele></ele><time>2015-2-2T20:49:14Z</time></trkpt>
<trkpt lat="46.604743776842952" lon="6.943398015573621"><ele></ele><time>2015-2-2T20:49:17Z</time></trkpt>
<trkpt lat="46.604621484875679" lon="6.942705921828747"><ele></ele><time>2015-2-2T20:49:20Z</time></trkpt>
<trkpt lat="46.604506066069007" lon="6.942034112289548"><ele></ele><time>2015-2-2T20:49:23Z</time></trkpt>
<trkpt lat="46.604392072185874" lon="6.941390801221132"><ele></ele><time>2015-2-2T20:49:26Z</time></trkpt>
<trkpt lat="46.604273216798902" lon="6.940725361928344"><ele></ele><time>2015-2-2T20:49:29Z</time></trkpt>
<trkpt lat="46.604162575677037" lon="6.940062772482634"><ele></ele><time>2015-2-2T20:49:32Z</time></trkpt>
<trkpt lat="46.603798298165202" lon="6.939726825803518"><ele></ele><time>2015-2-2T20:49:35Z</time></trkpt>
<trkpt lat="46.603301502764225" lon="6.939768483862281"><ele></ele><time>2015-2-2T20:49:38Z</time></trkpt>
<trkpt lat="46.602893890812993" lon="6.939380150288343"><ele></ele><time>2015-2-2T20:49:41Z</time></trkpt>
<trkpt lat="46.602513268589973" lon="6.938966168090701"><ele></ele><time>2015-2-2T20:49:44Z</time></trkpt>
<trkpt lat="46.602144045755267" lon="6.938560986891389"><ele></ele><time>2015-2-2T20:49:47Z</time></trkpt>
<trkpt lat="46.601744648069143" lon="6.938243312761188"><ele></ele><time>2015-2-2T20:49:50Z</time></trkpt>
<trkpt lat="46.601301077753305" lon="6.93798297084868"><ele></ele><time>2015-2-2T20:49:53Z</time></trkpt>
<trkpt lat="46.600854489952326" lon="6.937726987525821"><ele></ele><time>2015-2-2T20:49:56Z</time></trkpt>
<trkpt lat="46.600460121408105" lon="6.937283417209983"><ele></ele><time>2015-2-2T20:49:59Z</time></trkpt>
<trkpt lat="46.600101878866553" lon="6.936818305402994"><ele></ele><time>2015-2-2T20:50:2Z</time></trkpt>
<trkpt lat="46.599752269685268" lon="6.936369789764285"><ele></ele><time>2015-2-2T20:50:5Z</time></trkpt>
<trkpt lat="46.599388159811497" lon="6.935902163386345"><ele></ele><time>2015-2-2T20:50:8Z</time></trkpt>
<trkpt lat="46.599037796258926" lon="6.93544945679605"><ele></ele><time>2015-2-2T20:50:11Z</time></trkpt>
<trkpt lat="46.598623562604189" lon="6.934927264228463"><ele></ele><time>2015-2-2T20:50:14Z</time></trkpt>
<trkpt lat="46.598243191838264" lon="6.934425439685583"><ele></ele><time>2015-2-2T20:50:17Z</time></trkpt>
<trkpt lat="46.597884697839618" lon="6.933953957632184"><ele></ele><time>2015-2-2T20:50:20Z</time></trkpt>
<trkpt lat="46.597496280446649" lon="6.933452468365431"><ele></ele><time>2015-2-2T20:50:23Z</time></trkpt>
<trkpt lat="46.597128482535481" lon="6.932978974655271"><ele></ele><time>2015-2-2T20:50:26Z</time></trkpt>
<trkpt lat="46.596767641603947" lon="6.932505229488015"><ele></ele><time>2015-2-2T20:50:29Z</time></trkpt>
<trkpt lat="46.596421217545867" lon="6.932063167914748"><ele></ele><time>2015-2-2T20:50:32Z</time></trkpt>
<trkpt lat="46.59609105437994" lon="6.931560253724456"><ele></ele><time>2015-2-2T20:50:35Z</time></trkpt>
<trkpt lat="46.595799867063761" lon="6.93091643974185"><ele></ele><time>2015-2-2T20:50:38Z</time></trkpt>
<trkpt lat="46.595551008358598" lon="6.93036918528378"><ele></ele><time>2015-2-2T20:50:41Z</time></trkpt>
<trkpt lat="46.595287062227726" lon="6.929800976067781"><ele></ele><time>2015-2-2T20:50:44Z</time></trkpt>
<trkpt lat="46.595029067248106" lon="6.929237293079495"><ele></ele><time>2015-2-2T20:50:47Z</time></trkpt>
<trkpt lat="46.594748944044113" lon="6.928611416369677"><ele></ele><time>2015-2-2T20:50:50Z</time></trkpt>
<trkpt lat="46.594482567161322" lon="6.928031388670206"><ele></ele><time>2015-2-2T20:50:53Z</time></trkpt>
<trkpt lat="46.594230020418763" lon="6.927469214424491"><ele></ele><time>2015-2-2T20:50:56Z</time></trkpt>
<trkpt lat="46.593982335180044" lon="6.926920702680945"><ele></ele><time>2015-2-2T20:50:59Z</time></trkpt>
<trkpt lat="46.593732051551342" lon="6.926375962793827"><ele></ele><time>2015-2-2T20:51:2Z</time></trkpt>
<trkpt lat="46.593477996066213" lon="6.925820577889681"><ele></ele><time>2015-2-2T20:51:5Z</time></trkpt>
<trkpt lat="46.593228885903955" lon="6.925272904336453"><ele></ele><time>2015-2-2T20:51:8Z</time></trkpt>
<trkpt lat="46.592992432415485" lon="6.924686087295413"><ele></ele><time>2015-2-2T20:51:11Z</time></trkpt>
<trkpt lat="46.592748602852225" lon="6.924031712114811"><ele></ele><time>2015-2-2T20:51:14Z</time></trkpt>
<trkpt lat="46.592522040009499" lon="6.923399046063423"><ele></ele><time>2015-2-2T20:51:17Z</time></trkpt>
<trkpt lat="46.592301763594151" lon="6.92278859205544"><ele></ele><time>2015-2-2T20:51:20Z</time></trkpt>
<trkpt lat="46.592019712552428" lon="6.922176713123918"><ele></ele><time>2015-2-2T20:51:23Z</time></trkpt>
<trkpt lat="46.591619225218892" lon="6.921858536079526"><ele></ele><time>2015-2-2T20:51:26Z</time></trkpt>
<trkpt lat="46.591204907745123" lon="6.921510854735971"><ele></ele><time>2015-2-2T20:51:29Z</time></trkpt>
<trkpt lat="46.590729067102075" lon="6.921410690993071"><ele></ele><time>2015-2-2T20:51:32Z</time></trkpt>
<trkpt lat="46.590221375226974" lon="6.921368949115276"><ele></ele><time>2015-2-2T20:51:35Z</time></trkpt>
<trkpt lat="46.589772189036012" lon="6.921352604404092"><ele></ele><time>2015-2-2T20:51:38Z</time></trkpt>
<trkpt lat="46.589288972318172" lon="6.921459641307592"><ele></ele><time>2015-2-2T20:51:41Z</time></trkpt>
<trkpt lat="46.589009771123528" lon="6.922078477218747"><ele></ele><time>2015-2-2T20:51:44Z</time></trkpt>
<trkpt lat="46.588750602677464" lon="6.922707203775644"><ele></ele><time>2015-2-2T20:51:47Z</time></trkpt>
<trkpt lat="46.588478023186326" lon="6.923291254788637"><ele></ele><time>2015-2-2T20:51:50Z</time></trkpt>
<trkpt lat="46.588168311864138" lon="6.9239407684654"><ele></ele><time>2015-2-2T20:51:53Z</time></trkpt>
<trkpt lat="46.587915178388357" lon="6.924501098692417"><ele></ele><time>2015-2-2T20:51:56Z</time></trkpt>
<trkpt lat="46.587543189525604" lon="6.924727242439985"><ele></ele><time>2015-2-2T20:51:59Z</time></trkpt>
<trkpt lat="46.587069695815444" lon="6.924582486972213"><ele></ele><time>2015-2-2T20:52:2Z</time></trkpt>
<trkpt lat="46.586596872657537" lon="6.924454662948847"><ele></ele><time>2015-2-2T20:52:5Z</time></trkpt>
<trkpt lat="46.586154978722334" lon="6.924637723714113"><ele></ele><time>2015-2-2T20:52:8Z</time></trkpt>
<trkpt lat="46.585716689005494" lon="6.92468055523932"><ele></ele><time>2015-2-2T20:52:11Z</time></trkpt>
<trkpt lat="46.585281835868955" lon="6.924398336559534"><ele></ele><time>2015-2-2T20:52:14Z</time></trkpt>
<trkpt lat="46.584835415706038" lon="6.924090720713139"><ele></ele><time>2015-2-2T20:52:17Z</time></trkpt>
<trkpt lat="46.584406429901719" lon="6.923792324960232"><ele></ele><time>2015-2-2T20:52:20Z</time></trkpt>
<trkpt lat="46.583995884284377" lon="6.923502059653401"><ele></ele><time>2015-2-2T20:52:23Z</time></trkpt>
<trkpt lat="46.58358802087605" lon="6.923220762982965"><ele></ele><time>2015-2-2T20:52:26Z</time></trkpt>
<trkpt lat="46.583176217973232" lon="6.922948518767953"><ele></ele><time>2015-2-2T20:52:29Z</time></trkpt>
<trkpt lat="46.582723511382937" lon="6.92272899672389"><ele></ele><time>2015-2-2T20:52:32Z</time></trkpt>
<trkpt lat="46.582267871126533" lon="6.922484831884503"><ele></ele><time>2015-2-2T20:52:35Z</time></trkpt>
<trkpt lat="46.58179622143507" lon="6.922176377847791"><ele></ele><time>2015-2-2T20:52:38Z</time></trkpt>
<trkpt lat="46.581367738544941" lon="6.921886280179024"><ele></ele><time>2015-2-2T20:52:41Z</time></trkpt>
<trkpt lat="46.580924922600389" lon="6.9215352460742"><ele></ele><time>2015-2-2T20:52:44Z</time></trkpt>
<trkpt lat="46.58048814162612" lon="6.921107769012451"><ele></ele><time>2015-2-2T20:52:47Z</time></trkpt>
<trkpt lat="46.580112129449844" lon="6.92074173130095"><ele></ele><time>2015-2-2T20:52:50Z</time></trkpt>
<trkpt lat="46.579740308225155" lon="6.920366054400802"><ele></ele><time>2015-2-2T20:52:53Z</time></trkpt>
<trkpt lat="46.579302018508315" lon="6.919933967292309"><ele></ele><time>2015-2-2T20:52:56Z</time></trkpt>
<trkpt lat="46.578869679942727" lon="6.91950892098248"><ele></ele><time>2015-2-2T20:52:59Z</time></trkpt>
<trkpt lat="46.578456703573465" lon="6.919108014553785"><ele></ele><time>2015-2-2T20:53:2Z</time></trkpt>
<trkpt lat="46.578057389706373" lon="6.918713562190533"><ele></ele><time>2015-2-2T20:53:5Z</time></trkpt>
<trkpt lat="46.577669978141785" lon="6.918328916653991"><ele></ele><time>2015-2-2T20:53:8Z</time></trkpt>
<trkpt lat="46.577291870489717" lon="6.917959693819284"><ele></ele><time>2015-2-2T20:53:11Z</time></trkpt>
<trkpt lat="46.576863890513778" lon="6.917532719671726"><ele></ele><time>2015-2-2T20:53:14Z</time></trkpt>
<trkpt lat="46.576473042368889" lon="6.917138770222664"><ele></ele><time>2015-2-2T20:53:17Z</time></trkpt>
<trkpt lat="46.576081607490778" lon="6.916982363909483"><ele></ele><time>2015-2-2T20:53:20Z</time></trkpt>
<trkpt lat="46.575932241976261" lon="6.917604468762875"><ele></ele><time>2015-2-2T20:53:23Z</time></trkpt>
<trkpt lat="46.575762676075101" lon="6.918280133977532"><ele></ele><time>2015-2-2T20:53:26Z</time></trkpt>
<trkpt lat="46.575606102123857" lon="6.918923109769821"><ele></ele><time>2015-2-2T20:53:29Z</time></trkpt>
<trkpt lat="46.575173093006015" lon="6.918814899399877"><ele></ele><time>2015-2-2T20:53:32Z</time></trkpt>
<trkpt lat="46.57472675666213" lon="6.918592862784863"><ele></ele><time>2015-2-2T20:53:35Z</time></trkpt>
<trkpt lat="46.574251418933272" lon="6.918338974937797"><ele></ele><time>2015-2-2T20:53:38Z</time></trkpt>
<trkpt lat="46.573801646009088" lon="6.918119788169861"><ele></ele><time>2015-2-2T20:53:41Z</time></trkpt>
<trkpt lat="46.573336785659194" lon="6.917917532846332"><ele></ele><time>2015-2-2T20:53:44Z</time></trkpt>
<trkpt lat="46.572864465415478" lon="6.917687533423305"><ele></ele><time>2015-2-2T20:53:47Z</time></trkpt>
<trkpt lat="46.572377476841211" lon="6.91745619289577"><ele></ele><time>2015-2-2T20:53:50Z</time></trkpt>
<trkpt lat="46.571886297315359" lon="6.917214710265398"><ele></ele><time>2015-2-2T20:53:53Z</time></trkpt>
<trkpt lat="46.571435937657952" lon="6.916989572346211"><ele></ele><time>2015-2-2T20:53:56Z</time></trkpt>
<trkpt lat="46.570977782830596" lon="6.916776336729527"><ele></ele><time>2015-2-2T20:53:59Z</time></trkpt>
<trkpt lat="46.570498086512089" lon="6.916556060314179"><ele></ele><time>2015-2-2T20:54:2Z</time></trkpt>
<trkpt lat="46.570007409900427" lon="6.916313655674458"><ele></ele><time>2015-2-2T20:54:5Z</time></trkpt>
<trkpt lat="46.569577418267727" lon="6.916110813617706"><ele></ele><time>2015-2-2T20:54:8Z</time></trkpt>
<trkpt lat="46.569068050011992" lon="6.915863966569305"><ele></ele><time>2015-2-2T20:54:11Z</time></trkpt>
<trkpt lat="46.568573853000998" lon="6.915632877498865"><ele></ele><time>2015-2-2T20:54:14Z</time></trkpt>
<trkpt lat="46.568125588819385" lon="6.915415031835437"><ele></ele><time>2015-2-2T20:54:17Z</time></trkpt>
<trkpt lat="46.567666679620743" lon="6.915196180343628"><ele></ele><time>2015-2-2T20:54:20Z</time></trkpt>
<trkpt lat="46.567331403493881" lon="6.914744060486555"><ele></ele><time>2015-2-2T20:54:23Z</time></trkpt>
<trkpt lat="46.567109450697899" lon="6.914031514897943"><ele></ele><time>2015-2-2T20:54:26Z</time></trkpt>
<trkpt lat="46.566908033564687" lon="6.9134103320539"><ele></ele><time>2015-2-2T20:54:29Z</time></trkpt>
<trkpt lat="46.566698234528303" lon="6.912761656567454"><ele></ele><time>2015-2-2T20:54:32Z</time></trkpt>
<trkpt lat="46.566478544846177" lon="6.912100743502379"><ele></ele><time>2015-2-2T20:54:35Z</time></trkpt>
<trkpt lat="46.566264554858208" lon="6.91142893396318"><ele></ele><time>2015-2-2T20:54:38Z</time></trkpt>
<trkpt lat="46.566034974530339" lon="6.910742875188589"><ele></ele><time>2015-2-2T20:54:41Z</time></trkpt>
<trkpt lat="46.565818805247545" lon="6.910038124769926"><ele></ele><time>2015-2-2T20:54:44Z</time></trkpt>
<trkpt lat="46.565645299851894" lon="6.909299595281482"><ele></ele><time>2015-2-2T20:54:47Z</time></trkpt>
<trkpt lat="46.565562067553401" lon="6.908553270623088"><ele></ele><time>2015-2-2T20:54:50Z</time></trkpt>
<trkpt lat="46.565498365089297" lon="6.907811556011438"><ele></ele><time>2015-2-2T20:54:53Z</time></trkpt>
<trkpt lat="46.56543692573905" lon="6.90709188580513"><ele></ele><time>2015-2-2T20:54:56Z</time></trkpt>
<trkpt lat="46.56534749083221" lon="6.906387051567435"><ele></ele><time>2015-2-2T20:54:59Z</time></trkpt>
<trkpt lat="46.565145738422871" lon="6.905734017491341"><ele></ele><time>2015-2-2T20:55:2Z</time></trkpt>
<trkpt lat="46.564957899972796" lon="6.905097579583526"><ele></ele><time>2015-2-2T20:55:5Z</time></trkpt>
<trkpt lat="46.564736617729068" lon="6.904400372877717"><ele></ele><time>2015-2-2T20:55:8Z</time></trkpt>
<trkpt lat="46.564539894461632" lon="6.903737531974912"><ele></ele><time>2015-2-2T20:55:11Z</time></trkpt>
<trkpt lat="46.564401006326079" lon="6.903074523434043"><ele></ele><time>2015-2-2T20:55:14Z</time></trkpt>
<trkpt lat="46.564360270276666" lon="6.902403049170971"><ele></ele><time>2015-2-2T20:55:17Z</time></trkpt>
<trkpt lat="46.564378207549453" lon="6.901656724512577"><ele></ele><time>2015-2-2T20:55:20Z</time></trkpt>
<trkpt lat="46.564388517290354" lon="6.900932947173715"><ele></ele><time>2015-2-2T20:55:23Z</time></trkpt>
<trkpt lat="46.564294723793864" lon="6.900270525366068"><ele></ele><time>2015-2-2T20:55:26Z</time></trkpt>
<trkpt lat="46.564046116545796" lon="6.899640457704663"><ele></ele><time>2015-2-2T20:55:29Z</time></trkpt>
<trkpt lat="46.563618807122111" lon="6.899575917050242"><ele></ele><time>2015-2-2T20:55:32Z</time></trkpt>
<trkpt lat="46.563110444694757" lon="6.899663591757417"><ele></ele><time>2015-2-2T20:55:35Z</time></trkpt>
<trkpt lat="46.562576182186604" lon="6.899766521528363"><ele></ele><time>2015-2-2T20:55:38Z</time></trkpt>
<trkpt lat="46.562122972682118" lon="6.899852938950062"><ele></ele><time>2015-2-2T20:55:41Z</time></trkpt>
<trkpt lat="46.561600528657436" lon="6.899954695254564"><ele></ele><time>2015-2-2T20:55:44Z</time></trkpt>
<trkpt lat="46.561076575890183" lon="6.900056032463908"><ele></ele><time>2015-2-2T20:55:47Z</time></trkpt>
<trkpt lat="46.560576511546969" lon="6.900158040225506"><ele></ele><time>2015-2-2T20:55:50Z</time></trkpt>
<trkpt lat="46.560073429718614" lon="6.900258539244533"><ele></ele><time>2015-2-2T20:55:53Z</time></trkpt>
<trkpt lat="46.55960907228291" lon="6.900401702150703"><ele></ele><time>2015-2-2T20:55:56Z</time></trkpt>
<trkpt lat="46.559179835021496" lon="6.900616111233831"><ele></ele><time>2015-2-2T20:55:59Z</time></trkpt>
<trkpt lat="46.55875495634973" lon="6.900900593027473"><ele></ele><time>2015-2-2T20:56:2Z</time></trkpt>
<trkpt lat="46.558334100991488" lon="6.901290686801076"><ele></ele><time>2015-2-2T20:56:5Z</time></trkpt>
<trkpt lat="46.557898409664631" lon="6.901615485548973"><ele></ele><time>2015-2-2T20:56:8Z</time></trkpt>
<trkpt lat="46.557462299242616" lon="6.901795361191034"><ele></ele><time>2015-2-2T20:56:11Z</time></trkpt>
<trkpt lat="46.556968605145812" lon="6.901875911280513"><ele></ele><time>2015-2-2T20:56:14Z</time></trkpt>
<trkpt lat="46.556507097557187" lon="6.901965765282512"><ele></ele><time>2015-2-2T20:56:17Z</time></trkpt>
<trkpt lat="46.556048775091767" lon="6.902023516595364"><ele></ele><time>2015-2-2T20:56:20Z</time></trkpt>
<trkpt lat="46.555578969419003" lon="6.902091829106212"><ele></ele><time>2015-2-2T20:56:23Z</time></trkpt>
<trkpt lat="46.555132297798991" lon="6.902168188244104"><ele></ele><time>2015-2-2T20:56:26Z</time></trkpt>
<trkpt lat="46.554657127708197" lon="6.902236752212048"><ele></ele><time>2015-2-2T20:56:29Z</time></trkpt>
<trkpt lat="46.554198721423745" lon="6.902306992560625"><ele></ele><time>2015-2-2T20:56:32Z</time></trkpt>
<trkpt lat="46.553724138066173" lon="6.902384692803025"><ele></ele><time>2015-2-2T20:56:35Z</time></trkpt>
<trkpt lat="46.553250644356012" lon="6.902470020577312"><ele></ele><time>2015-2-2T20:56:38Z</time></trkpt>
<trkpt lat="46.552799781784415" lon="6.90249240025878"><ele></ele><time>2015-2-2T20:56:41Z</time></trkpt>
<trkpt lat="46.552342213690281" lon="6.902290564030409"><ele></ele><time>2015-2-2T20:56:44Z</time></trkpt>
<trkpt lat="46.551876766607165" lon="6.902152094990015"><ele></ele><time>2015-2-2T20:56:47Z</time></trkpt>
<trkpt lat="46.551408050581813" lon="6.901990827172995"><ele></ele><time>2015-2-2T20:56:50Z</time></trkpt>
<trkpt lat="46.550965821370482" lon="6.901778597384691"><ele></ele><time>2015-2-2T20:56:53Z</time></trkpt>
<trkpt lat="46.550479922443628" lon="6.901609869673848"><ele></ele><time>2015-2-2T20:56:56Z</time></trkpt>
<trkpt lat="46.549970889464021" lon="6.901580784469843"><ele></ele><time>2015-2-2T20:56:59Z</time></trkpt>
<trkpt lat="46.549559086561203" lon="6.901477184146643"><ele></ele><time>2015-2-2T20:57:2Z</time></trkpt>
<trkpt lat="46.549353143200278" lon="6.900791628286243"><ele></ele><time>2015-2-2T20:57:5Z</time></trkpt>
<trkpt lat="46.548966905102134" lon="6.900253761559725"><ele></ele><time>2015-2-2T20:57:8Z</time></trkpt>
<trkpt lat="46.548549570143223" lon="6.899943631142378"><ele></ele><time>2015-2-2T20:57:11Z</time></trkpt>
<trkpt lat="46.54811991378665" lon="6.89962612465024"><ele></ele><time>2015-2-2T20:57:14Z</time></trkpt>
<trkpt lat="46.54770995490253" lon="6.899315407499671"><ele></ele><time>2015-2-2T20:57:17Z</time></trkpt>
<trkpt lat="46.547295721247792" lon="6.899030171334744"><ele></ele><time>2015-2-2T20:57:20Z</time></trkpt>
<trkpt lat="46.546887187287211" lon="6.898758430033922"><ele></ele><time>2015-2-2T20:57:23Z</time></trkpt>
<trkpt lat="46.546483431011438" lon="6.898469757288694"><ele></ele><time>2015-2-2T20:57:26Z</time></trkpt>
<trkpt lat="46.546019073575735" lon="6.898179575800896"><ele></ele><time>2015-2-2T20:57:29Z</time></trkpt>
<trkpt lat="46.545582124963403" lon="6.898018391802907"><ele></ele><time>2015-2-2T20:57:32Z</time></trkpt>
<trkpt lat="46.545127239078283" lon="6.897889142856002"><ele></ele><time>2015-2-2T20:57:35Z</time></trkpt>
<trkpt lat="46.54465994797647" lon="6.897736173123121"><ele></ele><time>2015-2-2T20:57:38Z</time></trkpt>
<trkpt lat="46.544204223901033" lon="6.897611701861024"><ele></ele><time>2015-2-2T20:57:41Z</time></trkpt>
<trkpt lat="46.543739615008235" lon="6.897576497867703"><ele></ele><time>2015-2-2T20:57:44Z</time></trkpt>
<trkpt lat="46.543233934789896" lon="6.897673811763525"><ele></ele><time>2015-2-2T20:57:47Z</time></trkpt>
<trkpt lat="46.542722219601274" lon="6.897774897515774"><ele></ele><time>2015-2-2T20:57:50Z</time></trkpt>
<trkpt lat="46.54227789491415" lon="6.897880928590894"><ele></ele><time>2015-2-2T20:57:53Z</time></trkpt>
<trkpt lat="46.541793504729867" lon="6.897998275235295"><ele></ele><time>2015-2-2T20:57:56Z</time></trkpt>
<trkpt lat="46.541265612468123" lon="6.898025432601571"><ele></ele><time>2015-2-2T20:57:59Z</time></trkpt>
<trkpt lat="46.540764039382339" lon="6.898017469793558"><ele></ele><time>2015-2-2T20:58:2Z</time></trkpt>
<trkpt lat="46.540236985310912" lon="6.897977236658335"><ele></ele><time>2015-2-2T20:58:5Z</time></trkpt>
<trkpt lat="46.539786206558347" lon="6.89795695245266"><ele></ele><time>2015-2-2T20:58:8Z</time></trkpt>
<trkpt lat="46.539270132780075" lon="6.897879168391228"><ele></ele><time>2015-2-2T20:58:11Z</time></trkpt>
<trkpt lat="46.538766967132688" lon="6.897740531712771"><ele></ele><time>2015-2-2T20:58:14Z</time></trkpt>
<trkpt lat="46.538307471200824" lon="6.897578174248338"><ele></ele><time>2015-2-2T20:58:17Z</time></trkpt>
<trkpt lat="46.537845376878977" lon="6.897400813177228"><ele></ele><time>2015-2-2T20:58:20Z</time></trkpt>
<trkpt lat="46.537359477952123" lon="6.897222613915801"><ele></ele><time>2015-2-2T20:58:23Z</time></trkpt>
<trkpt lat="46.536884643137455" lon="6.897062519565225"><ele></ele><time>2015-2-2T20:58:26Z</time></trkpt>
<trkpt lat="46.536435959860682" lon="6.89699973911047"><ele></ele><time>2015-2-2T20:58:29Z</time></trkpt>
<trkpt lat="46.535925082862377" lon="6.896947855129838"><ele></ele><time>2015-2-2T20:58:32Z</time></trkpt>
<trkpt lat="46.535467263311148" lon="6.896890439093113"><ele></ele><time>2015-2-2T20:58:35Z</time></trkpt>
<trkpt lat="46.534959236159921" lon="6.896826066076756"><ele></ele><time>2015-2-2T20:58:38Z</time></trkpt>
<trkpt lat="46.534445593133569" lon="6.896747276186943"><ele></ele><time>2015-2-2T20:58:41Z</time></trkpt>
<trkpt lat="46.534000346437097" lon="6.896659852936864"><ele></ele><time>2015-2-2T20:58:44Z</time></trkpt>
<trkpt lat="46.533534144982696" lon="6.896490706130862"><ele></ele><time>2015-2-2T20:58:47Z</time></trkpt>
<trkpt lat="46.533085210248828" lon="6.896285684779286"><ele></ele><time>2015-2-2T20:58:50Z</time></trkpt>
<trkpt lat="46.532642645761371" lon="6.896119052544236"><ele></ele><time>2015-2-2T20:58:53Z</time></trkpt>
<trkpt lat="46.532138055190444" lon="6.895995251834393"><ele></ele><time>2015-2-2T20:58:56Z</time></trkpt>
<trkpt lat="46.531672943383455" lon="6.895964490249753"><ele></ele><time>2015-2-2T20:58:59Z</time></trkpt>
<trkpt lat="46.531147062778473" lon="6.895969603210688"><ele></ele><time>2015-2-2T20:59:2Z</time></trkpt>
<trkpt lat="46.530657140538096" lon="6.896178061142564"><ele></ele><time>2015-2-2T20:59:5Z</time></trkpt>
<trkpt lat="46.530196471139789" lon="6.896550133824348"><ele></ele><time>2015-2-2T20:59:8Z</time></trkpt>
<trkpt lat="46.529736137017608" lon="6.896782983094454"><ele></ele><time>2015-2-2T20:59:11Z</time></trkpt>
<trkpt lat="46.529275635257363" lon="6.897059502080083"><ele></ele><time>2015-2-2T20:59:14Z</time></trkpt>
<trkpt lat="46.52881764806807" lon="6.897295452654362"><ele></ele><time>2015-2-2T20:59:17Z</time></trkpt>
<trkpt lat="46.528335437178612" lon="6.897472897544503"><ele></ele><time>2015-2-2T20:59:20Z</time></trkpt>
<trkpt lat="46.527901338413358" lon="6.897542718797922"><ele></ele><time>2015-2-2T20:59:23Z</time></trkpt>
<trkpt lat="46.527625992894173" lon="6.89814068377018"><ele></ele><time>2015-2-2T20:59:26Z</time></trkpt>
<trkpt lat="46.527486015111208" lon="6.898794891312718"><ele></ele><time>2015-2-2T20:59:29Z</time></trkpt>
<trkpt lat="46.527446871623397" lon="6.899474831297994"><ele></ele><time>2015-2-2T20:59:32Z</time></trkpt>
<trkpt lat="46.527214525267482" lon="6.900066174566746"><ele></ele><time>2015-2-2T20:59:35Z</time></trkpt>
<trkpt lat="46.526917722076178" lon="6.900669001042843"><ele></ele><time>2015-2-2T20:59:38Z</time></trkpt>
<trkpt lat="46.526494435966015" lon="6.900656679645181"><ele></ele><time>2015-2-2T20:59:41Z</time></trkpt>
<trkpt lat="46.526080956682563" lon="6.90031754784286"><ele></ele><time>2015-2-2T20:59:44Z</time></trkpt>
<trkpt lat="46.525601763278246" lon="6.900241943076253"><ele></ele><time>2015-2-2T20:59:47Z</time></trkpt>
<trkpt lat="46.525110919028521" lon="6.90012845210731"><ele></ele><time>2015-2-2T20:59:50Z</time></trkpt>
<trkpt lat="46.524646477773786" lon="6.89995595254004"><ele></ele><time>2015-2-2T20:59:53Z</time></trkpt>
<trkpt lat="46.5242122951895" lon="6.899753864854574"><ele></ele><time>2015-2-2T20:59:56Z</time></trkpt>
<trkpt lat="46.523728743195534" lon="6.899492181837559"><ele></ele><time>2015-2-2T20:59:59Z</time></trkpt>
<trkpt lat="46.5232555847615" lon="6.899225888773799"><ele></ele><time>2015-2-2T21:0:2Z</time></trkpt>
<trkpt lat="46.522839674726129" lon="6.898823557421565"><ele></ele><time>2015-2-2T21:0:5Z</time></trkpt>
<trkpt lat="46.522507751360536" lon="6.898309998214245"><ele></ele><time>2015-2-2T21:0:8Z</time></trkpt>
<trkpt lat="46.522192675620317" lon="6.89781772904098"><ele></ele><time>2015-2-2T21:0:11Z</time></trkpt>
<trkpt lat="46.521838791668415" lon="6.897328142076731"><ele></ele><time>2015-2-2T21:0:14Z</time></trkpt>
<trkpt lat="46.52143981307745" lon="6.896963445469737"><ele></ele><time>2015-2-2T21:0:17Z</time></trkpt>
<trkpt lat="46.521012000739574" lon="6.896621715277433"><ele></ele><time>2015-2-2T21:0:20Z</time></trkpt>
<trkpt lat="46.520575471222401" lon="6.896284595131874"><ele></ele><time>2015-2-2T21:0:23Z</time></trkpt>
<trkpt lat="46.520147155970335" lon="6.895952085033059"><ele></ele><time>2015-2-2T21:0:26Z</time></trkpt>
<trkpt lat="46.519706519320607" lon="6.895627370104194"><ele></ele><time>2015-2-2T21:0:29Z</time></trkpt>
<trkpt lat="46.519284574314952" lon="6.895322101190686"><ele></ele><time>2015-2-2T21:0:32Z</time></trkpt>
<trkpt lat="46.518853912129998" lon="6.895103752613068"><ele></ele><time>2015-2-2T21:0:35Z</time></trkpt>
<trkpt lat="46.518386453390121" lon="6.894947430118918"><ele></ele><time>2015-2-2T21:0:38Z</time></trkpt>
<trkpt lat="46.517931567505002" lon="6.894875261932612"><ele></ele><time>2015-2-2T21:0:41Z</time></trkpt>
<trkpt lat="46.517454972490668" lon="6.894794711843133"><ele></ele><time>2015-2-2T21:0:44Z</time></trkpt>
<trkpt lat="46.516969576478004" lon="6.894721789285541"><ele></ele><time>2015-2-2T21:0:47Z</time></trkpt>
<trkpt lat="46.516471607610583" lon="6.894641574472189"><ele></ele><time>2015-2-2T21:0:50Z</time></trkpt>
<trkpt lat="46.515961736440659" lon="6.894553229212761"><ele></ele><time>2015-2-2T21:0:53Z</time></trkpt>
<trkpt lat="46.515504419803619" lon="6.894455831497908"><ele></ele><time>2015-2-2T21:0:56Z</time></trkpt>
<trkpt lat="46.515054143965244" lon="6.894210912287235"><ele></ele><time>2015-2-2T21:0:59Z</time></trkpt>
<trkpt lat="46.514598587527871" lon="6.893926430493593"><ele></ele><time>2015-2-2T21:1:2Z</time></trkpt>
<trkpt lat="46.514174966141582" lon="6.893555531278253"><ele></ele><time>2015-2-2T21:1:5Z</time></trkpt>
<trkpt lat="46.513791494071484" lon="6.893101148307324"><ele></ele><time>2015-2-2T21:1:8Z</time></trkpt>
<trkpt lat="46.513341637328267" lon="6.892753634601831"><ele></ele><time>2015-2-2T21:1:11Z</time></trkpt>
<trkpt lat="46.512926397845149" lon="6.892488515004516"><ele></ele><time>2015-2-2T21:1:14Z</time></trkpt>
<trkpt lat="46.512505291029811" lon="6.892169248312712"><ele></ele><time>2015-2-2T21:1:17Z</time></trkpt>
<trkpt lat="46.512168170884252" lon="6.89168150536716"><ele></ele><time>2015-2-2T21:1:20Z</time></trkpt>
<trkpt lat="46.511878995224833" lon="6.891163839027286"><ele></ele><time>2015-2-2T21:1:23Z</time></trkpt>
<trkpt lat="46.511497870087624" lon="6.890802579000592"><ele></ele><time>2015-2-2T21:1:26Z</time></trkpt>
<trkpt lat="46.511012390255928" lon="6.890552714467049"><ele></ele><time>2015-2-2T21:1:29Z</time></trkpt>
<trkpt lat="46.510559264570475" lon="6.890461603179574"><ele></ele><time>2015-2-2T21:1:32Z</time></trkpt>
<trkpt lat="46.510095661506057" lon="6.890391111373901"><ele></ele><time>2015-2-2T21:1:35Z</time></trkpt>
<trkpt lat="46.509631806984544" lon="6.890398235991597"><ele></ele><time>2015-2-2T21:1:38Z</time></trkpt>
<trkpt lat="46.509157810360193" lon="6.890467051416636"><ele></ele><time>2015-2-2T21:1:41Z</time></trkpt>
<trkpt lat="46.50867635384202" lon="6.890261108055711"><ele></ele><time>2015-2-2T21:1:44Z</time></trkpt>
<trkpt lat="46.508283745497465" lon="6.889734975993633"><ele></ele><time>2015-2-2T21:1:47Z</time></trkpt>
<trkpt lat="46.50795022957027" lon="6.889245305210352"><ele></ele><time>2015-2-2T21:1:50Z</time></trkpt>
<trkpt lat="46.507651833817363" lon="6.888639042153955"><ele></ele><time>2015-2-2T21:1:53Z</time></trkpt>
<trkpt lat="46.507429042831063" lon="6.887907385826111"><ele></ele><time>2015-2-2T21:1:56Z</time></trkpt>
<trkpt lat="46.507204743102193" lon="6.887305900454521"><ele></ele><time>2015-2-2T21:1:59Z</time></trkpt>
<trkpt lat="46.50693635456264" lon="6.886735931038857"><ele></ele><time>2015-2-2T21:2:2Z</time></trkpt>
<trkpt lat="46.506613567471504" lon="6.886254139244556"><ele></ele><time>2015-2-2T21:2:5Z</time></trkpt>
<trkpt lat="46.506237890571356" lon="6.885836133733392"><ele></ele><time>2015-2-2T21:2:8Z</time></trkpt>
<trkpt lat="46.505848467350006" lon="6.885445201769471"><ele></ele><time>2015-2-2T21:2:11Z</time></trkpt>
<trkpt lat="46.505420655012131" lon="6.88514462672174"><ele></ele><time>2015-2-2T21:2:14Z</time></trkpt>
<trkpt lat="46.505008516833186" lon="6.884812535718083"><ele></ele><time>2015-2-2T21:2:17Z</time></trkpt>
<trkpt lat="46.504759406670928" lon="6.884226640686393"><ele></ele><time>2015-2-2T21:2:20Z</time></trkpt>
<trkpt lat="46.504557318985462" lon="6.883594477549195"><ele></ele><time>2015-2-2T21:2:23Z</time></trkpt>
<trkpt lat="46.504295552149415" lon="6.882985616102815"><ele></ele><time>2015-2-2T21:2:26Z</time></trkpt>
<trkpt lat="46.50402900762856" lon="6.882392428815365"><ele></ele><time>2015-2-2T21:2:29Z</time></trkpt>
<trkpt lat="46.503771767020226" lon="6.881820615381002"><ele></ele><time>2015-2-2T21:2:32Z</time></trkpt>
<trkpt lat="46.503472030162811" lon="6.881161378696561"><ele></ele><time>2015-2-2T21:2:35Z</time></trkpt>
<trkpt lat="46.503184195607901" lon="6.880550840869546"><ele></ele><time>2015-2-2T21:2:38Z</time></trkpt>
<trkpt lat="46.502924021333456" lon="6.879956144839525"><ele></ele><time>2015-2-2T21:2:41Z</time></trkpt>
<trkpt lat="46.502620428800583" lon="6.879334794357419"><ele></ele><time>2015-2-2T21:2:44Z</time></trkpt>
<trkpt lat="46.502257073298097" lon="6.878833808004856"><ele></ele><time>2015-2-2T21:2:47Z</time></trkpt>
<trkpt lat="46.501841582357883" lon="6.878455113619566"><ele></ele><time>2015-2-2T21:2:50Z</time></trkpt>
<trkpt lat="46.501417038962245" lon="6.878133248537779"><ele></ele><time>2015-2-2T21:2:53Z</time></trkpt>
<trkpt lat="46.501018395647407" lon="6.877830410376191"><ele></ele><time>2015-2-2T21:2:56Z</time></trkpt>
<trkpt lat="46.500567113980651" lon="6.877483818680048"><ele></ele><time>2015-2-2T21:2:59Z</time></trkpt>
<trkpt lat="46.500117927789688" lon="6.877179052680731"><ele></ele><time>2015-2-2T21:3:2Z</time></trkpt>
<trkpt lat="46.499615348875523" lon="6.877054497599602"><ele></ele><time>2015-2-2T21:3:5Z</time></trkpt>
<trkpt lat="46.49915736168623" lon="6.876776050776243"><ele></ele><time>2015-2-2T21:3:8Z</time></trkpt>
<trkpt lat="46.498875645920634" lon="6.876186216250062"><ele></ele><time>2015-2-2T21:3:11Z</time></trkpt>
<trkpt lat="46.498662661761045" lon="6.87553527764976"><ele></ele><time>2015-2-2T21:3:14Z</time></trkpt>
<trkpt lat="46.498228227719665" lon="6.875190194696188"><ele></ele><time>2015-2-2T21:3:17Z</time></trkpt>
<trkpt lat="46.497751548886299" lon="6.875007636845112"><ele></ele><time>2015-2-2T21:3:20Z</time></trkpt>
<trkpt lat="46.497405376285315" lon="6.874510003253818"><ele></ele><time>2015-2-2T21:3:23Z</time></trkpt>
<trkpt lat="46.497084097936749" lon="6.873970627784729"><ele></ele><time>2015-2-2T21:3:26Z</time></trkpt>
<trkpt lat="46.496733482927084" lon="6.873444328084588"><ele></ele><time>2015-2-2T21:3:29Z</time></trkpt>
<trkpt lat="46.496366020292044" lon="6.87293236143887"><ele></ele><time>2015-2-2T21:3:32Z</time></trkpt>
<trkpt lat="46.495998976752162" lon="6.872437158599496"><ele></ele><time>2015-2-2T21:3:35Z</time></trkpt>
<trkpt lat="46.49564366787672" lon="6.871916893869638"><ele></ele><time>2015-2-2T21:3:38Z</time></trkpt>
<trkpt lat="46.495245024561882" lon="6.871420769020915"><ele></ele><time>2015-2-2T21:3:41Z</time></trkpt>
<trkpt lat="46.494837747886777" lon="6.871110806241632"><ele></ele><time>2015-2-2T21:3:44Z</time></trkpt>
<trkpt lat="46.494381185621023" lon="6.870980467647314"><ele></ele><time>2015-2-2T21:3:47Z</time></trkpt>
<trkpt lat="46.493924958631396" lon="6.870917687192559"><ele></ele><time>2015-2-2T21:3:50Z</time></trkpt>
<trkpt lat="46.493478454649448" lon="6.870832527056336"><ele></ele><time>2015-2-2T21:3:53Z</time></trkpt>
<trkpt lat="46.493046870455146" lon="6.870528850704432"><ele></ele><time>2015-2-2T21:3:56Z</time></trkpt>
<trkpt lat="46.492601288482547" lon="6.870175804942846"><ele></ele><time>2015-2-2T21:3:59Z</time></trkpt>
<trkpt lat="46.492136511951685" lon="6.869808677583933"><ele></ele><time>2015-2-2T21:4:2Z</time></trkpt>
<trkpt lat="46.491788243874907" lon="6.869413387030363"><ele></ele><time>2015-2-2T21:4:5Z</time></trkpt>
<trkpt lat="46.49165547452867" lon="6.868768148124218"><ele></ele><time>2015-2-2T21:4:8Z</time></trkpt>
<trkpt lat="46.49146931245923" lon="6.868165489286184"><ele></ele><time>2015-2-2T21:4:11Z</time></trkpt>
<trkpt lat="46.49117317982018" lon="6.867623766884208"><ele></ele><time>2015-2-2T21:4:14Z</time></trkpt>
<trkpt lat="46.490832036361098" lon="6.867065448313952"><ele></ele><time>2015-2-2T21:4:17Z</time></trkpt>
<trkpt lat="46.490473374724388" lon="6.866471758112311"><ele></ele><time>2015-2-2T21:4:20Z</time></trkpt>
<trkpt lat="46.490103229880333" lon="6.865858118981123"><ele></ele><time>2015-2-2T21:4:23Z</time></trkpt>
<trkpt lat="46.489783711731434" lon="6.865388313308358"><ele></ele><time>2015-2-2T21:4:26Z</time></trkpt>
<trkpt lat="46.489411387592554" lon="6.86499017290771"><ele></ele><time>2015-2-2T21:4:29Z</time></trkpt>
<trkpt lat="46.489034034311771" lon="6.864572837948799"><ele></ele><time>2015-2-2T21:4:32Z</time></trkpt>
<trkpt lat="46.488699596375227" lon="6.864062212407589"><ele></ele><time>2015-2-2T21:4:35Z</time></trkpt>
<trkpt lat="46.48839726112783" lon="6.863499283790588"><ele></ele><time>2015-2-2T21:4:38Z</time></trkpt>
<trkpt lat="46.488095428794622" lon="6.862941719591618"><ele></ele><time>2015-2-2T21:4:41Z</time></trkpt>
<trkpt lat="46.487797284498811" lon="6.862386669963598"><ele></ele><time>2015-2-2T21:4:44Z</time></trkpt>
<trkpt lat="46.487527219578624" lon="6.861807983368635"><ele></ele><time>2015-2-2T21:4:47Z</time></trkpt>
<trkpt lat="46.48734818212688" lon="6.861174646764994"><ele></ele><time>2015-2-2T21:4:50Z</time></trkpt>
<trkpt lat="46.487180544063449" lon="6.860539466142654"><ele></ele><time>2015-2-2T21:4:53Z</time></trkpt>
<trkpt lat="46.487016761675477" lon="6.859930856153369"><ele></ele><time>2015-2-2T21:4:56Z</time></trkpt>
<trkpt lat="46.486780978739262" lon="6.859206575900316"><ele></ele><time>2015-2-2T21:4:59Z</time></trkpt>
<trkpt lat="46.486543351784348" lon="6.858652951195836"><ele></ele><time>2015-2-2T21:5:2Z</time></trkpt>
<trkpt lat="46.486243614926934" lon="6.858147438615561"><ele></ele><time>2015-2-2T21:5:5Z</time></trkpt>
<trkpt lat="46.485910769551992" lon="6.857672268524766"><ele></ele><time>2015-2-2T21:5:8Z</time></trkpt>
<trkpt lat="46.485574319958687" lon="6.857199696823955"><ele></ele><time>2015-2-2T21:5:11Z</time></trkpt>
<trkpt lat="46.48523778654635" lon="6.856731483712792"><ele></ele><time>2015-2-2T21:5:14Z</time></trkpt>
<trkpt lat="46.484904689714313" lon="6.856254637241364"><ele></ele><time>2015-2-2T21:5:17Z</time></trkpt>
<trkpt lat="46.484577208757401" lon="6.855792962014675"><ele></ele><time>2015-2-2T21:5:20Z</time></trkpt>
<trkpt lat="46.4842473808676" lon="6.855332963168621"><ele></ele><time>2015-2-2T21:5:23Z</time></trkpt>
<trkpt lat="46.483847312629223" lon="6.854772130027413"><ele></ele><time>2015-2-2T21:5:26Z</time></trkpt>
<trkpt lat="46.483499966561794" lon="6.854150025174022"><ele></ele><time>2015-2-2T21:5:29Z</time></trkpt>
<trkpt lat="46.483463924378157" lon="6.853499254211783"><ele></ele><time>2015-2-2T21:5:32Z</time></trkpt>
<trkpt lat="46.48348362185061" lon="6.852823840454221"><ele></ele><time>2015-2-2T21:5:35Z</time></trkpt>
<trkpt lat="46.483497116714716" lon="6.852149264886975"><ele></ele><time>2015-2-2T21:5:38Z</time></trkpt>
<trkpt lat="46.483512204140425" lon="6.851475359871984"><ele></ele><time>2015-2-2T21:5:41Z</time></trkpt>
<trkpt lat="46.483524609357119" lon="6.850800281390548"><ele></ele><time>2015-2-2T21:5:44Z</time></trkpt>
<trkpt lat="46.483424613252282" lon="6.850148923695087"><ele></ele><time>2015-2-2T21:5:47Z</time></trkpt>
<trkpt lat="46.48326669819653" lon="6.849531093612313"><ele></ele><time>2015-2-2T21:5:50Z</time></trkpt>
<trkpt lat="46.483114482834935" lon="6.848911587148905"><ele></ele><time>2015-2-2T21:5:53Z</time></trkpt>
<trkpt lat="46.482961513102055" lon="6.848298283293843"><ele></ele><time>2015-2-2T21:5:56Z</time></trkpt>
<trkpt lat="46.482810890302062" lon="6.847683554515243"><ele></ele><time>2015-2-2T21:5:59Z</time></trkpt>
<trkpt lat="46.482656160369515" lon="6.847044182941318"><ele></ele><time>2015-2-2T21:6:2Z</time></trkpt>
<trkpt lat="46.482424652203918" lon="6.846482595428824"><ele></ele><time>2015-2-2T21:6:5Z</time></trkpt>
<trkpt lat="46.482013938948512" lon="6.846169447526336"><ele></ele><time>2015-2-2T21:6:8Z</time></trkpt>
<trkpt lat="46.481645973399282" lon="6.845781365409493"><ele></ele><time>2015-2-2T21:6:11Z</time></trkpt>
<trkpt lat="46.481687966734171" lon="6.84510980732739"><ele></ele><time>2015-2-2T21:6:14Z</time></trkpt>
<trkpt lat="46.48196985013783" lon="6.844557104632258"><ele></ele><time>2015-2-2T21:6:17Z</time></trkpt>
<trkpt lat="46.48229917511344" lon="6.843936257064343"><ele></ele><time>2015-2-2T21:6:20Z</time></trkpt>
<trkpt lat="46.482247458770871" lon="6.843340052291751"><ele></ele><time>2015-2-2T21:6:23Z</time></trkpt>
<trkpt lat="46.481805900111794" lon="6.843474581837654"><ele></ele><time>2015-2-2T21:6:26Z</time></trkpt>
<trkpt lat="46.481285467743874" lon="6.843508780002594"><ele></ele><time>2015-2-2T21:6:29Z</time></trkpt>
<trkpt lat="46.480851536616683" lon="6.843307865783572"><ele></ele><time>2015-2-2T21:6:32Z</time></trkpt>
<trkpt lat="46.480415929108858" lon="6.843071328476071"><ele></ele><time>2015-2-2T21:6:35Z</time></trkpt>
<trkpt lat="46.479968084022403" lon="6.842832779511809"><ele></ele><time>2015-2-2T21:6:38Z</time></trkpt>
<trkpt lat="46.479634987190366" lon="6.842400692403317"><ele></ele><time>2015-2-2T21:6:41Z</time></trkpt>
<trkpt lat="46.47939627058804" lon="6.841745981946588"><ele></ele><time>2015-2-2T21:6:44Z</time></trkpt>
<trkpt lat="46.479116650298238" lon="6.841185903176665"><ele></ele><time>2015-2-2T21:6:47Z</time></trkpt>
<trkpt lat="46.478773159906268" lon="6.840615849941969"><ele></ele><time>2015-2-2T21:6:50Z</time></trkpt>
<trkpt lat="46.47840678691864" lon="6.840014196932316"><ele></ele><time>2015-2-2T21:6:53Z</time></trkpt>
<trkpt lat="46.478097746148705" lon="6.839516228064895"><ele></ele><time>2015-2-2T21:6:56Z</time></trkpt>
<trkpt lat="46.477799518033862" lon="6.838975260034204"><ele></ele><time>2015-2-2T21:6:59Z</time></trkpt>
<trkpt lat="46.477533392608166" lon="6.838387101888657"><ele></ele><time>2015-2-2T21:7:2Z</time></trkpt>
<trkpt lat="46.477295346558094" lon="6.837783353403211"><ele></ele><time>2015-2-2T21:7:5Z</time></trkpt>
<trkpt lat="46.477152016013861" lon="6.837123362347484"><ele></ele><time>2015-2-2T21:7:8Z</time></trkpt>
<trkpt lat="46.477089403197169" lon="6.836434956640005"><ele></ele><time>2015-2-2T21:7:11Z</time></trkpt>
<trkpt lat="46.477103736251593" lon="6.835747305303812"><ele></ele><time>2015-2-2T21:7:14Z</time></trkpt>
<trkpt lat="46.477131312713027" lon="6.834954712539911"><ele></ele><time>2015-2-2T21:7:17Z</time></trkpt>
<trkpt lat="46.477050930261612" lon="6.83432137593627"><ele></ele><time>2015-2-2T21:7:20Z</time></trkpt>
<trkpt lat="46.476931069046259" lon="6.833672532811761"><ele></ele><time>2015-2-2T21:7:23Z</time></trkpt>
<trkpt lat="46.476880442351103" lon="6.832967447116971"><ele></ele><time>2015-2-2T21:7:26Z</time></trkpt>
<trkpt lat="46.476836018264294" lon="6.832244759425521"><ele></ele><time>2015-2-2T21:7:29Z</time></trkpt>
<trkpt lat="46.476789833977818" lon="6.831563981249929"><ele></ele><time>2015-2-2T21:7:32Z</time></trkpt>
<trkpt lat="46.476748595014215" lon="6.830862499773502"><ele></ele><time>2015-2-2T21:7:35Z</time></trkpt>
<trkpt lat="46.476658238098025" lon="6.830176524817944"><ele></ele><time>2015-2-2T21:7:38Z</time></trkpt>
<trkpt lat="46.476543741300702" lon="6.829504128545523"><ele></ele><time>2015-2-2T21:7:41Z</time></trkpt>
<trkpt lat="46.476360345259309" lon="6.82879108004272"><ele></ele><time>2015-2-2T21:7:44Z</time></trkpt>
<trkpt lat="46.476171668618917" lon="6.828190600499511"><ele></ele><time>2015-2-2T21:7:47Z</time></trkpt>
<trkpt lat="46.476052729412913" lon="6.827531363815069"><ele></ele><time>2015-2-2T21:7:50Z</time></trkpt>
<trkpt lat="46.476065637543797" lon="6.826843963935971"><ele></ele><time>2015-2-2T21:7:53Z</time></trkpt>
<trkpt lat="46.47604770027101" lon="6.826155390590429"><ele></ele><time>2015-2-2T21:7:56Z</time></trkpt>
<trkpt lat="46.47596119903028" lon="6.825469667091966"><ele></ele><time>2015-2-2T21:7:59Z</time></trkpt>
<trkpt lat="46.476006209850311" lon="6.824760641902685"><ele></ele><time>2015-2-2T21:8:2Z</time></trkpt>
<trkpt lat="46.476126657798886" lon="6.824037618935108"><ele></ele><time>2015-2-2T21:8:5Z</time></trkpt>
<trkpt lat="46.47607502527535" lon="6.823357343673706"><ele></ele><time>2015-2-2T21:8:8Z</time></trkpt>
<trkpt lat="46.476038228720427" lon="6.822677822783589"><ele></ele><time>2015-2-2T21:8:11Z</time></trkpt>
<trkpt lat="46.476113833487034" lon="6.822010455653071"><ele></ele><time>2015-2-2T21:8:14Z</time></trkpt>
<trkpt lat="46.476209638640285" lon="6.8213199544698"><ele></ele><time>2015-2-2T21:8:17Z</time></trkpt>
<trkpt lat="46.476253811269999" lon="6.82057966478169"><ele></ele><time>2015-2-2T21:8:20Z</time></trkpt>
<trkpt lat="46.476262612268329" lon="6.8198486790061"><ele></ele><time>2015-2-2T21:8:23Z</time></trkpt>
<trkpt lat="46.476277783513069" lon="6.819175696000457"><ele></ele><time>2015-2-2T21:8:26Z</time></trkpt>
<trkpt lat="46.476287338882685" lon="6.818488966673613"><ele></ele><time>2015-2-2T21:8:29Z</time></trkpt>
<trkpt lat="46.476301839575171" lon="6.817776337265968"><ele></ele><time>2015-2-2T21:8:32Z</time></trkpt>
<trkpt lat="46.476318351924419" lon="6.817058678716421"><ele></ele><time>2015-2-2T21:8:35Z</time></trkpt>
<trkpt lat="46.476336708292365" lon="6.816283687949181"><ele></ele><time>2015-2-2T21:8:38Z</time></trkpt>
<trkpt lat="46.476346682757139" lon="6.815617913380265"><ele></ele><time>2015-2-2T21:8:41Z</time></trkpt>
<trkpt lat="46.476313322782516" lon="6.814948450773954"><ele></ele><time>2015-2-2T21:8:44Z</time></trkpt>
<trkpt lat="46.476242076605558" lon="6.814284939318895"><ele></ele><time>2015-2-2T21:8:47Z</time></trkpt>
<trkpt lat="46.476166136562824" lon="6.813626708462834"><ele></ele><time>2015-2-2T21:8:50Z</time></trkpt>
<trkpt lat="46.476080389693379" lon="6.812856663018465"><ele></ele><time>2015-2-2T21:8:53Z</time></trkpt>
<trkpt lat="46.475995313376188" lon="6.812089970335364"><ele></ele><time>2015-2-2T21:8:56Z</time></trkpt>
<trkpt lat="46.475920211523771" lon="6.81137734092772"><ele></ele><time>2015-2-2T21:8:59Z</time></trkpt>
<trkpt lat="46.475855922326446" lon="6.810713410377502"><ele></ele><time>2015-2-2T21:9:2Z</time></trkpt>
<trkpt lat="46.475804625079036" lon="6.810003211721778"><ele></ele><time>2015-2-2T21:9:5Z</time></trkpt>
<trkpt lat="46.47574863396585" lon="6.809314722195268"><ele></ele><time>2015-2-2T21:9:8Z</time></trkpt>
<trkpt lat="46.475694654509425" lon="6.808664873242378"><ele></ele><time>2015-2-2T21:9:11Z</time></trkpt>
<trkpt lat="46.475643273442984" lon="6.807947549968958"><ele></ele><time>2015-2-2T21:9:14Z</time></trkpt>
<trkpt lat="46.475582420825958" lon="6.807252857834101"><ele></ele><time>2015-2-2T21:9:17Z</time></trkpt>
<trkpt lat="46.475564315915108" lon="6.80654383264482"><ele></ele><time>2015-2-2T21:9:20Z</time></trkpt>
<trkpt lat="46.475629610940814" lon="6.805814439430833"><ele></ele><time>2015-2-2T21:9:23Z</time></trkpt>
<trkpt lat="46.475767493247986" lon="6.805120669305325"><ele></ele><time>2015-2-2T21:9:26Z</time></trkpt>
<trkpt lat="46.475960025563836" lon="6.804444752633572"><ele></ele><time>2015-2-2T21:9:29Z</time></trkpt>
<trkpt lat="46.47614736109972" lon="6.803799094632268"><ele></ele><time>2015-2-2T21:9:32Z</time></trkpt>
<trkpt lat="46.476277448236942" lon="6.8031654227525"><ele></ele><time>2015-2-2T21:9:35Z</time></trkpt>
<trkpt lat="46.476390939205885" lon="6.802479866892099"><ele></ele><time>2015-2-2T21:9:38Z</time></trkpt>
<trkpt lat="46.476506609469652" lon="6.801804285496473"><ele></ele><time>2015-2-2T21:9:41Z</time></trkpt>
<trkpt lat="46.476617082953453" lon="6.801158459857106"><ele></ele><time>2015-2-2T21:9:44Z</time></trkpt>
<trkpt lat="46.476721772924066" lon="6.800496876239777"><ele></ele><time>2015-2-2T21:9:47Z</time></trkpt>
<trkpt lat="46.476768795400858" lon="6.799759184941649"><ele></ele><time>2015-2-2T21:9:50Z</time></trkpt>
<trkpt lat="46.476749433204532" lon="6.799082178622484"><ele></ele><time>2015-2-2T21:9:53Z</time></trkpt>
<trkpt lat="46.476802909746766" lon="6.798391258344054"><ele></ele><time>2015-2-2T21:9:56Z</time></trkpt>
<trkpt lat="46.476940959692001" lon="6.797702265903354"><ele></ele><time>2015-2-2T21:9:59Z</time></trkpt>
<trkpt lat="46.477166097611189" lon="6.797128859907389"><ele></ele><time>2015-2-2T21:10:2Z</time></trkpt>
<trkpt lat="46.477441778406501" lon="6.796579426154494"><ele></ele><time>2015-2-2T21:10:5Z</time></trkpt>
<trkpt lat="46.477736569941044" lon="6.796018509194255"><ele></ele><time>2015-2-2T21:10:8Z</time></trkpt>
<trkpt lat="46.478036977350712" lon="6.795447198674083"><ele></ele><time>2015-2-2T21:10:11Z</time></trkpt>
<trkpt lat="46.478336630389094" lon="6.794871361926198"><ele></ele><time>2015-2-2T21:10:14Z</time></trkpt>
<trkpt lat="46.478631841018796" lon="6.79432176053524"><ele></ele><time>2015-2-2T21:10:17Z</time></trkpt>
<trkpt lat="46.478892853483558" lon="6.793779702857137"><ele></ele><time>2015-2-2T21:10:20Z</time></trkpt>
<trkpt lat="46.479023694992065" lon="6.793131530284882"><ele></ele><time>2015-2-2T21:10:23Z</time></trkpt>
<trkpt lat="46.479094354435802" lon="6.792426109313965"><ele></ele><time>2015-2-2T21:10:26Z</time></trkpt>
<trkpt lat="46.479322928935289" lon="6.791831664741039"><ele></ele><time>2015-2-2T21:10:29Z</time></trkpt>
<trkpt lat="46.47961126640439" lon="6.791312657296658"><ele></ele><time>2015-2-2T21:10:32Z</time></trkpt>
<trkpt lat="46.479913601651788" lon="6.790759032592177"><ele></ele><time>2015-2-2T21:10:35Z</time></trkpt>
<trkpt lat="46.480208979919553" lon="6.790243880823255"><ele></ele><time>2015-2-2T21:10:38Z</time></trkpt>
<trkpt lat="46.480481643229723" lon="6.789650693535805"><ele></ele><time>2015-2-2T21:10:41Z</time></trkpt>
<trkpt lat="46.480696052312851" lon="6.78895122371614"><ele></ele><time>2015-2-2T21:10:44Z</time></trkpt>
<trkpt lat="46.480837287381291" lon="6.788222752511501"><ele></ele><time>2015-2-2T21:10:47Z</time></trkpt>
<trkpt lat="46.480833934620023" lon="6.787509033456445"><ele></ele><time>2015-2-2T21:10:50Z</time></trkpt>
<trkpt lat="46.480766041204333" lon="6.786850215867162"><ele></ele><time>2015-2-2T21:10:53Z</time></trkpt>
<trkpt lat="46.480704601854086" lon="6.786107076331973"><ele></ele><time>2015-2-2T21:10:56Z</time></trkpt>
<trkpt lat="46.480665877461433" lon="6.785371731966734"><ele></ele><time>2015-2-2T21:10:59Z</time></trkpt>
<trkpt lat="46.480611395090818" lon="6.784631442278624"><ele></ele><time>2015-2-2T21:11:2Z</time></trkpt>
<trkpt lat="46.480768220499158" lon="6.78397698327899"><ele></ele><time>2015-2-2T21:11:5Z</time></trkpt>
<trkpt lat="46.481033507734537" lon="6.783445235341787"><ele></ele><time>2015-2-2T21:11:8Z</time></trkpt>
<trkpt lat="46.481318240985274" lon="6.782896388322115"><ele></ele><time>2015-2-2T21:11:11Z</time></trkpt>
<trkpt lat="46.48149786517024" lon="6.782279312610626"><ele></ele><time>2015-2-2T21:11:14Z</time></trkpt>
<trkpt lat="46.481513623148203" lon="6.781623596325517"><ele></ele><time>2015-2-2T21:11:17Z</time></trkpt>
<trkpt lat="46.48165175691247" lon="6.78100367076695"><ele></ele><time>2015-2-2T21:11:20Z</time></trkpt>
<trkpt lat="46.481932466849685" lon="6.780403023585677"><ele></ele><time>2015-2-2T21:11:23Z</time></trkpt>
<trkpt lat="46.482138074934483" lon="6.779760550707579"><ele></ele><time>2015-2-2T21:11:26Z</time></trkpt>
<trkpt lat="46.482104044407606" lon="6.779046496376395"><ele></ele><time>2015-2-2T21:11:29Z</time></trkpt>
<trkpt lat="46.481864657253027" lon="6.778462948277593"><ele></ele><time>2015-2-2T21:11:32Z</time></trkpt>
<trkpt lat="46.481596687808633" lon="6.777962716296315"><ele></ele><time>2015-2-2T21:11:35Z</time></trkpt>
<trkpt lat="46.48159995675087" lon="6.777305575087667"><ele></ele><time>2015-2-2T21:11:38Z</time></trkpt>
<trkpt lat="46.481852754950523" lon="6.776748094707727"><ele></ele><time>2015-2-2T21:11:41Z</time></trkpt>
<trkpt lat="46.482198508456349" lon="6.776257585734129"><ele></ele><time>2015-2-2T21:11:44Z</time></trkpt>
<trkpt lat="46.482333624735475" lon="6.775804543867707"><ele></ele><time>2015-2-2T21:11:47Z</time></trkpt>
<trkpt lat="46.482035396620631" lon="6.775214038789272"><ele></ele><time>2015-2-2T21:11:50Z</time></trkpt>
<trkpt lat="46.481688721105456" lon="6.774672651663423"><ele></ele><time>2015-2-2T21:11:53Z</time></trkpt>
<trkpt lat="46.481359312310815" lon="6.774089019745588"><ele></ele><time>2015-2-2T21:11:56Z</time></trkpt>
<trkpt lat="46.480970056727529" lon="6.773686688393354"><ele></ele><time>2015-2-2T21:11:59Z</time></trkpt>
<trkpt lat="46.480517433956265" lon="6.773881819099188"><ele></ele><time>2015-2-2T21:12:2Z</time></trkpt>
<trkpt lat="46.480124741792679" lon="6.773563055321574"><ele></ele><time>2015-2-2T21:12:5Z</time></trkpt>
<trkpt lat="46.480125579982996" lon="6.772820167243481"><ele></ele><time>2015-2-2T21:12:8Z</time></trkpt>
<trkpt lat="46.480228174477816" lon="6.772093456238508"><ele></ele><time>2015-2-2T21:12:11Z</time></trkpt>
<trkpt lat="46.480285590514541" lon="6.771426172927022"><ele></ele><time>2015-2-2T21:12:14Z</time></trkpt>
<trkpt lat="46.480349292978644" lon="6.770727457478643"><ele></ele><time>2015-2-2T21:12:17Z</time></trkpt>
<trkpt lat="46.480479128658772" lon="6.770039135590196"><ele></ele><time>2015-2-2T21:12:20Z</time></trkpt>
<trkpt lat="46.480468818917871" lon="6.76930446177721"><ele></ele><time>2015-2-2T21:12:23Z</time></trkpt>
<trkpt lat="46.480554062873125" lon="6.768566938117147"><ele></ele><time>2015-2-2T21:12:26Z</time></trkpt>
<trkpt lat="46.480362033471465" lon="6.76786788739264"><ele></ele><time>2015-2-2T21:12:29Z</time></trkpt>
<trkpt lat="46.480361362919211" lon="6.767108654603362"><ele></ele><time>2015-2-2T21:12:32Z</time></trkpt>
<trkpt lat="46.480577532202005" lon="6.766371801495552"><ele></ele><time>2015-2-2T21:12:35Z</time></trkpt>
<trkpt lat="46.480817086994648" lon="6.765821697190404"><ele></ele><time>2015-2-2T21:12:38Z</time></trkpt>
<trkpt lat="46.481079272925854" lon="6.765283579006791"><ele></ele><time>2015-2-2T21:12:41Z</time></trkpt>
<trkpt lat="46.481283372268081" lon="6.764691229909658"><ele></ele><time>2015-2-2T21:12:44Z</time></trkpt>
<trkpt lat="46.481495853513479" lon="6.764097707346082"><ele></ele><time>2015-2-2T21:12:47Z</time></trkpt>
<trkpt lat="46.481759799644351" lon="6.763544669374824"><ele></ele><time>2015-2-2T21:12:50Z</time></trkpt>
<trkpt lat="46.482023242861032" lon="6.76299087703228"><ele></ele><time>2015-2-2T21:12:53Z</time></trkpt>
<trkpt lat="46.482288362458348" lon="6.762435492128134"><ele></ele><time>2015-2-2T21:12:56Z</time></trkpt>
<trkpt lat="46.48259530775249" lon="6.761929057538509"><ele></ele><time>2015-2-2T21:12:59Z</time></trkpt>
<trkpt lat="46.482912059873343" lon="6.761441566050053"><ele></ele><time>2015-2-2T21:13:2Z</time></trkpt>
<trkpt lat="46.483214227482677" lon="6.760916355997324"><ele></ele><time>2015-2-2T21:13:5Z</time></trkpt>
<trkpt lat="46.483550760895014" lon="6.760439593344927"><ele></ele><time>2015-2-2T21:13:8Z</time></trkpt>
<trkpt lat="46.483885617926717" lon="6.759965261444449"><ele></ele><time>2015-2-2T21:13:11Z</time></trkpt>
<trkpt lat="46.48422927595675" lon="6.759479781612754"><ele></ele><time>2015-2-2T21:13:14Z</time></trkpt>
<trkpt lat="46.484623057767749" lon="6.759080970659852"><ele></ele><time>2015-2-2T21:13:17Z</time></trkpt>
<trkpt lat="46.484965039417148" lon="6.75858442671597"><ele></ele><time>2015-2-2T21:13:20Z</time></trkpt>
<trkpt lat="46.485295705497265" lon="6.758031975477934"><ele></ele><time>2015-2-2T21:13:23Z</time></trkpt>
<trkpt lat="46.485635172575712" lon="6.757464604452252"><ele></ele><time>2015-2-2T21:13:26Z</time></trkpt>
<trkpt lat="46.485976316034794" lon="6.756878877058625"><ele></ele><time>2015-2-2T21:13:29Z</time></trkpt>
<trkpt lat="46.486304635182023" lon="6.756270099431276"><ele></ele><time>2015-2-2T21:13:32Z</time></trkpt>
<trkpt lat="46.486644437536597" lon="6.755678756162524"><ele></ele><time>2015-2-2T21:13:35Z</time></trkpt>
<trkpt lat="46.487012654542923" lon="6.755159664899111"><ele></ele><time>2015-2-2T21:13:38Z</time></trkpt>
<trkpt lat="46.487373830750585" lon="6.754728918895125"><ele></ele><time>2015-2-2T21:13:41Z</time></trkpt>
<trkpt lat="46.487774569541216" lon="6.754209492355585"><ele></ele><time>2015-2-2T21:13:44Z</time></trkpt>
<trkpt lat="46.488075982779264" lon="6.753613874316216"><ele></ele><time>2015-2-2T21:13:47Z</time></trkpt>
<trkpt lat="46.488373875617981" lon="6.753038708120585"><ele></ele><time>2015-2-2T21:13:50Z</time></trkpt>
<trkpt lat="46.488712755963206" lon="6.752479383721948"><ele></ele><time>2015-2-2T21:13:53Z</time></trkpt>
<trkpt lat="46.489122128114104" lon="6.752108735963702"><ele></ele><time>2015-2-2T21:13:56Z</time></trkpt>
<trkpt lat="46.489402418956161" lon="6.751602049916983"><ele></ele><time>2015-2-2T21:13:59Z</time></trkpt>
<trkpt lat="46.489461092278361" lon="6.750948010012507"><ele></ele><time>2015-2-2T21:14:2Z</time></trkpt>
<trkpt lat="46.489731157198548" lon="6.750405449420214"><ele></ele><time>2015-2-2T21:14:5Z</time></trkpt>
<trkpt lat="46.490090154111385" lon="6.749897170811892"><ele></ele><time>2015-2-2T21:14:8Z</time></trkpt>
<trkpt lat="46.490233736112714" lon="6.749255619943142"><ele></ele><time>2015-2-2T21:14:11Z</time></trkpt>
<trkpt lat="46.490504806861281" lon="6.748761925846338"><ele></ele><time>2015-2-2T21:14:14Z</time></trkpt>
<trkpt lat="46.490936558693647" lon="6.748506193980575"><ele></ele><time>2015-2-2T21:14:17Z</time></trkpt>
<trkpt lat="46.491302344948053" lon="6.748073939234018"><ele></ele><time>2015-2-2T21:14:20Z</time></trkpt>
<trkpt lat="46.491620689630508" lon="6.74747790209949"><ele></ele><time>2015-2-2T21:14:23Z</time></trkpt>
<trkpt lat="46.491792518645525" lon="6.746826795861125"><ele></ele><time>2015-2-2T21:14:26Z</time></trkpt>
<trkpt lat="46.491916486993432" lon="6.746134450659156"><ele></ele><time>2015-2-2T21:14:29Z</time></trkpt>
<trkpt lat="46.492112874984741" lon="6.745540676638484"><ele></ele><time>2015-2-2T21:14:32Z</time></trkpt>
<trkpt lat="46.492461394518614" lon="6.745114624500275"><ele></ele><time>2015-2-2T21:14:35Z</time></trkpt>
<trkpt lat="46.492441613227129" lon="6.744510037824512"><ele></ele><time>2015-2-2T21:14:38Z</time></trkpt>
<trkpt lat="46.492324182763696" lon="6.743870247155428"><ele></ele><time>2015-2-2T21:14:41Z</time></trkpt>
<trkpt lat="46.492494000121951" lon="6.743268426507711"><ele></ele><time>2015-2-2T21:14:44Z</time></trkpt>
<trkpt lat="46.492615453898907" lon="6.742595862597227"><ele></ele><time>2015-2-2T21:14:47Z</time></trkpt>
<trkpt lat="46.492548566311598" lon="6.741903182119131"><ele></ele><time>2015-2-2T21:14:50Z</time></trkpt>
<trkpt lat="46.492683347314596" lon="6.741238748654723"><ele></ele><time>2015-2-2T21:14:53Z</time></trkpt>
<trkpt lat="46.492832126095891" lon="6.740506840869784"><ele></ele><time>2015-2-2T21:14:56Z</time></trkpt>
<trkpt lat="46.492836149409413" lon="6.739834444597364"><ele></ele><time>2015-2-2T21:14:59Z</time></trkpt>
<trkpt lat="46.492795497179031" lon="6.739120222628117"><ele></ele><time>2015-2-2T21:15:2Z</time></trkpt>
<trkpt lat="46.492903623729944" lon="6.738400217145681"><ele></ele><time>2015-2-2T21:15:5Z</time></trkpt>
<trkpt lat="46.493142424151301" lon="6.737752798944712"><ele></ele><time>2015-2-2T21:15:8Z</time></trkpt>
<trkpt lat="46.493314085528255" lon="6.737130274996162"><ele></ele><time>2015-2-2T21:15:11Z</time></trkpt>
<trkpt lat="46.493350127711892" lon="6.736480174586177"><ele></ele><time>2015-2-2T21:15:14Z</time></trkpt>
<trkpt lat="46.493407879024744" lon="6.735795373097062"><ele></ele><time>2015-2-2T21:15:17Z</time></trkpt>
<trkpt lat="46.493380386382341" lon="6.735078552737832"><ele></ele><time>2015-2-2T21:15:20Z</time></trkpt>
<trkpt lat="46.493618516251445" lon="6.734481928870082"><ele></ele><time>2015-2-2T21:15:23Z</time></trkpt>
<trkpt lat="46.493532350286841" lon="6.733900224789977"><ele></ele><time>2015-2-2T21:15:26Z</time></trkpt>
<trkpt lat="46.493088360875845" lon="6.733660167083144"><ele></ele><time>2015-2-2T21:15:29Z</time></trkpt>
<trkpt lat="46.492643030360341" lon="6.733348779380322"><ele></ele><time>2015-2-2T21:15:32Z</time></trkpt>
<trkpt lat="46.49228822439909" lon="6.73272717744112"><ele></ele><time>2015-2-2T21:15:35Z</time></trkpt>
<trkpt lat="46.491970466449857" lon="6.732234908267856"><ele></ele><time>2015-2-2T21:15:38Z</time></trkpt>
<trkpt lat="46.491620941087604" lon="6.731747835874558"><ele></ele><time>2015-2-2T21:15:41Z</time></trkpt>
<trkpt lat="46.491429414600134" lon="6.731070494279265"><ele></ele><time>2015-2-2T21:15:44Z</time></trkpt>
<trkpt lat="46.491202600300312" lon="6.730408743023872"><ele></ele><time>2015-2-2T21:15:47Z</time></trkpt>
<trkpt lat="46.490777637809515" lon="6.729974057525396"><ele></ele><time>2015-2-2T21:15:50Z</time></trkpt>
<trkpt lat="46.49032685905695" lon="6.729629645124078"><ele></ele><time>2015-2-2T21:15:53Z</time></trkpt>
<trkpt lat="46.489885300397873" lon="6.729214740917087"><ele></ele><time>2015-2-2T21:15:56Z</time></trkpt>
<trkpt lat="46.489620348438621" lon="6.728579141199589"><ele></ele><time>2015-2-2T21:15:59Z</time></trkpt>
<trkpt lat="46.48950207978487" lon="6.727800881490111"><ele></ele><time>2015-2-2T21:16:2Z</time></trkpt>
<trkpt lat="46.489408873021603" lon="6.727096382528544"><ele></ele><time>2015-2-2T21:16:5Z</time></trkpt>
<trkpt lat="46.489012492820621" lon="6.726755071431398"><ele></ele><time>2015-2-2T21:16:8Z</time></trkpt>
<trkpt lat="46.488607060164213" lon="6.726602856069803"><ele></ele><time>2015-2-2T21:16:11Z</time></trkpt>
<trkpt lat="46.488645197823644" lon="6.725965915247798"><ele></ele><time>2015-2-2T21:16:14Z</time></trkpt>
<trkpt lat="46.488458951935172" lon="6.725310450419784"><ele></ele><time>2015-2-2T21:16:17Z</time></trkpt>
<trkpt lat="46.488390304148197" lon="6.724614249542356"><ele></ele><time>2015-2-2T21:16:20Z</time></trkpt>
<trkpt lat="46.488347472622991" lon="6.72393430955708"><ele></ele><time>2015-2-2T21:16:23Z</time></trkpt>
<trkpt lat="46.488221827894449" lon="6.723312623798847"><ele></ele><time>2015-2-2T21:16:26Z</time></trkpt>
<trkpt lat="46.488209841772914" lon="6.7226467654109"><ele></ele><time>2015-2-2T21:16:29Z</time></trkpt>
<trkpt lat="46.48819693364203" lon="6.721981912851334"><ele></ele><time>2015-2-2T21:16:32Z</time></trkpt>
<trkpt lat="46.488173380494118" lon="6.721353018656373"><ele></ele><time>2015-2-2T21:16:35Z</time></trkpt>
<trkpt lat="46.488329535350204" lon="6.720666205510497"><ele></ele><time>2015-2-2T21:16:38Z</time></trkpt>
<trkpt lat="46.488589206710458" lon="6.720077125355601"><ele></ele><time>2015-2-2T21:16:41Z</time></trkpt>
<trkpt lat="46.488906629383564" lon="6.719548897817731"><ele></ele><time>2015-2-2T21:16:44Z</time></trkpt>
<trkpt lat="46.489249197766185" lon="6.718959147110581"><ele></ele><time>2015-2-2T21:16:47Z</time></trkpt>
<trkpt lat="46.489550275728106" lon="6.718420442193747"><ele></ele><time>2015-2-2T21:16:50Z</time></trkpt>
<trkpt lat="46.489902064204216" lon="6.717914007604122"><ele></ele><time>2015-2-2T21:16:53Z</time></trkpt>
<trkpt lat="46.490294924005866" lon="6.717528104782105"><ele></ele><time>2015-2-2T21:16:56Z</time></trkpt>
<trkpt lat="46.490674708038568" lon="6.717150080949068"><ele></ele><time>2015-2-2T21:16:59Z</time></trkpt>
<trkpt lat="46.490986933931708" lon="6.716647334396839"><ele></ele><time>2015-2-2T21:17:2Z</time></trkpt>
<trkpt lat="46.491313828155398" lon="6.71618708409369"><ele></ele><time>2015-2-2T21:17:5Z</time></trkpt>
<trkpt lat="46.491635274142027" lon="6.715590041130781"><ele></ele><time>2015-2-2T21:17:8Z</time></trkpt>
<trkpt lat="46.491842390969396" lon="6.714954944327474"><ele></ele><time>2015-2-2T21:17:11Z</time></trkpt>
<trkpt lat="46.491986894980073" lon="6.714290510863066"><ele></ele><time>2015-2-2T21:17:14Z</time></trkpt>
<trkpt lat="46.492005586624146" lon="6.713634543120861"><ele></ele><time>2015-2-2T21:17:17Z</time></trkpt>
<trkpt lat="46.492208512499928" lon="6.712916130200028"><ele></ele><time>2015-2-2T21:17:20Z</time></trkpt>
<trkpt lat="46.492598941549659" lon="6.712399637326598"><ele></ele><time>2015-2-2T21:17:23Z</time></trkpt>
<trkpt lat="46.492997668683529" lon="6.711933352053165"><ele></ele><time>2015-2-2T21:17:26Z</time></trkpt>
<trkpt lat="46.493274355307221" lon="6.711400682106614"><ele></ele><time>2015-2-2T21:17:29Z</time></trkpt>
<trkpt lat="46.493604769930243" lon="6.710912184789777"><ele></ele><time>2015-2-2T21:17:32Z</time></trkpt>
<trkpt lat="46.494018081575632" lon="6.710593421012163"><ele></ele><time>2015-2-2T21:17:35Z</time></trkpt>
<trkpt lat="46.494431057944894" lon="6.710258983075619"><ele></ele><time>2015-2-2T21:17:38Z</time></trkpt>
<trkpt lat="46.494748229160905" lon="6.709753889590502"><ele></ele><time>2015-2-2T21:17:41Z</time></trkpt>
<trkpt lat="46.495041428133845" lon="6.70919724740088"><ele></ele><time>2015-2-2T21:17:44Z</time></trkpt>
<trkpt lat="46.495347786694765" lon="6.708713443949819"><ele></ele><time>2015-2-2T21:17:47Z</time></trkpt>
<trkpt lat="46.495549958199263" lon="6.708074240013957"><ele></ele><time>2015-2-2T21:17:50Z</time></trkpt>
<trkpt lat="46.495639896020293" lon="6.707439897581935"><ele></ele><time>2015-2-2T21:17:53Z</time></trkpt>
<trkpt lat="46.495920438319445" lon="6.706930277869105"><ele></ele><time>2015-2-2T21:17:56Z</time></trkpt>
<trkpt lat="46.495914319530129" lon="6.706363493576646"><ele></ele><time>2015-2-2T21:17:59Z</time></trkpt>
<trkpt lat="46.496160496026278" lon="6.705818753689528"><ele></ele><time>2015-2-2T21:18:2Z</time></trkpt>
<trkpt lat="46.496372725814581" lon="6.705214250832796"><ele></ele><time>2015-2-2T21:18:5Z</time></trkpt>
<trkpt lat="46.496664667502046" lon="6.704639503732324"><ele></ele><time>2015-2-2T21:18:8Z</time></trkpt>
<trkpt lat="46.496958285570145" lon="6.704049501568079"><ele></ele><time>2015-2-2T21:18:11Z</time></trkpt>
<trkpt lat="46.497203288599849" lon="6.703499481081963"><ele></ele><time>2015-2-2T21:18:14Z</time></trkpt>
<trkpt lat="46.497434126213193" lon="6.702883327379823"><ele></ele><time>2015-2-2T21:18:17Z</time></trkpt>
<trkpt lat="46.497685834765434" lon="6.702247811481357"><ele></ele><time>2015-2-2T21:18:20Z</time></trkpt>
<trkpt lat="46.497989343479276" lon="6.701687648892403"><ele></ele><time>2015-2-2T21:18:23Z</time></trkpt>
<trkpt lat="46.498321602120996" lon="6.701202839612961"><ele></ele><time>2015-2-2T21:18:26Z</time></trkpt>
<trkpt lat="46.49861597456038" lon="6.700592888519168"><ele></ele><time>2015-2-2T21:18:29Z</time></trkpt>
<trkpt lat="46.498797526583076" lon="6.699981177225709"><ele></ele><time>2015-2-2T21:18:32Z</time></trkpt>
<trkpt lat="46.498934654518962" lon="6.699343984946609"><ele></ele><time>2015-2-2T21:18:35Z</time></trkpt>
<trkpt lat="46.499141687527299" lon="6.698649628087878"><ele></ele><time>2015-2-2T21:18:38Z</time></trkpt>
<trkpt lat="46.499362634494901" lon="6.698044203221798"><ele></ele><time>2015-2-2T21:18:41Z</time></trkpt>
<trkpt lat="46.499600596725941" lon="6.697416231036186"><ele></ele><time>2015-2-2T21:18:44Z</time></trkpt>
<trkpt lat="46.499827243387699" lon="6.69680560939014"><ele></ele><time>2015-2-2T21:18:47Z</time></trkpt>
<trkpt lat="46.500075263902545" lon="6.696154167875648"><ele></ele><time>2015-2-2T21:18:50Z</time></trkpt>
<trkpt lat="46.500260084867477" lon="6.695511192083359"><ele></ele><time>2015-2-2T21:18:53Z</time></trkpt>
<trkpt lat="46.500383969396353" lon="6.694834437221289"><ele></ele><time>2015-2-2T21:18:56Z</time></trkpt>
<trkpt lat="46.500527299940586" lon="6.694107558578253"><ele></ele><time>2015-2-2T21:18:59Z</time></trkpt>
<trkpt lat="46.500574154779315" lon="6.693452764302492"><ele></ele><time>2015-2-2T21:19:2Z</time></trkpt>
<trkpt lat="46.500617321580648" lon="6.692704930901527"><ele></ele><time>2015-2-2T21:19:5Z</time></trkpt>
<trkpt lat="46.500666020438075" lon="6.691975453868508"><ele></ele><time>2015-2-2T21:19:8Z</time></trkpt>
<trkpt lat="46.500813877210021" lon="6.691257627680898"><ele></ele><time>2015-2-2T21:19:11Z</time></trkpt>
<trkpt lat="46.501021329313517" lon="6.690582549199462"><ele></ele><time>2015-2-2T21:19:14Z</time></trkpt>
<trkpt lat="46.501309415325522" lon="6.69007477350533"><ele></ele><time>2015-2-2T21:19:17Z</time></trkpt>
<trkpt lat="46.501679141074419" lon="6.689649224281311"><ele></ele><time>2015-2-2T21:19:20Z</time></trkpt>
<trkpt lat="46.501964712515473" lon="6.689137928187847"><ele></ele><time>2015-2-2T21:19:23Z</time></trkpt>
<trkpt lat="46.502328990027308" lon="6.688609449192882"><ele></ele><time>2015-2-2T21:19:26Z</time></trkpt>
<trkpt lat="46.502678683027625" lon="6.688080467283726"><ele></ele><time>2015-2-2T21:19:29Z</time></trkpt>
<trkpt lat="46.502988561987877" lon="6.687593646347523"><ele></ele><time>2015-2-2T21:19:32Z</time></trkpt>
<trkpt lat="46.503084870055318" lon="6.687147058546543"><ele></ele><time>2015-2-2T21:19:35Z</time></trkpt>
<trkpt lat="46.502632834017277" lon="6.687408573925495"><ele></ele><time>2015-2-2T21:19:38Z</time></trkpt>
<trkpt lat="46.502171074971557" lon="6.687519298866391"><ele></ele><time>2015-2-2T21:19:41Z</time></trkpt>
<trkpt lat="46.502132266759872" lon="6.686927787959576"><ele></ele><time>2015-2-2T21:19:44Z</time></trkpt>
<trkpt lat="46.502199741080403" lon="6.686264527961612"><ele></ele><time>2015-2-2T21:19:47Z</time></trkpt>
<trkpt lat="46.502350363880396" lon="6.685671927407384"><ele></ele><time>2015-2-2T21:19:50Z</time></trkpt>
<trkpt lat="46.502469470724463" lon="6.685032891109586"><ele></ele><time>2015-2-2T21:19:53Z</time></trkpt>
<trkpt lat="46.502699637785554" lon="6.684548500925303"><ele></ele><time>2015-2-2T21:19:56Z</time></trkpt>
<trkpt lat="46.502853948622942" lon="6.683946847915649"><ele></ele><time>2015-2-2T21:19:59Z</time></trkpt>
<trkpt lat="46.503030136227608" lon="6.683355504646897"><ele></ele><time>2015-2-2T21:20:2Z</time></trkpt>
<trkpt lat="46.503273965790868" lon="6.682808334007859"><ele></ele><time>2015-2-2T21:20:5Z</time></trkpt>
<trkpt lat="46.503524081781507" lon="6.682241214439273"><ele></ele><time>2015-2-2T21:20:8Z</time></trkpt>
<trkpt lat="46.503748632967472" lon="6.681660013273358"><ele></ele><time>2015-2-2T21:20:11Z</time></trkpt>
<trkpt lat="46.503959521651268" lon="6.681081159040332"><ele></ele><time>2015-2-2T21:20:14Z</time></trkpt>
<trkpt lat="46.503960276022553" lon="6.680423347279429"><ele></ele><time>2015-2-2T21:20:17Z</time></trkpt>
<trkpt lat="46.503941500559449" lon="6.679688170552254"><ele></ele><time>2015-2-2T21:20:20Z</time></trkpt>
<trkpt lat="46.504015680402517" lon="6.679006470367312"><ele></ele><time>2015-2-2T21:20:23Z</time></trkpt>
<trkpt lat="46.50415213778615" lon="6.678317729383707"><ele></ele><time>2015-2-2T21:20:26Z</time></trkpt>
<trkpt lat="46.504240147769451" lon="6.677638543769717"><ele></ele><time>2015-2-2T21:20:29Z</time></trkpt>
<trkpt lat="46.504361936822534" lon="6.676964638754726"><ele></ele><time>2015-2-2T21:20:32Z</time></trkpt>
<trkpt lat="46.504485653713346" lon="6.676328117027879"><ele></ele><time>2015-2-2T21:20:35Z</time></trkpt>
<trkpt lat="46.504639126360416" lon="6.675689918920398"><ele></ele><time>2015-2-2T21:20:38Z</time></trkpt>
<trkpt lat="46.504822773858905" lon="6.6750284191221"><ele></ele><time>2015-2-2T21:20:41Z</time></trkpt>
<trkpt lat="46.504919668659568" lon="6.674390640109778"><ele></ele><time>2015-2-2T21:20:44Z</time></trkpt>
<trkpt lat="46.50499259121716" lon="6.673719082027674"><ele></ele><time>2015-2-2T21:20:47Z</time></trkpt>
<trkpt lat="46.505081439390779" lon="6.672990694642067"><ele></ele><time>2015-2-2T21:20:50Z</time></trkpt>
<trkpt lat="46.505198450759053" lon="6.672330368310213"><ele></ele><time>2015-2-2T21:20:53Z</time></trkpt>
<trkpt lat="46.505406238138676" lon="6.671668281778693"><ele></ele><time>2015-2-2T21:20:56Z</time></trkpt>
<trkpt lat="46.505683260038495" lon="6.671129073947668"><ele></ele><time>2015-2-2T21:20:59Z</time></trkpt>
<trkpt lat="46.50595910847187" lon="6.670553153380752"><ele></ele><time>2015-2-2T21:21:2Z</time></trkpt>
<trkpt lat="46.506191790103912" lon="6.669904477894306"><ele></ele><time>2015-2-2T21:21:5Z</time></trkpt>
<trkpt lat="46.506319446489215" lon="6.669265693053603"><ele></ele><time>2015-2-2T21:21:8Z</time></trkpt>
<trkpt lat="46.506405947729945" lon="6.668599331751466"><ele></ele><time>2015-2-2T21:21:11Z</time></trkpt>
<trkpt lat="46.506547937169671" lon="6.667970772832632"><ele></ele><time>2015-2-2T21:21:14Z</time></trkpt>
<trkpt lat="46.506757568567991" lon="6.667346656322479"><ele></ele><time>2015-2-2T21:21:17Z</time></trkpt>
<trkpt lat="46.506976252421737" lon="6.666672416031361"><ele></ele><time>2015-2-2T21:21:20Z</time></trkpt>
<trkpt lat="46.507162330672145" lon="6.666051233187318"><ele></ele><time>2015-2-2T21:21:23Z</time></trkpt>
<trkpt lat="46.507251095026731" lon="6.665316224098206"><ele></ele><time>2015-2-2T21:21:26Z</time></trkpt>
<trkpt lat="46.50725344195962" lon="6.664623878896236"><ele></ele><time>2015-2-2T21:21:29Z</time></trkpt>
<trkpt lat="46.507148584350944" lon="6.663901777938008"><ele></ele><time>2015-2-2T21:21:32Z</time></trkpt>
<trkpt lat="46.507028639316559" lon="6.663257796317339"><ele></ele><time>2015-2-2T21:21:35Z</time></trkpt>
<trkpt lat="46.506888996809721" lon="6.662560254335403"><ele></ele><time>2015-2-2T21:21:38Z</time></trkpt>
<trkpt lat="46.506762765347958" lon="6.661896659061313"><ele></ele><time>2015-2-2T21:21:41Z</time></trkpt>
<trkpt lat="46.506701912730932" lon="6.661178078502417"><ele></ele><time>2015-2-2T21:21:44Z</time></trkpt>
<trkpt lat="46.506742397323251" lon="6.660450864583254"><ele></ele><time>2015-2-2T21:21:47Z</time></trkpt>
<trkpt lat="46.506826048716903" lon="6.659739660099149"><ele></ele><time>2015-2-2T21:21:50Z</time></trkpt>
<trkpt lat="46.506864437833428" lon="6.659006830304861"><ele></ele><time>2015-2-2T21:21:53Z</time></trkpt>
<trkpt lat="46.506823282688856" lon="6.6582708992064"><ele></ele><time>2015-2-2T21:21:56Z</time></trkpt>
<trkpt lat="46.506754215806723" lon="6.657579895108938"><ele></ele><time>2015-2-2T21:21:59Z</time></trkpt>
<trkpt lat="46.506687914952636" lon="6.656850920990109"><ele></ele><time>2015-2-2T21:22:2Z</time></trkpt>
<trkpt lat="46.506624715402722" lon="6.656183134764433"><ele></ele><time>2015-2-2T21:22:5Z</time></trkpt>
<trkpt lat="46.506570233032107" lon="6.65553018450737"><ele></ele><time>2015-2-2T21:22:8Z</time></trkpt>
<trkpt lat="46.506519857794046" lon="6.654842449352145"><ele></ele><time>2015-2-2T21:22:11Z</time></trkpt>
<trkpt lat="46.506466632708907" lon="6.654115905985236"><ele></ele><time>2015-2-2T21:22:14Z</time></trkpt>
<trkpt lat="46.506444001570344" lon="6.653394056484103"><ele></ele><time>2015-2-2T21:22:17Z</time></trkpt>
<trkpt lat="46.506449449807405" lon="6.652735993266106"><ele></ele><time>2015-2-2T21:22:20Z</time></trkpt>
<trkpt lat="46.506455652415752" lon="6.651983298361301"><ele></ele><time>2015-2-2T21:22:23Z</time></trkpt>
<trkpt lat="46.506460849195719" lon="6.651281313970685"><ele></ele><time>2015-2-2T21:22:26Z</time></trkpt>
<trkpt lat="46.506472332403064" lon="6.65056231431663"><ele></ele><time>2015-2-2T21:22:29Z</time></trkpt>
<trkpt lat="46.506490185856819" lon="6.649849181994796"><ele></ele><time>2015-2-2T21:22:32Z</time></trkpt>
<trkpt lat="46.506498483940959" lon="6.649183491244912"><ele></ele><time>2015-2-2T21:22:35Z</time></trkpt>
<trkpt lat="46.506523378193378" lon="6.648472789674997"><ele></ele><time>2015-2-2T21:22:38Z</time></trkpt>
<trkpt lat="46.506534023210406" lon="6.647779019549489"><ele></ele><time>2015-2-2T21:22:41Z</time></trkpt>
<trkpt lat="46.506544500589371" lon="6.647102013230324"><ele></ele><time>2015-2-2T21:22:44Z</time></trkpt>
<trkpt lat="46.506548942998052" lon="6.646441267803311"><ele></ele><time>2015-2-2T21:22:47Z</time></trkpt>
<trkpt lat="46.506559001281857" lon="6.64578303694725"><ele></ele><time>2015-2-2T21:22:50Z</time></trkpt>
<trkpt lat="46.506593199446797" lon="6.645124219357967"><ele></ele><time>2015-2-2T21:22:53Z</time></trkpt>
<trkpt lat="46.506580207496881" lon="6.644459953531623"><ele></ele><time>2015-2-2T21:22:56Z</time></trkpt>
<trkpt lat="46.50658942759037" lon="6.643711617216468"><ele></ele><time>2015-2-2T21:22:59Z</time></trkpt>
<trkpt lat="46.506590265780687" lon="6.643042741343379"><ele></ele><time>2015-2-2T21:23:2Z</time></trkpt>
<trkpt lat="46.506468057632446" lon="6.642413847148418"><ele></ele><time>2015-2-2T21:23:5Z</time></trkpt>
<trkpt lat="46.505968747660518" lon="6.642147218808532"><ele></ele><time>2015-2-2T21:23:8Z</time></trkpt>
<trkpt lat="46.505475807934999" lon="6.641835579648614"><ele></ele><time>2015-2-2T21:23:11Z</time></trkpt>
<trkpt lat="46.505267517641187" lon="6.641236860305071"><ele></ele><time>2015-2-2T21:23:14Z</time></trkpt>
<trkpt lat="46.505383858457208" lon="6.640572929754853"><ele></ele><time>2015-2-2T21:23:17Z</time></trkpt>
<trkpt lat="46.505564153194427" lon="6.639936910942197"><ele></ele><time>2015-2-2T21:23:20Z</time></trkpt>
<trkpt lat="46.505724163725972" lon="6.639326373115182"><ele></ele><time>2015-2-2T21:23:23Z</time></trkpt>
<trkpt lat="46.505883755162358" lon="6.638698820024729"><ele></ele><time>2015-2-2T21:23:26Z</time></trkpt>
<trkpt lat="46.506047118455172" lon="6.638079732656479"><ele></ele><time>2015-2-2T21:23:29Z</time></trkpt>
<trkpt lat="46.506234621629119" lon="6.637360146269202"><ele></ele><time>2015-2-2T21:23:32Z</time></trkpt>
<trkpt lat="46.506419526413083" lon="6.636678529903293"><ele></ele><time>2015-2-2T21:23:35Z</time></trkpt>
<trkpt lat="46.506587751209736" lon="6.63601485081017"><ele></ele><time>2015-2-2T21:23:38Z</time></trkpt>
<trkpt lat="46.506754048168659" lon="6.635378245264292"><ele></ele><time>2015-2-2T21:23:41Z</time></trkpt>
<trkpt lat="46.506912633776665" lon="6.634747674688697"><ele></ele><time>2015-2-2T21:23:44Z</time></trkpt>
<trkpt lat="46.507103070616722" lon="6.634052228182554"><ele></ele><time>2015-2-2T21:23:47Z</time></trkpt>
<trkpt lat="46.507284538820386" lon="6.633386788889766"><ele></ele><time>2015-2-2T21:23:50Z</time></trkpt>
<trkpt lat="46.507367184385657" lon="6.632696203887463"><ele></ele><time>2015-2-2T21:23:53Z</time></trkpt>
<trkpt lat="46.50737221352756" lon="6.631988855078816"><ele></ele><time>2015-2-2T21:23:56Z</time></trkpt>
<trkpt lat="46.507244976237416" lon="6.631290055811405"><ele></ele><time>2015-2-2T21:23:59Z</time></trkpt>
<trkpt lat="46.507080523297191" lon="6.630659736692905"><ele></ele><time>2015-2-2T21:24:2Z</time></trkpt>
<trkpt lat="46.506930571049452" lon="6.630001673474908"><ele></ele><time>2015-2-2T21:24:5Z</time></trkpt>
<trkpt lat="46.506953369826078" lon="6.629288708791137"><ele></ele><time>2015-2-2T21:24:8Z</time></trkpt>
<trkpt lat="46.506999805569649" lon="6.628584377467632"><ele></ele><time>2015-2-2T21:24:11Z</time></trkpt>
<trkpt lat="46.507052695378661" lon="6.627936037257314"><ele></ele><time>2015-2-2T21:24:14Z</time></trkpt>
<trkpt lat="46.507074907422066" lon="6.62723857909441"><ele></ele><time>2015-2-2T21:24:17Z</time></trkpt>
<trkpt lat="46.506925038993359" lon="6.626627538353205"><ele></ele><time>2015-2-2T21:24:20Z</time></trkpt>
<trkpt lat="46.507177921012044" lon="6.625992609187961"><ele></ele><time>2015-2-2T21:24:23Z</time></trkpt>
<trkpt lat="46.507440023124218" lon="6.625433955341578"><ele></ele><time>2015-2-2T21:24:26Z</time></trkpt>
<trkpt lat="46.507744872942567" lon="6.624885359779"><ele></ele><time>2015-2-2T21:24:29Z</time></trkpt>
<trkpt lat="46.507996916770935" lon="6.624344224110246"><ele></ele><time>2015-2-2T21:24:32Z</time></trkpt>
<trkpt lat="46.508260443806648" lon="6.623786073178053"><ele></ele><time>2015-2-2T21:24:35Z</time></trkpt>
<trkpt lat="46.508476780727506" lon="6.623160280287266"><ele></ele><time>2015-2-2T21:24:38Z</time></trkpt>
<trkpt lat="46.508666379377246" lon="6.622489728033543"><ele></ele><time>2015-2-2T21:24:41Z</time></trkpt>
<trkpt lat="46.508881123736501" lon="6.621862342581153"><ele></ele><time>2015-2-2T21:24:44Z</time></trkpt>
<trkpt lat="46.509162085130811" lon="6.621241495013237"><ele></ele><time>2015-2-2T21:24:47Z</time></trkpt>
<trkpt lat="46.509496606886387" lon="6.620696000754833"><ele></ele><time>2015-2-2T21:24:50Z</time></trkpt>
<trkpt lat="46.509830122813582" lon="6.620142543688417"><ele></ele><time>2015-2-2T21:24:53Z</time></trkpt>
<trkpt lat="46.510126339271665" lon="6.619645999744535"><ele></ele><time>2015-2-2T21:24:56Z</time></trkpt>
<trkpt lat="46.510471422225237" lon="6.619126908481121"><ele></ele><time>2015-2-2T21:24:59Z</time></trkpt>
<trkpt lat="46.510825222358108" lon="6.618639919906855"><ele></ele><time>2015-2-2T21:25:2Z</time></trkpt>
<trkpt lat="46.511165779083967" lon="6.618138682097197"><ele></ele><time>2015-2-2T21:25:5Z</time></trkpt>
<trkpt lat="46.511504994705319" lon="6.617623781785369"><ele></ele><time>2015-2-2T21:25:8Z</time></trkpt>
<trkpt lat="46.511844042688608" lon="6.617127154022455"><ele></ele><time>2015-2-2T21:25:11Z</time></trkpt>
<trkpt lat="46.512103378772736" lon="6.616547461599112"><ele></ele><time>2015-2-2T21:25:14Z</time></trkpt>
<trkpt lat="46.512358272448182" lon="6.615966930985451"><ele></ele><time>2015-2-2T21:25:17Z</time></trkpt>
<trkpt lat="46.512602521106601" lon="6.615319177508354"><ele></ele><time>2015-2-2T21:25:20Z</time></trkpt>
<trkpt lat="46.512844590470195" lon="6.614647870883346"><ele></ele><time>2015-2-2T21:25:23Z</time></trkpt>
<trkpt lat="46.51305103674531" lon="6.61395225673914"><ele></ele><time>2015-2-2T21:25:26Z</time></trkpt>
<trkpt lat="46.51322303339839" lon="6.613297630101442"><ele></ele><time>2015-2-2T21:25:29Z</time></trkpt>
<trkpt lat="46.513468120247126" lon="6.612727660685778"><ele></ele><time>2015-2-2T21:25:32Z</time></trkpt>
<trkpt lat="46.513826446607709" lon="6.612199181690812"><ele></ele><time>2015-2-2T21:25:35Z</time></trkpt>
<trkpt lat="46.514156274497509" lon="6.611669696867466"><ele></ele><time>2015-2-2T21:25:38Z</time></trkpt>
<trkpt lat="46.514509236440063" lon="6.611177595332265"><ele></ele><time>2015-2-2T21:25:41Z</time></trkpt>
<trkpt lat="46.51481500826776" lon="6.610665712505579"><ele></ele><time>2015-2-2T21:25:44Z</time></trkpt>
<trkpt lat="46.515065375715494" lon="6.610062047839165"><ele></ele><time>2015-2-2T21:25:47Z</time></trkpt>
<trkpt lat="46.515232343226671" lon="6.609408594667912"><ele></ele><time>2015-2-2T21:25:50Z</time></trkpt>
<trkpt lat="46.515386151149869" lon="6.608773330226541"><ele></ele><time>2015-2-2T21:25:53Z</time></trkpt>
<trkpt lat="46.515524368733168" lon="6.60814099945128"><ele></ele><time>2015-2-2T21:25:56Z</time></trkpt>
<trkpt lat="46.515143075957894" lon="6.607750235125423"><ele></ele><time>2015-2-2T21:25:59Z</time></trkpt>
<trkpt lat="46.514748372137547" lon="6.607422335073352"><ele></ele><time>2015-2-2T21:26:2Z</time></trkpt>
<trkpt lat="46.51451057754457" lon="6.606831410899758"><ele></ele><time>2015-2-2T21:26:5Z</time></trkpt>
<trkpt lat="46.514510996639729" lon="6.606113836169243"><ele></ele><time>2015-2-2T21:26:8Z</time></trkpt>
<trkpt lat="46.514659021049738" lon="6.60547161474824"><ele></ele><time>2015-2-2T21:26:11Z</time></trkpt>
<trkpt lat="46.514906622469425" lon="6.604876667261124"><ele></ele><time>2015-2-2T21:26:14Z</time></trkpt>
<trkpt lat="46.515202419832349" lon="6.604313990101218"><ele></ele><time>2015-2-2T21:26:17Z</time></trkpt>
<trkpt lat="46.515446333214641" lon="6.603706553578377"><ele></ele><time>2015-2-2T21:26:20Z</time></trkpt>
<trkpt lat="46.515471898019314" lon="6.603052848950028"><ele></ele><time>2015-2-2T21:26:23Z</time></trkpt>
<trkpt lat="46.515486566349864" lon="6.60240258090198"><ele></ele><time>2015-2-2T21:26:26Z</time></trkpt>
<trkpt lat="46.51593298651278" lon="6.602466199547052"><ele></ele><time>2015-2-2T21:26:29Z</time></trkpt>
<trkpt lat="46.516419472172856" lon="6.602588491514325"><ele></ele><time>2015-2-2T21:26:32Z</time></trkpt>
<trkpt lat="46.516841249540448" lon="6.602267883718014"><ele></ele><time>2015-2-2T21:26:35Z</time></trkpt>
<trkpt lat="46.51710226200521" lon="6.601716438308358"><ele></ele><time>2015-2-2T21:26:38Z</time></trkpt>
<trkpt lat="46.517271241173148" lon="6.601107660681009"><ele></ele><time>2015-2-2T21:26:41Z</time></trkpt>
<trkpt lat="46.517393114045262" lon="6.600452614948154"><ele></ele><time>2015-2-2T21:26:44Z</time></trkpt>
<trkpt lat="46.517453547567129" lon="6.599800167605281"><ele></ele><time>2015-2-2T21:26:47Z</time></trkpt>
<trkpt lat="46.517571480944753" lon="6.599089801311493"><ele></ele><time>2015-2-2T21:26:50Z</time></trkpt>
<trkpt lat="46.517726294696331" lon="6.598471300676465"><ele></ele><time>2015-2-2T21:26:53Z</time></trkpt>
<trkpt lat="46.517995605245233" lon="6.597862020134926"><ele></ele><time>2015-2-2T21:26:56Z</time></trkpt>
<trkpt lat="46.518306322395802" lon="6.597329936921597"><ele></ele><time>2015-2-2T21:26:59Z</time></trkpt>
<trkpt lat="46.518612094223499" lon="6.596775641664863"><ele></ele><time>2015-2-2T21:27:2Z</time></trkpt>
<trkpt lat="46.518843434751034" lon="6.596194859594107"><ele></ele><time>2015-2-2T21:27:5Z</time></trkpt>
<trkpt lat="46.51907728984952" lon="6.595610389485955"><ele></ele><time>2015-2-2T21:27:8Z</time></trkpt>
<trkpt lat="46.518918620422482" lon="6.594949057325721"><ele></ele><time>2015-2-2T21:27:11Z</time></trkpt>
<trkpt lat="46.518610082566738" lon="6.594404736533761"><ele></ele><time>2015-2-2T21:27:14Z</time></trkpt>
<trkpt lat="46.518839746713638" lon="6.593751534819603"><ele></ele><time>2015-2-2T21:27:17Z</time></trkpt>
<trkpt lat="46.519121797755361" lon="6.593130603432655"><ele></ele><time>2015-2-2T21:27:20Z</time></trkpt>
<trkpt lat="46.519357077777386" lon="6.592573542147875"><ele></ele><time>2015-2-2T21:27:23Z</time></trkpt>
<trkpt lat="46.519586825743318" lon="6.591943725943565"><ele></ele><time>2015-2-2T21:27:26Z</time></trkpt>
<trkpt lat="46.519773574545979" lon="6.591336792334914"><ele></ele><time>2015-2-2T21:27:29Z</time></trkpt>
<trkpt lat="46.519932998344302" lon="6.590637909248471"><ele></ele><time>2015-2-2T21:27:32Z</time></trkpt>
<trkpt lat="46.52008923701942" lon="6.589932069182396"><ele></ele><time>2015-2-2T21:27:35Z</time></trkpt>
<trkpt lat="46.520267268642783" lon="6.589266462251544"><ele></ele><time>2015-2-2T21:27:38Z</time></trkpt>
<trkpt lat="46.52045426890254" lon="6.58860269933939"><ele></ele><time>2015-2-2T21:27:41Z</time></trkpt>
<trkpt lat="46.520621152594686" lon="6.587920747697353"><ele></ele><time>2015-2-2T21:27:44Z</time></trkpt>
<trkpt lat="46.520764734596014" lon="6.587261008098722"><ele></ele><time>2015-2-2T21:27:47Z</time></trkpt>
<trkpt lat="46.520931702107191" lon="6.586587186902762"><ele></ele><time>2015-2-2T21:27:50Z</time></trkpt>
<trkpt lat="46.521086851134896" lon="6.585974469780922"><ele></ele><time>2015-2-2T21:27:53Z</time></trkpt>
<trkpt lat="46.521076457574964" lon="6.58529712818563"><ele></ele><time>2015-2-2T21:27:56Z</time></trkpt>
<trkpt lat="46.520945364609361" lon="6.584662031382322"><ele></ele><time>2015-2-2T21:27:59Z</time></trkpt>
<trkpt lat="46.520769679918885" lon="6.584033807739615"><ele></ele><time>2015-2-2T21:28:2Z</time></trkpt>
<trkpt lat="46.520611010491848" lon="6.583432406187058"><ele></ele><time>2015-2-2T21:28:5Z</time></trkpt>
<trkpt lat="46.520770853385329" lon="6.582954050973058"><ele></ele><time>2015-2-2T21:28:8Z</time></trkpt>
<trkpt lat="46.520628947764635" lon="6.582331024110317"><ele></ele><time>2015-2-2T21:28:11Z</time></trkpt>
<trkpt lat="46.520492993295193" lon="6.581684527918696"><ele></ele><time>2015-2-2T21:28:14Z</time></trkpt>
<trkpt lat="46.520371036604047" lon="6.581005593761802"><ele></ele><time>2015-2-2T21:28:17Z</time></trkpt>
<trkpt lat="46.520241536200047" lon="6.580320708453655"><ele></ele><time>2015-2-2T21:28:20Z</time></trkpt>
<trkpt lat="46.520106168463826" lon="6.579630961641669"><ele></ele><time>2015-2-2T21:28:23Z</time></trkpt>
<trkpt lat="46.51995194144547" lon="6.57896644435823"><ele></ele><time>2015-2-2T21:28:26Z</time></trkpt>
<trkpt lat="46.519806515425444" lon="6.57834249548614"><ele></ele><time>2015-2-2T21:28:29Z</time></trkpt>
<trkpt lat="46.519668800756335" lon="6.577711338177323"><ele></ele><time>2015-2-2T21:28:32Z</time></trkpt>
<trkpt lat="46.519512226805091" lon="6.577089400961995"><ele></ele><time>2015-2-2T21:28:35Z</time></trkpt>
<trkpt lat="46.51932405307889" lon="6.576428487896919"><ele></ele><time>2015-2-2T21:28:38Z</time></trkpt>
<trkpt lat="46.519156163558364" lon="6.57578987069428"><ele></ele><time>2015-2-2T21:28:41Z</time></trkpt>
<trkpt lat="46.518986262381077" lon="6.575164413079619"><ele></ele><time>2015-2-2T21:28:44Z</time></trkpt>
<trkpt lat="46.518809152767062" lon="6.574521688744426"><ele></ele><time>2015-2-2T21:28:47Z</time></trkpt>
<trkpt lat="46.518609579652548" lon="6.573852896690369"><ele></ele><time>2015-2-2T21:28:50Z</time></trkpt>
<trkpt lat="46.518471781164408" lon="6.573195420205593"><ele></ele><time>2015-2-2T21:28:53Z</time></trkpt>
<trkpt lat="46.518277740105987" lon="6.572585804387927"><ele></ele><time>2015-2-2T21:28:56Z</time></trkpt>
<trkpt lat="46.518095433712006" lon="6.571936290711165"><ele></ele><time>2015-2-2T21:28:59Z</time></trkpt>
<trkpt lat="46.517904074862599" lon="6.571298511698842"><ele></ele><time>2015-2-2T21:29:2Z</time></trkpt>
<trkpt lat="46.517720511183143" lon="6.570633826777339"><ele></ele><time>2015-2-2T21:29:5Z</time></trkpt>
<trkpt lat="46.517556896433234" lon="6.569991772994399"><ele></ele><time>2015-2-2T21:29:8Z</time></trkpt>
<trkpt lat="46.517483973875642" lon="6.569286854937673"><ele></ele><time>2015-2-2T21:29:11Z</time></trkpt>
<trkpt lat="46.51741792447865" lon="6.568558719009161"><ele></ele><time>2015-2-2T21:29:14Z</time></trkpt>
<trkpt lat="46.517350366339087" lon="6.567841647192836"><ele></ele><time>2015-2-2T21:29:17Z</time></trkpt>
<trkpt lat="46.517262775450945" lon="6.567193809896708"><ele></ele><time>2015-2-2T21:29:20Z</time></trkpt>
<trkpt lat="46.517175352200866" lon="6.566528119146824"><ele></ele><time>2015-2-2T21:29:23Z</time></trkpt>
<trkpt lat="46.517132939770818" lon="6.565798977389932"><ele></ele><time>2015-2-2T21:29:26Z</time></trkpt>
<trkpt lat="46.517047192901373" lon="6.565187769010663"><ele></ele><time>2015-2-2T21:29:29Z</time></trkpt>
<trkpt lat="46.516916938126087" lon="6.564530041068792"><ele></ele><time>2015-2-2T21:29:32Z</time></trkpt>
<trkpt lat="46.516721807420254" lon="6.563885807991028"><ele></ele><time>2015-2-2T21:29:35Z</time></trkpt>
<trkpt lat="46.516517121344805" lon="6.563266217708588"><ele></ele><time>2015-2-2T21:29:38Z</time></trkpt>
<trkpt lat="46.51628578081727" lon="6.562689794227481"><ele></ele><time>2015-2-2T21:29:41Z</time></trkpt>
<trkpt lat="46.516032312065363" lon="6.562143629416823"><ele></ele><time>2015-2-2T21:29:44Z</time></trkpt>
<trkpt lat="46.515776328742504" lon="6.561595788225532"><ele></ele><time>2015-2-2T21:29:47Z</time></trkpt>
<trkpt lat="46.515506180003285" lon="6.561058508232236"><ele></ele><time>2015-2-2T21:29:50Z</time></trkpt>
<trkpt lat="46.515244413167238" lon="6.560507901012898"><ele></ele><time>2015-2-2T21:29:53Z</time></trkpt>
<trkpt lat="46.515003684908152" lon="6.559937931597233"><ele></ele><time>2015-2-2T21:29:56Z</time></trkpt>
<trkpt lat="46.514760022982955" lon="6.559343487024307"><ele></ele><time>2015-2-2T21:29:59Z</time></trkpt>
<trkpt lat="46.514525664970279" lon="6.558767315000296"><ele></ele><time>2015-2-2T21:30:2Z</time></trkpt>
<trkpt lat="46.514294072985649" lon="6.558186784386635"><ele></ele><time>2015-2-2T21:30:5Z</time></trkpt>
<trkpt lat="46.514066085219383" lon="6.55755914747715"><ele></ele><time>2015-2-2T21:30:8Z</time></trkpt>
<trkpt lat="46.51391102001071" lon="6.556938467547298"><ele></ele><time>2015-2-2T21:30:11Z</time></trkpt>
<trkpt lat="46.513831727206707" lon="6.556286942213774"><ele></ele><time>2015-2-2T21:30:14Z</time></trkpt>
<trkpt lat="46.513828122988343" lon="6.555586131289601"><ele></ele><time>2015-2-2T21:30:17Z</time></trkpt>
<trkpt lat="46.513849413022399" lon="6.554909376427531"><ele></ele><time>2015-2-2T21:30:20Z</time></trkpt>
<trkpt lat="46.513867098838091" lon="6.554256342351437"><ele></ele><time>2015-2-2T21:30:23Z</time></trkpt>
<trkpt lat="46.513871205970645" lon="6.553528793156147"><ele></ele><time>2015-2-2T21:30:26Z</time></trkpt>
<trkpt lat="46.513878498226404" lon="6.552780792117119"><ele></ele><time>2015-2-2T21:30:29Z</time></trkpt>
<trkpt lat="46.513883946463466" lon="6.552068330347538"><ele></ele><time>2015-2-2T21:30:32Z</time></trkpt>
<trkpt lat="46.513889394700527" lon="6.551383947953582"><ele></ele><time>2015-2-2T21:30:35Z</time></trkpt>
<trkpt lat="46.513887047767639" lon="6.550716413185"><ele></ele><time>2015-2-2T21:30:38Z</time></trkpt>
<trkpt lat="46.513867434114218" lon="6.549976961687207"><ele></ele><time>2015-2-2T21:30:41Z</time></trkpt>
<trkpt lat="46.513819741085172" lon="6.549323005601764"><ele></ele><time>2015-2-2T21:30:44Z</time></trkpt>
<trkpt lat="46.513739861547947" lon="6.548636024817824"><ele></ele><time>2015-2-2T21:30:47Z</time></trkpt>
<trkpt lat="46.513666184619069" lon="6.547946194186807"><ele></ele><time>2015-2-2T21:30:50Z</time></trkpt>
<trkpt lat="46.513587730005383" lon="6.547298692166805"><ele></ele><time>2015-2-2T21:30:53Z</time></trkpt>
<trkpt lat="46.513506257906556" lon="6.546572986990213"><ele></ele><time>2015-2-2T21:30:56Z</time></trkpt>
<trkpt lat="46.513430736958981" lon="6.54590436257422"><ele></ele><time>2015-2-2T21:30:59Z</time></trkpt>
<trkpt lat="46.513359323143959" lon="6.545238504186273"><ele></ele><time>2015-2-2T21:31:2Z</time></trkpt>
<trkpt lat="46.513298470526934" lon="6.544467369094491"><ele></ele><time>2015-2-2T21:31:5Z</time></trkpt>
<trkpt lat="46.51331246830523" lon="6.543777035549283"><ele></ele><time>2015-2-2T21:31:8Z</time></trkpt>
<trkpt lat="46.513402322307229" lon="6.543059796094894"><ele></ele><time>2015-2-2T21:31:11Z</time></trkpt>
<trkpt lat="46.51357633061707" lon="6.542341969907284"><ele></ele><time>2015-2-2T21:31:14Z</time></trkpt>
<trkpt lat="46.513760313391685" lon="6.541740903630853"><ele></ele><time>2015-2-2T21:31:17Z</time></trkpt>
<trkpt lat="46.513998946174979" lon="6.541118547320366"><ele></ele><time>2015-2-2T21:31:20Z</time></trkpt>
<trkpt lat="46.514174044132233" lon="6.540504908189178"><ele></ele><time>2015-2-2T21:31:23Z</time></trkpt>
<trkpt lat="46.514356685802341" lon="6.539860256016254"><ele></ele><time>2015-2-2T21:31:26Z</time></trkpt>
<trkpt lat="46.514535471796989" lon="6.539203282445669"><ele></ele><time>2015-2-2T21:31:29Z</time></trkpt>
<trkpt lat="46.514712413772941" lon="6.53853926807642"><ele></ele><time>2015-2-2T21:31:32Z</time></trkpt>
<trkpt lat="46.514884661883116" lon="6.537886150181294"><ele></ele><time>2015-2-2T21:31:35Z</time></trkpt>
<trkpt lat="46.515064453706145" lon="6.537242168560624"><ele></ele><time>2015-2-2T21:31:38Z</time></trkpt>
<trkpt lat="46.515246676281095" lon="6.536612519994378"><ele></ele><time>2015-2-2T21:31:41Z</time></trkpt>
<trkpt lat="46.515409369021654" lon="6.535996198654175"><ele></ele><time>2015-2-2T21:31:44Z</time></trkpt>
<trkpt lat="46.515627382323146" lon="6.535407872870565"><ele></ele><time>2015-2-2T21:31:47Z</time></trkpt>
<trkpt lat="46.51568379253149" lon="6.534739164635539"><ele></ele><time>2015-2-2T21:31:50Z</time></trkpt>
<trkpt lat="46.515828715637326" lon="6.534099290147424"><ele></ele><time>2015-2-2T21:31:53Z</time></trkpt>
<trkpt lat="46.515968944877386" lon="6.533469725400209"><ele></ele><time>2015-2-2T21:31:56Z</time></trkpt>
<trkpt lat="46.516117975115776" lon="6.53282817453146"><ele></ele><time>2015-2-2T21:31:59Z</time></trkpt>
<trkpt lat="46.516276141628623" lon="6.53214312158525"><ele></ele><time>2015-2-2T21:32:2Z</time></trkpt>
<trkpt lat="46.516417795792222" lon="6.531485728919506"><ele></ele><time>2015-2-2T21:32:5Z</time></trkpt>
<trkpt lat="46.516550481319427" lon="6.53081207536161"><ele></ele><time>2015-2-2T21:32:8Z</time></trkpt>
<trkpt lat="46.516664894297719" lon="6.530126184225082"><ele></ele><time>2015-2-2T21:32:11Z</time></trkpt>
<trkpt lat="46.516785342246294" lon="6.529474491253495"><ele></ele><time>2015-2-2T21:32:14Z</time></trkpt>
<trkpt lat="46.516914423555136" lon="6.528822714462876"><ele></ele><time>2015-2-2T21:32:17Z</time></trkpt>
<trkpt lat="46.517039649188519" lon="6.528173703700304"><ele></ele><time>2015-2-2T21:32:20Z</time></trkpt>
<trkpt lat="46.517173256725073" lon="6.52753097936511"><ele></ele><time>2015-2-2T21:32:23Z</time></trkpt>
<trkpt lat="46.517293537035584" lon="6.526901163160801"><ele></ele><time>2015-2-2T21:32:26Z</time></trkpt>
<trkpt lat="46.517414906993508" lon="6.52621116489172"><ele></ele><time>2015-2-2T21:32:29Z</time></trkpt>
<trkpt lat="46.517535606399179" lon="6.525577157735825"><ele></ele><time>2015-2-2T21:32:32Z</time></trkpt>
<trkpt lat="46.517665525898337" lon="6.524939965456724"><ele></ele><time>2015-2-2T21:32:35Z</time></trkpt>
<trkpt lat="46.517691090703011" lon="6.524232784286141"><ele></ele><time>2015-2-2T21:32:38Z</time></trkpt>
<trkpt lat="46.517717996612191" lon="6.523564327508211"><ele></ele><time>2015-2-2T21:32:41Z</time></trkpt>
<trkpt lat="46.517752362415195" lon="6.522910371422768"><ele></ele><time>2015-2-2T21:32:44Z</time></trkpt>
<trkpt lat="46.51778538711369" lon="6.522170668467879"><ele></ele><time>2015-2-2T21:32:47Z</time></trkpt>
<trkpt lat="46.517826793715358" lon="6.521368771791458"><ele></ele><time>2015-2-2T21:32:50Z</time></trkpt>
<trkpt lat="46.517868116497993" lon="6.520590595901012"><ele></ele><time>2015-2-2T21:32:53Z</time></trkpt>
<trkpt lat="46.517907679080963" lon="6.519858939573169"><ele></ele><time>2015-2-2T21:32:56Z</time></trkpt>
<trkpt lat="46.517941961064935" lon="6.519199451431632"><ele></ele><time>2015-2-2T21:32:59Z</time></trkpt>
<trkpt lat="46.517955875024199" lon="6.518550021573901"><ele></ele><time>2015-2-2T21:33:2Z</time></trkpt>
<trkpt lat="46.517886724323034" lon="6.517822975292802"><ele></ele><time>2015-2-2T21:33:5Z</time></trkpt>
<trkpt lat="46.517805922776461" lon="6.517167594283819"><ele></ele><time>2015-2-2T21:33:8Z</time></trkpt>
<trkpt lat="46.517717745155096" lon="6.516404673457146"><ele></ele><time>2015-2-2T21:33:11Z</time></trkpt>
<trkpt lat="46.517636021599174" lon="6.515713836997747"><ele></ele><time>2015-2-2T21:33:14Z</time></trkpt>
<trkpt lat="46.517560333013535" lon="6.515000620856881"><ele></ele><time>2015-2-2T21:33:17Z</time></trkpt>
<trkpt lat="46.517469892278314" lon="6.514281872659922"><ele></ele><time>2015-2-2T21:33:20Z</time></trkpt>
<trkpt lat="46.517383307218552" lon="6.513530518859625"><ele></ele><time>2015-2-2T21:33:23Z</time></trkpt>
<trkpt lat="46.517294207587838" lon="6.512813027948141"><ele></ele><time>2015-2-2T21:33:26Z</time></trkpt>
<trkpt lat="46.517209466546774" lon="6.512048849835992"><ele></ele><time>2015-2-2T21:33:29Z</time></trkpt>
<trkpt lat="46.517129922285676" lon="6.511346530169249"><ele></ele><time>2015-2-2T21:33:32Z</time></trkpt>
<trkpt lat="46.517051970586181" lon="6.510659549385309"><ele></ele><time>2015-2-2T21:33:35Z</time></trkpt>
<trkpt lat="46.516967145726085" lon="6.509948847815394"><ele></ele><time>2015-2-2T21:33:38Z</time></trkpt>
<trkpt lat="46.516899922862649" lon="6.509280055761337"><ele></ele><time>2015-2-2T21:33:41Z</time></trkpt>
<trkpt lat="46.516855582594872" lon="6.508615622296929"><ele></ele><time>2015-2-2T21:33:44Z</time></trkpt>
<trkpt lat="46.516752149909735" lon="6.507957642897964"><ele></ele><time>2015-2-2T21:33:47Z</time></trkpt>
<trkpt lat="46.516635473817587" lon="6.507276026532054"><ele></ele><time>2015-2-2T21:33:50Z</time></trkpt>
<trkpt lat="46.516439002007246" lon="6.506614107638598"><ele></ele><time>2015-2-2T21:33:53Z</time></trkpt>
<trkpt lat="46.516223000362515" lon="6.506027709692717"><ele></ele><time>2015-2-2T21:33:56Z</time></trkpt>
<trkpt lat="46.516007082536817" lon="6.505448436364532"><ele></ele><time>2015-2-2T21:33:59Z</time></trkpt>
<trkpt lat="46.515787895768881" lon="6.504865642637014"><ele></ele><time>2015-2-2T21:34:2Z</time></trkpt>
<trkpt lat="46.515536857768893" lon="6.504300786182284"><ele></ele><time>2015-2-2T21:34:5Z</time></trkpt>
<trkpt lat="46.515223374590278" lon="6.503755627200007"><ele></ele><time>2015-2-2T21:34:8Z</time></trkpt>
<trkpt lat="46.514824982732534" lon="6.503280876204372"><ele></ele><time>2015-2-2T21:34:11Z</time></trkpt>
<trkpt lat="46.514425836503506" lon="6.502803610637784"><ele></ele><time>2015-2-2T21:34:14Z</time></trkpt>
<trkpt lat="46.514058457687497" lon="6.50236314162612"><ele></ele><time>2015-2-2T21:34:17Z</time></trkpt>
<trkpt lat="46.513683283701539" lon="6.501934574916959"><ele></ele><time>2015-2-2T21:34:20Z</time></trkpt>
<trkpt lat="46.513311630114913" lon="6.501494441181421"><ele></ele><time>2015-2-2T21:34:23Z</time></trkpt>
<trkpt lat="46.512927487492561" lon="6.501061515882611"><ele></ele><time>2015-2-2T21:34:26Z</time></trkpt>
<trkpt lat="46.512549631297588" lon="6.50064024142921"><ele></ele><time>2015-2-2T21:34:29Z</time></trkpt>
<trkpt lat="46.512184431776404" lon="6.500244028866291"><ele></ele><time>2015-2-2T21:34:32Z</time></trkpt>
<trkpt lat="46.511711357161403" lon="6.4999810885638"><ele></ele><time>2015-2-2T21:34:35Z</time></trkpt>
<trkpt lat="46.511229649186134" lon="6.499932054430246"><ele></ele><time>2015-2-2T21:34:38Z</time></trkpt>
<trkpt lat="46.510794125497341" lon="6.499901963397861"><ele></ele><time>2015-2-2T21:34:41Z</time></trkpt>
<trkpt lat="46.510346531867981" lon="6.499656038358808"><ele></ele><time>2015-2-2T21:34:44Z</time></trkpt>
<trkpt lat="46.509938584640622" lon="6.499336017295718"><ele></ele><time>2015-2-2T21:34:47Z</time></trkpt>
<trkpt lat="46.509584365412593" lon="6.49894081056118"><ele></ele><time>2015-2-2T21:34:50Z</time></trkpt>
<trkpt lat="46.509234337136149" lon="6.499062264338136"><ele></ele><time>2015-2-2T21:34:53Z</time></trkpt>
<trkpt lat="46.508886320516467" lon="6.499286647886038"><ele></ele><time>2015-2-2T21:34:56Z</time></trkpt>
<trkpt lat="46.508572585880756" lon="6.499760393053293"><ele></ele><time>2015-2-2T21:34:59Z</time></trkpt>
<trkpt lat="46.508195232599974" lon="6.499756956472993"><ele></ele><time>2015-2-2T21:35:2Z</time></trkpt>
<trkpt lat="46.507881665602326" lon="6.499260663986206"><ele></ele><time>2015-2-2T21:35:5Z</time></trkpt>
<trkpt lat="46.507646972313523" lon="6.498756660148501"><ele></ele><time>2015-2-2T21:35:8Z</time></trkpt>
<trkpt lat="46.50734681636095" lon="6.498255925253034"><ele></ele><time>2015-2-2T21:35:11Z</time></trkpt>
<trkpt lat="46.507038529962301" lon="6.497755357995629"><ele></ele><time>2015-2-2T21:35:14Z</time></trkpt>
<trkpt lat="46.506671654060483" lon="6.4973268751055"><ele></ele><time>2015-2-2T21:35:17Z</time></trkpt>
<trkpt lat="46.506276363506913" lon="6.497015152126551"><ele></ele><time>2015-2-2T21:35:20Z</time></trkpt>
<trkpt lat="46.505928933620453" lon="6.496532019227743"><ele></ele><time>2015-2-2T21:35:23Z</time></trkpt>
<trkpt lat="46.505576893687248" lon="6.496113678440452"><ele></ele><time>2015-2-2T21:35:26Z</time></trkpt>
<trkpt lat="46.505257207900286" lon="6.495561981573701"><ele></ele><time>2015-2-2T21:35:29Z</time></trkpt>
<trkpt lat="46.504969708621502" lon="6.494982372969389"><ele></ele><time>2015-2-2T21:35:32Z</time></trkpt>
<trkpt lat="46.50491832755506" lon="6.494339480996132"><ele></ele><time>2015-2-2T21:35:35Z</time></trkpt>
<trkpt lat="46.504663182422519" lon="6.49376523680985"><ele></ele><time>2015-2-2T21:35:38Z</time></trkpt>
<trkpt lat="46.504517253488302" lon="6.493095858022571"><ele></ele><time>2015-2-2T21:35:41Z</time></trkpt>
<trkpt lat="46.504432763904333" lon="6.492443578317761"><ele></ele><time>2015-2-2T21:35:44Z</time></trkpt>
<trkpt lat="46.504342155531049" lon="6.491752071306109"><ele></ele><time>2015-2-2T21:35:47Z</time></trkpt>
<trkpt lat="46.504415832459927" lon="6.491210432723165"><ele></ele><time>2015-2-2T21:35:50Z</time></trkpt>
<trkpt lat="46.504885470494628" lon="6.491120159626007"><ele></ele><time>2015-2-2T21:35:53Z</time></trkpt>
<trkpt lat="46.505188643932343" lon="6.490798546001315"><ele></ele><time>2015-2-2T21:35:56Z</time></trkpt>
<trkpt lat="46.505067190155387" lon="6.49015330709517"><ele></ele><time>2015-2-2T21:35:59Z</time></trkpt>
<trkpt lat="46.504851691424847" lon="6.489524664357305"><ele></ele><time>2015-2-2T21:36:2Z</time></trkpt>
<trkpt lat="46.504735769703984" lon="6.488902810961008"><ele></ele><time>2015-2-2T21:36:5Z</time></trkpt>
<trkpt lat="46.504557067528367" lon="6.488443147391081"><ele></ele><time>2015-2-2T21:36:8Z</time></trkpt>
<trkpt lat="46.504142750054598" lon="6.488037128001452"><ele></ele><time>2015-2-2T21:36:11Z</time></trkpt>
<trkpt lat="46.503714015707374" lon="6.487729344516993"><ele></ele><time>2015-2-2T21:36:14Z</time></trkpt>
<trkpt lat="46.503692641854286" lon="6.487283259630203"><ele></ele><time>2015-2-2T21:36:17Z</time></trkpt>
<trkpt lat="46.503275977447629" lon="6.48696156218648"><ele></ele><time>2015-2-2T21:36:20Z</time></trkpt>
<trkpt lat="46.502903234213591" lon="6.486588316038251"><ele></ele><time>2015-2-2T21:36:23Z</time></trkpt>
<trkpt lat="46.502506099641323" lon="6.486220266669989"><ele></ele><time>2015-2-2T21:36:26Z</time></trkpt>
<trkpt lat="46.502086250111461" lon="6.485831178724766"><ele></ele><time>2015-2-2T21:36:29Z</time></trkpt>
<trkpt lat="46.50169582106173" lon="6.485454412177205"><ele></ele><time>2015-2-2T21:36:32Z</time></trkpt>
<trkpt lat="46.50130832567811" lon="6.485082758590579"><ele></ele><time>2015-2-2T21:36:35Z</time></trkpt>
<trkpt lat="46.500891828909516" lon="6.484699621796608"><ele></ele><time>2015-2-2T21:36:38Z</time></trkpt>
<trkpt lat="46.50051673874259" lon="6.484303157776594"><ele></ele><time>2015-2-2T21:36:41Z</time></trkpt>
<trkpt lat="46.500105438753963" lon="6.483952375128865"><ele></ele><time>2015-2-2T21:36:44Z</time></trkpt>
<trkpt lat="46.499698413535953" lon="6.483588013797998"><ele></ele><time>2015-2-2T21:36:47Z</time></trkpt>
<trkpt lat="46.499296249821782" lon="6.483204793184996"><ele></ele><time>2015-2-2T21:36:50Z</time></trkpt>
<trkpt lat="46.498887129127979" lon="6.482813442125917"><ele></ele><time>2015-2-2T21:36:53Z</time></trkpt>
<trkpt lat="46.498466692864895" lon="6.482417564839125"><ele></ele><time>2015-2-2T21:36:56Z</time></trkpt>
<trkpt lat="46.498045586049557" lon="6.482054376974702"><ele></ele><time>2015-2-2T21:36:59Z</time></trkpt>
<trkpt lat="46.497595645487309" lon="6.481799567118287"><ele></ele><time>2015-2-2T21:37:2Z</time></trkpt>
<trkpt lat="46.497092060744762" lon="6.481691021472216"><ele></ele><time>2015-2-2T21:37:5Z</time></trkpt>
<trkpt lat="46.496610352769494" lon="6.481525143608451"><ele></ele><time>2015-2-2T21:37:8Z</time></trkpt>
<trkpt lat="46.49616988375783" lon="6.481155669316649"><ele></ele><time>2015-2-2T21:37:11Z</time></trkpt>
<trkpt lat="46.495804348960519" lon="6.480629537254572"><ele></ele><time>2015-2-2T21:37:14Z</time></trkpt>
<trkpt lat="46.495527327060699" lon="6.480011623352766"><ele></ele><time>2015-2-2T21:37:17Z</time></trkpt>
<trkpt lat="46.495292549952865" lon="6.479395218193531"><ele></ele><time>2015-2-2T21:37:20Z</time></trkpt>
<trkpt lat="46.49507730267942" lon="6.478823069483042"><ele></ele><time>2015-2-2T21:37:23Z</time></trkpt>
<trkpt lat="46.494872448965907" lon="6.478222338482738"><ele></ele><time>2015-2-2T21:37:26Z</time></trkpt>
<trkpt lat="46.494664745405316" lon="6.477625295519829"><ele></ele><time>2015-2-2T21:37:29Z</time></trkpt>
<trkpt lat="46.49446215480566" lon="6.477038562297821"><ele></ele><time>2015-2-2T21:37:32Z</time></trkpt>
<trkpt lat="46.494253864511847" lon="6.476445458829403"><ele></ele><time>2015-2-2T21:37:35Z</time></trkpt>
<trkpt lat="46.494048004969954" lon="6.475859647616744"><ele></ele><time>2015-2-2T21:37:38Z</time></trkpt>
<trkpt lat="46.493815407156944" lon="6.475174091756344"><ele></ele><time>2015-2-2T21:37:41Z</time></trkpt>
<trkpt lat="46.49358943104744" lon="6.474524158984423"><ele></ele><time>2015-2-2T21:37:44Z</time></trkpt>
<trkpt lat="46.493370914831758" lon="6.473880428820849"><ele></ele><time>2015-2-2T21:37:47Z</time></trkpt>
<trkpt lat="46.493146782740951" lon="6.473238207399845"><ele></ele><time>2015-2-2T21:37:50Z</time></trkpt>
<trkpt lat="46.492926422506571" lon="6.472604870796204"><ele></ele><time>2015-2-2T21:37:53Z</time></trkpt>
<trkpt lat="46.492717377841473" lon="6.472007324919105"><ele></ele><time>2015-2-2T21:37:56Z</time></trkpt>
<trkpt lat="46.492487965151668" lon="6.471364684402943"><ele></ele><time>2015-2-2T21:37:59Z</time></trkpt>
<trkpt lat="46.492272801697254" lon="6.470713242888451"><ele></ele><time>2015-2-2T21:38:2Z</time></trkpt>
<trkpt lat="46.492057722061872" lon="6.470110332593322"><ele></ele><time>2015-2-2T21:38:5Z</time></trkpt>
<trkpt lat="46.491839876398444" lon="6.469512702897191"><ele></ele><time>2015-2-2T21:38:8Z</time></trkpt>
<trkpt lat="46.491586156189442" lon="6.468913229182363"><ele></ele><time>2015-2-2T21:38:11Z</time></trkpt>
<trkpt lat="46.491309804841876" lon="6.468335213139653"><ele></ele><time>2015-2-2T21:38:14Z</time></trkpt>
<trkpt lat="46.491009397432208" lon="6.46777555346489"><ele></ele><time>2015-2-2T21:38:17Z</time></trkpt>
<trkpt lat="46.490689795464277" lon="6.467249924317002"><ele></ele><time>2015-2-2T21:38:20Z</time></trkpt>
<trkpt lat="46.490360973402858" lon="6.466750279068947"><ele></ele><time>2015-2-2T21:38:23Z</time></trkpt>
<trkpt lat="46.490012956783175" lon="6.466285418719053"><ele></ele><time>2015-2-2T21:38:26Z</time></trkpt>
<trkpt lat="46.489686062559485" lon="6.465774793177843"><ele></ele><time>2015-2-2T21:38:29Z</time></trkpt>
<trkpt lat="46.489361012354493" lon="6.465291492640972"><ele></ele><time>2015-2-2T21:38:32Z</time></trkpt>
<trkpt lat="46.488993130624294" lon="6.464761337265372"><ele></ele><time>2015-2-2T21:38:35Z</time></trkpt>
<trkpt lat="46.488622566685081" lon="6.464218609035015"><ele></ele><time>2015-2-2T21:38:38Z</time></trkpt>
<trkpt lat="46.488304389640689" lon="6.463746121153235"><ele></ele><time>2015-2-2T21:38:41Z</time></trkpt>
<trkpt lat="46.487929048016667" lon="6.463186545297504"><ele></ele><time>2015-2-2T21:38:44Z</time></trkpt>
<trkpt lat="46.487598130479455" lon="6.46265379153192"><ele></ele><time>2015-2-2T21:38:47Z</time></trkpt>
<trkpt lat="46.487253801897168" lon="6.462142076343298"><ele></ele><time>2015-2-2T21:38:50Z</time></trkpt>
<trkpt lat="46.486933026462793" lon="6.461662966758013"><ele></ele><time>2015-2-2T21:38:53Z</time></trkpt>
<trkpt lat="46.486518708989024" lon="6.461229454725981"><ele></ele><time>2015-2-2T21:38:56Z</time></trkpt>
<trkpt lat="46.48609827272594" lon="6.460889903828502"><ele></ele><time>2015-2-2T21:38:59Z</time></trkpt>
<trkpt lat="46.485669538378716" lon="6.460552532225847"><ele></ele><time>2015-2-2T21:39:2Z</time></trkpt>
<trkpt lat="46.485244911164045" lon="6.460200240835547"><ele></ele><time>2015-2-2T21:39:5Z</time></trkpt>
<trkpt lat="46.484831599518657" lon="6.459870412945747"><ele></ele><time>2015-2-2T21:39:8Z</time></trkpt>
<trkpt lat="46.484428178519011" lon="6.459529772400856"><ele></ele><time>2015-2-2T21:39:11Z</time></trkpt>
<trkpt lat="46.484018890187144" lon="6.459191227331758"><ele></ele><time>2015-2-2T21:39:14Z</time></trkpt>
<trkpt lat="46.48356718942523" lon="6.458823261782527"><ele></ele><time>2015-2-2T21:39:17Z</time></trkpt>
<trkpt lat="46.483162511140108" lon="6.458402238786221"><ele></ele><time>2015-2-2T21:39:20Z</time></trkpt>
<trkpt lat="46.482734279707074" lon="6.45814323797822"><ele></ele><time>2015-2-2T21:39:23Z</time></trkpt>
<trkpt lat="46.482326416298747" lon="6.457807123661041"><ele></ele><time>2015-2-2T21:39:26Z</time></trkpt>
<trkpt lat="46.48192785680294" lon="6.457464974373579"><ele></ele><time>2015-2-2T21:39:29Z</time></trkpt>
<trkpt lat="46.481506917625666" lon="6.457102624699473"><ele></ele><time>2015-2-2T21:39:32Z</time></trkpt>
<trkpt lat="46.481138784438372" lon="6.456723595038056"><ele></ele><time>2015-2-2T21:39:35Z</time></trkpt>
<trkpt lat="46.480854721739888" lon="6.456201653927565"><ele></ele><time>2015-2-2T21:39:38Z</time></trkpt>
<trkpt lat="46.48064911365509" lon="6.455588433891535"><ele></ele><time>2015-2-2T21:39:41Z</time></trkpt>
<trkpt lat="46.480475943535566" lon="6.454977812245488"><ele></ele><time>2015-2-2T21:39:44Z</time></trkpt>
<trkpt lat="46.480297911912203" lon="6.454362664371729"><ele></ele><time>2015-2-2T21:39:47Z</time></trkpt>
<trkpt lat="46.480108983814716" lon="6.453737625852227"><ele></ele><time>2015-2-2T21:39:50Z</time></trkpt>
<trkpt lat="46.479898933321238" lon="6.453063134104013"><ele></ele><time>2015-2-2T21:39:53Z</time></trkpt>
<trkpt lat="46.479700282216072" lon="6.452397610992193"><ele></ele><time>2015-2-2T21:39:56Z</time></trkpt>
<trkpt lat="46.4795105997473" lon="6.451732590794563"><ele></ele><time>2015-2-2T21:39:59Z</time></trkpt>
<trkpt lat="46.479330640286207" lon="6.451113671064377"><ele></ele><time>2015-2-2T21:40:2Z</time></trkpt>
<trkpt lat="46.479132995009422" lon="6.450432473793626"><ele></ele><time>2015-2-2T21:40:5Z</time></trkpt>
<trkpt lat="46.478930404409766" lon="6.449750354513526"><ele></ele><time>2015-2-2T21:40:8Z</time></trkpt>
<trkpt lat="46.478740302845836" lon="6.449099164456129"><ele></ele><time>2015-2-2T21:40:11Z</time></trkpt>
<trkpt lat="46.478539556264877" lon="6.448423750698566"><ele></ele><time>2015-2-2T21:40:14Z</time></trkpt>
<trkpt lat="46.478337133303285" lon="6.447746409103274"><ele></ele><time>2015-2-2T21:40:17Z</time></trkpt>
<trkpt lat="46.478155497461557" lon="6.447125980630517"><ele></ele><time>2015-2-2T21:40:20Z</time></trkpt>
<trkpt lat="46.477964390069246" lon="6.44647772423923"><ele></ele><time>2015-2-2T21:40:23Z</time></trkpt>
<trkpt lat="46.477762386202812" lon="6.445822678506374"><ele></ele><time>2015-2-2T21:40:26Z</time></trkpt>
<trkpt lat="46.477567087858915" lon="6.445124801248312"><ele></ele><time>2015-2-2T21:40:29Z</time></trkpt>
<trkpt lat="46.477385200560093" lon="6.444515185430646"><ele></ele><time>2015-2-2T21:40:32Z</time></trkpt>
<trkpt lat="46.477215718477964" lon="6.443905150517821"><ele></ele><time>2015-2-2T21:40:35Z</time></trkpt>
<trkpt lat="46.477037183940411" lon="6.443305676802993"><ele></ele><time>2015-2-2T21:40:38Z</time></trkpt>
<trkpt lat="46.476840544492006" lon="6.442636046558619"><ele></ele><time>2015-2-2T21:40:41Z</time></trkpt>
<trkpt lat="46.47665698081255" lon="6.441992651671171"><ele></ele><time>2015-2-2T21:40:44Z</time></trkpt>
<trkpt lat="46.47646352648735" lon="6.441373312845826"><ele></ele><time>2015-2-2T21:40:47Z</time></trkpt>
<trkpt lat="46.47628566250205" lon="6.440742323175073"><ele></ele><time>2015-2-2T21:40:50Z</time></trkpt>
<trkpt lat="46.476110816001892" lon="6.440137401223183"><ele></ele><time>2015-2-2T21:40:53Z</time></trkpt>
<trkpt lat="46.475919457152486" lon="6.439473805949092"><ele></ele><time>2015-2-2T21:40:56Z</time></trkpt>
<trkpt lat="46.475733797997236" lon="6.438839714974165"><ele></ele><time>2015-2-2T21:40:59Z</time></trkpt>
<trkpt lat="46.475537577643991" lon="6.438170671463013"><ele></ele><time>2015-2-2T21:41:2Z</time></trkpt>
<trkpt lat="46.475348733365536" lon="6.437517302110791"><ele></ele><time>2015-2-2T21:41:5Z</time></trkpt>
<trkpt lat="46.475172881036997" lon="6.436905087903142"><ele></ele><time>2015-2-2T21:41:8Z</time></trkpt>
<trkpt lat="46.47498688660562" lon="6.436269236728549"><ele></ele><time>2015-2-2T21:41:11Z</time></trkpt>
<trkpt lat="46.47480851970613" lon="6.435622405260801"><ele></ele><time>2015-2-2T21:41:14Z</time></trkpt>
<trkpt lat="46.474669296294451" lon="6.434868033975363"><ele></ele><time>2015-2-2T21:41:17Z</time></trkpt>
<trkpt lat="46.474613221362233" lon="6.434165881946683"><ele></ele><time>2015-2-2T21:41:20Z</time></trkpt>
<trkpt lat="46.474594697356224" lon="6.433445792645216"><ele></ele><time>2015-2-2T21:41:23Z</time></trkpt>
<trkpt lat="46.474573574960232" lon="6.432724948972464"><ele></ele><time>2015-2-2T21:41:26Z</time></trkpt>
<trkpt lat="46.474554045125842" lon="6.431966470554471"><ele></ele><time>2015-2-2T21:41:29Z</time></trkpt>
<trkpt lat="46.47453979589045" lon="6.431226432323456"><ele></ele><time>2015-2-2T21:41:32Z</time></trkpt>
<trkpt lat="46.474523115903139" lon="6.43052201718092"><ele></ele><time>2015-2-2T21:41:35Z</time></trkpt>
<trkpt lat="46.474507106468081" lon="6.429786672815681"><ele></ele><time>2015-2-2T21:41:38Z</time></trkpt>
<trkpt lat="46.474485984072089" lon="6.429122993722558"><ele></ele><time>2015-2-2T21:41:41Z</time></trkpt>
<trkpt lat="46.47446209564805" lon="6.428443221375346"><ele></ele><time>2015-2-2T21:41:44Z</time></trkpt>
<trkpt lat="46.474445750936866" lon="6.427754228934646"><ele></ele><time>2015-2-2T21:41:47Z</time></trkpt>
<trkpt lat="46.474427226930857" lon="6.427098009735346"><ele></ele><time>2015-2-2T21:41:50Z</time></trkpt>
<trkpt lat="46.474487576633692" lon="6.426416728645563"><ele></ele><time>2015-2-2T21:41:53Z</time></trkpt>
<trkpt lat="46.474438877776265" lon="6.425773249939084"><ele></ele><time>2015-2-2T21:41:56Z</time></trkpt>
<trkpt lat="46.474420186132193" lon="6.425096578896046"><ele></ele><time>2015-2-2T21:41:59Z</time></trkpt>
<trkpt lat="46.474393699318171" lon="6.424349751323462"><ele></ele><time>2015-2-2T21:42:2Z</time></trkpt>
<trkpt lat="46.474379450082779" lon="6.423645839095116"><ele></ele><time>2015-2-2T21:42:5Z</time></trkpt>
<trkpt lat="46.474362853914499" lon="6.422950811684132"><ele></ele><time>2015-2-2T21:42:8Z</time></trkpt>
<trkpt lat="46.474352041259408" lon="6.422244720160961"><ele></ele><time>2015-2-2T21:42:11Z</time></trkpt>
<trkpt lat="46.474340306594968" lon="6.42155421897769"><ele></ele><time>2015-2-2T21:42:14Z</time></trkpt>
<trkpt lat="46.474314071238041" lon="6.420865813270211"><ele></ele><time>2015-2-2T21:42:17Z</time></trkpt>
<trkpt lat="46.474279034882784" lon="6.420212024822831"><ele></ele><time>2015-2-2T21:42:20Z</time></trkpt>
<trkpt lat="46.474250955507159" lon="6.419524373486638"><ele></ele><time>2015-2-2T21:42:23Z</time></trkpt>
<trkpt lat="46.474279537796974" lon="6.418813671916723"><ele></ele><time>2015-2-2T21:42:26Z</time></trkpt>
<trkpt lat="46.474231844767928" lon="6.418138090521097"><ele></ele><time>2015-2-2T21:42:29Z</time></trkpt>
<trkpt lat="46.474224636331201" lon="6.417460162192583"><ele></ele><time>2015-2-2T21:42:32Z</time></trkpt>
<trkpt lat="46.474203933030367" lon="6.416783994063735"><ele></ele><time>2015-2-2T21:42:35Z</time></trkpt>
<trkpt lat="46.474197311326861" lon="6.416077399626374"><ele></ele><time>2015-2-2T21:42:38Z</time></trkpt>
<trkpt lat="46.474170992150903" lon="6.415330655872822"><ele></ele><time>2015-2-2T21:42:41Z</time></trkpt>
<trkpt lat="46.47414643317461" lon="6.41462154686451"><ele></ele><time>2015-2-2T21:42:44Z</time></trkpt>
<trkpt lat="46.474127238616347" lon="6.413911012932658"><ele></ele><time>2015-2-2T21:42:47Z</time></trkpt>
<trkpt lat="46.474126232787967" lon="6.413215734064579"><ele></ele><time>2015-2-2T21:42:50Z</time></trkpt>
<trkpt lat="46.474081557244062" lon="6.412567812949419"><ele></ele><time>2015-2-2T21:42:53Z</time></trkpt>
<trkpt lat="46.47405750118196" lon="6.411811010912061"><ele></ele><time>2015-2-2T21:42:56Z</time></trkpt>
<trkpt lat="46.474038474261761" lon="6.411060160025954"><ele></ele><time>2015-2-2T21:42:59Z</time></trkpt>
<trkpt lat="46.474018273875117" lon="6.410383824259043"><ele></ele><time>2015-2-2T21:43:2Z</time></trkpt>
<trkpt lat="46.473992876708508" lon="6.40966490842402"><ele></ele><time>2015-2-2T21:43:5Z</time></trkpt>
<trkpt lat="46.473964378237724" lon="6.409005336463451"><ele></ele><time>2015-2-2T21:43:8Z</time></trkpt>
<trkpt lat="46.473924983292818" lon="6.408305699005723"><ele></ele><time>2015-2-2T21:43:11Z</time></trkpt>
<trkpt lat="46.473778383806348" lon="6.407583178952336"><ele></ele><time>2015-2-2T21:43:14Z</time></trkpt>
<trkpt lat="46.473537990823388" lon="6.407013712450862"><ele></ele><time>2015-2-2T21:43:17Z</time></trkpt>
<trkpt lat="46.473275888711214" lon="6.406470313668251"><ele></ele><time>2015-2-2T21:43:20Z</time></trkpt>
<trkpt lat="46.473054857924581" lon="6.405894560739398"><ele></ele><time>2015-2-2T21:43:23Z</time></trkpt>
<trkpt lat="46.472782529890537" lon="6.405344707891345"><ele></ele><time>2015-2-2T21:43:26Z</time></trkpt>
<trkpt lat="46.472444320097566" lon="6.40476786531508"><ele></ele><time>2015-2-2T21:43:29Z</time></trkpt>
<trkpt lat="46.472069649025798" lon="6.404216168448329"><ele></ele><time>2015-2-2T21:43:32Z</time></trkpt>
<trkpt lat="46.47166857495904" lon="6.4037168584764"><ele></ele><time>2015-2-2T21:43:35Z</time></trkpt>
<trkpt lat="46.471251072362065" lon="6.403288710862398"><ele></ele><time>2015-2-2T21:43:38Z</time></trkpt>
<trkpt lat="46.470824936404824" lon="6.40290423296392"><ele></ele><time>2015-2-2T21:43:41Z</time></trkpt>
<trkpt lat="46.470443056896329" lon="6.402549091726542"><ele></ele><time>2015-2-2T21:43:44Z</time></trkpt>
<trkpt lat="46.470056986436248" lon="6.402134941890836"><ele></ele><time>2015-2-2T21:43:47Z</time></trkpt>
<trkpt lat="46.469685500487685" lon="6.401682067662478"><ele></ele><time>2015-2-2T21:43:50Z</time></trkpt>
<trkpt lat="46.469352906569839" lon="6.401179907843471"><ele></ele><time>2015-2-2T21:43:53Z</time></trkpt>
<trkpt lat="46.469158614054322" lon="6.40059107914567"><ele></ele><time>2015-2-2T21:43:56Z</time></trkpt>
<trkpt lat="46.469192057847977" lon="6.399919521063566"><ele></ele><time>2015-2-2T21:43:59Z</time></trkpt>
<trkpt lat="46.469371430575848" lon="6.399286687374115"><ele></ele><time>2015-2-2T21:44:2Z</time></trkpt>
<trkpt lat="46.469560526311398" lon="6.398691656067967"><ele></ele><time>2015-2-2T21:44:5Z</time></trkpt>
<trkpt lat="46.469723638147116" lon="6.398027976974845"><ele></ele><time>2015-2-2T21:44:8Z</time></trkpt>
<trkpt lat="46.469832351431251" lon="6.397370081394911"><ele></ele><time>2015-2-2T21:44:11Z</time></trkpt>
<trkpt lat="46.469769151881337" lon="6.396712437272072"><ele></ele><time>2015-2-2T21:44:14Z</time></trkpt>
<trkpt lat="46.469631940126419" lon="6.396085890009999"><ele></ele><time>2015-2-2T21:44:17Z</time></trkpt>
<trkpt lat="46.469497913494706" lon="6.395390359684825"><ele></ele><time>2015-2-2T21:44:20Z</time></trkpt>
<trkpt lat="46.469349637627602" lon="6.394640933722258"><ele></ele><time>2015-2-2T21:44:23Z</time></trkpt>
<trkpt lat="46.469213012605906" lon="6.393966106697917"><ele></ele><time>2015-2-2T21:44:26Z</time></trkpt>
<trkpt lat="46.469067167490721" lon="6.393251800909638"><ele></ele><time>2015-2-2T21:44:29Z</time></trkpt>
<trkpt lat="46.468926602974534" lon="6.392519222572446"><ele></ele><time>2015-2-2T21:44:32Z</time></trkpt>
<trkpt lat="46.468787295743823" lon="6.391800893470645"><ele></ele><time>2015-2-2T21:44:35Z</time></trkpt>
<trkpt lat="46.468648826703429" lon="6.391107542440295"><ele></ele><time>2015-2-2T21:44:38Z</time></trkpt>
<trkpt lat="46.468518655747175" lon="6.390437493100762"><ele></ele><time>2015-2-2T21:44:41Z</time></trkpt>
<trkpt lat="46.468386305496097" lon="6.389766940847039"><ele></ele><time>2015-2-2T21:44:44Z</time></trkpt>
<trkpt lat="46.468263007700443" lon="6.389093957841396"><ele></ele><time>2015-2-2T21:44:47Z</time></trkpt>
<trkpt lat="46.468129148706794" lon="6.388425333425403"><ele></ele><time>2015-2-2T21:44:50Z</time></trkpt>
<trkpt lat="46.467999061569571" lon="6.387769700959325"><ele></ele><time>2015-2-2T21:44:53Z</time></trkpt>
<trkpt lat="46.467875177040696" lon="6.387135609984398"><ele></ele><time>2015-2-2T21:44:56Z</time></trkpt>
<trkpt lat="46.467748610302806" lon="6.386498585343361"><ele></ele><time>2015-2-2T21:44:59Z</time></trkpt>
<trkpt lat="46.467602178454399" lon="6.385755445808172"><ele></ele><time>2015-2-2T21:45:2Z</time></trkpt>
<trkpt lat="46.467458764091134" lon="6.385037954896689"><ele></ele><time>2015-2-2T21:45:5Z</time></trkpt>
<trkpt lat="46.467320965602994" lon="6.384342843666673"><ele></ele><time>2015-2-2T21:45:8Z</time></trkpt>
<trkpt lat="46.467184675857425" lon="6.383651001378894"><ele></ele><time>2015-2-2T21:45:11Z</time></trkpt>
<trkpt lat="46.4670529961586" lon="6.382955219596624"><ele></ele><time>2015-2-2T21:45:14Z</time></trkpt>
<trkpt lat="46.466907905414701" lon="6.382258012890816"><ele></ele><time>2015-2-2T21:45:17Z</time></trkpt>
<trkpt lat="46.466767089441419" lon="6.381548149511218"><ele></ele><time>2015-2-2T21:45:20Z</time></trkpt>
<trkpt lat="46.466635325923562" lon="6.380861671641469"><ele></ele><time>2015-2-2T21:45:23Z</time></trkpt>
<trkpt lat="46.466510100290179" lon="6.380196819081903"><ele></ele><time>2015-2-2T21:45:26Z</time></trkpt>
<trkpt lat="46.46642753854394" lon="6.379536828026176"><ele></ele><time>2015-2-2T21:45:29Z</time></trkpt>
<trkpt lat="46.466358723118901" lon="6.378878932446241"><ele></ele><time>2015-2-2T21:45:32Z</time></trkpt>
<trkpt lat="46.466280184686184" lon="6.37814006768167"><ele></ele><time>2015-2-2T21:45:35Z</time></trkpt>
<trkpt lat="46.466205921024084" lon="6.377443196251988"><ele></ele><time>2015-2-2T21:45:38Z</time></trkpt>
<trkpt lat="46.466136015951633" lon="6.376723358407617"><ele></ele><time>2015-2-2T21:45:41Z</time></trkpt>
<trkpt lat="46.466064685955644" lon="6.376077113673091"><ele></ele><time>2015-2-2T21:45:44Z</time></trkpt>
<trkpt lat="46.46600098349154" lon="6.375418798997998"><ele></ele><time>2015-2-2T21:45:47Z</time></trkpt>
<trkpt lat="46.465929737314582" lon="6.374694518744946"><ele></ele><time>2015-2-2T21:45:50Z</time></trkpt>
<trkpt lat="46.465859664604068" lon="6.374049112200737"><ele></ele><time>2015-2-2T21:45:53Z</time></trkpt>
<trkpt lat="46.46579135209322" lon="6.373386271297932"><ele></ele><time>2015-2-2T21:45:56Z</time></trkpt>
<trkpt lat="46.465719016268849" lon="6.37273533269763"><ele></ele><time>2015-2-2T21:45:59Z</time></trkpt>
<trkpt lat="46.465602172538638" lon="6.372068636119366"><ele></ele><time>2015-2-2T21:46:2Z</time></trkpt>
<trkpt lat="46.465470995754004" lon="6.371391965076327"><ele></ele><time>2015-2-2T21:46:5Z</time></trkpt>
<trkpt lat="46.465346021577716" lon="6.370759131386876"><ele></ele><time>2015-2-2T21:46:8Z</time></trkpt>
<trkpt lat="46.46523043513298" lon="6.370127135887742"><ele></ele><time>2015-2-2T21:46:11Z</time></trkpt>
<trkpt lat="46.465093977749348" lon="6.369414506480098"><ele></ele><time>2015-2-2T21:46:14Z</time></trkpt>
<trkpt lat="46.464956514537334" lon="6.368703469634056"><ele></ele><time>2015-2-2T21:46:17Z</time></trkpt>
<trkpt lat="46.464822823181748" lon="6.367967454716563"><ele></ele><time>2015-2-2T21:46:20Z</time></trkpt>
<trkpt lat="46.464696172624826" lon="6.36731743812561"><ele></ele><time>2015-2-2T21:46:23Z</time></trkpt>
<trkpt lat="46.464568851515651" lon="6.366658033803105"><ele></ele><time>2015-2-2T21:46:26Z</time></trkpt>
<trkpt lat="46.464444547891617" lon="6.365998210385442"><ele></ele><time>2015-2-2T21:46:29Z</time></trkpt>
<trkpt lat="46.464300462976098" lon="6.365273091942072"><ele></ele><time>2015-2-2T21:46:32Z</time></trkpt>
<trkpt lat="46.464166771620512" lon="6.364549901336432"><ele></ele><time>2015-2-2T21:46:35Z</time></trkpt>
<trkpt lat="46.464066943153739" lon="6.363913379609585"><ele></ele><time>2015-2-2T21:46:38Z</time></trkpt>
<trkpt lat="46.463985051959753" lon="6.363163702189922"><ele></ele><time>2015-2-2T21:46:41Z</time></trkpt>
<trkpt lat="46.463930234313011" lon="6.36241109110415"><ele></ele><time>2015-2-2T21:46:44Z</time></trkpt>
<trkpt lat="46.463877176865935" lon="6.361715141683817"><ele></ele><time>2015-2-2T21:46:47Z</time></trkpt>
<trkpt lat="46.463826969265938" lon="6.361026735976338"><ele></ele><time>2015-2-2T21:46:50Z</time></trkpt>
<trkpt lat="46.463771816343069" lon="6.360329864546657"><ele></ele><time>2015-2-2T21:46:53Z</time></trkpt>
<trkpt lat="46.46372253075242" lon="6.359649421647191"><ele></ele><time>2015-2-2T21:46:56Z</time></trkpt>
<trkpt lat="46.463671904057264" lon="6.358984988182783"><ele></ele><time>2015-2-2T21:46:59Z</time></trkpt>
<trkpt lat="46.463621193543077" lon="6.358279818668962"><ele></ele><time>2015-2-2T21:47:2Z</time></trkpt>
<trkpt lat="46.463573416694999" lon="6.357626700773835"><ele></ele><time>2015-2-2T21:47:5Z</time></trkpt>
<trkpt lat="46.463525136932731" lon="6.356951706111431"><ele></ele><time>2015-2-2T21:47:8Z</time></trkpt>
<trkpt lat="46.463477946817875" lon="6.356255086138845"><ele></ele><time>2015-2-2T21:47:11Z</time></trkpt>
<trkpt lat="46.463420614600182" lon="6.355543462559581"><ele></ele><time>2015-2-2T21:47:14Z</time></trkpt>
<trkpt lat="46.463369065895677" lon="6.35481440462172"><ele></ele><time>2015-2-2T21:47:17Z</time></trkpt>
<trkpt lat="46.463315924629569" lon="6.35413127951324"><ele></ele><time>2015-2-2T21:47:20Z</time></trkpt>
<trkpt lat="46.463261945173144" lon="6.353424685075879"><ele></ele><time>2015-2-2T21:47:23Z</time></trkpt>
<trkpt lat="46.463211569935083" lon="6.352736363187432"><ele></ele><time>2015-2-2T21:47:26Z</time></trkpt>
<trkpt lat="46.463198577985168" lon="6.352065810933709"><ele></ele><time>2015-2-2T21:47:29Z</time></trkpt>
<trkpt lat="46.463120877742767" lon="6.35137589648366"><ele></ele><time>2015-2-2T21:47:32Z</time></trkpt>
<trkpt lat="46.463072262704372" lon="6.350697632879019"><ele></ele><time>2015-2-2T21:47:35Z</time></trkpt>
<trkpt lat="46.463012583553791" lon="6.349976034834981"><ele></ele><time>2015-2-2T21:47:38Z</time></trkpt>
<trkpt lat="46.462968662381172" lon="6.349318642169237"><ele></ele><time>2015-2-2T21:47:41Z</time></trkpt>
<trkpt lat="46.462929854169488" lon="6.348651442676783"><ele></ele><time>2015-2-2T21:47:44Z</time></trkpt>
<trkpt lat="46.462875790894032" lon="6.347964378073812"><ele></ele><time>2015-2-2T21:47:47Z</time></trkpt>
<trkpt lat="46.462803455069661" lon="6.347280582413077"><ele></ele><time>2015-2-2T21:47:50Z</time></trkpt>
<trkpt lat="46.462743943557143" lon="6.346586979925633"><ele></ele><time>2015-2-2T21:47:53Z</time></trkpt>
<trkpt lat="46.462689796462655" lon="6.345887761563063"><ele></ele><time>2015-2-2T21:47:56Z</time></trkpt>
<trkpt lat="46.462638415396214" lon="6.345188962295651"><ele></ele><time>2015-2-2T21:47:59Z</time></trkpt>
<trkpt lat="46.462579322978854" lon="6.344512039795518"><ele></ele><time>2015-2-2T21:48:2Z</time></trkpt>
<trkpt lat="46.462483014911413" lon="6.343871243298054"><ele></ele><time>2015-2-2T21:48:5Z</time></trkpt>
<trkpt lat="46.462176656350493" lon="6.343297502025962"><ele></ele><time>2015-2-2T21:48:8Z</time></trkpt>
<trkpt lat="46.461815815418959" lon="6.342888297513127"><ele></ele><time>2015-2-2T21:48:11Z</time></trkpt>
<trkpt lat="46.461437540128827" lon="6.342446487396956"><ele></ele><time>2015-2-2T21:48:14Z</time></trkpt>
<trkpt lat="46.461034370586276" lon="6.342012220993638"><ele></ele><time>2015-2-2T21:48:17Z</time></trkpt>
<trkpt lat="46.460640588775277" lon="6.341558424755931"><ele></ele><time>2015-2-2T21:48:20Z</time></trkpt>
<trkpt lat="46.460292404517531" lon="6.34113036096096"><ele></ele><time>2015-2-2T21:48:23Z</time></trkpt>
<trkpt lat="46.459912620484829" lon="6.340649239718914"><ele></ele><time>2015-2-2T21:48:26Z</time></trkpt>
<trkpt lat="46.459531914442778" lon="6.340269790962338"><ele></ele><time>2015-2-2T21:48:29Z</time></trkpt>
<trkpt lat="46.459182808175683" lon="6.339848348870874"><ele></ele><time>2015-2-2T21:48:32Z</time></trkpt>
<trkpt lat="46.45882842130959" lon="6.339427577331662"><ele></ele><time>2015-2-2T21:48:35Z</time></trkpt>
<trkpt lat="46.458485433831811" lon="6.339004877954722"><ele></ele><time>2015-2-2T21:48:38Z</time></trkpt>
<trkpt lat="46.458101710304618" lon="6.338546639308333"><ele></ele><time>2015-2-2T21:48:41Z</time></trkpt>
<trkpt lat="46.457741037011147" lon="6.338145146146417"><ele></ele><time>2015-2-2T21:48:44Z</time></trkpt>
<trkpt lat="46.457372987642884" lon="6.337707862257958"><ele></ele><time>2015-2-2T21:48:47Z</time></trkpt>
<trkpt lat="46.456996472552419" lon="6.337279379367828"><ele></ele><time>2015-2-2T21:48:50Z</time></trkpt>
<trkpt lat="46.456602020189166" lon="6.336852824315429"><ele></ele><time>2015-2-2T21:48:53Z</time></trkpt>
<trkpt lat="46.456212596967816" lon="6.336479159072042"><ele></ele><time>2015-2-2T21:48:56Z</time></trkpt>
<trkpt lat="46.455773720517755" lon="6.336132902652025"><ele></ele><time>2015-2-2T21:48:59Z</time></trkpt>
<trkpt lat="46.455344147980213" lon="6.335872560739517"><ele></ele><time>2015-2-2T21:49:2Z</time></trkpt>
<trkpt lat="46.454915245994925" lon="6.335611045360565"><ele></ele><time>2015-2-2T21:49:5Z</time></trkpt>
<trkpt lat="46.45449087023735" lon="6.335336621850729"><ele></ele><time>2015-2-2T21:49:8Z</time></trkpt>
<trkpt lat="46.454058280214667" lon="6.335029928013682"><ele></ele><time>2015-2-2T21:49:11Z</time></trkpt>
<trkpt lat="46.453609010204673" lon="6.334711667150259"><ele></ele><time>2015-2-2T21:49:14Z</time></trkpt>
<trkpt lat="46.453162170946598" lon="6.334393322467804"><ele></ele><time>2015-2-2T21:49:17Z</time></trkpt>
<trkpt lat="46.452790601179004" lon="6.333990236744285"><ele></ele><time>2015-2-2T21:49:20Z</time></trkpt>
<trkpt lat="46.452474100515246" lon="6.333472402766347"><ele></ele><time>2015-2-2T21:49:23Z</time></trkpt>
<trkpt lat="46.452173860743642" lon="6.332953982055187"><ele></ele><time>2015-2-2T21:49:26Z</time></trkpt>
<trkpt lat="46.451873620972037" lon="6.332424078136683"><ele></ele><time>2015-2-2T21:49:29Z</time></trkpt>
<trkpt lat="46.451541781425476" lon="6.331867435947061"><ele></ele><time>2015-2-2T21:49:32Z</time></trkpt>
<trkpt lat="46.451237769797444" lon="6.331339040771127"><ele></ele><time>2015-2-2T21:49:35Z</time></trkpt>
<trkpt lat="46.450910959392786" lon="6.330798910930753"><ele></ele><time>2015-2-2T21:49:38Z</time></trkpt>
<trkpt lat="46.450568055734038" lon="6.33022609166801"><ele></ele><time>2015-2-2T21:49:41Z</time></trkpt>
<trkpt lat="46.450271420180798" lon="6.329717058688402"><ele></ele><time>2015-2-2T21:49:44Z</time></trkpt>
<trkpt lat="46.449933964759111" lon="6.329143233597279"><ele></ele><time>2015-2-2T21:49:47Z</time></trkpt>
<trkpt lat="46.44961578771472" lon="6.3285843282938"><ele></ele><time>2015-2-2T21:49:50Z</time></trkpt>
<trkpt lat="46.449300209060311" lon="6.328041097149253"><ele></ele><time>2015-2-2T21:49:53Z</time></trkpt>
<trkpt lat="46.448990665376186" lon="6.327518653124571"><ele></ele><time>2015-2-2T21:49:56Z</time></trkpt>
<trkpt lat="46.448683217167854" lon="6.327009284868836"><ele></ele><time>2015-2-2T21:49:59Z</time></trkpt>
<trkpt lat="46.448376607149839" lon="6.326491786167026"><ele></ele><time>2015-2-2T21:50:2Z</time></trkpt>
<trkpt lat="46.448045521974564" lon="6.325927767902613"><ele></ele><time>2015-2-2T21:50:5Z</time></trkpt>
<trkpt lat="46.447724243625998" lon="6.325398869812489"><ele></ele><time>2015-2-2T21:50:8Z</time></trkpt>
<trkpt lat="46.447381591424346" lon="6.324817165732384"><ele></ele><time>2015-2-2T21:50:11Z</time></trkpt>
<trkpt lat="46.447088057175279" lon="6.324320286512375"><ele></ele><time>2015-2-2T21:50:14Z</time></trkpt>
<trkpt lat="46.446747919544578" lon="6.323731206357479"><ele></ele><time>2015-2-2T21:50:17Z</time></trkpt>
<trkpt lat="46.44642504863441" lon="6.323179258033633"><ele></ele><time>2015-2-2T21:50:20Z</time></trkpt>
<trkpt lat="46.446085833013058" lon="6.322607193142176"><ele></ele><time>2015-2-2T21:50:23Z</time></trkpt>
<trkpt lat="46.445780815556645" lon="6.322075864300132"><ele></ele><time>2015-2-2T21:50:26Z</time></trkpt>
<trkpt lat="46.445455346256495" lon="6.321525257080793"><ele></ele><time>2015-2-2T21:50:29Z</time></trkpt>
<trkpt lat="46.445116549730301" lon="6.320948414504528"><ele></ele><time>2015-2-2T21:50:32Z</time></trkpt>
<trkpt lat="46.444811280816793" lon="6.320452792569995"><ele></ele><time>2015-2-2T21:50:35Z</time></trkpt>
<trkpt lat="46.444479692727327" lon="6.319889863952994"><ele></ele><time>2015-2-2T21:50:38Z</time></trkpt>
<trkpt lat="46.444163946434855" lon="6.319347806274891"><ele></ele><time>2015-2-2T21:50:41Z</time></trkpt>
<trkpt lat="46.443856079131365" lon="6.318843215703964"><ele></ele><time>2015-2-2T21:50:44Z</time></trkpt>
<trkpt lat="46.443538572639227" lon="6.318367039784789"><ele></ele><time>2015-2-2T21:50:47Z</time></trkpt>
<trkpt lat="46.443171193823218" lon="6.317869573831558"><ele></ele><time>2015-2-2T21:50:50Z</time></trkpt>
<trkpt lat="46.442800546064973" lon="6.317386608570814"><ele></ele><time>2015-2-2T21:50:53Z</time></trkpt>
<trkpt lat="46.442453786730766" lon="6.316942116245627"><ele></ele><time>2015-2-2T21:50:56Z</time></trkpt>
<trkpt lat="46.442081965506077" lon="6.316456636413932"><ele></ele><time>2015-2-2T21:50:59Z</time></trkpt>
<trkpt lat="46.44171517342329" lon="6.315981633961201"><ele></ele><time>2015-2-2T21:51:2Z</time></trkpt>
<trkpt lat="46.441360451281071" lon="6.315512666478753"><ele></ele><time>2015-2-2T21:51:5Z</time></trkpt>
<trkpt lat="46.440996089950204" lon="6.315041016787291"><ele></ele><time>2015-2-2T21:51:8Z</time></trkpt>
<trkpt lat="46.440629633143544" lon="6.314580934122205"><ele></ele><time>2015-2-2T21:51:11Z</time></trkpt>
<trkpt lat="46.440273318439722" lon="6.31409989669919"><ele></ele><time>2015-2-2T21:51:14Z</time></trkpt>
<trkpt lat="46.439919266849756" lon="6.313640400767326"><ele></ele><time>2015-2-2T21:51:17Z</time></trkpt>
<trkpt lat="46.439548451453447" lon="6.313145952299237"><ele></ele><time>2015-2-2T21:51:20Z</time></trkpt>
<trkpt lat="46.43921485170722" lon="6.312708500772715"><ele></ele><time>2015-2-2T21:51:23Z</time></trkpt>
<trkpt lat="46.438837749883533" lon="6.312234252691269"><ele></ele><time>2015-2-2T21:51:26Z</time></trkpt>
<trkpt lat="46.438496857881546" lon="6.311785904690623"><ele></ele><time>2015-2-2T21:51:29Z</time></trkpt>
<trkpt lat="46.438135514035821" lon="6.31132154725492"><ele></ele><time>2015-2-2T21:51:32Z</time></trkpt>
<trkpt lat="46.43777534365654" lon="6.310843443498015"><ele></ele><time>2015-2-2T21:51:35Z</time></trkpt>
<trkpt lat="46.437416179105639" lon="6.310374978929758"><ele></ele><time>2015-2-2T21:51:38Z</time></trkpt>
<trkpt lat="46.437049973756075" lon="6.309903748333454"><ele></ele><time>2015-2-2T21:51:41Z</time></trkpt>
<trkpt lat="46.43668670207262" lon="6.309427823871374"><ele></ele><time>2015-2-2T21:51:44Z</time></trkpt>
<trkpt lat="46.436310354620218" lon="6.308943014591932"><ele></ele><time>2015-2-2T21:51:47Z</time></trkpt>
<trkpt lat="46.43595814704895" lon="6.308482177555561"><ele></ele><time>2015-2-2T21:51:50Z</time></trkpt>
<trkpt lat="46.435584230348468" lon="6.307991500943899"><ele></ele><time>2015-2-2T21:51:53Z</time></trkpt>
<trkpt lat="46.435197573155165" lon="6.30748875439167"><ele></ele><time>2015-2-2T21:51:56Z</time></trkpt>
<trkpt lat="46.434856681153178" lon="6.307046860456467"><ele></ele><time>2015-2-2T21:51:59Z</time></trkpt>
<trkpt lat="46.434464240446687" lon="6.306543024256825"><ele></ele><time>2015-2-2T21:52:2Z</time></trkpt>
<trkpt lat="46.434092419221997" lon="6.306052096188068"><ele></ele><time>2015-2-2T21:52:5Z</time></trkpt>
<trkpt lat="46.433724369853735" lon="6.305577680468559"><ele></ele><time>2015-2-2T21:52:8Z</time></trkpt>
<trkpt lat="46.43336939625442" lon="6.305117346346378"><ele></ele><time>2015-2-2T21:52:11Z</time></trkpt>
<trkpt lat="46.433008555322886" lon="6.304653408005834"><ele></ele><time>2015-2-2T21:52:14Z</time></trkpt>
<trkpt lat="46.432642601430416" lon="6.304178405553103"><ele></ele><time>2015-2-2T21:52:17Z</time></trkpt>
<trkpt lat="46.432276563718915" lon="6.303705917671323"><ele></ele><time>2015-2-2T21:52:20Z</time></trkpt>
<trkpt lat="46.431920500472188" lon="6.303250109776855"><ele></ele><time>2015-2-2T21:52:23Z</time></trkpt>
<trkpt lat="46.431548679247499" lon="6.302758846431971"><ele></ele><time>2015-2-2T21:52:26Z</time></trkpt>
<trkpt lat="46.431183898821473" lon="6.302287867292762"><ele></ele><time>2015-2-2T21:52:29Z</time></trkpt>
<trkpt lat="46.430831272155046" lon="6.301838178187609"><ele></ele><time>2015-2-2T21:52:32Z</time></trkpt>
<trkpt lat="46.430468168109655" lon="6.301366528496146"><ele></ele><time>2015-2-2T21:52:35Z</time></trkpt>
<trkpt lat="46.4300980232656" lon="6.300910720601678"><ele></ele><time>2015-2-2T21:52:38Z</time></trkpt>
<trkpt lat="46.429729051887989" lon="6.300443345680833"><ele></ele><time>2015-2-2T21:52:41Z</time></trkpt>
<trkpt lat="46.429370893165469" lon="6.299987286329269"><ele></ele><time>2015-2-2T21:52:44Z</time></trkpt>
<trkpt lat="46.429019942879677" lon="6.299525359645486"><ele></ele><time>2015-2-2T21:52:47Z</time></trkpt>
<trkpt lat="46.428647032007575" lon="6.299039041623473"><ele></ele><time>2015-2-2T21:52:50Z</time></trkpt>
<trkpt lat="46.428300943225622" lon="6.29858884960413"><ele></ele><time>2015-2-2T21:52:53Z</time></trkpt>
<trkpt lat="46.42795929685235" lon="6.298059448599815"><ele></ele><time>2015-2-2T21:52:56Z</time></trkpt>
<trkpt lat="46.427678586915135" lon="6.29749626852572"><ele></ele><time>2015-2-2T21:52:59Z</time></trkpt>
<trkpt lat="46.427445067092776" lon="6.29693535156548"><ele></ele><time>2015-2-2T21:53:2Z</time></trkpt>
<trkpt lat="46.427194867283106" lon="6.296333950012922"><ele></ele><time>2015-2-2T21:53:5Z</time></trkpt>
<trkpt lat="46.426882306113839" lon="6.295572202652693"><ele></ele><time>2015-2-2T21:53:8Z</time></trkpt>
<trkpt lat="46.426623137667775" lon="6.294923527166247"><ele></ele><time>2015-2-2T21:53:11Z</time></trkpt>
<trkpt lat="46.426392300054431" lon="6.29434953443706"><ele></ele><time>2015-2-2T21:53:14Z</time></trkpt>
<trkpt lat="46.426139418035746" lon="6.293724747374654"><ele></ele><time>2015-2-2T21:53:17Z</time></trkpt>
<trkpt lat="46.425899025052786" lon="6.293146647512913"><ele></ele><time>2015-2-2T21:53:20Z</time></trkpt>
<trkpt lat="46.425624936819077" lon="6.292558070272207"><ele></ele><time>2015-2-2T21:53:23Z</time></trkpt>
<trkpt lat="46.425331486389041" lon="6.292019449174404"><ele></ele><time>2015-2-2T21:53:26Z</time></trkpt>
<trkpt lat="46.425017500296235" lon="6.291514942422509"><ele></ele><time>2015-2-2T21:53:29Z</time></trkpt>
<trkpt lat="46.42467275261879" lon="6.290969364345074"><ele></ele><time>2015-2-2T21:53:32Z</time></trkpt>
<trkpt lat="46.42433705739677" lon="6.290433760732412"><ele></ele><time>2015-2-2T21:53:35Z</time></trkpt>
<trkpt lat="46.424012091010809" lon="6.289938725531101"><ele></ele><time>2015-2-2T21:53:38Z</time></trkpt>
<trkpt lat="46.423677066341043" lon="6.289407312870026"><ele></ele><time>2015-2-2T21:53:41Z</time></trkpt>
<trkpt lat="46.4233373478055" lon="6.288878247141838"><ele></ele><time>2015-2-2T21:53:44Z</time></trkpt>
<trkpt lat="46.423003748059273" lon="6.288343062624335"><ele></ele><time>2015-2-2T21:53:47Z</time></trkpt>
<trkpt lat="46.422653887420893" lon="6.287793125957251"><ele></ele><time>2015-2-2T21:53:50Z</time></trkpt>
<trkpt lat="46.422306625172496" lon="6.287281159311533"><ele></ele><time>2015-2-2T21:53:53Z</time></trkpt>
<trkpt lat="46.421974534168839" lon="6.286830129101872"><ele></ele><time>2015-2-2T21:53:56Z</time></trkpt>
<trkpt lat="46.421610172837973" lon="6.286409441381693"><ele></ele><time>2015-2-2T21:53:59Z</time></trkpt>
<trkpt lat="46.421245560050011" lon="6.285986490547657"><ele></ele><time>2015-2-2T21:54:2Z</time></trkpt>
<trkpt lat="46.420895447954535" lon="6.285574352368712"><ele></ele><time>2015-2-2T21:54:5Z</time></trkpt>
<trkpt lat="46.420540306717157" lon="6.28513346426189"><ele></ele><time>2015-2-2T21:54:8Z</time></trkpt>
<trkpt lat="46.420172341167927" lon="6.284664748236537"><ele></ele><time>2015-2-2T21:54:11Z</time></trkpt>
<trkpt lat="46.41989691182971" lon="6.284246742725372"><ele></ele><time>2015-2-2T21:54:14Z</time></trkpt>
<trkpt lat="46.419493407011032" lon="6.283859834074974"><ele></ele><time>2015-2-2T21:54:17Z</time></trkpt>
<trkpt lat="46.419106246903539" lon="6.2834164313972"><ele></ele><time>2015-2-2T21:54:20Z</time></trkpt>
<trkpt lat="46.418748758733273" lon="6.283001275733113"><ele></ele><time>2015-2-2T21:54:23Z</time></trkpt>
<trkpt lat="46.418367046862841" lon="6.282568434253335"><ele></ele><time>2015-2-2T21:54:26Z</time></trkpt>
<trkpt lat="46.417988268658519" lon="6.282124780118465"><ele></ele><time>2015-2-2T21:54:29Z</time></trkpt>
<trkpt lat="46.417610328644514" lon="6.281683724373579"><ele></ele><time>2015-2-2T21:54:32Z</time></trkpt>
<trkpt lat="46.417229538783431" lon="6.281239483505487"><ele></ele><time>2015-2-2T21:54:35Z</time></trkpt>
<trkpt lat="46.416861489415169" lon="6.280777221545577"><ele></ele><time>2015-2-2T21:54:38Z</time></trkpt>
<trkpt lat="46.416505593806505" lon="6.280362904071808"><ele></ele><time>2015-2-2T21:54:41Z</time></trkpt>
<trkpt lat="46.416115835309029" lon="6.279907934367657"><ele></ele><time>2015-2-2T21:54:44Z</time></trkpt>
<trkpt lat="46.415736889466643" lon="6.279529575258493"><ele></ele><time>2015-2-2T21:54:47Z</time></trkpt>
<trkpt lat="46.415381161496043" lon="6.279129674658179"><ele></ele><time>2015-2-2T21:54:50Z</time></trkpt>
<trkpt lat="46.415036246180534" lon="6.278701778501272"><ele></ele><time>2015-2-2T21:54:53Z</time></trkpt>
<trkpt lat="46.414674231782556" lon="6.278269188478589"><ele></ele><time>2015-2-2T21:54:56Z</time></trkpt>
<trkpt lat="46.414313474670053" lon="6.277856882661581"><ele></ele><time>2015-2-2T21:54:59Z</time></trkpt>
<trkpt lat="46.413957243785262" lon="6.277410043403506"><ele></ele><time>2015-2-2T21:55:2Z</time></trkpt>
<trkpt lat="46.413612579926848" lon="6.276924144476652"><ele></ele><time>2015-2-2T21:55:5Z</time></trkpt>
<trkpt lat="46.413252158090472" lon="6.276467833667994"><ele></ele><time>2015-2-2T21:55:8Z</time></trkpt>
<trkpt lat="46.41284747980535" lon="6.276052426546812"><ele></ele><time>2015-2-2T21:55:11Z</time></trkpt>
<trkpt lat="46.412491332739592" lon="6.275638779625297"><ele></ele><time>2015-2-2T21:55:14Z</time></trkpt>
<trkpt lat="46.41207248903811" lon="6.275223288685083"><ele></ele><time>2015-2-2T21:55:17Z</time></trkpt>
<trkpt lat="46.411684071645141" lon="6.274850210174918"><ele></ele><time>2015-2-2T21:55:20Z</time></trkpt>
<trkpt lat="46.41131853684783" lon="6.274444945156574"><ele></ele><time>2015-2-2T21:55:23Z</time></trkpt>
<trkpt lat="46.410959959030151" lon="6.274005984887481"><ele></ele><time>2015-2-2T21:55:26Z</time></trkpt>
<trkpt lat="46.410602973774076" lon="6.273574400693178"><ele></ele><time>2015-2-2T21:55:29Z</time></trkpt>
<trkpt lat="46.410243138670921" lon="6.273157987743616"><ele></ele><time>2015-2-2T21:55:32Z</time></trkpt>
<trkpt lat="46.40987760387361" lon="6.272757668048143"><ele></ele><time>2015-2-2T21:55:35Z</time></trkpt>
<trkpt lat="46.409506285563111" lon="6.272345613688231"><ele></ele><time>2015-2-2T21:55:38Z</time></trkpt>
<trkpt lat="46.409119963645935" lon="6.271900702267885"><ele></ele><time>2015-2-2T21:55:41Z</time></trkpt>
<trkpt lat="46.408728025853634" lon="6.271446235477924"><ele></ele><time>2015-2-2T21:55:44Z</time></trkpt>
<trkpt lat="46.408364670351148" lon="6.271035019308329"><ele></ele><time>2015-2-2T21:55:47Z</time></trkpt>
<trkpt lat="46.407977091148496" lon="6.270579798147082"><ele></ele><time>2015-2-2T21:55:50Z</time></trkpt>
<trkpt lat="46.407592026516795" lon="6.270139748230577"><ele></ele><time>2015-2-2T21:55:53Z</time></trkpt>
<trkpt lat="46.407225234434009" lon="6.269709086045623"><ele></ele><time>2015-2-2T21:55:56Z</time></trkpt>
<trkpt lat="46.406822064891458" lon="6.269227126613259"><ele></ele><time>2015-2-2T21:55:59Z</time></trkpt>
<trkpt lat="46.406350415199995" lon="6.26885186880827"><ele></ele><time>2015-2-2T21:56:2Z</time></trkpt>
<trkpt lat="46.405892176553607" lon="6.268618516623974"><ele></ele><time>2015-2-2T21:56:5Z</time></trkpt>
<trkpt lat="46.405405942350626" lon="6.268440401181579"><ele></ele><time>2015-2-2T21:56:8Z</time></trkpt>
<trkpt lat="46.404959857463837" lon="6.268285252153873"><ele></ele><time>2015-2-2T21:56:11Z</time></trkpt>
<trkpt lat="46.404488375410438" lon="6.268066149204969"><ele></ele><time>2015-2-2T21:56:14Z</time></trkpt>
<trkpt lat="46.404045475646853" lon="6.267794324085116"><ele></ele><time>2015-2-2T21:56:17Z</time></trkpt>
<trkpt lat="46.403634510934353" lon="6.267459886148572"><ele></ele><time>2015-2-2T21:56:20Z</time></trkpt>
<trkpt lat="46.403253888711333" lon="6.267052860930562"><ele></ele><time>2015-2-2T21:56:23Z</time></trkpt>
<trkpt lat="46.40288625843823" lon="6.266600405797362"><ele></ele><time>2015-2-2T21:56:26Z</time></trkpt>
<trkpt lat="46.402522148564458" lon="6.266130432486534"><ele></ele><time>2015-2-2T21:56:29Z</time></trkpt>
<trkpt lat="46.402169438079" lon="6.265682587400079"><ele></ele><time>2015-2-2T21:56:32Z</time></trkpt>
<trkpt lat="46.401815302670002" lon="6.265246644616127"><ele></ele><time>2015-2-2T21:56:35Z</time></trkpt>
<trkpt lat="46.401466112583876" lon="6.264803661033511"><ele></ele><time>2015-2-2T21:56:38Z</time></trkpt>
<trkpt lat="46.401105523109436" lon="6.264340896159411"><ele></ele><time>2015-2-2T21:56:41Z</time></trkpt>
<trkpt lat="46.400728672742844" lon="6.263871258124709"><ele></ele><time>2015-2-2T21:56:44Z</time></trkpt>
<trkpt lat="46.400345200672746" lon="6.263385945931077"><ele></ele><time>2015-2-2T21:56:47Z</time></trkpt>
<trkpt lat="46.39998871833086" lon="6.262931898236275"><ele></ele><time>2015-2-2T21:56:50Z</time></trkpt>
<trkpt lat="46.399630475789309" lon="6.262486567720771"><ele></ele><time>2015-2-2T21:56:53Z</time></trkpt>
<trkpt lat="46.399272987619042" lon="6.262010475620627"><ele></ele><time>2015-2-2T21:56:56Z</time></trkpt>
<trkpt lat="46.398909967392683" lon="6.261541675776243"><ele></ele><time>2015-2-2T21:56:59Z</time></trkpt>
<trkpt lat="46.398543762043118" lon="6.261090310290456"><ele></ele><time>2015-2-2T21:57:2Z</time></trkpt>
<trkpt lat="46.398184346035123" lon="6.260632909834385"><ele></ele><time>2015-2-2T21:57:5Z</time></trkpt>
<trkpt lat="46.397806657478213" lon="6.260164193809032"><ele></ele><time>2015-2-2T21:57:8Z</time></trkpt>
<trkpt lat="46.397464089095592" lon="6.259725149720907"><ele></ele><time>2015-2-2T21:57:11Z</time></trkpt>
<trkpt lat="46.397068714722991" lon="6.25922542065382"><ele></ele><time>2015-2-2T21:57:14Z</time></trkpt>
<trkpt lat="46.396716758608818" lon="6.258780090138316"><ele></ele><time>2015-2-2T21:57:17Z</time></trkpt>
<trkpt lat="46.396317360922694" lon="6.258274829015136"><ele></ele><time>2015-2-2T21:57:20Z</time></trkpt>
<trkpt lat="46.395921902731061" lon="6.257784739136696"><ele></ele><time>2015-2-2T21:57:23Z</time></trkpt>
<trkpt lat="46.395549830049276" lon="6.257308311760426"><ele></ele><time>2015-2-2T21:57:26Z</time></trkpt>
<trkpt lat="46.395152611657977" lon="6.256818640977144"><ele></ele><time>2015-2-2T21:57:29Z</time></trkpt>
<trkpt lat="46.394807025790215" lon="6.256379680708051"><ele></ele><time>2015-2-2T21:57:32Z</time></trkpt>
<trkpt lat="46.394416261464357" lon="6.255883052945137"><ele></ele><time>2015-2-2T21:57:35Z</time></trkpt>
<trkpt lat="46.394020216539502" lon="6.255401847884059"><ele></ele><time>2015-2-2T21:57:38Z</time></trkpt>
<trkpt lat="46.393641773611307" lon="6.254921397194266"><ele></ele><time>2015-2-2T21:57:41Z</time></trkpt>
<trkpt lat="46.393269533291459" lon="6.254441533237696"><ele></ele><time>2015-2-2T21:57:44Z</time></trkpt>
<trkpt lat="46.392890335991979" lon="6.253953203558922"><ele></ele><time>2015-2-2T21:57:47Z</time></trkpt>
<trkpt lat="46.392498398199677" lon="6.253492450341582"><ele></ele><time>2015-2-2T21:57:50Z</time></trkpt>
<trkpt lat="46.392141999676824" lon="6.253047455102205"><ele></ele><time>2015-2-2T21:57:53Z</time></trkpt>
<trkpt lat="46.391753330826759" lon="6.252572368830442"><ele></ele><time>2015-2-2T21:57:56Z</time></trkpt>
<trkpt lat="46.39139274135232" lon="6.252114968374372"><ele></ele><time>2015-2-2T21:57:59Z</time></trkpt>
<trkpt lat="46.391047155484557" lon="6.251698890700936"><ele></ele><time>2015-2-2T21:58:2Z</time></trkpt>
<trkpt lat="46.390667958185077" lon="6.251224894076586"><ele></ele><time>2015-2-2T21:58:5Z</time></trkpt>
<trkpt lat="46.39032362960279" lon="6.25079020857811"><ele></ele><time>2015-2-2T21:58:8Z</time></trkpt>
<trkpt lat="46.389966392889619" lon="6.250351080670953"><ele></ele><time>2015-2-2T21:58:11Z</time></trkpt>
<trkpt lat="46.389614772051573" lon="6.249896781519055"><ele></ele><time>2015-2-2T21:58:14Z</time></trkpt>
<trkpt lat="46.389258038252592" lon="6.249459078535438"><ele></ele><time>2015-2-2T21:58:17Z</time></trkpt>
<trkpt lat="46.388903735205531" lon="6.249019531533122"><ele></ele><time>2015-2-2T21:58:20Z</time></trkpt>
<trkpt lat="46.388554964214563" lon="6.248587109148502"><ele></ele><time>2015-2-2T21:58:23Z</time></trkpt>
<trkpt lat="46.388208204880357" lon="6.248148316517472"><ele></ele><time>2015-2-2T21:58:26Z</time></trkpt>
<trkpt lat="46.387877119705081" lon="6.247707176953554"><ele></ele><time>2015-2-2T21:58:29Z</time></trkpt>
<trkpt lat="46.38748912140727" lon="6.247221026569605"><ele></ele><time>2015-2-2T21:58:32Z</time></trkpt>
<trkpt lat="46.387055609375238" lon="6.24681131914258"><ele></ele><time>2015-2-2T21:58:35Z</time></trkpt>
<trkpt lat="46.386615056544542" lon="6.246563969179988"><ele></ele><time>2015-2-2T21:58:38Z</time></trkpt>
<trkpt lat="46.386142736300826" lon="6.246388200670481"><ele></ele><time>2015-2-2T21:58:41Z</time></trkpt>
<trkpt lat="46.385706458240747" lon="6.246215449646115"><ele></ele><time>2015-2-2T21:58:44Z</time></trkpt>
<trkpt lat="46.385247716680169" lon="6.246034484356642"><ele></ele><time>2015-2-2T21:58:47Z</time></trkpt>
<trkpt lat="46.384822586551309" lon="6.245779171586037"><ele></ele><time>2015-2-2T21:58:50Z</time></trkpt>
<trkpt lat="46.384406089782715" lon="6.245369464159012"><ele></ele><time>2015-2-2T21:58:53Z</time></trkpt>
<trkpt lat="46.384102832525969" lon="6.244875183328986"><ele></ele><time>2015-2-2T21:58:56Z</time></trkpt>
<trkpt lat="46.383783649653196" lon="6.244380315765739"><ele></ele><time>2015-2-2T21:58:59Z</time></trkpt>
<trkpt lat="46.383404117077589" lon="6.243920736014843"><ele></ele><time>2015-2-2T21:59:2Z</time></trkpt>
<trkpt lat="46.38298493809998" lon="6.243580849841237"><ele></ele><time>2015-2-2T21:59:5Z</time></trkpt>
<trkpt lat="46.382537176832557" lon="6.243367027491331"><ele></ele><time>2015-2-2T21:59:8Z</time></trkpt>
<trkpt lat="46.382097126916051" lon="6.243144907057285"><ele></ele><time>2015-2-2T21:59:11Z</time></trkpt>
<trkpt lat="46.381670739501715" lon="6.242761518806219"><ele></ele><time>2015-2-2T21:59:14Z</time></trkpt>
<trkpt lat="46.381262289360166" lon="6.242380393669009"><ele></ele><time>2015-2-2T21:59:17Z</time></trkpt>
<trkpt lat="46.380865657702088" lon="6.242007734254003"><ele></ele><time>2015-2-2T21:59:20Z</time></trkpt>
<trkpt lat="46.380480257794261" lon="6.2416279502213"><ele></ele><time>2015-2-2T21:59:23Z</time></trkpt>
<trkpt lat="46.380248246714473" lon="6.24104306101799"><ele></ele><time>2015-2-2T21:59:26Z</time></trkpt>
<trkpt lat="46.379966530948877" lon="6.240455992519856"><ele></ele><time>2015-2-2T21:59:29Z</time></trkpt>
<trkpt lat="46.379615580663085" lon="6.239984510466456"><ele></ele><time>2015-2-2T21:59:32Z</time></trkpt>
<trkpt lat="46.379261612892151" lon="6.239499114453793"><ele></ele><time>2015-2-2T21:59:35Z</time></trkpt>
<trkpt lat="46.378911919891834" lon="6.239016987383366"><ele></ele><time>2015-2-2T21:59:38Z</time></trkpt>
<trkpt lat="46.378562478348613" lon="6.238537123426795"><ele></ele><time>2015-2-2T21:59:41Z</time></trkpt>
<trkpt lat="46.378322169184685" lon="6.237962208688259"><ele></ele><time>2015-2-2T21:59:44Z</time></trkpt>
<trkpt lat="46.377955544739962" lon="6.237488212063909"><ele></ele><time>2015-2-2T21:59:47Z</time></trkpt>
<trkpt lat="46.377674248069525" lon="6.236885972321034"><ele></ele><time>2015-2-2T21:59:50Z</time></trkpt>
<trkpt lat="46.377391023561358" lon="6.236294964328408"><ele></ele><time>2015-2-2T21:59:53Z</time></trkpt>
<trkpt lat="46.377139482647181" lon="6.23574829660356"><ele></ele><time>2015-2-2T21:59:56Z</time></trkpt>
<trkpt lat="46.376832956448197" lon="6.235210010781884"><ele></ele><time>2015-2-2T21:59:59Z</time></trkpt>
<trkpt lat="46.376416878774762" lon="6.234812624752522"><ele></ele><time>2015-2-2T22:0:2Z</time></trkpt>
<trkpt lat="46.375969955697656" lon="6.234471229836345"><ele></ele><time>2015-2-2T22:0:5Z</time></trkpt>
<trkpt lat="46.37553920969367" lon="6.234134528785944"><ele></ele><time>2015-2-2T22:0:8Z</time></trkpt>
<trkpt lat="46.375115672126412" lon="6.233802689239383"><ele></ele><time>2015-2-2T22:0:11Z</time></trkpt>
<trkpt lat="46.374688865616918" lon="6.233456851914525"><ele></ele><time>2015-2-2T22:0:14Z</time></trkpt>
<trkpt lat="46.374313943088055" lon="6.233163820579648"><ele></ele><time>2015-2-2T22:0:17Z</time></trkpt>
<trkpt lat="46.373904068022966" lon="6.232828125357628"><ele></ele><time>2015-2-2T22:0:20Z</time></trkpt>
<trkpt lat="46.373541466891766" lon="6.232444988563657"><ele></ele><time>2015-2-2T22:0:23Z</time></trkpt>
<trkpt lat="46.37317132204771" lon="6.232028994709253"><ele></ele><time>2015-2-2T22:0:26Z</time></trkpt>
<trkpt lat="46.372804278507829" lon="6.231651306152344"><ele></ele><time>2015-2-2T22:0:29Z</time></trkpt>
<trkpt lat="46.372423907741904" lon="6.231254590675235"><ele></ele><time>2015-2-2T22:0:32Z</time></trkpt>
<trkpt lat="46.372047225013375" lon="6.230848738923669"><ele></ele><time>2015-2-2T22:0:35Z</time></trkpt>
<trkpt lat="46.371696526184678" lon="6.230421345680952"><ele></ele><time>2015-2-2T22:0:38Z</time></trkpt>
<trkpt lat="46.371348258107901" lon="6.229960843920708"><ele></ele><time>2015-2-2T22:0:41Z</time></trkpt>
<trkpt lat="46.371004767715931" lon="6.229453319683671"><ele></ele><time>2015-2-2T22:0:44Z</time></trkpt>
<trkpt lat="46.370668653398752" lon="6.228898521512747"><ele></ele><time>2015-2-2T22:0:47Z</time></trkpt>
<trkpt lat="46.370379058644176" lon="6.228359816595912"><ele></ele><time>2015-2-2T22:0:50Z</time></trkpt>
<trkpt lat="46.370131205767393" lon="6.227786410599947"><ele></ele><time>2015-2-2T22:0:53Z</time></trkpt>
<trkpt lat="46.369842365384102" lon="6.227217949926853"><ele></ele><time>2015-2-2T22:0:56Z</time></trkpt>
<trkpt lat="46.369558051228523" lon="6.226689470931888"><ele></ele><time>2015-2-2T22:0:59Z</time></trkpt>
<trkpt lat="46.369294608011842" lon="6.226152693852782"><ele></ele><time>2015-2-2T22:1:2Z</time></trkpt>
<trkpt lat="46.369006689637899" lon="6.225575599819422"><ele></ele><time>2015-2-2T22:1:5Z</time></trkpt>
<trkpt lat="46.368697062134743" lon="6.224997164681554"><ele></ele><time>2015-2-2T22:1:8Z</time></trkpt>
<trkpt lat="46.368354661390185" lon="6.224444461986423"><ele></ele><time>2015-2-2T22:1:11Z</time></trkpt>
<trkpt lat="46.36801628395915" lon="6.223949175328016"><ele></ele><time>2015-2-2T22:1:14Z</time></trkpt>
<trkpt lat="46.367673380300403" lon="6.223512813448906"><ele></ele><time>2015-2-2T22:1:17Z</time></trkpt>
<trkpt lat="46.367275407537818" lon="6.223050383850932"><ele></ele><time>2015-2-2T22:1:20Z</time></trkpt>
<trkpt lat="46.36685773730278" lon="6.222637575119734"><ele></ele><time>2015-2-2T22:1:23Z</time></trkpt>
<trkpt lat="46.36642238125205" lon="6.222263658419251"><ele></ele><time>2015-2-2T22:1:26Z</time></trkpt>
<trkpt lat="46.365970764309168" lon="6.221932405605912"><ele></ele><time>2015-2-2T22:1:29Z</time></trkpt>
<trkpt lat="46.365563487634063" lon="6.221628058701754"><ele></ele><time>2015-2-2T22:1:32Z</time></trkpt>
<trkpt lat="46.365129388868809" lon="6.221330333501101"><ele></ele><time>2015-2-2T22:1:35Z</time></trkpt>
<trkpt lat="46.36468724347651" lon="6.221029171720147"><ele></ele><time>2015-2-2T22:1:38Z</time></trkpt>
<trkpt lat="46.364238644018769" lon="6.220707222819328"><ele></ele><time>2015-2-2T22:1:41Z</time></trkpt>
<trkpt lat="46.363768586888909" lon="6.220370940864086"><ele></ele><time>2015-2-2T22:1:44Z</time></trkpt>
<trkpt lat="46.36334890499711" lon="6.220065923407674"><ele></ele><time>2015-2-2T22:1:47Z</time></trkpt>
<trkpt lat="46.362928301095963" lon="6.219759648665786"><ele></ele><time>2015-2-2T22:1:50Z</time></trkpt>
<trkpt lat="46.36249084956944" lon="6.219430491328239"><ele></ele><time>2015-2-2T22:1:53Z</time></trkpt>
<trkpt lat="46.362038310617208" lon="6.219059089198709"><ele></ele><time>2015-2-2T22:1:56Z</time></trkpt>
<trkpt lat="46.361593063920736" lon="6.21866530738771"><ele></ele><time>2015-2-2T22:1:59Z</time></trkpt>
<trkpt lat="46.361160473898053" lon="6.218262137845159"><ele></ele><time>2015-2-2T22:2:2Z</time></trkpt>
<trkpt lat="46.360747832804918" lon="6.217855280265212"><ele></ele><time>2015-2-2T22:2:5Z</time></trkpt>
<trkpt lat="46.360349860042334" lon="6.217438196763396"><ele></ele><time>2015-2-2T22:2:8Z</time></trkpt>
<trkpt lat="46.359983906149864" lon="6.217044582590461"><ele></ele><time>2015-2-2T22:2:11Z</time></trkpt>
<trkpt lat="46.35959817096591" lon="6.21660528704524"><ele></ele><time>2015-2-2T22:2:14Z</time></trkpt>
<trkpt lat="46.359207909554243" lon="6.216174876317382"><ele></ele><time>2015-2-2T22:2:17Z</time></trkpt>
<trkpt lat="46.358902975916862" lon="6.215710267424583"><ele></ele><time>2015-2-2T22:2:20Z</time></trkpt>
<trkpt lat="46.358494190499187" lon="6.215447746217251"><ele></ele><time>2015-2-2T22:2:23Z</time></trkpt>
<trkpt lat="46.358114993199706" lon="6.215026052668691"><ele></ele><time>2015-2-2T22:2:26Z</time></trkpt>
<trkpt lat="46.357739316299558" lon="6.214652806520462"><ele></ele><time>2015-2-2T22:2:29Z</time></trkpt>
<trkpt lat="46.357329441234469" lon="6.214261539280415"><ele></ele><time>2015-2-2T22:2:32Z</time></trkpt>
<trkpt lat="46.356949657201767" lon="6.213897177949548"><ele></ele><time>2015-2-2T22:2:35Z</time></trkpt>
<trkpt lat="46.356554115191102" lon="6.213520159944892"><ele></ele><time>2015-2-2T22:2:38Z</time></trkpt>
<trkpt lat="46.356145162135363" lon="6.213124869391322"><ele></ele><time>2015-2-2T22:2:41Z</time></trkpt>
<trkpt lat="46.355744590982795" lon="6.212744330987334"><ele></ele><time>2015-2-2T22:2:44Z</time></trkpt>
<trkpt lat="46.355328345671296" lon="6.212345771491528"><ele></ele><time>2015-2-2T22:2:47Z</time></trkpt>
<trkpt lat="46.354903047904372" lon="6.211938578635454"><ele></ele><time>2015-2-2T22:2:50Z</time></trkpt>
<trkpt lat="46.354484036564827" lon="6.211539516225457"><ele></ele><time>2015-2-2T22:2:53Z</time></trkpt>
<trkpt lat="46.354068797081709" lon="6.211141375824809"><ele></ele><time>2015-2-2T22:2:56Z</time></trkpt>
<trkpt lat="46.353669986128807" lon="6.210726387798786"><ele></ele><time>2015-2-2T22:2:59Z</time></trkpt>
<trkpt lat="46.353259105235338" lon="6.210322128608823"><ele></ele><time>2015-2-2T22:3:2Z</time></trkpt>
<trkpt lat="46.352873956784606" lon="6.209953241050243"><ele></ele><time>2015-2-2T22:3:5Z</time></trkpt>
<trkpt lat="46.352491741999984" lon="6.209586532786489"><ele></ele><time>2015-2-2T22:3:8Z</time></trkpt>
<trkpt lat="46.352064851671457" lon="6.209177495911717"><ele></ele><time>2015-2-2T22:3:11Z</time></trkpt>
<trkpt lat="46.351635279133916" lon="6.208775080740452"><ele></ele><time>2015-2-2T22:3:14Z</time></trkpt>
<trkpt lat="46.351253734901547" lon="6.20843100361526"><ele></ele><time>2015-2-2T22:3:17Z</time></trkpt>
<trkpt lat="46.35081997141242" lon="6.208072593435645"><ele></ele><time>2015-2-2T22:3:20Z</time></trkpt>
<trkpt lat="46.350375730544329" lon="6.207750476896763"><ele></ele><time>2015-2-2T22:3:23Z</time></trkpt>
<trkpt lat="46.349908523261547" lon="6.207451829686761"><ele></ele><time>2015-2-2T22:3:26Z</time></trkpt>
<trkpt lat="46.349433856084943" lon="6.207206826657057"><ele></ele><time>2015-2-2T22:3:29Z</time></trkpt>
<trkpt lat="46.348952986299992" lon="6.207001972943544"><ele></ele><time>2015-2-2T22:3:32Z</time></trkpt>
<trkpt lat="46.348472870886326" lon="6.206818744540215"><ele></ele><time>2015-2-2T22:3:35Z</time></trkpt>
<trkpt lat="46.347993677482009" lon="6.206679437309504"><ele></ele><time>2015-2-2T22:3:38Z</time></trkpt>
<trkpt lat="46.347502749413252" lon="6.206550020724535"><ele></ele><time>2015-2-2T22:3:41Z</time></trkpt>
<trkpt lat="46.347007965669036" lon="6.206432925537229"><ele></ele><time>2015-2-2T22:3:44Z</time></trkpt>
<trkpt lat="46.3465107511729" lon="6.206310968846083"><ele></ele><time>2015-2-2T22:3:47Z</time></trkpt>
<trkpt lat="46.346012279391289" lon="6.206184066832066"><ele></ele><time>2015-2-2T22:3:50Z</time></trkpt>
<trkpt lat="46.3455178309232" lon="6.206070743501186"><ele></ele><time>2015-2-2T22:3:53Z</time></trkpt>
<trkpt lat="46.345030171796679" lon="6.205960521474481"><ele></ele><time>2015-2-2T22:3:56Z</time></trkpt>
<trkpt lat="46.344525497406721" lon="6.205835631117225"><ele></ele><time>2015-2-2T22:3:59Z</time></trkpt>
<trkpt lat="46.344026690348983" lon="6.205718033015728"><ele></ele><time>2015-2-2T22:4:2Z</time></trkpt>
<trkpt lat="46.343553112819791" lon="6.205605044960976"><ele></ele><time>2015-2-2T22:4:5Z</time></trkpt>
<trkpt lat="46.343084312975407" lon="6.20549432002008"><ele></ele><time>2015-2-2T22:4:8Z</time></trkpt>
<trkpt lat="46.342615261673927" lon="6.205386025831103"><ele></ele><time>2015-2-2T22:4:11Z</time></trkpt>
<trkpt lat="46.342166410759091" lon="6.20526029728353"><ele></ele><time>2015-2-2T22:4:14Z</time></trkpt>
<trkpt lat="46.341668944805861" lon="6.205138508230448"><ele></ele><time>2015-2-2T22:4:17Z</time></trkpt>
<trkpt lat="46.341226883232594" lon="6.204993249848485"><ele></ele><time>2015-2-2T22:4:20Z</time></trkpt>
<trkpt lat="46.340749617666006" lon="6.2047921679914"><ele></ele><time>2015-2-2T22:4:23Z</time></trkpt>
<trkpt lat="46.340274531394243" lon="6.204577339813113"><ele></ele><time>2015-2-2T22:4:26Z</time></trkpt>
<trkpt lat="46.339839342981577" lon="6.204303503036499"><ele></ele><time>2015-2-2T22:4:29Z</time></trkpt>
<trkpt lat="46.339401220902801" lon="6.203998988494277"><ele></ele><time>2015-2-2T22:4:32Z</time></trkpt>
<trkpt lat="46.338962847366929" lon="6.20369765907526"><ele></ele><time>2015-2-2T22:4:35Z</time></trkpt>
<trkpt lat="46.338506955653429" lon="6.203388199210167"><ele></ele><time>2015-2-2T22:4:38Z</time></trkpt>
<trkpt lat="46.338055171072483" lon="6.203127941116691"><ele></ele><time>2015-2-2T22:4:41Z</time></trkpt>
<trkpt lat="46.337617048993707" lon="6.202916465699673"><ele></ele><time>2015-2-2T22:4:44Z</time></trkpt>
<trkpt lat="46.337126791477203" lon="6.202721754088998"><ele></ele><time>2015-2-2T22:4:47Z</time></trkpt>
<trkpt lat="46.336640221998096" lon="6.202554618939757"><ele></ele><time>2015-2-2T22:4:50Z</time></trkpt>
<trkpt lat="46.336136385798454" lon="6.20243945159018"><ele></ele><time>2015-2-2T22:4:53Z</time></trkpt>
<trkpt lat="46.335642272606492" lon="6.202354710549116"><ele></ele><time>2015-2-2T22:4:56Z</time></trkpt>
<trkpt lat="46.335190823301673" lon="6.202325709164143"><ele></ele><time>2015-2-2T22:4:59Z</time></trkpt>
<trkpt lat="46.334711629897356" lon="6.20230701752007"><ele></ele><time>2015-2-2T22:5:2Z</time></trkpt>
<trkpt lat="46.334210392087698" lon="6.202332247048616"><ele></ele><time>2015-2-2T22:5:5Z</time></trkpt>
<trkpt lat="46.333732288330793" lon="6.202317578718066"><ele></ele><time>2015-2-2T22:5:8Z</time></trkpt>
<trkpt lat="46.333228787407279" lon="6.202331073582172"><ele></ele><time>2015-2-2T22:5:11Z</time></trkpt>
<trkpt lat="46.332725202664733" lon="6.202321015298367"><ele></ele><time>2015-2-2T22:5:14Z</time></trkpt>
<trkpt lat="46.332222707569599" lon="6.202283799648285"><ele></ele><time>2015-2-2T22:5:17Z</time></trkpt>
<trkpt lat="46.331742005422711" lon="6.202200651168823"><ele></ele><time>2015-2-2T22:5:20Z</time></trkpt>
<trkpt lat="46.331292232498527" lon="6.202065953984857"><ele></ele><time>2015-2-2T22:5:23Z</time></trkpt>
<trkpt lat="46.330850506201386" lon="6.201894460245967"><ele></ele><time>2015-2-2T22:5:26Z</time></trkpt>
<trkpt lat="46.330389585345984" lon="6.201682984828949"><ele></ele><time>2015-2-2T22:5:29Z</time></trkpt>
<trkpt lat="46.329943584278226" lon="6.201442256569862"><ele></ele><time>2015-2-2T22:5:32Z</time></trkpt>
<trkpt lat="46.329504121094942" lon="6.201171018183231"><ele></ele><time>2015-2-2T22:5:35Z</time></trkpt>
<trkpt lat="46.32906474173069" lon="6.200860468670726"><ele></ele><time>2015-2-2T22:5:38Z</time></trkpt>
<trkpt lat="46.328648580238223" lon="6.200511949136853"><ele></ele><time>2015-2-2T22:5:41Z</time></trkpt>
<trkpt lat="46.328261503949761" lon="6.200168458744884"><ele></ele><time>2015-2-2T22:5:44Z</time></trkpt>
<trkpt lat="46.327843498438597" lon="6.199799571186304"><ele></ele><time>2015-2-2T22:5:47Z</time></trkpt>
<trkpt lat="46.327440496534109" lon="6.199497655034065"><ele></ele><time>2015-2-2T22:5:50Z</time></trkpt>
<trkpt lat="46.32698611356318" lon="6.199202528223395"><ele></ele><time>2015-2-2T22:5:53Z</time></trkpt>
<trkpt lat="46.326547572389245" lon="6.1989501491189"><ele></ele><time>2015-2-2T22:5:56Z</time></trkpt>
<trkpt lat="46.326089333742857" lon="6.19872534647584"><ele></ele><time>2015-2-2T22:5:59Z</time></trkpt>
<trkpt lat="46.325631011277437" lon="6.198509261012077"><ele></ele><time>2015-2-2T22:6:2Z</time></trkpt>
<trkpt lat="46.325160199776292" lon="6.198284542188048"><ele></ele><time>2015-2-2T22:6:5Z</time></trkpt>
<trkpt lat="46.324699278920889" lon="6.198098380118609"><ele></ele><time>2015-2-2T22:6:8Z</time></trkpt>
<trkpt lat="46.324248416349292" lon="6.197891011834145"><ele></ele><time>2015-2-2T22:6:11Z</time></trkpt>
<trkpt lat="46.323789674788713" lon="6.197669729590416"><ele></ele><time>2015-2-2T22:6:14Z</time></trkpt>
<trkpt lat="46.323328502476215" lon="6.197431012988091"><ele></ele><time>2015-2-2T22:6:17Z</time></trkpt>
<trkpt lat="46.322900773957372" lon="6.197196235880256"><ele></ele><time>2015-2-2T22:6:20Z</time></trkpt>
<trkpt lat="46.32244823500514" lon="6.196953747421503"><ele></ele><time>2015-2-2T22:6:23Z</time></trkpt>
<trkpt lat="46.322028636932373" lon="6.196715366095305"><ele></ele><time>2015-2-2T22:6:26Z</time></trkpt>
<trkpt lat="46.321581965312362" lon="6.196456532925367"><ele></ele><time>2015-2-2T22:6:29Z</time></trkpt>
<trkpt lat="46.321151135489345" lon="6.196222426369786"><ele></ele><time>2015-2-2T22:6:32Z</time></trkpt>
<trkpt lat="46.320684514939785" lon="6.195970047265291"><ele></ele><time>2015-2-2T22:6:35Z</time></trkpt>
<trkpt lat="46.320250751450658" lon="6.195730995386839"><ele></ele><time>2015-2-2T22:6:38Z</time></trkpt>
<trkpt lat="46.319824531674385" lon="6.195490686222911"><ele></ele><time>2015-2-2T22:6:41Z</time></trkpt>
<trkpt lat="46.319384146481752" lon="6.19525314308703"><ele></ele><time>2015-2-2T22:6:44Z</time></trkpt>
<trkpt lat="46.318936636671424" lon="6.194988274946809"><ele></ele><time>2015-2-2T22:6:47Z</time></trkpt>
<trkpt lat="46.318472195416689" lon="6.194730112329125"><ele></ele><time>2015-2-2T22:6:50Z</time></trkpt>
<trkpt lat="46.318037007004023" lon="6.194491647183895"><ele></ele><time>2015-2-2T22:6:53Z</time></trkpt>
<trkpt lat="46.31758488714695" lon="6.194239854812622"><ele></ele><time>2015-2-2T22:6:56Z</time></trkpt>
<trkpt lat="46.317143496125937" lon="6.193987224251032"><ele></ele><time>2015-2-2T22:6:59Z</time></trkpt>
<trkpt lat="46.31674443371594" lon="6.193604171276093"><ele></ele><time>2015-2-2T22:7:2Z</time></trkpt>
<trkpt lat="46.316310754045844" lon="6.193280126899481"><ele></ele><time>2015-2-2T22:7:5Z</time></trkpt>
<trkpt lat="46.315923342481256" lon="6.192871676757932"><ele></ele><time>2015-2-2T22:7:8Z</time></trkpt>
<trkpt lat="46.315592424944043" lon="6.192352417856455"><ele></ele><time>2015-2-2T22:7:11Z</time></trkpt>
<trkpt lat="46.315302411094308" lon="6.191801391541958"><ele></ele><time>2015-2-2T22:7:14Z</time></trkpt>
<trkpt lat="46.315016588196158" lon="6.191206946969032"><ele></ele><time>2015-2-2T22:7:17Z</time></trkpt>
<trkpt lat="46.314734369516373" lon="6.190694561228156"><ele></ele><time>2015-2-2T22:7:20Z</time></trkpt>
<trkpt lat="46.314442846924067" lon="6.190158203244209"><ele></ele><time>2015-2-2T22:7:23Z</time></trkpt>
<trkpt lat="46.314147468656301" lon="6.189622515812516"><ele></ele><time>2015-2-2T22:7:26Z</time></trkpt>
<trkpt lat="46.313853012397885" lon="6.189077105373144"><ele></ele><time>2015-2-2T22:7:29Z</time></trkpt>
<trkpt lat="46.313539696857333" lon="6.188533287495375"><ele></ele><time>2015-2-2T22:7:32Z</time></trkpt>
<trkpt lat="46.313210371881723" lon="6.188079658895731"><ele></ele><time>2015-2-2T22:7:35Z</time></trkpt>
<trkpt lat="46.312827570363879" lon="6.187656372785568"><ele></ele><time>2015-2-2T22:7:38Z</time></trkpt>
<trkpt lat="46.312425741925836" lon="6.187279187142849"><ele></ele><time>2015-2-2T22:7:41Z</time></trkpt>
<trkpt lat="46.31199449300766" lon="6.186876017600298"><ele></ele><time>2015-2-2T22:7:44Z</time></trkpt>
<trkpt lat="46.311608254909515" lon="6.186522049829364"><ele></ele><time>2015-2-2T22:7:47Z</time></trkpt>
<trkpt lat="46.311214054003358" lon="6.186148971319199"><ele></ele><time>2015-2-2T22:7:50Z</time></trkpt>
<trkpt lat="46.31082471460104" lon="6.185789303854108"><ele></ele><time>2015-2-2T22:7:53Z</time></trkpt>
<trkpt lat="46.310401009395719" lon="6.185404071584344"><ele></ele><time>2015-2-2T22:7:56Z</time></trkpt>
<trkpt lat="46.310012592002749" lon="6.185036692768335"><ele></ele><time>2015-2-2T22:7:59Z</time></trkpt>
<trkpt lat="46.309624006971717" lon="6.184677863493562"><ele></ele><time>2015-2-2T22:8:2Z</time></trkpt>
<trkpt lat="46.309217400848866" lon="6.184303276240826"><ele></ele><time>2015-2-2T22:8:5Z</time></trkpt>
<trkpt lat="46.308797970414162" lon="6.183920055627823"><ele></ele><time>2015-2-2T22:8:8Z</time></trkpt>
<trkpt lat="46.308374432846904" lon="6.183528704568744"><ele></ele><time>2015-2-2T22:8:11Z</time></trkpt>
<trkpt lat="46.307959780097008" lon="6.183126121759415"><ele></ele><time>2015-2-2T22:8:14Z</time></trkpt>
<trkpt lat="46.307551246136427" lon="6.182754132896662"><ele></ele><time>2015-2-2T22:8:17Z</time></trkpt>
<trkpt lat="46.307166181504726" lon="6.182396477088332"><ele></ele><time>2015-2-2T22:8:20Z</time></trkpt>
<trkpt lat="46.306759072467685" lon="6.182015435770154"><ele></ele><time>2015-2-2T22:8:23Z</time></trkpt>
<trkpt lat="46.306346012279391" lon="6.181625928729773"><ele></ele><time>2015-2-2T22:8:26Z</time></trkpt>
<trkpt lat="46.305945944041014" lon="6.181259052827954"><ele></ele><time>2015-2-2T22:8:29Z</time></trkpt>
<trkpt lat="46.305500697344542" lon="6.180840879678726"><ele></ele><time>2015-2-2T22:8:32Z</time></trkpt>
<trkpt lat="46.305108927190304" lon="6.180449109524488"><ele></ele><time>2015-2-2T22:8:35Z</time></trkpt>
<trkpt lat="46.304719587787986" lon="6.18003630079329"><ele></ele><time>2015-2-2T22:8:38Z</time></trkpt>
<trkpt lat="46.304333936423063" lon="6.179611254483461"><ele></ele><time>2015-2-2T22:8:41Z</time></trkpt>
<trkpt lat="46.303962450474501" lon="6.179178664460778"><ele></ele><time>2015-2-2T22:8:44Z</time></trkpt>
<trkpt lat="46.303616529330611" lon="6.178755965083838"><ele></ele><time>2015-2-2T22:8:47Z</time></trkpt>
<trkpt lat="46.303278403356671" lon="6.178318681195378"><ele></ele><time>2015-2-2T22:8:50Z</time></trkpt>
<trkpt lat="46.3029401935637" lon="6.17786237038672"><ele></ele><time>2015-2-2T22:8:53Z</time></trkpt>
<trkpt lat="46.302611120045185" lon="6.17739181034267"><ele></ele><time>2015-2-2T22:8:56Z</time></trkpt>
<trkpt lat="46.30229621194303" lon="6.176913119852543"><ele></ele><time>2015-2-2T22:8:59Z</time></trkpt>
<trkpt lat="46.301948111504316" lon="6.17639696225524"><ele></ele><time>2015-2-2T22:9:2Z</time></trkpt>
<trkpt lat="46.301630772650242" lon="6.175876194611192"><ele></ele><time>2015-2-2T22:9:5Z</time></trkpt>
<trkpt lat="46.301307063549757" lon="6.175314858555794"><ele></ele><time>2015-2-2T22:9:8Z</time></trkpt>
<trkpt lat="46.301011014729738" lon="6.174799036234617"><ele></ele><time>2015-2-2T22:9:11Z</time></trkpt>
<trkpt lat="46.300715133547783" lon="6.174257062375546"><ele></ele><time>2015-2-2T22:9:14Z</time></trkpt>
<trkpt lat="46.300425790250301" lon="6.173688853159547"><ele></ele><time>2015-2-2T22:9:17Z</time></trkpt>
<trkpt lat="46.300147511065006" lon="6.173126846551895"><ele></ele><time>2015-2-2T22:9:20Z</time></trkpt>
<trkpt lat="46.299865711480379" lon="6.172562912106514"><ele></ele><time>2015-2-2T22:9:23Z</time></trkpt>
<trkpt lat="46.299591371789575" lon="6.171993194147945"><ele></ele><time>2015-2-2T22:9:26Z</time></trkpt>
<trkpt lat="46.299309488385916" lon="6.171431941911578"><ele></ele><time>2015-2-2T22:9:29Z</time></trkpt>
<trkpt lat="46.299008326604962" lon="6.17086079902947"><ele></ele><time>2015-2-2T22:9:32Z</time></trkpt>
<trkpt lat="46.298687886446714" lon="6.170342713594437"><ele></ele><time>2015-2-2T22:9:35Z</time></trkpt>
<trkpt lat="46.298349257558584" lon="6.169856814667583"><ele></ele><time>2015-2-2T22:9:38Z</time></trkpt>
<trkpt lat="46.298034181818366" lon="6.169386422261596"><ele></ele><time>2015-2-2T22:9:41Z</time></trkpt>
<trkpt lat="46.297704856842756" lon="6.16888677701354"><ele></ele><time>2015-2-2T22:9:44Z</time></trkpt>
<trkpt lat="46.297300094738603" lon="6.168505065143108"><ele></ele><time>2015-2-2T22:9:47Z</time></trkpt>
<trkpt lat="46.296918299049139" lon="6.16813475266099"><ele></ele><time>2015-2-2T22:9:50Z</time></trkpt>
<trkpt lat="46.296472381800413" lon="6.167782042175531"><ele></ele><time>2015-2-2T22:9:53Z</time></trkpt>
<trkpt lat="46.296064183115959" lon="6.167500494047999"><ele></ele><time>2015-2-2T22:9:56Z</time></trkpt>
<trkpt lat="46.295646596699953" lon="6.167236799374223"><ele></ele><time>2015-2-2T22:9:59Z</time></trkpt>
<trkpt lat="46.295218365266919" lon="6.166980983689427"><ele></ele><time>2015-2-2T22:10:2Z</time></trkpt>
<trkpt lat="46.294748056679964" lon="6.166726257652044"><ele></ele><time>2015-2-2T22:10:5Z</time></trkpt>
<trkpt lat="46.294290404766798" lon="6.166444038972259"><ele></ele><time>2015-2-2T22:10:8Z</time></trkpt>
<trkpt lat="46.293847169727087" lon="6.166152013465762"><ele></ele><time>2015-2-2T22:10:11Z</time></trkpt>
<trkpt lat="46.293403012678027" lon="6.1659100279212"><ele></ele><time>2015-2-2T22:10:14Z</time></trkpt>
<trkpt lat="46.292958939447999" lon="6.165721686556935"><ele></ele><time>2015-2-2T22:10:17Z</time></trkpt>
<trkpt lat="46.292496426030993" lon="6.165627641603351"><ele></ele><time>2015-2-2T22:10:20Z</time></trkpt>
<trkpt lat="46.292036175727844" lon="6.165598975494504"><ele></ele><time>2015-2-2T22:10:23Z</time></trkpt>
<trkpt lat="46.291549019515514" lon="6.165601070970297"><ele></ele><time>2015-2-2T22:10:26Z</time></trkpt>
<trkpt lat="46.291078710928559" lon="6.165618756785989"><ele></ele><time>2015-2-2T22:10:29Z</time></trkpt>
<trkpt lat="46.290620472282171" lon="6.165626216679812"><ele></ele><time>2015-2-2T22:10:32Z</time></trkpt>
<trkpt lat="46.290152342990041" lon="6.165651446208358"><ele></ele><time>2015-2-2T22:10:35Z</time></trkpt>
<trkpt lat="46.289659989997745" lon="6.165659911930561"><ele></ele><time>2015-2-2T22:10:38Z</time></trkpt>
<trkpt lat="46.289161518216133" lon="6.165666030719876"><ele></ele><time>2015-2-2T22:10:41Z</time></trkpt>
<trkpt lat="46.288685509935021" lon="6.165687991306186"><ele></ele><time>2015-2-2T22:10:44Z</time></trkpt>
<trkpt lat="46.288213776424527" lon="6.165708191692829"><ele></ele><time>2015-2-2T22:10:47Z</time></trkpt>
<trkpt lat="46.287759644910693" lon="6.165671143680811"><ele></ele><time>2015-2-2T22:10:50Z</time></trkpt>
<trkpt lat="46.287259664386511" lon="6.165699977427721"><ele></ele><time>2015-2-2T22:10:53Z</time></trkpt>
<trkpt lat="46.28676169551909" lon="6.165725542232394"><ele></ele><time>2015-2-2T22:10:56Z</time></trkpt>
<trkpt lat="46.286269342526793" lon="6.165742641314864"><ele></ele><time>2015-2-2T22:10:59Z</time></trkpt>
<trkpt lat="46.285810600966215" lon="6.165764937177301"><ele></ele><time>2015-2-2T22:11:2Z</time></trkpt>
<trkpt lat="46.285344483330846" lon="6.165785724297166"><ele></ele><time>2015-2-2T22:11:5Z</time></trkpt>
<trkpt lat="46.284859338775277" lon="6.165785305202007"><ele></ele><time>2015-2-2T22:11:8Z</time></trkpt>
<trkpt lat="46.284354496747255" lon="6.165794357657433"><ele></ele><time>2015-2-2T22:11:11Z</time></trkpt>
<trkpt lat="46.28386122174561" lon="6.165811540558934"><ele></ele><time>2015-2-2T22:11:14Z</time></trkpt>
<trkpt lat="46.28337699919939" lon="6.165808606892824"><ele></ele><time>2015-2-2T22:11:17Z</time></trkpt>
<trkpt lat="46.282868385314941" lon="6.165816569700837"><ele></ele><time>2015-2-2T22:11:20Z</time></trkpt>
<trkpt lat="46.282380726188421" lon="6.165817240253091"><ele></ele><time>2015-2-2T22:11:23Z</time></trkpt>
<trkpt lat="46.281925505027175" lon="6.166049251332879"><ele></ele><time>2015-2-2T22:11:26Z</time></trkpt>
<trkpt lat="46.281497608870268" lon="6.16630238480866"><ele></ele><time>2015-2-2T22:11:29Z</time></trkpt>
<trkpt lat="46.28102864138782" lon="6.166602624580264"><ele></ele><time>2015-2-2T22:11:32Z</time></trkpt>
<trkpt lat="46.2805927824229" lon="6.166887693107128"><ele></ele><time>2015-2-2T22:11:35Z</time></trkpt>
<trkpt lat="46.280156672000885" lon="6.167162535712123"><ele></ele><time>2015-2-2T22:11:38Z</time></trkpt>
<trkpt lat="46.279706982895732" lon="6.167467217892408"><ele></ele><time>2015-2-2T22:11:41Z</time></trkpt>
<trkpt lat="46.279231393709779" lon="6.167769050225616"><ele></ele><time>2015-2-2T22:11:44Z</time></trkpt>
<trkpt lat="46.278822440654039" lon="6.168043557554483"><ele></ele><time>2015-2-2T22:11:47Z</time></trkpt>
<trkpt lat="46.278359340503812" lon="6.168305827304721"><ele></ele><time>2015-2-2T22:11:50Z</time></trkpt>
<trkpt lat="46.277940748259425" lon="6.168577149510384"><ele></ele><time>2015-2-2T22:11:53Z</time></trkpt>
<trkpt lat="46.277525341138244" lon="6.168829444795847"><ele></ele><time>2015-2-2T22:11:56Z</time></trkpt>
<trkpt lat="46.277056122198701" lon="6.169116357341409"><ele></ele><time>2015-2-2T22:11:59Z</time></trkpt>
<trkpt lat="46.276617664843798" lon="6.16941450163722"><ele></ele><time>2015-2-2T22:12:2Z</time></trkpt>
<trkpt lat="46.276175351813436" lon="6.169535201042891"><ele></ele><time>2015-2-2T22:12:5Z</time></trkpt>
<trkpt lat="46.275716777890921" lon="6.169240158051252"><ele></ele><time>2015-2-2T22:12:8Z</time></trkpt>
<trkpt lat="46.275296593084931" lon="6.168868588283658"><ele></ele><time>2015-2-2T22:12:11Z</time></trkpt>
<trkpt lat="46.274902308359742" lon="6.168509339913726"><ele></ele><time>2015-2-2T22:12:14Z</time></trkpt>
<trkpt lat="46.274565774947405" lon="6.168046742677689"><ele></ele><time>2015-2-2T22:12:17Z</time></trkpt>
<trkpt lat="46.274329237639904" lon="6.167483227327466"><ele></ele><time>2015-2-2T22:12:20Z</time></trkpt>
<trkpt lat="46.273936545476317" lon="6.167299412190914"><ele></ele><time>2015-2-2T22:12:23Z</time></trkpt>
<trkpt lat="46.273491466417909" lon="6.167122721672058"><ele></ele><time>2015-2-2T22:12:26Z</time></trkpt>
<trkpt lat="46.273039095103741" lon="6.166929434984922"><ele></ele><time>2015-2-2T22:12:29Z</time></trkpt>
<trkpt lat="46.272607343271375" lon="6.166712678968906"><ele></ele><time>2015-2-2T22:12:32Z</time></trkpt>
<trkpt lat="46.272149691358209" lon="6.16647589020431"><ele></ele><time>2015-2-2T22:12:35Z</time></trkpt>
<trkpt lat="46.271699834614992" lon="6.166234156116843"><ele></ele><time>2015-2-2T22:12:38Z</time></trkpt>
<trkpt lat="46.271233297884464" lon="6.165977502241731"><ele></ele><time>2015-2-2T22:12:41Z</time></trkpt>
<trkpt lat="46.270811688154936" lon="6.165746161714196"><ele></ele><time>2015-2-2T22:12:44Z</time></trkpt>
<trkpt lat="46.270393850281835" lon="6.165503757074475"><ele></ele><time>2015-2-2T22:12:47Z</time></trkpt>
<trkpt lat="46.269934605807066" lon="6.165225980803371"><ele></ele><time>2015-2-2T22:12:50Z</time></trkpt>
<trkpt lat="46.269487515091896" lon="6.164943594485521"><ele></ele><time>2015-2-2T22:12:53Z</time></trkpt>
<trkpt lat="46.269041011109948" lon="6.164658777415752"><ele></ele><time>2015-2-2T22:12:56Z</time></trkpt>
<trkpt lat="46.268577240407467" lon="6.164368176832795"><ele></ele><time>2015-2-2T22:12:59Z</time></trkpt>
<trkpt lat="46.268149176612496" lon="6.164100039750338"><ele></ele><time>2015-2-2T22:13:2Z</time></trkpt>
<trkpt lat="46.267699571326375" lon="6.163821928203106"><ele></ele><time>2015-2-2T22:13:5Z</time></trkpt>
<trkpt lat="46.267257509753108" lon="6.163541804999113"><ele></ele><time>2015-2-2T22:13:8Z</time></trkpt>
<trkpt lat="46.266823578625917" lon="6.163273165002465"><ele></ele><time>2015-2-2T22:13:11Z</time></trkpt>
<trkpt lat="46.266387803480029" lon="6.163000836968422"><ele></ele><time>2015-2-2T22:13:14Z</time></trkpt>
<trkpt lat="46.265962840989232" lon="6.162736723199487"><ele></ele><time>2015-2-2T22:13:17Z</time></trkpt>
<trkpt lat="46.26553812995553" lon="6.1624666582793"><ele></ele><time>2015-2-2T22:13:20Z</time></trkpt>
<trkpt lat="46.265083160251379" lon="6.162181086838245"><ele></ele><time>2015-2-2T22:13:23Z</time></trkpt>
<trkpt lat="46.264663143083453" lon="6.161931557580829"><ele></ele><time>2015-2-2T22:13:26Z</time></trkpt>
<trkpt lat="46.264241114258766" lon="6.161666102707386"><ele></ele><time>2015-2-2T22:13:29Z</time></trkpt>
<trkpt lat="46.263792766258121" lon="6.161378603428602"><ele></ele><time>2015-2-2T22:13:32Z</time></trkpt>
<trkpt lat="46.26339060254395" lon="6.161088170483708"><ele></ele><time>2015-2-2T22:13:35Z</time></trkpt>
<trkpt lat="46.262939656153321" lon="6.160738058388233"><ele></ele><time>2015-2-2T22:13:38Z</time></trkpt>
<trkpt lat="46.26254964619875" lon="6.160410577431321"><ele></ele><time>2015-2-2T22:13:41Z</time></trkpt>
<trkpt lat="46.262154271826148" lon="6.160090640187264"><ele></ele><time>2015-2-2T22:13:44Z</time></trkpt>
<trkpt lat="46.261730901896954" lon="6.159727200865746"><ele></ele><time>2015-2-2T22:13:47Z</time></trkpt>
<trkpt lat="46.261333180591464" lon="6.15939955227077"><ele></ele><time>2015-2-2T22:13:50Z</time></trkpt>
<trkpt lat="46.260931435972452" lon="6.159068718552589"><ele></ele><time>2015-2-2T22:13:53Z</time></trkpt>
<trkpt lat="46.260524913668633" lon="6.158723803237081"><ele></ele><time>2015-2-2T22:13:56Z</time></trkpt>
<trkpt lat="46.260126689448953" lon="6.158403279259801"><ele></ele><time>2015-2-2T22:13:59Z</time></trkpt>
<trkpt lat="46.259709186851978" lon="6.158031960949302"><ele></ele><time>2015-2-2T22:14:2Z</time></trkpt>
<trkpt lat="46.259272489696741" lon="6.157676903530955"><ele></ele><time>2015-2-2T22:14:5Z</time></trkpt>
<trkpt lat="46.258858758956194" lon="6.157326959073544"><ele></ele><time>2015-2-2T22:14:8Z</time></trkpt>
<trkpt lat="46.258470006287098" lon="6.156972404569387"><ele></ele><time>2015-2-2T22:14:11Z</time></trkpt>
<trkpt lat="46.258073961362243" lon="6.15664953365922"><ele></ele><time>2015-2-2T22:14:14Z</time></trkpt>
<trkpt lat="46.257720496505499" lon="6.156294392421842"><ele></ele><time>2015-2-2T22:14:17Z</time></trkpt>
<trkpt lat="46.25724121928215" lon="6.156290201470256"><ele></ele><time>2015-2-2T22:14:20Z</time></trkpt>
<trkpt lat="46.256760181859136" lon="6.156173106282949"><ele></ele><time>2015-2-2T22:14:23Z</time></trkpt>
<trkpt lat="46.256276797503233" lon="6.156082497909665"><ele></ele><time>2015-2-2T22:14:26Z</time></trkpt>
<trkpt lat="46.255833897739649" lon="6.155956434085965"><ele></ele><time>2015-2-2T22:14:29Z</time></trkpt>
<trkpt lat="46.255424944683909" lon="6.155538596212864"><ele></ele><time>2015-2-2T22:14:32Z</time></trkpt>
<trkpt lat="46.255072569474578" lon="6.155097456648946"><ele></ele><time>2015-2-2T22:14:35Z</time></trkpt>
<trkpt lat="46.25469253398478" lon="6.154633518308401"><ele></ele><time>2015-2-2T22:14:38Z</time></trkpt>
<trkpt lat="46.254305457696319" lon="6.154177626594901"><ele></ele><time>2015-2-2T22:14:41Z</time></trkpt>
<trkpt lat="46.25392441637814" lon="6.153716202825308"><ele></ele><time>2015-2-2T22:14:44Z</time></trkpt>
<trkpt lat="46.253542620688677" lon="6.15323449485004"><ele></ele><time>2015-2-2T22:14:47Z</time></trkpt>
<trkpt lat="46.253206171095371" lon="6.152799809351564"><ele></ele><time>2015-2-2T22:14:50Z</time></trkpt>
<trkpt lat="46.252842312678695" lon="6.15237451158464"><ele></ele><time>2015-2-2T22:14:53Z</time></trkpt>
<trkpt lat="46.252456326037645" lon="6.151912501081824"><ele></ele><time>2015-2-2T22:14:56Z</time></trkpt>
<trkpt lat="46.252058856189251" lon="6.151477480307221"><ele></ele><time>2015-2-2T22:14:59Z</time></trkpt>
<trkpt lat="46.251625260338187" lon="6.151184113696218"><ele></ele><time>2015-2-2T22:15:2Z</time></trkpt>
<trkpt lat="46.251150844618678" lon="6.151009267196059"><ele></ele><time>2015-2-2T22:15:5Z</time></trkpt>
<trkpt lat="46.250681793317199" lon="6.15092234686017"><ele></ele><time>2015-2-2T22:15:8Z</time></trkpt>
<trkpt lat="46.25023327767849" lon="6.150772478431463"><ele></ele><time>2015-2-2T22:15:11Z</time></trkpt>
<trkpt lat="46.249751569703221" lon="6.150704333558679"><ele></ele><time>2015-2-2T22:15:14Z</time></trkpt>
<trkpt lat="46.24927849508822" lon="6.150702405720949"><ele></ele><time>2015-2-2T22:15:17Z</time></trkpt>
<trkpt lat="46.2488201726228" lon="6.150644570589066"><ele></ele><time>2015-2-2T22:15:20Z</time></trkpt>
<trkpt lat="46.248328909277916" lon="6.150661585852504"><ele></ele><time>2015-2-2T22:15:23Z</time></trkpt>
<trkpt lat="46.247873520478606" lon="6.150830145925283"><ele></ele><time>2015-2-2T22:15:26Z</time></trkpt>
<trkpt lat="46.247379407286644" lon="6.151015302166343"><ele></ele><time>2015-2-2T22:15:29Z</time></trkpt>
<trkpt lat="46.246938100084662" lon="6.151151424273849"><ele></ele><time>2015-2-2T22:15:32Z</time></trkpt>
<trkpt lat="46.246475586667657" lon="6.151266843080521"><ele></ele><time>2015-2-2T22:15:35Z</time></trkpt>
<trkpt lat="46.245960099622607" lon="6.151312608271837"><ele></ele><time>2015-2-2T22:15:38Z</time></trkpt>
<trkpt lat="46.245518121868372" lon="6.151172043755651"><ele></ele><time>2015-2-2T22:15:41Z</time></trkpt>
<trkpt lat="46.245042029768229" lon="6.151070203632116"><ele></ele><time>2015-2-2T22:15:44Z</time></trkpt>
<trkpt lat="46.244573900476098" lon="6.151247229427099"><ele></ele><time>2015-2-2T22:15:47Z</time></trkpt>
<trkpt lat="46.244123624637723" lon="6.151324259117246"><ele></ele><time>2015-2-2T22:15:50Z</time></trkpt>
<trkpt lat="46.243633953854442" lon="6.151303639635444"><ele></ele><time>2015-2-2T22:15:53Z</time></trkpt>
<trkpt lat="46.243179738521576" lon="6.15126047283411"><ele></ele><time>2015-2-2T22:15:56Z</time></trkpt>
<trkpt lat="46.24269618652761" lon="6.151136504486203"><ele></ele><time>2015-2-2T22:15:59Z</time></trkpt>
<trkpt lat="46.242256807163358" lon="6.150955287739635"><ele></ele><time>2015-2-2T22:16:2Z</time></trkpt>
<trkpt lat="46.241825222969055" lon="6.150732832029462"><ele></ele><time>2015-2-2T22:16:5Z</time></trkpt>
<trkpt lat="46.241360194981098" lon="6.150517836213112"><ele></ele><time>2015-2-2T22:16:8Z</time></trkpt>
<trkpt lat="46.240948811173439" lon="6.150249112397432"><ele></ele><time>2015-2-2T22:16:11Z</time></trkpt>
<trkpt lat="46.240519573912024" lon="6.150002432987094"><ele></ele><time>2015-2-2T22:16:14Z</time></trkpt>
<trkpt lat="46.240073489025235" lon="6.149726836010814"><ele></ele><time>2015-2-2T22:16:17Z</time></trkpt>
<trkpt lat="46.239622877910733" lon="6.149474708363414"><ele></ele><time>2015-2-2T22:16:20Z</time></trkpt>
<trkpt lat="46.239180061966181" lon="6.149197518825531"><ele></ele><time>2015-2-2T22:16:23Z</time></trkpt>
<trkpt lat="46.2387162912637" lon="6.149042285978794"><ele></ele><time>2015-2-2T22:16:26Z</time></trkpt>
<trkpt lat="46.238260734826326" lon="6.14893558435142"><ele></ele><time>2015-2-2T22:16:29Z</time></trkpt>
<trkpt lat="46.237784558907151" lon="6.148871630430222"><ele></ele><time>2015-2-2T22:16:32Z</time></trkpt>
<trkpt lat="46.237318273633718" lon="6.148855453357101"><ele></ele><time>2015-2-2T22:16:35Z</time></trkpt>
<trkpt lat="46.236857352778316" lon="6.148876491934061"><ele></ele><time>2015-2-2T22:16:38Z</time></trkpt>
<trkpt lat="46.236407831311226" lon="6.148918736726046"><ele></ele><time>2015-2-2T22:16:41Z</time></trkpt>
<trkpt lat="46.23594137839973" lon="6.148968609049916"><ele></ele><time>2015-2-2T22:16:44Z</time></trkpt>
<trkpt lat="46.235474003478885" lon="6.149026779457927"><ele></ele><time>2015-2-2T22:16:47Z</time></trkpt>
<trkpt lat="46.235011406242847" lon="6.149078831076622"><ele></ele><time>2015-2-2T22:16:50Z</time></trkpt>
<trkpt lat="46.234527518972754" lon="6.149126943200827"><ele></ele><time>2015-2-2T22:16:53Z</time></trkpt>
<trkpt lat="46.234056623652577" lon="6.149175306782126"><ele></ele><time>2015-2-2T22:16:56Z</time></trkpt>
<trkpt lat="46.23359008692205" lon="6.149218557402492"><ele></ele><time>2015-2-2T22:16:59Z</time></trkpt>
<trkpt lat="46.233141403645277" lon="6.149262310937047"><ele></ele><time>2015-2-2T22:17:2Z</time></trkpt>
<trkpt lat="46.232642931863666" lon="6.149310590699315"><ele></ele><time>2015-2-2T22:17:5Z</time></trkpt>
<trkpt lat="46.2321403529495" lon="6.149326767772436"><ele></ele><time>2015-2-2T22:17:8Z</time></trkpt>
<trkpt lat="46.231659818440676" lon="6.149345459416509"><ele></ele><time>2015-2-2T22:17:11Z</time></trkpt>
<trkpt lat="46.231156066060066" lon="6.149322409182787"><ele></ele><time>2015-2-2T22:17:14Z</time></trkpt>
<trkpt lat="46.230670334771276" lon="6.14927027374506"><ele></ele><time>2015-2-2T22:17:17Z</time></trkpt>
<trkpt lat="46.23020002618432" lon="6.149223670363426"><ele></ele><time>2015-2-2T22:17:20Z</time></trkpt>
<trkpt lat="46.229705661535263" lon="6.149156196042895"><ele></ele><time>2015-2-2T22:17:23Z</time></trkpt>
<trkpt lat="46.229239543899894" lon="6.149069024249911"><ele></ele><time>2015-2-2T22:17:26Z</time></trkpt>
<trkpt lat="46.228749705478549" lon="6.14895410835743"><ele></ele><time>2015-2-2T22:17:29Z</time></trkpt>
<trkpt lat="46.228278139606118" lon="6.148829804733396"><ele></ele><time>2015-2-2T22:17:32Z</time></trkpt>
<trkpt lat="46.227836413308978" lon="6.148652946576476"><ele></ele><time>2015-2-2T22:17:35Z</time></trkpt>
<trkpt lat="46.227386388927698" lon="6.148513806983829"><ele></ele><time>2015-2-2T22:17:38Z</time></trkpt>
<trkpt lat="46.226942650973797" lon="6.148325633257628"><ele></ele><time>2015-2-2T22:17:41Z</time></trkpt>
<trkpt lat="46.226511402055621" lon="6.148136202245951"><ele></ele><time>2015-2-2T22:17:44Z</time></trkpt>
<trkpt lat="46.226038746535778" lon="6.14793193526566"><ele></ele><time>2015-2-2T22:17:47Z</time></trkpt>
<trkpt lat="46.225569108501077" lon="6.14779656752944"><ele></ele><time>2015-2-2T22:17:50Z</time></trkpt>
<trkpt lat="46.225119922310114" lon="6.147815678268671"><ele></ele><time>2015-2-2T22:17:53Z</time></trkpt>
<trkpt lat="46.224672663956881" lon="6.147983148694038"><ele></ele><time>2015-2-2T22:17:56Z</time></trkpt>
<trkpt lat="46.224201852455735" lon="6.148192277178168"><ele></ele><time>2015-2-2T22:17:59Z</time></trkpt>
<trkpt lat="46.223753252997994" lon="6.148378187790513"><ele></ele><time>2015-2-2T22:18:2Z</time></trkpt>
<trkpt lat="46.223307335749269" lon="6.148536605760455"><ele></ele><time>2015-2-2T22:18:5Z</time></trkpt>
<trkpt lat="46.222863933071494" lon="6.148736011236906"><ele></ele><time>2015-2-2T22:18:8Z</time></trkpt>
<trkpt lat="46.222448358312249" lon="6.148948576301336"><ele></ele><time>2015-2-2T22:18:11Z</time></trkpt>
<trkpt lat="46.222012583166361" lon="6.149230375885963"><ele></ele><time>2015-2-2T22:18:14Z</time></trkpt>
<trkpt lat="46.221547136083245" lon="6.149478396400809"><ele></ele><time>2015-2-2T22:18:17Z</time></trkpt>
<trkpt lat="46.221068697050214" lon="6.149699427187443"><ele></ele><time>2015-2-2T22:18:20Z</time></trkpt>
<trkpt lat="46.220580702647567" lon="6.149761117994785"><ele></ele><time>2015-2-2T22:18:23Z</time></trkpt>
<trkpt lat="46.220144173130393" lon="6.149555258452892"><ele></ele><time>2015-2-2T22:18:26Z</time></trkpt>
<trkpt lat="46.219719713553786" lon="6.149270609021187"><ele></ele><time>2015-2-2T22:18:29Z</time></trkpt>
<trkpt lat="46.219259882345796" lon="6.149010602384806"><ele></ele><time>2015-2-2T22:18:32Z</time></trkpt>
<trkpt lat="46.218872554600239" lon="6.148701645433903"><ele></ele><time>2015-2-2T22:18:35Z</time></trkpt>
<trkpt lat="46.218446083366871" lon="6.148457396775484"><ele></ele><time>2015-2-2T22:18:38Z</time></trkpt>
<trkpt lat="46.218006871640682" lon="6.14815816283226"><ele></ele><time>2015-2-2T22:18:41Z</time></trkpt>
<trkpt lat="46.217544442042708" lon="6.147990189492703"><ele></ele><time>2015-2-2T22:18:44Z</time></trkpt>
<trkpt lat="46.217099782079458" lon="6.147903688251972"><ele></ele><time>2015-2-2T22:18:47Z</time></trkpt>
<trkpt lat="46.216649170964956" lon="6.147729344666004"><ele></ele><time>2015-2-2T22:18:50Z</time></trkpt>
<trkpt lat="46.216222364455462" lon="6.147451316937804"><ele></ele><time>2015-2-2T22:18:53Z</time></trkpt>
<trkpt lat="46.215819614008069" lon="6.14708804525435"><ele></ele><time>2015-2-2T22:18:56Z</time></trkpt>
<trkpt lat="46.215405380353332" lon="6.146795181557536"><ele></ele><time>2015-2-2T22:18:59Z</time></trkpt>
<trkpt lat="46.21498997323215" lon="6.146483961492777"><ele></ele><time>2015-2-2T22:19:2Z</time></trkpt>
<trkpt lat="46.214566687121987" lon="6.146176680922508"><ele></ele><time>2015-2-2T22:19:5Z</time></trkpt>
<trkpt lat="46.214116495102644" lon="6.14589530043304"><ele></ele><time>2015-2-2T22:19:8Z</time></trkpt>
<trkpt lat="46.213683150708675" lon="6.145587684586644"><ele></ele><time>2015-2-2T22:19:11Z</time></trkpt>
<trkpt lat="46.213232539594173" lon="6.145288534462452"><ele></ele><time>2015-2-2T22:19:14Z</time></trkpt>
<trkpt lat="46.212803386151791" lon="6.145007992163301"><ele></ele><time>2015-2-2T22:19:17Z</time></trkpt>
<trkpt lat="46.21237188577652" lon="6.144779417663813"><ele></ele><time>2015-2-2T22:19:20Z</time></trkpt>
<trkpt lat="46.211926974356174" lon="6.144539611414075"><ele></ele><time>2015-2-2T22:19:23Z</time></trkpt>
<trkpt lat="46.211492037400603" lon="6.144266612827778"><ele></ele><time>2015-2-2T22:19:26Z</time></trkpt>
<trkpt lat="46.211054418236017" lon="6.144055975601077"><ele></ele><time>2015-2-2T22:19:29Z</time></trkpt>
<trkpt lat="46.210698522627354" lon="6.1436334438622"><ele></ele><time>2015-2-2T22:19:32Z</time></trkpt>
<trkpt lat="46.210327120497823" lon="6.143216527998447"><ele></ele><time>2015-2-2T22:19:35Z</time></trkpt>
<trkpt lat="46.209974074736238" lon="6.142739932984114"><ele></ele><time>2015-2-2T22:19:38Z</time></trkpt>
<trkpt lat="46.209618262946606" lon="6.142282616347075"><ele></ele><time>2015-2-2T22:19:41Z</time></trkpt>
<trkpt lat="46.209262954071164" lon="6.141854384914041"><ele></ele><time>2015-2-2T22:19:44Z</time></trkpt>
<trkpt lat="46.2089036218822" lon="6.141439480707049"><ele></ele><time>2015-2-2T22:19:47Z</time></trkpt>
<trkpt lat="46.208502044901252" lon="6.141077214851975"><ele></ele><time>2015-2-2T22:19:50Z</time></trkpt>
<trkpt lat="46.208131145685911" lon="6.140653928741813"><ele></ele><time>2015-2-2T22:19:53Z</time></trkpt>
<trkpt lat="46.207727221772075" lon="6.140221506357193"><ele></ele><time>2015-2-2T22:19:56Z</time></trkpt>
<trkpt lat="46.207363363355398" lon="6.139798639342189"><ele></ele><time>2015-2-2T22:19:59Z</time></trkpt>
<trkpt lat="46.206990201026201" lon="6.139437044039369"><ele></ele><time>2015-2-2T22:20:2Z</time></trkpt>
<trkpt lat="46.206547301262617" lon="6.139375604689121"><ele></ele><time>2015-2-2T22:20:5Z</time></trkpt>
<trkpt lat="46.20631487108767" lon="6.138915186747909"><ele></ele><time>2015-2-2T22:20:8Z</time></trkpt>
<trkpt lat="46.20610767044127" lon="6.138377487659454"><ele></ele><time>2015-2-2T22:20:11Z</time></trkpt>
<trkpt lat="46.205703830346465" lon="6.137969121336937"><ele></ele><time>2015-2-2T22:20:14Z</time></trkpt>
<trkpt lat="46.205545496195555" lon="6.137369647622109"><ele></ele><time>2015-2-2T22:20:17Z</time></trkpt>
<trkpt lat="46.205569384619594" lon="6.136668333783746"><ele></ele><time>2015-2-2T22:20:20Z</time></trkpt>
<trkpt lat="46.205449858680367" lon="6.136013958603144"><ele></ele><time>2015-2-2T22:20:23Z</time></trkpt>
<trkpt lat="46.205162443220615" lon="6.135407779365778"><ele></ele><time>2015-2-2T22:20:26Z</time></trkpt>
<trkpt lat="46.204814845696092" lon="6.134899081662297"><ele></ele><time>2015-2-2T22:20:29Z</time></trkpt>
<trkpt lat="46.204481245949864" lon="6.134443609043956"><ele></ele><time>2015-2-2T22:20:32Z</time></trkpt>
<trkpt lat="46.204190226271749" lon="6.133933570235968"><ele></ele><time>2015-2-2T22:20:35Z</time></trkpt>
<trkpt lat="46.203930219635367" lon="6.133383214473724"><ele></ele><time>2015-2-2T22:20:38Z</time></trkpt>
<trkpt lat="46.203724863007665" lon="6.132776867598295"><ele></ele><time>2015-2-2T22:20:41Z</time></trkpt>
<trkpt lat="46.20365621522069" lon="6.132132047787309"><ele></ele><time>2015-2-2T22:20:44Z</time></trkpt>
<trkpt lat="46.203288165852427" lon="6.131797274574637"><ele></ele><time>2015-2-2T22:20:47Z</time></trkpt>
<trkpt lat="46.202845852822065" lon="6.131585212424398"><ele></ele><time>2015-2-2T22:20:50Z</time></trkpt>
<trkpt lat="46.202431535348296" lon="6.131273908540607"><ele></ele><time>2015-2-2T22:20:53Z</time></trkpt>
<trkpt lat="46.202039094641805" lon="6.130875097587705"><ele></ele><time>2015-2-2T22:20:56Z</time></trkpt>
<trkpt lat="46.201624860987067" lon="6.130466228350997"><ele></ele><time>2015-2-2T22:20:59Z</time></trkpt>
<trkpt lat="46.201220517978072" lon="6.130064148455858"><ele></ele><time>2015-2-2T22:21:2Z</time></trkpt>
<trkpt lat="46.200839309021831" lon="6.129694757983089"><ele></ele><time>2015-2-2T22:21:5Z</time></trkpt>
<trkpt lat="46.200448460876942" lon="6.129253869876266"><ele></ele><time>2015-2-2T22:21:8Z</time></trkpt>
<trkpt lat="46.200086195021868" lon="6.128861177712679"><ele></ele><time>2015-2-2T22:21:11Z</time></trkpt>
<trkpt lat="46.199690736830235" lon="6.128464546054602"><ele></ele><time>2015-2-2T22:21:14Z</time></trkpt>
<trkpt lat="46.199311958625913" lon="6.128094233572483"><ele></ele><time>2015-2-2T22:21:17Z</time></trkpt>
<trkpt lat="46.198877273127437" lon="6.127762477844954"><ele></ele><time>2015-2-2T22:21:20Z</time></trkpt>
<trkpt lat="46.198410484939814" lon="6.127606490626931"><ele></ele><time>2015-2-2T22:21:23Z</time></trkpt>
<trkpt lat="46.197938919067383" lon="6.127454778179526"><ele></ele><time>2015-2-2T22:21:26Z</time></trkpt>
<trkpt lat="46.197487805038691" lon="6.127317734062672"><ele></ele><time>2015-2-2T22:21:29Z</time></trkpt>
<trkpt lat="46.197012718766928" lon="6.127168200910091"><ele></ele><time>2015-2-2T22:21:32Z</time></trkpt>
<trkpt lat="46.196561688557267" lon="6.127022271975875"><ele></ele><time>2015-2-2T22:21:35Z</time></trkpt>
<trkpt lat="46.196092972531915" lon="6.126892268657684"><ele></ele><time>2015-2-2T22:21:38Z</time></trkpt>
<trkpt lat="46.195633057504892" lon="6.126760924234986"><ele></ele><time>2015-2-2T22:21:41Z</time></trkpt>
<trkpt lat="46.195177249610424" lon="6.12656076438725"><ele></ele><time>2015-2-2T22:21:44Z</time></trkpt>
<trkpt lat="46.194802578538656" lon="6.12615323625505"><ele></ele><time>2015-2-2T22:21:47Z</time></trkpt>
<trkpt lat="46.194549193605781" lon="6.125577483326197"><ele></ele><time>2015-2-2T22:21:50Z</time></trkpt>
<trkpt lat="46.194331012666225" lon="6.124984044581652"><ele></ele><time>2015-2-2T22:21:53Z</time></trkpt>
<trkpt lat="46.194230765104294" lon="6.124364538118243"><ele></ele><time>2015-2-2T22:21:56Z</time></trkpt>
<trkpt lat="46.193896327167749" lon="6.123891463503242"><ele></ele><time>2015-2-2T22:21:59Z</time></trkpt>
<trkpt lat="46.193573707714677" lon="6.123414617031813"><ele></ele><time>2015-2-2T22:22:2Z</time></trkpt>
<trkpt lat="46.193224769085646" lon="6.122958725318313"><ele></ele><time>2015-2-2T22:22:5Z</time></trkpt>
<trkpt lat="46.192913968116045" lon="6.122456397861242"><ele></ele><time>2015-2-2T22:22:8Z</time></trkpt>
<trkpt lat="46.1925692204386" lon="6.121964799240232"><ele></ele><time>2015-2-2T22:22:11Z</time></trkpt>
<trkpt lat="46.192213576287031" lon="6.121570682153106"><ele></ele><time>2015-2-2T22:22:14Z</time></trkpt>
<trkpt lat="46.191855752840638" lon="6.121129710227251"><ele></ele><time>2015-2-2T22:22:17Z</time></trkpt>
<trkpt lat="46.191504132002592" lon="6.120698042213917"><ele></ele><time>2015-2-2T22:22:20Z</time></trkpt>
<trkpt lat="46.191141866147518" lon="6.120231421664357"><ele></ele><time>2015-2-2T22:22:23Z</time></trkpt>
<trkpt lat="46.190809356048703" lon="6.119755916297436"><ele></ele><time>2015-2-2T22:22:26Z</time></trkpt>
<trkpt lat="46.19048036634922" lon="6.119308490306139"><ele></ele><time>2015-2-2T22:22:29Z</time></trkpt>
<trkpt lat="46.190108461305499" lon="6.118832398205996"><ele></ele><time>2015-2-2T22:22:32Z</time></trkpt>
<trkpt lat="46.189882233738899" lon="6.118222530931234"><ele></ele><time>2015-2-2T22:22:35Z</time></trkpt>
<trkpt lat="46.189687354490161" lon="6.117630181834102"><ele></ele><time>2015-2-2T22:22:38Z</time></trkpt>
<trkpt lat="46.189476130530238" lon="6.116972202435136"><ele></ele><time>2015-2-2T22:22:41Z</time></trkpt>
<trkpt lat="46.189273539930582" lon="6.116359736770392"><ele></ele><time>2015-2-2T22:22:44Z</time></trkpt>
<trkpt lat="46.189071033149958" lon="6.115754563361406"><ele></ele><time>2015-2-2T22:22:47Z</time></trkpt>
<trkpt lat="46.188868023455143" lon="6.115135308355093"><ele></ele><time>2015-2-2T22:22:50Z</time></trkpt>
<trkpt lat="46.188699882477522" lon="6.114514628425241"><ele></ele><time>2015-2-2T22:22:53Z</time></trkpt>
<trkpt lat="46.188514810055494" lon="6.113899145275354"><ele></ele><time>2015-2-2T22:22:56Z</time></trkpt>
<trkpt lat="46.188299478963017" lon="6.113304533064365"><ele></ele><time>2015-2-2T22:22:59Z</time></trkpt>
<trkpt lat="46.188085656613111" lon="6.112688630819321"><ele></ele><time>2015-2-2T22:23:2Z</time></trkpt>
<trkpt lat="46.187882982194424" lon="6.112099131569266"><ele></ele><time>2015-2-2T22:23:5Z</time></trkpt>
<trkpt lat="46.187682738527656" lon="6.111458670347929"><ele></ele><time>2015-2-2T22:23:8Z</time></trkpt>
<trkpt lat="46.187495989724994" lon="6.110856346786022"><ele></ele><time>2015-2-2T22:23:11Z</time></trkpt>
<trkpt lat="46.187276216223836" lon="6.11023616977036"><ele></ele><time>2015-2-2T22:23:14Z</time></trkpt>
<trkpt lat="46.187074882909656" lon="6.109615489840508"><ele></ele><time>2015-2-2T22:23:17Z</time></trkpt>
<trkpt lat="46.186879919841886" lon="6.108955247327685"><ele></ele><time>2015-2-2T22:23:20Z</time></trkpt>
<trkpt lat="46.186639526858926" lon="6.108381925150752"><ele></ele><time>2015-2-2T22:23:23Z</time></trkpt>
<trkpt lat="46.186430063098669" lon="6.107736267149448"><ele></ele><time>2015-2-2T22:23:26Z</time></trkpt>
<trkpt lat="46.186265191063285" lon="6.107081640511751"><ele></ele><time>2015-2-2T22:23:29Z</time></trkpt>
<trkpt lat="46.18605824187398" lon="6.106430953368545"><ele></ele><time>2015-2-2T22:23:32Z</time></trkpt>
<trkpt lat="46.185845425352454" lon="6.105798957869411"><ele></ele><time>2015-2-2T22:23:35Z</time></trkpt>
<trkpt lat="46.185649707913399" lon="6.10519940033555"><ele></ele><time>2015-2-2T22:23:38Z</time></trkpt>
<trkpt lat="46.185431107878685" lon="6.104579055681825"><ele></ele><time>2015-2-2T22:23:41Z</time></trkpt>
<trkpt lat="46.18520999327302" lon="6.104006906971335"><ele></ele><time>2015-2-2T22:23:44Z</time></trkpt>
<trkpt lat="46.184994745999575" lon="6.103385556489229"><ele></ele><time>2015-2-2T22:23:47Z</time></trkpt>
<trkpt lat="46.184778576716781" lon="6.102790273725987"><ele></ele><time>2015-2-2T22:23:50Z</time></trkpt>
<trkpt lat="46.184553354978561" lon="6.102228099480271"><ele></ele><time>2015-2-2T22:23:53Z</time></trkpt>
<trkpt lat="46.184303658083081" lon="6.101630050688982"><ele></ele><time>2015-2-2T22:23:56Z</time></trkpt>
<trkpt lat="46.183999814093113" lon="6.101101571694017"><ele></ele><time>2015-2-2T22:23:59Z</time></trkpt>
<trkpt lat="46.183713069185615" lon="6.100536128506064"><ele></ele><time>2015-2-2T22:24:2Z</time></trkpt>
<trkpt lat="46.183390785008669" lon="6.099968925118446"><ele></ele><time>2015-2-2T22:24:5Z</time></trkpt>
<trkpt lat="46.18309666402638" lon="6.099450252950192"><ele></ele><time>2015-2-2T22:24:8Z</time></trkpt>
<trkpt lat="46.182803045958281" lon="6.098914565518498"><ele></ele><time>2015-2-2T22:24:11Z</time></trkpt>
<trkpt lat="46.18250397965312" lon="6.098378961905837"><ele></ele><time>2015-2-2T22:24:14Z</time></trkpt>
<trkpt lat="46.182224862277508" lon="6.097847633063793"><ele></ele><time>2015-2-2T22:24:17Z</time></trkpt>
<trkpt lat="46.181962843984365" lon="6.097250254824758"><ele></ele><time>2015-2-2T22:24:20Z</time></trkpt>
<trkpt lat="46.181719936430454" lon="6.096673831343651"><ele></ele><time>2015-2-2T22:24:23Z</time></trkpt>
<trkpt lat="46.181463282555342" lon="6.09607276506722"><ele></ele><time>2015-2-2T22:24:26Z</time></trkpt>
<trkpt lat="46.181217189878225" lon="6.095497095957398"><ele></ele><time>2015-2-2T22:24:29Z</time></trkpt>
<trkpt lat="46.180963721126318" lon="6.09491128474474"><ele></ele><time>2015-2-2T22:24:32Z</time></trkpt>
<trkpt lat="46.180741349235177" lon="6.094337292015553"><ele></ele><time>2015-2-2T22:24:35Z</time></trkpt>
<trkpt lat="46.180473044514656" lon="6.09370538033545"><ele></ele><time>2015-2-2T22:24:38Z</time></trkpt>
<trkpt lat="46.180205745622516" lon="6.093107247725129"><ele></ele><time>2015-2-2T22:24:41Z</time></trkpt>
<trkpt lat="46.179953450337052" lon="6.092512216418982"><ele></ele><time>2015-2-2T22:24:44Z</time></trkpt>
<trkpt lat="46.179715907201171" lon="6.091952389106154"><ele></ele><time>2015-2-2T22:24:47Z</time></trkpt>
<trkpt lat="46.179465372115374" lon="6.091353921219707"><ele></ele><time>2015-2-2T22:24:50Z</time></trkpt>
<trkpt lat="46.17922967299819" lon="6.090758806094527"><ele></ele><time>2015-2-2T22:24:53Z</time></trkpt>
<trkpt lat="46.179033368825912" lon="6.09012370929122"><ele></ele><time>2015-2-2T22:24:56Z</time></trkpt>
<trkpt lat="46.178865311667323" lon="6.08947335742414"><ele></ele><time>2015-2-2T22:24:59Z</time></trkpt>
<trkpt lat="46.178687950596213" lon="6.088816802948713"><ele></ele><time>2015-2-2T22:25:2Z</time></trkpt>
<trkpt lat="46.178604466840625" lon="6.088160332292318"><ele></ele><time>2015-2-2T22:25:5Z</time></trkpt>
<trkpt lat="46.17860421538353" lon="6.087503610178828"><ele></ele><time>2015-2-2T22:25:8Z</time></trkpt>
<trkpt lat="46.178668336942792" lon="6.086789555847645"><ele></ele><time>2015-2-2T22:25:11Z</time></trkpt>
<trkpt lat="46.178758610039949" lon="6.086080614477396"><ele></ele><time>2015-2-2T22:25:14Z</time></trkpt>
<trkpt lat="46.178872855380177" lon="6.085416013374925"><ele></ele><time>2015-2-2T22:25:17Z</time></trkpt>
<trkpt lat="46.178988609462976" lon="6.08471897430718"><ele></ele><time>2015-2-2T22:25:20Z</time></trkpt>
<trkpt lat="46.179270576685667" lon="6.084224442020059"><ele></ele><time>2015-2-2T22:25:23Z</time></trkpt>
<trkpt lat="46.179234366863966" lon="6.083516003564"><ele></ele><time>2015-2-2T22:25:26Z</time></trkpt>
<trkpt lat="46.179317850619555" lon="6.082850396633148"><ele></ele><time>2015-2-2T22:25:29Z</time></trkpt>
<trkpt lat="46.179408291354775" lon="6.082185124978423"><ele></ele><time>2015-2-2T22:25:32Z</time></trkpt>
<trkpt lat="46.179521614685655" lon="6.081509878858924"><ele></ele><time>2015-2-2T22:25:35Z</time></trkpt>
<trkpt lat="46.179603505879641" lon="6.080853911116719"><ele></ele><time>2015-2-2T22:25:38Z</time></trkpt>
<trkpt lat="46.179661927744746" lon="6.08018059283495"><ele></ele><time>2015-2-2T22:25:41Z</time></trkpt>
<trkpt lat="46.179721606895328" lon="6.079504676163197"><ele></ele><time>2015-2-2T22:25:44Z</time></trkpt>
<trkpt lat="46.179767120629549" lon="6.078843344002962"><ele></ele><time>2015-2-2T22:25:47Z</time></trkpt>
<trkpt lat="46.179688666015863" lon="6.078195590525866"><ele></ele><time>2015-2-2T22:25:50Z</time></trkpt>
<trkpt lat="46.179644241929054" lon="6.0775185842067"><ele></ele><time>2015-2-2T22:25:53Z</time></trkpt>
<trkpt lat="46.179562099277973" lon="6.076832357794046"><ele></ele><time>2015-2-2T22:25:56Z</time></trkpt>
<trkpt lat="46.179413488134742" lon="6.076166415587068"><ele></ele><time>2015-2-2T22:25:59Z</time></trkpt>
<trkpt lat="46.179221291095018" lon="6.075529977679253"><ele></ele><time>2015-2-2T22:26:2Z</time></trkpt>
<trkpt lat="46.178996404632926" lon="6.074908208101988"><ele></ele><time>2015-2-2T22:26:5Z</time></trkpt>
<trkpt lat="46.178774368017912" lon="6.074290880933404"><ele></ele><time>2015-2-2T22:26:8Z</time></trkpt>
<trkpt lat="46.178550403565168" lon="6.073676571249962"><ele></ele><time>2015-2-2T22:26:11Z</time></trkpt>
<trkpt lat="46.178326020017266" lon="6.073081120848656"><ele></ele><time>2015-2-2T22:26:14Z</time></trkpt>
<trkpt lat="46.178204985335469" lon="6.072465972974896"><ele></ele><time>2015-2-2T22:26:17Z</time></trkpt>
<trkpt lat="46.177916983142495" lon="6.072669569402933"><ele></ele><time>2015-2-2T22:26:20Z</time></trkpt>
<trkpt lat="46.177733754739165" lon="6.073263343423605"><ele></ele><time>2015-2-2T22:26:23Z</time></trkpt>
<trkpt lat="46.177551615983248" lon="6.07386021874845"><ele></ele><time>2015-2-2T22:26:26Z</time></trkpt>
<trkpt lat="46.177379116415977" lon="6.074465056881309"><ele></ele><time>2015-2-2T22:26:29Z</time></trkpt>
<trkpt lat="46.177252298220992" lon="6.075113313272595"><ele></ele><time>2015-2-2T22:26:32Z</time></trkpt>
<trkpt lat="46.177145345136523" lon="6.075780596584082"><ele></ele><time>2015-2-2T22:26:35Z</time></trkpt>
<trkpt lat="46.176944514736533" lon="6.076124673709273"><ele></ele><time>2015-2-2T22:26:38Z</time></trkpt>
<trkpt lat="46.176617620512843" lon="6.075680684298277"><ele></ele><time>2015-2-2T22:26:41Z</time></trkpt>
<trkpt lat="46.176343699917197" lon="6.075145415961742"><ele></ele><time>2015-2-2T22:26:44Z</time></trkpt>
<trkpt lat="46.176130045205355" lon="6.074564717710018"><ele></ele><time>2015-2-2T22:26:47Z</time></trkpt>
<trkpt lat="46.175847910344601" lon="6.074001537635922"><ele></ele><time>2015-2-2T22:26:50Z</time></trkpt>
<trkpt lat="46.175512634217739" lon="6.073501305654645"><ele></ele><time>2015-2-2T22:26:53Z</time></trkpt>
<trkpt lat="46.175165120512247" lon="6.073032757267356"><ele></ele><time>2015-2-2T22:26:56Z</time></trkpt>
<trkpt lat="46.174865383654833" lon="6.072524981573224"><ele></ele><time>2015-2-2T22:26:59Z</time></trkpt>
<trkpt lat="46.174676455557346" lon="6.071908073499799"><ele></ele><time>2015-2-2T22:27:2Z</time></trkpt>
<trkpt lat="46.174541087821126" lon="6.07124213129282"><ele></ele><time>2015-2-2T22:27:5Z</time></trkpt>
<trkpt lat="46.174398930743337" lon="6.070548361167312"><ele></ele><time>2015-2-2T22:27:8Z</time></trkpt>
<trkpt lat="46.17425836622715" lon="6.06990085914731"><ele></ele><time>2015-2-2T22:27:11Z</time></trkpt>
<trkpt lat="46.174184856936336" lon="6.069426191970706"><ele></ele><time>2015-2-2T22:27:14Z</time></trkpt>
<trkpt lat="46.173942033201456" lon="6.068844068795443"><ele></ele><time>2015-2-2T22:27:17Z</time></trkpt>
<trkpt lat="46.173927448689938" lon="6.068141665309668"><ele></ele><time>2015-2-2T22:27:20Z</time></trkpt>
<trkpt lat="46.17389190942049" lon="6.067429957911372"><ele></ele><time>2015-2-2T22:27:23Z</time></trkpt>
<trkpt lat="46.173874391242862" lon="6.066727051511407"><ele></ele><time>2015-2-2T22:27:26Z</time></trkpt>
<trkpt lat="46.173846814781427" lon="6.066024899482727"><ele></ele><time>2015-2-2T22:27:29Z</time></trkpt>
<trkpt lat="46.173793086782098" lon="6.065317969769239"><ele></ele><time>2015-2-2T22:27:32Z</time></trkpt>
<trkpt lat="46.173678087070584" lon="6.064654542133212"><ele></ele><time>2015-2-2T22:27:35Z</time></trkpt>
<trkpt lat="46.173545233905315" lon="6.064024725928903"><ele></ele><time>2015-2-2T22:27:38Z</time></trkpt>
<trkpt lat="46.173363765701652" lon="6.063422989100218"><ele></ele><time>2015-2-2T22:27:41Z</time></trkpt>
<trkpt lat="46.173144998028874" lon="6.062820916995406"><ele></ele><time>2015-2-2T22:27:44Z</time></trkpt>
<trkpt lat="46.172921787947416" lon="6.062224796041846"><ele></ele><time>2015-2-2T22:27:47Z</time></trkpt>
<trkpt lat="46.172684160992503" lon="6.061629094183445"><ele></ele><time>2015-2-2T22:27:50Z</time></trkpt>
<trkpt lat="46.172460867092013" lon="6.061048898845911"><ele></ele><time>2015-2-2T22:27:53Z</time></trkpt>
<trkpt lat="46.172468829900026" lon="6.060433415696025"><ele></ele><time>2015-2-2T22:27:56Z</time></trkpt>
<trkpt lat="46.172479642555118" lon="6.059710225090385"><ele></ele><time>2015-2-2T22:27:59Z</time></trkpt>
<trkpt lat="46.172471595928073" lon="6.058977395296097"><ele></ele><time>2015-2-2T22:28:2Z</time></trkpt>
<trkpt lat="46.172450892627239" lon="6.058323690667749"><ele></ele><time>2015-2-2T22:28:5Z</time></trkpt>
<trkpt lat="46.172434631735086" lon="6.0576699860394"><ele></ele><time>2015-2-2T22:28:8Z</time></trkpt>
<trkpt lat="46.172433374449611" lon="6.056920057162643"><ele></ele><time>2015-2-2T22:28:11Z</time></trkpt>
<trkpt lat="46.172460950911045" lon="6.056214552372694"><ele></ele><time>2015-2-2T22:28:14Z</time></trkpt>
<trkpt lat="46.172491125762463" lon="6.055468646809459"><ele></ele><time>2015-2-2T22:28:17Z</time></trkpt>
<trkpt lat="46.172528173774481" lon="6.054742773994803"><ele></ele><time>2015-2-2T22:28:20Z</time></trkpt>
<trkpt lat="46.172553990036249" lon="6.054014386609197"><ele></ele><time>2015-2-2T22:28:23Z</time></trkpt>
<trkpt lat="46.172591960057616" lon="6.053286250680685"><ele></ele><time>2015-2-2T22:28:26Z</time></trkpt>
<trkpt lat="46.172202788293362" lon="6.04912631213665"><ele></ele><time>2015-2-2T22:28:29Z</time></trkpt>
<trkpt lat="46.172141516581178" lon="6.048487862572074"><ele></ele><time>2015-2-2T22:28:32Z</time></trkpt>
<trkpt lat="46.172138582915068" lon="6.047778502106667"><ele></ele><time>2015-2-2T22:28:35Z</time></trkpt>
<trkpt lat="46.172202788293362" lon="6.047057909891009"><ele></ele><time>2015-2-2T22:28:38Z</time></trkpt>
<trkpt lat="46.172523647546768" lon="6.046712994575501"><ele></ele><time>2015-2-2T22:28:41Z</time></trkpt>
<trkpt lat="46.172588691115379" lon="6.046096170321107"><ele></ele><time>2015-2-2T22:28:44Z</time></trkpt>
<trkpt lat="46.172558767721057" lon="6.045368118211627"><ele></ele><time>2015-2-2T22:28:47Z</time></trkpt>
<trkpt lat="46.172538651153445" lon="6.044691698625684"><ele></ele><time>2015-2-2T22:28:50Z</time></trkpt>
<trkpt lat="46.172501519322395" lon="6.044043526053429"><ele></ele><time>2015-2-2T22:28:53Z</time></trkpt>
<trkpt lat="46.172439577057958" lon="6.043371967971325"><ele></ele><time>2015-2-2T22:28:56Z</time></trkpt>
<trkpt lat="46.172360787168145" lon="6.042727064341307"><ele></ele><time>2015-2-2T22:28:59Z</time></trkpt>
<trkpt lat="46.172210667282343" lon="6.042081322520971"><ele></ele><time>2015-2-2T22:29:2Z</time></trkpt>
<trkpt lat="46.17203657515347" lon="6.041460558772087"><ele></ele><time>2015-2-2T22:29:5Z</time></trkpt>
<trkpt lat="46.171817304566503" lon="6.040836526080966"><ele></ele><time>2015-2-2T22:29:8Z</time></trkpt>
<trkpt lat="46.171595519408584" lon="6.040268400683999"><ele></ele><time>2015-2-2T22:29:11Z</time></trkpt>
<trkpt lat="46.171335093677044" lon="6.039676470682025"><ele></ele><time>2015-2-2T22:29:14Z</time></trkpt>
<trkpt lat="46.171087576076388" lon="6.039122007787228"><ele></ele><time>2015-2-2T22:29:17Z</time></trkpt>
<trkpt lat="46.170891690999269" lon="6.038481378927827"><ele></ele><time>2015-2-2T22:29:20Z</time></trkpt>
<trkpt lat="46.170584242790937" lon="6.038029845803976"><ele></ele><time>2015-2-2T22:29:23Z</time></trkpt>
<trkpt lat="46.170312417671084" lon="6.037463396787643"><ele></ele><time>2015-2-2T22:29:26Z</time></trkpt>
<trkpt lat="46.17005567997694" lon="6.036911029368639"><ele></ele><time>2015-2-2T22:29:29Z</time></trkpt>
<trkpt lat="46.169792236760259" lon="6.036317842081189"><ele></ele><time>2015-2-2T22:29:32Z</time></trkpt>
<trkpt lat="46.16953139193356" lon="6.035706214606762"><ele></ele><time>2015-2-2T22:29:35Z</time></trkpt>
<trkpt lat="46.169280940666795" lon="6.035097353160381"><ele></ele><time>2015-2-2T22:29:38Z</time></trkpt>
<trkpt lat="46.169034345075488" lon="6.034450018778443"><ele></ele><time>2015-2-2T22:29:41Z</time></trkpt>
<trkpt lat="46.16882236674428" lon="6.033868314698339"><ele></ele><time>2015-2-2T22:29:44Z</time></trkpt>
<trkpt lat="46.168617932125926" lon="6.033271942287684"><ele></ele><time>2015-2-2T22:29:47Z</time></trkpt>
<trkpt lat="46.168410899117589" lon="6.03266634978354"><ele></ele><time>2015-2-2T22:29:50Z</time></trkpt>
<trkpt lat="46.16820571012795" lon="6.032050112262368"><ele></ele><time>2015-2-2T22:29:53Z</time></trkpt>
<trkpt lat="46.168009741231799" lon="6.031440999358892"><ele></ele><time>2015-2-2T22:29:56Z</time></trkpt>
<trkpt lat="46.167814359068871" lon="6.030841693282127"><ele></ele><time>2015-2-2T22:29:59Z</time></trkpt>
<trkpt lat="46.167625850066543" lon="6.0302490927279"><ele></ele><time>2015-2-2T22:30:2Z</time></trkpt>
<trkpt lat="46.167436335235834" lon="6.029654731974006"><ele></ele><time>2015-2-2T22:30:5Z</time></trkpt>
<trkpt lat="46.167240366339684" lon="6.029070680961013"><ele></ele><time>2015-2-2T22:30:8Z</time></trkpt>
<trkpt lat="46.167013300582767" lon="6.028392920270562"><ele></ele><time>2015-2-2T22:30:11Z</time></trkpt>
<trkpt lat="46.166793862357736" lon="6.02773024700582"><ele></ele><time>2015-2-2T22:30:14Z</time></trkpt>
<trkpt lat="46.16657517850399" lon="6.027105543762445"><ele></ele><time>2015-2-2T22:30:17Z</time></trkpt>
<trkpt lat="46.166354566812515" lon="6.026480002328754"><ele></ele><time>2015-2-2T22:30:20Z</time></trkpt>
<trkpt lat="46.16612758487463" lon="6.02587248198688"><ele></ele><time>2015-2-2T22:30:23Z</time></trkpt>
<trkpt lat="46.166023733094335" lon="6.025274684652686"><ele></ele><time>2015-2-2T22:30:26Z</time></trkpt>
<trkpt lat="46.165727768093348" lon="6.02482533082366"><ele></ele><time>2015-2-2T22:30:29Z</time></trkpt>
<trkpt lat="46.165477819740772" lon="6.024180091917515"><ele></ele><time>2015-2-2T22:30:32Z</time></trkpt>
<trkpt lat="46.165229799225926" lon="6.023582462221384"><ele></ele><time>2015-2-2T22:30:35Z</time></trkpt>
<trkpt lat="46.164995692670345" lon="6.023018946871162"><ele></ele><time>2015-2-2T22:30:38Z</time></trkpt>
<trkpt lat="46.164739457890391" lon="6.022414863109589"><ele></ele><time>2015-2-2T22:30:41Z</time></trkpt>
<trkpt lat="46.164486072957516" lon="6.021810695528984"><ele></ele><time>2015-2-2T22:30:44Z</time></trkpt>
<trkpt lat="46.164237968623638" lon="6.02123050019145"><ele></ele><time>2015-2-2T22:30:47Z</time></trkpt>
<trkpt lat="46.163967065513134" lon="6.020573023706675"><ele></ele><time>2015-2-2T22:30:50Z</time></trkpt>
<trkpt lat="46.163727175444365" lon="6.020017135888338"><ele></ele><time>2015-2-2T22:30:53Z</time></trkpt>
<trkpt lat="46.163478568196297" lon="6.01944993250072"><ele></ele><time>2015-2-2T22:30:56Z</time></trkpt>
<trkpt lat="46.163243791088462" lon="6.01885967887938"><ele></ele><time>2015-2-2T22:30:59Z</time></trkpt>
<trkpt lat="46.163011780008674" lon="6.018303874880076"><ele></ele><time>2015-2-2T22:31:2Z</time></trkpt>
<trkpt lat="46.162835089489818" lon="6.017696857452393"><ele></ele><time>2015-2-2T22:31:5Z</time></trkpt>
<trkpt lat="46.162522109225392" lon="6.017196038737893"><ele></ele><time>2015-2-2T22:31:8Z</time></trkpt>
<trkpt lat="46.162277357652783" lon="6.016647024080157"><ele></ele><time>2015-2-2T22:31:11Z</time></trkpt>
<trkpt lat="46.162029420956969" lon="6.016043946146965"><ele></ele><time>2015-2-2T22:31:14Z</time></trkpt>
<trkpt lat="46.161751309409738" lon="6.015410022810102"><ele></ele><time>2015-2-2T22:31:17Z</time></trkpt>
<trkpt lat="46.161504965275526" lon="6.014826977625489"><ele></ele><time>2015-2-2T22:31:20Z</time></trkpt>
<trkpt lat="46.161248730495572" lon="6.014231946319342"><ele></ele><time>2015-2-2T22:31:23Z</time></trkpt>
<trkpt lat="46.16098428145051" lon="6.013603219762445"><ele></ele><time>2015-2-2T22:31:26Z</time></trkpt>
<trkpt lat="46.160710779950023" lon="6.012963764369488"><ele></ele><time>2015-2-2T22:31:29Z</time></trkpt>
<trkpt lat="46.160437697544694" lon="6.012330176308751"><ele></ele><time>2015-2-2T22:31:32Z</time></trkpt>
<trkpt lat="46.160171823576093" lon="6.011720225214958"><ele></ele><time>2015-2-2T22:31:35Z</time></trkpt>
<trkpt lat="46.159922126680613" lon="6.011121505871415"><ele></ele><time>2015-2-2T22:31:38Z</time></trkpt>
<trkpt lat="46.159678716212511" lon="6.010558158159256"><ele></ele><time>2015-2-2T22:31:41Z</time></trkpt>
<trkpt lat="46.159436898306012" lon="6.009988272562623"><ele></ele><time>2015-2-2T22:31:44Z</time></trkpt>
<trkpt lat="46.159187285229564" lon="6.009411010891199"><ele></ele><time>2015-2-2T22:31:47Z</time></trkpt>
<trkpt lat="46.158943455666304" lon="6.008833246305585"><ele></ele><time>2015-2-2T22:31:50Z</time></trkpt>
<trkpt lat="46.158698536455631" lon="6.008258499205113"><ele></ele><time>2015-2-2T22:31:53Z</time></trkpt>
<trkpt lat="46.158454120159149" lon="6.007678052410483"><ele></ele><time>2015-2-2T22:31:56Z</time></trkpt>
<trkpt lat="46.158201657235622" lon="6.007091738283634"><ele></ele><time>2015-2-2T22:31:59Z</time></trkpt>
<trkpt lat="46.157954139634967" lon="6.006526965647936"><ele></ele><time>2015-2-2T22:32:2Z</time></trkpt>
<trkpt lat="46.157687427476048" lon="6.00590318441391"><ele></ele><time>2015-2-2T22:32:5Z</time></trkpt>
<trkpt lat="46.157416105270386" lon="6.005257945507765"><ele></ele><time>2015-2-2T22:32:8Z</time></trkpt>
<trkpt lat="46.157169593498111" lon="6.004676157608628"><ele></ele><time>2015-2-2T22:32:11Z</time></trkpt>
<trkpt lat="46.156934229657054" lon="6.004120437428355"><ele></ele><time>2015-2-2T22:32:14Z</time></trkpt>
<trkpt lat="46.156666595488787" lon="6.003500847145915"><ele></ele><time>2015-2-2T22:32:17Z</time></trkpt>
<trkpt lat="46.156418826431036" lon="6.002875054255128"><ele></ele><time>2015-2-2T22:32:20Z</time></trkpt>
<trkpt lat="46.156175751239061" lon="6.002325871959329"><ele></ele><time>2015-2-2T22:32:23Z</time></trkpt>
<trkpt lat="46.155935442075133" lon="6.001687590032816"><ele></ele><time>2015-2-2T22:32:26Z</time></trkpt>
<trkpt lat="46.155719859525561" lon="6.001096917316318"><ele></ele><time>2015-2-2T22:32:29Z</time></trkpt>
<trkpt lat="46.15550042130053" lon="6.000481182709336"><ele></ele><time>2015-2-2T22:32:32Z</time></trkpt>
<trkpt lat="46.155296070501208" lon="5.999846756458283"><ele></ele><time>2015-2-2T22:32:35Z</time></trkpt>
<trkpt lat="46.155102867633104" lon="5.999238649383187"><ele></ele><time>2015-2-2T22:32:38Z</time></trkpt>
<trkpt lat="46.154925171285868" lon="5.998595505952835"><ele></ele><time>2015-2-2T22:32:41Z</time></trkpt>
<trkpt lat="46.154744205996394" lon="5.997954374179244"><ele></ele><time>2015-2-2T22:32:44Z</time></trkpt>
<trkpt lat="46.154569694772363" lon="5.997342662885785"><ele></ele><time>2015-2-2T22:32:47Z</time></trkpt>
<trkpt lat="46.154490485787392" lon="5.996612012386322"><ele></ele><time>2015-2-2T22:32:50Z</time></trkpt>
<trkpt lat="46.154561229050159" lon="5.995949003845453"><ele></ele><time>2015-2-2T22:32:53Z</time></trkpt>
<trkpt lat="46.154696680605412" lon="5.995268393307924"><ele></ele><time>2015-2-2T22:32:56Z</time></trkpt>
<trkpt lat="46.154826516285539" lon="5.994617370888591"><ele></ele><time>2015-2-2T22:32:59Z</time></trkpt>
<trkpt lat="46.154962470754981" lon="5.993924522772431"><ele></ele><time>2015-2-2T22:33:2Z</time></trkpt>
<trkpt lat="46.155139664188027" lon="5.99320468492806"><ele></ele><time>2015-2-2T22:33:5Z</time></trkpt>
<trkpt lat="46.155485501512885" lon="5.992626501247287"><ele></ele><time>2015-2-2T22:33:8Z</time></trkpt>
<trkpt lat="46.155850365757942" lon="5.992113780230284"><ele></ele><time>2015-2-2T22:33:11Z</time></trkpt>
<trkpt lat="46.156209781765938" lon="5.991611704230309"><ele></ele><time>2015-2-2T22:33:14Z</time></trkpt>
<trkpt lat="46.156458053737879" lon="5.991017175838351"><ele></ele><time>2015-2-2T22:33:17Z</time></trkpt>
<trkpt lat="46.156601887196302" lon="5.990335308015347"><ele></ele><time>2015-2-2T22:33:20Z</time></trkpt>
<trkpt lat="46.156625272706151" lon="5.989629719406366"><ele></ele><time>2015-2-2T22:33:23Z</time></trkpt>
<trkpt lat="46.15661496296525" lon="5.988935781642795"><ele></ele><time>2015-2-2T22:33:26Z</time></trkpt>
<trkpt lat="46.156600965186954" lon="5.988238994032145"><ele></ele><time>2015-2-2T22:33:29Z</time></trkpt>
<trkpt lat="46.156592415645719" lon="5.987547738477588"><ele></ele><time>2015-2-2T22:33:32Z</time></trkpt>
<trkpt lat="46.156591912731528" lon="5.986862936988473"><ele></ele><time>2015-2-2T22:33:35Z</time></trkpt>
<trkpt lat="46.156586715951562" lon="5.986185930669308"><ele></ele><time>2015-2-2T22:33:38Z</time></trkpt>
<trkpt lat="46.156577914953232" lon="5.985503643751144"><ele></ele><time>2015-2-2T22:33:41Z</time></trkpt>
<trkpt lat="46.156569952145219" lon="5.984825547784567"><ele></ele><time>2015-2-2T22:33:44Z</time></trkpt>
<trkpt lat="46.156558971852064" lon="5.984153151512146"><ele></ele><time>2015-2-2T22:33:47Z</time></trkpt>
<trkpt lat="46.156552517786622" lon="5.983490394428372"><ele></ele><time>2015-2-2T22:33:50Z</time></trkpt>
<trkpt lat="46.156504740938544" lon="5.982835097238421"><ele></ele><time>2015-2-2T22:33:53Z</time></trkpt>
<trkpt lat="46.156323188915849" lon="5.982231432572007"><ele></ele><time>2015-2-2T22:33:56Z</time></trkpt>
<trkpt lat="46.156048178672791" lon="5.981683507561684"><ele></ele><time>2015-2-2T22:33:59Z</time></trkpt>
<trkpt lat="46.15576570853591" lon="5.981114292517304"><ele></ele><time>2015-2-2T22:34:2Z</time></trkpt>
<trkpt lat="46.15547988563776" lon="5.980559242889285"><ele></ele><time>2015-2-2T22:34:5Z</time></trkpt>
<trkpt lat="46.155189368873835" lon="5.979995056986809"><ele></ele><time>2015-2-2T22:34:8Z</time></trkpt>
<trkpt lat="46.154869431629777" lon="5.979454172775149"><ele></ele><time>2015-2-2T22:34:11Z</time></trkpt>
<trkpt lat="46.15448403172195" lon="5.978934159502387"><ele></ele><time>2015-2-2T22:34:14Z</time></trkpt>
<trkpt lat="46.154043897986412" lon="5.978483883664012"><ele></ele><time>2015-2-2T22:34:17Z</time></trkpt>
<trkpt lat="46.153610972687602" lon="5.978065291419625"><ele></ele><time>2015-2-2T22:34:20Z</time></trkpt>
<trkpt lat="46.153201432898641" lon="5.977662038058043"><ele></ele><time>2015-2-2T22:34:23Z</time></trkpt>
<trkpt lat="46.152824331074953" lon="5.977279907092452"><ele></ele><time>2015-2-2T22:34:26Z</time></trkpt>
<trkpt lat="46.15243524312973" lon="5.976798450574279"><ele></ele><time>2015-2-2T22:34:29Z</time></trkpt>
<trkpt lat="46.152064260095358" lon="5.976285729557276"><ele></ele><time>2015-2-2T22:34:32Z</time></trkpt>
<trkpt lat="46.151709286496043" lon="5.975866885855794"><ele></ele><time>2015-2-2T22:34:35Z</time></trkpt>
<trkpt lat="46.151388762518764" lon="5.97538635134697"><ele></ele><time>2015-2-2T22:34:38Z</time></trkpt>
<trkpt lat="46.15107050165534" lon="5.974861225113273"><ele></ele><time>2015-2-2T22:34:41Z</time></trkpt>
<trkpt lat="46.150718880817294" lon="5.974380522966385"><ele></ele><time>2015-2-2T22:34:44Z</time></trkpt>
<trkpt lat="46.150384694337845" lon="5.973912477493286"><ele></ele><time>2015-2-2T22:34:47Z</time></trkpt>
<trkpt lat="46.150029385462403" lon="5.973451975733042"><ele></ele><time>2015-2-2T22:34:50Z</time></trkpt>
<trkpt lat="46.149687236174941" lon="5.973020978271961"><ele></ele><time>2015-2-2T22:34:53Z</time></trkpt>
<trkpt lat="46.149335531517863" lon="5.972539940848947"><ele></ele><time>2015-2-2T22:34:56Z</time></trkpt>
<trkpt lat="46.148985000327229" lon="5.972100226208568"><ele></ele><time>2015-2-2T22:34:59Z</time></trkpt>
<trkpt lat="46.148631451651454" lon="5.971669983118773"><ele></ele><time>2015-2-2T22:35:2Z</time></trkpt>
<trkpt lat="46.148295002058148" lon="5.971143264323473"><ele></ele><time>2015-2-2T22:35:5Z</time></trkpt>
<trkpt lat="46.147978417575359" lon="5.970665076747537"><ele></ele><time>2015-2-2T22:35:8Z</time></trkpt>
<trkpt lat="46.147653786465526" lon="5.97016048617661"><ele></ele><time>2015-2-2T22:35:11Z</time></trkpt>
<trkpt lat="46.147306356579065" lon="5.969670061022043"><ele></ele><time>2015-2-2T22:35:14Z</time></trkpt>
<trkpt lat="46.146881813183427" lon="5.969482306391001"><ele></ele><time>2015-2-2T22:35:17Z</time></trkpt>
<trkpt lat="46.146454336121678" lon="5.969843063503504"><ele></ele><time>2015-2-2T22:35:20Z</time></trkpt>
<trkpt lat="46.146054100245237" lon="5.970183201134205"><ele></ele><time>2015-2-2T22:35:23Z</time></trkpt>
<trkpt lat="46.145606003701687" lon="5.970266936346889"><ele></ele><time>2015-2-2T22:35:26Z</time></trkpt>
<trkpt lat="46.145149022340775" lon="5.970423929393292"><ele></ele><time>2015-2-2T22:35:29Z</time></trkpt>
<trkpt lat="46.144697656854987" lon="5.970694664865732"><ele></ele><time>2015-2-2T22:35:32Z</time></trkpt>
<trkpt lat="46.144288619980216" lon="5.971099343150854"><ele></ele><time>2015-2-2T22:35:35Z</time></trkpt>
<trkpt lat="46.143892155960202" lon="5.971531933173537"><ele></ele><time>2015-2-2T22:35:38Z</time></trkpt>
<trkpt lat="46.143444981426001" lon="5.97185698337853"><ele></ele><time>2015-2-2T22:35:41Z</time></trkpt>
<trkpt lat="46.143074417486787" lon="5.972264427691698"><ele></ele><time>2015-2-2T22:35:44Z</time></trkpt>
<trkpt lat="46.142634367570281" lon="5.972686959430575"><ele></ele><time>2015-2-2T22:35:47Z</time></trkpt>
<trkpt lat="46.142261540517211" lon="5.973065989091992"><ele></ele><time>2015-2-2T22:35:50Z</time></trkpt>
<trkpt lat="46.141785280779004" lon="5.97313916310668"><ele></ele><time>2015-2-2T22:35:53Z</time></trkpt>
<trkpt lat="46.141327042132616" lon="5.972938919439912"><ele></ele><time>2015-2-2T22:35:56Z</time></trkpt>
<trkpt lat="46.140947006642818" lon="5.972512951120734"><ele></ele><time>2015-2-2T22:35:59Z</time></trkpt>
<trkpt lat="46.140536712482572" lon="5.972206592559815"><ele></ele><time>2015-2-2T22:36:2Z</time></trkpt>
<trkpt lat="46.140133542940021" lon="5.971848936751485"><ele></ele><time>2015-2-2T22:36:5Z</time></trkpt>
<trkpt lat="46.139727439731359" lon="5.971462614834309"><ele></ele><time>2015-2-2T22:36:8Z</time></trkpt>
<trkpt lat="46.139389146119356" lon="5.971023067831993"><ele></ele><time>2015-2-2T22:36:11Z</time></trkpt>
<trkpt lat="46.139097707346082" lon="5.970479501411319"><ele></ele><time>2015-2-2T22:36:14Z</time></trkpt>
<trkpt lat="46.138787912204862" lon="5.969974994659424"><ele></ele><time>2015-2-2T22:36:17Z</time></trkpt>
<trkpt lat="46.138418857008219" lon="5.969598731026053"><ele></ele><time>2015-2-2T22:36:20Z</time></trkpt>
<trkpt lat="46.138021135702729" lon="5.969297988340259"><ele></ele><time>2015-2-2T22:36:23Z</time></trkpt>
<trkpt lat="46.13777831196785" lon="5.969650195911527"><ele></ele><time>2015-2-2T22:36:26Z</time></trkpt>
<trkpt lat="46.138119539245963" lon="5.970114637166262"><ele></ele><time>2015-2-2T22:36:29Z</time></trkpt>
<trkpt lat="46.138518853113055" lon="5.970432981848717"><ele></ele><time>2015-2-2T22:36:32Z</time></trkpt>
<trkpt lat="46.138762598857284" lon="5.970985097810626"><ele></ele><time>2015-2-2T22:36:35Z</time></trkpt>
<trkpt lat="46.138860331848264" lon="5.971624469384551"><ele></ele><time>2015-2-2T22:36:38Z</time></trkpt>
<trkpt lat="46.138653215020895" lon="5.972210951149464"><ele></ele><time>2015-2-2T22:36:41Z</time></trkpt>
<trkpt lat="46.138391951099038" lon="5.972745381295681"><ele></ele><time>2015-2-2T22:36:44Z</time></trkpt>
<trkpt lat="46.138077126815915" lon="5.973209235817194"><ele></ele><time>2015-2-2T22:36:47Z</time></trkpt>
<trkpt lat="46.137870261445642" lon="5.973789179697633"><ele></ele><time>2015-2-2T22:36:50Z</time></trkpt>
<trkpt lat="46.137766493484378" lon="5.974418912082911"><ele></ele><time>2015-2-2T22:36:53Z</time></trkpt>
<trkpt lat="46.137578403577209" lon="5.97500522620976"><ele></ele><time>2015-2-2T22:36:56Z</time></trkpt>
<trkpt lat="46.137136090546846" lon="5.975181665271521"><ele></ele><time>2015-2-2T22:36:59Z</time></trkpt>
<trkpt lat="46.136680953204632" lon="5.975285433232784"><ele></ele><time>2015-2-2T22:37:2Z</time></trkpt>
<trkpt lat="46.136218355968595" lon="5.975332455709577"><ele></ele><time>2015-2-2T22:37:5Z</time></trkpt>
<trkpt lat="46.135735223069787" lon="5.975413424894214"><ele></ele><time>2015-2-2T22:37:8Z</time></trkpt>
<trkpt lat="46.135291401296854" lon="5.975640742108226"><ele></ele><time>2015-2-2T22:37:11Z</time></trkpt>
<trkpt lat="46.134917233139277" lon="5.976069057360292"><ele></ele><time>2015-2-2T22:37:14Z</time></trkpt>
<trkpt lat="46.134523199871182" lon="5.976455714553595"><ele></ele><time>2015-2-2T22:37:17Z</time></trkpt>
<trkpt lat="46.134179374203086" lon="5.976885454729199"><ele></ele><time>2015-2-2T22:37:20Z</time></trkpt>
<trkpt lat="46.133815180510283" lon="5.977330533787608"><ele></ele><time>2015-2-2T22:37:23Z</time></trkpt>
<trkpt lat="46.133430367335677" lon="5.977659104391933"><ele></ele><time>2015-2-2T22:37:26Z</time></trkpt>
<trkpt lat="46.132975565269589" lon="5.977808889001608"><ele></ele><time>2015-2-2T22:37:29Z</time></trkpt>
<trkpt lat="46.132493438199162" lon="5.977915842086077"><ele></ele><time>2015-2-2T22:37:32Z</time></trkpt>
<trkpt lat="46.1320511251688" lon="5.978074092417955"><ele></ele><time>2015-2-2T22:37:35Z</time></trkpt>
<trkpt lat="46.131613506004214" lon="5.978307193145156"><ele></ele><time>2015-2-2T22:37:38Z</time></trkpt>
<trkpt lat="46.131200110539794" lon="5.978685300797224"><ele></ele><time>2015-2-2T22:37:41Z</time></trkpt>
<trkpt lat="46.130814207717776" lon="5.979045806452632"><ele></ele><time>2015-2-2T22:37:44Z</time></trkpt>
<trkpt lat="46.130411708727479" lon="5.979430451989174"><ele></ele><time>2015-2-2T22:37:47Z</time></trkpt>
<trkpt lat="46.130017507821321" lon="5.979784922674298"><ele></ele><time>2015-2-2T22:37:50Z</time></trkpt>
<trkpt lat="46.129621714353561" lon="5.980127742514014"><ele></ele><time>2015-2-2T22:37:53Z</time></trkpt>
<trkpt lat="46.129171773791313" lon="5.980254979804158"><ele></ele><time>2015-2-2T22:37:56Z</time></trkpt>
<trkpt lat="46.128744129091501" lon="5.980001091957092"><ele></ele><time>2015-2-2T22:37:59Z</time></trkpt>
<trkpt lat="46.128408014774323" lon="5.979546708986163"><ele></ele><time>2015-2-2T22:38:2Z</time></trkpt>
<trkpt lat="46.128061003983021" lon="5.979103138670325"><ele></ele><time>2015-2-2T22:38:5Z</time></trkpt>
<trkpt lat="46.127698654308915" lon="5.978707177564502"><ele></ele><time>2015-2-2T22:38:8Z</time></trkpt>
<trkpt lat="46.12732021138072" lon="5.978289674967527"><ele></ele><time>2015-2-2T22:38:11Z</time></trkpt>
<trkpt lat="46.126932883635163" lon="5.977877536788583"><ele></ele><time>2015-2-2T22:38:14Z</time></trkpt>
<trkpt lat="46.126547064632177" lon="5.977470260113478"><ele></ele><time>2015-2-2T22:38:17Z</time></trkpt>
<trkpt lat="46.126186978071928" lon="5.977076981216669"><ele></ele><time>2015-2-2T22:38:20Z</time></trkpt>
<trkpt lat="46.125813899561763" lon="5.976677751168609"><ele></ele><time>2015-2-2T22:38:23Z</time></trkpt>
<trkpt lat="46.125429421663284" lon="5.976278521120548"><ele></ele><time>2015-2-2T22:38:26Z</time></trkpt>
<trkpt lat="46.125036645680666" lon="5.975857833400369"><ele></ele><time>2015-2-2T22:38:29Z</time></trkpt>
<trkpt lat="46.124673122540116" lon="5.975459106266499"><ele></ele><time>2015-2-2T22:38:32Z</time></trkpt>
<trkpt lat="46.1242716293782" lon="5.975043699145317"><ele></ele><time>2015-2-2T22:38:35Z</time></trkpt>
<trkpt lat="46.123882038518786" lon="5.974666178226471"><ele></ele><time>2015-2-2T22:38:38Z</time></trkpt>
<trkpt lat="46.123516336083412" lon="5.974276084452868"><ele></ele><time>2015-2-2T22:38:41Z</time></trkpt>
<trkpt lat="46.123191118240356" lon="5.973755987361074"><ele></ele><time>2015-2-2T22:38:44Z</time></trkpt>
<trkpt lat="46.122874617576599" lon="5.973227759823203"><ele></ele><time>2015-2-2T22:38:47Z</time></trkpt>
<trkpt lat="46.122548393905163" lon="5.972689222544432"><ele></ele><time>2015-2-2T22:38:50Z</time></trkpt>
<trkpt lat="46.122219068929553" lon="5.97215018235147"><ele></ele><time>2015-2-2T22:38:53Z</time></trkpt>
<trkpt lat="46.121916901320219" lon="5.971649531275034"><ele></ele><time>2015-2-2T22:38:56Z</time></trkpt>
<trkpt lat="46.121568381786346" lon="5.971235549077392"><ele></ele><time>2015-2-2T22:38:59Z</time></trkpt>
<trkpt lat="46.12117619253695" lon="5.970908990129829"><ele></ele><time>2015-2-2T22:39:2Z</time></trkpt>
<trkpt lat="46.12072273157537" lon="5.970696592703462"><ele></ele><time>2015-2-2T22:39:5Z</time></trkpt>
<trkpt lat="46.120260637253523" lon="5.970617635175586"><ele></ele><time>2015-2-2T22:39:8Z</time></trkpt>
<trkpt lat="46.119782701134682" lon="5.970574887469411"><ele></ele><time>2015-2-2T22:39:11Z</time></trkpt>
<trkpt lat="46.119316751137376" lon="5.970475059002638"><ele></ele><time>2015-2-2T22:39:14Z</time></trkpt>
<trkpt lat="46.118852142244577" lon="5.970336422324181"><ele></ele><time>2015-2-2T22:39:17Z</time></trkpt>
<trkpt lat="46.118357526138425" lon="5.970187140628696"><ele></ele><time>2015-2-2T22:39:20Z</time></trkpt>
<trkpt lat="46.117907837033272" lon="5.970043810084462"><ele></ele><time>2015-2-2T22:39:23Z</time></trkpt>
<trkpt lat="46.117455046623945" lon="5.96990492194891"><ele></ele><time>2015-2-2T22:39:26Z</time></trkpt>
<trkpt lat="46.116987923160195" lon="5.969754634425044"><ele></ele><time>2015-2-2T22:39:29Z</time></trkpt>
<trkpt lat="46.11651468090713" lon="5.969613818451762"><ele></ele><time>2015-2-2T22:39:32Z</time></trkpt>
<trkpt lat="46.116050994023681" lon="5.969503009691834"><ele></ele><time>2015-2-2T22:39:35Z</time></trkpt>
<trkpt lat="46.115617314353585" lon="5.969296311959624"><ele></ele><time>2015-2-2T22:39:38Z</time></trkpt>
<trkpt lat="46.115200901404023" lon="5.969022642821074"><ele></ele><time>2015-2-2T22:39:41Z</time></trkpt>
<trkpt lat="46.114786416292191" lon="5.968753919005394"><ele></ele><time>2015-2-2T22:39:44Z</time></trkpt>
<trkpt lat="46.114317281171679" lon="5.968610839918256"><ele></ele><time>2015-2-2T22:39:47Z</time></trkpt>
<trkpt lat="46.113839261233807" lon="5.968758864328265"><ele></ele><time>2015-2-2T22:39:50Z</time></trkpt>
<trkpt lat="46.11339770257473" lon="5.96903714351356"><ele></ele><time>2015-2-2T22:39:53Z</time></trkpt>
<trkpt lat="46.112965615466237" lon="5.969326235353947"><ele></ele><time>2015-2-2T22:39:56Z</time></trkpt>
<trkpt lat="46.112561104819179" lon="5.96951843239367"><ele></ele><time>2015-2-2T22:39:59Z</time></trkpt>
<trkpt lat="46.112648611888289" lon="5.968840755522251"><ele></ele><time>2015-2-2T22:40:2Z</time></trkpt>
<trkpt lat="46.11271315254271" lon="5.968153355643153"><ele></ele><time>2015-2-2T22:40:5Z</time></trkpt>
<trkpt lat="46.112794708460569" lon="5.967461261898279"><ele></ele><time>2015-2-2T22:40:8Z</time></trkpt>
<trkpt lat="46.112658502534032" lon="5.966798420995474"><ele></ele><time>2015-2-2T22:40:11Z</time></trkpt>
<trkpt lat="46.11256948672235" lon="5.966142537072301"><ele></ele><time>2015-2-2T22:40:14Z</time></trkpt>
<trkpt lat="46.112312413752079" lon="5.965621350333095"><ele></ele><time>2015-2-2T22:40:17Z</time></trkpt>
<trkpt lat="46.111968839541078" lon="5.965170906856656"><ele></ele><time>2015-2-2T22:40:20Z</time></trkpt>
<trkpt lat="46.111622247844934" lon="5.964686600491405"><ele></ele><time>2015-2-2T22:40:23Z</time></trkpt>
<trkpt lat="46.111286887899041" lon="5.964180417358875"><ele></ele><time>2015-2-2T22:40:26Z</time></trkpt>
<trkpt lat="46.111019169911742" lon="5.963636599481106"><ele></ele><time>2015-2-2T22:40:29Z</time></trkpt>
<trkpt lat="46.110722031444311" lon="5.963121112436056"><ele></ele><time>2015-2-2T22:40:32Z</time></trkpt>
<trkpt lat="46.110259182751179" lon="5.963155142962933"><ele></ele><time>2015-2-2T22:40:35Z</time></trkpt>
<trkpt lat="46.109805889427662" lon="5.963373156264424"><ele></ele><time>2015-2-2T22:40:38Z</time></trkpt>
<trkpt lat="46.109346142038703" lon="5.963544817641377"><ele></ele><time>2015-2-2T22:40:41Z</time></trkpt>
<trkpt lat="46.108874324709177" lon="5.963623272255063"><ele></ele><time>2015-2-2T22:40:44Z</time></trkpt>
<trkpt lat="46.108490014448762" lon="5.963469548150897"><ele></ele><time>2015-2-2T22:40:47Z</time></trkpt>
<trkpt lat="46.108346516266465" lon="5.962812071666122"><ele></ele><time>2015-2-2T22:40:50Z</time></trkpt>
<trkpt lat="46.108227828517556" lon="5.962160127237439"><ele></ele><time>2015-2-2T22:40:53Z</time></trkpt>
<trkpt lat="46.108099836856127" lon="5.961515139788389"><ele></ele><time>2015-2-2T22:40:56Z</time></trkpt>
<trkpt lat="46.107991626486182" lon="5.960843749344349"><ele></ele><time>2015-2-2T22:40:59Z</time></trkpt>
<trkpt lat="46.107937060296535" lon="5.960131958127022"><ele></ele><time>2015-2-2T22:41:2Z</time></trkpt>
<trkpt lat="46.10790696926415" lon="5.9593974519521"><ele></ele><time>2015-2-2T22:41:5Z</time></trkpt>
<trkpt lat="46.107913674786687" lon="5.958720948547125"><ele></ele><time>2015-2-2T22:41:8Z</time></trkpt>
<trkpt lat="46.107924906536937" lon="5.958005385473371"><ele></ele><time>2015-2-2T22:41:11Z</time></trkpt>
<trkpt lat="46.10794560983777" lon="5.957340197637677"><ele></ele><time>2015-2-2T22:41:14Z</time></trkpt>
<trkpt lat="46.107974024489522" lon="5.956675512716174"><ele></ele><time>2015-2-2T22:41:17Z</time></trkpt>
<trkpt lat="46.107999673113227" lon="5.956020215526223"><ele></ele><time>2015-2-2T22:41:20Z</time></trkpt>
<trkpt lat="46.108044683933258" lon="5.955368271097541"><ele></ele><time>2015-2-2T22:41:23Z</time></trkpt>
<trkpt lat="46.108060609549284" lon="5.954694785177708"><ele></ele><time>2015-2-2T22:41:26Z</time></trkpt>
<trkpt lat="46.108067482709885" lon="5.954024652019143"><ele></ele><time>2015-2-2T22:41:29Z</time></trkpt>
<trkpt lat="46.108087515458465" lon="5.953364241868258"><ele></ele><time>2015-2-2T22:41:32Z</time></trkpt>
<trkpt lat="46.107924822717905" lon="5.952838277444243"><ele></ele><time>2015-2-2T22:41:35Z</time></trkpt>
<trkpt lat="46.107472535222769" lon="5.952625880017877"><ele></ele><time>2015-2-2T22:41:38Z</time></trkpt>
<trkpt lat="46.107030054554343" lon="5.95243695192039"><ele></ele><time>2015-2-2T22:41:41Z</time></trkpt>
<trkpt lat="46.106582963839173" lon="5.952177783474326"><ele></ele><time>2015-2-2T22:41:44Z</time></trkpt>
<trkpt lat="46.106137214228511" lon="5.951975528150797"><ele></ele><time>2015-2-2T22:41:47Z</time></trkpt>
<trkpt lat="46.105705294758081" lon="5.951786264777184"><ele></ele><time>2015-2-2T22:41:50Z</time></trkpt>
<trkpt lat="46.105257449671626" lon="5.951683335006237"><ele></ele><time>2015-2-2T22:41:53Z</time></trkpt>
<trkpt lat="46.104815807193518" lon="5.951532879844308"><ele></ele><time>2015-2-2T22:41:56Z</time></trkpt>
<trkpt lat="46.104363100603223" lon="5.951316962018609"><ele></ele><time>2015-2-2T22:41:59Z</time></trkpt>
<trkpt lat="46.10395347699523" lon="5.95100917853415"><ele></ele><time>2015-2-2T22:42:2Z</time></trkpt>
<trkpt lat="46.103557515889406" lon="5.950625706464052"><ele></ele><time>2015-2-2T22:42:5Z</time></trkpt>
<trkpt lat="46.103180581703782" lon="5.950271654874086"><ele></ele><time>2015-2-2T22:42:8Z</time></trkpt>
<trkpt lat="46.102786716073751" lon="5.94996739178896"><ele></ele><time>2015-2-2T22:42:11Z</time></trkpt>
<trkpt lat="46.102593848481774" lon="5.949388286098838"><ele></ele><time>2015-2-2T22:42:14Z</time></trkpt>
<trkpt lat="46.102441968396306" lon="5.948774982243776"><ele></ele><time>2015-2-2T22:42:17Z</time></trkpt>
<trkpt lat="46.102280868217349" lon="5.948100825771689"><ele></ele><time>2015-2-2T22:42:20Z</time></trkpt>
<trkpt lat="46.102155894041061" lon="5.947464806959033"><ele></ele><time>2015-2-2T22:42:23Z</time></trkpt>
<trkpt lat="46.102076936513186" lon="5.946758883073926"><ele></ele><time>2015-2-2T22:42:26Z</time></trkpt>
<trkpt lat="46.102039972320199" lon="5.946026975288987"><ele></ele><time>2015-2-2T22:42:29Z</time></trkpt>
<trkpt lat="46.1020727455616" lon="5.945367822423577"><ele></ele><time>2015-2-2T22:42:32Z</time></trkpt>
<trkpt lat="46.102159582078457" lon="5.944631388410926"><ele></ele><time>2015-2-2T22:42:35Z</time></trkpt>
<trkpt lat="46.102186823263764" lon="5.943978354334831"><ele></ele><time>2015-2-2T22:42:38Z</time></trkpt>
<trkpt lat="46.102256141602993" lon="5.943256923928857"><ele></ele><time>2015-2-2T22:42:41Z</time></trkpt>
<trkpt lat="46.102298134937882" lon="5.942552257329226"><ele></ele><time>2015-2-2T22:42:44Z</time></trkpt>
<trkpt lat="46.102086994796991" lon="5.941985892131925"><ele></ele><time>2015-2-2T22:42:47Z</time></trkpt>
<trkpt lat="46.101876609027386" lon="5.941402176395059"><ele></ele><time>2015-2-2T22:42:50Z</time></trkpt>
<trkpt lat="46.101789018139243" lon="5.940708322450519"><ele></ele><time>2015-2-2T22:42:53Z</time></trkpt>
<trkpt lat="46.101652225479484" lon="5.940051348879933"><ele></ele><time>2015-2-2T22:42:56Z</time></trkpt>
<trkpt lat="46.101350979879498" lon="5.939548937603831"><ele></ele><time>2015-2-2T22:42:59Z</time></trkpt>
<trkpt lat="46.101074879989028" lon="5.939026325941086"><ele></ele><time>2015-2-2T22:43:2Z</time></trkpt>
<trkpt lat="46.100885700434446" lon="5.93840061686933"><ele></ele><time>2015-2-2T22:43:5Z</time></trkpt>
<trkpt lat="46.10080623999238" lon="5.93774976208806"><ele></ele><time>2015-2-2T22:43:8Z</time></trkpt>
<trkpt lat="46.100722337141633" lon="5.937076779082418"><ele></ele><time>2015-2-2T22:43:11Z</time></trkpt>
<trkpt lat="46.100675147026777" lon="5.936433132737875"><ele></ele><time>2015-2-2T22:43:14Z</time></trkpt>
<trkpt lat="46.100415391847491" lon="5.935857212170959"><ele></ele><time>2015-2-2T22:43:17Z</time></trkpt>
<trkpt lat="46.100414134562016" lon="5.935158496722579"><ele></ele><time>2015-2-2T22:43:20Z</time></trkpt>
<trkpt lat="46.100656790658832" lon="5.934547372162342"><ele></ele><time>2015-2-2T22:43:23Z</time></trkpt>
<trkpt lat="46.100859297439456" lon="5.933912023901939"><ele></ele><time>2015-2-2T22:43:26Z</time></trkpt>
<trkpt lat="46.100957449525595" lon="5.933228982612491"><ele></ele><time>2015-2-2T22:43:29Z</time></trkpt>
<trkpt lat="46.101096672937274" lon="5.932530853897333"><ele></ele><time>2015-2-2T22:43:32Z</time></trkpt>
<trkpt lat="46.101270513609052" lon="5.931831384077668"><ele></ele><time>2015-2-2T22:43:35Z</time></trkpt>
<trkpt lat="46.101519875228405" lon="5.931288236752152"><ele></ele><time>2015-2-2T22:43:38Z</time></trkpt>
<trkpt lat="46.101460196077824" lon="5.930659174919128"><ele></ele><time>2015-2-2T22:43:41Z</time></trkpt>
<trkpt lat="46.101510403677821" lon="5.930001949891448"><ele></ele><time>2015-2-2T22:43:44Z</time></trkpt>
<trkpt lat="46.101567652076483" lon="5.929334666579962"><ele></ele><time>2015-2-2T22:43:47Z</time></trkpt>
<trkpt lat="46.101656416431069" lon="5.928673166781664"><ele></ele><time>2015-2-2T22:43:50Z</time></trkpt>
<trkpt lat="46.101806871592999" lon="5.928007308393717"><ele></ele><time>2015-2-2T22:43:53Z</time></trkpt>
<trkpt lat="46.101948861032724" lon="5.927359890192747"><ele></ele><time>2015-2-2T22:43:56Z</time></trkpt>
<trkpt lat="46.102157738059759" lon="5.926745664328337"><ele></ele><time>2015-2-2T22:43:59Z</time></trkpt>
<trkpt lat="46.102309869602323" lon="5.926427319645882"><ele></ele><time>2015-2-2T22:44:2Z</time></trkpt>
<trkpt lat="46.102657718583941" lon="5.925984084606171"><ele></ele><time>2015-2-2T22:44:5Z</time></trkpt>
<trkpt lat="46.102982517331839" lon="5.925516290590167"><ele></ele><time>2015-2-2T22:44:8Z</time></trkpt>
<trkpt lat="46.103303544223309" lon="5.925019159913063"><ele></ele><time>2015-2-2T22:44:11Z</time></trkpt>
<trkpt lat="46.103650471195579" lon="5.924477521330118"><ele></ele><time>2015-2-2T22:44:14Z</time></trkpt>
<trkpt lat="46.103982729837298" lon="5.923959100618959"><ele></ele><time>2015-2-2T22:44:17Z</time></trkpt>
<trkpt lat="46.104299565777183" lon="5.923456437885761"><ele></ele><time>2015-2-2T22:44:20Z</time></trkpt>
<trkpt lat="46.104633500799537" lon="5.922951512038708"><ele></ele><time>2015-2-2T22:44:23Z</time></trkpt>
<trkpt lat="46.104963915422559" lon="5.922432839870453"><ele></ele><time>2015-2-2T22:44:26Z</time></trkpt>
<trkpt lat="46.105295587331057" lon="5.921915592625737"><ele></ele><time>2015-2-2T22:44:29Z</time></trkpt>
<trkpt lat="46.105623571202159" lon="5.921411002054811"><ele></ele><time>2015-2-2T22:44:32Z</time></trkpt>
<trkpt lat="46.105939233675599" lon="5.920941783115268"><ele></ele><time>2015-2-2T22:44:35Z</time></trkpt>
<trkpt lat="46.106247771531343" lon="5.920459572225809"><ele></ele><time>2015-2-2T22:44:38Z</time></trkpt>
<trkpt lat="46.106583885848522" lon="5.919943833723664"><ele></ele><time>2015-2-2T22:44:41Z</time></trkpt>
<trkpt lat="46.106918072327971" lon="5.919460617005825"><ele></ele><time>2015-2-2T22:44:44Z</time></trkpt>
<trkpt lat="46.107203140854836" lon="5.918977735564113"><ele></ele><time>2015-2-2T22:44:47Z</time></trkpt>
<trkpt lat="46.107536237686872" lon="5.918535841628909"><ele></ele><time>2015-2-2T22:44:50Z</time></trkpt>
<trkpt lat="46.107868161052465" lon="5.918034436181188"><ele></ele><time>2015-2-2T22:44:53Z</time></trkpt>
<trkpt lat="46.108058765530586" lon="5.91759773902595"><ele></ele><time>2015-2-2T22:44:56Z</time></trkpt>
<trkpt lat="46.10821676440537" lon="5.91755130328238"><ele></ele><time>2015-2-2T22:44:59Z</time></trkpt>
<trkpt lat="46.108546257019043" lon="5.917038079351187"><ele></ele><time>2015-2-2T22:45:2Z</time></trkpt>
<trkpt lat="46.108864434063435" lon="5.91650415211916"><ele></ele><time>2015-2-2T22:45:5Z</time></trkpt>
<trkpt lat="46.109131313860416" lon="5.915975924581289"><ele></ele><time>2015-2-2T22:45:8Z</time></trkpt>
<trkpt lat="46.109415963292122" lon="5.915452558547258"><ele></ele><time>2015-2-2T22:45:11Z</time></trkpt>
<trkpt lat="46.109699858352542" lon="5.914883846417069"><ele></ele><time>2015-2-2T22:45:14Z</time></trkpt>
<trkpt lat="46.109923738986254" lon="5.914293173700571"><ele></ele><time>2015-2-2T22:45:17Z</time></trkpt>
<trkpt lat="46.110077043995261" lon="5.913603091612458"><ele></ele><time>2015-2-2T22:45:20Z</time></trkpt>
<trkpt lat="46.110201515257359" lon="5.912881745025516"><ele></ele><time>2015-2-2T22:45:23Z</time></trkpt>
<trkpt lat="46.110317436978221" lon="5.912231644615531"><ele></ele><time>2015-2-2T22:45:26Z</time></trkpt>
<trkpt lat="46.110434364527464" lon="5.911575090140104"><ele></ele><time>2015-2-2T22:45:29Z</time></trkpt>
<trkpt lat="46.110544921830297" lon="5.910921469330788"><ele></ele><time>2015-2-2T22:45:32Z</time></trkpt>
<trkpt lat="46.110659083351493" lon="5.910293748602271"><ele></ele><time>2015-2-2T22:45:35Z</time></trkpt>
<trkpt lat="46.11076888628304" lon="5.909657310694456"><ele></ele><time>2015-2-2T22:45:38Z</time></trkpt>
<trkpt lat="46.110958904027939" lon="5.90897343121469"><ele></ele><time>2015-2-2T22:45:41Z</time></trkpt>
<trkpt lat="46.111222431063652" lon="5.908341854810715"><ele></ele><time>2015-2-2T22:45:44Z</time></trkpt>
<trkpt lat="46.111459890380502" lon="5.907784542068839"><ele></ele><time>2015-2-2T22:45:47Z</time></trkpt>
<trkpt lat="46.111717633903027" lon="5.907223708927631"><ele></ele><time>2015-2-2T22:45:50Z</time></trkpt>
<trkpt lat="46.112016281113029" lon="5.90671299956739"><ele></ele><time>2015-2-2T22:45:53Z</time></trkpt>
<trkpt lat="46.11241458915174" lon="5.906233554705977"><ele></ele><time>2015-2-2T22:45:56Z</time></trkpt>
<trkpt lat="46.112803677096963" lon="5.905766766518354"><ele></ele><time>2015-2-2T22:45:59Z</time></trkpt>
<trkpt lat="46.113191172480583" lon="5.905309952795506"><ele></ele><time>2015-2-2T22:46:2Z</time></trkpt>
<trkpt lat="46.113571710884571" lon="5.904829753562808"><ele></ele><time>2015-2-2T22:46:5Z</time></trkpt>
<trkpt lat="46.113922912627459" lon="5.904367910698056"><ele></ele><time>2015-2-2T22:46:8Z</time></trkpt>
<trkpt lat="46.114246118813753" lon="5.903913779184222"><ele></ele><time>2015-2-2T22:46:11Z</time></trkpt>
<trkpt lat="46.114624897018075" lon="5.903550339862704"><ele></ele><time>2015-2-2T22:46:14Z</time></trkpt>
<trkpt lat="46.115036951377988" lon="5.903175920248032"><ele></ele><time>2015-2-2T22:46:17Z</time></trkpt>
<trkpt lat="46.115430314093828" lon="5.90282547287643"><ele></ele><time>2015-2-2T22:46:20Z</time></trkpt>
<trkpt lat="46.115868771448731" lon="5.902429344132543"><ele></ele><time>2015-2-2T22:46:23Z</time></trkpt>
<trkpt lat="46.116306977346539" lon="5.902043525129557"><ele></ele><time>2015-2-2T22:46:26Z</time></trkpt>
<trkpt lat="46.116705369204283" lon="5.901696095243096"><ele></ele><time>2015-2-2T22:46:29Z</time></trkpt>
<trkpt lat="46.117131672799587" lon="5.901372721418738"><ele></ele><time>2015-2-2T22:46:32Z</time></trkpt>
<trkpt lat="46.117313811555505" lon="5.900846589356661"><ele></ele><time>2015-2-2T22:46:35Z</time></trkpt>
<trkpt lat="46.117086494341493" lon="5.900288354605436"><ele></ele><time>2015-2-2T22:46:38Z</time></trkpt>
<trkpt lat="46.117039136588573" lon="5.899584358558059"><ele></ele><time>2015-2-2T22:46:41Z</time></trkpt>
<trkpt lat="46.117068892344832" lon="5.898904837667942"><ele></ele><time>2015-2-2T22:46:44Z</time></trkpt>
<trkpt lat="46.117275003343821" lon="5.898169660940766"><ele></ele><time>2015-2-2T22:46:47Z</time></trkpt>
<trkpt lat="46.117379441857338" lon="5.897423587739468"><ele></ele><time>2015-2-2T22:46:50Z</time></trkpt>
<trkpt lat="46.117346920073032" lon="5.896749598905444"><ele></ele><time>2015-2-2T22:46:53Z</time></trkpt>
<trkpt lat="46.117476671934128" lon="5.896089607849717"><ele></ele><time>2015-2-2T22:46:56Z</time></trkpt>
<trkpt lat="46.117601646110415" lon="5.895393323153257"><ele></ele><time>2015-2-2T22:46:59Z</time></trkpt>
<trkpt lat="46.117705665528774" lon="5.894696703180671"><ele></ele><time>2015-2-2T22:47:2Z</time></trkpt>
<trkpt lat="46.117568453773856" lon="5.894045848399401"><ele></ele><time>2015-2-2T22:47:5Z</time></trkpt>
<trkpt lat="46.11709420569241" lon="5.893731946125627"><ele></ele><time>2015-2-2T22:47:8Z</time></trkpt>
<trkpt lat="46.116649378091097" lon="5.893429024145007"><ele></ele><time>2015-2-2T22:47:11Z</time></trkpt>
<trkpt lat="46.116170603781939" lon="5.893162647262216"><ele></ele><time>2015-2-2T22:47:14Z</time></trkpt>
<trkpt lat="46.115677412599325" lon="5.893081007525325"><ele></ele><time>2015-2-2T22:47:17Z</time></trkpt>
<trkpt lat="46.115219173952937" lon="5.89300992898643"><ele></ele><time>2015-2-2T22:47:20Z</time></trkpt>
<trkpt lat="46.114695891737938" lon="5.892952010035515"><ele></ele><time>2015-2-2T22:47:23Z</time></trkpt>
<trkpt lat="46.114244107156992" lon="5.892651686444879"><ele></ele><time>2015-2-2T22:47:26Z</time></trkpt>
<trkpt lat="46.113840602338314" lon="5.892276093363762"><ele></ele><time>2015-2-2T22:47:29Z</time></trkpt>
<trkpt lat="46.113366102799773" lon="5.892161261290312"><ele></ele><time>2015-2-2T22:47:32Z</time></trkpt>
<trkpt lat="46.112857153639197" lon="5.892118848860264"><ele></ele><time>2015-2-2T22:47:35Z</time></trkpt>
<trkpt lat="46.112358011305332" lon="5.891864877194166"><ele></ele><time>2015-2-2T22:47:38Z</time></trkpt>
<trkpt lat="46.111841853708029" lon="5.891653737053275"><ele></ele><time>2015-2-2T22:47:41Z</time></trkpt>
<trkpt lat="46.111380849033594" lon="5.89155089110136"><ele></ele><time>2015-2-2T22:47:44Z</time></trkpt>
<trkpt lat="46.110924873501062" lon="5.891457600519061"><ele></ele><time>2015-2-2T22:47:47Z</time></trkpt>
<trkpt lat="46.110412403941154" lon="5.891263224184513"><ele></ele><time>2015-2-2T22:47:50Z</time></trkpt>
<trkpt lat="46.109975036233664" lon="5.891056945547462"><ele></ele><time>2015-2-2T22:47:53Z</time></trkpt>
<trkpt lat="46.109459549188614" lon="5.890848571434617"><ele></ele><time>2015-2-2T22:47:56Z</time></trkpt>
<trkpt lat="46.109021259471774" lon="5.890694679692388"><ele></ele><time>2015-2-2T22:47:59Z</time></trkpt>
<trkpt lat="46.108585819602013" lon="5.89044070802629"><ele></ele><time>2015-2-2T22:48:2Z</time></trkpt>
<trkpt lat="46.108129341155291" lon="5.890301149338484"><ele></ele><time>2015-2-2T22:48:5Z</time></trkpt>
<trkpt lat="46.10767588019371" lon="5.890192268416286"><ele></ele><time>2015-2-2T22:48:8Z</time></trkpt>
<trkpt lat="46.10716768540442" lon="5.890107695013285"><ele></ele><time>2015-2-2T22:48:11Z</time></trkpt>
<trkpt lat="46.106750098988414" lon="5.890542799606919"><ele></ele><time>2015-2-2T22:48:14Z</time></trkpt>
<trkpt lat="46.106344666332006" lon="5.890936078503728"><ele></ele><time>2015-2-2T22:48:17Z</time></trkpt>
<trkpt lat="46.105953985825181" lon="5.891353832557797"><ele></ele><time>2015-2-2T22:48:20Z</time></trkpt>
<trkpt lat="46.105570262297988" lon="5.891782231628895"><ele></ele><time>2015-2-2T22:48:23Z</time></trkpt>
<trkpt lat="46.105191064998507" lon="5.89221004396677"><ele></ele><time>2015-2-2T22:48:26Z</time></trkpt>
<trkpt lat="46.104839611798525" lon="5.892625031992793"><ele></ele><time>2015-2-2T22:48:29Z</time></trkpt>
<trkpt lat="46.104450523853302" lon="5.893014119938016"><ele></ele><time>2015-2-2T22:48:32Z</time></trkpt>
<trkpt lat="46.104047102853656" lon="5.893373871222138"><ele></ele><time>2015-2-2T22:48:35Z</time></trkpt>
<trkpt lat="46.103691961616278" lon="5.893780561164022"><ele></ele><time>2015-2-2T22:48:38Z</time></trkpt>
<trkpt lat="46.103338245302439" lon="5.894248355180025"><ele></ele><time>2015-2-2T22:48:41Z</time></trkpt>
<trkpt lat="46.102972039952874" lon="5.894633084535599"><ele></ele><time>2015-2-2T22:48:44Z</time></trkpt>
<trkpt lat="46.102610025554895" lon="5.895041786134243"><ele></ele><time>2015-2-2T22:48:47Z</time></trkpt>
<trkpt lat="46.102287573739886" lon="5.895503545179963"><ele></ele><time>2015-2-2T22:48:50Z</time></trkpt>
<trkpt lat="46.101855570450425" lon="5.895797917619348"><ele></ele><time>2015-2-2T22:48:53Z</time></trkpt>
<trkpt lat="46.101421806961298" lon="5.896083321422339"><ele></ele><time>2015-2-2T22:48:56Z</time></trkpt>
<trkpt lat="46.101066246628761" lon="5.896485233679414"><ele></ele><time>2015-2-2T22:48:59Z</time></trkpt>
<trkpt lat="46.100638853386045" lon="5.896762674674392"><ele></ele><time>2015-2-2T22:49:2Z</time></trkpt>
<trkpt lat="46.100194528698921" lon="5.897022765129805"><ele></ele><time>2015-2-2T22:49:5Z</time></trkpt>
<trkpt lat="46.099757747724652" lon="5.897302301600575"><ele></ele><time>2015-2-2T22:49:8Z</time></trkpt>
<trkpt lat="46.099332701414824" lon="5.897575132548809"><ele></ele><time>2015-2-2T22:49:11Z</time></trkpt>
<trkpt lat="46.098907738924026" lon="5.89786539785564"><ele></ele><time>2015-2-2T22:49:14Z</time></trkpt>
<trkpt lat="46.098484033718705" lon="5.898090368136764"><ele></ele><time>2015-2-2T22:49:17Z</time></trkpt>
<trkpt lat="46.0980283934623" lon="5.898166391998529"><ele></ele><time>2015-2-2T22:49:20Z</time></trkpt>
<trkpt lat="46.097573339939117" lon="5.898279631510377"><ele></ele><time>2015-2-2T22:49:23Z</time></trkpt>
<trkpt lat="46.097133122384548" lon="5.898493621498346"><ele></ele><time>2015-2-2T22:49:26Z</time></trkpt>
<trkpt lat="46.096684774383903" lon="5.898630833253264"><ele></ele><time>2015-2-2T22:49:29Z</time></trkpt>
<trkpt lat="46.096236258745193" lon="5.89871808886528"><ele></ele><time>2015-2-2T22:49:32Z</time></trkpt>
<trkpt lat="46.095764022320509" lon="5.898704677820206"><ele></ele><time>2015-2-2T22:49:35Z</time></trkpt>
<trkpt lat="46.095294216647744" lon="5.898647848516703"><ele></ele><time>2015-2-2T22:49:38Z</time></trkpt>
<trkpt lat="46.094867158681154" lon="5.898536704480648"><ele></ele><time>2015-2-2T22:49:41Z</time></trkpt>
<trkpt lat="46.094400873407722" lon="5.898460429161787"><ele></ele><time>2015-2-2T22:49:44Z</time></trkpt>
<trkpt lat="46.093941126018763" lon="5.898661008104682"><ele></ele><time>2015-2-2T22:49:47Z</time></trkpt>
<trkpt lat="46.093507613986731" lon="5.898933336138725"><ele></ele><time>2015-2-2T22:49:50Z</time></trkpt>
<trkpt lat="46.0930619481951" lon="5.898997122421861"><ele></ele><time>2015-2-2T22:49:53Z</time></trkpt>
<trkpt lat="46.09258602373302" lon="5.899140201508999"><ele></ele><time>2015-2-2T22:49:56Z</time></trkpt>
<trkpt lat="46.092158881947398" lon="5.899400878697634"><ele></ele><time>2015-2-2T22:49:59Z</time></trkpt>
<trkpt lat="46.091730650514364" lon="5.899649150669575"><ele></ele><time>2015-2-2T22:50:2Z</time></trkpt>
<trkpt lat="46.091290432959795" lon="5.899919215589762"><ele></ele><time>2015-2-2T22:50:5Z</time></trkpt>
<trkpt lat="46.090836552903056" lon="5.900144521147013"><ele></ele><time>2015-2-2T22:50:8Z</time></trkpt>
<trkpt lat="46.090370519086719" lon="5.900157429277897"><ele></ele><time>2015-2-2T22:50:11Z</time></trkpt>
<trkpt lat="46.089917812496424" lon="5.90012826025486"><ele></ele><time>2015-2-2T22:50:14Z</time></trkpt>
<trkpt lat="46.089441636577249" lon="5.90018785558641"><ele></ele><time>2015-2-2T22:50:17Z</time></trkpt>
<trkpt lat="46.088984739035368" lon="5.900244852527976"><ele></ele><time>2015-2-2T22:50:20Z</time></trkpt>
<trkpt lat="46.088506719097495" lon="5.900259520858526"><ele></ele><time>2015-2-2T22:50:23Z</time></trkpt>
<trkpt lat="46.088057365268469" lon="5.900167739018798"><ele></ele><time>2015-2-2T22:50:26Z</time></trkpt>
<trkpt lat="46.087595606222749" lon="5.900030862540007"><ele></ele><time>2015-2-2T22:50:29Z</time></trkpt>
<trkpt lat="46.087111635133624" lon="5.899956598877907"><ele></ele><time>2015-2-2T22:50:32Z</time></trkpt>
<trkpt lat="46.086644008755684" lon="5.899908319115639"><ele></ele><time>2015-2-2T22:50:35Z</time></trkpt>
<trkpt lat="46.086172442883253" lon="5.899935895577073"><ele></ele><time>2015-2-2T22:50:38Z</time></trkpt>
<trkpt lat="46.085720071569085" lon="5.900086266919971"><ele></ele><time>2015-2-2T22:50:41Z</time></trkpt>
<trkpt lat="46.085304077714682" lon="5.900286762043834"><ele></ele><time>2015-2-2T22:50:44Z</time></trkpt>
<trkpt lat="46.084967292845249" lon="5.900756902992725"><ele></ele><time>2015-2-2T22:50:47Z</time></trkpt>
<trkpt lat="46.084692366421223" lon="5.901264427229762"><ele></ele><time>2015-2-2T22:50:50Z</time></trkpt>
<trkpt lat="46.08432088047266" lon="5.901688048616052"><ele></ele><time>2015-2-2T22:50:53Z</time></trkpt>
<trkpt lat="46.083871275186539" lon="5.901599284261465"><ele></ele><time>2015-2-2T22:50:56Z</time></trkpt>
<trkpt lat="46.083453185856342" lon="5.901318490505219"><ele></ele><time>2015-2-2T22:50:59Z</time></trkpt>
<trkpt lat="46.083033587783575" lon="5.901006516069174"><ele></ele><time>2015-2-2T22:51:2Z</time></trkpt>
<trkpt lat="46.082598147913814" lon="5.900813983753324"><ele></ele><time>2015-2-2T22:51:5Z</time></trkpt>
<trkpt lat="46.082149129360914" lon="5.900797303766012"><ele></ele><time>2015-2-2T22:51:8Z</time></trkpt>
<trkpt lat="46.081703463569283" lon="5.900855306535959"><ele></ele><time>2015-2-2T22:51:11Z</time></trkpt>
<trkpt lat="46.081374557688832" lon="5.901322932913899"><ele></ele><time>2015-2-2T22:51:14Z</time></trkpt>
<trkpt lat="46.081117400899529" lon="5.901873456314206"><ele></ele><time>2015-2-2T22:51:17Z</time></trkpt>
<trkpt lat="46.080659832805395" lon="5.901784775778651"><ele></ele><time>2015-2-2T22:51:20Z</time></trkpt>
<trkpt lat="46.080213999375701" lon="5.901605822145939"><ele></ele><time>2015-2-2T22:51:23Z</time></trkpt>
<trkpt lat="46.079768920317292" lon="5.901493085548282"><ele></ele><time>2015-2-2T22:51:26Z</time></trkpt>
<trkpt lat="46.07931294478476" lon="5.901537509635091"><ele></ele><time>2015-2-2T22:51:29Z</time></trkpt>
<trkpt lat="46.07886241748929" lon="5.901597859337926"><ele></ele><time>2015-2-2T22:51:32Z</time></trkpt>
<trkpt lat="46.078393785282969" lon="5.901662735268474"><ele></ele><time>2015-2-2T22:51:35Z</time></trkpt>
<trkpt lat="46.077923979610205" lon="5.9017045609653"><ele></ele><time>2015-2-2T22:51:38Z</time></trkpt>
<trkpt lat="46.077458700165153" lon="5.901692910119891"><ele></ele><time>2015-2-2T22:51:41Z</time></trkpt>
<trkpt lat="46.077018650248647" lon="5.901473220437765"><ele></ele><time>2015-2-2T22:51:44Z</time></trkpt>
<trkpt lat="46.076594945043325" lon="5.901229474693537"><ele></ele><time>2015-2-2T22:51:47Z</time></trkpt>
<trkpt lat="46.076155565679073" lon="5.90098874643445"><ele></ele><time>2015-2-2T22:51:50Z</time></trkpt>
<trkpt lat="46.075689615681767" lon="5.900925965979695"><ele></ele><time>2015-2-2T22:51:53Z</time></trkpt>
<trkpt lat="46.075246967375278" lon="5.900842901319265"><ele></ele><time>2015-2-2T22:51:56Z</time></trkpt>
<trkpt lat="46.07476869598031" lon="5.900857402011752"><ele></ele><time>2015-2-2T22:51:59Z</time></trkpt>
<trkpt lat="46.074273912236094" lon="5.900774588808417"><ele></ele><time>2015-2-2T22:52:2Z</time></trkpt>
<trkpt lat="46.073863031342626" lon="5.900448113679886"><ele></ele><time>2015-2-2T22:52:5Z</time></trkpt>
<trkpt lat="46.073450306430459" lon="5.900087188929319"><ele></ele><time>2015-2-2T22:52:8Z</time></trkpt>
<trkpt lat="46.073114359751344" lon="5.899661052972078"><ele></ele><time>2015-2-2T22:52:11Z</time></trkpt>
<trkpt lat="46.072844546288252" lon="5.899098459631205"><ele></ele><time>2015-2-2T22:52:14Z</time></trkpt>
<trkpt lat="46.072530811652541" lon="5.898509295657277"><ele></ele><time>2015-2-2T22:52:17Z</time></trkpt>
<trkpt lat="46.07213007286191" lon="5.898011913523078"><ele></ele><time>2015-2-2T22:52:20Z</time></trkpt>
<trkpt lat="46.07167367823422" lon="5.897569768130779"><ele></ele><time>2015-2-2T22:52:23Z</time></trkpt>
<trkpt lat="46.071292720735073" lon="5.89720725081861"><ele></ele><time>2015-2-2T22:52:26Z</time></trkpt>
<trkpt lat="46.070887707173824" lon="5.896909357979894"><ele></ele><time>2015-2-2T22:52:29Z</time></trkpt>
<trkpt lat="46.070436928421259" lon="5.89698689058423"><ele></ele><time>2015-2-2T22:52:32Z</time></trkpt>
<trkpt lat="46.070004422217607" lon="5.897173136472702"><ele></ele><time>2015-2-2T22:52:35Z</time></trkpt>
<trkpt lat="46.069457670673728" lon="5.897332476451993"><ele></ele><time>2015-2-2T22:52:38Z</time></trkpt>
<trkpt lat="46.068998761475086" lon="5.897356029599905"><ele></ele><time>2015-2-2T22:52:41Z</time></trkpt>
<trkpt lat="46.068529961630702" lon="5.897399112582207"><ele></ele><time>2015-2-2T22:52:44Z</time></trkpt>
<trkpt lat="46.068045487627387" lon="5.897442363202572"><ele></ele><time>2015-2-2T22:52:47Z</time></trkpt>
<trkpt lat="46.067577274516225" lon="5.897618802264333"><ele></ele><time>2015-2-2T22:52:50Z</time></trkpt>
<trkpt lat="46.067119119688869" lon="5.897864056751132"><ele></ele><time>2015-2-2T22:52:53Z</time></trkpt>
<trkpt lat="46.066624755039811" lon="5.897854836657643"><ele></ele><time>2015-2-2T22:52:56Z</time></trkpt>
<trkpt lat="46.066138185560703" lon="5.897743105888367"><ele></ele><time>2015-2-2T22:52:59Z</time></trkpt>
<trkpt lat="46.065668212249875" lon="5.897643277421594"><ele></ele><time>2015-2-2T22:53:2Z</time></trkpt>
<trkpt lat="46.065198574215174" lon="5.897261565551162"><ele></ele><time>2015-2-2T22:53:5Z</time></trkpt>
<trkpt lat="46.064877463504672" lon="5.896789664402604"><ele></ele><time>2015-2-2T22:53:8Z</time></trkpt>
<trkpt lat="46.064548473805189" lon="5.89618256315589"><ele></ele><time>2015-2-2T22:53:11Z</time></trkpt>
<trkpt lat="46.064378572627902" lon="5.895545454695821"><ele></ele><time>2015-2-2T22:53:14Z</time></trkpt>
<trkpt lat="46.064219148829579" lon="5.894930977374315"><ele></ele><time>2015-2-2T22:53:17Z</time></trkpt>
<trkpt lat="46.064064251258969" lon="5.894304597750306"><ele></ele><time>2015-2-2T22:53:20Z</time></trkpt>
<trkpt lat="46.063886051997542" lon="5.893638739362359"><ele></ele><time>2015-2-2T22:53:23Z</time></trkpt>
<trkpt lat="46.063710283488035" lon="5.89296055957675"><ele></ele><time>2015-2-2T22:53:26Z</time></trkpt>
<trkpt lat="46.063545327633619" lon="5.892324959859252"><ele></ele><time>2015-2-2T22:53:29Z</time></trkpt>
<trkpt lat="46.063409959897399" lon="5.891672931611538"><ele></ele><time>2015-2-2T22:53:32Z</time></trkpt>
<trkpt lat="46.063213320448995" lon="5.89102509431541"><ele></ele><time>2015-2-2T22:53:35Z</time></trkpt>
<trkpt lat="46.063052555546165" lon="5.890361750498414"><ele></ele><time>2015-2-2T22:53:38Z</time></trkpt>
<trkpt lat="46.062888270244002" lon="5.88975909166038"><ele></ele><time>2015-2-2T22:53:41Z</time></trkpt>
<trkpt lat="46.062736809253693" lon="5.889133047312498"><ele></ele><time>2015-2-2T22:53:44Z</time></trkpt>
<trkpt lat="46.062662964686751" lon="5.888480516150594"><ele></ele><time>2015-2-2T22:53:47Z</time></trkpt>
<trkpt lat="46.062633711844683" lon="5.887811137363315"><ele></ele><time>2015-2-2T22:53:50Z</time></trkpt>
<trkpt lat="46.06260085478425" lon="5.88714393787086"><ele></ele><time>2015-2-2T22:53:53Z</time></trkpt>
<trkpt lat="46.062555927783251" lon="5.886448323726654"><ele></ele><time>2015-2-2T22:53:56Z</time></trkpt>
<trkpt lat="46.062527764588594" lon="5.885752206668258"><ele></ele><time>2015-2-2T22:53:59Z</time></trkpt>
<trkpt lat="46.062505887821317" lon="5.8850990049541"><ele></ele><time>2015-2-2T22:54:2Z</time></trkpt>
<trkpt lat="46.062460541725159" lon="5.884425519034267"><ele></ele><time>2015-2-2T22:54:5Z</time></trkpt>
<trkpt lat="46.062416704371572" lon="5.883750524371862"><ele></ele><time>2015-2-2T22:54:8Z</time></trkpt>
<trkpt lat="46.062382841482759" lon="5.883048791438341"><ele></ele><time>2015-2-2T22:54:11Z</time></trkpt>
<trkpt lat="46.062345877289772" lon="5.882369270548224"><ele></ele><time>2015-2-2T22:54:14Z</time></trkpt>
<trkpt lat="46.062306901440024" lon="5.88172210380435"><ele></ele><time>2015-2-2T22:54:17Z</time></trkpt>
<trkpt lat="46.062276307493448" lon="5.881035793572664"><ele></ele><time>2015-2-2T22:54:20Z</time></trkpt>
<trkpt lat="46.062231548130512" lon="5.880362894386053"><ele></ele><time>2015-2-2T22:54:23Z</time></trkpt>
<trkpt lat="46.062193494290113" lon="5.879706256091595"><ele></ele><time>2015-2-2T22:54:26Z</time></trkpt>
<trkpt lat="46.062160888686776" lon="5.879033021628857"><ele></ele><time>2015-2-2T22:54:29Z</time></trkpt>
<trkpt lat="46.062121577560902" lon="5.878377640619874"><ele></ele><time>2015-2-2T22:54:32Z</time></trkpt>
<trkpt lat="46.062087547034025" lon="5.877717062830925"><ele></ele><time>2015-2-2T22:54:35Z</time></trkpt>
<trkpt lat="46.062044044956565" lon="5.877046175301075"><ele></ele><time>2015-2-2T22:54:38Z</time></trkpt>
<trkpt lat="46.062008840963244" lon="5.876387022435665"><ele></ele><time>2015-2-2T22:54:41Z</time></trkpt>
<trkpt lat="46.061965171247721" lon="5.87571244686842"><ele></ele><time>2015-2-2T22:54:44Z</time></trkpt>
<trkpt lat="46.061928123235703" lon="5.87500979192555"><ele></ele><time>2015-2-2T22:54:47Z</time></trkpt>
<trkpt lat="46.061885040253401" lon="5.874339155852795"><ele></ele><time>2015-2-2T22:54:50Z</time></trkpt>
<trkpt lat="46.061847237870097" lon="5.873648738488555"><ele></ele><time>2015-2-2T22:54:53Z</time></trkpt>
<trkpt lat="46.061811363324523" lon="5.872981119900942"><ele></ele><time>2015-2-2T22:54:56Z</time></trkpt>
<trkpt lat="46.061770711094141" lon="5.872269999235869"><ele></ele><time>2015-2-2T22:54:59Z</time></trkpt>
<trkpt lat="46.061738776043057" lon="5.871574217453599"><ele></ele><time>2015-2-2T22:55:2Z</time></trkpt>
<trkpt lat="46.061697537079453" lon="5.870917327702045"><ele></ele><time>2015-2-2T22:55:5Z</time></trkpt>
<trkpt lat="46.06165487319231" lon="5.870194807648659"><ele></ele><time>2015-2-2T22:55:8Z</time></trkpt>
<trkpt lat="46.061623273417354" lon="5.86953179910779"><ele></ele><time>2015-2-2T22:55:11Z</time></trkpt>
<trkpt lat="46.06158496811986" lon="5.868836855515838"><ele></ele><time>2015-2-2T22:55:14Z</time></trkpt>
<trkpt lat="46.061569210141897" lon="5.868160938844085"><ele></ele><time>2015-2-2T22:55:17Z</time></trkpt>
<trkpt lat="46.061540292575955" lon="5.867487201467156"><ele></ele><time>2015-2-2T22:55:20Z</time></trkpt>
<trkpt lat="46.061478853225708" lon="5.86684288457036"><ele></ele><time>2015-2-2T22:55:23Z</time></trkpt>
<trkpt lat="46.061452701687813" lon="5.866144839674234"><ele></ele><time>2015-2-2T22:55:26Z</time></trkpt>
<trkpt lat="46.061512464657426" lon="5.865478226915002"><ele></ele><time>2015-2-2T22:55:29Z</time></trkpt>
<trkpt lat="46.061731483787298" lon="5.864923344925046"><ele></ele><time>2015-2-2T22:55:32Z</time></trkpt>
<trkpt lat="46.062125852331519" lon="5.864508105441928"><ele></ele><time>2015-2-2T22:55:35Z</time></trkpt>
<trkpt lat="46.062520807608962" lon="5.864098817110062"><ele></ele><time>2015-2-2T22:55:38Z</time></trkpt>
<trkpt lat="46.062918193638325" lon="5.863688690587878"><ele></ele><time>2015-2-2T22:55:41Z</time></trkpt>
<trkpt lat="46.063329577445984" lon="5.863287029787898"><ele></ele><time>2015-2-2T22:55:44Z</time></trkpt>
<trkpt lat="46.063748169690371" lon="5.862860810011625"><ele></ele><time>2015-2-2T22:55:47Z</time></trkpt>
<trkpt lat="46.064136922359467" lon="5.862463172525168"><ele></ele><time>2015-2-2T22:55:50Z</time></trkpt>
<trkpt lat="46.064504720270634" lon="5.862078946083784"><ele></ele><time>2015-2-2T22:55:53Z</time></trkpt>
<trkpt lat="46.064889281988144" lon="5.861675273627043"><ele></ele><time>2015-2-2T22:55:56Z</time></trkpt>
<trkpt lat="46.06530343182385" lon="5.861253077164292"><ele></ele><time>2015-2-2T22:55:59Z</time></trkpt>
<trkpt lat="46.065715150907636" lon="5.860786288976669"><ele></ele><time>2015-2-2T22:56:2Z</time></trkpt>
<trkpt lat="46.06610088609159" lon="5.860340958461165"><ele></ele><time>2015-2-2T22:56:5Z</time></trkpt>
<trkpt lat="46.066512521356344" lon="5.859869560226798"><ele></ele><time>2015-2-2T22:56:8Z</time></trkpt>
<trkpt lat="46.066879816353321" lon="5.859468318521977"><ele></ele><time>2015-2-2T22:56:11Z</time></trkpt>
<trkpt lat="46.067248955368996" lon="5.859071183949709"><ele></ele><time>2015-2-2T22:56:14Z</time></trkpt>
<trkpt lat="46.067676516249776" lon="5.858625182881951"><ele></ele><time>2015-2-2T22:56:17Z</time></trkpt>
<trkpt lat="46.068043056875467" lon="5.858220588415861"><ele></ele><time>2015-2-2T22:56:20Z</time></trkpt>
<trkpt lat="46.068396773189306" lon="5.857778526842594"><ele></ele><time>2015-2-2T22:56:23Z</time></trkpt>
<trkpt lat="46.068720314651728" lon="5.857301093637943"><ele></ele><time>2015-2-2T22:56:26Z</time></trkpt>
<trkpt lat="46.069047460332513" lon="5.856777643784881"><ele></ele><time>2015-2-2T22:56:29Z</time></trkpt>
<trkpt lat="46.069367146119475" lon="5.856292834505439"><ele></ele><time>2015-2-2T22:56:32Z</time></trkpt>
<trkpt lat="46.069728909060359" lon="5.855854544788599"><ele></ele><time>2015-2-2T22:56:35Z</time></trkpt>
<trkpt lat="46.070127300918102" lon="5.855468222871423"><ele></ele><time>2015-2-2T22:56:38Z</time></trkpt>
<trkpt lat="46.070520915091038" lon="5.855134120211005"><ele></ele><time>2015-2-2T22:56:41Z</time></trkpt>
<trkpt lat="46.070920815691352" lon="5.85479867644608"><ele></ele><time>2015-2-2T22:56:44Z</time></trkpt>
<trkpt lat="46.071320632472634" lon="5.854462729766965"><ele></ele><time>2015-2-2T22:56:47Z</time></trkpt>
<trkpt lat="46.071752803400159" lon="5.854151593521237"><ele></ele><time>2015-2-2T22:56:50Z</time></trkpt>
<trkpt lat="46.07218187302351" lon="5.85389569401741"><ele></ele><time>2015-2-2T22:56:53Z</time></trkpt>
<trkpt lat="46.072650924324989" lon="5.853712381795049"><ele></ele><time>2015-2-2T22:56:56Z</time></trkpt>
<trkpt lat="46.073160879313946" lon="5.853605680167675"><ele></ele><time>2015-2-2T22:56:59Z</time></trkpt>
<trkpt lat="46.073673935607076" lon="5.853500319644809"><ele></ele><time>2015-2-2T22:57:2Z</time></trkpt>
<trkpt lat="46.074167797341943" lon="5.853392444550991"><ele></ele><time>2015-2-2T22:57:5Z</time></trkpt>
<trkpt lat="46.074657216668129" lon="5.853293454274535"><ele></ele><time>2015-2-2T22:57:8Z</time></trkpt>
<trkpt lat="46.075102966278791" lon="5.853191781789064"><ele></ele><time>2015-2-2T22:57:11Z</time></trkpt>
<trkpt lat="46.075545698404312" lon="5.853287419304252"><ele></ele><time>2015-2-2T22:57:14Z</time></trkpt>
<trkpt lat="46.075869994238019" lon="5.853773569688201"><ele></ele><time>2015-2-2T22:57:17Z</time></trkpt>
<trkpt lat="46.076202504336834" lon="5.854246225208044"><ele></ele><time>2015-2-2T22:57:20Z</time></trkpt>
<trkpt lat="46.076559573411942" lon="5.854617040604353"><ele></ele><time>2015-2-2T22:57:23Z</time></trkpt>
<trkpt lat="46.076960144564509" lon="5.854965895414352"><ele></ele><time>2015-2-2T22:57:26Z</time></trkpt>
<trkpt lat="46.077337581664324" lon="5.855381889268756"><ele></ele><time>2015-2-2T22:57:29Z</time></trkpt>
<trkpt lat="46.077620638534427" lon="5.855969125404954"><ele></ele><time>2015-2-2T22:57:32Z</time></trkpt>
<trkpt lat="46.077949963510036" lon="5.856502214446664"><ele></ele><time>2015-2-2T22:57:35Z</time></trkpt>
<trkpt lat="46.078287083655596" lon="5.857068663462997"><ele></ele><time>2015-2-2T22:57:38Z</time></trkpt>
<trkpt lat="46.078519346192479" lon="5.857651121914387"><ele></ele><time>2015-2-2T22:57:41Z</time></trkpt>
<trkpt lat="46.078917067497969" lon="5.857978099957109"><ele></ele><time>2015-2-2T22:57:44Z</time></trkpt>
<trkpt lat="46.079300539568067" lon="5.858331313356757"><ele></ele><time>2015-2-2T22:57:47Z</time></trkpt>
<trkpt lat="46.079574879258871" lon="5.858855601400137"><ele></ele><time>2015-2-2T22:57:50Z</time></trkpt>
<trkpt lat="46.079921806231141" lon="5.859198924154043"><ele></ele><time>2015-2-2T22:57:53Z</time></trkpt>
<trkpt lat="46.080039152875543" lon="5.859791440889239"><ele></ele><time>2015-2-2T22:57:56Z</time></trkpt>
<trkpt lat="46.080125235021114" lon="5.860419496893883"><ele></ele><time>2015-2-2T22:57:59Z</time></trkpt>
<trkpt lat="46.080089695751667" lon="5.860306676477194"><ele></ele><time>2015-2-2T22:58:2Z</time></trkpt>
<trkpt lat="46.080053653568029" lon="5.859608799219132"><ele></ele><time>2015-2-2T22:58:5Z</time></trkpt>
<trkpt lat="46.079997075721622" lon="5.858927937224507"><ele></ele><time>2015-2-2T22:58:8Z</time></trkpt>
<trkpt lat="46.079880567267537" lon="5.858273897320032"><ele></ele><time>2015-2-2T22:58:11Z</time></trkpt>
<trkpt lat="46.079718042165041" lon="5.857665538787842"><ele></ele><time>2015-2-2T22:58:14Z</time></trkpt>
<trkpt lat="46.079611675813794" lon="5.857035052031279"><ele></ele><time>2015-2-2T22:58:17Z</time></trkpt>
<trkpt lat="46.079453928396106" lon="5.856416467577219"><ele></ele><time>2015-2-2T22:58:20Z</time></trkpt>
<trkpt lat="46.079309089109302" lon="5.85576226003468"><ele></ele><time>2015-2-2T22:58:23Z</time></trkpt>
<trkpt lat="46.079142456874251" lon="5.855151973664761"><ele></ele><time>2015-2-2T22:58:26Z</time></trkpt>
<trkpt lat="46.078968113288283" lon="5.854551158845425"><ele></ele><time>2015-2-2T22:58:29Z</time></trkpt>
<trkpt lat="46.0787133872509" lon="5.853976411744952"><ele></ele><time>2015-2-2T22:58:32Z</time></trkpt>
<trkpt lat="46.078432844951749" lon="5.853455057367683"><ele></ele><time>2015-2-2T22:58:35Z</time></trkpt>
<trkpt lat="46.078153057023883" lon="5.852914592251182"><ele></ele><time>2015-2-2T22:58:38Z</time></trkpt>
<trkpt lat="46.077892212197185" lon="5.852396506816149"><ele></ele><time>2015-2-2T22:58:41Z</time></trkpt>
<trkpt lat="46.077589960768819" lon="5.851822346448898"><ele></ele><time>2015-2-2T22:58:44Z</time></trkpt>
<trkpt lat="46.077318638563156" lon="5.851317001506686"><ele></ele><time>2015-2-2T22:58:47Z</time></trkpt>
<trkpt lat="46.076893843710423" lon="5.851630317047238"><ele></ele><time>2015-2-2T22:58:50Z</time></trkpt>
<trkpt lat="46.076539708301425" lon="5.852042455226183"><ele></ele><time>2015-2-2T22:58:53Z</time></trkpt>
<trkpt lat="46.076137628406286" lon="5.852473620325327"><ele></ele><time>2015-2-2T22:58:56Z</time></trkpt>
<trkpt lat="46.075683413073421" lon="5.852867821231484"><ele></ele><time>2015-2-2T22:58:59Z</time></trkpt>
<trkpt lat="46.075211511924863" lon="5.853091534227133"><ele></ele><time>2015-2-2T22:59:2Z</time></trkpt>
<trkpt lat="46.074697449803352" lon="5.853213323280215"><ele></ele><time>2015-2-2T22:59:5Z</time></trkpt>
<trkpt lat="46.07420233078301" lon="5.853327568620443"><ele></ele><time>2015-2-2T22:59:8Z</time></trkpt>
<trkpt lat="46.07374643906951" lon="5.853419601917267"><ele></ele><time>2015-2-2T22:59:11Z</time></trkpt>
<trkpt lat="46.073226258158684" lon="5.853531416505575"><ele></ele><time>2015-2-2T22:59:14Z</time></trkpt>
<trkpt lat="46.072732647880912" lon="5.853644404560328"><ele></ele><time>2015-2-2T22:59:17Z</time></trkpt>
<trkpt lat="46.072266278788447" lon="5.853787148371339"><ele></ele><time>2015-2-2T22:59:20Z</time></trkpt>
<trkpt lat="46.071794461458921" lon="5.854038521647453"><ele></ele><time>2015-2-2T22:59:23Z</time></trkpt>
<trkpt lat="46.071375198662281" lon="5.854332223534584"><ele></ele><time>2015-2-2T22:59:26Z</time></trkpt>
<trkpt lat="46.070975298061967" lon="5.85466330870986"><ele></ele><time>2015-2-2T22:59:29Z</time></trkpt>
<trkpt lat="46.070583527907729" lon="5.85501124151051"><ele></ele><time>2015-2-2T22:59:32Z</time></trkpt>
<trkpt lat="46.070167953148484" lon="5.855350624769926"><ele></ele><time>2015-2-2T22:59:35Z</time></trkpt>
<trkpt lat="46.069717844948173" lon="5.855748681351543"><ele></ele><time>2015-2-2T22:59:38Z</time></trkpt>
<trkpt lat="46.069330936297774" lon="5.856209434568882"><ele></ele><time>2015-2-2T22:59:41Z</time></trkpt>
<trkpt lat="46.068997671827674" lon="5.856695668771863"><ele></ele><time>2015-2-2T22:59:44Z</time></trkpt>
<trkpt lat="46.068669017404318" lon="5.85722716525197"><ele></ele><time>2015-2-2T22:59:47Z</time></trkpt>
<trkpt lat="46.068316726014018" lon="5.857762014493346"><ele></ele><time>2015-2-2T22:59:50Z</time></trkpt>
<trkpt lat="46.067926129326224" lon="5.858249254524708"><ele></ele><time>2015-2-2T22:59:53Z</time></trkpt>
<trkpt lat="46.067518601194024" lon="5.858690142631531"><ele></ele><time>2015-2-2T22:59:56Z</time></trkpt>
<trkpt lat="46.067131776362658" lon="5.859098341315985"><ele></ele><time>2015-2-2T22:59:59Z</time></trkpt>
<trkpt lat="46.066704466938972" lon="5.859544593840838"><ele></ele><time>2015-2-2T23:0:2Z</time></trkpt>
<trkpt lat="46.066330382600427" lon="5.859937872737646"><ele></ele><time>2015-2-2T23:0:5Z</time></trkpt>
<trkpt lat="46.065962500870228" lon="5.860331319272518"><ele></ele><time>2015-2-2T23:0:8Z</time></trkpt>
<trkpt lat="46.065562013536692" lon="5.860747648403049"><ele></ele><time>2015-2-2T23:0:11Z</time></trkpt>
<trkpt lat="46.065199663862586" lon="5.861140005290508"><ele></ele><time>2015-2-2T23:0:14Z</time></trkpt>
<trkpt lat="46.064800349995494" lon="5.861559854820371"><ele></ele><time>2015-2-2T23:0:17Z</time></trkpt>
<trkpt lat="46.064440095797181" lon="5.861946847289801"><ele></ele><time>2015-2-2T23:0:20Z</time></trkpt>
<trkpt lat="46.064048074185848" lon="5.862366613000631"><ele></ele><time>2015-2-2T23:0:23Z</time></trkpt>
<trkpt lat="46.063651023432612" lon="5.862778332084417"><ele></ele><time>2015-2-2T23:0:26Z</time></trkpt>
<trkpt lat="46.063253553584218" lon="5.863209581002593"><ele></ele><time>2015-2-2T23:0:29Z</time></trkpt>
<trkpt lat="46.062860945239663" lon="5.863627502694726"><ele></ele><time>2015-2-2T23:0:32Z</time></trkpt>
<trkpt lat="46.062499098479748" lon="5.864015081897378"><ele></ele><time>2015-2-2T23:0:35Z</time></trkpt>
<trkpt lat="46.062107160687447" lon="5.864449180662632"><ele></ele><time>2015-2-2T23:0:38Z</time></trkpt>
<trkpt lat="46.061730058863759" lon="5.864850422367454"><ele></ele><time>2015-2-2T23:0:41Z</time></trkpt>
<trkpt lat="46.061305934563279" lon="5.864928541705012"><ele></ele><time>2015-2-2T23:0:44Z</time></trkpt>
<trkpt lat="46.061305096372962" lon="5.8641969691962"><ele></ele><time>2015-2-2T23:0:47Z</time></trkpt>
<trkpt lat="46.061275843530893" lon="5.863533206284046"><ele></ele><time>2015-2-2T23:0:50Z</time></trkpt>
<trkpt lat="46.061241896823049" lon="5.862816385924816"><ele></ele><time>2015-2-2T23:0:53Z</time></trkpt>
<trkpt lat="46.061202585697174" lon="5.862149521708489"><ele></ele><time>2015-2-2T23:0:56Z</time></trkpt>
<trkpt lat="46.061163945123553" lon="5.861433790996671"><ele></ele><time>2015-2-2T23:0:59Z</time></trkpt>
<trkpt lat="46.061109462752938" lon="5.86069936864078"><ele></ele><time>2015-2-2T23:1:2Z</time></trkpt>
<trkpt lat="46.061060763895512" lon="5.860010711476207"><ele></ele><time>2015-2-2T23:1:5Z</time></trkpt>
<trkpt lat="46.061028493568301" lon="5.859361449256539"><ele></ele><time>2015-2-2T23:1:8Z</time></trkpt>
<trkpt lat="46.060996474698186" lon="5.858671283349395"><ele></ele><time>2015-2-2T23:1:11Z</time></trkpt>
<trkpt lat="46.060963282361627" lon="5.857958486303687"><ele></ele><time>2015-2-2T23:1:14Z</time></trkpt>
<trkpt lat="46.060930341482162" lon="5.85725449025631"><ele></ele><time>2015-2-2T23:1:17Z</time></trkpt>
<trkpt lat="46.060754237696528" lon="5.856585698202252"><ele></ele><time>2015-2-2T23:1:20Z</time></trkpt>
<trkpt lat="46.06036732904613" lon="5.856185546144843"><ele></ele><time>2015-2-2T23:1:23Z</time></trkpt>
<trkpt lat="46.059875814244151" lon="5.856010364368558"><ele></ele><time>2015-2-2T23:1:26Z</time></trkpt>
<trkpt lat="46.059418832883239" lon="5.85589662194252"><ele></ele><time>2015-2-2T23:1:29Z</time></trkpt>
<trkpt lat="46.058924216777086" lon="5.855744741857052"><ele></ele><time>2015-2-2T23:1:32Z</time></trkpt>
<trkpt lat="46.058439826592803" lon="5.855603255331516"><ele></ele><time>2015-2-2T23:1:35Z</time></trkpt>
<trkpt lat="46.057985946536064" lon="5.855462942272425"><ele></ele><time>2015-2-2T23:1:38Z</time></trkpt>
<trkpt lat="46.057515302672982" lon="5.855332436040044"><ele></ele><time>2015-2-2T23:1:41Z</time></trkpt>
<trkpt lat="46.057063937187195" lon="5.855271248146892"><ele></ele><time>2015-2-2T23:1:44Z</time></trkpt>
<trkpt lat="46.056635370478034" lon="5.855535110458732"><ele></ele><time>2015-2-2T23:1:47Z</time></trkpt>
<trkpt lat="46.056259525939822" lon="5.8559684548527"><ele></ele><time>2015-2-2T23:1:50Z</time></trkpt>
<trkpt lat="46.05589441023767" lon="5.856390399858356"><ele></ele><time>2015-2-2T23:1:53Z</time></trkpt>
<trkpt lat="46.05551328510046" lon="5.856748726218939"><ele></ele><time>2015-2-2T23:1:56Z</time></trkpt>
<trkpt lat="46.055039539933205" lon="5.856811003759503"><ele></ele><time>2015-2-2T23:1:59Z</time></trkpt>
<trkpt lat="46.054587922990322" lon="5.856607155874372"><ele></ele><time>2015-2-2T23:2:2Z</time></trkpt>
<trkpt lat="46.05411090888083" lon="5.856391154229641"><ele></ele><time>2015-2-2T23:2:5Z</time></trkpt>
<trkpt lat="46.053662393242121" lon="5.85620298050344"><ele></ele><time>2015-2-2T23:2:8Z</time></trkpt>
<trkpt lat="46.053223349153996" lon="5.856018578633666"><ele></ele><time>2015-2-2T23:2:11Z</time></trkpt>
<trkpt lat="46.052762512117624" lon="5.855822190642357"><ele></ele><time>2015-2-2T23:2:14Z</time></trkpt>
<trkpt lat="46.052276277914643" lon="5.855621444061399"><ele></ele><time>2015-2-2T23:2:17Z</time></trkpt>
<trkpt lat="46.051814015954733" lon="5.855457494035363"><ele></ele><time>2015-2-2T23:2:20Z</time></trkpt>
<trkpt lat="46.051341108977795" lon="5.855291616171598"><ele></ele><time>2015-2-2T23:2:23Z</time></trkpt>
<trkpt lat="46.050864681601524" lon="5.855118278414011"><ele></ele><time>2015-2-2T23:2:26Z</time></trkpt>
<trkpt lat="46.05040468275547" lon="5.854865144938231"><ele></ele><time>2015-2-2T23:2:29Z</time></trkpt>
<trkpt lat="46.050012074410915" lon="5.854520061984658"><ele></ele><time>2015-2-2T23:2:32Z</time></trkpt>
<trkpt lat="46.049623573198915" lon="5.854179169982672"><ele></ele><time>2015-2-2T23:2:35Z</time></trkpt>
<trkpt lat="46.049181763082743" lon="5.853814138099551"><ele></ele><time>2015-2-2T23:2:38Z</time></trkpt>
<trkpt lat="46.048755208030343" lon="5.853449525311589"><ele></ele><time>2015-2-2T23:2:41Z</time></trkpt>
<trkpt lat="46.048341142013669" lon="5.853104945272207"><ele></ele><time>2015-2-2T23:2:44Z</time></trkpt>
<trkpt lat="46.047936296090484" lon="5.852781152352691"><ele></ele><time>2015-2-2T23:2:47Z</time></trkpt>
<trkpt lat="46.04748803190887" lon="5.8526477124542"><ele></ele><time>2015-2-2T23:2:50Z</time></trkpt>
<trkpt lat="46.047011520713568" lon="5.852569928392768"><ele></ele><time>2015-2-2T23:2:53Z</time></trkpt>
<trkpt lat="46.046557892113924" lon="5.852464232593775"><ele></ele><time>2015-2-2T23:2:56Z</time></trkpt>
<trkpt lat="46.046137707307935" lon="5.852109594270587"><ele></ele><time>2015-2-2T23:2:59Z</time></trkpt>
<trkpt lat="46.045752139762044" lon="5.851624449715018"><ele></ele><time>2015-2-2T23:3:2Z</time></trkpt>
<trkpt lat="46.045362213626504" lon="5.851129246875644"><ele></ele><time>2015-2-2T23:3:5Z</time></trkpt>
<trkpt lat="46.044977148994803" lon="5.850660027936101"><ele></ele><time>2015-2-2T23:3:8Z</time></trkpt>
<trkpt lat="46.044611027464271" lon="5.850274628028274"><ele></ele><time>2015-2-2T23:3:11Z</time></trkpt>
<trkpt lat="46.044178437441587" lon="5.850040437653661"><ele></ele><time>2015-2-2T23:3:14Z</time></trkpt>
<trkpt lat="46.043709218502045" lon="5.849839271977544"><ele></ele><time>2015-2-2T23:3:17Z</time></trkpt>
<trkpt lat="46.043293392285705" lon="5.849591922014952"><ele></ele><time>2015-2-2T23:3:20Z</time></trkpt>
<trkpt lat="46.04290765710175" lon="5.849169725552201"><ele></ele><time>2015-2-2T23:3:23Z</time></trkpt>
<trkpt lat="46.042623091489077" lon="5.8486223872751"><ele></ele><time>2015-2-2T23:3:26Z</time></trkpt>
<trkpt lat="46.042359983548522" lon="5.848069516941905"><ele></ele><time>2015-2-2T23:3:29Z</time></trkpt>
<trkpt lat="46.042082877829671" lon="5.847487980499864"><ele></ele><time>2015-2-2T23:3:32Z</time></trkpt>
<trkpt lat="46.041781799867749" lon="5.846874676644802"><ele></ele><time>2015-2-2T23:3:35Z</time></trkpt>
<trkpt lat="46.041500587016344" lon="5.84630336612463"><ele></ele><time>2015-2-2T23:3:38Z</time></trkpt>
<trkpt lat="46.041202107444406" lon="5.845682015642524"><ele></ele><time>2015-2-2T23:3:41Z</time></trkpt>
<trkpt lat="46.040926845744252" lon="5.845108861103654"><ele></ele><time>2015-2-2T23:3:44Z</time></trkpt>
<trkpt lat="46.040620235726237" lon="5.844520451501012"><ele></ele><time>2015-2-2T23:3:47Z</time></trkpt>
<trkpt lat="46.04019720107317" lon="5.844107391312718"><ele></ele><time>2015-2-2T23:3:50Z</time></trkpt>
<trkpt lat="46.039785565808415" lon="5.843724422156811"><ele></ele><time>2015-2-2T23:3:53Z</time></trkpt>
<trkpt lat="46.039389437064528" lon="5.843355199322105"><ele></ele><time>2015-2-2T23:3:56Z</time></trkpt>
<trkpt lat="46.038980316370726" lon="5.842970050871372"><ele></ele><time>2015-2-2T23:3:59Z</time></trkpt>
<trkpt lat="46.038583014160395" lon="5.842558415606618"><ele></ele><time>2015-2-2T23:4:2Z</time></trkpt>
<trkpt lat="46.038223262876272" lon="5.842073690146208"><ele></ele><time>2015-2-2T23:4:5Z</time></trkpt>
<trkpt lat="46.037887232378125" lon="5.841544540598989"><ele></ele><time>2015-2-2T23:4:8Z</time></trkpt>
<trkpt lat="46.037563188001513" lon="5.841018157079816"><ele></ele><time>2015-2-2T23:4:11Z</time></trkpt>
<trkpt lat="46.037252638489008" lon="5.840494204312563"><ele></ele><time>2015-2-2T23:4:14Z</time></trkpt>
<trkpt lat="46.036954829469323" lon="5.840006461367011"><ele></ele><time>2015-2-2T23:4:17Z</time></trkpt>
<trkpt lat="46.036635646596551" lon="5.839484771713615"><ele></ele><time>2015-2-2T23:4:20Z</time></trkpt>
<trkpt lat="46.036279164254665" lon="5.83894120529294"><ele></ele><time>2015-2-2T23:4:23Z</time></trkpt>
<trkpt lat="46.035897200927138" lon="5.838495204225183"><ele></ele><time>2015-2-2T23:4:26Z</time></trkpt>
<trkpt lat="46.03549369610846" lon="5.838165124878287"><ele></ele><time>2015-2-2T23:4:29Z</time></trkpt>
<trkpt lat="46.03508030064404" lon="5.837885588407517"><ele></ele><time>2015-2-2T23:4:32Z</time></trkpt>
<trkpt lat="46.034617200493813" lon="5.83757939748466"><ele></ele><time>2015-2-2T23:4:35Z</time></trkpt>
<trkpt lat="46.034175306558609" lon="5.837278654798865"><ele></ele><time>2015-2-2T23:4:38Z</time></trkpt>
<trkpt lat="46.033749841153622" lon="5.837009260430932"><ele></ele><time>2015-2-2T23:4:41Z</time></trkpt>
<trkpt lat="46.033331668004394" lon="5.836725784465671"><ele></ele><time>2015-2-2T23:4:44Z</time></trkpt>
<trkpt lat="46.032900922000408" lon="5.836445661261678"><ele></ele><time>2015-2-2T23:4:47Z</time></trkpt>
<trkpt lat="46.032458944246173" lon="5.8361457567662"><ele></ele><time>2015-2-2T23:4:50Z</time></trkpt>
<trkpt lat="46.032039178535342" lon="5.835877452045679"><ele></ele><time>2015-2-2T23:4:53Z</time></trkpt>
<trkpt lat="46.031600385904312" lon="5.835584839805961"><ele></ele><time>2015-2-2T23:4:56Z</time></trkpt>
<trkpt lat="46.031168047338724" lon="5.835290132090449"><ele></ele><time>2015-2-2T23:4:59Z</time></trkpt>
<trkpt lat="46.030738642439246" lon="5.835021324455738"><ele></ele><time>2015-2-2T23:5:2Z</time></trkpt>
<trkpt lat="46.030328348278999" lon="5.834755869582295"><ele></ele><time>2015-2-2T23:5:5Z</time></trkpt>
<trkpt lat="46.029918054118752" lon="5.834481194615364"><ele></ele><time>2015-2-2T23:5:8Z</time></trkpt>
<trkpt lat="46.029476495459676" lon="5.834168381989002"><ele></ele><time>2015-2-2T23:5:11Z</time></trkpt>
<trkpt lat="46.029096879065037" lon="5.833765044808388"><ele></ele><time>2015-2-2T23:5:14Z</time></trkpt>
<trkpt lat="46.028800830245018" lon="5.833254335448146"><ele></ele><time>2015-2-2T23:5:17Z</time></trkpt>
<trkpt lat="46.028507631272078" lon="5.832669949159026"><ele></ele><time>2015-2-2T23:5:20Z</time></trkpt>
<trkpt lat="46.028235889971256" lon="5.832107774913311"><ele></ele><time>2015-2-2T23:5:23Z</time></trkpt>
<trkpt lat="46.027956940233707" lon="5.831537554040551"><ele></ele><time>2015-2-2T23:5:26Z</time></trkpt>
<trkpt lat="46.02765996940434" lon="5.830928692594171"><ele></ele><time>2015-2-2T23:5:29Z</time></trkpt>
<trkpt lat="46.027392083778977" lon="5.830385042354465"><ele></ele><time>2015-2-2T23:5:32Z</time></trkpt>
<trkpt lat="46.027090921998024" lon="5.829781964421272"><ele></ele><time>2015-2-2T23:5:35Z</time></trkpt>
<trkpt lat="46.0267398878932" lon="5.829291623085737"><ele></ele><time>2015-2-2T23:5:38Z</time></trkpt>
<trkpt lat="46.026331102475524" lon="5.829003285616636"><ele></ele><time>2015-2-2T23:5:41Z</time></trkpt>
<trkpt lat="46.025869343429804" lon="5.828865319490433"><ele></ele><time>2015-2-2T23:5:44Z</time></trkpt>
<trkpt lat="46.025395011529326" lon="5.828794911503792"><ele></ele><time>2015-2-2T23:5:47Z</time></trkpt>
<trkpt lat="46.024937694892287" lon="5.82876599393785"><ele></ele><time>2015-2-2T23:5:50Z</time></trkpt>
<trkpt lat="46.02446629665792" lon="5.828844113275409"><ele></ele><time>2015-2-2T23:5:53Z</time></trkpt>
<trkpt lat="46.023973105475307" lon="5.829003034159541"><ele></ele><time>2015-2-2T23:5:56Z</time></trkpt>
<trkpt lat="46.023422749713063" lon="5.829064724966884"><ele></ele><time>2015-2-2T23:5:59Z</time></trkpt>
<trkpt lat="46.022972809150815" lon="5.829202439635992"><ele></ele><time>2015-2-2T23:6:2Z</time></trkpt>
<trkpt lat="46.022532843053341" lon="5.829451633617282"><ele></ele><time>2015-2-2T23:6:5Z</time></trkpt>
<trkpt lat="46.022098828107119" lon="5.829781461507082"><ele></ele><time>2015-2-2T23:6:8Z</time></trkpt>
<trkpt lat="46.021641008555889" lon="5.830046497285366"><ele></ele><time>2015-2-2T23:6:11Z</time></trkpt>
<trkpt lat="46.021153014153242" lon="5.830169040709734"><ele></ele><time>2015-2-2T23:6:14Z</time></trkpt>
<trkpt lat="46.020697625353932" lon="5.830224193632603"><ele></ele><time>2015-2-2T23:6:17Z</time></trkpt>
<trkpt lat="46.020171660929918" lon="5.830373810604215"><ele></ele><time>2015-2-2T23:6:20Z</time></trkpt>
<trkpt lat="46.019649133086205" lon="5.830493671819568"><ele></ele><time>2015-2-2T23:6:23Z</time></trkpt>
<trkpt lat="46.019192654639482" lon="5.830634823068976"><ele></ele><time>2015-2-2T23:6:26Z</time></trkpt>
<trkpt lat="46.018742462620139" lon="5.830620741471648"><ele></ele><time>2015-2-2T23:6:29Z</time></trkpt>
<trkpt lat="46.018353458493948" lon="5.830169543623924"><ele></ele><time>2015-2-2T23:6:32Z</time></trkpt>
<trkpt lat="46.018021535128355" lon="5.829647602513433"><ele></ele><time>2015-2-2T23:6:35Z</time></trkpt>
<trkpt lat="46.017753230407834" lon="5.829099174588919"><ele></ele><time>2015-2-2T23:6:38Z</time></trkpt>
<trkpt lat="46.017378894612193" lon="5.828680833801627"><ele></ele><time>2015-2-2T23:6:41Z</time></trkpt>
<trkpt lat="46.016963655129075" lon="5.82843080163002"><ele></ele><time>2015-2-2T23:6:44Z</time></trkpt>
<trkpt lat="46.016512624919415" lon="5.828153612092137"><ele></ele><time>2015-2-2T23:6:47Z</time></trkpt>
<trkpt lat="46.016031922772527" lon="5.827895868569613"><ele></ele><time>2015-2-2T23:6:50Z</time></trkpt>
<trkpt lat="46.015609307214618" lon="5.827647680416703"><ele></ele><time>2015-2-2T23:6:53Z</time></trkpt>
<trkpt lat="46.015200102701783" lon="5.827366132289171"><ele></ele><time>2015-2-2T23:6:56Z</time></trkpt>
<trkpt lat="46.014739014208317" lon="5.827052481472492"><ele></ele><time>2015-2-2T23:6:59Z</time></trkpt>
<trkpt lat="46.014336934313178" lon="5.826737070456147"><ele></ele><time>2015-2-2T23:7:2Z</time></trkpt>
<trkpt lat="46.013892944902182" lon="5.826399447396398"><ele></ele><time>2015-2-2T23:7:5Z</time></trkpt>
<trkpt lat="46.01344870403409" lon="5.826048916205764"><ele></ele><time>2015-2-2T23:7:8Z</time></trkpt>
<trkpt lat="46.013052994385362" lon="5.825737277045846"><ele></ele><time>2015-2-2T23:7:11Z</time></trkpt>
<trkpt lat="46.012643789872527" lon="5.82540032453835"><ele></ele><time>2015-2-2T23:7:14Z</time></trkpt>
<trkpt lat="46.0122324898839" lon="5.825025150552392"><ele></ele><time>2015-2-2T23:7:17Z</time></trkpt>
<trkpt lat="46.011820770800114" lon="5.82463220693171"><ele></ele><time>2015-2-2T23:7:20Z</time></trkpt>
<trkpt lat="46.011406620964408" lon="5.824237084016204"><ele></ele><time>2015-2-2T23:7:23Z</time></trkpt>
<trkpt lat="46.010994566604495" lon="5.823844894766808"><ele></ele><time>2015-2-2T23:7:26Z</time></trkpt>
<trkpt lat="46.010588295757771" lon="5.82345706410706"><ele></ele><time>2015-2-2T23:7:29Z</time></trkpt>
<trkpt lat="46.010187054052949" lon="5.823076693341136"><ele></ele><time>2015-2-2T23:7:32Z</time></trkpt>
<trkpt lat="46.009775083512068" lon="5.822686515748501"><ele></ele><time>2015-2-2T23:7:35Z</time></trkpt>
<trkpt lat="46.00935791619122" lon="5.822287956252694"><ele></ele><time>2015-2-2T23:7:38Z</time></trkpt>
<trkpt lat="46.008931696414948" lon="5.821886630728841"><ele></ele><time>2015-2-2T23:7:41Z</time></trkpt>
<trkpt lat="46.008497597649693" lon="5.821456555277109"><ele></ele><time>2015-2-2T23:7:44Z</time></trkpt>
<trkpt lat="46.00809627212584" lon="5.820927741006017"><ele></ele><time>2015-2-2T23:7:47Z</time></trkpt>
<trkpt lat="46.007772730663419" lon="5.820352071896195"><ele></ele><time>2015-2-2T23:7:50Z</time></trkpt>
<trkpt lat="46.007463438436389" lon="5.819799117743969"><ele></ele><time>2015-2-2T23:7:53Z</time></trkpt>
<trkpt lat="46.00712195970118" lon="5.819332161918283"><ele></ele><time>2015-2-2T23:7:56Z</time></trkpt>
<trkpt lat="46.006713006645441" lon="5.818993700668216"><ele></ele><time>2015-2-2T23:7:59Z</time></trkpt>
<trkpt lat="46.00623557344079" lon="5.818859925493598"><ele></ele><time>2015-2-2T23:8:2Z</time></trkpt>
<trkpt lat="46.005726037546992" lon="5.818880209699273"><ele></ele><time>2015-2-2T23:8:5Z</time></trkpt>
<trkpt lat="46.005202671512961" lon="5.818915413692594"><ele></ele><time>2015-2-2T23:8:8Z</time></trkpt>
<trkpt lat="46.004665894433856" lon="5.818950198590756"><ele></ele><time>2015-2-2T23:8:11Z</time></trkpt>
<trkpt lat="46.004120735451579" lon="5.818987917155027"><ele></ele><time>2015-2-2T23:8:14Z</time></trkpt>
<trkpt lat="46.003667023032904" lon="5.819011637941003"><ele></ele><time>2015-2-2T23:8:17Z</time></trkpt>
<trkpt lat="46.003109877929091" lon="5.819043321534991"><ele></ele><time>2015-2-2T23:8:20Z</time></trkpt>
<trkpt lat="46.002572262659669" lon="5.819041477516294"><ele></ele><time>2015-2-2T23:8:23Z</time></trkpt>
<trkpt lat="46.002062140032649" lon="5.819010129198432"><ele></ele><time>2015-2-2T23:8:26Z</time></trkpt>
<trkpt lat="46.001579342409968" lon="5.818976685404778"><ele></ele><time>2015-2-2T23:8:29Z</time></trkpt>
<trkpt lat="46.001121355220675" lon="5.818946929648519"><ele></ele><time>2015-2-2T23:8:32Z</time></trkpt>
<trkpt lat="46.000595558434725" lon="5.818904852494597"><ele></ele><time>2015-2-2T23:8:35Z</time></trkpt>
<trkpt lat="46.000106139108539" lon="5.818877276033163"><ele></ele><time>2015-2-2T23:8:38Z</time></trkpt>
<trkpt lat="45.99963809363544" lon="5.818843580782414"><ele></ele><time>2015-2-2T23:8:41Z</time></trkpt>
<trkpt lat="45.999124785885215" lon="5.818809885531664"><ele></ele><time>2015-2-2T23:8:44Z</time></trkpt>
<trkpt lat="45.99862421862781" lon="5.818777363747358"><ele></ele><time>2015-2-2T23:8:47Z</time></trkpt>
<trkpt lat="45.998148461803794" lon="5.818745093420148"><ele></ele><time>2015-2-2T23:8:50Z</time></trkpt>
<trkpt lat="45.997623419389129" lon="5.81871391274035"><ele></ele><time>2015-2-2T23:8:53Z</time></trkpt>
<trkpt lat="45.997137017548084" lon="5.818692119792104"><ele></ele><time>2015-2-2T23:8:56Z</time></trkpt>
<trkpt lat="45.99667701870203" lon="5.81865624524653"><ele></ele><time>2015-2-2T23:8:59Z</time></trkpt>
<trkpt lat="45.996147198602557" lon="5.818683654069901"><ele></ele><time>2015-2-2T23:9:2Z</time></trkpt>
<trkpt lat="45.995711088180542" lon="5.818849196657538"><ele></ele><time>2015-2-2T23:9:5Z</time></trkpt>
<trkpt lat="45.995210604742169" lon="5.819106185808778"><ele></ele><time>2015-2-2T23:9:8Z</time></trkpt>
<trkpt lat="45.994729064404964" lon="5.819301148876548"><ele></ele><time>2015-2-2T23:9:11Z</time></trkpt>
<trkpt lat="45.994196478277445" lon="5.819436013698578"><ele></ele><time>2015-2-2T23:9:14Z</time></trkpt>
<trkpt lat="45.993728684261441" lon="5.819560149684548"><ele></ele><time>2015-2-2T23:9:17Z</time></trkpt>
<trkpt lat="45.993251921609044" lon="5.819685207679868"><ele></ele><time>2015-2-2T23:9:20Z</time></trkpt>
<trkpt lat="45.992766944691539" lon="5.819814121350646"><ele></ele><time>2015-2-2T23:9:23Z</time></trkpt>
<trkpt lat="45.992273418232799" lon="5.819950997829437"><ele></ele><time>2015-2-2T23:9:26Z</time></trkpt>
<trkpt lat="45.991766648367047" lon="5.820088125765324"><ele></ele><time>2015-2-2T23:9:29Z</time></trkpt>
<trkpt lat="45.99125225096941" lon="5.820224331691861"><ele></ele><time>2015-2-2T23:9:32Z</time></trkpt>
<trkpt lat="45.990752521902323" lon="5.820366824045777"><ele></ele><time>2015-2-2T23:9:35Z</time></trkpt>
<trkpt lat="45.990308616310358" lon="5.820611156523228"><ele></ele><time>2015-2-2T23:9:38Z</time></trkpt>
<trkpt lat="45.989934448152781" lon="5.820987168699503"><ele></ele><time>2015-2-2T23:9:41Z</time></trkpt>
<trkpt lat="45.989520968869328" lon="5.821347255259752"><ele></ele><time>2015-2-2T23:9:44Z</time></trkpt>
<trkpt lat="45.989057030528784" lon="5.82170139066875"><ele></ele><time>2015-2-2T23:9:47Z</time></trkpt>
<trkpt lat="45.988642796874046" lon="5.822071535512805"><ele></ele><time>2015-2-2T23:9:50Z</time></trkpt>
<trkpt lat="45.988230826333165" lon="5.822418797761202"><ele></ele><time>2015-2-2T23:9:53Z</time></trkpt>
<trkpt lat="45.987824639305472" lon="5.822776705026627"><ele></ele><time>2015-2-2T23:9:56Z</time></trkpt>
<trkpt lat="45.987410908564925" lon="5.823117597028613"><ele></ele><time>2015-2-2T23:9:59Z</time></trkpt>
<trkpt lat="45.986993322148919" lon="5.823479695245624"><ele></ele><time>2015-2-2T23:10:2Z</time></trkpt>
<trkpt lat="45.986659554764628" lon="5.823969952762127"><ele></ele><time>2015-2-2T23:10:5Z</time></trkpt>
<trkpt lat="45.986405331641436" lon="5.824576886370778"><ele></ele><time>2015-2-2T23:10:8Z</time></trkpt>
<trkpt lat="45.986159574240446" lon="5.825182562693954"><ele></ele><time>2015-2-2T23:10:11Z</time></trkpt>
<trkpt lat="45.985909206792712" lon="5.825774995610118"><ele></ele><time>2015-2-2T23:10:14Z</time></trkpt>
<trkpt lat="45.985614918172359" lon="5.826388886198402"><ele></ele><time>2015-2-2T23:10:17Z</time></trkpt>
<trkpt lat="45.985246198251843" lon="5.826860954985023"><ele></ele><time>2015-2-2T23:10:20Z</time></trkpt>
<trkpt lat="45.984862390905619" lon="5.827329251915216"><ele></ele><time>2015-2-2T23:10:23Z</time></trkpt>
<trkpt lat="45.984486378729343" lon="5.827796459197998"><ele></ele><time>2015-2-2T23:10:26Z</time></trkpt>
<trkpt lat="45.98421455360949" lon="5.828303648158908"><ele></ele><time>2015-2-2T23:10:29Z</time></trkpt>
<trkpt lat="45.98401858471334" lon="5.828955508768559"><ele></ele><time>2015-2-2T23:10:32Z</time></trkpt>
<trkpt lat="45.983817921951413" lon="5.829620193690062"><ele></ele><time>2015-2-2T23:10:35Z</time></trkpt>
<trkpt lat="45.983467977494001" lon="5.829974161460996"><ele></ele><time>2015-2-2T23:10:38Z</time></trkpt>
<trkpt lat="45.982983838766813" lon="5.830014729872346"><ele></ele><time>2015-2-2T23:10:41Z</time></trkpt>
<trkpt lat="45.982530796900392" lon="5.829911297187209"><ele></ele><time>2015-2-2T23:10:44Z</time></trkpt>
<trkpt lat="45.982069205492735" lon="5.82982387393713"><ele></ele><time>2015-2-2T23:10:47Z</time></trkpt>
<trkpt lat="45.981597974896431" lon="5.829711556434631"><ele></ele><time>2015-2-2T23:10:50Z</time></trkpt>
<trkpt lat="45.981153147295117" lon="5.829624803736806"><ele></ele><time>2015-2-2T23:10:53Z</time></trkpt>
<trkpt lat="45.980702619999647" lon="5.829681716859341"><ele></ele><time>2015-2-2T23:10:56Z</time></trkpt>
<trkpt lat="45.980654759332538" lon="5.830304743722081"><ele></ele><time>2015-2-2T23:10:59Z</time></trkpt>
<trkpt lat="45.980757102370262" lon="5.830968087539077"><ele></ele><time>2015-2-2T23:11:2Z</time></trkpt>
<trkpt lat="45.980501705780625" lon="5.831537889316678"><ele></ele><time>2015-2-2T23:11:5Z</time></trkpt>
<trkpt lat="45.980128962546587" lon="5.832025716081262"><ele></ele><time>2015-2-2T23:11:8Z</time></trkpt>
<trkpt lat="45.979754291474819" lon="5.832478338852525"><ele></ele><time>2015-2-2T23:11:11Z</time></trkpt>
<trkpt lat="45.979382134974003" lon="5.832841610535979"><ele></ele><time>2015-2-2T23:11:14Z</time></trkpt>
<trkpt lat="45.978943007066846" lon="5.833148136734963"><ele></ele><time>2015-2-2T23:11:17Z</time></trkpt>
<trkpt lat="45.978575544431806" lon="5.833557089790702"><ele></ele><time>2015-2-2T23:11:20Z</time></trkpt>
<trkpt lat="45.978279579430819" lon="5.833966797217727"><ele></ele><time>2015-2-2T23:11:23Z</time></trkpt>
<trkpt lat="45.97792343236506" lon="5.833513336256146"><ele></ele><time>2015-2-2T23:11:26Z</time></trkpt>
<trkpt lat="45.977534344419837" lon="5.833775186911225"><ele></ele><time>2015-2-2T23:11:29Z</time></trkpt>
<trkpt lat="45.977151710540056" lon="5.834170812740922"><ele></ele><time>2015-2-2T23:11:32Z</time></trkpt>
<trkpt lat="45.976687939837575" lon="5.834047179669142"><ele></ele><time>2015-2-2T23:11:35Z</time></trkpt>
<trkpt lat="45.976207153871655" lon="5.833902675658464"><ele></ele><time>2015-2-2T23:11:38Z</time></trkpt>
<trkpt lat="45.97571630962193" lon="5.833945674821734"><ele></ele><time>2015-2-2T23:11:41Z</time></trkpt>
<trkpt lat="45.97524382174015" lon="5.834139632061124"><ele></ele><time>2015-2-2T23:11:44Z</time></trkpt>
<trkpt lat="45.975174754858017" lon="5.834752013906837"><ele></ele><time>2015-2-2T23:11:47Z</time></trkpt>
<trkpt lat="45.975407855585217" lon="5.835365569218993"><ele></ele><time>2015-2-2T23:11:50Z</time></trkpt>
<trkpt lat="45.975799709558487" lon="5.835676286369562"><ele></ele><time>2015-2-2T23:11:53Z</time></trkpt>
<trkpt lat="45.976225761696696" lon="5.835934616625309"><ele></ele><time>2015-2-2T23:11:56Z</time></trkpt>
<trkpt lat="45.976588781923056" lon="5.83646435290575"><ele></ele><time>2015-2-2T23:11:59Z</time></trkpt>
<trkpt lat="45.976844429969788" lon="5.83709467202425"><ele></ele><time>2015-2-2T23:12:2Z</time></trkpt>
<trkpt lat="45.976849375292659" lon="5.837760278955102"><ele></ele><time>2015-2-2T23:12:5Z</time></trkpt>
<trkpt lat="45.976575538516045" lon="5.838287584483624"><ele></ele><time>2015-2-2T23:12:8Z</time></trkpt>
<trkpt lat="45.976178571581841" lon="5.8383250515908"><ele></ele><time>2015-2-2T23:12:11Z</time></trkpt>
<trkpt lat="45.975768780335784" lon="5.83800595253706"><ele></ele><time>2015-2-2T23:12:14Z</time></trkpt>
<trkpt lat="45.97535127773881" lon="5.837750723585486"><ele></ele><time>2015-2-2T23:12:17Z</time></trkpt>
<trkpt lat="45.974869402125478" lon="5.837571350857616"><ele></ele><time>2015-2-2T23:12:20Z</time></trkpt>
<trkpt lat="45.974369253963232" lon="5.837512174621224"><ele></ele><time>2015-2-2T23:12:23Z</time></trkpt>
<trkpt lat="45.973899615928531" lon="5.837553916499019"><ele></ele><time>2015-2-2T23:12:26Z</time></trkpt>
<trkpt lat="45.973437689244747" lon="5.837573781609535"><ele></ele><time>2015-2-2T23:12:29Z</time></trkpt>
<trkpt lat="45.972980037331581" lon="5.837366580963135"><ele></ele><time>2015-2-2T23:12:32Z</time></trkpt>
<trkpt lat="45.972584830597043" lon="5.836984030902386"><ele></ele><time>2015-2-2T23:12:35Z</time></trkpt>
<trkpt lat="45.972280818969011" lon="5.836474662646651"><ele></ele><time>2015-2-2T23:12:38Z</time></trkpt>
<trkpt lat="45.971933556720614" lon="5.835992032662034"><ele></ele><time>2015-2-2T23:12:41Z</time></trkpt>
<trkpt lat="45.971525693312287" lon="5.835711238905788"><ele></ele><time>2015-2-2T23:12:44Z</time></trkpt>
<trkpt lat="45.971051696687937" lon="5.83563169464469"><ele></ele><time>2015-2-2T23:12:47Z</time></trkpt>
<trkpt lat="45.970648694783449" lon="5.83567326888442"><ele></ele><time>2015-2-2T23:12:50Z</time></trkpt>
<trkpt lat="45.970185929909348" lon="5.835664216428995"><ele></ele><time>2015-2-2T23:12:53Z</time></trkpt>
<trkpt lat="45.969697097316384" lon="5.835647955536842"><ele></ele><time>2015-2-2T23:12:56Z</time></trkpt>
<trkpt lat="45.969217652454972" lon="5.835570506751537"><ele></ele><time>2015-2-2T23:12:59Z</time></trkpt>
<trkpt lat="45.968714486807585" lon="5.835515353828669"><ele></ele><time>2015-2-2T23:13:2Z</time></trkpt>
<trkpt lat="45.968256164342165" lon="5.835503451526165"><ele></ele><time>2015-2-2T23:13:5Z</time></trkpt>
<trkpt lat="45.967783257365227" lon="5.835475036874414"><ele></ele><time>2015-2-2T23:13:8Z</time></trkpt>
<trkpt lat="45.967312529683113" lon="5.835464559495449"><ele></ele><time>2015-2-2T23:13:11Z</time></trkpt>
<trkpt lat="45.966818165034056" lon="5.83545483648777"><ele></ele><time>2015-2-2T23:13:14Z</time></trkpt>
<trkpt lat="45.966313406825066" lon="5.835420386865735"><ele></ele><time>2015-2-2T23:13:17Z</time></trkpt>
<trkpt lat="45.965807139873505" lon="5.835381578654051"><ele></ele><time>2015-2-2T23:13:20Z</time></trkpt>
<trkpt lat="45.96532853320241" lon="5.835317708551884"><ele></ele><time>2015-2-2T23:13:23Z</time></trkpt>
<trkpt lat="45.96481891348958" lon="5.835253754630685"><ele></ele><time>2015-2-2T23:13:26Z</time></trkpt>
<trkpt lat="45.964322537183762" lon="5.835279319435358"><ele></ele><time>2015-2-2T23:13:29Z</time></trkpt>
<trkpt lat="45.963834375143051" lon="5.835198601707816"><ele></ele><time>2015-2-2T23:13:32Z</time></trkpt>
<trkpt lat="45.963379070162773" lon="5.835154764354229"><ele></ele><time>2015-2-2T23:13:35Z</time></trkpt>
<trkpt lat="45.962882190942764" lon="5.835466152057052"><ele></ele><time>2015-2-2T23:13:38Z</time></trkpt>
<trkpt lat="45.962412133812904" lon="5.835717944428325"><ele></ele><time>2015-2-2T23:13:41Z</time></trkpt>
<trkpt lat="45.961954481899738" lon="5.835835710167885"><ele></ele><time>2015-2-2T23:13:44Z</time></trkpt>
<trkpt lat="45.961510157212615" lon="5.835925145074725"><ele></ele><time>2015-2-2T23:13:47Z</time></trkpt>
<trkpt lat="45.961027191951871" lon="5.836040060967207"><ele></ele><time>2015-2-2T23:13:50Z</time></trkpt>
<trkpt lat="45.960577167570591" lon="5.836169645190239"><ele></ele><time>2015-2-2T23:13:53Z</time></trkpt>
<trkpt lat="45.960125550627708" lon="5.836090100929141"><ele></ele><time>2015-2-2T23:13:56Z</time></trkpt>
<trkpt lat="45.959706287831068" lon="5.835778461769223"><ele></ele><time>2015-2-2T23:13:59Z</time></trkpt>
<trkpt lat="45.959320468828082" lon="5.835503535345197"><ele></ele><time>2015-2-2T23:14:2Z</time></trkpt>
<trkpt lat="45.958998771384358" lon="5.83534779958427"><ele></ele><time>2015-2-2T23:14:5Z</time></trkpt>
<trkpt lat="45.958714541047812" lon="5.835398174822331"><ele></ele><time>2015-2-2T23:14:8Z</time></trkpt>
<trkpt lat="45.958325872197747" lon="5.834980420768261"><ele></ele><time>2015-2-2T23:14:11Z</time></trkpt>
<trkpt lat="45.957974335178733" lon="5.834576161578298"><ele></ele><time>2015-2-2T23:14:14Z</time></trkpt>
<trkpt lat="45.957589019089937" lon="5.834395028650761"><ele></ele><time>2015-2-2T23:14:17Z</time></trkpt>
<trkpt lat="45.957198506221175" lon="5.834306515753269"><ele></ele><time>2015-2-2T23:14:20Z</time></trkpt>
<trkpt lat="45.956841269508004" lon="5.834388490766287"><ele></ele><time>2015-2-2T23:14:23Z</time></trkpt>
<trkpt lat="45.956612275913358" lon="5.834013149142265"><ele></ele><time>2015-2-2T23:14:26Z</time></trkpt>
<trkpt lat="45.956197287887335" lon="5.834269300103188"><ele></ele><time>2015-2-2T23:14:29Z</time></trkpt>
<trkpt lat="45.955747766420245" lon="5.834525534883142"><ele></ele><time>2015-2-2T23:14:32Z</time></trkpt>
<trkpt lat="45.955282151699066" lon="5.834794761613011"><ele></ele><time>2015-2-2T23:14:35Z</time></trkpt>
<trkpt lat="45.95480052754283" lon="5.835015038028359"><ele></ele><time>2015-2-2T23:14:38Z</time></trkpt>
<trkpt lat="45.954333655536175" lon="5.835216119885445"><ele></ele><time>2015-2-2T23:14:41Z</time></trkpt>
<trkpt lat="45.953855132684112" lon="5.835394402965903"><ele></ele><time>2015-2-2T23:14:44Z</time></trkpt>
<trkpt lat="45.953388344496489" lon="5.835575954988599"><ele></ele><time>2015-2-2T23:14:47Z</time></trkpt>
<trkpt lat="45.952944774180651" lon="5.8357606921345"><ele></ele><time>2015-2-2T23:14:50Z</time></trkpt>
<trkpt lat="45.952493324875832" lon="5.835954397916794"><ele></ele><time>2015-2-2T23:14:53Z</time></trkpt>
<trkpt lat="45.952023603022099" lon="5.836169142276049"><ele></ele><time>2015-2-2T23:14:56Z</time></trkpt>
<trkpt lat="45.951553881168365" lon="5.836384557187557"><ele></ele><time>2015-2-2T23:14:59Z</time></trkpt>
<trkpt lat="45.95107770524919" lon="5.836597960442305"><ele></ele><time>2015-2-2T23:15:2Z</time></trkpt>
<trkpt lat="45.950611587613821" lon="5.83678194321692"><ele></ele><time>2015-2-2T23:15:5Z</time></trkpt>
<trkpt lat="45.950135327875614" lon="5.836936254054308"><ele></ele><time>2015-2-2T23:15:8Z</time></trkpt>
<trkpt lat="45.949667952954769" lon="5.837070532143116"><ele></ele><time>2015-2-2T23:15:11Z</time></trkpt>
<trkpt lat="45.949201416224241" lon="5.837179915979505"><ele></ele><time>2015-2-2T23:15:14Z</time></trkpt>
<trkpt lat="45.948730856180191" lon="5.83727496676147"><ele></ele><time>2015-2-2T23:15:17Z</time></trkpt>
<trkpt lat="45.948271779343486" lon="5.837333472445607"><ele></ele><time>2015-2-2T23:15:20Z</time></trkpt>
<trkpt lat="45.947810187935829" lon="5.83739273250103"><ele></ele><time>2015-2-2T23:15:23Z</time></trkpt>
<trkpt lat="45.947340717539191" lon="5.837461212649941"><ele></ele><time>2015-2-2T23:15:26Z</time></trkpt>
<trkpt lat="45.946877785027027" lon="5.837491890415549"><ele></ele><time>2015-2-2T23:15:29Z</time></trkpt>
<trkpt lat="45.946407476440072" lon="5.837490549311042"><ele></ele><time>2015-2-2T23:15:32Z</time></trkpt>
<trkpt lat="45.945934569463134" lon="5.837465319782496"><ele></ele><time>2015-2-2T23:15:35Z</time></trkpt>
<trkpt lat="45.945467026904225" lon="5.837397761642933"><ele></ele><time>2015-2-2T23:15:38Z</time></trkpt>
<trkpt lat="45.944993700832129" lon="5.837339507415891"><ele></ele><time>2015-2-2T23:15:41Z</time></trkpt>
<trkpt lat="45.944526996463537" lon="5.837173797190189"><ele></ele><time>2015-2-2T23:15:44Z</time></trkpt>
<trkpt lat="45.944064147770405" lon="5.836919490247965"><ele></ele><time>2015-2-2T23:15:47Z</time></trkpt>
<trkpt lat="45.943610100075603" lon="5.836669038981199"><ele></ele><time>2015-2-2T23:15:50Z</time></trkpt>
<trkpt lat="45.943227550014853" lon="5.836282884702086"><ele></ele><time>2015-2-2T23:15:53Z</time></trkpt>
<trkpt lat="45.942841731011868" lon="5.835873764008284"><ele></ele><time>2015-2-2T23:15:56Z</time></trkpt>
<trkpt lat="45.942407799884677" lon="5.835506552830339"><ele></ele><time>2015-2-2T23:15:59Z</time></trkpt>
<trkpt lat="45.941959787160158" lon="5.835197009146214"><ele></ele><time>2015-2-2T23:16:2Z</time></trkpt>
<trkpt lat="45.941533399745822" lon="5.834938595071435"><ele></ele><time>2015-2-2T23:16:5Z</time></trkpt>
<trkpt lat="45.941105587407947" lon="5.834699794650078"><ele></ele><time>2015-2-2T23:16:8Z</time></trkpt>
<trkpt lat="45.940621700137854" lon="5.834465017542243"><ele></ele><time>2015-2-2T23:16:11Z</time></trkpt>
<trkpt lat="45.94015147536993" lon="5.834225714206696"><ele></ele><time>2015-2-2T23:16:14Z</time></trkpt>
<trkpt lat="45.939677311107516" lon="5.833996888250113"><ele></ele><time>2015-2-2T23:16:17Z</time></trkpt>
<trkpt lat="45.939192082732916" lon="5.833812234923244"><ele></ele><time>2015-2-2T23:16:20Z</time></trkpt>
<trkpt lat="45.93869679607451" lon="5.833637053146958"><ele></ele><time>2015-2-2T23:16:23Z</time></trkpt>
<trkpt lat="45.938200000673532" lon="5.833480060100555"><ele></ele><time>2015-2-2T23:16:26Z</time></trkpt>
<trkpt lat="45.937698679044843" lon="5.833329521119595"><ele></ele><time>2015-2-2T23:16:29Z</time></trkpt>
<trkpt lat="45.937195681035519" lon="5.833211671561003"><ele></ele><time>2015-2-2T23:16:32Z</time></trkpt>
<trkpt lat="45.936690671369433" lon="5.833270763978362"><ele></ele><time>2015-2-2T23:16:35Z</time></trkpt>
<trkpt lat="45.936205862089992" lon="5.833515264093876"><ele></ele><time>2015-2-2T23:16:38Z</time></trkpt>
<trkpt lat="45.935784168541431" lon="5.833815252408385"><ele></ele><time>2015-2-2T23:16:41Z</time></trkpt>
<trkpt lat="45.935376724228263" lon="5.83422102034092"><ele></ele><time>2015-2-2T23:16:44Z</time></trkpt>
<trkpt lat="45.935011524707079" lon="5.834689233452082"><ele></ele><time>2015-2-2T23:16:47Z</time></trkpt>
<trkpt lat="45.934661496430635" lon="5.835055271163583"><ele></ele><time>2015-2-2T23:16:50Z</time></trkpt>
<trkpt lat="45.934539455920458" lon="5.835617948323488"><ele></ele><time>2015-2-2T23:16:53Z</time></trkpt>
<trkpt lat="45.934565188363194" lon="5.836286405101419"><ele></ele><time>2015-2-2T23:16:56Z</time></trkpt>
<trkpt lat="45.934354132041335" lon="5.83668421022594"><ele></ele><time>2015-2-2T23:16:59Z</time></trkpt>
<trkpt lat="45.933873932808638" lon="5.836719078943133"><ele></ele><time>2015-2-2T23:17:2Z</time></trkpt>
<trkpt lat="45.933423740789294" lon="5.83674824796617"><ele></ele><time>2015-2-2T23:17:5Z</time></trkpt>
<trkpt lat="45.932977739721537" lon="5.836656466126442"><ele></ele><time>2015-2-2T23:17:8Z</time></trkpt>
<trkpt lat="45.932518243789673" lon="5.836388077586889"><ele></ele><time>2015-2-2T23:17:11Z</time></trkpt>
<trkpt lat="45.932069392874837" lon="5.836091777309775"><ele></ele><time>2015-2-2T23:17:14Z</time></trkpt>
<trkpt lat="45.93197375535965" lon="5.835474785417318"><ele></ele><time>2015-2-2T23:17:17Z</time></trkpt>
<trkpt lat="45.93195472843945" lon="5.834797862917185"><ele></ele><time>2015-2-2T23:17:20Z</time></trkpt>
<trkpt lat="45.931988004595041" lon="5.834104008972645"><ele></ele><time>2015-2-2T23:17:23Z</time></trkpt>
<trkpt lat="45.932047432288527" lon="5.833423063158989"><ele></ele><time>2015-2-2T23:17:26Z</time></trkpt>
<trkpt lat="45.932184308767319" lon="5.832773465663195"><ele></ele><time>2015-2-2T23:17:29Z</time></trkpt>
<trkpt lat="45.932493098080158" lon="5.832265522330999"><ele></ele><time>2015-2-2T23:17:32Z</time></trkpt>
<trkpt lat="45.932794427499175" lon="5.831762608140707"><ele></ele><time>2015-2-2T23:17:35Z</time></trkpt>
<trkpt lat="45.93290071003139" lon="5.831170594319701"><ele></ele><time>2015-2-2T23:17:38Z</time></trkpt>
<trkpt lat="45.932490583509207" lon="5.830980241298676"><ele></ele><time>2015-2-2T23:17:41Z</time></trkpt>
<trkpt lat="45.932144075632095" lon="5.830582352355123"><ele></ele><time>2015-2-2T23:17:44Z</time></trkpt>
<trkpt lat="45.932049108669162" lon="5.829920014366508"><ele></ele><time>2015-2-2T23:17:47Z</time></trkpt>
<trkpt lat="45.931760016828775" lon="5.829374855384231"><ele></ele><time>2015-2-2T23:17:50Z</time></trkpt>
<trkpt lat="45.931326253339648" lon="5.829324396327138"><ele></ele><time>2015-2-2T23:17:53Z</time></trkpt>
<trkpt lat="45.930893160402775" lon="5.829608961939812"><ele></ele><time>2015-2-2T23:17:56Z</time></trkpt>
<trkpt lat="45.930460151284933" lon="5.829891264438629"><ele></ele><time>2015-2-2T23:17:59Z</time></trkpt>
<trkpt lat="45.930041307583451" lon="5.830184379592538"><ele></ele><time>2015-2-2T23:18:2Z</time></trkpt>
<trkpt lat="45.929585164412856" lon="5.830497276037931"><ele></ele><time>2015-2-2T23:18:5Z</time></trkpt>
<trkpt lat="45.92916171066463" lon="5.83078502677381"><ele></ele><time>2015-2-2T23:18:8Z</time></trkpt>
<trkpt lat="45.92872828245163" lon="5.831073112785816"><ele></ele><time>2015-2-2T23:18:11Z</time></trkpt>
<trkpt lat="45.928371464833617" lon="5.831561693921685"><ele></ele><time>2015-2-2T23:18:14Z</time></trkpt>
<trkpt lat="45.928127048537135" lon="5.832126969471574"><ele></ele><time>2015-2-2T23:18:17Z</time></trkpt>
<trkpt lat="45.927858995273709" lon="5.832678414881229"><ele></ele><time>2015-2-2T23:18:20Z</time></trkpt>
<trkpt lat="45.927619775757194" lon="5.833276212215424"><ele></ele><time>2015-2-2T23:18:23Z</time></trkpt>
<trkpt lat="45.927352979779243" lon="5.833869399502873"><ele></ele><time>2015-2-2T23:18:26Z</time></trkpt>
<trkpt lat="45.926954923197627" lon="5.834249099716544"><ele></ele><time>2015-2-2T23:18:29Z</time></trkpt>
<trkpt lat="45.926507916301489" lon="5.834191851317883"><ele></ele><time>2015-2-2T23:18:32Z</time></trkpt>
<trkpt lat="45.92599980533123" lon="5.834107277914882"><ele></ele><time>2015-2-2T23:18:35Z</time></trkpt>
<trkpt lat="45.925499573349953" lon="5.834180787205696"><ele></ele><time>2015-2-2T23:18:38Z</time></trkpt>
<trkpt lat="45.925039909780025" lon="5.834350939840078"><ele></ele><time>2015-2-2T23:18:41Z</time></trkpt>
<trkpt lat="45.924579324200749" lon="5.834535174071789"><ele></ele><time>2015-2-2T23:18:44Z</time></trkpt>
<trkpt lat="45.92409904114902" lon="5.834716306999326"><ele></ele><time>2015-2-2T23:18:47Z</time></trkpt>
<trkpt lat="45.923606436699629" lon="5.83493540994823"><ele></ele><time>2015-2-2T23:18:50Z</time></trkpt>
<trkpt lat="45.923257917165756" lon="5.83547386340797"><ele></ele><time>2015-2-2T23:18:53Z</time></trkpt>
<trkpt lat="45.923124812543392" lon="5.836180206388235"><ele></ele><time>2015-2-2T23:18:56Z</time></trkpt>
<trkpt lat="45.92296052724123" lon="5.836916053667665"><ele></ele><time>2015-2-2T23:18:59Z</time></trkpt>
<trkpt lat="45.92264243401587" lon="5.837391475215554"><ele></ele><time>2015-2-2T23:19:2Z</time></trkpt>
<trkpt lat="45.922208670526743" lon="5.837605465203524"><ele></ele><time>2015-2-2T23:19:5Z</time></trkpt>
<trkpt lat="45.921746073290706" lon="5.837714094668627"><ele></ele><time>2015-2-2T23:19:8Z</time></trkpt>
<trkpt lat="45.921221449971199" lon="5.837841918691993"><ele></ele><time>2015-2-2T23:19:11Z</time></trkpt>
<trkpt lat="45.920691797509789" lon="5.837967647239566"><ele></ele><time>2015-2-2T23:19:14Z</time></trkpt>
<trkpt lat="45.920163905248046" lon="5.838088681921363"><ele></ele><time>2015-2-2T23:19:17Z</time></trkpt>
<trkpt lat="45.919676916673779" lon="5.838200077414513"><ele></ele><time>2015-2-2T23:19:20Z</time></trkpt>
<trkpt lat="45.919217672199011" lon="5.838322704657912"><ele></ele><time>2015-2-2T23:19:23Z</time></trkpt>
<trkpt lat="45.918794218450785" lon="5.838542226701975"><ele></ele><time>2015-2-2T23:19:26Z</time></trkpt>
<trkpt lat="45.91835324652493" lon="5.838738698512316"><ele></ele><time>2015-2-2T23:19:29Z</time></trkpt>
<trkpt lat="45.917881010100245" lon="5.838820086792111"><ele></ele><time>2015-2-2T23:19:32Z</time></trkpt>
<trkpt lat="45.917412880808115" lon="5.838891500607133"><ele></ele><time>2015-2-2T23:19:35Z</time></trkpt>
<trkpt lat="45.916952546685934" lon="5.838999627158046"><ele></ele><time>2015-2-2T23:19:38Z</time></trkpt>
<trkpt lat="45.916474023833871" lon="5.839087720960379"><ele></ele><time>2015-2-2T23:19:41Z</time></trkpt>
<trkpt lat="45.916009247303009" lon="5.839177658781409"><ele></ele><time>2015-2-2T23:19:44Z</time></trkpt>
<trkpt lat="45.915540866553783" lon="5.83927589468658"><ele></ele><time>2015-2-2T23:19:47Z</time></trkpt>
<trkpt lat="45.915056895464659" lon="5.839368598535657"><ele></ele><time>2015-2-2T23:19:50Z</time></trkpt>
<trkpt lat="45.914608212187886" lon="5.83945476450026"><ele></ele><time>2015-2-2T23:19:53Z</time></trkpt>
<trkpt lat="45.914152823388577" lon="5.839505139738321"><ele></ele><time>2015-2-2T23:19:56Z</time></trkpt>
<trkpt lat="45.913690477609634" lon="5.839472785592079"><ele></ele><time>2015-2-2T23:19:59Z</time></trkpt>
<trkpt lat="45.913193766027689" lon="5.839405478909612"><ele></ele><time>2015-2-2T23:20:2Z</time></trkpt>
<trkpt lat="45.912740305066109" lon="5.839333226904273"><ele></ele><time>2015-2-2T23:20:5Z</time></trkpt>
<trkpt lat="45.91229036450386" lon="5.839267764240503"><ele></ele><time>2015-2-2T23:20:8Z</time></trkpt>
<trkpt lat="45.911795329302549" lon="5.839424254372716"><ele></ele><time>2015-2-2T23:20:11Z</time></trkpt>
<trkpt lat="45.911343125626445" lon="5.839723153039813"><ele></ele><time>2015-2-2T23:20:14Z</time></trkpt>
<trkpt lat="45.910787489265203" lon="5.839697169139981"><ele></ele><time>2015-2-2T23:20:17Z</time></trkpt>
<trkpt lat="45.91032212600112" lon="5.839626677334309"><ele></ele><time>2015-2-2T23:20:20Z</time></trkpt>
<trkpt lat="45.909835388883948" lon="5.839548222720623"><ele></ele><time>2015-2-2T23:20:23Z</time></trkpt>
<trkpt lat="45.909338258206844" lon="5.839454010128975"><ele></ele><time>2015-2-2T23:20:26Z</time></trkpt>
<trkpt lat="45.908837104216218" lon="5.839415285736322"><ele></ele><time>2015-2-2T23:20:29Z</time></trkpt>
<trkpt lat="45.908335614949465" lon="5.839461637660861"><ele></ele><time>2015-2-2T23:20:32Z</time></trkpt>
<trkpt lat="45.907850973308086" lon="5.839511174708605"><ele></ele><time>2015-2-2T23:20:35Z</time></trkpt>
<trkpt lat="45.907390303909779" lon="5.839549144729972"><ele></ele><time>2015-2-2T23:20:38Z</time></trkpt>
<trkpt lat="45.90683282352984" lon="5.839594826102257"><ele></ele><time>2015-2-2T23:20:41Z</time></trkpt>
<trkpt lat="45.906271319836378" lon="5.839638495817781"><ele></ele><time>2015-2-2T23:20:44Z</time></trkpt>
<trkpt lat="45.905809896066785" lon="5.839680740609765"><ele></ele><time>2015-2-2T23:20:47Z</time></trkpt>
<trkpt lat="45.905259121209383" lon="5.839720638468862"><ele></ele><time>2015-2-2T23:20:50Z</time></trkpt>
<trkpt lat="45.904742879793048" lon="5.839759949594736"><ele></ele><time>2015-2-2T23:20:53Z</time></trkpt>
<trkpt lat="45.904259663075209" lon="5.839826669543982"><ele></ele><time>2015-2-2T23:20:56Z</time></trkpt>
<trkpt lat="45.903806537389755" lon="5.839946446940303"><ele></ele><time>2015-2-2T23:20:59Z</time></trkpt>
<trkpt lat="45.903285015374422" lon="5.840102434158325"><ele></ele><time>2015-2-2T23:21:2Z</time></trkpt>
<trkpt lat="45.902795176953077" lon="5.840239059180021"><ele></ele><time>2015-2-2T23:21:5Z</time></trkpt>
<trkpt lat="45.902329059317708" lon="5.840338133275509"><ele></ele><time>2015-2-2T23:21:8Z</time></trkpt>
<trkpt lat="45.90181709267199" lon="5.840479955077171"><ele></ele><time>2015-2-2T23:21:11Z</time></trkpt>
<trkpt lat="45.901326751336455" lon="5.840614484623075"><ele></ele><time>2015-2-2T23:21:14Z</time></trkpt>
<trkpt lat="45.900860801339149" lon="5.840743817389011"><ele></ele><time>2015-2-2T23:21:17Z</time></trkpt>
<trkpt lat="45.900416811928153" lon="5.840860744938254"><ele></ele><time>2015-2-2T23:21:20Z</time></trkpt>
<trkpt lat="45.899944407865405" lon="5.841012457385659"><ele></ele><time>2015-2-2T23:21:23Z</time></trkpt>
<trkpt lat="45.899478876963258" lon="5.841143885627389"><ele></ele><time>2015-2-2T23:21:26Z</time></trkpt>
<trkpt lat="45.899003790691495" lon="5.841280678287149"><ele></ele><time>2015-2-2T23:21:29Z</time></trkpt>
<trkpt lat="45.898510683327913" lon="5.841420404613018"><ele></ele><time>2015-2-2T23:21:32Z</time></trkpt>
<trkpt lat="45.898067364469171" lon="5.841547725722194"><ele></ele><time>2015-2-2T23:21:35Z</time></trkpt>
<trkpt lat="45.897619854658842" lon="5.841670604422689"><ele></ele><time>2015-2-2T23:21:38Z</time></trkpt>
<trkpt lat="45.89717410504818" lon="5.841807732358575"><ele></ele><time>2015-2-2T23:21:41Z</time></trkpt>
<trkpt lat="45.896674292162061" lon="5.841952990740538"><ele></ele><time>2015-2-2T23:21:44Z</time></trkpt>
<trkpt lat="45.896233152598143" lon="5.842075953260064"><ele></ele><time>2015-2-2T23:21:47Z</time></trkpt>
<trkpt lat="45.895733842626214" lon="5.842226324602962"><ele></ele><time>2015-2-2T23:21:50Z</time></trkpt>
<trkpt lat="45.895237047225237" lon="5.842362111434341"><ele></ele><time>2015-2-2T23:21:53Z</time></trkpt>
<trkpt lat="45.894739413633943" lon="5.842506280168891"><ele></ele><time>2015-2-2T23:21:56Z</time></trkpt>
<trkpt lat="45.894262986257672" lon="5.842639049515128"><ele></ele><time>2015-2-2T23:21:59Z</time></trkpt>
<trkpt lat="45.893782787024975" lon="5.842762850224972"><ele></ele><time>2015-2-2T23:22:2Z</time></trkpt>
<trkpt lat="45.893302503973246" lon="5.842899307608604"><ele></ele><time>2015-2-2T23:22:5Z</time></trkpt>
<trkpt lat="45.892815766856074" lon="5.843067280948162"><ele></ele><time>2015-2-2T23:22:8Z</time></trkpt>
<trkpt lat="45.892325425520539" lon="5.843196948990226"><ele></ele><time>2015-2-2T23:22:11Z</time></trkpt>
<trkpt lat="45.891851093620062" lon="5.843319827690721"><ele></ele><time>2015-2-2T23:22:14Z</time></trkpt>
<trkpt lat="45.8914087805897" lon="5.843330975621939"><ele></ele><time>2015-2-2T23:22:17Z</time></trkpt>
<trkpt lat="45.890916595235467" lon="5.843141796067357"><ele></ele><time>2015-2-2T23:22:20Z</time></trkpt>
<trkpt lat="45.890462379902601" lon="5.84298656322062"><ele></ele><time>2015-2-2T23:22:23Z</time></trkpt>
<trkpt lat="45.890006488189101" lon="5.842941384762526"><ele></ele><time>2015-2-2T23:22:26Z</time></trkpt>
<trkpt lat="45.889536263421178" lon="5.843121260404587"><ele></ele><time>2015-2-2T23:22:29Z</time></trkpt>
<trkpt lat="45.88904332369566" lon="5.843259477987886"><ele></ele><time>2015-2-2T23:22:32Z</time></trkpt>
<trkpt lat="45.88857913389802" lon="5.843220166862011"><ele></ele><time>2015-2-2T23:22:35Z</time></trkpt>
<trkpt lat="45.888112848624587" lon="5.843158140778542"><ele></ele><time>2015-2-2T23:22:38Z</time></trkpt>
<trkpt lat="45.887622842565179" lon="5.843112207949162"><ele></ele><time>2015-2-2T23:22:41Z</time></trkpt>
<trkpt lat="45.88710936717689" lon="5.843023359775543"><ele></ele><time>2015-2-2T23:22:44Z</time></trkpt>
<trkpt lat="45.886610141023993" lon="5.843018498271704"><ele></ele><time>2015-2-2T23:22:47Z</time></trkpt>
<trkpt lat="45.886141424998641" lon="5.843018582090735"><ele></ele><time>2015-2-2T23:22:50Z</time></trkpt>
<trkpt lat="45.885635577142239" lon="5.843043560162187"><ele></ele><time>2015-2-2T23:22:53Z</time></trkpt>
<trkpt lat="45.885176584124565" lon="5.843073735013604"><ele></ele><time>2015-2-2T23:22:56Z</time></trkpt>
<trkpt lat="45.884715160354972" lon="5.843092426657677"><ele></ele><time>2015-2-2T23:22:59Z</time></trkpt>
<trkpt lat="45.884244097396731" lon="5.843121679499745"><ele></ele><time>2015-2-2T23:23:2Z</time></trkpt>
<trkpt lat="45.883787786588073" lon="5.843153698369861"><ele></ele><time>2015-2-2T23:23:5Z</time></trkpt>
<trkpt lat="45.883325273171067" lon="5.843185801059008"><ele></ele><time>2015-2-2T23:23:8Z</time></trkpt>
<trkpt lat="45.882860329002142" lon="5.843208013102412"><ele></ele><time>2015-2-2T23:23:11Z</time></trkpt>
<trkpt lat="45.882383063435555" lon="5.843227710574865"><ele></ele><time>2015-2-2T23:23:14Z</time></trkpt>
<trkpt lat="45.881888112053275" lon="5.843142298981547"><ele></ele><time>2015-2-2T23:23:17Z</time></trkpt>
<trkpt lat="45.88140556588769" lon="5.843234751373529"><ele></ele><time>2015-2-2T23:23:20Z</time></trkpt>
<trkpt lat="45.88098244741559" lon="5.843483274802566"><ele></ele><time>2015-2-2T23:23:23Z</time></trkpt>
<trkpt lat="45.880554132163525" lon="5.84380254149437"><ele></ele><time>2015-2-2T23:23:26Z</time></trkpt>
<trkpt lat="45.880136378109455" lon="5.844108313322067"><ele></ele><time>2015-2-2T23:23:29Z</time></trkpt>
<trkpt lat="45.879644947126508" lon="5.844073025509715"><ele></ele><time>2015-2-2T23:23:32Z</time></trkpt>
<trkpt lat="45.879176985472441" lon="5.844096913933754"><ele></ele><time>2015-2-2T23:23:35Z</time></trkpt>
<trkpt lat="45.878657642751932" lon="5.844138404354453"><ele></ele><time>2015-2-2T23:23:38Z</time></trkpt>
<trkpt lat="45.878178449347615" lon="5.844195149838924"><ele></ele><time>2015-2-2T23:23:41Z</time></trkpt>
<trkpt lat="45.877689952030778" lon="5.844243178144097"><ele></ele><time>2015-2-2T23:23:44Z</time></trkpt>
<trkpt lat="45.877233892679214" lon="5.844274358823896"><ele></ele><time>2015-2-2T23:23:47Z</time></trkpt>
<trkpt lat="45.876717735081911" lon="5.844215769320726"><ele></ele><time>2015-2-2T23:23:50Z</time></trkpt>
<trkpt lat="45.876211049035192" lon="5.844132788479328"><ele></ele><time>2015-2-2T23:23:53Z</time></trkpt>
<trkpt lat="45.875731771811843" lon="5.844050059095025"><ele></ele><time>2015-2-2T23:23:56Z</time></trkpt>
<trkpt lat="45.875274874269962" lon="5.843969425186515"><ele></ele><time>2015-2-2T23:23:59Z</time></trkpt>
<trkpt lat="45.874791573733091" lon="5.843887617811561"><ele></ele><time>2015-2-2T23:24:2Z</time></trkpt>
<trkpt lat="45.874315062537789" lon="5.843797344714403"><ele></ele><time>2015-2-2T23:24:5Z</time></trkpt>
<trkpt lat="45.873816758394241" lon="5.843710340559483"><ele></ele><time>2015-2-2T23:24:8Z</time></trkpt>
<trkpt lat="45.87333052419126" lon="5.843621073290706"><ele></ele><time>2015-2-2T23:24:11Z</time></trkpt>
<trkpt lat="45.872853426262736" lon="5.843498865142465"><ele></ele><time>2015-2-2T23:24:14Z</time></trkpt>
<trkpt lat="45.872357971966267" lon="5.843367855995894"><ele></ele><time>2015-2-2T23:24:17Z</time></trkpt>
<trkpt lat="45.871868887916207" lon="5.843227710574865"><ele></ele><time>2015-2-2T23:24:20Z</time></trkpt>
<trkpt lat="45.871396483853459" lon="5.843089912086725"><ele></ele><time>2015-2-2T23:24:23Z</time></trkpt>
<trkpt lat="45.870954757556319" lon="5.842954711988568"><ele></ele><time>2015-2-2T23:24:26Z</time></trkpt>
<trkpt lat="45.870498111471534" lon="5.842851279303432"><ele></ele><time>2015-2-2T23:24:29Z</time></trkpt>
<trkpt lat="45.870037693530321" lon="5.842810375615954"><ele></ele><time>2015-2-2T23:24:32Z</time></trkpt>
<trkpt lat="45.869559673592448" lon="5.842806436121464"><ele></ele><time>2015-2-2T23:24:35Z</time></trkpt>
<trkpt lat="45.869105290621519" lon="5.842805178835988"><ele></ele><time>2015-2-2T23:24:38Z</time></trkpt>
<trkpt lat="45.868633138015866" lon="5.842806352302432"><ele></ele><time>2015-2-2T23:24:41Z</time></trkpt>
<trkpt lat="45.868178503587842" lon="5.842808447778225"><ele></ele><time>2015-2-2T23:24:44Z</time></trkpt>
<trkpt lat="45.867677014321089" lon="5.842808950692415"><ele></ele><time>2015-2-2T23:24:47Z</time></trkpt>
<trkpt lat="45.86719773709774" lon="5.842785565182567"><ele></ele><time>2015-2-2T23:24:50Z</time></trkpt>
<trkpt lat="45.866709239780903" lon="5.842642821371555"><ele></ele><time>2015-2-2T23:24:53Z</time></trkpt>
<trkpt lat="45.866218814626336" lon="5.842476356774569"><ele></ele><time>2015-2-2T23:24:56Z</time></trkpt>
<trkpt lat="45.86574456654489" lon="5.842314586043358"><ele></ele><time>2015-2-2T23:24:59Z</time></trkpt>
<trkpt lat="45.865297559648752" lon="5.842153904959559"><ele></ele><time>2015-2-2T23:25:2Z</time></trkpt>
<trkpt lat="45.864842422306538" lon="5.842018034309149"><ele></ele><time>2015-2-2T23:25:5Z</time></trkpt>
<trkpt lat="45.864372784271836" lon="5.84199951030314"><ele></ele><time>2015-2-2T23:25:8Z</time></trkpt>
<trkpt lat="45.863876240327954" lon="5.84210604429245"><ele></ele><time>2015-2-2T23:25:11Z</time></trkpt>
<trkpt lat="45.86342210881412" lon="5.842268150299788"><ele></ele><time>2015-2-2T23:25:14Z</time></trkpt>
<trkpt lat="45.862960768863559" lon="5.842417096719146"><ele></ele><time>2015-2-2T23:25:17Z</time></trkpt>
<trkpt lat="45.862503536045551" lon="5.842571575194597"><ele></ele><time>2015-2-2T23:25:20Z</time></trkpt>
<trkpt lat="45.862032053992152" lon="5.842712977901101"><ele></ele><time>2015-2-2T23:25:23Z</time></trkpt>
<trkpt lat="45.861555710434914" lon="5.842735441401601"><ele></ele><time>2015-2-2T23:25:26Z</time></trkpt>
<trkpt lat="45.861101327463984" lon="5.842634523287416"><ele></ele><time>2015-2-2T23:25:29Z</time></trkpt>
<trkpt lat="45.860651386901736" lon="5.842434614896774"><ele></ele><time>2015-2-2T23:25:32Z</time></trkpt>
<trkpt lat="45.860229609534144" lon="5.84220914170146"><ele></ele><time>2015-2-2T23:25:35Z</time></trkpt>
<trkpt lat="45.859781512990594" lon="5.841987691819668"><ele></ele><time>2015-2-2T23:25:38Z</time></trkpt>
<trkpt lat="45.859331656247377" lon="5.841759787872434"><ele></ele><time>2015-2-2T23:25:41Z</time></trkpt>
<trkpt lat="45.858879955485463" lon="5.841529620811343"><ele></ele><time>2015-2-2T23:25:44Z</time></trkpt>
<trkpt lat="45.858439486473799" lon="5.841309260576963"><ele></ele><time>2015-2-2T23:25:47Z</time></trkpt>
<trkpt lat="45.858003962785006" lon="5.841082446277142"><ele></ele><time>2015-2-2T23:25:50Z</time></trkpt>
<trkpt lat="45.857573887333274" lon="5.840864768251777"><ele></ele><time>2015-2-2T23:25:53Z</time></trkpt>
<trkpt lat="45.857091005891562" lon="5.840622531250119"><ele></ele><time>2015-2-2T23:25:56Z</time></trkpt>
<trkpt lat="45.856630755588412" lon="5.840380964800715"><ele></ele><time>2015-2-2T23:25:59Z</time></trkpt>
<trkpt lat="45.856180563569069" lon="5.840154653415084"><ele></ele><time>2015-2-2T23:26:2Z</time></trkpt>
<trkpt lat="45.855709249153733" lon="5.839962037280202"><ele></ele><time>2015-2-2T23:26:5Z</time></trkpt>
<trkpt lat="45.855218404904008" lon="5.839763889089227"><ele></ele><time>2015-2-2T23:26:8Z</time></trkpt>
<trkpt lat="45.854777600616217" lon="5.83958275616169"><ele></ele><time>2015-2-2T23:26:11Z</time></trkpt>
<trkpt lat="45.854322211816907" lon="5.839393325150013"><ele></ele><time>2015-2-2T23:26:14Z</time></trkpt>
<trkpt lat="45.853876126930118" lon="5.839215125888586"><ele></ele><time>2015-2-2T23:26:17Z</time></trkpt>
<trkpt lat="45.853401627391577" lon="5.83902770653367"><ele></ele><time>2015-2-2T23:26:20Z</time></trkpt>
<trkpt lat="45.852911118417978" lon="5.838830312713981"><ele></ele><time>2015-2-2T23:26:23Z</time></trkpt>
<trkpt lat="45.852451538667083" lon="5.838651359081268"><ele></ele><time>2015-2-2T23:26:26Z</time></trkpt>
<trkpt lat="45.852001598104835" lon="5.838487409055233"><ele></ele><time>2015-2-2T23:26:29Z</time></trkpt>
<trkpt lat="45.851561967283487" lon="5.838353633880615"><ele></ele><time>2015-2-2T23:26:32Z</time></trkpt>
<trkpt lat="45.851098783314228" lon="5.838215835392475"><ele></ele><time>2015-2-2T23:26:35Z</time></trkpt>
<trkpt lat="45.850661918520927" lon="5.838026739656925"><ele></ele><time>2015-2-2T23:26:38Z</time></trkpt>
<trkpt lat="45.850667702034116" lon="5.837335148826242"><ele></ele><time>2015-2-2T23:26:41Z</time></trkpt>
<trkpt lat="45.85064054466784" lon="5.836600558832288"><ele></ele><time>2015-2-2T23:26:44Z</time></trkpt>
<trkpt lat="45.850608525797725" lon="5.835880720987916"><ele></ele><time>2015-2-2T23:26:47Z</time></trkpt>
<trkpt lat="45.850624199956656" lon="5.835186615586281"><ele></ele><time>2015-2-2T23:26:50Z</time></trkpt>
<trkpt lat="45.850707264617085" lon="5.834436686709523"><ele></ele><time>2015-2-2T23:26:53Z</time></trkpt>
<trkpt lat="45.850777924060822" lon="5.83378960378468"><ele></ele><time>2015-2-2T23:26:56Z</time></trkpt>
<trkpt lat="45.850849086418748" lon="5.833122739568353"><ele></ele><time>2015-2-2T23:26:59Z</time></trkpt>
<trkpt lat="45.850918153300881" lon="5.832479763776064"><ele></ele><time>2015-2-2T23:27:2Z</time></trkpt>
<trkpt lat="45.850975485518575" lon="5.831748610362411"><ele></ele><time>2015-2-2T23:27:5Z</time></trkpt>
<trkpt lat="45.850980347022414" lon="5.831033298745751"><ele></ele><time>2015-2-2T23:27:8Z</time></trkpt>
<trkpt lat="45.850969031453133" lon="5.830324441194534"><ele></ele><time>2015-2-2T23:27:11Z</time></trkpt>
<trkpt lat="45.850954949855804" lon="5.829632263630629"><ele></ele><time>2015-2-2T23:27:14Z</time></trkpt>
<trkpt lat="45.850943550467491" lon="5.828957268968225"><ele></ele><time>2015-2-2T23:27:17Z</time></trkpt>
<trkpt lat="45.850977832451463" lon="5.828239526599646"><ele></ele><time>2015-2-2T23:27:20Z</time></trkpt>
<trkpt lat="45.851012198254466" lon="5.827578278258443"><ele></ele><time>2015-2-2T23:27:23Z</time></trkpt>
<trkpt lat="45.851057628169656" lon="5.826878054067493"><ele></ele><time>2015-2-2T23:27:26Z</time></trkpt>
<trkpt lat="45.851102219894528" lon="5.82616601139307"><ele></ele><time>2015-2-2T23:27:29Z</time></trkpt>
<trkpt lat="45.851150415837765" lon="5.825475426390767"><ele></ele><time>2015-2-2T23:27:32Z</time></trkpt>
<trkpt lat="45.851185787469149" lon="5.824792301282287"><ele></ele><time>2015-2-2T23:27:35Z</time></trkpt>
<trkpt lat="45.851221913471818" lon="5.824115546420217"><ele></ele><time>2015-2-2T23:27:38Z</time></trkpt>
<trkpt lat="45.851254602894187" lon="5.823450861498714"><ele></ele><time>2015-2-2T23:27:41Z</time></trkpt>
<trkpt lat="45.851305145770311" lon="5.822744769975543"><ele></ele><time>2015-2-2T23:27:44Z</time></trkpt>
<trkpt lat="45.85135149769485" lon="5.822053179144859"><ele></ele><time>2015-2-2T23:27:47Z</time></trkpt>
<trkpt lat="45.851389216259122" lon="5.82137692719698"><ele></ele><time>2015-2-2T23:27:50Z</time></trkpt>
<trkpt lat="45.85143162868917" lon="5.820693969726563"><ele></ele><time>2015-2-2T23:27:53Z</time></trkpt>
<trkpt lat="45.851453673094511" lon="5.820012520998716"><ele></ele><time>2015-2-2T23:27:56Z</time></trkpt>
<trkpt lat="45.851407572627068" lon="5.819346662610769"><ele></ele><time>2015-2-2T23:27:59Z</time></trkpt>
<trkpt lat="45.85129626095295" lon="5.818716762587428"><ele></ele><time>2015-2-2T23:28:2Z</time></trkpt>
<trkpt lat="45.851117977872491" lon="5.818083342164755"><ele></ele><time>2015-2-2T23:28:5Z</time></trkpt>
<trkpt lat="45.85087607614696" lon="5.817499961704016"><ele></ele><time>2015-2-2T23:28:8Z</time></trkpt>
<trkpt lat="45.850602155551314" lon="5.816925382241607"><ele></ele><time>2015-2-2T23:28:11Z</time></trkpt>
<trkpt lat="45.850319182500243" lon="5.816342756152153"><ele></ele><time>2015-2-2T23:28:14Z</time></trkpt>
<trkpt lat="45.850045010447502" lon="5.81575769931078"><ele></ele><time>2015-2-2T23:28:17Z</time></trkpt>
<trkpt lat="45.849770084023476" lon="5.815170966088772"><ele></ele><time>2015-2-2T23:28:20Z</time></trkpt>
<trkpt lat="45.849495828151703" lon="5.814599739387631"><ele></ele><time>2015-2-2T23:28:23Z</time></trkpt>
<trkpt lat="45.849221153184772" lon="5.814019544050098"><ele></ele><time>2015-2-2T23:28:26Z</time></trkpt>
<trkpt lat="45.848955027759075" lon="5.813452508300543"><ele></ele><time>2015-2-2T23:28:29Z</time></trkpt>
<trkpt lat="45.848689572885633" lon="5.812901230528951"><ele></ele><time>2015-2-2T23:28:32Z</time></trkpt>
<trkpt lat="45.848459657281637" lon="5.812320783734322"><ele></ele><time>2015-2-2T23:28:35Z</time></trkpt>
<trkpt lat="45.848303753882647" lon="5.811694487929344"><ele></ele><time>2015-2-2T23:28:38Z</time></trkpt>
<trkpt lat="45.848198141902685" lon="5.811057379469276"><ele></ele><time>2015-2-2T23:28:41Z</time></trkpt>
<trkpt lat="45.848196046426892" lon="5.810403255745769"><ele></ele><time>2015-2-2T23:28:44Z</time></trkpt>
<trkpt lat="45.848262347280979" lon="5.809706971049309"><ele></ele><time>2015-2-2T23:28:47Z</time></trkpt>
<trkpt lat="45.848345579579473" lon="5.80900146625936"><ele></ele><time>2015-2-2T23:28:50Z</time></trkpt>
<trkpt lat="45.8484270516783" lon="5.808339631184936"><ele></ele><time>2015-2-2T23:28:53Z</time></trkpt>
<trkpt lat="45.848521515727043" lon="5.80771149136126"><ele></ele><time>2015-2-2T23:28:56Z</time></trkpt>
<trkpt lat="45.848621679469943" lon="5.807257862761617"><ele></ele><time>2015-2-2T23:28:59Z</time></trkpt>
<trkpt lat="45.848150197416544" lon="5.807312931865454"><ele></ele><time>2015-2-2T23:29:2Z</time></trkpt>
<trkpt lat="45.847704615443945" lon="5.80747788771987"><ele></ele><time>2015-2-2T23:29:5Z</time></trkpt>
<trkpt lat="45.847561787813902" lon="5.807641921564937"><ele></ele><time>2015-2-2T23:29:8Z</time></trkpt>
<trkpt lat="45.847077062353492" lon="5.807783575728536"><ele></ele><time>2015-2-2T23:29:11Z</time></trkpt>
<trkpt lat="45.846593175083399" lon="5.807952554896474"><ele></ele><time>2015-2-2T23:29:14Z</time></trkpt>
<trkpt lat="45.846153208985925" lon="5.808089766651392"><ele></ele><time>2015-2-2T23:29:17Z</time></trkpt>
<trkpt lat="45.845674769952893" lon="5.808270815759897"><ele></ele><time>2015-2-2T23:29:20Z</time></trkpt>
<trkpt lat="45.845255255699158" lon="5.808373661711812"><ele></ele><time>2015-2-2T23:29:23Z</time></trkpt>
<trkpt lat="45.844827862456441" lon="5.808558315038681"><ele></ele><time>2015-2-2T23:29:26Z</time></trkpt>
<trkpt lat="45.84438999183476" lon="5.808886298909783"><ele></ele><time>2015-2-2T23:29:29Z</time></trkpt>
<trkpt lat="45.843980619683862" lon="5.809089140966535"><ele></ele><time>2015-2-2T23:29:32Z</time></trkpt>
<trkpt lat="45.843635201454163" lon="5.808811197057366"><ele></ele><time>2015-2-2T23:29:35Z</time></trkpt>
<trkpt lat="45.843133125454187" lon="5.808982439339161"><ele></ele><time>2015-2-2T23:29:38Z</time></trkpt>
<trkpt lat="45.842647394165397" lon="5.809059133753181"><ele></ele><time>2015-2-2T23:29:41Z</time></trkpt>
<trkpt lat="45.842176582664251" lon="5.808888729661703"><ele></ele><time>2015-2-2T23:29:44Z</time></trkpt>
<trkpt lat="45.841693785041571" lon="5.808678008615971"><ele></ele><time>2015-2-2T23:29:47Z</time></trkpt>
<trkpt lat="45.841195313259959" lon="5.808583712205291"><ele></ele><time>2015-2-2T23:29:50Z</time></trkpt>
<trkpt lat="45.840707402676344" lon="5.808654623106122"><ele></ele><time>2015-2-2T23:29:53Z</time></trkpt>
<trkpt lat="45.840207757428288" lon="5.808692174032331"><ele></ele><time>2015-2-2T23:29:56Z</time></trkpt>
<trkpt lat="45.839720601215959" lon="5.808661160990596"><ele></ele><time>2015-2-2T23:29:59Z</time></trkpt>
<trkpt lat="45.839266050606966" lon="5.808524116873741"><ele></ele><time>2015-2-2T23:30:2Z</time></trkpt>
<trkpt lat="45.838869921863079" lon="5.80880063585937"><ele></ele><time>2015-2-2T23:30:5Z</time></trkpt>
<trkpt lat="45.838480079546571" lon="5.809186790138483"><ele></ele><time>2015-2-2T23:30:8Z</time></trkpt>
<trkpt lat="45.838015470653772" lon="5.809292569756508"><ele></ele><time>2015-2-2T23:30:11Z</time></trkpt>
<trkpt lat="45.837561842054129" lon="5.809366917237639"><ele></ele><time>2015-2-2T23:30:14Z</time></trkpt>
<trkpt lat="45.837106285616755" lon="5.80944855697453"><ele></ele><time>2015-2-2T23:30:17Z</time></trkpt>
<trkpt lat="45.836648968979716" lon="5.809393739327788"><ele></ele><time>2015-2-2T23:30:20Z</time></trkpt>
<trkpt lat="45.836198441684246" lon="5.809373958036304"><ele></ele><time>2015-2-2T23:30:23Z</time></trkpt>
<trkpt lat="45.835727462545037" lon="5.809163572266698"><ele></ele><time>2015-2-2T23:30:26Z</time></trkpt>
<trkpt lat="45.835315911099315" lon="5.808842042461038"><ele></ele><time>2015-2-2T23:30:29Z</time></trkpt>
<trkpt lat="45.8353684656322" lon="5.808278191834688"><ele></ele><time>2015-2-2T23:30:32Z</time></trkpt>
<trkpt lat="45.835596285760403" lon="5.807710317894816"><ele></ele><time>2015-2-2T23:30:35Z</time></trkpt>
<trkpt lat="45.835636015981436" lon="5.807119393721223"><ele></ele><time>2015-2-2T23:30:38Z</time></trkpt>
<trkpt lat="45.835394617170095" lon="5.80653240904212"><ele></ele><time>2015-2-2T23:30:41Z</time></trkpt>
<trkpt lat="45.835140142589808" lon="5.805879626423121"><ele></ele><time>2015-2-2T23:30:44Z</time></trkpt>
<trkpt lat="45.835014833137393" lon="5.805250145494938"><ele></ele><time>2015-2-2T23:30:47Z</time></trkpt>
<trkpt lat="45.834885332733393" lon="5.804637093096972"><ele></ele><time>2015-2-2T23:30:50Z</time></trkpt>
<trkpt lat="45.834552487358451" lon="5.80407558940351"><ele></ele><time>2015-2-2T23:30:53Z</time></trkpt>
<trkpt lat="45.834249816834927" lon="5.803572423756123"><ele></ele><time>2015-2-2T23:30:56Z</time></trkpt>
<trkpt lat="45.833936501294374" lon="5.803084764629602"><ele></ele><time>2015-2-2T23:30:59Z</time></trkpt>
<trkpt lat="45.833563674241304" lon="5.802719062194228"><ele></ele><time>2015-2-2T23:31:2Z</time></trkpt>
<trkpt lat="45.833189086988568" lon="5.802326956763864"><ele></ele><time>2015-2-2T23:31:5Z</time></trkpt>
<trkpt lat="45.832848697900772" lon="5.801828484982252"><ele></ele><time>2015-2-2T23:31:8Z</time></trkpt>
<trkpt lat="45.832485929131508" lon="5.801390446722508"><ele></ele><time>2015-2-2T23:31:11Z</time></trkpt>
<trkpt lat="45.832169177010655" lon="5.800913264974952"><ele></ele><time>2015-2-2T23:31:14Z</time></trkpt>
<trkpt lat="45.831867679953575" lon="5.800406243652105"><ele></ele><time>2015-2-2T23:31:17Z</time></trkpt>
<trkpt lat="45.831564171239734" lon="5.799879776313901"><ele></ele><time>2015-2-2T23:31:20Z</time></trkpt>
<trkpt lat="45.831257309764624" lon="5.799384824931622"><ele></ele><time>2015-2-2T23:31:23Z</time></trkpt>
<trkpt lat="45.830917926505208" lon="5.798902111127973"><ele></ele><time>2015-2-2T23:31:26Z</time></trkpt>
<trkpt lat="45.830598073080182" lon="5.798418978229165"><ele></ele><time>2015-2-2T23:31:29Z</time></trkpt>
<trkpt lat="45.830230778083205" lon="5.798001978546381"><ele></ele><time>2015-2-2T23:31:32Z</time></trkpt>
<trkpt lat="45.829901956021786" lon="5.798540264368057"><ele></ele><time>2015-2-2T23:31:35Z</time></trkpt>
<trkpt lat="45.829578330740333" lon="5.799071928486228"><ele></ele><time>2015-2-2T23:31:38Z</time></trkpt>
<trkpt lat="45.82922394387424" lon="5.799566712230444"><ele></ele><time>2015-2-2T23:31:41Z</time></trkpt>
<trkpt lat="45.828880285844207" lon="5.799972312524915"><ele></ele><time>2015-2-2T23:31:44Z</time></trkpt>
<trkpt lat="45.828561689704657" lon="5.800458462908864"><ele></ele><time>2015-2-2T23:31:47Z</time></trkpt>
<trkpt lat="45.828178469091654" lon="5.800605062395334"><ele></ele><time>2015-2-2T23:31:50Z</time></trkpt>
<trkpt lat="45.827707322314382" lon="5.800500623881817"><ele></ele><time>2015-2-2T23:31:53Z</time></trkpt>
<trkpt lat="45.827283449470997" lon="5.800237432122231"><ele></ele><time>2015-2-2T23:31:56Z</time></trkpt>
<trkpt lat="45.826886566355824" lon="5.799938617274165"><ele></ele><time>2015-2-2T23:31:59Z</time></trkpt>
<trkpt lat="45.826429668813944" lon="5.799812721088529"><ele></ele><time>2015-2-2T23:32:2Z</time></trkpt>
<trkpt lat="45.825978219509125" lon="5.799622032791376"><ele></ele><time>2015-2-2T23:32:5Z</time></trkpt>
<trkpt lat="45.825511431321502" lon="5.799401421099901"><ele></ele><time>2015-2-2T23:32:8Z</time></trkpt>
<trkpt lat="45.825050761923194" lon="5.799171337857842"><ele></ele><time>2015-2-2T23:32:11Z</time></trkpt>
<trkpt lat="45.82469629123807" lon="5.798695832490921"><ele></ele><time>2015-2-2T23:32:14Z</time></trkpt>
<trkpt lat="45.824213996529579" lon="5.79858485609293"><ele></ele><time>2015-2-2T23:32:17Z</time></trkpt>
<trkpt lat="45.823832200840116" lon="5.798115553334355"><ele></ele><time>2015-2-2T23:32:20Z</time></trkpt>
<trkpt lat="45.82357638515532" lon="5.797517253085971"><ele></ele><time>2015-2-2T23:32:23Z</time></trkpt>
<trkpt lat="45.823208754882216" lon="5.797050045803189"><ele></ele><time>2015-2-2T23:32:26Z</time></trkpt>
<trkpt lat="45.823178663849831" lon="5.796375470235944"><ele></ele><time>2015-2-2T23:32:29Z</time></trkpt>
<trkpt lat="45.822843890637159" lon="5.796025022864342"><ele></ele><time>2015-2-2T23:32:32Z</time></trkpt>
<trkpt lat="45.822487659752369" lon="5.79562914557755"><ele></ele><time>2015-2-2T23:32:35Z</time></trkpt>
<trkpt lat="45.822074431926012" lon="5.795305017381907"><ele></ele><time>2015-2-2T23:32:38Z</time></trkpt>
<trkpt lat="45.821824315935373" lon="5.794779472053051"><ele></ele><time>2015-2-2T23:32:41Z</time></trkpt>
<trkpt lat="45.821393067017198" lon="5.794445537030697"><ele></ele><time>2015-2-2T23:32:44Z</time></trkpt>
<trkpt lat="45.821001464501023" lon="5.794001966714859"><ele></ele><time>2015-2-2T23:32:47Z</time></trkpt>
<trkpt lat="45.820678593590856" lon="5.793478097766638"><ele></ele><time>2015-2-2T23:32:50Z</time></trkpt>
<trkpt lat="45.820272993296385" lon="5.793118430301547"><ele></ele><time>2015-2-2T23:32:53Z</time></trkpt>
<trkpt lat="45.819851718842983" lon="5.792686762288213"><ele></ele><time>2015-2-2T23:32:56Z</time></trkpt>
<trkpt lat="45.819427007809281" lon="5.792375793680549"><ele></ele><time>2015-2-2T23:32:59Z</time></trkpt>
<trkpt lat="45.818967595696449" lon="5.792655497789383"><ele></ele><time>2015-2-2T23:33:2Z</time></trkpt>
<trkpt lat="45.818509524688125" lon="5.792854651808739"><ele></ele><time>2015-2-2T23:33:5Z</time></trkpt>
<trkpt lat="45.81807198934257" lon="5.793078364804387"><ele></ele><time>2015-2-2T23:33:8Z</time></trkpt>
<trkpt lat="45.817700922489166" lon="5.793438870459795"><ele></ele><time>2015-2-2T23:33:11Z</time></trkpt>
<trkpt lat="45.817259531468153" lon="5.79362578690052"><ele></ele><time>2015-2-2T23:33:14Z</time></trkpt>
<trkpt lat="45.816804310306907" lon="5.793569209054112"><ele></ele><time>2015-2-2T23:33:17Z</time></trkpt>
<trkpt lat="45.816358895972371" lon="5.793527634814382"><ele></ele><time>2015-2-2T23:33:20Z</time></trkpt>
<trkpt lat="45.815929658710957" lon="5.793767776340246"><ele></ele><time>2015-2-2T23:33:23Z</time></trkpt>
<trkpt lat="45.815488016232848" lon="5.793971959501505"><ele></ele><time>2015-2-2T23:33:26Z</time></trkpt>
<trkpt lat="45.81504687666893" lon="5.794152589514852"><ele></ele><time>2015-2-2T23:33:29Z</time></trkpt>
<trkpt lat="45.814657034352422" lon="5.793825946748257"><ele></ele><time>2015-2-2T23:33:32Z</time></trkpt>
<trkpt lat="45.814229054376483" lon="5.793472230434418"><ele></ele><time>2015-2-2T23:33:35Z</time></trkpt>
<trkpt lat="45.813864022493362" lon="5.79345622099936"><ele></ele><time>2015-2-2T23:33:38Z</time></trkpt>
<trkpt lat="45.813599154353142" lon="5.794039350003004"><ele></ele><time>2015-2-2T23:33:41Z</time></trkpt>
<trkpt lat="45.813315426930785" lon="5.794599764049053"><ele></ele><time>2015-2-2T23:33:44Z</time></trkpt>
<trkpt lat="45.813014516606927" lon="5.795080550014973"><ele></ele><time>2015-2-2T23:33:47Z</time></trkpt>
<trkpt lat="45.812628697603941" lon="5.794731695204973"><ele></ele><time>2015-2-2T23:33:50Z</time></trkpt>
<trkpt lat="45.812230473384261" lon="5.794383678585291"><ele></ele><time>2015-2-2T23:33:53Z</time></trkpt>
<trkpt lat="45.81174180842936" lon="5.794331543147564"><ele></ele><time>2015-2-2T23:33:56Z</time></trkpt>
<trkpt lat="45.811261693015695" lon="5.794369848445058"><ele></ele><time>2015-2-2T23:33:59Z</time></trkpt>
<trkpt lat="45.810799095779657" lon="5.794387953355908"><ele></ele><time>2015-2-2T23:34:2Z</time></trkpt>
<trkpt lat="45.810432052239776" lon="5.793905407190323"><ele></ele><time>2015-2-2T23:34:5Z</time></trkpt>
<trkpt lat="45.810079593211412" lon="5.793460747227073"><ele></ele><time>2015-2-2T23:34:8Z</time></trkpt>
<trkpt lat="45.809726631268859" lon="5.793020529672504"><ele></ele><time>2015-2-2T23:34:11Z</time></trkpt>
<trkpt lat="45.809428738430142" lon="5.792531277984381"><ele></ele><time>2015-2-2T23:34:14Z</time></trkpt>
<trkpt lat="45.809230087324977" lon="5.791949070990086"><ele></ele><time>2015-2-2T23:34:17Z</time></trkpt>
<trkpt lat="45.809165546670556" lon="5.791251193732023"><ele></ele><time>2015-2-2T23:34:20Z</time></trkpt>
<trkpt lat="45.809210808947682" lon="5.790600841864944"><ele></ele><time>2015-2-2T23:34:23Z</time></trkpt>
<trkpt lat="45.809420356526971" lon="5.789978401735425"><ele></ele><time>2015-2-2T23:34:26Z</time></trkpt>
<trkpt lat="45.809630826115608" lon="5.789385382086039"><ele></ele><time>2015-2-2T23:34:29Z</time></trkpt>
<trkpt lat="45.809296304360032" lon="5.789030492305756"><ele></ele><time>2015-2-2T23:34:32Z</time></trkpt>
<trkpt lat="45.809186417609453" lon="5.788436383008957"><ele></ele><time>2015-2-2T23:34:35Z</time></trkpt>
<trkpt lat="45.808778973296285" lon="5.788168245926499"><ele></ele><time>2015-2-2T23:34:38Z</time></trkpt>
<trkpt lat="45.808346467092633" lon="5.787938246503472"><ele></ele><time>2015-2-2T23:34:41Z</time></trkpt>
<trkpt lat="45.807869369164109" lon="5.78786582686007"><ele></ele><time>2015-2-2T23:34:44Z</time></trkpt>
<trkpt lat="45.807388415560126" lon="5.787841016426683"><ele></ele><time>2015-2-2T23:34:47Z</time></trkpt>
<trkpt lat="45.806895392015576" lon="5.787772033363581"><ele></ele><time>2015-2-2T23:34:50Z</time></trkpt>
<trkpt lat="45.806421395391226" lon="5.787731800228357"><ele></ele><time>2015-2-2T23:34:53Z</time></trkpt>
<trkpt lat="45.805957121774554" lon="5.787708749994636"><ele></ele><time>2015-2-2T23:34:56Z</time></trkpt>
<trkpt lat="45.805506426841021" lon="5.787721909582615"><ele></ele><time>2015-2-2T23:34:59Z</time></trkpt>
<trkpt lat="45.80502362921834" lon="5.787794077768922"><ele></ele><time>2015-2-2T23:35:2Z</time></trkpt>
<trkpt lat="45.80456187017262" lon="5.78795718960464"><ele></ele><time>2015-2-2T23:35:5Z</time></trkpt>
<trkpt lat="45.804126765578985" lon="5.788189116865397"><ele></ele><time>2015-2-2T23:35:8Z</time></trkpt>
<trkpt lat="45.803678585216403" lon="5.788065232336521"><ele></ele><time>2015-2-2T23:35:11Z</time></trkpt>
<trkpt lat="45.803225710988045" lon="5.788041260093451"><ele></ele><time>2015-2-2T23:35:14Z</time></trkpt>
<trkpt lat="45.802754396572709" lon="5.787947131320834"><ele></ele><time>2015-2-2T23:35:17Z</time></trkpt>
<trkpt lat="45.802283585071564" lon="5.787746971473098"><ele></ele><time>2015-2-2T23:35:20Z</time></trkpt>
<trkpt lat="45.801844876259565" lon="5.787569526582956"><ele></ele><time>2015-2-2T23:35:23Z</time></trkpt>
<trkpt lat="45.801389487460256" lon="5.787419406697154"><ele></ele><time>2015-2-2T23:35:26Z</time></trkpt>
<trkpt lat="45.800948264077306" lon="5.787252858281136"><ele></ele><time>2015-2-2T23:35:29Z</time></trkpt>
<trkpt lat="45.800512824207544" lon="5.78702587634325"><ele></ele><time>2015-2-2T23:35:32Z</time></trkpt>
<trkpt lat="45.800086436793208" lon="5.78679964877665"><ele></ele><time>2015-2-2T23:35:35Z</time></trkpt>
<trkpt lat="45.799651080742478" lon="5.786643410101533"><ele></ele><time>2015-2-2T23:35:38Z</time></trkpt>
<trkpt lat="45.799196194857359" lon="5.786749105900526"><ele></ele><time>2015-2-2T23:35:41Z</time></trkpt>
<trkpt lat="45.798736531287432" lon="5.786910792812705"><ele></ele><time>2015-2-2T23:35:44Z</time></trkpt>
<trkpt lat="45.798273095861077" lon="5.786775341257453"><ele></ele><time>2015-2-2T23:35:47Z</time></trkpt>
<trkpt lat="45.797885935753584" lon="5.786305032670498"><ele></ele><time>2015-2-2T23:35:50Z</time></trkpt>
<trkpt lat="45.797448568046093" lon="5.78612138517201"><ele></ele><time>2015-2-2T23:35:53Z</time></trkpt>
<trkpt lat="45.796951353549957" lon="5.786031866446137"><ele></ele><time>2015-2-2T23:35:56Z</time></trkpt>
<trkpt lat="45.796440728008747" lon="5.785962296649814"><ele></ele><time>2015-2-2T23:35:59Z</time></trkpt>
<trkpt lat="45.795925157144666" lon="5.785991214215756"><ele></ele><time>2015-2-2T23:36:2Z</time></trkpt>
<trkpt lat="45.795469265431166" lon="5.785752916708589"><ele></ele><time>2015-2-2T23:36:5Z</time></trkpt>
<trkpt lat="45.794988563284278" lon="5.785496095195413"><ele></ele><time>2015-2-2T23:36:8Z</time></trkpt>
<trkpt lat="45.79444432631135" lon="5.785451754927635"><ele></ele><time>2015-2-2T23:36:11Z</time></trkpt>
<trkpt lat="45.793896736577153" lon="5.785604557022452"><ele></ele><time>2015-2-2T23:36:14Z</time></trkpt>
<trkpt lat="45.793470181524754" lon="5.785818630829454"><ele></ele><time>2015-2-2T23:36:17Z</time></trkpt>
<trkpt lat="45.792931392788887" lon="5.786037733778358"><ele></ele><time>2015-2-2T23:36:20Z</time></trkpt>
<trkpt lat="45.792388496920466" lon="5.786112751811743"><ele></ele><time>2015-2-2T23:36:23Z</time></trkpt>
<trkpt lat="45.791896814480424" lon="5.785991381853819"><ele></ele><time>2015-2-2T23:36:26Z</time></trkpt>
<trkpt lat="45.791446035727859" lon="5.785901276394725"><ele></ele><time>2015-2-2T23:36:29Z</time></trkpt>
<trkpt lat="45.791011434048414" lon="5.785682843998075"><ele></ele><time>2015-2-2T23:36:32Z</time></trkpt>
<trkpt lat="45.790522014722228" lon="5.785497855395079"><ele></ele><time>2015-2-2T23:36:35Z</time></trkpt>
<trkpt lat="45.790058495476842" lon="5.785317309200764"><ele></ele><time>2015-2-2T23:36:38Z</time></trkpt>
<trkpt lat="45.78961567953229" lon="5.785152520984411"><ele></ele><time>2015-2-2T23:36:41Z</time></trkpt>
<trkpt lat="45.789154758676887" lon="5.785030145198107"><ele></ele><time>2015-2-2T23:36:44Z</time></trkpt>
<trkpt lat="45.788642205297947" lon="5.784844821318984"><ele></ele><time>2015-2-2T23:36:47Z</time></trkpt>
<trkpt lat="45.788202909752727" lon="5.784684643149376"><ele></ele><time>2015-2-2T23:36:50Z</time></trkpt>
<trkpt lat="45.787671748548746" lon="5.78465212136507"><ele></ele><time>2015-2-2T23:36:53Z</time></trkpt>
<trkpt lat="45.787228429690003" lon="5.78449328429997"><ele></ele><time>2015-2-2T23:36:56Z</time></trkpt>
<trkpt lat="45.786777064204216" lon="5.784437628462911"><ele></ele><time>2015-2-2T23:36:59Z</time></trkpt>
<trkpt lat="45.786328380927444" lon="5.784451626241207"><ele></ele><time>2015-2-2T23:37:2Z</time></trkpt>
<trkpt lat="45.785813815891743" lon="5.784344673156738"><ele></ele><time>2015-2-2T23:37:5Z</time></trkpt>
<trkpt lat="45.78536270186305" lon="5.784272504970431"><ele></ele><time>2015-2-2T23:37:8Z</time></trkpt>
<trkpt lat="45.784877389669418" lon="5.784207042306662"><ele></ele><time>2015-2-2T23:37:11Z</time></trkpt>
<trkpt lat="45.784398866817355" lon="5.783968744799495"><ele></ele><time>2015-2-2T23:37:14Z</time></trkpt>
<trkpt lat="45.783919673413038" lon="5.783931193873286"><ele></ele><time>2015-2-2T23:37:17Z</time></trkpt>
<trkpt lat="45.783422961831093" lon="5.783910322934389"><ele></ele><time>2015-2-2T23:37:20Z</time></trkpt>
<trkpt lat="45.782916024327278" lon="5.783868078142405"><ele></ele><time>2015-2-2T23:37:23Z</time></trkpt>
<trkpt lat="45.782432975247502" lon="5.783832538872957"><ele></ele><time>2015-2-2T23:37:26Z</time></trkpt>
<trkpt lat="45.781925367191434" lon="5.783788952976465"><ele></ele><time>2015-2-2T23:37:29Z</time></trkpt>
<trkpt lat="45.78146880492568" lon="5.783766405656934"><ele></ele><time>2015-2-2T23:37:32Z</time></trkpt>
<trkpt lat="45.780993802472949" lon="5.783710079267621"><ele></ele><time>2015-2-2T23:37:35Z</time></trkpt>
<trkpt lat="45.780512262135744" lon="5.783632546663284"><ele></ele><time>2015-2-2T23:37:38Z</time></trkpt>
<trkpt lat="45.780069613829255" lon="5.783478738740087"><ele></ele><time>2015-2-2T23:37:41Z</time></trkpt>
<trkpt lat="45.779624953866005" lon="5.783307999372482"><ele></ele><time>2015-2-2T23:37:44Z</time></trkpt>
<trkpt lat="45.779146766290069" lon="5.783196184784174"><ele></ele><time>2015-2-2T23:37:47Z</time></trkpt>
<trkpt lat="45.778651731088758" lon="5.783055955544114"><ele></ele><time>2015-2-2T23:37:50Z</time></trkpt>
<trkpt lat="45.778147811070085" lon="5.782966939732432"><ele></ele><time>2015-2-2T23:37:53Z</time></trkpt>
<trkpt lat="45.777691332623363" lon="5.78295947983861"><ele></ele><time>2015-2-2T23:37:56Z</time></trkpt>
<trkpt lat="45.777215911075473" lon="5.782986972481012"><ele></ele><time>2015-2-2T23:37:59Z</time></trkpt>
<trkpt lat="45.776696065440774" lon="5.78300348483026"><ele></ele><time>2015-2-2T23:38:2Z</time></trkpt>
<trkpt lat="45.776243526488543" lon="5.783136254176498"><ele></ele><time>2015-2-2T23:38:5Z</time></trkpt>
<trkpt lat="45.775741869583726" lon="5.783334234729409"><ele></ele><time>2015-2-2T23:38:8Z</time></trkpt>
<trkpt lat="45.775243313983083" lon="5.783522995188832"><ele></ele><time>2015-2-2T23:38:11Z</time></trkpt>
<trkpt lat="45.774799073114991" lon="5.783650651574135"><ele></ele><time>2015-2-2T23:38:14Z</time></trkpt>
<trkpt lat="45.774336559697986" lon="5.783709241077304"><ele></ele><time>2015-2-2T23:38:17Z</time></trkpt>
<trkpt lat="45.773837920278311" lon="5.783738913014531"><ele></ele><time>2015-2-2T23:38:20Z</time></trkpt>
<trkpt lat="45.773316817358136" lon="5.783765651285648"><ele></ele><time>2015-2-2T23:38:23Z</time></trkpt>
<trkpt lat="45.772786159068346" lon="5.783813428133726"><ele></ele><time>2015-2-2T23:38:26Z</time></trkpt>
<trkpt lat="45.772335380315781" lon="5.783829689025879"><ele></ele><time>2015-2-2T23:38:29Z</time></trkpt>
<trkpt lat="45.771889882162213" lon="5.783754251897335"><ele></ele><time>2015-2-2T23:38:32Z</time></trkpt>
<trkpt lat="45.771358301863074" lon="5.783666912466288"><ele></ele><time>2015-2-2T23:38:35Z</time></trkpt>
<trkpt lat="45.770845748484135" lon="5.783686777576804"><ele></ele><time>2015-2-2T23:38:38Z</time></trkpt>
<trkpt lat="45.770353311672807" lon="5.783720724284649"><ele></ele><time>2015-2-2T23:38:41Z</time></trkpt>
<trkpt lat="45.769864395260811" lon="5.78365970402956"><ele></ele><time>2015-2-2T23:38:44Z</time></trkpt>
<trkpt lat="45.76941579580307" lon="5.783702367916703"><ele></ele><time>2015-2-2T23:38:47Z</time></trkpt>
<trkpt lat="45.768938865512609" lon="5.783893391489983"><ele></ele><time>2015-2-2T23:38:50Z</time></trkpt>
<trkpt lat="45.768452463671565" lon="5.783968660980463"><ele></ele><time>2015-2-2T23:38:53Z</time></trkpt>
<trkpt lat="45.767998415976763" lon="5.783910909667611"><ele></ele><time>2015-2-2T23:38:56Z</time></trkpt>
<trkpt lat="45.767515785992146" lon="5.783873442560434"><ele></ele><time>2015-2-2T23:38:59Z</time></trkpt>
<trkpt lat="45.76700683683157" lon="5.783861875534058"><ele></ele><time>2015-2-2T23:39:2Z</time></trkpt>
<trkpt lat="45.766560584306717" lon="5.783961284905672"><ele></ele><time>2015-2-2T23:39:5Z</time></trkpt>
<trkpt lat="45.766102261841297" lon="5.784054659307003"><ele></ele><time>2015-2-2T23:39:8Z</time></trkpt>
<trkpt lat="45.765609741210937" lon="5.784122301265597"><ele></ele><time>2015-2-2T23:39:11Z</time></trkpt>
<trkpt lat="45.765150999650359" lon="5.78410972841084"><ele></ele><time>2015-2-2T23:39:14Z</time></trkpt>
<trkpt lat="45.764664262533188" lon="5.784117439761758"><ele></ele><time>2015-2-2T23:39:17Z</time></trkpt>
<trkpt lat="45.764156067743897" lon="5.784217016771436"><ele></ele><time>2015-2-2T23:39:20Z</time></trkpt>
<trkpt lat="45.763642843812704" lon="5.784335201606154"><ele></ele><time>2015-2-2T23:39:23Z</time></trkpt>
<trkpt lat="45.763111850246787" lon="5.784441316500306"><ele></ele><time>2015-2-2T23:39:26Z</time></trkpt>
<trkpt lat="45.762579934671521" lon="5.784455398097634"><ele></ele><time>2015-2-2T23:39:29Z</time></trkpt>
<trkpt lat="45.762108033522964" lon="5.784559082239866"><ele></ele><time>2015-2-2T23:39:32Z</time></trkpt>
<trkpt lat="45.761674605309963" lon="5.784741975367069"><ele></ele><time>2015-2-2T23:39:35Z</time></trkpt>
<trkpt lat="45.761195411905646" lon="5.784938111901283"><ele></ele><time>2015-2-2T23:39:38Z</time></trkpt>
<trkpt lat="45.760741364210844" lon="5.785052357241511"><ele></ele><time>2015-2-2T23:39:41Z</time></trkpt>
<trkpt lat="45.760247334837914" lon="5.785209937021136"><ele></ele><time>2015-2-2T23:39:44Z</time></trkpt>
<trkpt lat="45.759765543043613" lon="5.785382185131311"><ele></ele><time>2015-2-2T23:39:47Z</time></trkpt>
<trkpt lat="45.759297832846642" lon="5.785582596436143"><ele></ele><time>2015-2-2T23:39:50Z</time></trkpt>
<trkpt lat="45.758841019123793" lon="5.785854253917933"><ele></ele><time>2015-2-2T23:39:53Z</time></trkpt>
<trkpt lat="45.75837180018425" lon="5.786120463162661"><ele></ele><time>2015-2-2T23:39:56Z</time></trkpt>
<trkpt lat="45.757880788296461" lon="5.786129264160991"><ele></ele><time>2015-2-2T23:39:59Z</time></trkpt>
<trkpt lat="45.757384663447738" lon="5.78597386367619"><ele></ele><time>2015-2-2T23:40:2Z</time></trkpt>
<trkpt lat="45.756943020969629" lon="5.78584972769022"><ele></ele><time>2015-2-2T23:40:5Z</time></trkpt>
<trkpt lat="45.756437759846449" lon="5.785869508981705"><ele></ele><time>2015-2-2T23:40:8Z</time></trkpt>
<trkpt lat="45.755941048264503" lon="5.786015521734953"><ele></ele><time>2015-2-2T23:40:11Z</time></trkpt>
<trkpt lat="45.755491945892572" lon="5.78615658916533"><ele></ele><time>2015-2-2T23:40:14Z</time></trkpt>
<trkpt lat="45.75503739528358" lon="5.786280389875174"><ele></ele><time>2015-2-2T23:40:17Z</time></trkpt>
<trkpt lat="45.754537330940366" lon="5.786420367658138"><ele></ele><time>2015-2-2T23:40:20Z</time></trkpt>
<trkpt lat="45.754032572731376" lon="5.786560513079166"><ele></ele><time>2015-2-2T23:40:23Z</time></trkpt>
<trkpt lat="45.753539800643921" lon="5.786700826138258"><ele></ele><time>2015-2-2T23:40:26Z</time></trkpt>
<trkpt lat="45.753092542290688" lon="5.786816161125898"><ele></ele><time>2015-2-2T23:40:29Z</time></trkpt>
<trkpt lat="45.753289349377155" lon="5.78634669072926"><ele></ele><time>2015-2-2T23:40:32Z</time></trkpt>
<trkpt lat="45.753646418452263" lon="5.785876046866179"><ele></ele><time>2015-2-2T23:40:35Z</time></trkpt>
<trkpt lat="45.753773571923375" lon="5.785232568159699"><ele></ele><time>2015-2-2T23:40:38Z</time></trkpt>
<trkpt lat="45.753711713477969" lon="5.784585066139698"><ele></ele><time>2015-2-2T23:40:41Z</time></trkpt>
<trkpt lat="45.753654548898339" lon="5.783926332369447"><ele></ele><time>2015-2-2T23:40:44Z</time></trkpt>
<trkpt lat="45.753592774271965" lon="5.783262653276324"><ele></ele><time>2015-2-2T23:40:47Z</time></trkpt>
<trkpt lat="45.753528233617544" lon="5.782547006383538"><ele></ele><time>2015-2-2T23:40:50Z</time></trkpt>
<trkpt lat="45.753470985218883" lon="5.781810991466045"><ele></ele><time>2015-2-2T23:40:53Z</time></trkpt>
<trkpt lat="45.753467213362455" lon="5.781108839437366"><ele></ele><time>2015-2-2T23:40:56Z</time></trkpt>
<trkpt lat="45.753490515053272" lon="5.780409704893827"><ele></ele><time>2015-2-2T23:40:59Z</time></trkpt>
<trkpt lat="45.753603670746088" lon="5.779783241450787"><ele></ele><time>2015-2-2T23:41:2Z</time></trkpt>
<trkpt lat="45.753976833075285" lon="5.77948191203177"><ele></ele><time>2015-2-2T23:41:5Z</time></trkpt>
<trkpt lat="45.754408417269588" lon="5.779244704172015"><ele></ele><time>2015-2-2T23:41:8Z</time></trkpt>
<trkpt lat="45.754790212959051" lon="5.778846563771367"><ele></ele><time>2015-2-2T23:41:11Z</time></trkpt>
<trkpt lat="45.755060277879238" lon="5.778321521356702"><ele></ele><time>2015-2-2T23:41:14Z</time></trkpt>
<trkpt lat="45.755121214315295" lon="5.777665637433529"><ele></ele><time>2015-2-2T23:41:17Z</time></trkpt>
<trkpt lat="45.755165722221136" lon="5.77698209322989"><ele></ele><time>2015-2-2T23:41:20Z</time></trkpt>
<trkpt lat="45.755135966464877" lon="5.776339955627918"><ele></ele><time>2015-2-2T23:41:23Z</time></trkpt>
<trkpt lat="45.755060529336333" lon="5.775672504678369"><ele></ele><time>2015-2-2T23:41:26Z</time></trkpt>
<trkpt lat="45.754997916519642" lon="5.775009747594595"><ele></ele><time>2015-2-2T23:41:29Z</time></trkpt>
<trkpt lat="45.754994144663215" lon="5.774338860064745"><ele></ele><time>2015-2-2T23:41:32Z</time></trkpt>
<trkpt lat="45.75500026345253" lon="5.773651963099837"><ele></ele><time>2015-2-2T23:41:35Z</time></trkpt>
<trkpt lat="45.754899177700281" lon="5.772986523807049"><ele></ele><time>2015-2-2T23:41:38Z</time></trkpt>
<trkpt lat="45.754805551841855" lon="5.772323179990053"><ele></ele><time>2015-2-2T23:41:41Z</time></trkpt>
<trkpt lat="45.754723325371742" lon="5.771681712940335"><ele></ele><time>2015-2-2T23:41:44Z</time></trkpt>
<trkpt lat="45.754638332873583" lon="5.771050220355392"><ele></ele><time>2015-2-2T23:41:47Z</time></trkpt>
<trkpt lat="45.754604721441865" lon="5.770400455221534"><ele></ele><time>2015-2-2T23:41:50Z</time></trkpt>
<trkpt lat="45.754602793604136" lon="5.769743481650949"><ele></ele><time>2015-2-2T23:41:53Z</time></trkpt>
<trkpt lat="45.754606314003468" lon="5.769080389291048"><ele></ele><time>2015-2-2T23:41:56Z</time></trkpt>
<trkpt lat="45.754623077809811" lon="5.768413357436657"><ele></ele><time>2015-2-2T23:41:59Z</time></trkpt>
<trkpt lat="45.7546167075634" lon="5.767772980034351"><ele></ele><time>2015-2-2T23:42:2Z</time></trkpt>
<trkpt lat="45.754508413374424" lon="5.767130926251411"><ele></ele><time>2015-2-2T23:42:5Z</time></trkpt>
<trkpt lat="45.754379834979773" lon="5.766464984044433"><ele></ele><time>2015-2-2T23:42:8Z</time></trkpt>
<trkpt lat="45.754266092553735" lon="5.76578370295465"><ele></ele><time>2015-2-2T23:42:11Z</time></trkpt>
<trkpt lat="45.754334321245551" lon="5.765145923942328"><ele></ele><time>2015-2-2T23:42:14Z</time></trkpt>
<trkpt lat="45.754278833046556" lon="5.764497919008136"><ele></ele><time>2015-2-2T23:42:17Z</time></trkpt>
<trkpt lat="45.754176238551736" lon="5.763797527179122"><ele></ele><time>2015-2-2T23:42:20Z</time></trkpt>
<trkpt lat="45.754086468368769" lon="5.763167459517717"><ele></ele><time>2015-2-2T23:42:23Z</time></trkpt>
<trkpt lat="45.754512185230851" lon="5.763271478936076"><ele></ele><time>2015-2-2T23:42:26Z</time></trkpt>
<trkpt lat="45.754898758605123" lon="5.763660231605172"><ele></ele><time>2015-2-2T23:42:29Z</time></trkpt>
<trkpt lat="45.755352638661861" lon="5.763929877430201"><ele></ele><time>2015-2-2T23:42:32Z</time></trkpt>
<trkpt lat="45.755905425176024" lon="5.764002716168761"><ele></ele><time>2015-2-2T23:42:35Z</time></trkpt>
<trkpt lat="45.75635863468051" lon="5.764184854924679"><ele></ele><time>2015-2-2T23:42:38Z</time></trkpt>
<trkpt lat="45.756802707910538" lon="5.764515437185764"><ele></ele><time>2015-2-2T23:42:41Z</time></trkpt>
<trkpt lat="45.757255414500833" lon="5.764846354722977"><ele></ele><time>2015-2-2T23:42:44Z</time></trkpt>
<trkpt lat="45.757726393640041" lon="5.765111306682229"><ele></ele><time>2015-2-2T23:42:47Z</time></trkpt>
<trkpt lat="45.758189326152205" lon="5.765099069103599"><ele></ele><time>2015-2-2T23:42:50Z</time></trkpt>
<trkpt lat="45.758652845397592" lon="5.764993876218796"><ele></ele><time>2015-2-2T23:42:53Z</time></trkpt>
<trkpt lat="45.759119382128119" lon="5.764937801286578"><ele></ele><time>2015-2-2T23:42:56Z</time></trkpt>
<trkpt lat="45.759647944942117" lon="5.764986332505941"><ele></ele><time>2015-2-2T23:42:59Z</time></trkpt>
<trkpt lat="45.760102747008204" lon="5.764936795458198"><ele></ele><time>2015-2-2T23:43:2Z</time></trkpt>
<trkpt lat="45.760569870471954" lon="5.764841241762042"><ele></ele><time>2015-2-2T23:43:5Z</time></trkpt>
<trkpt lat="45.761032132431865" lon="5.76471358537674"><ele></ele><time>2015-2-2T23:43:8Z</time></trkpt>
<trkpt lat="45.76151417568326" lon="5.764541169628501"><ele></ele><time>2015-2-2T23:43:11Z</time></trkpt>
<trkpt lat="45.761965876445174" lon="5.76435542665422"><ele></ele><time>2015-2-2T23:43:14Z</time></trkpt>
<trkpt lat="45.762428473681211" lon="5.764160882681608"><ele></ele><time>2015-2-2T23:43:17Z</time></trkpt>
<trkpt lat="45.762854525819421" lon="5.763950832188129"><ele></ele><time>2015-2-2T23:43:20Z</time></trkpt>
<trkpt lat="45.763284433633089" lon="5.763610107824206"><ele></ele><time>2015-2-2T23:43:23Z</time></trkpt>
<trkpt lat="45.76366463676095" lon="5.763265024870634"><ele></ele><time>2015-2-2T23:43:26Z</time></trkpt>
<trkpt lat="45.764054981991649" lon="5.762915834784508"><ele></ele><time>2015-2-2T23:43:29Z</time></trkpt>
<trkpt lat="45.764443650841713" lon="5.762554574757814"><ele></ele><time>2015-2-2T23:43:32Z</time></trkpt>
<trkpt lat="45.764830810949206" lon="5.762172527611256"><ele></ele><time>2015-2-2T23:43:35Z</time></trkpt>
<trkpt lat="45.765248732641339" lon="5.761700207367539"><ele></ele><time>2015-2-2T23:43:38Z</time></trkpt>
<trkpt lat="45.76565726660192" lon="5.761215901002288"><ele></ele><time>2015-2-2T23:43:41Z</time></trkpt>
<trkpt lat="45.766019783914089" lon="5.760600417852402"><ele></ele><time>2015-2-2T23:43:44Z</time></trkpt>
<trkpt lat="45.766295380890369" lon="5.760070346295834"><ele></ele><time>2015-2-2T23:43:47Z</time></trkpt>
<trkpt lat="45.766618503257632" lon="5.759423179551959"><ele></ele><time>2015-2-2T23:43:50Z</time></trkpt>
<trkpt lat="45.766872558742762" lon="5.758834602311254"><ele></ele><time>2015-2-2T23:43:53Z</time></trkpt>
<trkpt lat="45.766910528764129" lon="5.758142592385411"><ele></ele><time>2015-2-2T23:43:56Z</time></trkpt>
<trkpt lat="45.766676003113389" lon="5.757545549422503"><ele></ele><time>2015-2-2T23:43:59Z</time></trkpt>
<trkpt lat="45.76624802313745" lon="5.757245561107993"><ele></ele><time>2015-2-2T23:44:2Z</time></trkpt>
<trkpt lat="45.765775954350829" lon="5.757128046825528"><ele></ele><time>2015-2-2T23:44:5Z</time></trkpt>
<trkpt lat="45.765326097607613" lon="5.756953032687306"><ele></ele><time>2015-2-2T23:44:8Z</time></trkpt>
<trkpt lat="45.765032228082418" lon="5.756417261436582"><ele></ele><time>2015-2-2T23:44:11Z</time></trkpt>
<trkpt lat="45.765065336599946" lon="5.755751486867666"><ele></ele><time>2015-2-2T23:44:14Z</time></trkpt>
<trkpt lat="45.765254935249686" lon="5.755164502188563"><ele></ele><time>2015-2-2T23:44:17Z</time></trkpt>
<trkpt lat="45.765452748164535" lon="5.754558490589261"><ele></ele><time>2015-2-2T23:44:20Z</time></trkpt>
<trkpt lat="45.765762375667691" lon="5.754046188667417"><ele></ele><time>2015-2-2T23:44:23Z</time></trkpt>
<trkpt lat="45.766245508566499" lon="5.754207037389278"><ele></ele><time>2015-2-2T23:44:26Z</time></trkpt>
<trkpt lat="45.766490343958139" lon="5.754395462572575"><ele></ele><time>2015-2-2T23:44:29Z</time></trkpt>
<trkpt lat="45.76597829349339" lon="5.754496715962887"><ele></ele><time>2015-2-2T23:44:32Z</time></trkpt>
<trkpt lat="45.765515863895416" lon="5.754722859710455"><ele></ele><time>2015-2-2T23:44:35Z</time></trkpt>
<trkpt lat="45.765355350449681" lon="5.754191027954221"><ele></ele><time>2015-2-2T23:44:38Z</time></trkpt>
<trkpt lat="45.765077574178576" lon="5.753667410463095"><ele></ele><time>2015-2-2T23:44:41Z</time></trkpt>
<trkpt lat="45.764853525906801" lon="5.753080677241087"><ele></ele><time>2015-2-2T23:44:44Z</time></trkpt>
<trkpt lat="45.764719834551215" lon="5.75243778526783"><ele></ele><time>2015-2-2T23:44:47Z</time></trkpt>
<trkpt lat="45.764546915888786" lon="5.751753402873874"><ele></ele><time>2015-2-2T23:44:50Z</time></trkpt>
<trkpt lat="45.764365447685122" lon="5.751096345484257"><ele></ele><time>2015-2-2T23:44:53Z</time></trkpt>
<trkpt lat="45.764219015836716" lon="5.750452699139714"><ele></ele><time>2015-2-2T23:44:56Z</time></trkpt>
<trkpt lat="45.764091443270445" lon="5.749811064451933"><ele></ele><time>2015-2-2T23:44:59Z</time></trkpt>
<trkpt lat="45.764218596741557" lon="5.749243693426251"><ele></ele><time>2015-2-2T23:45:2Z</time></trkpt>
<trkpt lat="45.764221027493477" lon="5.748562160879374"><ele></ele><time>2015-2-2T23:45:5Z</time></trkpt>
<trkpt lat="45.764232259243727" lon="5.747891440987587"><ele></ele><time>2015-2-2T23:45:8Z</time></trkpt>
<trkpt lat="45.764020783826709" lon="5.747297499328852"><ele></ele><time>2015-2-2T23:45:11Z</time></trkpt>
<trkpt lat="45.763764632865787" lon="5.746696516871452"><ele></ele><time>2015-2-2T23:45:14Z</time></trkpt>
<trkpt lat="45.763478809967637" lon="5.74612126685679"><ele></ele><time>2015-2-2T23:45:17Z</time></trkpt>
<trkpt lat="45.763167086988688" lon="5.745649617165327"><ele></ele><time>2015-2-2T23:45:20Z</time></trkpt>
<trkpt lat="45.762809850275517" lon="5.745242340490222"><ele></ele><time>2015-2-2T23:45:23Z</time></trkpt>
<trkpt lat="45.762380110099912" lon="5.744881667196751"><ele></ele><time>2015-2-2T23:45:26Z</time></trkpt>
<trkpt lat="45.761967385187745" lon="5.744455615058541"><ele></ele><time>2015-2-2T23:45:29Z</time></trkpt>
<trkpt lat="45.761615177616477" lon="5.743967536836863"><ele></ele><time>2015-2-2T23:45:32Z</time></trkpt>
<trkpt lat="45.761232627555728" lon="5.743548525497317"><ele></ele><time>2015-2-2T23:45:35Z</time></trkpt>
<trkpt lat="45.760890729725361" lon="5.743096489459276"><ele></ele><time>2015-2-2T23:45:38Z</time></trkpt>
<trkpt lat="45.760651007294655" lon="5.74246290139854"><ele></ele><time>2015-2-2T23:45:41Z</time></trkpt>
<trkpt lat="45.760523183271289" lon="5.741794025525451"><ele></ele><time>2015-2-2T23:45:44Z</time></trkpt>
<trkpt lat="45.760425450280309" lon="5.741133615374565"><ele></ele><time>2015-2-2T23:45:47Z</time></trkpt>
<trkpt lat="45.760231073945761" lon="5.740496926009655"><ele></ele><time>2015-2-2T23:45:50Z</time></trkpt>
<trkpt lat="45.760001074522734" lon="5.739876832813025"><ele></ele><time>2015-2-2T23:45:53Z</time></trkpt>
<trkpt lat="45.759840393438935" lon="5.739234946668148"><ele></ele><time>2015-2-2T23:45:56Z</time></trkpt>
<trkpt lat="45.759731428697705" lon="5.738507900387049"><ele></ele><time>2015-2-2T23:45:59Z</time></trkpt>
<trkpt lat="45.759645598009229" lon="5.737874312326312"><ele></ele><time>2015-2-2T23:46:2Z</time></trkpt>
<trkpt lat="45.759602347388864" lon="5.737160425633192"><ele></ele><time>2015-2-2T23:46:5Z</time></trkpt>
<trkpt lat="45.759646184742451" lon="5.736472690477967"><ele></ele><time>2015-2-2T23:46:8Z</time></trkpt>
<trkpt lat="45.759717430919409" lon="5.735800629481673"><ele></ele><time>2015-2-2T23:46:11Z</time></trkpt>
<trkpt lat="45.759830670431256" lon="5.735172741115093"><ele></ele><time>2015-2-2T23:46:14Z</time></trkpt>
<trkpt lat="45.759979365393519" lon="5.734531441703439"><ele></ele><time>2015-2-2T23:46:17Z</time></trkpt>
<trkpt lat="45.76020902954042" lon="5.733935656026006"><ele></ele><time>2015-2-2T23:46:20Z</time></trkpt>
<trkpt lat="45.760432071983814" lon="5.733348503708839"><ele></ele><time>2015-2-2T23:46:23Z</time></trkpt>
<trkpt lat="45.760621167719364" lon="5.732759339734912"><ele></ele><time>2015-2-2T23:46:26Z</time></trkpt>
<trkpt lat="45.760808000341058" lon="5.732121225446463"><ele></ele><time>2015-2-2T23:46:29Z</time></trkpt>
<trkpt lat="45.760990558192134" lon="5.731457378715277"><ele></ele><time>2015-2-2T23:46:32Z</time></trkpt>
<trkpt lat="45.761124836280942" lon="5.730821946635842"><ele></ele><time>2015-2-2T23:46:35Z</time></trkpt>
<trkpt lat="45.761136319488287" lon="5.730124823749065"><ele></ele><time>2015-2-2T23:46:38Z</time></trkpt>
<trkpt lat="45.761305298656225" lon="5.7294996175915"><ele></ele><time>2015-2-2T23:46:41Z</time></trkpt>
<trkpt lat="45.761466734111309" lon="5.728891678154469"><ele></ele><time>2015-2-2T23:46:44Z</time></trkpt>
<trkpt lat="45.761602353304625" lon="5.728262029588223"><ele></ele><time>2015-2-2T23:46:47Z</time></trkpt>
<trkpt lat="45.761724729090929" lon="5.727604972198606"><ele></ele><time>2015-2-2T23:46:50Z</time></trkpt>
<trkpt lat="45.7619334384799" lon="5.726987477391958"><ele></ele><time>2015-2-2T23:46:53Z</time></trkpt>
<trkpt lat="45.762086492031813" lon="5.726343160495162"><ele></ele><time>2015-2-2T23:46:56Z</time></trkpt>
<trkpt lat="45.762111051008105" lon="5.725660119205713"><ele></ele><time>2015-2-2T23:46:59Z</time></trkpt>
<trkpt lat="45.762123707681894" lon="5.724982945248485"><ele></ele><time>2015-2-2T23:47:2Z</time></trkpt>
<trkpt lat="45.762036703526974" lon="5.724385986104608"><ele></ele><time>2015-2-2T23:47:5Z</time></trkpt>
<trkpt lat="45.761964451521635" lon="5.723675033077598"><ele></ele><time>2015-2-2T23:47:8Z</time></trkpt>
<trkpt lat="45.761862276121974" lon="5.72303993627429"><ele></ele><time>2015-2-2T23:47:11Z</time></trkpt>
<trkpt lat="45.762022454291582" lon="5.722393859177828"><ele></ele><time>2015-2-2T23:47:14Z</time></trkpt>
<trkpt lat="45.762193193659186" lon="5.721787009388208"><ele></ele><time>2015-2-2T23:47:17Z</time></trkpt>
<trkpt lat="45.762151451781392" lon="5.721154510974884"><ele></ele><time>2015-2-2T23:47:20Z</time></trkpt>
<trkpt lat="45.761963361874223" lon="5.720521006733179"><ele></ele><time>2015-2-2T23:47:23Z</time></trkpt>
<trkpt lat="45.761768985539675" lon="5.719923041760922"><ele></ele><time>2015-2-2T23:47:26Z</time></trkpt>
<trkpt lat="45.761551475152373" lon="5.719320634379983"><ele></ele><time>2015-2-2T23:47:29Z</time></trkpt>
<trkpt lat="45.761309573426843" lon="5.718728117644787"><ele></ele><time>2015-2-2T23:47:32Z</time></trkpt>
<trkpt lat="45.761032635346055" lon="5.718161333352327"><ele></ele><time>2015-2-2T23:47:35Z</time></trkpt>
<trkpt lat="45.760762989521027" lon="5.71759563870728"><ele></ele><time>2015-2-2T23:47:38Z</time></trkpt>
<trkpt lat="45.760491080582142" lon="5.71699851192534"><ele></ele><time>2015-2-2T23:47:41Z</time></trkpt>
<trkpt lat="45.760200228542089" lon="5.716417981311679"><ele></ele><time>2015-2-2T23:47:44Z</time></trkpt>
<trkpt lat="45.759848523885012" lon="5.7159523665905"><ele></ele><time>2015-2-2T23:47:47Z</time></trkpt>
<trkpt lat="45.759402522817254" lon="5.715746004134417"><ele></ele><time>2015-2-2T23:47:50Z</time></trkpt>
<trkpt lat="45.758965406566858" lon="5.715464875102043"><ele></ele><time>2015-2-2T23:47:53Z</time></trkpt>
<trkpt lat="45.758696096017957" lon="5.714876968413591"><ele></ele><time>2015-2-2T23:47:56Z</time></trkpt>
<trkpt lat="45.758408093824983" lon="5.714286295697093"><ele></ele><time>2015-2-2T23:47:59Z</time></trkpt>
<trkpt lat="45.758115481585264" lon="5.713695036247373"><ele></ele><time>2015-2-2T23:48:2Z</time></trkpt>
<trkpt lat="45.757831586524844" lon="5.713112661615014"><ele></ele><time>2015-2-2T23:48:5Z</time></trkpt>
<trkpt lat="45.757552636787295" lon="5.712532214820385"><ele></ele><time>2015-2-2T23:48:8Z</time></trkpt>
<trkpt lat="45.757269077003002" lon="5.711941625922918"><ele></ele><time>2015-2-2T23:48:11Z</time></trkpt>
<trkpt lat="45.756920641288161" lon="5.711485482752323"><ele></ele><time>2015-2-2T23:48:14Z</time></trkpt>
<trkpt lat="45.756564745679498" lon="5.711056999862194"><ele></ele><time>2015-2-2T23:48:17Z</time></trkpt>
<trkpt lat="45.756293842568994" lon="5.710478900000453"><ele></ele><time>2015-2-2T23:48:20Z</time></trkpt>
<trkpt lat="45.756023023277521" lon="5.709918905049563"><ele></ele><time>2015-2-2T23:48:23Z</time></trkpt>
<trkpt lat="45.755752623081207" lon="5.709372321143746"><ele></ele><time>2015-2-2T23:48:26Z</time></trkpt>
<trkpt lat="45.75547912158072" lon="5.708799082785845"><ele></ele><time>2015-2-2T23:48:29Z</time></trkpt>
<trkpt lat="45.755212996155024" lon="5.708232885226607"><ele></ele><time>2015-2-2T23:48:32Z</time></trkpt>
<trkpt lat="45.754913678392768" lon="5.707706417888403"><ele></ele><time>2015-2-2T23:48:35Z</time></trkpt>
<trkpt lat="45.755001520738006" lon="5.707153882831335"><ele></ele><time>2015-2-2T23:48:38Z</time></trkpt>
<trkpt lat="45.754927759990096" lon="5.70666546933353"><ele></ele><time>2015-2-2T23:48:41Z</time></trkpt>
<trkpt lat="45.754572618752718" lon="5.706142354756594"><ele></ele><time>2015-2-2T23:48:44Z</time></trkpt>
<trkpt lat="45.754226697608829" lon="5.705697610974312"><ele></ele><time>2015-2-2T23:48:47Z</time></trkpt>
<trkpt lat="45.753860576078296" lon="5.705230319872499"><ele></ele><time>2015-2-2T23:48:50Z</time></trkpt>
<trkpt lat="45.75346888974309" lon="5.704767303541303"><ele></ele><time>2015-2-2T23:48:53Z</time></trkpt>
<trkpt lat="45.753047363832593" lon="5.704365894198418"><ele></ele><time>2015-2-2T23:48:56Z</time></trkpt>
<trkpt lat="45.752610918134451" lon="5.704068168997765"><ele></ele><time>2015-2-2T23:48:59Z</time></trkpt>
<trkpt lat="45.752175729721785" lon="5.703817801550031"><ele></ele><time>2015-2-2T23:49:2Z</time></trkpt>
<trkpt lat="45.751721598207951" lon="5.703646391630173"><ele></ele><time>2015-2-2T23:49:5Z</time></trkpt>
<trkpt lat="45.751271238550544" lon="5.703510101884604"><ele></ele><time>2015-2-2T23:49:8Z</time></trkpt>
<trkpt lat="45.750823058187962" lon="5.703435838222504"><ele></ele><time>2015-2-2T23:49:11Z</time></trkpt>
<trkpt lat="45.750314528122544" lon="5.703383618965745"><ele></ele><time>2015-2-2T23:49:14Z</time></trkpt>
<trkpt lat="45.74981689453125" lon="5.703345313668251"><ele></ele><time>2015-2-2T23:49:17Z</time></trkpt>
<trkpt lat="45.749380784109235" lon="5.703053958714008"><ele></ele><time>2015-2-2T23:49:20Z</time></trkpt>
<trkpt lat="45.749098230153322" lon="5.702457167208195"><ele></ele><time>2015-2-2T23:49:23Z</time></trkpt>
<trkpt lat="45.748755829408765" lon="5.70192726328969"><ele></ele><time>2015-2-2T23:49:26Z</time></trkpt>
<trkpt lat="45.748319970443845" lon="5.701620653271675"><ele></ele><time>2015-2-2T23:49:29Z</time></trkpt>
<trkpt lat="45.747865503653884" lon="5.701577570289373"><ele></ele><time>2015-2-2T23:49:32Z</time></trkpt>
<trkpt lat="45.747445737943053" lon="5.701854676008225"><ele></ele><time>2015-2-2T23:49:35Z</time></trkpt>
<trkpt lat="45.747056482359767" lon="5.702192885801196"><ele></ele><time>2015-2-2T23:49:38Z</time></trkpt>
<trkpt lat="45.746616767719388" lon="5.702546518296003"><ele></ele><time>2015-2-2T23:49:41Z</time></trkpt>
<trkpt lat="45.746133970096707" lon="5.702806944027543"><ele></ele><time>2015-2-2T23:49:44Z</time></trkpt>
<trkpt lat="45.745680006220937" lon="5.702846171334386"><ele></ele><time>2015-2-2T23:49:47Z</time></trkpt>
<trkpt lat="45.74516954831779" lon="5.702793197706342"><ele></ele><time>2015-2-2T23:49:50Z</time></trkpt>
<trkpt lat="45.74467845261097" lon="5.702723376452923"><ele></ele><time>2015-2-2T23:49:53Z</time></trkpt>
<trkpt lat="45.744217112660408" lon="5.702670738101006"><ele></ele><time>2015-2-2T23:49:56Z</time></trkpt>
<trkpt lat="45.743769938126206" lon="5.702613992616534"><ele></ele><time>2015-2-2T23:49:59Z</time></trkpt>
<trkpt lat="45.74326341971755" lon="5.702553475275636"><ele></ele><time>2015-2-2T23:50:2Z</time></trkpt>
<trkpt lat="45.74277919717133" lon="5.702487509697676"><ele></ele><time>2015-2-2T23:50:5Z</time></trkpt>
<trkpt lat="45.742315342649817" lon="5.702440738677979"><ele></ele><time>2015-2-2T23:50:8Z</time></trkpt>
<trkpt lat="45.741814440116286" lon="5.702460519969463"><ele></ele><time>2015-2-2T23:50:11Z</time></trkpt>
<trkpt lat="45.741353267803788" lon="5.702565042302012"><ele></ele><time>2015-2-2T23:50:14Z</time></trkpt>
<trkpt lat="45.740870051085949" lon="5.70278774946928"><ele></ele><time>2015-2-2T23:50:17Z</time></trkpt>
<trkpt lat="45.740320952609181" lon="5.703168790787458"><ele></ele><time>2015-2-2T23:50:20Z</time></trkpt>
<trkpt lat="45.739910826086998" lon="5.70355829782784"><ele></ele><time>2015-2-2T23:50:23Z</time></trkpt>
<trkpt lat="45.739505058154464" lon="5.703964484855533"><ele></ele><time>2015-2-2T23:50:26Z</time></trkpt>
<trkpt lat="45.739031312987208" lon="5.704188449308276"><ele></ele><time>2015-2-2T23:50:29Z</time></trkpt>
<trkpt lat="45.73858137242496" lon="5.703999102115631"><ele></ele><time>2015-2-2T23:50:32Z</time></trkpt>
<trkpt lat="45.738163618370891" lon="5.703947050496936"><ele></ele><time>2015-2-2T23:50:35Z</time></trkpt>
<trkpt lat="45.737877963110805" lon="5.704436637461186"><ele></ele><time>2015-2-2T23:50:38Z</time></trkpt>
<trkpt lat="45.7376070600003" lon="5.704066576436162"><ele></ele><time>2015-2-2T23:50:41Z</time></trkpt>
<trkpt lat="45.737910317257047" lon="5.703581096604466"><ele></ele><time>2015-2-2T23:50:44Z</time></trkpt>
<trkpt lat="45.738234110176563" lon="5.703385211527348"><ele></ele><time>2015-2-2T23:50:47Z</time></trkpt>
<trkpt lat="45.73791635222733" lon="5.703838672488928"><ele></ele><time>2015-2-2T23:50:50Z</time></trkpt>
<trkpt lat="45.737684005871415" lon="5.704436469823122"><ele></ele><time>2015-2-2T23:50:53Z</time></trkpt>
<trkpt lat="45.737475631758571" lon="5.70500853471458"><ele></ele><time>2015-2-2T23:50:56Z</time></trkpt>
<trkpt lat="45.737246889621019" lon="5.705651259049773"><ele></ele><time>2015-2-2T23:50:59Z</time></trkpt>
<trkpt lat="45.737011693418026" lon="5.706300688907504"><ele></ele><time>2015-2-2T23:51:2Z</time></trkpt>
<trkpt lat="45.736722685396671" lon="5.706798825412989"><ele></ele><time>2015-2-2T23:51:5Z</time></trkpt>
<trkpt lat="45.736426385119557" lon="5.706936707720161"><ele></ele><time>2015-2-2T23:51:8Z</time></trkpt>
<trkpt lat="45.7359803840518" lon="5.706943748518825"><ele></ele><time>2015-2-2T23:51:11Z</time></trkpt>
<trkpt lat="45.735531281679869" lon="5.706758173182607"><ele></ele><time>2015-2-2T23:51:14Z</time></trkpt>
<trkpt lat="45.735194329172373" lon="5.706321895122528"><ele></ele><time>2015-2-2T23:51:17Z</time></trkpt>
<trkpt lat="45.734810689464211" lon="5.70606054738164"><ele></ele><time>2015-2-2T23:51:20Z</time></trkpt>
<trkpt lat="45.734479939565063" lon="5.706467069685459"><ele></ele><time>2015-2-2T23:51:23Z</time></trkpt>
<trkpt lat="45.734009463340044" lon="5.706452736631036"><ele></ele><time>2015-2-2T23:51:26Z</time></trkpt>
<trkpt lat="45.733554158359766" lon="5.706511493772268"><ele></ele><time>2015-2-2T23:51:29Z</time></trkpt>
<trkpt lat="45.733089381828904" lon="5.706722298637033"><ele></ele><time>2015-2-2T23:51:32Z</time></trkpt>
<trkpt lat="45.732638854533434" lon="5.706944586709142"><ele></ele><time>2015-2-2T23:51:35Z</time></trkpt>
<trkpt lat="45.732149519026279" lon="5.707169556990266"><ele></ele><time>2015-2-2T23:51:38Z</time></trkpt>
<trkpt lat="45.731648281216621" lon="5.707391006872058"><ele></ele><time>2015-2-2T23:51:41Z</time></trkpt>
<trkpt lat="45.731177134439349" lon="5.707607679069042"><ele></ele><time>2015-2-2T23:51:44Z</time></trkpt>
<trkpt lat="45.730723338201642" lon="5.707820914685726"><ele></ele><time>2015-2-2T23:51:47Z</time></trkpt>
<trkpt lat="45.730284042656422" lon="5.708018057048321"><ele></ele><time>2015-2-2T23:51:50Z</time></trkpt>
<trkpt lat="45.729837873950601" lon="5.708215702325106"><ele></ele><time>2015-2-2T23:51:53Z</time></trkpt>
<trkpt lat="45.729360608384013" lon="5.70843824185431"><ele></ele><time>2015-2-2T23:51:56Z</time></trkpt>
<trkpt lat="45.728857694193721" lon="5.708645945414901"><ele></ele><time>2015-2-2T23:51:59Z</time></trkpt>
<trkpt lat="45.728318905457854" lon="5.708766812458634"><ele></ele><time>2015-2-2T23:52:2Z</time></trkpt>
<trkpt lat="45.727773159742355" lon="5.708867060020566"><ele></ele><time>2015-2-2T23:52:5Z</time></trkpt>
<trkpt lat="45.727310059592128" lon="5.708950124680996"><ele></ele><time>2015-2-2T23:52:8Z</time></trkpt>
<trkpt lat="45.726842936128378" lon="5.709034698083997"><ele></ele><time>2015-2-2T23:52:11Z</time></trkpt>
<trkpt lat="45.726383691653609" lon="5.709113236516714"><ele></ele><time>2015-2-2T23:52:14Z</time></trkpt>
<trkpt lat="45.725838448852301" lon="5.709212142974138"><ele></ele><time>2015-2-2T23:52:17Z</time></trkpt>
<trkpt lat="45.725339390337467" lon="5.709283389151096"><ele></ele><time>2015-2-2T23:52:20Z</time></trkpt>
<trkpt lat="45.724860616028309" lon="5.709279868751764"><ele></ele><time>2015-2-2T23:52:23Z</time></trkpt>
<trkpt lat="45.72435493580997" lon="5.709452033042908"><ele></ele><time>2015-2-2T23:52:26Z</time></trkpt>
<trkpt lat="45.723823187872767" lon="5.709564266726375"><ele></ele><time>2015-2-2T23:52:29Z</time></trkpt>
<trkpt lat="45.723360925912857" lon="5.709643308073282"><ele></ele><time>2015-2-2T23:52:32Z</time></trkpt>
<trkpt lat="45.722840074449778" lon="5.709743723273277"><ele></ele><time>2015-2-2T23:52:35Z</time></trkpt>
<trkpt lat="45.722364904358983" lon="5.709825530648232"><ele></ele><time>2015-2-2T23:52:38Z</time></trkpt>
<trkpt lat="45.721897277981043" lon="5.70991781540215"><ele></ele><time>2015-2-2T23:52:41Z</time></trkpt>
<trkpt lat="45.721429400146008" lon="5.709979170933366"><ele></ele><time>2015-2-2T23:52:44Z</time></trkpt>
<trkpt lat="45.720962695777416" lon="5.710070868954063"><ele></ele><time>2015-2-2T23:52:47Z</time></trkpt>
<trkpt lat="45.720478054136038" lon="5.710136331617832"><ele></ele><time>2015-2-2T23:52:50Z</time></trkpt>
<trkpt lat="45.719998609274626" lon="5.710222497582436"><ele></ele><time>2015-2-2T23:52:53Z</time></trkpt>
<trkpt lat="45.71952385827899" lon="5.710307406261563"><ele></ele><time>2015-2-2T23:52:56Z</time></trkpt>
<trkpt lat="45.719045838341117" lon="5.710381669923663"><ele></ele><time>2015-2-2T23:52:59Z</time></trkpt>
<trkpt lat="45.718564465641975" lon="5.710460040718317"><ele></ele><time>2015-2-2T23:53:2Z</time></trkpt>
<trkpt lat="45.718099940568209" lon="5.710534891113639"><ele></ele><time>2015-2-2T23:53:5Z</time></trkpt>
<trkpt lat="45.717588979750872" lon="5.710616111755371"><ele></ele><time>2015-2-2T23:53:8Z</time></trkpt>
<trkpt lat="45.717090675607324" lon="5.710693811997771"><ele></ele><time>2015-2-2T23:53:11Z</time></trkpt>
<trkpt lat="45.716600334271789" lon="5.710770171135664"><ele></ele><time>2015-2-2T23:53:14Z</time></trkpt>
<trkpt lat="45.716098342090845" lon="5.710882321000099"><ele></ele><time>2015-2-2T23:53:17Z</time></trkpt>
<trkpt lat="45.715765077620745" lon="5.711301499977708"><ele></ele><time>2015-2-2T23:53:20Z</time></trkpt>
<trkpt lat="45.715497275814414" lon="5.7119236048311"><ele></ele><time>2015-2-2T23:53:23Z</time></trkpt>
<trkpt lat="45.715230228379369" lon="5.712510589510202"><ele></ele><time>2015-2-2T23:53:26Z</time></trkpt>
<trkpt lat="45.714973323047161" lon="5.713109308853746"><ele></ele><time>2015-2-2T23:53:29Z</time></trkpt>
<trkpt lat="45.714647434651852" lon="5.713611720129848"><ele></ele><time>2015-2-2T23:53:32Z</time></trkpt>
<trkpt lat="45.714180311188102" lon="5.713781118392944"><ele></ele><time>2015-2-2T23:53:35Z</time></trkpt>
<trkpt lat="45.71377219632268" lon="5.714160902425647"><ele></ele><time>2015-2-2T23:53:38Z</time></trkpt>
<trkpt lat="45.713354526087642" lon="5.714403474703431"><ele></ele><time>2015-2-2T23:53:41Z</time></trkpt>
<trkpt lat="45.712906597182155" lon="5.714650740846992"><ele></ele><time>2015-2-2T23:53:44Z</time></trkpt>
<trkpt lat="45.712466714903712" lon="5.714785940945149"><ele></ele><time>2015-2-2T23:53:47Z</time></trkpt>
<trkpt lat="45.712020378559828" lon="5.714863473549485"><ele></ele><time>2015-2-2T23:53:50Z</time></trkpt>
<trkpt lat="45.711543532088399" lon="5.714909071102738"><ele></ele><time>2015-2-2T23:53:53Z</time></trkpt>
<trkpt lat="45.711150085553527" lon="5.715216603130102"><ele></ele><time>2015-2-2T23:53:56Z</time></trkpt>
<trkpt lat="45.711088981479406" lon="5.715920012444258"><ele></ele><time>2015-2-2T23:53:59Z</time></trkpt>
<trkpt lat="45.711065093055367" lon="5.716570364311338"><ele></ele><time>2015-2-2T23:54:2Z</time></trkpt>
<trkpt lat="45.710985800251365" lon="5.717263631522656"><ele></ele><time>2015-2-2T23:54:5Z</time></trkpt>
<trkpt lat="45.710881780833006" lon="5.717907529324293"><ele></ele><time>2015-2-2T23:54:8Z</time></trkpt>
<trkpt lat="45.710640298202634" lon="5.718515636399388"><ele></ele><time>2015-2-2T23:54:11Z</time></trkpt>
<trkpt lat="45.710340896621346" lon="5.719114104285836"><ele></ele><time>2015-2-2T23:54:14Z</time></trkpt>
<trkpt lat="45.70987050421536" lon="5.719479974359274"><ele></ele><time>2015-2-2T23:54:17Z</time></trkpt>
<trkpt lat="45.709391478449106" lon="5.719871995970607"><ele></ele><time>2015-2-2T23:54:20Z</time></trkpt>
<trkpt lat="45.709000462666154" lon="5.720382537692785"><ele></ele><time>2015-2-2T23:54:23Z</time></trkpt>
<trkpt lat="45.708694607019424" lon="5.720853265374899"><ele></ele><time>2015-2-2T23:54:26Z</time></trkpt>
<trkpt lat="45.708278948441148" lon="5.721999909728766"><ele></ele><time>2015-2-2T23:54:29Z</time></trkpt>
<trkpt lat="45.708519844338298" lon="5.72254590690136"><ele></ele><time>2015-2-2T23:54:32Z</time></trkpt>
<trkpt lat="45.708639035001397" lon="5.723166083917022"><ele></ele><time>2015-2-2T23:54:35Z</time></trkpt>
<trkpt lat="45.708750849589705" lon="5.723809730261564"><ele></ele><time>2015-2-2T23:54:38Z</time></trkpt>
<trkpt lat="45.708983112126589" lon="5.724707348272204"><ele></ele><time>2015-2-2T23:54:41Z</time></trkpt>
<trkpt lat="45.709263067692518" lon="5.725334482267499"><ele></ele><time>2015-2-2T23:54:44Z</time></trkpt>
<trkpt lat="45.7092519197613" lon="5.726006543263793"><ele></ele><time>2015-2-2T23:54:47Z</time></trkpt>
<trkpt lat="45.70897288620472" lon="5.726539297029376"><ele></ele><time>2015-2-2T23:54:50Z</time></trkpt>
<trkpt lat="45.708645069971681" lon="5.727020418271422"><ele></ele><time>2015-2-2T23:54:53Z</time></trkpt>
<trkpt lat="45.708377351984382" lon="5.726656224578619"><ele></ele><time>2015-2-2T23:54:56Z</time></trkpt>
<trkpt lat="45.708363940939307" lon="5.725932028144598"><ele></ele><time>2015-2-2T23:54:59Z</time></trkpt>
<trkpt lat="45.708323875442147" lon="5.725268935784698"><ele></ele><time>2015-2-2T23:55:2Z</time></trkpt>
<trkpt lat="45.708178784698248" lon="5.724635263904929"><ele></ele><time>2015-2-2T23:55:5Z</time></trkpt>
<trkpt lat="45.708081554621458" lon="5.72389648295939"><ele></ele><time>2015-2-2T23:55:8Z</time></trkpt>
<trkpt lat="45.70799027569592" lon="5.723201790824533"><ele></ele><time>2015-2-2T23:55:11Z</time></trkpt>
<trkpt lat="45.707878712564707" lon="5.722545571625233"><ele></ele><time>2015-2-2T23:55:14Z</time></trkpt>
<trkpt lat="45.707738734781742" lon="5.721945343539119"><ele></ele><time>2015-2-2T23:55:17Z</time></trkpt>
<trkpt lat="45.707541257143021" lon="5.721368081867695"><ele></ele><time>2015-2-2T23:55:20Z</time></trkpt>
<trkpt lat="45.707350987941027" lon="5.720675401389599"><ele></ele><time>2015-2-2T23:55:23Z</time></trkpt>
<trkpt lat="45.707216709852219" lon="5.720042232424021"><ele></ele><time>2015-2-2T23:55:26Z</time></trkpt>
<trkpt lat="45.706876153126359" lon="5.719578210264444"><ele></ele><time>2015-2-2T23:55:29Z</time></trkpt>
<trkpt lat="45.706471977755427" lon="5.719232289120555"><ele></ele><time>2015-2-2T23:55:32Z</time></trkpt>
<trkpt lat="45.70605187676847" lon="5.718961972743273"><ele></ele><time>2015-2-2T23:55:35Z</time></trkpt>
<trkpt lat="45.705593889579177" lon="5.71897647343576"><ele></ele><time>2015-2-2T23:55:38Z</time></trkpt>
<trkpt lat="45.705089969560504" lon="5.719078565016389"><ele></ele><time>2015-2-2T23:55:41Z</time></trkpt>
<trkpt lat="45.704575404524803" lon="5.719021735712886"><ele></ele><time>2015-2-2T23:55:44Z</time></trkpt>
<trkpt lat="45.704065030440688" lon="5.718859294429421"><ele></ele><time>2015-2-2T23:55:47Z</time></trkpt>
<trkpt lat="45.703630512580276" lon="5.718693165108562"><ele></ele><time>2015-2-2T23:55:50Z</time></trkpt>
<trkpt lat="45.70317629724741" lon="5.718528125435114"><ele></ele><time>2015-2-2T23:55:53Z</time></trkpt>
<trkpt lat="45.702722165733576" lon="5.718394098803401"><ele></ele><time>2015-2-2T23:55:56Z</time></trkpt>
<trkpt lat="45.702268034219742" lon="5.718265101313591"><ele></ele><time>2015-2-2T23:55:59Z</time></trkpt>
<trkpt lat="45.701826391741633" lon="5.71813702583313"><ele></ele><time>2015-2-2T23:56:2Z</time></trkpt>
<trkpt lat="45.701384749263525" lon="5.718006603419781"><ele></ele><time>2015-2-2T23:56:5Z</time></trkpt>
<trkpt lat="45.700879069045186" lon="5.717861261218786"><ele></ele><time>2015-2-2T23:56:8Z</time></trkpt>
<trkpt lat="45.700396690517664" lon="5.717791439965367"><ele></ele><time>2015-2-2T23:56:11Z</time></trkpt>
<trkpt lat="45.699937446042895" lon="5.717787919566035"><ele></ele><time>2015-2-2T23:56:14Z</time></trkpt>
<trkpt lat="45.699428413063288" lon="5.717789931222796"><ele></ele><time>2015-2-2T23:56:17Z</time></trkpt>
<trkpt lat="45.698930528014898" lon="5.71775640361011"><ele></ele><time>2015-2-2T23:56:20Z</time></trkpt>
<trkpt lat="45.698437420651317" lon="5.717678954824805"><ele></ele><time>2015-2-2T23:56:23Z</time></trkpt>
<trkpt lat="45.697943223640323" lon="5.717607457190752"><ele></ele><time>2015-2-2T23:56:26Z</time></trkpt>
<trkpt lat="45.697501413524151" lon="5.717463539913297"><ele></ele><time>2015-2-2T23:56:29Z</time></trkpt>
<trkpt lat="45.697052478790283" lon="5.717271259054542"><ele></ele><time>2015-2-2T23:56:32Z</time></trkpt>
<trkpt lat="45.696589127182961" lon="5.717020807787776"><ele></ele><time>2015-2-2T23:56:35Z</time></trkpt>
<trkpt lat="45.696114962920547" lon="5.716736661270261"><ele></ele><time>2015-2-2T23:56:38Z</time></trkpt>
<trkpt lat="45.695704249665141" lon="5.716456538066268"><ele></ele><time>2015-2-2T23:56:41Z</time></trkpt>
<trkpt lat="45.69530351087451" lon="5.716125452890992"><ele></ele><time>2015-2-2T23:56:44Z</time></trkpt>
<trkpt lat="45.694909812882543" lon="5.715770311653614"><ele></ele><time>2015-2-2T23:56:47Z</time></trkpt>
<trkpt lat="45.694457273930311" lon="5.715435370802879"><ele></ele><time>2015-2-2T23:56:50Z</time></trkpt>
<trkpt lat="45.693995514884591" lon="5.715151727199554"><ele></ele><time>2015-2-2T23:56:53Z</time></trkpt>
<trkpt lat="45.69357424043119" lon="5.714873699471355"><ele></ele><time>2015-2-2T23:56:56Z</time></trkpt>
<trkpt lat="45.693158414214849" lon="5.714544961228967"><ele></ele><time>2015-2-2T23:56:59Z</time></trkpt>
<trkpt lat="45.692716436460614" lon="5.714169032871723"><ele></ele><time>2015-2-2T23:57:2Z</time></trkpt>
<trkpt lat="45.692297425121069" lon="5.713819088414311"><ele></ele><time>2015-2-2T23:57:5Z</time></trkpt>
<trkpt lat="45.691855950281024" lon="5.713434191420674"><ele></ele><time>2015-2-2T23:57:8Z</time></trkpt>
<trkpt lat="45.691421180963516" lon="5.713044181466103"><ele></ele><time>2015-2-2T23:57:11Z</time></trkpt>
<trkpt lat="45.69103435613215" lon="5.712717287242413"><ele></ele><time>2015-2-2T23:57:14Z</time></trkpt>
<trkpt lat="45.6906224694103" lon="5.712445210665464"><ele></ele><time>2015-2-2T23:57:17Z</time></trkpt>
<trkpt lat="45.690144198015332" lon="5.712171709164977"><ele></ele><time>2015-2-2T23:57:20Z</time></trkpt>
<trkpt lat="45.689668022096157" lon="5.712002897635102"><ele></ele><time>2015-2-2T23:57:23Z</time></trkpt>
<trkpt lat="45.689193019643426" lon="5.711841965094209"><ele></ele><time>2015-2-2T23:57:26Z</time></trkpt>
<trkpt lat="45.68873587064445" lon="5.711667872965336"><ele></ele><time>2015-2-2T23:57:29Z</time></trkpt>
<trkpt lat="45.688290372490883" lon="5.711485734209418"><ele></ele><time>2015-2-2T23:57:32Z</time></trkpt>
<trkpt lat="45.687827942892909" lon="5.711282808333635"><ele></ele><time>2015-2-2T23:57:35Z</time></trkpt>
<trkpt lat="45.687372051179409" lon="5.711010145023465"><ele></ele><time>2015-2-2T23:57:38Z</time></trkpt>
<trkpt lat="45.686905262991786" lon="5.71073429659009"><ele></ele><time>2015-2-2T23:57:41Z</time></trkpt>
<trkpt lat="45.686427326872945" lon="5.710564395412803"><ele></ele><time>2015-2-2T23:57:44Z</time></trkpt>
<trkpt lat="45.685954336076975" lon="5.710329953581095"><ele></ele><time>2015-2-2T23:57:47Z</time></trkpt>
<trkpt lat="45.685495091602206" lon="5.710063744336367"><ele></ele><time>2015-2-2T23:57:50Z</time></trkpt>
<trkpt lat="45.685055712237954" lon="5.709804827347398"><ele></ele><time>2015-2-2T23:57:53Z</time></trkpt>
<trkpt lat="45.684627229347825" lon="5.709508443251252"><ele></ele><time>2015-2-2T23:57:56Z</time></trkpt>
<trkpt lat="45.684203691780567" lon="5.709252040833235"><ele></ele><time>2015-2-2T23:57:59Z</time></trkpt>
<trkpt lat="45.683697760105133" lon="5.709058083593845"><ele></ele><time>2015-2-2T23:58:2Z</time></trkpt>
<trkpt lat="45.68321974016726" lon="5.7089913636446"><ele></ele><time>2015-2-2T23:58:5Z</time></trkpt>
<trkpt lat="45.682737696915865" lon="5.708932857960463"><ele></ele><time>2015-2-2T23:58:8Z</time></trkpt>
<trkpt lat="45.682274764403701" lon="5.708882063627243"><ele></ele><time>2015-2-2T23:58:11Z</time></trkpt>
<trkpt lat="45.681783920153975" lon="5.708770751953125"><ele></ele><time>2015-2-2T23:58:14Z</time></trkpt>
<trkpt lat="45.68136247806251" lon="5.708537232130766"><ele></ele><time>2015-2-2T23:58:17Z</time></trkpt>
<trkpt lat="45.680889822542667" lon="5.708249397575855"><ele></ele><time>2015-2-2T23:58:20Z</time></trkpt>
<trkpt lat="45.680484725162387" lon="5.707962401211262"><ele></ele><time>2015-2-2T23:58:23Z</time></trkpt>
<trkpt lat="45.680053560063243" lon="5.7077013887465"><ele></ele><time>2015-2-2T23:58:26Z</time></trkpt>
<trkpt lat="45.679607391357422" lon="5.707593262195587"><ele></ele><time>2015-2-2T23:58:29Z</time></trkpt>
<trkpt lat="45.679113026708364" lon="5.707549089565873"><ele></ele><time>2015-2-2T23:58:32Z</time></trkpt>
<trkpt lat="45.678644562140107" lon="5.707326633855701"><ele></ele><time>2015-2-2T23:58:35Z</time></trkpt>
<trkpt lat="45.678246254101396" lon="5.706969564780593"><ele></ele><time>2015-2-2T23:58:38Z</time></trkpt>
<trkpt lat="45.677872002124786" lon="5.706448461860418"><ele></ele><time>2015-2-2T23:58:41Z</time></trkpt>
<trkpt lat="45.677451817318797" lon="5.706043867394328"><ele></ele><time>2015-2-2T23:58:44Z</time></trkpt>
<trkpt lat="45.677002631127834" lon="5.705903889611363"><ele></ele><time>2015-2-2T23:58:47Z</time></trkpt>
<trkpt lat="45.676528131589293" lon="5.705856280401349"><ele></ele><time>2015-2-2T23:58:50Z</time></trkpt>
<trkpt lat="45.676036616787314" lon="5.705984858796001"><ele></ele><time>2015-2-2T23:58:53Z</time></trkpt>
<trkpt lat="45.675563709810376" lon="5.706115867942572"><ele></ele><time>2015-2-2T23:58:56Z</time></trkpt>
<trkpt lat="45.675049731507897" lon="5.706166913732886"><ele></ele><time>2015-2-2T23:58:59Z</time></trkpt>
<trkpt lat="45.674539692699909" lon="5.706089213490486"><ele></ele><time>2015-2-2T23:59:2Z</time></trkpt>
<trkpt lat="45.674046166241169" lon="5.705989636480808"><ele></ele><time>2015-2-2T23:59:5Z</time></trkpt>
<trkpt lat="45.673568397760391" lon="5.706118047237396"><ele></ele><time>2015-2-2T23:59:8Z</time></trkpt>
<trkpt lat="45.673127425834537" lon="5.706365564838052"><ele></ele><time>2015-2-2T23:59:11Z</time></trkpt>
<trkpt lat="45.672667594626546" lon="5.706551391631365"><ele></ele><time>2015-2-2T23:59:14Z</time></trkpt>
<trkpt lat="45.672266520559788" lon="5.706841573119164"><ele></ele><time>2015-2-2T23:59:17Z</time></trkpt>
<trkpt lat="45.671881875023246" lon="5.707179615274072"><ele></ele><time>2015-2-2T23:59:20Z</time></trkpt>
<trkpt lat="45.671408968046308" lon="5.707365358248353"><ele></ele><time>2015-2-2T23:59:23Z</time></trkpt>
<trkpt lat="45.670955926179886" lon="5.707300398498774"><ele></ele><time>2015-2-2T23:59:26Z</time></trkpt>
<trkpt lat="45.670500034466386" lon="5.707255052402616"><ele></ele><time>2015-2-2T23:59:29Z</time></trkpt>
<trkpt lat="45.670039532706141" lon="5.707249687984586"><ele></ele><time>2015-2-2T23:59:32Z</time></trkpt>
<trkpt lat="45.66957039758563" lon="5.707175759598613"><ele></ele><time>2015-2-2T23:59:35Z</time></trkpt>
<trkpt lat="45.669108554720879" lon="5.707045085728169"><ele></ele><time>2015-2-2T23:59:38Z</time></trkpt>
<trkpt lat="45.668657524511218" lon="5.706886164844036"><ele></ele><time>2015-2-2T23:59:41Z</time></trkpt>
<trkpt lat="45.668185958638787" lon="5.706660859286785"><ele></ele><time>2015-2-2T23:59:44Z</time></trkpt>
<trkpt lat="45.667703496292233" lon="5.706434547901154"><ele></ele><time>2015-2-2T23:59:47Z</time></trkpt>
<trkpt lat="45.667242156341672" lon="5.706218127161264"><ele></ele><time>2015-2-2T23:59:50Z</time></trkpt>
<trkpt lat="45.66674904897809" lon="5.706036742776632"><ele></ele><time>2015-2-2T23:59:53Z</time></trkpt>
<trkpt lat="45.666288211941719" lon="5.70597848854959"><ele></ele><time>2015-2-2T23:59:56Z</time></trkpt>
<trkpt lat="45.665774149820209" lon="5.705908248201013"><ele></ele><time>2015-2-2T23:59:59Z</time></trkpt>
<trkpt lat="45.665290346369147" lon="5.705744046717882"><ele></ele><time>2015-2-3T0:0:2Z</time></trkpt>
<trkpt lat="45.664815092459321" lon="5.70551429875195"><ele></ele><time>2015-2-3T0:0:5Z</time></trkpt>
<trkpt lat="45.664374874904752" lon="5.705199558287859"><ele></ele><time>2015-2-3T0:0:8Z</time></trkpt>
<trkpt lat="45.663970112800598" lon="5.704899989068508"><ele></ele><time>2015-2-3T0:0:11Z</time></trkpt>
<trkpt lat="45.663568200543523" lon="5.704568903893232"><ele></ele><time>2015-2-3T0:0:14Z</time></trkpt>
<trkpt lat="45.663181375712156" lon="5.704103205353022"><ele></ele><time>2015-2-3T0:0:17Z</time></trkpt>
<trkpt lat="45.662849619984627" lon="5.703644631430507"><ele></ele><time>2015-2-3T0:0:20Z</time></trkpt>
<trkpt lat="45.662518534809351" lon="5.703135095536709"><ele></ele><time>2015-2-3T0:0:23Z</time></trkpt>
<trkpt lat="45.662120059132576" lon="5.702788336202502"><ele></ele><time>2015-2-3T0:0:26Z</time></trkpt>
<trkpt lat="45.661726193502545" lon="5.702476613223553"><ele></ele><time>2015-2-3T0:0:29Z</time></trkpt>
<trkpt lat="45.661286395043135" lon="5.702117867767811"><ele></ele><time>2015-2-3T0:0:32Z</time></trkpt>
<trkpt lat="45.660815415903926" lon="5.701924078166485"><ele></ele><time>2015-2-3T0:0:35Z</time></trkpt>
<trkpt lat="45.660352064296603" lon="5.701752416789532"><ele></ele><time>2015-2-3T0:0:38Z</time></trkpt>
<trkpt lat="45.659902291372418" lon="5.701491069048643"><ele></ele><time>2015-2-3T0:0:41Z</time></trkpt>
<trkpt lat="45.659501971676946" lon="5.701246904209256"><ele></ele><time>2015-2-3T0:0:44Z</time></trkpt>
<trkpt lat="45.659093270078301" lon="5.700870221480727"><ele></ele><time>2015-2-3T0:0:47Z</time></trkpt>
<trkpt lat="45.658724047243595" lon="5.700416676700115"><ele></ele><time>2015-2-3T0:0:50Z</time></trkpt>
<trkpt lat="45.65832263790071" lon="5.700080394744873"><ele></ele><time>2015-2-3T0:0:53Z</time></trkpt>
<trkpt lat="45.657849395647645" lon="5.699916025623679"><ele></ele><time>2015-2-3T0:0:56Z</time></trkpt>
<trkpt lat="45.657375566661358" lon="5.699872691184282"><ele></ele><time>2015-2-3T0:0:59Z</time></trkpt>
<trkpt lat="45.656894529238343" lon="5.69986280053854"><ele></ele><time>2015-2-3T0:1:2Z</time></trkpt>
<trkpt lat="45.656475434079766" lon="5.699607487767935"><ele></ele><time>2015-2-3T0:1:5Z</time></trkpt>
<trkpt lat="45.656031193211675" lon="5.69928428158164"><ele></ele><time>2015-2-3T0:1:8Z</time></trkpt>
<trkpt lat="45.655522663146257" lon="5.699259638786316"><ele></ele><time>2015-2-3T0:1:11Z</time></trkpt>
<trkpt lat="45.655026538297534" lon="5.699305320158601"><ele></ele><time>2015-2-3T0:1:14Z</time></trkpt>
<trkpt lat="45.654530161991715" lon="5.699225775897503"><ele></ele><time>2015-2-3T0:1:17Z</time></trkpt>
<trkpt lat="45.654060104861856" lon="5.699127539992333"><ele></ele><time>2015-2-3T0:1:20Z</time></trkpt>
<trkpt lat="45.653555849567056" lon="5.699119325727224"><ele></ele><time>2015-2-3T0:1:23Z</time></trkpt>
<trkpt lat="45.653062406927347" lon="5.69907364435494"><ele></ele><time>2015-2-3T0:1:26Z</time></trkpt>
<trkpt lat="45.652605341747403" lon="5.6988615822047"><ele></ele><time>2015-2-3T0:1:29Z</time></trkpt>
<trkpt lat="45.652154479175806" lon="5.698661087080836"><ele></ele><time>2015-2-3T0:1:32Z</time></trkpt>
<trkpt lat="45.651729013770819" lon="5.698440223932266"><ele></ele><time>2015-2-3T0:1:35Z</time></trkpt>
<trkpt lat="45.651228362694383" lon="5.698311645537615"><ele></ele><time>2015-2-3T0:1:38Z</time></trkpt>
<trkpt lat="45.650782696902752" lon="5.698221120983362"><ele></ele><time>2015-2-3T0:1:41Z</time></trkpt>
<trkpt lat="45.650299899280071" lon="5.698048705235124"><ele></ele><time>2015-2-3T0:1:44Z</time></trkpt>
<trkpt lat="45.649852389469743" lon="5.697840498760343"><ele></ele><time>2015-2-3T0:1:47Z</time></trkpt>
<trkpt lat="45.649374788627028" lon="5.697616031393409"><ele></ele><time>2015-2-3T0:1:50Z</time></trkpt>
<trkpt lat="45.648894673213363" lon="5.697407824918628"><ele></ele><time>2015-2-3T0:1:53Z</time></trkpt>
<trkpt lat="45.648409193381667" lon="5.697229458019137"><ele></ele><time>2015-2-3T0:1:56Z</time></trkpt>
<trkpt lat="45.64791290089488" lon="5.697064502164722"><ele></ele><time>2015-2-3T0:1:59Z</time></trkpt>
<trkpt lat="45.647464385256171" lon="5.696932235732675"><ele></ele><time>2015-2-3T0:2:2Z</time></trkpt>
<trkpt lat="45.647026933729649" lon="5.696753533557057"><ele></ele><time>2015-2-3T0:2:5Z</time></trkpt>
<trkpt lat="45.646593924611807" lon="5.696377521380782"><ele></ele><time>2015-2-3T0:2:8Z</time></trkpt>
<trkpt lat="45.646232077851892" lon="5.695955576375127"><ele></ele><time>2015-2-3T0:2:11Z</time></trkpt>
<trkpt lat="45.645842151716352" lon="5.6955770496279"><ele></ele><time>2015-2-3T0:2:14Z</time></trkpt>
<trkpt lat="45.645405957475305" lon="5.695299105718732"><ele></ele><time>2015-2-3T0:2:17Z</time></trkpt>
<trkpt lat="45.644939756020904" lon="5.695048486813903"><ele></ele><time>2015-2-3T0:2:20Z</time></trkpt>
<trkpt lat="45.644488306716084" lon="5.694895684719086"><ele></ele><time>2015-2-3T0:2:23Z</time></trkpt>
<trkpt lat="45.644009951502085" lon="5.694816140457988"><ele></ele><time>2015-2-3T0:2:26Z</time></trkpt>
<trkpt lat="45.643554059788585" lon="5.694759311154485"><ele></ele><time>2015-2-3T0:2:29Z</time></trkpt>
<trkpt lat="45.643057432025671" lon="5.694666942581534"><ele></ele><time>2015-2-3T0:2:32Z</time></trkpt>
<trkpt lat="45.642681587487459" lon="5.694309370592237"><ele></ele><time>2015-2-3T0:2:35Z</time></trkpt>
<trkpt lat="45.642441948875785" lon="5.693760775029659"><ele></ele><time>2015-2-3T0:2:38Z</time></trkpt>
<trkpt lat="45.642213961109519" lon="5.693207317963243"><ele></ele><time>2015-2-3T0:2:41Z</time></trkpt>
<trkpt lat="45.641969041898847" lon="5.692562665790319"><ele></ele><time>2015-2-3T0:2:44Z</time></trkpt>
<trkpt lat="45.641839625313878" lon="5.691878786310554"><ele></ele><time>2015-2-3T0:2:47Z</time></trkpt>
<trkpt lat="45.641700066626072" lon="5.691242851316929"><ele></ele><time>2015-2-3T0:2:50Z</time></trkpt>
<trkpt lat="45.641400329768658" lon="5.690737590193749"><ele></ele><time>2015-2-3T0:2:53Z</time></trkpt>
<trkpt lat="45.641049463301897" lon="5.690328637138009"><ele></ele><time>2015-2-3T0:2:56Z</time></trkpt>
<trkpt lat="45.64066699706018" lon="5.689878528937697"><ele></ele><time>2015-2-3T0:2:59Z</time></trkpt>
<trkpt lat="45.640294086188078" lon="5.689448285847902"><ele></ele><time>2015-2-3T0:3:2Z</time></trkpt>
<trkpt lat="45.639925617724657" lon="5.689008319750428"><ele></ele><time>2015-2-3T0:3:5Z</time></trkpt>
<trkpt lat="45.639562597498298" lon="5.688572209328413"><ele></ele><time>2015-2-3T0:3:8Z</time></trkpt>
<trkpt lat="45.639192620292306" lon="5.688132327049971"><ele></ele><time>2015-2-3T0:3:11Z</time></trkpt>
<trkpt lat="45.638825744390488" lon="5.687693282961845"><ele></ele><time>2015-2-3T0:3:14Z</time></trkpt>
<trkpt lat="45.638487618416548" lon="5.687248036265373"><ele></ele><time>2015-2-3T0:3:17Z</time></trkpt>
<trkpt lat="45.638133399188519" lon="5.686766915023327"><ele></ele><time>2015-2-3T0:3:20Z</time></trkpt>
<trkpt lat="45.637797955423594" lon="5.686309179291129"><ele></ele><time>2015-2-3T0:3:23Z</time></trkpt>
<trkpt lat="45.637443065643311" lon="5.685843480750918"><ele></ele><time>2015-2-3T0:3:26Z</time></trkpt>
<trkpt lat="45.637115500867367" lon="5.685395048931241"><ele></ele><time>2015-2-3T0:3:29Z</time></trkpt>
<trkpt lat="45.636773267760873" lon="5.684930691495538"><ele></ele><time>2015-2-3T0:3:32Z</time></trkpt>
<trkpt lat="45.63641301356256" lon="5.684538166970015"><ele></ele><time>2015-2-3T0:3:35Z</time></trkpt>
<trkpt lat="45.635997271165252" lon="5.684286961331964"><ele></ele><time>2015-2-3T0:3:38Z</time></trkpt>
<trkpt lat="45.63556375913322" lon="5.684026451781392"><ele></ele><time>2015-2-3T0:3:41Z</time></trkpt>
<trkpt lat="45.635171234607697" lon="5.683678016066551"><ele></ele><time>2015-2-3T0:3:44Z</time></trkpt>
<trkpt lat="45.634785499423742" lon="5.68324794061482"><ele></ele><time>2015-2-3T0:3:47Z</time></trkpt>
<trkpt lat="45.634399931877851" lon="5.682913335040212"><ele></ele><time>2015-2-3T0:3:50Z</time></trkpt>
<trkpt lat="45.633972538635135" lon="5.682597253471613"><ele></ele><time>2015-2-3T0:3:53Z</time></trkpt>
<trkpt lat="45.633533075451851" lon="5.682257367298007"><ele></ele><time>2015-2-3T0:3:56Z</time></trkpt>
<trkpt lat="45.633150357753038" lon="5.681846821680665"><ele></ele><time>2015-2-3T0:3:59Z</time></trkpt>
<trkpt lat="45.632881969213486" lon="5.681294286623597"><ele></ele><time>2015-2-3T0:4:2Z</time></trkpt>
<trkpt lat="45.632664961740375" lon="5.680673774331808"><ele></ele><time>2015-2-3T0:4:5Z</time></trkpt>
<trkpt lat="45.632252404466271" lon="5.680260295048356"><ele></ele><time>2015-2-3T0:4:8Z</time></trkpt>
<trkpt lat="45.631837332621217" lon="5.679987045004964"><ele></ele><time>2015-2-3T0:4:11Z</time></trkpt>
<trkpt lat="45.631469283252954" lon="5.679504415020347"><ele></ele><time>2015-2-3T0:4:14Z</time></trkpt>
<trkpt lat="45.631181029602885" lon="5.678889770060778"><ele></ele><time>2015-2-3T0:4:17Z</time></trkpt>
<trkpt lat="45.630901660770178" lon="5.6782893743366"><ele></ele><time>2015-2-3T0:4:20Z</time></trkpt>
<trkpt lat="45.630628829821944" lon="5.677767852321267"><ele></ele><time>2015-2-3T0:4:23Z</time></trkpt>
<trkpt lat="45.630303947255015" lon="5.67726762033999"><ele></ele><time>2015-2-3T0:4:26Z</time></trkpt>
<trkpt lat="45.629921983927488" lon="5.676835281774402"><ele></ele><time>2015-2-3T0:4:29Z</time></trkpt>
<trkpt lat="45.62953557819128" lon="5.676407469436526"><ele></ele><time>2015-2-3T0:4:32Z</time></trkpt>
<trkpt lat="45.629229806363583" lon="5.67591117694974"><ele></ele><time>2015-2-3T0:4:35Z</time></trkpt>
<trkpt lat="45.629077926278114" lon="5.67527306266129"><ele></ele><time>2015-2-3T0:4:38Z</time></trkpt>
<trkpt lat="45.62890182249248" lon="5.674649700522423"><ele></ele><time>2015-2-3T0:4:41Z</time></trkpt>
<trkpt lat="45.628654640167952" lon="5.674091298133135"><ele></ele><time>2015-2-3T0:4:44Z</time></trkpt>
<trkpt lat="45.628361441195011" lon="5.673561142757535"><ele></ele><time>2015-2-3T0:4:47Z</time></trkpt>
<trkpt lat="45.628043850883842" lon="5.673063509166241"><ele></ele><time>2015-2-3T0:4:50Z</time></trkpt>
<trkpt lat="45.627710754051805" lon="5.672576772049069"><ele></ele><time>2015-2-3T0:4:53Z</time></trkpt>
<trkpt lat="45.627354690805078" lon="5.67214141599834"><ele></ele><time>2015-2-3T0:4:56Z</time></trkpt>
<trkpt lat="45.6269287224859" lon="5.671876547858119"><ele></ele><time>2015-2-3T0:4:59Z</time></trkpt>
<trkpt lat="45.626467717811465" lon="5.671635651960969"><ele></ele><time>2015-2-3T0:5:2Z</time></trkpt>
<trkpt lat="45.626012412831187" lon="5.67137137055397"><ele></ele><time>2015-2-3T0:5:5Z</time></trkpt>
<trkpt lat="45.625648554414511" lon="5.67092327401042"><ele></ele><time>2015-2-3T0:5:8Z</time></trkpt>
<trkpt lat="45.625215964391828" lon="5.670556984841824"><ele></ele><time>2015-2-3T0:5:11Z</time></trkpt>
<trkpt lat="45.624797204509377" lon="5.670234113931656"><ele></ele><time>2015-2-3T0:5:14Z</time></trkpt>
<trkpt lat="45.624413564801216" lon="5.669757770374417"><ele></ele><time>2015-2-3T0:5:17Z</time></trkpt>
<trkpt lat="45.624078288674355" lon="5.669248653575778"><ele></ele><time>2015-2-3T0:5:20Z</time></trkpt>
<trkpt lat="45.623808391392231" lon="5.668681869283319"><ele></ele><time>2015-2-3T0:5:23Z</time></trkpt>
<trkpt lat="45.623499685898423" lon="5.668097399175167"><ele></ele><time>2015-2-3T0:5:26Z</time></trkpt>
<trkpt lat="45.623210174962878" lon="5.667589455842972"><ele></ele><time>2015-2-3T0:5:29Z</time></trkpt>
<trkpt lat="45.622962825000286" lon="5.667007081210613"><ele></ele><time>2015-2-3T0:5:32Z</time></trkpt>
<trkpt lat="45.622684545814991" lon="5.666434345766902"><ele></ele><time>2015-2-3T0:5:35Z</time></trkpt>
<trkpt lat="45.622314820066094" lon="5.666047101840377"><ele></ele><time>2015-2-3T0:5:38Z</time></trkpt>
<trkpt lat="45.621942495927215" lon="5.66566756926477"><ele></ele><time>2015-2-3T0:5:41Z</time></trkpt>
<trkpt lat="45.621565394103527" lon="5.665219305083156"><ele></ele><time>2015-2-3T0:5:44Z</time></trkpt>
<trkpt lat="45.621216706931591" lon="5.664800126105547"><ele></ele><time>2015-2-3T0:5:47Z</time></trkpt>
<trkpt lat="45.620826864615083" lon="5.664399974048138"><ele></ele><time>2015-2-3T0:5:50Z</time></trkpt>
<trkpt lat="45.620361501350999" lon="5.664075259119272"><ele></ele><time>2015-2-3T0:5:53Z</time></trkpt>
<trkpt lat="45.61991399154067" lon="5.66388700157404"><ele></ele><time>2015-2-3T0:5:56Z</time></trkpt>
<trkpt lat="45.61945416033268" lon="5.663694720715284"><ele></ele><time>2015-2-3T0:5:59Z</time></trkpt>
<trkpt lat="45.618986869230866" lon="5.663448963314295"><ele></ele><time>2015-2-3T0:6:2Z</time></trkpt>
<trkpt lat="45.618569366633892" lon="5.663100695237517"><ele></ele><time>2015-2-3T0:6:5Z</time></trkpt>
<trkpt lat="45.618196120485663" lon="5.662703476846218"><ele></ele><time>2015-2-3T0:6:8Z</time></trkpt>
<trkpt lat="45.617840643972158" lon="5.662311874330044"><ele></ele><time>2015-2-3T0:6:11Z</time></trkpt>
<trkpt lat="45.617466475814581" lon="5.661911638453603"><ele></ele><time>2015-2-3T0:6:14Z</time></trkpt>
<trkpt lat="45.617150645703077" lon="5.661446359008551"><ele></ele><time>2015-2-3T0:6:17Z</time></trkpt>
<trkpt lat="45.616849819198251" lon="5.660913856700063"><ele></ele><time>2015-2-3T0:6:20Z</time></trkpt>
<trkpt lat="45.616529881954193" lon="5.660430137068033"><ele></ele><time>2015-2-3T0:6:23Z</time></trkpt>
<trkpt lat="45.616261325776577" lon="5.659916074946523"><ele></ele><time>2015-2-3T0:6:26Z</time></trkpt>
<trkpt lat="45.616022190079093" lon="5.659361528232694"><ele></ele><time>2015-2-3T0:6:29Z</time></trkpt>
<trkpt lat="45.615797303617001" lon="5.658743195235729"><ele></ele><time>2015-2-3T0:6:32Z</time></trkpt>
<trkpt lat="45.615575602278113" lon="5.658090580254793"><ele></ele><time>2015-2-3T0:6:35Z</time></trkpt>
<trkpt lat="45.615336718037724" lon="5.657436791807413"><ele></ele><time>2015-2-3T0:6:38Z</time></trkpt>
<trkpt lat="45.615163631737232" lon="5.656834132969379"><ele></ele><time>2015-2-3T0:6:41Z</time></trkpt>
<trkpt lat="45.615006303414702" lon="5.656201299279928"><ele></ele><time>2015-2-3T0:6:44Z</time></trkpt>
<trkpt lat="45.614837240427732" lon="5.655577601864934"><ele></ele><time>2015-2-3T0:6:47Z</time></trkpt>
<trkpt lat="45.61466465704143" lon="5.654962286353111"><ele></ele><time>2015-2-3T0:6:50Z</time></trkpt>
<trkpt lat="45.614479081705213" lon="5.654354933649302"><ele></ele><time>2015-2-3T0:6:53Z</time></trkpt>
<trkpt lat="45.614229803904891" lon="5.653793765231967"><ele></ele><time>2015-2-3T0:6:56Z</time></trkpt>
<trkpt lat="45.61395077034831" lon="5.653260508552194"><ele></ele><time>2015-2-3T0:6:59Z</time></trkpt>
<trkpt lat="45.613646507263184" lon="5.652745021507144"><ele></ele><time>2015-2-3T0:7:2Z</time></trkpt>
<trkpt lat="45.613377867266536" lon="5.652189804241061"><ele></ele><time>2015-2-3T0:7:5Z</time></trkpt>
<trkpt lat="45.61323881149292" lon="5.651549426838756"><ele></ele><time>2015-2-3T0:7:8Z</time></trkpt>
<trkpt lat="45.613030353561044" lon="5.650961939245462"><ele></ele><time>2015-2-3T0:7:11Z</time></trkpt>
<trkpt lat="45.612769508734345" lon="5.650421474128962"><ele></ele><time>2015-2-3T0:7:14Z</time></trkpt>
<trkpt lat="45.61240523122251" lon="5.649868352338672"><ele></ele><time>2015-2-3T0:7:17Z</time></trkpt>
<trkpt lat="45.61202653683722" lon="5.649391338229179"><ele></ele><time>2015-2-3T0:7:20Z</time></trkpt>
<trkpt lat="45.61165563762188" lon="5.648951372131705"><ele></ele><time>2015-2-3T0:7:23Z</time></trkpt>
<trkpt lat="45.611262191087008" lon="5.648502437397838"><ele></ele><time>2015-2-3T0:7:26Z</time></trkpt>
<trkpt lat="45.610806969925761" lon="5.648265397176147"><ele></ele><time>2015-2-3T0:7:29Z</time></trkpt>
<trkpt lat="45.610316963866353" lon="5.648096837103367"><ele></ele><time>2015-2-3T0:7:32Z</time></trkpt>
<trkpt lat="45.609829472377896" lon="5.647871280089021"><ele></ele><time>2015-2-3T0:7:35Z</time></trkpt>
<trkpt lat="45.609375843778253" lon="5.647584116086364"><ele></ele><time>2015-2-3T0:7:38Z</time></trkpt>
<trkpt lat="45.609033526852727" lon="5.647080279886723"><ele></ele><time>2015-2-3T0:7:41Z</time></trkpt>
<trkpt lat="45.608766730874777" lon="5.646514417603612"><ele></ele><time>2015-2-3T0:7:44Z</time></trkpt>
<trkpt lat="45.608501108363271" lon="5.645894324406982"><ele></ele><time>2015-2-3T0:7:47Z</time></trkpt>
<trkpt lat="45.608245292678475" lon="5.645318487659097"><ele></ele><time>2015-2-3T0:7:50Z</time></trkpt>
<trkpt lat="45.607999200001359" lon="5.644764862954617"><ele></ele><time>2015-2-3T0:7:53Z</time></trkpt>
<trkpt lat="45.607715975493193" lon="5.644193552434444"><ele></ele><time>2015-2-3T0:7:56Z</time></trkpt>
<trkpt lat="45.607457226142287" lon="5.643549403175712"><ele></ele><time>2015-2-3T0:7:59Z</time></trkpt>
<trkpt lat="45.607104934751987" lon="5.643042549490929"><ele></ele><time>2015-2-3T0:8:2Z</time></trkpt>
<trkpt lat="45.606668405234814" lon="5.642784805968404"><ele></ele><time>2015-2-3T0:8:5Z</time></trkpt>
<trkpt lat="45.606207149103284" lon="5.64257157035172"><ele></ele><time>2015-2-3T0:8:8Z</time></trkpt>
<trkpt lat="45.605749161913991" lon="5.642387671396136"><ele></ele><time>2015-2-3T0:8:11Z</time></trkpt>
<trkpt lat="45.605338783934712" lon="5.642114169895649"><ele></ele><time>2015-2-3T0:8:14Z</time></trkpt>
<trkpt lat="45.604960592463613" lon="5.641759447753429"><ele></ele><time>2015-2-3T0:8:17Z</time></trkpt>
<trkpt lat="45.604568989947438" lon="5.641376310959458"><ele></ele><time>2015-2-3T0:8:20Z</time></trkpt>
<trkpt lat="45.604164311662316" lon="5.640943385660648"><ele></ele><time>2015-2-3T0:8:23Z</time></trkpt>
<trkpt lat="45.603795424103737" lon="5.640545915812254"><ele></ele><time>2015-2-3T0:8:26Z</time></trkpt>
<trkpt lat="45.603407006710768" lon="5.640142494812608"><ele></ele><time>2015-2-3T0:8:29Z</time></trkpt>
<trkpt lat="45.603040298447013" lon="5.639743600040674"><ele></ele><time>2015-2-3T0:8:32Z</time></trkpt>
<trkpt lat="45.602653725072742" lon="5.639347638934851"><ele></ele><time>2015-2-3T0:8:35Z</time></trkpt>
<trkpt lat="45.602282658219337" lon="5.638924185186625"><ele></ele><time>2015-2-3T0:8:38Z</time></trkpt>
<trkpt lat="45.60207118280232" lon="5.638353796675801"><ele></ele><time>2015-2-3T0:8:41Z</time></trkpt>
<trkpt lat="45.601942604407668" lon="5.637720795348287"><ele></ele><time>2015-2-3T0:8:44Z</time></trkpt>
<trkpt lat="45.601916955783963" lon="5.63702953979373"><ele></ele><time>2015-2-3T0:8:47Z</time></trkpt>
<trkpt lat="45.601839423179626" lon="5.636346666142345"><ele></ele><time>2015-2-3T0:8:50Z</time></trkpt>
<trkpt lat="45.601637167856097" lon="5.63571366481483"><ele></ele><time>2015-2-3T0:8:53Z</time></trkpt>
<trkpt lat="45.601256126537919" lon="5.63526607118547"><ele></ele><time>2015-2-3T0:8:56Z</time></trkpt>
<trkpt lat="45.600948929786682" lon="5.634762737900019"><ele></ele><time>2015-2-3T0:8:59Z</time></trkpt>
<trkpt lat="45.600818591192365" lon="5.634161420166493"><ele></ele><time>2015-2-3T0:9:2Z</time></trkpt>
<trkpt lat="45.600350964814425" lon="5.633995123207569"><ele></ele><time>2015-2-3T0:9:5Z</time></trkpt>
<trkpt lat="45.599879147484899" lon="5.633962266147137"><ele></ele><time>2015-2-3T0:9:8Z</time></trkpt>
<trkpt lat="45.599462483078241" lon="5.633942987769842"><ele></ele><time>2015-2-3T0:9:11Z</time></trkpt>
<trkpt lat="45.599002065137029" lon="5.633833184838295"><ele></ele><time>2015-2-3T0:9:14Z</time></trkpt>
<trkpt lat="45.598530666902661" lon="5.633708881214261"><ele></ele><time>2015-2-3T0:9:17Z</time></trkpt>
<trkpt lat="45.598059101030231" lon="5.633532106876373"><ele></ele><time>2015-2-3T0:9:20Z</time></trkpt>
<trkpt lat="45.597810996696353" lon="5.633030785247684"><ele></ele><time>2015-2-3T0:9:23Z</time></trkpt>
<trkpt lat="45.598104111850262" lon="5.632567433640361"><ele></ele><time>2015-2-3T0:9:26Z</time></trkpt>
<trkpt lat="45.598556902259588" lon="5.632290160283446"><ele></ele><time>2015-2-3T0:9:29Z</time></trkpt>
<trkpt lat="45.598432179540396" lon="5.631676269695163"><ele></ele><time>2015-2-3T0:9:32Z</time></trkpt>
<trkpt lat="45.598128167912364" lon="5.631130859255791"><ele></ele><time>2015-2-3T0:9:35Z</time></trkpt>
<trkpt lat="45.597827676683664" lon="5.630608750507236"><ele></ele><time>2015-2-3T0:9:38Z</time></trkpt>
<trkpt lat="45.597594827413559" lon="5.630001900717616"><ele></ele><time>2015-2-3T0:9:41Z</time></trkpt>
<trkpt lat="45.597356865182519" lon="5.629628151655197"><ele></ele><time>2015-2-3T0:9:44Z</time></trkpt>
<trkpt lat="45.597086884081364" lon="5.629095230251551"><ele></ele><time>2015-2-3T0:9:47Z</time></trkpt>
<trkpt lat="45.596883371472359" lon="5.628516124561429"><ele></ele><time>2015-2-3T0:9:50Z</time></trkpt>
<trkpt lat="45.596655048429966" lon="5.627948334440589"><ele></ele><time>2015-2-3T0:9:53Z</time></trkpt>
<trkpt lat="45.596454301849008" lon="5.627366043627262"><ele></ele><time>2015-2-3T0:9:56Z</time></trkpt>
<trkpt lat="45.596243496984243" lon="5.626778807491064"><ele></ele><time>2015-2-3T0:9:59Z</time></trkpt>
<trkpt lat="45.59600779786706" lon="5.626144884154201"><ele></ele><time>2015-2-3T0:10:2Z</time></trkpt>
<trkpt lat="45.595804369077086" lon="5.625551277771592"><ele></ele><time>2015-2-3T0:10:5Z</time></trkpt>
<trkpt lat="45.595575124025345" lon="5.624935040250421"><ele></ele><time>2015-2-3T0:10:8Z</time></trkpt>
<trkpt lat="45.595359206199646" lon="5.624309750273824"><ele></ele><time>2015-2-3T0:10:11Z</time></trkpt>
<trkpt lat="45.59514882043004" lon="5.623705498874188"><ele></ele><time>2015-2-3T0:10:14Z</time></trkpt>
<trkpt lat="45.59493038803339" lon="5.623086411505938"><ele></ele><time>2015-2-3T0:10:17Z</time></trkpt>
<trkpt lat="45.594715811312199" lon="5.622466737404466"><ele></ele><time>2015-2-3T0:10:20Z</time></trkpt>
<trkpt lat="45.594497378915548" lon="5.621853349730372"><ele></ele><time>2015-2-3T0:10:23Z</time></trkpt>
<trkpt lat="45.594229996204376" lon="5.621281368657947"><ele></ele><time>2015-2-3T0:10:26Z</time></trkpt>
<trkpt lat="45.593928247690201" lon="5.620752973482013"><ele></ele><time>2015-2-3T0:10:29Z</time></trkpt>
<trkpt lat="45.593684921041131" lon="5.620159031823278"><ele></ele><time>2015-2-3T0:10:32Z</time></trkpt>
<trkpt lat="45.593421561643481" lon="5.619595935568214"><ele></ele><time>2015-2-3T0:10:35Z</time></trkpt>
<trkpt lat="45.593110173940659" lon="5.619105845689774"><ele></ele><time>2015-2-3T0:10:38Z</time></trkpt>
<trkpt lat="45.592796690762043" lon="5.618641320616007"><ele></ele><time>2015-2-3T0:10:41Z</time></trkpt>
<trkpt lat="45.592449428513646" lon="5.618119463324547"><ele></ele><time>2015-2-3T0:10:44Z</time></trkpt>
<trkpt lat="45.592101663351059" lon="5.617599952965975"><ele></ele><time>2015-2-3T0:10:47Z</time></trkpt>
<trkpt lat="45.591789269819856" lon="5.617085639387369"><ele></ele><time>2015-2-3T0:10:50Z</time></trkpt>
<trkpt lat="45.591562120243907" lon="5.616468396037817"><ele></ele><time>2015-2-3T0:10:53Z</time></trkpt>
<trkpt lat="45.591346370056272" lon="5.615848302841187"><ele></ele><time>2015-2-3T0:10:56Z</time></trkpt>
<trkpt lat="45.591155514121056" lon="5.615229969844222"><ele></ele><time>2015-2-3T0:10:59Z</time></trkpt>
<trkpt lat="45.590967005118728" lon="5.61457023024559"><ele></ele><time>2015-2-3T0:11:2Z</time></trkpt>
<trkpt lat="45.590813448652625" lon="5.613953238353133"><ele></ele><time>2015-2-3T0:11:5Z</time></trkpt>
<trkpt lat="45.590632148087025" lon="5.613334653899074"><ele></ele><time>2015-2-3T0:11:8Z</time></trkpt>
<trkpt lat="45.590292848646641" lon="5.612870464101434"><ele></ele><time>2015-2-3T0:11:11Z</time></trkpt>
<trkpt lat="45.589880123734474" lon="5.612572822719812"><ele></ele><time>2015-2-3T0:11:14Z</time></trkpt>
<trkpt lat="45.589427081868052" lon="5.612409459426999"><ele></ele><time>2015-2-3T0:11:17Z</time></trkpt>
<trkpt lat="45.588985271751881" lon="5.612269146367908"><ele></ele><time>2015-2-3T0:11:20Z</time></trkpt>
<trkpt lat="45.588513454422355" lon="5.612103939056397"><ele></ele><time>2015-2-3T0:11:23Z</time></trkpt>
<trkpt lat="45.58810668066144" lon="5.611810404807329"><ele></ele><time>2015-2-3T0:11:26Z</time></trkpt>
<trkpt lat="45.587842985987663" lon="5.611227946355939"><ele></ele><time>2015-2-3T0:11:29Z</time></trkpt>
<trkpt lat="45.587658081203699" lon="5.610642805695534"><ele></ele><time>2015-2-3T0:11:32Z</time></trkpt>
<trkpt lat="45.587562527507544" lon="5.609996477141976"><ele></ele><time>2015-2-3T0:11:35Z</time></trkpt>
<trkpt lat="45.587496059015393" lon="5.609312262386084"><ele></ele><time>2015-2-3T0:11:38Z</time></trkpt>
<trkpt lat="45.587477367371321" lon="5.608650511130691"><ele></ele><time>2015-2-3T0:11:41Z</time></trkpt>
<trkpt lat="45.587511984631419" lon="5.607991861179471"><ele></ele><time>2015-2-3T0:11:44Z</time></trkpt>
<trkpt lat="45.587542746216059" lon="5.60733363032341"><ele></ele><time>2015-2-3T0:11:47Z</time></trkpt>
<trkpt lat="45.587288942188025" lon="5.606844965368509"><ele></ele><time>2015-2-3T0:11:50Z</time></trkpt>
<trkpt lat="45.586792398244143" lon="5.606938172131777"><ele></ele><time>2015-2-3T0:11:53Z</time></trkpt>
<trkpt lat="45.586302308365703" lon="5.607107738032937"><ele></ele><time>2015-2-3T0:11:56Z</time></trkpt>
<trkpt lat="45.585837615653872" lon="5.607114695012569"><ele></ele><time>2015-2-3T0:11:59Z</time></trkpt>
<trkpt lat="45.585359847173095" lon="5.60711620375514"><ele></ele><time>2015-2-3T0:12:2Z</time></trkpt>
<trkpt lat="45.584919629618526" lon="5.60730722732842"><ele></ele><time>2015-2-3T0:12:5Z</time></trkpt>
<trkpt lat="45.584415541961789" lon="5.607416778802872"><ele></ele><time>2015-2-3T0:12:8Z</time></trkpt>
<trkpt lat="45.583924110978842" lon="5.607221396639943"><ele></ele><time>2015-2-3T0:12:11Z</time></trkpt>
<trkpt lat="45.583429159596562" lon="5.606997096911073"><ele></ele><time>2015-2-3T0:12:14Z</time></trkpt>
<trkpt lat="45.582945020869374" lon="5.606760727241635"><ele></ele><time>2015-2-3T0:12:17Z</time></trkpt>
<trkpt lat="45.582464318722486" lon="5.606529051437974"><ele></ele><time>2015-2-3T0:12:20Z</time></trkpt>
<trkpt lat="45.581993591040373" lon="5.606306092813611"><ele></ele><time>2015-2-3T0:12:23Z</time></trkpt>
<trkpt lat="45.581530574709177" lon="5.606086067855358"><ele></ele><time>2015-2-3T0:12:26Z</time></trkpt>
<trkpt lat="45.581087758764625" lon="5.605877945199609"><ele></ele><time>2015-2-3T0:12:29Z</time></trkpt>
<trkpt lat="45.580645361915231" lon="5.605666553601623"><ele></ele><time>2015-2-3T0:12:32Z</time></trkpt>
<trkpt lat="45.580182513222098" lon="5.605456586927176"><ele></ele><time>2015-2-3T0:12:35Z</time></trkpt>
<trkpt lat="45.579717736691236" lon="5.605238154530525"><ele></ele><time>2015-2-3T0:12:38Z</time></trkpt>
<trkpt lat="45.579287996515632" lon="5.605027601122856"><ele></ele><time>2015-2-3T0:12:41Z</time></trkpt>
<trkpt lat="45.578849790617824" lon="5.604817969724536"><ele></ele><time>2015-2-3T0:12:44Z</time></trkpt>
<trkpt lat="45.578417619690299" lon="5.604614708572626"><ele></ele><time>2015-2-3T0:12:47Z</time></trkpt>
<trkpt lat="45.57795787230134" lon="5.604391247034073"><ele></ele><time>2015-2-3T0:12:50Z</time></trkpt>
<trkpt lat="45.577527796849608" lon="5.604181447997689"><ele></ele><time>2015-2-3T0:12:53Z</time></trkpt>
<trkpt lat="45.577093698084354" lon="5.603970559313893"><ele></ele><time>2015-2-3T0:12:56Z</time></trkpt>
<trkpt lat="45.576666137203574" lon="5.603747265413404"><ele></ele><time>2015-2-3T0:12:59Z</time></trkpt>
<trkpt lat="45.576234217733145" lon="5.603509554639459"><ele></ele><time>2015-2-3T0:13:2Z</time></trkpt>
<trkpt lat="45.575795089825988" lon="5.603322302922607"><ele></ele><time>2015-2-3T0:13:5Z</time></trkpt>
<trkpt lat="45.575354872271419" lon="5.603167992085218"><ele></ele><time>2015-2-3T0:13:8Z</time></trkpt>
<trkpt lat="45.574909625574946" lon="5.602884851396084"><ele></ele><time>2015-2-3T0:13:11Z</time></trkpt>
<trkpt lat="45.574444681406021" lon="5.602669939398766"><ele></ele><time>2015-2-3T0:13:14Z</time></trkpt>
<trkpt lat="45.574016449972987" lon="5.602466929703951"><ele></ele><time>2015-2-3T0:13:17Z</time></trkpt>
<trkpt lat="45.573573047295213" lon="5.60225335881114"><ele></ele><time>2015-2-3T0:13:20Z</time></trkpt>
<trkpt lat="45.573135847225785" lon="5.602044062688947"><ele></ele><time>2015-2-3T0:13:23Z</time></trkpt>
<trkpt lat="45.572703341022134" lon="5.601829150691629"><ele></ele><time>2015-2-3T0:13:26Z</time></trkpt>
<trkpt lat="45.572245270013809" lon="5.601618010550737"><ele></ele><time>2015-2-3T0:13:29Z</time></trkpt>
<trkpt lat="45.571814943104982" lon="5.601385245099664"><ele></ele><time>2015-2-3T0:13:32Z</time></trkpt>
<trkpt lat="45.571370618417859" lon="5.601152228191495"><ele></ele><time>2015-2-3T0:13:35Z</time></trkpt>
<trkpt lat="45.570912295952439" lon="5.60093698091805"><ele></ele><time>2015-2-3T0:13:38Z</time></trkpt>
<trkpt lat="45.570458667352796" lon="5.600765068084002"><ele></ele><time>2015-2-3T0:13:41Z</time></trkpt>
<trkpt lat="45.570061365142465" lon="5.60050405561924"><ele></ele><time>2015-2-3T0:13:44Z</time></trkpt>
<trkpt lat="45.569628020748496" lon="5.60032912530005"><ele></ele><time>2015-2-3T0:13:47Z</time></trkpt>
<trkpt lat="45.569194173440337" lon="5.60010633431375"><ele></ele><time>2015-2-3T0:13:50Z</time></trkpt>
<trkpt lat="45.568761834874749" lon="5.599930565804243"><ele></ele><time>2015-2-3T0:13:53Z</time></trkpt>
<trkpt lat="45.568328239023685" lon="5.599705008789897"><ele></ele><time>2015-2-3T0:13:56Z</time></trkpt>
<trkpt lat="45.567903444170952" lon="5.599489761516452"><ele></ele><time>2015-2-3T0:13:59Z</time></trkpt>
<trkpt lat="45.567464316263795" lon="5.599342659115791"><ele></ele><time>2015-2-3T0:14:2Z</time></trkpt>
<trkpt lat="45.567013788968325" lon="5.599106708541513"><ele></ele><time>2015-2-3T0:14:5Z</time></trkpt>
<trkpt lat="45.566545911133289" lon="5.598882827907801"><ele></ele><time>2015-2-3T0:14:8Z</time></trkpt>
<trkpt lat="45.566095970571041" lon="5.598632711917162"><ele></ele><time>2015-2-3T0:14:11Z</time></trkpt>
<trkpt lat="45.565648712217808" lon="5.598443700000644"><ele></ele><time>2015-2-3T0:14:14Z</time></trkpt>
<trkpt lat="45.565204806625843" lon="5.598246138542891"><ele></ele><time>2015-2-3T0:14:17Z</time></trkpt>
<trkpt lat="45.564764337614179" lon="5.598043296486139"><ele></ele><time>2015-2-3T0:14:20Z</time></trkpt>
<trkpt lat="45.564335435628891" lon="5.597841963171959"><ele></ele><time>2015-2-3T0:14:23Z</time></trkpt>
<trkpt lat="45.563886584714055" lon="5.597630990669131"><ele></ele><time>2015-2-3T0:14:26Z</time></trkpt>
<trkpt lat="45.563456425443292" lon="5.597429070621729"><ele></ele><time>2015-2-3T0:14:29Z</time></trkpt>
<trkpt lat="45.563024338334799" lon="5.59722195379436"><ele></ele><time>2015-2-3T0:14:32Z</time></trkpt>
<trkpt lat="45.562570709735155" lon="5.59700352139771"><ele></ele><time>2015-2-3T0:14:35Z</time></trkpt>
<trkpt lat="45.562135688960552" lon="5.596754495054483"><ele></ele><time>2015-2-3T0:14:38Z</time></trkpt>
<trkpt lat="45.561736039817333" lon="5.596397593617439"><ele></ele><time>2015-2-3T0:14:41Z</time></trkpt>
<trkpt lat="45.561324991285801" lon="5.596002135425806"><ele></ele><time>2015-2-3T0:14:44Z</time></trkpt>
<trkpt lat="45.560940513387322" lon="5.595620842650533"><ele></ele><time>2015-2-3T0:14:47Z</time></trkpt>
<trkpt lat="45.560530303046107" lon="5.595213314518333"><ele></ele><time>2015-2-3T0:14:50Z</time></trkpt>
<trkpt lat="45.560138029977679" lon="5.594832105562091"><ele></ele><time>2015-2-3T0:14:53Z</time></trkpt>
<trkpt lat="45.559740895405412" lon="5.594435473904014"><ele></ele><time>2015-2-3T0:14:56Z</time></trkpt>
<trkpt lat="45.559332026168704" lon="5.594009924679995"><ele></ele><time>2015-2-3T0:14:59Z</time></trkpt>
<trkpt lat="45.558866746723652" lon="5.593632906675339"><ele></ele><time>2015-2-3T0:15:2Z</time></trkpt>
<trkpt lat="45.558322761207819" lon="5.59383817948401"><ele></ele><time>2015-2-3T0:15:5Z</time></trkpt>
<trkpt lat="45.557774668559432" lon="5.59401260688901"><ele></ele><time>2015-2-3T0:15:8Z</time></trkpt>
<trkpt lat="45.557280303910375" lon="5.593891488388181"><ele></ele><time>2015-2-3T0:15:11Z</time></trkpt>
<trkpt lat="45.556841008365154" lon="5.59363734908402"><ele></ele><time>2015-2-3T0:15:14Z</time></trkpt>
<trkpt lat="45.556384194642305" lon="5.593303916975856"><ele></ele><time>2015-2-3T0:15:17Z</time></trkpt>
<trkpt lat="45.555960824713111" lon="5.592985656112433"><ele></ele><time>2015-2-3T0:15:20Z</time></trkpt>
<trkpt lat="45.555541813373566" lon="5.592668820172548"><ele></ele><time>2015-2-3T0:15:23Z</time></trkpt>
<trkpt lat="45.555128669366241" lon="5.592353325337172"><ele></ele><time>2015-2-3T0:15:26Z</time></trkpt>
<trkpt lat="45.554726589471102" lon="5.592053588479757"><ele></ele><time>2015-2-3T0:15:29Z</time></trkpt>
<trkpt lat="45.55432291701436" lon="5.591746727004647"><ele></ele><time>2015-2-3T0:15:32Z</time></trkpt>
<trkpt lat="45.553907845169306" lon="5.591429388150573"><ele></ele><time>2015-2-3T0:15:35Z</time></trkpt>
<trkpt lat="45.553498724475503" lon="5.591107942163944"><ele></ele><time>2015-2-3T0:15:38Z</time></trkpt>
<trkpt lat="45.553079629316926" lon="5.590794291347265"><ele></ele><time>2015-2-3T0:15:41Z</time></trkpt>
<trkpt lat="45.552677381783724" lon="5.59048181399703"><ele></ele><time>2015-2-3T0:15:44Z</time></trkpt>
<trkpt lat="45.552278570830822" lon="5.590186100453138"><ele></ele><time>2015-2-3T0:15:47Z</time></trkpt>
<trkpt lat="45.551887974143028" lon="5.589821403846145"><ele></ele><time>2015-2-3T0:15:50Z</time></trkpt>
<trkpt lat="45.551683874800801" lon="5.589251015335321"><ele></ele><time>2015-2-3T0:15:53Z</time></trkpt>
<trkpt lat="45.551775824278593" lon="5.588622372597456"><ele></ele><time>2015-2-3T0:15:56Z</time></trkpt>
<trkpt lat="45.551996435970068" lon="5.588047541677952"><ele></ele><time>2015-2-3T0:15:59Z</time></trkpt>
<trkpt lat="45.552225932478905" lon="5.587498527020216"><ele></ele><time>2015-2-3T0:16:2Z</time></trkpt>
<trkpt lat="45.552438665181398" lon="5.586927551776171"><ele></ele><time>2015-2-3T0:16:5Z</time></trkpt>
<trkpt lat="45.552589790895581" lon="5.586305782198906"><ele></ele><time>2015-2-3T0:16:8Z</time></trkpt>
<trkpt lat="45.552794057875872" lon="5.585735393688083"><ele></ele><time>2015-2-3T0:16:11Z</time></trkpt>
<trkpt lat="45.552918780595064" lon="5.585116893053055"><ele></ele><time>2015-2-3T0:16:14Z</time></trkpt>
<trkpt lat="45.55294937454164" lon="5.584473162889481"><ele></ele><time>2015-2-3T0:16:17Z</time></trkpt>
<trkpt lat="45.552735049277544" lon="5.583891291171312"><ele></ele><time>2015-2-3T0:16:20Z</time></trkpt>
<trkpt lat="45.552567411214113" lon="5.583283938467503"><ele></ele><time>2015-2-3T0:16:23Z</time></trkpt>
<trkpt lat="45.552509156987071" lon="5.582654876634479"><ele></ele><time>2015-2-3T0:16:26Z</time></trkpt>
<trkpt lat="45.552415698766708" lon="5.582043919712305"><ele></ele><time>2015-2-3T0:16:29Z</time></trkpt>
<trkpt lat="45.552211180329323" lon="5.581494234502316"><ele></ele><time>2015-2-3T0:16:32Z</time></trkpt>
<trkpt lat="45.551955448463559" lon="5.580934071913362"><ele></ele><time>2015-2-3T0:16:35Z</time></trkpt>
<trkpt lat="45.551699129864573" lon="5.58035496622324"><ele></ele><time>2015-2-3T0:16:38Z</time></trkpt>
<trkpt lat="45.551446080207825" lon="5.579799246042967"><ele></ele><time>2015-2-3T0:16:41Z</time></trkpt>
<trkpt lat="45.55117710493505" lon="5.579245537519455"><ele></ele><time>2015-2-3T0:16:44Z</time></trkpt>
<trkpt lat="45.550916930660605" lon="5.578674646094441"><ele></ele><time>2015-2-3T0:16:47Z</time></trkpt>
<trkpt lat="45.550676537677646" lon="5.57810777798295"><ele></ele><time>2015-2-3T0:16:50Z</time></trkpt>
<trkpt lat="45.550427511334419" lon="5.577518278732896"><ele></ele><time>2015-2-3T0:16:53Z</time></trkpt>
<trkpt lat="45.550269512459636" lon="5.576870692893863"><ele></ele><time>2015-2-3T0:16:56Z</time></trkpt>
<trkpt lat="45.550109669566154" lon="5.57626074180007"><ele></ele><time>2015-2-3T0:16:59Z</time></trkpt>
<trkpt lat="45.549948569387197" lon="5.575643917545676"><ele></ele><time>2015-2-3T0:17:2Z</time></trkpt>
<trkpt lat="45.549653694033623" lon="5.575154246762395"><ele></ele><time>2015-2-3T0:17:5Z</time></trkpt>
<trkpt lat="45.549379605799913" lon="5.574620068073273"><ele></ele><time>2015-2-3T0:17:8Z</time></trkpt>
<trkpt lat="45.549122113734484" lon="5.574093265458942"><ele></ele><time>2015-2-3T0:17:11Z</time></trkpt>
<trkpt lat="45.548856407403946" lon="5.573559170588851"><ele></ele><time>2015-2-3T0:17:14Z</time></trkpt>
<trkpt lat="45.548575948923826" lon="5.572987776249647"><ele></ele><time>2015-2-3T0:17:17Z</time></trkpt>
<trkpt lat="45.548320719972253" lon="5.572446724399924"><ele></ele><time>2015-2-3T0:17:20Z</time></trkpt>
<trkpt lat="45.548062222078443" lon="5.571894021704793"><ele></ele><time>2015-2-3T0:17:23Z</time></trkpt>
<trkpt lat="45.547799030318856" lon="5.571334110572934"><ele></ele><time>2015-2-3T0:17:26Z</time></trkpt>
<trkpt lat="45.547539107501507" lon="5.57076707482338"><ele></ele><time>2015-2-3T0:17:29Z</time></trkpt>
<trkpt lat="45.547280693426728" lon="5.57019392028451"><ele></ele><time>2015-2-3T0:17:32Z</time></trkpt>
<trkpt lat="45.547009957954288" lon="5.569621939212084"><ele></ele><time>2015-2-3T0:17:35Z</time></trkpt>
<trkpt lat="45.546664372086525" lon="5.569188008084893"><ele></ele><time>2015-2-3T0:17:38Z</time></trkpt>
<trkpt lat="45.546296993270516" lon="5.568839404731989"><ele></ele><time>2015-2-3T0:17:41Z</time></trkpt>
<trkpt lat="45.546194482594728" lon="5.568218054249883"><ele></ele><time>2015-2-3T0:17:44Z</time></trkpt>
<trkpt lat="45.546195656061172" lon="5.56755043566227"><ele></ele><time>2015-2-3T0:17:47Z</time></trkpt>
<trkpt lat="45.546199008822441" lon="5.566901341080666"><ele></ele><time>2015-2-3T0:17:50Z</time></trkpt>
<trkpt lat="45.546206803992391" lon="5.566221233457327"><ele></ele><time>2015-2-3T0:17:53Z</time></trkpt>
<trkpt lat="45.546223232522607" lon="5.565542131662369"><ele></ele><time>2015-2-3T0:17:56Z</time></trkpt>
<trkpt lat="45.546219293028116" lon="5.564866214990616"><ele></ele><time>2015-2-3T0:17:59Z</time></trkpt>
<trkpt lat="45.546244354918599" lon="5.56417990475893"><ele></ele><time>2015-2-3T0:18:2Z</time></trkpt>
<trkpt lat="45.545991640537977" lon="5.563840186223388"><ele></ele><time>2015-2-3T0:18:5Z</time></trkpt>
<trkpt lat="45.54548604413867" lon="5.563873127102852"><ele></ele><time>2015-2-3T0:18:8Z</time></trkpt>
<trkpt lat="45.545023363083601" lon="5.563901709392667"><ele></ele><time>2015-2-3T0:18:11Z</time></trkpt>
<trkpt lat="45.544507289305329" lon="5.56394780986011"><ele></ele><time>2015-2-3T0:18:14Z</time></trkpt>
<trkpt lat="45.544031951576471" lon="5.563791068270803"><ele></ele><time>2015-2-3T0:18:17Z</time></trkpt>
<trkpt lat="45.543676810339093" lon="5.563297038897872"><ele></ele><time>2015-2-3T0:18:20Z</time></trkpt>
<trkpt lat="45.543319405987859" lon="5.5628293287009"><ele></ele><time>2015-2-3T0:18:23Z</time></trkpt>
<trkpt lat="45.542988320812583" lon="5.562394056469202"><ele></ele><time>2015-2-3T0:18:26Z</time></trkpt>
<trkpt lat="45.542617002502084" lon="5.561933135613799"><ele></ele><time>2015-2-3T0:18:29Z</time></trkpt>
<trkpt lat="45.542267393320799" lon="5.561489816755056"><ele></ele><time>2015-2-3T0:18:32Z</time></trkpt>
<trkpt lat="45.541929434984922" lon="5.561067117378116"><ele></ele><time>2015-2-3T0:18:35Z</time></trkpt>
<trkpt lat="45.541580831632018" lon="5.560623547062278"><ele></ele><time>2015-2-3T0:18:38Z</time></trkpt>
<trkpt lat="45.541213620454073" lon="5.560259353369474"><ele></ele><time>2015-2-3T0:18:41Z</time></trkpt>
<trkpt lat="45.540776504203677" lon="5.560269495472312"><ele></ele><time>2015-2-3T0:18:44Z</time></trkpt>
<trkpt lat="45.540344081819057" lon="5.560459261760116"><ele></ele><time>2015-2-3T0:18:47Z</time></trkpt>
<trkpt lat="45.539893386885524" lon="5.560677275061607"><ele></ele><time>2015-2-3T0:18:50Z</time></trkpt>
<trkpt lat="45.539447385817766" lon="5.560873914510012"><ele></ele><time>2015-2-3T0:18:53Z</time></trkpt>
<trkpt lat="45.538981854915619" lon="5.561083881184459"><ele></ele><time>2015-2-3T0:18:56Z</time></trkpt>
<trkpt lat="45.538494698703289" lon="5.561251686885953"><ele></ele><time>2015-2-3T0:18:59Z</time></trkpt>
<trkpt lat="45.538034532219172" lon="5.561410859227181"><ele></ele><time>2015-2-3T0:19:2Z</time></trkpt>
<trkpt lat="45.537543939426541" lon="5.561575731262565"><ele></ele><time>2015-2-3T0:19:5Z</time></trkpt>
<trkpt lat="45.537074888125062" lon="5.561730796471238"><ele></ele><time>2015-2-3T0:19:8Z</time></trkpt>
<trkpt lat="45.536601729691029" lon="5.561896925792098"><ele></ele><time>2015-2-3T0:19:11Z</time></trkpt>
<trkpt lat="45.536140222102404" lon="5.562055092304945"><ele></ele><time>2015-2-3T0:19:14Z</time></trkpt>
<trkpt lat="45.535698411986232" lon="5.562204038724303"><ele></ele><time>2015-2-3T0:19:17Z</time></trkpt>
<trkpt lat="45.53525609895587" lon="5.562359858304262"><ele></ele><time>2015-2-3T0:19:20Z</time></trkpt>
<trkpt lat="45.534990644082427" lon="5.561948474496603"><ele></ele><time>2015-2-3T0:19:23Z</time></trkpt>
<trkpt lat="45.53488913923502" lon="5.561273898929358"><ele></ele><time>2015-2-3T0:19:26Z</time></trkpt>
<trkpt lat="45.534867933019996" lon="5.560627905651927"><ele></ele><time>2015-2-3T0:19:29Z</time></trkpt>
<trkpt lat="45.534434420987964" lon="5.560632348060608"><ele></ele><time>2015-2-3T0:19:32Z</time></trkpt>
<trkpt lat="45.534024629741907" lon="5.560343340039253"><ele></ele><time>2015-2-3T0:19:35Z</time></trkpt>
<trkpt lat="45.533631937578321" lon="5.559959448873997"><ele></ele><time>2015-2-3T0:19:38Z</time></trkpt>
<trkpt lat="45.533243604004383" lon="5.55957505479455"><ele></ele><time>2015-2-3T0:19:41Z</time></trkpt>
<trkpt lat="45.532845128327608" lon="5.55918269790709"><ele></ele><time>2015-2-3T0:19:44Z</time></trkpt>
<trkpt lat="45.532441958785057" lon="5.558784138411284"><ele></ele><time>2015-2-3T0:19:47Z</time></trkpt>
<trkpt lat="45.53204633295536" lon="5.558398654684424"><ele></ele><time>2015-2-3T0:19:50Z</time></trkpt>
<trkpt lat="45.531654227524996" lon="5.558028342202306"><ele></ele><time>2015-2-3T0:19:53Z</time></trkpt>
<trkpt lat="45.531263127923012" lon="5.557645875960589"><ele></ele><time>2015-2-3T0:19:56Z</time></trkpt>
<trkpt lat="45.530880494043231" lon="5.557217057794333"><ele></ele><time>2015-2-3T0:19:59Z</time></trkpt>
<trkpt lat="45.530591150745749" lon="5.556705510243774"><ele></ele><time>2015-2-3T0:20:2Z</time></trkpt>
<trkpt lat="45.530100390315056" lon="5.556464027613401"><ele></ele><time>2015-2-3T0:20:5Z</time></trkpt>
<trkpt lat="45.529576269909739" lon="5.556362271308899"><ele></ele><time>2015-2-3T0:20:8Z</time></trkpt>
<trkpt lat="45.529123479500413" lon="5.556187508627772"><ele></ele><time>2015-2-3T0:20:11Z</time></trkpt>
<trkpt lat="45.528725506737828" lon="5.55574175901711"><ele></ele><time>2015-2-3T0:20:14Z</time></trkpt>
<trkpt lat="45.528380842879415" lon="5.555288549512625"><ele></ele><time>2015-2-3T0:20:17Z</time></trkpt>
<trkpt lat="45.528040789067745" lon="5.554863084107637"><ele></ele><time>2015-2-3T0:20:20Z</time></trkpt>
<trkpt lat="45.527706015855074" lon="5.554432924836874"><ele></ele><time>2015-2-3T0:20:23Z</time></trkpt>
<trkpt lat="45.527352718636394" lon="5.553978038951755"><ele></ele><time>2015-2-3T0:20:26Z</time></trkpt>
<trkpt lat="45.527014257386327" lon="5.553538827225566"><ele></ele><time>2015-2-3T0:20:29Z</time></trkpt>
<trkpt lat="45.526650985702872" lon="5.553059550002217"><ele></ele><time>2015-2-3T0:20:32Z</time></trkpt>
<trkpt lat="45.526325181126595" lon="5.552618242800236"><ele></ele><time>2015-2-3T0:20:35Z</time></trkpt>
<trkpt lat="45.526040196418762" lon="5.552063109353185"><ele></ele><time>2015-2-3T0:20:38Z</time></trkpt>
<trkpt lat="45.525813130661845" lon="5.551419127732515"><ele></ele><time>2015-2-3T0:20:41Z</time></trkpt>
<trkpt lat="45.525612300261855" lon="5.550843877717853"><ele></ele><time>2015-2-3T0:20:44Z</time></trkpt>
<trkpt lat="45.525403255596757" lon="5.550232753157616"><ele></ele><time>2015-2-3T0:20:47Z</time></trkpt>
<trkpt lat="45.525187337771058" lon="5.549608804285526"><ele></ele><time>2015-2-3T0:20:50Z</time></trkpt>
<trkpt lat="45.524946358054876" lon="5.548921236768365"><ele></ele><time>2015-2-3T0:20:53Z</time></trkpt>
<trkpt lat="45.524738738313317" lon="5.548323690891266"><ele></ele><time>2015-2-3T0:20:56Z</time></trkpt>
<trkpt lat="45.524523491039872" lon="5.547714410349727"><ele></ele><time>2015-2-3T0:20:59Z</time></trkpt>
<trkpt lat="45.524279912933707" lon="5.547023406252265"><ele></ele><time>2015-2-3T0:21:2Z</time></trkpt>
<trkpt lat="45.524058043956757" lon="5.546391326934099"><ele></ele><time>2015-2-3T0:21:5Z</time></trkpt>
<trkpt lat="45.523824272677302" lon="5.545718260109425"><ele></ele><time>2015-2-3T0:21:8Z</time></trkpt>
<trkpt lat="45.523625705391169" lon="5.545131862163544"><ele></ele><time>2015-2-3T0:21:11Z</time></trkpt>
<trkpt lat="45.523420432582498" lon="5.544537082314491"><ele></ele><time>2015-2-3T0:21:14Z</time></trkpt>
<trkpt lat="45.523194372653961" lon="5.543857309967279"><ele></ele><time>2015-2-3T0:21:17Z</time></trkpt>
<trkpt lat="45.522971162572503" lon="5.543213160708547"><ele></ele><time>2015-2-3T0:21:20Z</time></trkpt>
<trkpt lat="45.522731021046638" lon="5.542653249576688"><ele></ele><time>2015-2-3T0:21:23Z</time></trkpt>
<trkpt lat="45.52247310988605" lon="5.542112868279219"><ele></ele><time>2015-2-3T0:21:26Z</time></trkpt>
<trkpt lat="45.522203631699085" lon="5.541566200554371"><ele></ele><time>2015-2-3T0:21:29Z</time></trkpt>
<trkpt lat="45.521929878741503" lon="5.541036128997803"><ele></ele><time>2015-2-3T0:21:32Z</time></trkpt>
<trkpt lat="45.521647995337844" lon="5.540506225079298"><ele></ele><time>2015-2-3T0:21:35Z</time></trkpt>
<trkpt lat="45.521340295672417" lon="5.539967268705368"><ele></ele><time>2015-2-3T0:21:38Z</time></trkpt>
<trkpt lat="45.52100426517427" lon="5.539513304829598"><ele></ele><time>2015-2-3T0:21:41Z</time></trkpt>
<trkpt lat="45.520708383992314" lon="5.539035284891725"><ele></ele><time>2015-2-3T0:21:44Z</time></trkpt>
<trkpt lat="45.520438151434064" lon="5.538510493934155"><ele></ele><time>2015-2-3T0:21:47Z</time></trkpt>
<trkpt lat="45.520092817023396" lon="5.53800456225872"><ele></ele><time>2015-2-3T0:21:50Z</time></trkpt>
<trkpt lat="45.519758127629757" lon="5.53751053288579"><ele></ele><time>2015-2-3T0:21:53Z</time></trkpt>
<trkpt lat="45.519472388550639" lon="5.536908460780978"><ele></ele><time>2015-2-3T0:21:56Z</time></trkpt>
<trkpt lat="45.51923543214798" lon="5.536326253786683"><ele></ele><time>2015-2-3T0:21:59Z</time></trkpt>
<trkpt lat="45.518975425511599" lon="5.535635920241475"><ele></ele><time>2015-2-3T0:22:2Z</time></trkpt>
<trkpt lat="45.518743162974715" lon="5.534990429878235"><ele></ele><time>2015-2-3T0:22:5Z</time></trkpt>
<trkpt lat="45.518523808568716" lon="5.534398416057229"><ele></ele><time>2015-2-3T0:22:8Z</time></trkpt>
<trkpt lat="45.518301520496607" lon="5.533769018948078"><ele></ele><time>2015-2-3T0:22:11Z</time></trkpt>
<trkpt lat="45.51806909032166" lon="5.533132245764136"><ele></ele><time>2015-2-3T0:22:14Z</time></trkpt>
<trkpt lat="45.517857195809484" lon="5.532534532248974"><ele></ele><time>2015-2-3T0:22:17Z</time></trkpt>
<trkpt lat="45.517663490027189" lon="5.531920054927468"><ele></ele><time>2015-2-3T0:22:20Z</time></trkpt>
<trkpt lat="45.517467688769102" lon="5.531338350847364"><ele></ele><time>2015-2-3T0:22:23Z</time></trkpt>
<trkpt lat="45.517265433445573" lon="5.530729740858078"><ele></ele><time>2015-2-3T0:22:26Z</time></trkpt>
<trkpt lat="45.517041385173798" lon="5.530111072584987"><ele></ele><time>2015-2-3T0:22:29Z</time></trkpt>
<trkpt lat="45.516828401014209" lon="5.529489051550627"><ele></ele><time>2015-2-3T0:22:32Z</time></trkpt>
<trkpt lat="45.516614578664303" lon="5.528889829292893"><ele></ele><time>2015-2-3T0:22:35Z</time></trkpt>
<trkpt lat="45.516397235915065" lon="5.528271496295929"><ele></ele><time>2015-2-3T0:22:38Z</time></trkpt>
<trkpt lat="45.5161761213094" lon="5.527674118056893"><ele></ele><time>2015-2-3T0:22:41Z</time></trkpt>
<trkpt lat="45.515896920114756" lon="5.527166007086635"><ele></ele><time>2015-2-3T0:22:44Z</time></trkpt>
<trkpt lat="45.515572959557176" lon="5.526630152016878"><ele></ele><time>2015-2-3T0:22:47Z</time></trkpt>
<trkpt lat="45.515271881595254" lon="5.526145007461309"><ele></ele><time>2015-2-3T0:22:50Z</time></trkpt>
<trkpt lat="45.514923110604286" lon="5.525597166270018"><ele></ele><time>2015-2-3T0:22:53Z</time></trkpt>
<trkpt lat="45.514617841690779" lon="5.525107746943831"><ele></ele><time>2015-2-3T0:22:56Z</time></trkpt>
<trkpt lat="45.514269322156906" lon="5.524581195786595"><ele></ele><time>2015-2-3T0:22:59Z</time></trkpt>
<trkpt lat="45.513959359377623" lon="5.524092027917504"><ele></ele><time>2015-2-3T0:23:2Z</time></trkpt>
<trkpt lat="45.513620814308524" lon="5.523572936654091"><ele></ele><time>2015-2-3T0:23:5Z</time></trkpt>
<trkpt lat="45.513273216784" lon="5.523026688024402"><ele></ele><time>2015-2-3T0:23:8Z</time></trkpt>
<trkpt lat="45.512934001162648" lon="5.522501058876514"><ele></ele><time>2015-2-3T0:23:11Z</time></trkpt>
<trkpt lat="45.512614399194717" lon="5.522010466083884"><ele></ele><time>2015-2-3T0:23:14Z</time></trkpt>
<trkpt lat="45.512292366474867" lon="5.52141853608191"><ele></ele><time>2015-2-3T0:23:17Z</time></trkpt>
<trkpt lat="45.512072173878551" lon="5.520794251933694"><ele></ele><time>2015-2-3T0:23:20Z</time></trkpt>
<trkpt lat="45.511851394549012" lon="5.520154880359769"><ele></ele><time>2015-2-3T0:23:23Z</time></trkpt>
<trkpt lat="45.5116499774158" lon="5.51957736723125"><ele></ele><time>2015-2-3T0:23:26Z</time></trkpt>
<trkpt lat="45.511441770941019" lon="5.519007984548807"><ele></ele><time>2015-2-3T0:23:29Z</time></trkpt>
<trkpt lat="45.511185200884938" lon="5.518439104780555"><ele></ele><time>2015-2-3T0:23:32Z</time></trkpt>
<trkpt lat="45.510925613343716" lon="5.517845246940851"><ele></ele><time>2015-2-3T0:23:35Z</time></trkpt>
<trkpt lat="45.510616069659591" lon="5.517332358285785"><ele></ele><time>2015-2-3T0:23:38Z</time></trkpt>
<trkpt lat="45.510305101051927" lon="5.516866073012352"><ele></ele><time>2015-2-3T0:23:41Z</time></trkpt>
<trkpt lat="45.509964795783162" lon="5.516408672556281"><ele></ele><time>2015-2-3T0:23:44Z</time></trkpt>
<trkpt lat="45.509555758908391" lon="5.51594884134829"><ele></ele><time>2015-2-3T0:23:47Z</time></trkpt>
<trkpt lat="45.509174717590213" lon="5.515450285747647"><ele></ele><time>2015-2-3T0:23:50Z</time></trkpt>
<trkpt lat="45.508845895528793" lon="5.514972433447838"><ele></ele><time>2015-2-3T0:23:53Z</time></trkpt>
<trkpt lat="45.50853350199759" lon="5.514481002464891"><ele></ele><time>2015-2-3T0:23:56Z</time></trkpt>
<trkpt lat="45.508222868666053" lon="5.513878762722015"><ele></ele><time>2015-2-3T0:23:59Z</time></trkpt>
<trkpt lat="45.507950289174914" lon="5.513316253200173"><ele></ele><time>2015-2-3T0:24:2Z</time></trkpt>
<trkpt lat="45.507672345265746" lon="5.512763801962137"><ele></ele><time>2015-2-3T0:24:5Z</time></trkpt>
<trkpt lat="45.50740135833621" lon="5.512239765375853"><ele></ele><time>2015-2-3T0:24:8Z</time></trkpt>
<trkpt lat="45.507106985896826" lon="5.511659234762192"><ele></ele><time>2015-2-3T0:24:11Z</time></trkpt>
<trkpt lat="45.506822839379311" lon="5.511094462126494"><ele></ele><time>2015-2-3T0:24:14Z</time></trkpt>
<trkpt lat="45.506542129442096" lon="5.510542346164584"><ele></ele><time>2015-2-3T0:24:17Z</time></trkpt>
<trkpt lat="45.506288995966315" lon="5.509958462789655"><ele></ele><time>2015-2-3T0:24:20Z</time></trkpt>
<trkpt lat="45.506056901067495" lon="5.509316325187683"><ele></ele><time>2015-2-3T0:24:23Z</time></trkpt>
<trkpt lat="45.505847269669175" lon="5.508738728240132"><ele></ele><time>2015-2-3T0:24:26Z</time></trkpt>
<trkpt lat="45.505597991868854" lon="5.508116623386741"><ele></ele><time>2015-2-3T0:24:29Z</time></trkpt>
<trkpt lat="45.505371764302254" lon="5.507544642314315"><ele></ele><time>2015-2-3T0:24:32Z</time></trkpt>
<trkpt lat="45.505112512037158" lon="5.506936702877283"><ele></ele><time>2015-2-3T0:24:35Z</time></trkpt>
<trkpt lat="45.504825934767723" lon="5.506378971040249"><ele></ele><time>2015-2-3T0:24:38Z</time></trkpt>
<trkpt lat="45.504526449367404" lon="5.505808079615235"><ele></ele><time>2015-2-3T0:24:41Z</time></trkpt>
<trkpt lat="45.504267197102308" lon="5.505284881219268"><ele></ele><time>2015-2-3T0:24:44Z</time></trkpt>
<trkpt lat="45.50398682244122" lon="5.504763359203935"><ele></ele><time>2015-2-3T0:24:47Z</time></trkpt>
<trkpt lat="45.503702089190483" lon="5.504229599609971"><ele></ele><time>2015-2-3T0:24:50Z</time></trkpt>
<trkpt lat="45.503428503870964" lon="5.503643453121185"><ele></ele><time>2015-2-3T0:24:53Z</time></trkpt>
<trkpt lat="45.503186769783497" lon="5.503032244741917"><ele></ele><time>2015-2-3T0:24:56Z</time></trkpt>
<trkpt lat="45.502946628257632" lon="5.502395974472165"><ele></ele><time>2015-2-3T0:24:59Z</time></trkpt>
<trkpt lat="45.502736661583185" lon="5.501797087490559"><ele></ele><time>2015-2-3T0:25:2Z</time></trkpt>
<trkpt lat="45.502515630796552" lon="5.501210438087583"><ele></ele><time>2015-2-3T0:25:5Z</time></trkpt>
<trkpt lat="45.502299629151821" lon="5.500643150880933"><ele></ele><time>2015-2-3T0:25:8Z</time></trkpt>
<trkpt lat="45.502072228118777" lon="5.500040156766772"><ele></ele><time>2015-2-3T0:25:11Z</time></trkpt>
<trkpt lat="45.501850862056017" lon="5.499446131289005"><ele></ele><time>2015-2-3T0:25:14Z</time></trkpt>
<trkpt lat="45.50162429921329" lon="5.498862667009234"><ele></ele><time>2015-2-3T0:25:17Z</time></trkpt>
<trkpt lat="45.50137996673584" lon="5.498247100040317"><ele></ele><time>2015-2-3T0:25:20Z</time></trkpt>
<trkpt lat="45.501091126352549" lon="5.497719291597605"><ele></ele><time>2015-2-3T0:25:23Z</time></trkpt>
<trkpt lat="45.500776721164584" lon="5.497240852564573"><ele></ele><time>2015-2-3T0:25:26Z</time></trkpt>
<trkpt lat="45.500467764213681" lon="5.496745985001326"><ele></ele><time>2015-2-3T0:25:29Z</time></trkpt>
<trkpt lat="45.500125447288156" lon="5.496196802705526"><ele></ele><time>2015-2-3T0:25:32Z</time></trkpt>
<trkpt lat="45.499796876683831" lon="5.495685338973999"><ele></ele><time>2015-2-3T0:25:35Z</time></trkpt>
<trkpt lat="45.499488255009055" lon="5.49518016166985"><ele></ele><time>2015-2-3T0:25:38Z</time></trkpt>
<trkpt lat="45.499105369672179" lon="5.494658555835486"><ele></ele><time>2015-2-3T0:25:41Z</time></trkpt>
<trkpt lat="45.498719550669193" lon="5.494175003841519"><ele></ele><time>2015-2-3T0:25:44Z</time></trkpt>
<trkpt lat="45.498390141874552" lon="5.493668736889958"><ele></ele><time>2015-2-3T0:25:47Z</time></trkpt>
<trkpt lat="45.498110353946686" lon="5.493146209046245"><ele></ele><time>2015-2-3T0:25:50Z</time></trkpt>
<trkpt lat="45.497817993164063" lon="5.49257087521255"><ele></ele><time>2015-2-3T0:25:53Z</time></trkpt>
<trkpt lat="45.497523956000805" lon="5.492004007101059"><ele></ele><time>2015-2-3T0:25:56Z</time></trkpt>
<trkpt lat="45.497223883867264" lon="5.491415681317449"><ele></ele><time>2015-2-3T0:25:59Z</time></trkpt>
<trkpt lat="45.496943593025208" lon="5.490882759913802"><ele></ele><time>2015-2-3T0:26:2Z</time></trkpt>
<trkpt lat="45.496667744591832" lon="5.490349000319839"><ele></ele><time>2015-2-3T0:26:5Z</time></trkpt>
<trkpt lat="45.496350741013885" lon="5.489741563796997"><ele></ele><time>2015-2-3T0:26:8Z</time></trkpt>
<trkpt lat="45.496067013591528" lon="5.489193303510547"><ele></ele><time>2015-2-3T0:26:11Z</time></trkpt>
<trkpt lat="45.495758643373847" lon="5.488703968003392"><ele></ele><time>2015-2-3T0:26:14Z</time></trkpt>
<trkpt lat="45.495430994778872" lon="5.488254614174366"><ele></ele><time>2015-2-3T0:26:17Z</time></trkpt>
<trkpt lat="45.495074260979891" lon="5.487796626985073"><ele></ele><time>2015-2-3T0:26:20Z</time></trkpt>
<trkpt lat="45.494733788073063" lon="5.487362192943692"><ele></ele><time>2015-2-3T0:26:23Z</time></trkpt>
<trkpt lat="45.494387531653047" lon="5.486901439726353"><ele></ele><time>2015-2-3T0:26:26Z</time></trkpt>
<trkpt lat="45.494044879451394" lon="5.48647572286427"><ele></ele><time>2015-2-3T0:26:29Z</time></trkpt>
<trkpt lat="45.493693258613348" lon="5.486024189740419"><ele></ele><time>2015-2-3T0:26:32Z</time></trkpt>
<trkpt lat="45.493326550349593" lon="5.485553462058306"><ele></ele><time>2015-2-3T0:26:35Z</time></trkpt>
<trkpt lat="45.492969481274486" lon="5.485097151249647"><ele></ele><time>2015-2-3T0:26:38Z</time></trkpt>
<trkpt lat="45.492587685585022" lon="5.484609324485064"><ele></ele><time>2015-2-3T0:26:41Z</time></trkpt>
<trkpt lat="45.492212092503905" lon="5.484118815511465"><ele></ele><time>2015-2-3T0:26:44Z</time></trkpt>
<trkpt lat="45.491865752264857" lon="5.48366610892117"><ele></ele><time>2015-2-3T0:26:47Z</time></trkpt>
<trkpt lat="45.491473814472556" lon="5.483157578855753"><ele></ele><time>2015-2-3T0:26:50Z</time></trkpt>
<trkpt lat="45.491105178371072" lon="5.482689198106527"><ele></ele><time>2015-2-3T0:26:53Z</time></trkpt>
<trkpt lat="45.490759927779436" lon="5.482237245887518"><ele></ele><time>2015-2-3T0:26:56Z</time></trkpt>
<trkpt lat="45.490396907553077" lon="5.481784455478191"><ele></ele><time>2015-2-3T0:26:59Z</time></trkpt>
<trkpt lat="45.490007987245917" lon="5.481349267065525"><ele></ele><time>2015-2-3T0:27:2Z</time></trkpt>
<trkpt lat="45.489587718620896" lon="5.48095079138875"><ele></ele><time>2015-2-3T0:27:5Z</time></trkpt>
<trkpt lat="45.489182705059648" lon="5.480577209964395"><ele></ele><time>2015-2-3T0:27:8Z</time></trkpt>
<trkpt lat="45.488780960440636" lon="5.480192480608821"><ele></ele><time>2015-2-3T0:27:11Z</time></trkpt>
<trkpt lat="45.488391034305096" lon="5.47982694581151"><ele></ele><time>2015-2-3T0:27:14Z</time></trkpt>
<trkpt lat="45.487944697961211" lon="5.4794199205935"><ele></ele><time>2015-2-3T0:27:17Z</time></trkpt>
<trkpt lat="45.487587042152882" lon="5.479034101590514"><ele></ele><time>2015-2-3T0:27:20Z</time></trkpt>
<trkpt lat="45.487228715792298" lon="5.478582819923759"><ele></ele><time>2015-2-3T0:27:23Z</time></trkpt>
<trkpt lat="45.486867539584637" lon="5.478153666481376"><ele></ele><time>2015-2-3T0:27:26Z</time></trkpt>
<trkpt lat="45.486479038372636" lon="5.47771361656487"><ele></ele><time>2015-2-3T0:27:29Z</time></trkpt>
<trkpt lat="45.486155496910214" lon="5.477237859740853"><ele></ele><time>2015-2-3T0:27:32Z</time></trkpt>
<trkpt lat="45.485871685668826" lon="5.476731844246388"><ele></ele><time>2015-2-3T0:27:35Z</time></trkpt>
<trkpt lat="45.48558846116066" lon="5.47623454593122"><ele></ele><time>2015-2-3T0:27:38Z</time></trkpt>
<trkpt lat="45.485260561108589" lon="5.475746300071478"><ele></ele><time>2015-2-3T0:27:41Z</time></trkpt>
<trkpt lat="45.484880022704601" lon="5.475330390036106"><ele></ele><time>2015-2-3T0:27:44Z</time></trkpt>
<trkpt lat="45.484560756012797" lon="5.474855303764343"><ele></ele><time>2015-2-3T0:27:47Z</time></trkpt>
<trkpt lat="45.484165130183101" lon="5.474521871656179"><ele></ele><time>2015-2-3T0:27:50Z</time></trkpt>
<trkpt lat="45.483833542093635" lon="5.47404645010829"><ele></ele><time>2015-2-3T0:27:53Z</time></trkpt>
<trkpt lat="45.483493488281965" lon="5.473518809303641"><ele></ele><time>2015-2-3T0:27:56Z</time></trkpt>
<trkpt lat="45.48316634260118" lon="5.473049087449908"><ele></ele><time>2015-2-3T0:27:59Z</time></trkpt>
<trkpt lat="45.482827629894018" lon="5.472545418888331"><ele></ele><time>2015-2-3T0:28:2Z</time></trkpt>
<trkpt lat="45.482498975470662" lon="5.472054490819573"><ele></ele><time>2015-2-3T0:28:5Z</time></trkpt>
<trkpt lat="45.482153305783868" lon="5.471634054556489"><ele></ele><time>2015-2-3T0:28:8Z</time></trkpt>
<trkpt lat="45.481777042150497" lon="5.47120850533247"><ele></ele><time>2015-2-3T0:28:11Z</time></trkpt>
<trkpt lat="45.481402957811952" lon="5.470796953886747"><ele></ele><time>2015-2-3T0:28:14Z</time></trkpt>
<trkpt lat="45.481015713885427" lon="5.470370398834348"><ele></ele><time>2015-2-3T0:28:17Z</time></trkpt>
<trkpt lat="45.480640204623342" lon="5.469946274533868"><ele></ele><time>2015-2-3T0:28:20Z</time></trkpt>
<trkpt lat="45.480236448347569" lon="5.469488454982638"><ele></ele><time>2015-2-3T0:28:23Z</time></trkpt>
<trkpt lat="45.479838475584984" lon="5.469075227156282"><ele></ele><time>2015-2-3T0:28:26Z</time></trkpt>
<trkpt lat="45.479406723752618" lon="5.46863341704011"><ele></ele><time>2015-2-3T0:28:29Z</time></trkpt>
<trkpt lat="45.479011600837111" lon="5.468241227790713"><ele></ele><time>2015-2-3T0:28:32Z</time></trkpt>
<trkpt lat="45.478597870096564" lon="5.467811152338982"><ele></ele><time>2015-2-3T0:28:35Z</time></trkpt>
<trkpt lat="45.47817156650126" lon="5.467382166534662"><ele></ele><time>2015-2-3T0:28:38Z</time></trkpt>
<trkpt lat="45.47777091152966" lon="5.466966005042195"><ele></ele><time>2015-2-3T0:28:41Z</time></trkpt>
<trkpt lat="45.477340836077929" lon="5.466527212411165"><ele></ele><time>2015-2-3T0:28:44Z</time></trkpt>
<trkpt lat="45.476957866922021" lon="5.466119181364775"><ele></ele><time>2015-2-3T0:28:47Z</time></trkpt>
<trkpt lat="45.476608760654926" lon="5.465630013495684"><ele></ele><time>2015-2-3T0:28:50Z</time></trkpt>
<trkpt lat="45.47629083506763" lon="5.465098265558481"><ele></ele><time>2015-2-3T0:28:53Z</time></trkpt>
<trkpt lat="45.475993948057294" lon="5.464598871767521"><ele></ele><time>2015-2-3T0:28:56Z</time></trkpt>
<trkpt lat="45.475687086582184" lon="5.46410190872848"><ele></ele><time>2015-2-3T0:28:59Z</time></trkpt>
<trkpt lat="45.47536538913846" lon="5.463589439168572"><ele></ele><time>2015-2-3T0:29:2Z</time></trkpt>
<trkpt lat="45.475040674209595" lon="5.463076215237379"><ele></ele><time>2015-2-3T0:29:5Z</time></trkpt>
<trkpt lat="45.474716043099761" lon="5.462555699050427"><ele></ele><time>2015-2-3T0:29:8Z</time></trkpt>
<trkpt lat="45.474413456395268" lon="5.462061166763306"><ele></ele><time>2015-2-3T0:29:11Z</time></trkpt>
<trkpt lat="45.474107097834349" lon="5.461577363312244"><ele></ele><time>2015-2-3T0:29:14Z</time></trkpt>
<trkpt lat="45.473775090649724" lon="5.461052572354674"><ele></ele><time>2015-2-3T0:29:17Z</time></trkpt>
<trkpt lat="45.473464373499155" lon="5.46053683385253"><ele></ele><time>2015-2-3T0:29:20Z</time></trkpt>
<trkpt lat="45.473141670227051" lon="5.46001841314137"><ele></ele><time>2015-2-3T0:29:23Z</time></trkpt>
<trkpt lat="45.4728127643466" lon="5.459491526708007"><ele></ele><time>2015-2-3T0:29:26Z</time></trkpt>
<trkpt lat="45.472480002790689" lon="5.458961622789502"><ele></ele><time>2015-2-3T0:29:29Z</time></trkpt>
<trkpt lat="45.472177835181355" lon="5.458471868187189"><ele></ele><time>2015-2-3T0:29:32Z</time></trkpt>
<trkpt lat="45.47185655683279" lon="5.457995943725109"><ele></ele><time>2015-2-3T0:29:35Z</time></trkpt>
<trkpt lat="45.471434108912945" lon="5.457661421969533"><ele></ele><time>2015-2-3T0:29:38Z</time></trkpt>
<trkpt lat="45.470961537212133" lon="5.457452461123467"><ele></ele><time>2015-2-3T0:29:41Z</time></trkpt>
<trkpt lat="45.470495922490954" lon="5.4572435002774"><ele></ele><time>2015-2-3T0:29:44Z</time></trkpt>
<trkpt lat="45.470064673572779" lon="5.457047531381249"><ele></ele><time>2015-2-3T0:29:47Z</time></trkpt>
<trkpt lat="45.469623701646924" lon="5.456850891932845"><ele></ele><time>2015-2-3T0:29:50Z</time></trkpt>
<trkpt lat="45.46916319988668" lon="5.456659616902471"><ele></ele><time>2015-2-3T0:29:53Z</time></trkpt>
<trkpt lat="45.468725329264998" lon="5.456453841179609"><ele></ele><time>2015-2-3T0:29:56Z</time></trkpt>
<trkpt lat="45.468263905495405" lon="5.456249574199319"><ele></ele><time>2015-2-3T0:29:59Z</time></trkpt>
<trkpt lat="45.467818407341838" lon="5.456050084903836"><ele></ele><time>2015-2-3T0:30:2Z</time></trkpt>
<trkpt lat="45.467386152595282" lon="5.455867778509855"><ele></ele><time>2015-2-3T0:30:5Z</time></trkpt>
<trkpt lat="45.466931015253067" lon="5.455669965595007"><ele></ele><time>2015-2-3T0:30:8Z</time></trkpt>
<trkpt lat="45.466491635888815" lon="5.45548003166914"><ele></ele><time>2015-2-3T0:30:11Z</time></trkpt>
<trkpt lat="45.466034989804029" lon="5.455275429412723"><ele></ele><time>2015-2-3T0:30:14Z</time></trkpt>
<trkpt lat="45.465568117797375" lon="5.455088429152966"><ele></ele><time>2015-2-3T0:30:17Z</time></trkpt>
<trkpt lat="45.465095713734627" lon="5.454904865473509"><ele></ele><time>2015-2-3T0:30:20Z</time></trkpt>
<trkpt lat="45.464621465653181" lon="5.454718703404069"><ele></ele><time>2015-2-3T0:30:23Z</time></trkpt>
<trkpt lat="45.464179236441851" lon="5.454541258513928"><ele></ele><time>2015-2-3T0:30:26Z</time></trkpt>
<trkpt lat="45.463708424940705" lon="5.454360796138644"><ele></ele><time>2015-2-3T0:30:29Z</time></trkpt>
<trkpt lat="45.463259406387806" lon="5.454180333763361"><ele></ele><time>2015-2-3T0:30:32Z</time></trkpt>
<trkpt lat="45.462789265438914" lon="5.453987717628479"><ele></ele><time>2015-2-3T0:30:35Z</time></trkpt>
<trkpt lat="45.462333206087351" lon="5.453808009624481"><ele></ele><time>2015-2-3T0:30:38Z</time></trkpt>
<trkpt lat="45.461879577487707" lon="5.453622518107295"><ele></ele><time>2015-2-3T0:30:41Z</time></trkpt>
<trkpt lat="45.461432235315442" lon="5.453441049903631"><ele></ele><time>2015-2-3T0:30:44Z</time></trkpt>
<trkpt lat="45.461000902578235" lon="5.453270394355059"><ele></ele><time>2015-2-3T0:30:47Z</time></trkpt>
<trkpt lat="45.460553225129843" lon="5.453092446550727"><ele></ele><time>2015-2-3T0:30:50Z</time></trkpt>
<trkpt lat="45.460101021453738" lon="5.452871918678284"><ele></ele><time>2015-2-3T0:30:53Z</time></trkpt>
<trkpt lat="45.459666587412357" lon="5.452588526532054"><ele></ele><time>2015-2-3T0:30:56Z</time></trkpt>
<trkpt lat="45.459182867780328" lon="5.452287197113037"><ele></ele><time>2015-2-3T0:30:59Z</time></trkpt>
<trkpt lat="45.458735777065158" lon="5.451999949291349"><ele></ele><time>2015-2-3T0:31:2Z</time></trkpt>
<trkpt lat="45.458260858431458" lon="5.451707504689694"><ele></ele><time>2015-2-3T0:31:5Z</time></trkpt>
<trkpt lat="45.457807816565037" lon="5.451426627114415"><ele></ele><time>2015-2-3T0:31:8Z</time></trkpt>
<trkpt lat="45.457374136894941" lon="5.451158070936799"><ele></ele><time>2015-2-3T0:31:11Z</time></trkpt>
<trkpt lat="45.456883627921343" lon="5.450862357392907"><ele></ele><time>2015-2-3T0:31:14Z</time></trkpt>
<trkpt lat="45.456436537206173" lon="5.450574355199933"><ele></ele><time>2015-2-3T0:31:17Z</time></trkpt>
<trkpt lat="45.45602498576045" lon="5.45031619258225"><ele></ele><time>2015-2-3T0:31:20Z</time></trkpt>
<trkpt lat="45.455603962764144" lon="5.450045540928841"><ele></ele><time>2015-2-3T0:31:23Z</time></trkpt>
<trkpt lat="45.45515226200223" lon="5.449756784364581"><ele></ele><time>2015-2-3T0:31:26Z</time></trkpt>
<trkpt lat="45.454704752191901" lon="5.449462747201324"><ele></ele><time>2015-2-3T0:31:29Z</time></trkpt>
<trkpt lat="45.454286830499768" lon="5.449199974536896"><ele></ele><time>2015-2-3T0:31:32Z</time></trkpt>
<trkpt lat="45.453847367316484" lon="5.448928819969297"><ele></ele><time>2015-2-3T0:31:35Z</time></trkpt>
<trkpt lat="45.453430116176605" lon="5.448660766705871"><ele></ele><time>2015-2-3T0:31:38Z</time></trkpt>
<trkpt lat="45.45299886725843" lon="5.448379134759307"><ele></ele><time>2015-2-3T0:31:41Z</time></trkpt>
<trkpt lat="45.452573234215379" lon="5.448107980191708"><ele></ele><time>2015-2-3T0:31:44Z</time></trkpt>
<trkpt lat="45.45212279073894" lon="5.447823833674192"><ele></ele><time>2015-2-3T0:31:47Z</time></trkpt>
<trkpt lat="45.451718447729945" lon="5.447483528405428"><ele></ele><time>2015-2-3T0:31:50Z</time></trkpt>
<trkpt lat="45.451316451653838" lon="5.447092093527317"><ele></ele><time>2015-2-3T0:31:53Z</time></trkpt>
<trkpt lat="45.450935158878565" lon="5.446700742468238"><ele></ele><time>2015-2-3T0:31:56Z</time></trkpt>
<trkpt lat="45.450523355975747" lon="5.446369489654899"><ele></ele><time>2015-2-3T0:31:59Z</time></trkpt>
<trkpt lat="45.450071403756738" lon="5.446218112483621"><ele></ele><time>2015-2-3T0:32:2Z</time></trkpt>
<trkpt lat="45.449611907824874" lon="5.446080649271607"><ele></ele><time>2015-2-3T0:32:5Z</time></trkpt>
<trkpt lat="45.449155429378152" lon="5.445933882147074"><ele></ele><time>2015-2-3T0:32:8Z</time></trkpt>
<trkpt lat="45.448705740272999" lon="5.445759706199169"><ele></ele><time>2015-2-3T0:32:11Z</time></trkpt>
<trkpt lat="45.448266863822937" lon="5.445586452260613"><ele></ele><time>2015-2-3T0:32:14Z</time></trkpt>
<trkpt lat="45.44780183583498" lon="5.445471871644259"><ele></ele><time>2015-2-3T0:32:17Z</time></trkpt>
<trkpt lat="45.447329515591264" lon="5.44541378505528"><ele></ele><time>2015-2-3T0:32:20Z</time></trkpt>
<trkpt lat="45.446861386299133" lon="5.445421831682324"><ele></ele><time>2015-2-3T0:32:23Z</time></trkpt>
<trkpt lat="45.44640482403338" lon="5.445515792816877"><ele></ele><time>2015-2-3T0:32:26Z</time></trkpt>
<trkpt lat="45.445964019745588" lon="5.445712516084313"><ele></ele><time>2015-2-3T0:32:29Z</time></trkpt>
<trkpt lat="45.445551043376327" lon="5.446057682856917"><ele></ele><time>2015-2-3T0:32:32Z</time></trkpt>
<trkpt lat="45.445176120847464" lon="5.446444507688284"><ele></ele><time>2015-2-3T0:32:35Z</time></trkpt>
<trkpt lat="45.444879988208413" lon="5.446938117966056"><ele></ele><time>2015-2-3T0:32:38Z</time></trkpt>
<trkpt lat="45.444620735943317" lon="5.447483947500587"><ele></ele><time>2015-2-3T0:32:41Z</time></trkpt>
<trkpt lat="45.444410517811775" lon="5.448058526962996"><ele></ele><time>2015-2-3T0:32:44Z</time></trkpt>
<trkpt lat="45.444167694076896" lon="5.448599997907877"><ele></ele><time>2015-2-3T0:32:47Z</time></trkpt>
<trkpt lat="45.443908274173737" lon="5.449127471074462"><ele></ele><time>2015-2-3T0:32:50Z</time></trkpt>
<trkpt lat="45.443603424355388" lon="5.449600461870432"><ele></ele><time>2015-2-3T0:32:53Z</time></trkpt>
<trkpt lat="45.443347524851561" lon="5.449251439422369"><ele></ele><time>2015-2-3T0:32:56Z</time></trkpt>
<trkpt lat="45.443240068852901" lon="5.448629837483168"><ele></ele><time>2015-2-3T0:32:59Z</time></trkpt>
<trkpt lat="45.442936141043901" lon="5.448153745383024"><ele></ele><time>2015-2-3T0:33:2Z</time></trkpt>
<trkpt lat="45.442736400291324" lon="5.447576902806759"><ele></ele><time>2015-2-3T0:33:5Z</time></trkpt>
<trkpt lat="45.442483518272638" lon="5.447032079100609"><ele></ele><time>2015-2-3T0:33:8Z</time></trkpt>
<trkpt lat="45.442161904647946" lon="5.446589011698961"><ele></ele><time>2015-2-3T0:33:11Z</time></trkpt>
<trkpt lat="45.441828221082687" lon="5.446090456098318"><ele></ele><time>2015-2-3T0:33:14Z</time></trkpt>
<trkpt lat="45.441581457853317" lon="5.445503136143088"><ele></ele><time>2015-2-3T0:33:17Z</time></trkpt>
<trkpt lat="45.441361097618937" lon="5.444925958290696"><ele></ele><time>2015-2-3T0:33:20Z</time></trkpt>
<trkpt lat="45.441020121797919" lon="5.44449957087636"><ele></ele><time>2015-2-3T0:33:23Z</time></trkpt>
<trkpt lat="45.440623909235001" lon="5.444155912846327"><ele></ele><time>2015-2-3T0:33:26Z</time></trkpt>
<trkpt lat="45.440203389152884" lon="5.44392348267138"><ele></ele><time>2015-2-3T0:33:29Z</time></trkpt>
<trkpt lat="45.439716149121523" lon="5.443795071914792"><ele></ele><time>2015-2-3T0:33:32Z</time></trkpt>
<trkpt lat="45.439252881333232" lon="5.443726843222976"><ele></ele><time>2015-2-3T0:33:35Z</time></trkpt>
<trkpt lat="45.438777375966311" lon="5.443686442449689"><ele></ele><time>2015-2-3T0:33:38Z</time></trkpt>
<trkpt lat="45.438314778730273" lon="5.443669259548187"><ele></ele><time>2015-2-3T0:33:41Z</time></trkpt>
<trkpt lat="45.437842290848494" lon="5.443698680028319"><ele></ele><time>2015-2-3T0:33:44Z</time></trkpt>
<trkpt lat="45.437398469075561" lon="5.4437998495996"><ele></ele><time>2015-2-3T0:33:47Z</time></trkpt>
<trkpt lat="45.436936877667904" lon="5.44376028701663"><ele></ele><time>2015-2-3T0:33:50Z</time></trkpt>
<trkpt lat="45.436516357585788" lon="5.444032531231642"><ele></ele><time>2015-2-3T0:33:53Z</time></trkpt>
<trkpt lat="45.436146715655923" lon="5.444455565884709"><ele></ele><time>2015-2-3T0:33:56Z</time></trkpt>
<trkpt lat="45.435801297426224" lon="5.444867787882686"><ele></ele><time>2015-2-3T0:33:59Z</time></trkpt>
<trkpt lat="45.435370467603207" lon="5.445081191137433"><ele></ele><time>2015-2-3T0:34:2Z</time></trkpt>
<trkpt lat="45.434969058260322" lon="5.445362320169807"><ele></ele><time>2015-2-3T0:34:5Z</time></trkpt>
<trkpt lat="45.434576533734798" lon="5.445724418386817"><ele></ele><time>2015-2-3T0:34:8Z</time></trkpt>
<trkpt lat="45.434199851006269" lon="5.446058437228203"><ele></ele><time>2015-2-3T0:34:11Z</time></trkpt>
<trkpt lat="45.433797854930162" lon="5.446453643962741"><ele></ele><time>2015-2-3T0:34:14Z</time></trkpt>
<trkpt lat="45.433446737006307" lon="5.446854718029499"><ele></ele><time>2015-2-3T0:34:17Z</time></trkpt>
<trkpt lat="45.433208690956235" lon="5.44741035439074"><ele></ele><time>2015-2-3T0:34:20Z</time></trkpt>
<trkpt lat="45.433042058721185" lon="5.448024077340961"><ele></ele><time>2015-2-3T0:34:23Z</time></trkpt>
<trkpt lat="45.432630674913526" lon="5.448339991271496"><ele></ele><time>2015-2-3T0:34:26Z</time></trkpt>
<trkpt lat="45.432195821776986" lon="5.448628580197692"><ele></ele><time>2015-2-3T0:34:29Z</time></trkpt>
<trkpt lat="45.431767422705889" lon="5.448890263214707"><ele></ele><time>2015-2-3T0:34:32Z</time></trkpt>
<trkpt lat="45.431333240121603" lon="5.448791272938252"><ele></ele><time>2015-2-3T0:34:35Z</time></trkpt>
<trkpt lat="45.430884137749672" lon="5.448567559942603"><ele></ele><time>2015-2-3T0:34:38Z</time></trkpt>
<trkpt lat="45.430425312370062" lon="5.448503270745277"><ele></ele><time>2015-2-3T0:34:41Z</time></trkpt>
<trkpt lat="45.429956847801805" lon="5.448562949895859"><ele></ele><time>2015-2-3T0:34:44Z</time></trkpt>
<trkpt lat="45.429473798722029" lon="5.448627071455121"><ele></ele><time>2015-2-3T0:34:47Z</time></trkpt>
<trkpt lat="45.428988737985492" lon="5.448735449463129"><ele></ele><time>2015-2-3T0:34:50Z</time></trkpt>
<trkpt lat="45.428538965061307" lon="5.448823794722557"><ele></ele><time>2015-2-3T0:34:53Z</time></trkpt>
<trkpt lat="45.428080223500729" lon="5.448778280988336"><ele></ele><time>2015-2-3T0:34:56Z</time></trkpt>
<trkpt lat="45.427607819437981" lon="5.448644254356623"><ele></ele><time>2015-2-3T0:34:59Z</time></trkpt>
<trkpt lat="45.427126865833998" lon="5.448544509708881"><ele></ele><time>2015-2-3T0:35:2Z</time></trkpt>
<trkpt lat="45.426663011312485" lon="5.448506623506546"><ele></ele><time>2015-2-3T0:35:5Z</time></trkpt>
<trkpt lat="45.426236120983958" lon="5.448807952925563"><ele></ele><time>2015-2-3T0:35:8Z</time></trkpt>
<trkpt lat="45.425820546224713" lon="5.449052285403013"><ele></ele><time>2015-2-3T0:35:11Z</time></trkpt>
<trkpt lat="45.42535861954093" lon="5.449161920696497"><ele></ele><time>2015-2-3T0:35:14Z</time></trkpt>
<trkpt lat="45.424870206043124" lon="5.44929007999599"><ele></ele><time>2015-2-3T0:35:17Z</time></trkpt>
<trkpt lat="45.424405010417104" lon="5.449566598981619"><ele></ele><time>2015-2-3T0:35:20Z</time></trkpt>
<trkpt lat="45.424008127301931" lon="5.449908580631018"><ele></ele><time>2015-2-3T0:35:23Z</time></trkpt>
<trkpt lat="45.423581153154373" lon="5.450125336647034"><ele></ele><time>2015-2-3T0:35:26Z</time></trkpt>
<trkpt lat="45.423147724941373" lon="5.450168251991272"><ele></ele><time>2015-2-3T0:35:29Z</time></trkpt>
<trkpt lat="45.422656629234552" lon="5.450358856469393"><ele></ele><time>2015-2-3T0:35:32Z</time></trkpt>
<trkpt lat="45.422228397801518" lon="5.450649624690414"><ele></ele><time>2015-2-3T0:35:35Z</time></trkpt>
<trkpt lat="45.421796981245279" lon="5.45100275427103"><ele></ele><time>2015-2-3T0:35:38Z</time></trkpt>
<trkpt lat="45.421427171677351" lon="5.451374826952815"><ele></ele><time>2015-2-3T0:35:41Z</time></trkpt>
<trkpt lat="45.420999443158507" lon="5.451725274324417"><ele></ele><time>2015-2-3T0:35:44Z</time></trkpt>
<trkpt lat="45.420603984966874" lon="5.452071111649275"><ele></ele><time>2015-2-3T0:35:47Z</time></trkpt>
<trkpt lat="45.420217243954539" lon="5.452404376119375"><ele></ele><time>2015-2-3T0:35:50Z</time></trkpt>
<trkpt lat="45.419825641438365" lon="5.452758595347405"><ele></ele><time>2015-2-3T0:35:53Z</time></trkpt>
<trkpt lat="45.419478630647063" lon="5.453192861750722"><ele></ele><time>2015-2-3T0:35:56Z</time></trkpt>
<trkpt lat="45.419212756678462" lon="5.453797616064549"><ele></ele><time>2015-2-3T0:35:59Z</time></trkpt>
<trkpt lat="45.418942356482148" lon="5.454445956274867"><ele></ele><time>2015-2-3T0:36:2Z</time></trkpt>
<trkpt lat="45.418689725920558" lon="5.455039646476507"><ele></ele><time>2015-2-3T0:36:5Z</time></trkpt>
<trkpt lat="45.418439609929919" lon="5.455663846805692"><ele></ele><time>2015-2-3T0:36:8Z</time></trkpt>
<trkpt lat="45.418177507817745" lon="5.456307325512171"><ele></ele><time>2015-2-3T0:36:11Z</time></trkpt>
<trkpt lat="45.41790752671659" lon="5.456931358203292"><ele></ele><time>2015-2-3T0:36:14Z</time></trkpt>
<trkpt lat="45.417560683563352" lon="5.457428907975555"><ele></ele><time>2015-2-3T0:36:17Z</time></trkpt>
<trkpt lat="45.417155334725976" lon="5.457917405292392"><ele></ele><time>2015-2-3T0:36:20Z</time></trkpt>
<trkpt lat="45.416774544864893" lon="5.458391401916742"><ele></ele><time>2015-2-3T0:36:23Z</time></trkpt>
<trkpt lat="45.416390569880605" lon="5.458862213417888"><ele></ele><time>2015-2-3T0:36:26Z</time></trkpt>
<trkpt lat="45.416001062840223" lon="5.459346184507012"><ele></ele><time>2015-2-3T0:36:29Z</time></trkpt>
<trkpt lat="45.415610298514366" lon="5.45981171540916"><ele></ele><time>2015-2-3T0:36:32Z</time></trkpt>
<trkpt lat="45.415217271074653" lon="5.460297530516982"><ele></ele><time>2015-2-3T0:36:35Z</time></trkpt>
<trkpt lat="45.414816280826926" lon="5.460786111652851"><ele></ele><time>2015-2-3T0:36:38Z</time></trkpt>
<trkpt lat="45.414422247558832" lon="5.461275447160006"><ele></ele><time>2015-2-3T0:36:41Z</time></trkpt>
<trkpt lat="45.413994686678052" lon="5.461733266711235"><ele></ele><time>2015-2-3T0:36:44Z</time></trkpt>
<trkpt lat="45.413536448031664" lon="5.462116906419396"><ele></ele><time>2015-2-3T0:36:47Z</time></trkpt>
<trkpt lat="45.41307452134788" lon="5.462491661310196"><ele></ele><time>2015-2-3T0:36:50Z</time></trkpt>
<trkpt lat="45.412612846121192" lon="5.462870439514518"><ele></ele><time>2015-2-3T0:36:53Z</time></trkpt>
<trkpt lat="45.412158044055104" lon="5.463232537731528"><ele></ele><time>2015-2-3T0:36:56Z</time></trkpt>
<trkpt lat="45.411694860085845" lon="5.463566891849041"><ele></ele><time>2015-2-3T0:36:59Z</time></trkpt>
<trkpt lat="45.411218767985702" lon="5.463793957605958"><ele></ele><time>2015-2-3T0:37:2Z</time></trkpt>
<trkpt lat="45.41074275970459" lon="5.463968301191926"><ele></ele><time>2015-2-3T0:37:5Z</time></trkpt>
<trkpt lat="45.410237750038505" lon="5.464157816022635"><ele></ele><time>2015-2-3T0:37:8Z</time></trkpt>
<trkpt lat="45.409799879416823" lon="5.464314222335815"><ele></ele><time>2015-2-3T0:37:11Z</time></trkpt>
<trkpt lat="45.409280201420188" lon="5.464508179575205"><ele></ele><time>2015-2-3T0:37:14Z</time></trkpt>
<trkpt lat="45.408764462918043" lon="5.464623849838972"><ele></ele><time>2015-2-3T0:37:17Z</time></trkpt>
<trkpt lat="45.408240929245949" lon="5.464688893407583"><ele></ele><time>2015-2-3T0:37:20Z</time></trkpt>
<trkpt lat="45.407712366431952" lon="5.464766677469015"><ele></ele><time>2015-2-3T0:37:23Z</time></trkpt>
<trkpt lat="45.407241638749838" lon="5.464826440438628"><ele></ele><time>2015-2-3T0:37:26Z</time></trkpt>
<trkpt lat="45.406760098412633" lon="5.464815376326442"><ele></ele><time>2015-2-3T0:37:29Z</time></trkpt>
<trkpt lat="45.406269337981939" lon="5.46474589034915"><ele></ele><time>2015-2-3T0:37:32Z</time></trkpt>
<trkpt lat="45.40579148568213" lon="5.464667519554496"><ele></ele><time>2015-2-3T0:37:35Z</time></trkpt>
<trkpt lat="45.405309358611703" lon="5.464598704129458"><ele></ele><time>2015-2-3T0:37:38Z</time></trkpt>
<trkpt lat="45.404842654243112" lon="5.464681433513761"><ele></ele><time>2015-2-3T0:37:41Z</time></trkpt>
<trkpt lat="45.404396401718259" lon="5.46488955616951"><ele></ele><time>2015-2-3T0:37:44Z</time></trkpt>
<trkpt lat="45.403894660994411" lon="5.465131122618914"><ele></ele><time>2015-2-3T0:37:47Z</time></trkpt>
<trkpt lat="45.403404319658875" lon="5.4653649777174"><ele></ele><time>2015-2-3T0:37:50Z</time></trkpt>
<trkpt lat="45.402976423501968" lon="5.465579554438591"><ele></ele><time>2015-2-3T0:37:53Z</time></trkpt>
<trkpt lat="45.402539139613509" lon="5.465773763135076"><ele></ele><time>2015-2-3T0:37:56Z</time></trkpt>
<trkpt lat="45.402110321447253" lon="5.465980041772127"><ele></ele><time>2015-2-3T0:37:59Z</time></trkpt>
<trkpt lat="45.401632050052285" lon="5.466206185519695"><ele></ele><time>2015-2-3T0:38:2Z</time></trkpt>
<trkpt lat="45.401190491393209" lon="5.466419672593474"><ele></ele><time>2015-2-3T0:38:5Z</time></trkpt>
<trkpt lat="45.400795619934797" lon="5.4667326528579"><ele></ele><time>2015-2-3T0:38:8Z</time></trkpt>
<trkpt lat="45.40050745010376" lon="5.467242524027824"><ele></ele><time>2015-2-3T0:38:11Z</time></trkpt>
<trkpt lat="45.400064047425985" lon="5.467201033607125"><ele></ele><time>2015-2-3T0:38:14Z</time></trkpt>
<trkpt lat="45.399541268125176" lon="5.467142444103956"><ele></ele><time>2015-2-3T0:38:17Z</time></trkpt>
<trkpt lat="45.39903961122036" lon="5.467118304222822"><ele></ele><time>2015-2-3T0:38:20Z</time></trkpt>
<trkpt lat="45.398562764748931" lon="5.467082764953375"><ele></ele><time>2015-2-3T0:38:23Z</time></trkpt>
<trkpt lat="45.39808189496398" lon="5.467045800760388"><ele></ele><time>2015-2-3T0:38:26Z</time></trkpt>
<trkpt lat="45.397590715438128" lon="5.467033563181758"><ele></ele><time>2015-2-3T0:38:29Z</time></trkpt>
<trkpt lat="45.397094339132309" lon="5.467204134911299"><ele></ele><time>2015-2-3T0:38:32Z</time></trkpt>
<trkpt lat="45.396606596186757" lon="5.467512253671885"><ele></ele><time>2015-2-3T0:38:35Z</time></trkpt>
<trkpt lat="45.39618507027626" lon="5.467821713536978"><ele></ele><time>2015-2-3T0:38:38Z</time></trkpt>
<trkpt lat="45.39577117189765" lon="5.468165036290884"><ele></ele><time>2015-2-3T0:38:41Z</time></trkpt>
<trkpt lat="45.395384011790156" lon="5.468528224155307"><ele></ele><time>2015-2-3T0:38:44Z</time></trkpt>
<trkpt lat="45.3949966840446" lon="5.46888847835362"><ele></ele><time>2015-2-3T0:38:47Z</time></trkpt>
<trkpt lat="45.394632155075669" lon="5.469291564077139"><ele></ele><time>2015-2-3T0:38:50Z</time></trkpt>
<trkpt lat="45.394339961931109" lon="5.4697943944484"><ele></ele><time>2015-2-3T0:38:53Z</time></trkpt>
<trkpt lat="45.394119014963508" lon="5.470458576455712"><ele></ele><time>2015-2-3T0:38:56Z</time></trkpt>
<trkpt lat="45.393988424912095" lon="5.471164919435978"><ele></ele><time>2015-2-3T0:38:59Z</time></trkpt>
<trkpt lat="45.393884070217609" lon="5.471863551065326"><ele></ele><time>2015-2-3T0:39:2Z</time></trkpt>
<trkpt lat="45.393606461584568" lon="5.472359256818891"><ele></ele><time>2015-2-3T0:39:5Z</time></trkpt>
<trkpt lat="45.393364056944847" lon="5.472872396931052"><ele></ele><time>2015-2-3T0:39:8Z</time></trkpt>
<trkpt lat="45.392937082797289" lon="5.473137013614178"><ele></ele><time>2015-2-3T0:39:11Z</time></trkpt>
<trkpt lat="45.392450764775276" lon="5.473356451839209"><ele></ele><time>2015-2-3T0:39:14Z</time></trkpt>
<trkpt lat="45.392006272450089" lon="5.473523419350386"><ele></ele><time>2015-2-3T0:39:17Z</time></trkpt>
<trkpt lat="45.391544932499528" lon="5.473637161776424"><ele></ele><time>2015-2-3T0:39:20Z</time></trkpt>
<trkpt lat="45.391058782115579" lon="5.4737005289644"><ele></ele><time>2015-2-3T0:39:23Z</time></trkpt>
<trkpt lat="45.390559555962682" lon="5.473697679117322"><ele></ele><time>2015-2-3T0:39:26Z</time></trkpt>
<trkpt lat="45.390069801360369" lon="5.473715029656887"><ele></ele><time>2015-2-3T0:39:29Z</time></trkpt>
<trkpt lat="45.389588763937354" lon="5.473841009661555"><ele></ele><time>2015-2-3T0:39:32Z</time></trkpt>
<trkpt lat="45.389080820605159" lon="5.474003031849861"><ele></ele><time>2015-2-3T0:39:35Z</time></trkpt>
<trkpt lat="45.388588383793831" lon="5.474177794530988"><ele></ele><time>2015-2-3T0:39:38Z</time></trkpt>
<trkpt lat="45.388100640848279" lon="5.474407961592078"><ele></ele><time>2015-2-3T0:39:41Z</time></trkpt>
<trkpt lat="45.387615077197552" lon="5.474675428122282"><ele></ele><time>2015-2-3T0:39:44Z</time></trkpt>
<trkpt lat="45.387143008410931" lon="5.474979775026441"><ele></ele><time>2015-2-3T0:39:47Z</time></trkpt>
<trkpt lat="45.386680662631989" lon="5.47529979608953"><ele></ele><time>2015-2-3T0:39:50Z</time></trkpt>
<trkpt lat="45.386210605502129" lon="5.475635323673487"><ele></ele><time>2015-2-3T0:39:53Z</time></trkpt>
<trkpt lat="45.385814057663083" lon="5.47609331086278"><ele></ele><time>2015-2-3T0:39:56Z</time></trkpt>
<trkpt lat="45.38540250621736" lon="5.476402351632714"><ele></ele><time>2015-2-3T0:39:59Z</time></trkpt>
<trkpt lat="45.384954242035747" lon="5.476469490677118"><ele></ele><time>2015-2-3T0:40:2Z</time></trkpt>
<trkpt lat="45.384478317573667" lon="5.476354993879795"><ele></ele><time>2015-2-3T0:40:5Z</time></trkpt>
<trkpt lat="45.384134575724602" lon="5.475916201248765"><ele></ele><time>2015-2-3T0:40:8Z</time></trkpt>
<trkpt lat="45.383834503591061" lon="5.475367940962315"><ele></ele><time>2015-2-3T0:40:11Z</time></trkpt>
<trkpt lat="45.38342110812664" lon="5.474960077553988"><ele></ele><time>2015-2-3T0:40:14Z</time></trkpt>
<trkpt lat="45.382940070703626" lon="5.474701579660177"><ele></ele><time>2015-2-3T0:40:17Z</time></trkpt>
<trkpt lat="45.382574619725347" lon="5.474275108426809"><ele></ele><time>2015-2-3T0:40:20Z</time></trkpt>
<trkpt lat="45.382134234532714" lon="5.474572749808431"><ele></ele><time>2015-2-3T0:40:23Z</time></trkpt>
<trkpt lat="45.381663758307695" lon="5.474321125075221"><ele></ele><time>2015-2-3T0:40:26Z</time></trkpt>
<trkpt lat="45.381233096122742" lon="5.474117528647184"><ele></ele><time>2015-2-3T0:40:29Z</time></trkpt>
<trkpt lat="45.380800170823932" lon="5.473942765966058"><ele></ele><time>2015-2-3T0:40:32Z</time></trkpt>
<trkpt lat="45.380357438698411" lon="5.473764901980758"><ele></ele><time>2015-2-3T0:40:35Z</time></trkpt>
<trkpt lat="45.379915880039334" lon="5.473624337464571"><ele></ele><time>2015-2-3T0:40:38Z</time></trkpt>
<trkpt lat="45.379469627514482" lon="5.473547140136361"><ele></ele><time>2015-2-3T0:40:41Z</time></trkpt>
<trkpt lat="45.378946764394641" lon="5.473491232842207"><ele></ele><time>2015-2-3T0:40:44Z</time></trkpt>
<trkpt lat="45.378427254036069" lon="5.473441611975431"><ele></ele><time>2015-2-3T0:40:47Z</time></trkpt>
<trkpt lat="45.377925345674157" lon="5.473385704681277"><ele></ele><time>2015-2-3T0:40:50Z</time></trkpt>
<trkpt lat="45.377443972975016" lon="5.473345471546054"><ele></ele><time>2015-2-3T0:40:53Z</time></trkpt>
<trkpt lat="45.377025548368692" lon="5.473138857632875"><ele></ele><time>2015-2-3T0:40:56Z</time></trkpt>
<trkpt lat="45.376591868698597" lon="5.473002819344401"><ele></ele><time>2015-2-3T0:40:59Z</time></trkpt>
<trkpt lat="45.376159446313977" lon="5.472697466611862"><ele></ele><time>2015-2-3T0:41:2Z</time></trkpt>
<trkpt lat="45.375749403610826" lon="5.472279628738761"><ele></ele><time>2015-2-3T0:41:5Z</time></trkpt>
<trkpt lat="45.375329721719027" lon="5.47187059186399"><ele></ele><time>2015-2-3T0:41:8Z</time></trkpt>
<trkpt lat="45.374909033998847" lon="5.471466165035963"><ele></ele><time>2015-2-3T0:41:11Z</time></trkpt>
<trkpt lat="45.374479964375496" lon="5.471042962744832"><ele></ele><time>2015-2-3T0:41:14Z</time></trkpt>
<trkpt lat="45.374101437628269" lon="5.470694191753864"><ele></ele><time>2015-2-3T0:41:17Z</time></trkpt>
<trkpt lat="45.373721988871694" lon="5.47033729031682"><ele></ele><time>2015-2-3T0:41:20Z</time></trkpt>
<trkpt lat="45.373277245089412" lon="5.469933617860079"><ele></ele><time>2015-2-3T0:41:23Z</time></trkpt>
<trkpt lat="45.372853456065059" lon="5.46953790821135"><ele></ele><time>2015-2-3T0:41:26Z</time></trkpt>
<trkpt lat="45.372427487745881" lon="5.469148149713874"><ele></ele><time>2015-2-3T0:41:29Z</time></trkpt>
<trkpt lat="45.372001603245735" lon="5.468747243285179"><ele></ele><time>2015-2-3T0:41:32Z</time></trkpt>
<trkpt lat="45.371572617441416" lon="5.468352371826768"><ele></ele><time>2015-2-3T0:41:35Z</time></trkpt>
<trkpt lat="45.371150085702538" lon="5.46795129776001"><ele></ele><time>2015-2-3T0:41:38Z</time></trkpt>
<trkpt lat="45.370725290849805" lon="5.467558773234487"><ele></ele><time>2015-2-3T0:41:41Z</time></trkpt>
<trkpt lat="45.370296388864517" lon="5.467181755229831"><ele></ele><time>2015-2-3T0:41:44Z</time></trkpt>
<trkpt lat="45.369874024763703" lon="5.466882940381765"><ele></ele><time>2015-2-3T0:41:47Z</time></trkpt>
<trkpt lat="45.369379492476583" lon="5.46671262010932"><ele></ele><time>2015-2-3T0:41:50Z</time></trkpt>
<trkpt lat="45.368899712339044" lon="5.466700633987784"><ele></ele><time>2015-2-3T0:41:53Z</time></trkpt>
<trkpt lat="45.368425045162439" lon="5.466789733618498"><ele></ele><time>2015-2-3T0:41:56Z</time></trkpt>
<trkpt lat="45.367958508431911" lon="5.466898614540696"><ele></ele><time>2015-2-3T0:41:59Z</time></trkpt>
<trkpt lat="45.36751477047801" lon="5.467011937871575"><ele></ele><time>2015-2-3T0:42:2Z</time></trkpt>
<trkpt lat="45.367011688649654" lon="5.46713087707758"><ele></ele><time>2015-2-3T0:42:5Z</time></trkpt>
<trkpt lat="45.366566022858024" lon="5.467245373874903"><ele></ele><time>2015-2-3T0:42:8Z</time></trkpt>
<trkpt lat="45.366060761734843" lon="5.46735567972064"><ele></ele><time>2015-2-3T0:42:11Z</time></trkpt>
<trkpt lat="45.365563044324517" lon="5.467470427975059"><ele></ele><time>2015-2-3T0:42:14Z</time></trkpt>
<trkpt lat="45.365065997466445" lon="5.467589031904936"><ele></ele><time>2015-2-3T0:42:17Z</time></trkpt>
<trkpt lat="45.364617900922894" lon="5.467690620571375"><ele></ele><time>2015-2-3T0:42:20Z</time></trkpt>
<trkpt lat="45.364145748317242" lon="5.467802351340652"><ele></ele><time>2015-2-3T0:42:23Z</time></trkpt>
<trkpt lat="45.363636128604412" lon="5.467950459569693"><ele></ele><time>2015-2-3T0:42:26Z</time></trkpt>
<trkpt lat="45.363167831674218" lon="5.468071410432458"><ele></ele><time>2015-2-3T0:42:29Z</time></trkpt>
<trkpt lat="45.362700037658215" lon="5.468196636065841"><ele></ele><time>2015-2-3T0:42:32Z</time></trkpt>
<trkpt lat="45.362236183136702" lon="5.468302583321929"><ele></ele><time>2015-2-3T0:42:35Z</time></trkpt>
<trkpt lat="45.361753217875957" lon="5.468426803126931"><ele></ele><time>2015-2-3T0:42:38Z</time></trkpt>
<trkpt lat="45.361267318949103" lon="5.468548843637109"><ele></ele><time>2015-2-3T0:42:41Z</time></trkpt>
<trkpt lat="45.360796507447958" lon="5.468662418425083"><ele></ele><time>2015-2-3T0:42:44Z</time></trkpt>
<trkpt lat="45.36034170538187" lon="5.468780351802707"><ele></ele><time>2015-2-3T0:42:47Z</time></trkpt>
<trkpt lat="45.359902996569872" lon="5.468952683731914"><ele></ele><time>2015-2-3T0:42:50Z</time></trkpt>
<trkpt lat="45.359459677711129" lon="5.469281924888492"><ele></ele><time>2015-2-3T0:42:53Z</time></trkpt>
<trkpt lat="45.3590570949018" lon="5.469758016988635"><ele></ele><time>2015-2-3T0:42:56Z</time></trkpt>
<trkpt lat="45.358719723299146" lon="5.470181806012988"><ele></ele><time>2015-2-3T0:42:59Z</time></trkpt>
<trkpt lat="45.358295850455761" lon="5.470588579773903"><ele></ele><time>2015-2-3T0:43:2Z</time></trkpt>
<trkpt lat="45.357850100845098" lon="5.470830984413624"><ele></ele><time>2015-2-3T0:43:5Z</time></trkpt>
<trkpt lat="45.357402507215738" lon="5.470930896699429"><ele></ele><time>2015-2-3T0:43:8Z</time></trkpt>
<trkpt lat="45.356887774541974" lon="5.470986887812614"><ele></ele><time>2015-2-3T0:43:11Z</time></trkpt>
<trkpt lat="45.35639894194901" lon="5.471033323556185"><ele></ele><time>2015-2-3T0:43:14Z</time></trkpt>
<trkpt lat="45.355913126841187" lon="5.471088727936149"><ele></ele><time>2015-2-3T0:43:17Z</time></trkpt>
<trkpt lat="45.355429407209158" lon="5.471144551411271"><ele></ele><time>2015-2-3T0:43:20Z</time></trkpt>
<trkpt lat="45.354938730597496" lon="5.471201883628964"><ele></ele><time>2015-2-3T0:43:23Z</time></trkpt>
<trkpt lat="45.354441264644265" lon="5.471297185868025"><ele></ele><time>2015-2-3T0:43:26Z</time></trkpt>
<trkpt lat="45.353960813954473" lon="5.471490137279034"><ele></ele><time>2015-2-3T0:43:29Z</time></trkpt>
<trkpt lat="45.353511208668351" lon="5.471690380945802"><ele></ele><time>2015-2-3T0:43:32Z</time></trkpt>
<trkpt lat="45.353047270327806" lon="5.471888948231936"><ele></ele><time>2015-2-3T0:43:35Z</time></trkpt>
<trkpt lat="45.352569753304124" lon="5.47203378751874"><ele></ele><time>2015-2-3T0:43:38Z</time></trkpt>
<trkpt lat="45.352078322321177" lon="5.472100088372827"><ele></ele><time>2015-2-3T0:43:41Z</time></trkpt>
<trkpt lat="45.35157130099833" lon="5.472064884379506"><ele></ele><time>2015-2-3T0:43:44Z</time></trkpt>
<trkpt lat="45.351127814501524" lon="5.471944604068995"><ele></ele><time>2015-2-3T0:43:47Z</time></trkpt>
<trkpt lat="45.350691620260477" lon="5.471790628507733"><ele></ele><time>2015-2-3T0:43:50Z</time></trkpt>
<trkpt lat="45.350247547030449" lon="5.471965475007892"><ele></ele><time>2015-2-3T0:43:53Z</time></trkpt>
<trkpt lat="45.349763156846166" lon="5.472042420879006"><ele></ele><time>2015-2-3T0:43:56Z</time></trkpt>
<trkpt lat="45.349263092502952" lon="5.472113834694028"><ele></ele><time>2015-2-3T0:43:59Z</time></trkpt>
<trkpt lat="45.348783982917666" lon="5.472148284316063"><ele></ele><time>2015-2-3T0:44:2Z</time></trkpt>
<trkpt lat="45.348288277164102" lon="5.472168233245611"><ele></ele><time>2015-2-3T0:44:5Z</time></trkpt>
<trkpt lat="45.34779324196279" lon="5.472231265157461"><ele></ele><time>2015-2-3T0:44:8Z</time></trkpt>
<trkpt lat="45.347318407148123" lon="5.472304690629244"><ele></ele><time>2015-2-3T0:44:11Z</time></trkpt>
<trkpt lat="45.346907945349813" lon="5.472333105280995"><ele></ele><time>2015-2-3T0:44:14Z</time></trkpt>
<trkpt lat="45.346511313691735" lon="5.472367638722062"><ele></ele><time>2015-2-3T0:44:17Z</time></trkpt>
<trkpt lat="45.346054416149855" lon="5.47261331230402"><ele></ele><time>2015-2-3T0:44:20Z</time></trkpt>
<trkpt lat="45.345598272979259" lon="5.472822021692991"><ele></ele><time>2015-2-3T0:44:23Z</time></trkpt>
<trkpt lat="45.345164928585291" lon="5.473050763830543"><ele></ele><time>2015-2-3T0:44:26Z</time></trkpt>
<trkpt lat="45.3447050973773" lon="5.473294844850898"><ele></ele><time>2015-2-3T0:44:29Z</time></trkpt>
<trkpt lat="45.344253815710545" lon="5.47351386398077"><ele></ele><time>2015-2-3T0:44:32Z</time></trkpt>
<trkpt lat="45.343815442174673" lon="5.47375182621181"><ele></ele><time>2015-2-3T0:44:35Z</time></trkpt>
<trkpt lat="45.343357538804412" lon="5.473784683272243"><ele></ele><time>2015-2-3T0:44:38Z</time></trkpt>
<trkpt lat="45.342913884669542" lon="5.473521323874593"><ele></ele><time>2015-2-3T0:44:41Z</time></trkpt>
<trkpt lat="45.342513481155038" lon="5.473149167373776"><ele></ele><time>2015-2-3T0:44:44Z</time></trkpt>
<trkpt lat="45.342152388766408" lon="5.472712637856603"><ele></ele><time>2015-2-3T0:44:47Z</time></trkpt>
<trkpt lat="45.341824572533369" lon="5.472206454724073"><ele></ele><time>2015-2-3T0:44:50Z</time></trkpt>
<trkpt lat="45.34152802079916" lon="5.471729356795549"><ele></ele><time>2015-2-3T0:44:53Z</time></trkpt>
<trkpt lat="45.341074895113707" lon="5.471731955185533"><ele></ele><time>2015-2-3T0:44:56Z</time></trkpt>
<trkpt lat="45.340694943442941" lon="5.471586864441633"><ele></ele><time>2015-2-3T0:44:59Z</time></trkpt>
<trkpt lat="45.340421358123422" lon="5.472158761695027"><ele></ele><time>2015-2-3T0:45:2Z</time></trkpt>
<trkpt lat="45.340145928785205" lon="5.472735855728388"><ele></ele><time>2015-2-3T0:45:5Z</time></trkpt>
<trkpt lat="45.339744603261352" lon="5.472883209586144"><ele></ele><time>2015-2-3T0:45:8Z</time></trkpt>
<trkpt lat="45.339340595528483" lon="5.47319233417511"><ele></ele><time>2015-2-3T0:45:11Z</time></trkpt>
<trkpt lat="45.338954105973244" lon="5.473571112379432"><ele></ele><time>2015-2-3T0:45:14Z</time></trkpt>
<trkpt lat="45.338556971400976" lon="5.473937653005123"><ele></ele><time>2015-2-3T0:45:17Z</time></trkpt>
<trkpt lat="45.338093619793653" lon="5.474002780392766"><ele></ele><time>2015-2-3T0:45:20Z</time></trkpt>
<trkpt lat="45.337666813284159" lon="5.474206628277898"><ele></ele><time>2015-2-3T0:45:23Z</time></trkpt>
<trkpt lat="45.337244365364313" lon="5.474446518346667"><ele></ele><time>2015-2-3T0:45:26Z</time></trkpt>
<trkpt lat="45.33680247142911" lon="5.474621197208762"><ele></ele><time>2015-2-3T0:45:29Z</time></trkpt>
<trkpt lat="45.336319003254175" lon="5.474727312102914"><ele></ele><time>2015-2-3T0:45:32Z</time></trkpt>
<trkpt lat="45.335865458473563" lon="5.47494649887085"><ele></ele><time>2015-2-3T0:45:35Z</time></trkpt>
<trkpt lat="45.335392551496625" lon="5.475013721734285"><ele></ele><time>2015-2-3T0:45:38Z</time></trkpt>
<trkpt lat="45.334935234859586" lon="5.475001065060496"><ele></ele><time>2015-2-3T0:45:41Z</time></trkpt>
<trkpt lat="45.334492167457938" lon="5.475149340927601"><ele></ele><time>2015-2-3T0:45:44Z</time></trkpt>
<trkpt lat="45.334137696772814" lon="5.475565418601036"><ele></ele><time>2015-2-3T0:45:47Z</time></trkpt>
<trkpt lat="45.33381063491106" lon="5.476032206788659"><ele></ele><time>2015-2-3T0:45:50Z</time></trkpt>
<trkpt lat="45.33344023860991" lon="5.476453816518188"><ele></ele><time>2015-2-3T0:45:53Z</time></trkpt>
<trkpt lat="45.333020891994238" lon="5.4767398070544"><ele></ele><time>2015-2-3T0:45:56Z</time></trkpt>
<trkpt lat="45.332601210102439" lon="5.477032335475087"><ele></ele><time>2015-2-3T0:45:59Z</time></trkpt>
<trkpt lat="45.33223969861865" lon="5.477480348199606"><ele></ele><time>2015-2-3T0:46:2Z</time></trkpt>
<trkpt lat="45.331897465512156" lon="5.477979322895408"><ele></ele><time>2015-2-3T0:46:5Z</time></trkpt>
<trkpt lat="45.331472419202328" lon="5.478282244876027"><ele></ele><time>2015-2-3T0:46:8Z</time></trkpt>
<trkpt lat="45.331127839162946" lon="5.478703267872334"><ele></ele><time>2015-2-3T0:46:11Z</time></trkpt>
<trkpt lat="45.330768674612045" lon="5.479090427979827"><ele></ele><time>2015-2-3T0:46:14Z</time></trkpt>
<trkpt lat="45.330331809818745" lon="5.479292348027229"><ele></ele><time>2015-2-3T0:46:17Z</time></trkpt>
<trkpt lat="45.329935010522604" lon="5.479610860347748"><ele></ele><time>2015-2-3T0:46:20Z</time></trkpt>
<trkpt lat="45.329474173486233" lon="5.479844715446234"><ele></ele><time>2015-2-3T0:46:23Z</time></trkpt>
<trkpt lat="45.329004200175405" lon="5.480038253590465"><ele></ele><time>2015-2-3T0:46:26Z</time></trkpt>
<trkpt lat="45.328564653173089" lon="5.480360873043537"><ele></ele><time>2015-2-3T0:46:29Z</time></trkpt>
<trkpt lat="45.328123010694981" lon="5.480654155835509"><ele></ele><time>2015-2-3T0:46:32Z</time></trkpt>
<trkpt lat="45.327714895829558" lon="5.480956910178065"><ele></ele><time>2015-2-3T0:46:35Z</time></trkpt>
<trkpt lat="45.327327651903033" lon="5.481338035315275"><ele></ele><time>2015-2-3T0:46:38Z</time></trkpt>
<trkpt lat="45.326995393261313" lon="5.481792585924268"><ele></ele><time>2015-2-3T0:46:41Z</time></trkpt>
<trkpt lat="45.326591469347477" lon="5.482140015810728"><ele></ele><time>2015-2-3T0:46:44Z</time></trkpt>
<trkpt lat="45.326150497421622" lon="5.482354089617729"><ele></ele><time>2015-2-3T0:46:47Z</time></trkpt>
<trkpt lat="45.32574288547039" lon="5.482629602774978"><ele></ele><time>2015-2-3T0:46:50Z</time></trkpt>
<trkpt lat="45.325310714542866" lon="5.482888268306851"><ele></ele><time>2015-2-3T0:46:53Z</time></trkpt>
<trkpt lat="45.324919782578945" lon="5.483227651566267"><ele></ele><time>2015-2-3T0:46:56Z</time></trkpt>
<trkpt lat="45.324507812038064" lon="5.483564017340541"><ele></ele><time>2015-2-3T0:46:59Z</time></trkpt>
<trkpt lat="45.324129872024059" lon="5.483931060880423"><ele></ele><time>2015-2-3T0:47:2Z</time></trkpt>
<trkpt lat="45.323700215667486" lon="5.48413323238492"><ele></ele><time>2015-2-3T0:47:5Z</time></trkpt>
<trkpt lat="45.323224542662501" lon="5.484285950660706"><ele></ele><time>2015-2-3T0:47:8Z</time></trkpt>
<trkpt lat="45.322738895192742" lon="5.484241610392928"><ele></ele><time>2015-2-3T0:47:11Z</time></trkpt>
<trkpt lat="45.322239166125655" lon="5.484094759449363"><ele></ele><time>2015-2-3T0:47:14Z</time></trkpt>
<trkpt lat="45.321809593588114" lon="5.483852438628674"><ele></ele><time>2015-2-3T0:47:17Z</time></trkpt>
<trkpt lat="45.321355042979121" lon="5.483615566045046"><ele></ele><time>2015-2-3T0:47:20Z</time></trkpt>
<trkpt lat="45.320950699970126" lon="5.483339549973607"><ele></ele><time>2015-2-3T0:47:23Z</time></trkpt>
<trkpt lat="45.320495646446943" lon="5.48315305262804"><ele></ele><time>2015-2-3T0:47:26Z</time></trkpt>
<trkpt lat="45.320042101666331" lon="5.482977787032723"><ele></ele><time>2015-2-3T0:47:29Z</time></trkpt>
<trkpt lat="45.319599872455001" lon="5.482878880575299"><ele></ele><time>2015-2-3T0:47:32Z</time></trkpt>
<trkpt lat="45.319147668778896" lon="5.482928836718202"><ele></ele><time>2015-2-3T0:47:35Z</time></trkpt>
<trkpt lat="45.318630086258054" lon="5.483024474233389"><ele></ele><time>2015-2-3T0:47:38Z</time></trkpt>
<trkpt lat="45.318139074370265" lon="5.483033275231719"><ele></ele><time>2015-2-3T0:47:41Z</time></trkpt>
<trkpt lat="45.317700281739235" lon="5.482749799266458"><ele></ele><time>2015-2-3T0:47:44Z</time></trkpt>
<trkpt lat="45.317196613177657" lon="5.482497839257121"><ele></ele><time>2015-2-3T0:47:47Z</time></trkpt>
<trkpt lat="45.316694118082523" lon="5.48233020119369"><ele></ele><time>2015-2-3T0:47:50Z</time></trkpt>
<trkpt lat="45.316215930506587" lon="5.482156611979008"><ele></ele><time>2015-2-3T0:47:53Z</time></trkpt>
<trkpt lat="45.315914433449507" lon="5.481617571786046"><ele></ele><time>2015-2-3T0:47:56Z</time></trkpt>
<trkpt lat="45.315635735169053" lon="5.481098061427474"><ele></ele><time>2015-2-3T0:47:59Z</time></trkpt>
<trkpt lat="45.315347230061889" lon="5.480585591867566"><ele></ele><time>2015-2-3T0:48:2Z</time></trkpt>
<trkpt lat="45.315136173740029" lon="5.479977652430534"><ele></ele><time>2015-2-3T0:48:5Z</time></trkpt>
<trkpt lat="45.314791509881616" lon="5.479451101273298"><ele></ele><time>2015-2-3T0:48:8Z</time></trkpt>
<trkpt lat="45.314486995339394" lon="5.478884568437934"><ele></ele><time>2015-2-3T0:48:11Z</time></trkpt>
<trkpt lat="45.314160101115704" lon="5.478400345891714"><ele></ele><time>2015-2-3T0:48:14Z</time></trkpt>
<trkpt lat="45.313830357044935" lon="5.478424485772848"><ele></ele><time>2015-2-3T0:48:17Z</time></trkpt>
<trkpt lat="45.313541684299707" lon="5.478924550116062"><ele></ele><time>2015-2-3T0:48:20Z</time></trkpt>
<trkpt lat="45.313255442306399" lon="5.479463841766119"><ele></ele><time>2015-2-3T0:48:23Z</time></trkpt>
<trkpt lat="45.313013205304742" lon="5.480067925527692"><ele></ele><time>2015-2-3T0:48:26Z</time></trkpt>
<trkpt lat="45.312880352139473" lon="5.480710985139012"><ele></ele><time>2015-2-3T0:48:29Z</time></trkpt>
<trkpt lat="45.312504759058356" lon="5.481126811355352"><ele></ele><time>2015-2-3T0:48:32Z</time></trkpt>
<trkpt lat="45.312185324728489" lon="5.48157574608922"><ele></ele><time>2015-2-3T0:48:35Z</time></trkpt>
<trkpt lat="45.311917020007968" lon="5.482130795717239"><ele></ele><time>2015-2-3T0:48:38Z</time></trkpt>
<trkpt lat="45.311709484085441" lon="5.482761114835739"><ele></ele><time>2015-2-3T0:48:41Z</time></trkpt>
<trkpt lat="45.311437407508492" lon="5.483431247994304"><ele></ele><time>2015-2-3T0:48:44Z</time></trkpt>
<trkpt lat="45.310990149155259" lon="5.483820335939527"><ele></ele><time>2015-2-3T0:48:47Z</time></trkpt>
<trkpt lat="45.310602989047766" lon="5.484221577644348"><ele></ele><time>2015-2-3T0:48:50Z</time></trkpt>
<trkpt lat="45.310084652155638" lon="5.484072295948863"><ele></ele><time>2015-2-3T0:48:53Z</time></trkpt>
<trkpt lat="45.309652565047145" lon="5.48386937007308"><ele></ele><time>2015-2-3T0:48:56Z</time></trkpt>
<trkpt lat="45.309187117964029" lon="5.483593521639705"><ele></ele><time>2015-2-3T0:48:59Z</time></trkpt>
<trkpt lat="45.308695519343019" lon="5.48343694768846"><ele></ele><time>2015-2-3T0:49:2Z</time></trkpt>
<trkpt lat="45.308203417807817" lon="5.483425045385957"><ele></ele><time>2015-2-3T0:49:5Z</time></trkpt>
<trkpt lat="45.307770743966103" lon="5.483187669888139"><ele></ele><time>2015-2-3T0:49:8Z</time></trkpt>
<trkpt lat="45.307532865554094" lon="5.482545532286167"><ele></ele><time>2015-2-3T0:49:11Z</time></trkpt>
<trkpt lat="45.307295825332403" lon="5.481935329735279"><ele></ele><time>2015-2-3T0:49:14Z</time></trkpt>
<trkpt lat="45.307009248062968" lon="5.481396540999413"><ele></ele><time>2015-2-3T0:49:17Z</time></trkpt>
<trkpt lat="45.306744547560811" lon="5.480848280712962"><ele></ele><time>2015-2-3T0:49:20Z</time></trkpt>
<trkpt lat="45.306566935032606" lon="5.480266660451889"><ele></ele><time>2015-2-3T0:49:23Z</time></trkpt>
<trkpt lat="45.306110875681043" lon="5.480093909427524"><ele></ele><time>2015-2-3T0:49:26Z</time></trkpt>
<trkpt lat="45.305643081665039" lon="5.480021825060248"><ele></ele><time>2015-2-3T0:49:29Z</time></trkpt>
<trkpt lat="45.305139580741525" lon="5.480243358761072"><ele></ele><time>2015-2-3T0:49:32Z</time></trkpt>
<trkpt lat="45.304670948535204" lon="5.480462042614818"><ele></ele><time>2015-2-3T0:49:35Z</time></trkpt>
<trkpt lat="45.304216649383307" lon="5.48074409365654"><ele></ele><time>2015-2-3T0:49:38Z</time></trkpt>
<trkpt lat="45.303811384364963" lon="5.481093367561698"><ele></ele><time>2015-2-3T0:49:41Z</time></trkpt>
<trkpt lat="45.303457165136933" lon="5.481500392779708"><ele></ele><time>2015-2-3T0:49:44Z</time></trkpt>
<trkpt lat="45.303053241223097" lon="5.481997188180685"><ele></ele><time>2015-2-3T0:49:47Z</time></trkpt>
<trkpt lat="45.302652586251497" lon="5.482333805412054"><ele></ele><time>2015-2-3T0:49:50Z</time></trkpt>
<trkpt lat="45.302208932116628" lon="5.482534551993012"><ele></ele><time>2015-2-3T0:49:53Z</time></trkpt>
<trkpt lat="45.3017492685467" lon="5.482646953314543"><ele></ele><time>2015-2-3T0:49:56Z</time></trkpt>
<trkpt lat="45.301258508116007" lon="5.482481662184"><ele></ele><time>2015-2-3T0:49:59Z</time></trkpt>
<trkpt lat="45.300816530361772" lon="5.482324752956629"><ele></ele><time>2015-2-3T0:50:2Z</time></trkpt>
<trkpt lat="45.300302384421229" lon="5.48218703828752"><ele></ele><time>2015-2-3T0:50:5Z</time></trkpt>
<trkpt lat="45.299960989505053" lon="5.48170231282711"><ele></ele><time>2015-2-3T0:50:8Z</time></trkpt>
<trkpt lat="45.300014214590192" lon="5.481046009808779"><ele></ele><time>2015-2-3T0:50:11Z</time></trkpt>
<trkpt lat="45.299902567639947" lon="5.48084668815136"><ele></ele><time>2015-2-3T0:50:14Z</time></trkpt>
<trkpt lat="45.299611212685704" lon="5.481339376419783"><ele></ele><time>2015-2-3T0:50:17Z</time></trkpt>
<trkpt lat="45.299364030361176" lon="5.481911357492209"><ele></ele><time>2015-2-3T0:50:20Z</time></trkpt>
<trkpt lat="45.298998998478055" lon="5.482399687170982"><ele></ele><time>2015-2-3T0:50:23Z</time></trkpt>
<trkpt lat="45.298591302707791" lon="5.482779135927558"><ele></ele><time>2015-2-3T0:50:26Z</time></trkpt>
<trkpt lat="45.298200286924839" lon="5.483196722343564"><ele></ele><time>2015-2-3T0:50:29Z</time></trkpt>
<trkpt lat="45.297768032178283" lon="5.483300155028701"><ele></ele><time>2015-2-3T0:50:32Z</time></trkpt>
<trkpt lat="45.29735547490418" lon="5.483033694326878"><ele></ele><time>2015-2-3T0:50:35Z</time></trkpt>
<trkpt lat="45.296980384737253" lon="5.482648210600019"><ele></ele><time>2015-2-3T0:50:38Z</time></trkpt>
<trkpt lat="45.296555757522583" lon="5.482388371601701"><ele></ele><time>2015-2-3T0:50:41Z</time></trkpt>
<trkpt lat="45.29623607173562" lon="5.482655335217714"><ele></ele><time>2015-2-3T0:50:44Z</time></trkpt>
<trkpt lat="45.295957708731294" lon="5.483229076489806"><ele></ele><time>2015-2-3T0:50:47Z</time></trkpt>
<trkpt lat="45.295674651861191" lon="5.483706593513489"><ele></ele><time>2015-2-3T0:50:50Z</time></trkpt>
<trkpt lat="45.295207696035504" lon="5.483850343152881"><ele></ele><time>2015-2-3T0:50:53Z</time></trkpt>
<trkpt lat="45.294737052172422" lon="5.48392117023468"><ele></ele><time>2015-2-3T0:50:56Z</time></trkpt>
<trkpt lat="45.294273030012846" lon="5.483969198539853"><ele></ele><time>2015-2-3T0:50:59Z</time></trkpt>
<trkpt lat="45.293831303715706" lon="5.484117809683085"><ele></ele><time>2015-2-3T0:51:2Z</time></trkpt>
<trkpt lat="45.293379100039601" lon="5.484249657019973"><ele></ele><time>2015-2-3T0:51:5Z</time></trkpt>
<trkpt lat="45.292928321287036" lon="5.484403381124139"><ele></ele><time>2015-2-3T0:51:8Z</time></trkpt>
<trkpt lat="45.292460778728127" lon="5.484619634225965"><ele></ele><time>2015-2-3T0:51:11Z</time></trkpt>
<trkpt lat="45.291951829567552" lon="5.484727844595909"><ele></ele><time>2015-2-3T0:51:14Z</time></trkpt>
<trkpt lat="45.291497614234686" lon="5.484590213745832"><ele></ele><time>2015-2-3T0:51:17Z</time></trkpt>
<trkpt lat="45.290991012006998" lon="5.484679481014609"><ele></ele><time>2015-2-3T0:51:20Z</time></trkpt>
<trkpt lat="45.29057920910418" lon="5.48501031473279"><ele></ele><time>2015-2-3T0:51:23Z</time></trkpt>
<trkpt lat="45.29015407897532" lon="5.485342154279351"><ele></ele><time>2015-2-3T0:51:26Z</time></trkpt>
<trkpt lat="45.289698019623756" lon="5.485573830083013"><ele></ele><time>2015-2-3T0:51:29Z</time></trkpt>
<trkpt lat="45.289259813725948" lon="5.485778767615557"><ele></ele><time>2015-2-3T0:51:32Z</time></trkpt>
<trkpt lat="45.288734519854188" lon="5.485901478677988"><ele></ele><time>2015-2-3T0:51:35Z</time></trkpt>
<trkpt lat="45.288208890706301" lon="5.486021004617214"><ele></ele><time>2015-2-3T0:51:38Z</time></trkpt>
<trkpt lat="45.28767672367394" lon="5.485963169485331"><ele></ele><time>2015-2-3T0:51:41Z</time></trkpt>
<trkpt lat="45.287235332652926" lon="5.485814725980163"><ele></ele><time>2015-2-3T0:51:44Z</time></trkpt>
<trkpt lat="45.286795115098357" lon="5.485669132322073"><ele></ele><time>2015-2-3T0:51:47Z</time></trkpt>
<trkpt lat="45.28627292253077" lon="5.485595539212227"><ele></ele><time>2015-2-3T0:51:50Z</time></trkpt>
<trkpt lat="45.2858448587358" lon="5.486001223325729"><ele></ele><time>2015-2-3T0:51:53Z</time></trkpt>
<trkpt lat="45.285325013101101" lon="5.48603642731905"><ele></ele><time>2015-2-3T0:51:56Z</time></trkpt>
<trkpt lat="45.284813046455383" lon="5.485853031277657"><ele></ele><time>2015-2-3T0:51:59Z</time></trkpt>
<trkpt lat="45.284367464482784" lon="5.485645746812224"><ele></ele><time>2015-2-3T0:52:2Z</time></trkpt>
<trkpt lat="45.283924397081137" lon="5.485488083213568"><ele></ele><time>2015-2-3T0:52:5Z</time></trkpt>
<trkpt lat="45.283505385741591" lon="5.485259927809238"><ele></ele><time>2015-2-3T0:52:8Z</time></trkpt>
<trkpt lat="45.283094588667154" lon="5.484948372468352"><ele></ele><time>2015-2-3T0:52:11Z</time></trkpt>
<trkpt lat="45.282608941197395" lon="5.484754415228963"><ele></ele><time>2015-2-3T0:52:14Z</time></trkpt>
<trkpt lat="45.282135866582394" lon="5.484558697789908"><ele></ele><time>2015-2-3T0:52:17Z</time></trkpt>
<trkpt lat="45.281649464741349" lon="5.484375385567546"><ele></ele><time>2015-2-3T0:52:20Z</time></trkpt>
<trkpt lat="45.281149568036199" lon="5.484177405014634"><ele></ele><time>2015-2-3T0:52:23Z</time></trkpt>
<trkpt lat="45.280686551705003" lon="5.484047066420317"><ele></ele><time>2015-2-3T0:52:26Z</time></trkpt>
<trkpt lat="45.280206017196178" lon="5.483923768624663"><ele></ele><time>2015-2-3T0:52:29Z</time></trkpt>
<trkpt lat="45.279755657538772" lon="5.483778426423669"><ele></ele><time>2015-2-3T0:52:32Z</time></trkpt>
<trkpt lat="45.279330778867006" lon="5.483564855530858"><ele></ele><time>2015-2-3T0:52:35Z</time></trkpt>
<trkpt lat="45.27890682220459" lon="5.483252545818687"><ele></ele><time>2015-2-3T0:52:38Z</time></trkpt>
<trkpt lat="45.27851345948875" lon="5.482946103438735"><ele></ele><time>2015-2-3T0:52:41Z</time></trkpt>
<trkpt lat="45.278108110651374" lon="5.482566738501191"><ele></ele><time>2015-2-3T0:52:44Z</time></trkpt>
<trkpt lat="45.277691278606653" lon="5.482231713831425"><ele></ele><time>2015-2-3T0:52:47Z</time></trkpt>
<trkpt lat="45.277233542874455" lon="5.482048569247127"><ele></ele><time>2015-2-3T0:52:50Z</time></trkpt>
<trkpt lat="45.276767425239086" lon="5.481923846527934"><ele></ele><time>2015-2-3T0:52:53Z</time></trkpt>
<trkpt lat="45.276298290118575" lon="5.481834076344967"><ele></ele><time>2015-2-3T0:52:56Z</time></trkpt>
<trkpt lat="45.275822868570685" lon="5.481708766892552"><ele></ele><time>2015-2-3T0:52:59Z</time></trkpt>
<trkpt lat="45.275332611054182" lon="5.481580775231123"><ele></ele><time>2015-2-3T0:53:2Z</time></trkpt>
<trkpt lat="45.274865990504622" lon="5.481355637311935"><ele></ele><time>2015-2-3T0:53:5Z</time></trkpt>
<trkpt lat="45.274416720494628" lon="5.481156148016453"><ele></ele><time>2015-2-3T0:53:8Z</time></trkpt>
<trkpt lat="45.273949094116688" lon="5.481001418083906"><ele></ele><time>2015-2-3T0:53:11Z</time></trkpt>
<trkpt lat="45.273460429161787" lon="5.48090242780745"><ele></ele><time>2015-2-3T0:53:14Z</time></trkpt>
<trkpt lat="45.273016188293695" lon="5.480762952938676"><ele></ele><time>2015-2-3T0:53:17Z</time></trkpt>
<trkpt lat="45.272573372349143" lon="5.480584586039186"><ele></ele><time>2015-2-3T0:53:20Z</time></trkpt>
<trkpt lat="45.272105745971203" lon="5.480439746752381"><ele></ele><time>2015-2-3T0:53:23Z</time></trkpt>
<trkpt lat="45.271641053259373" lon="5.480272108688951"><ele></ele><time>2015-2-3T0:53:26Z</time></trkpt>
<trkpt lat="45.271184239536524" lon="5.480084521695972"><ele></ele><time>2015-2-3T0:53:29Z</time></trkpt>
<trkpt lat="45.270720636472106" lon="5.479885367676616"><ele></ele><time>2015-2-3T0:53:32Z</time></trkpt>
<trkpt lat="45.270286956802011" lon="5.479677999392152"><ele></ele><time>2015-2-3T0:53:35Z</time></trkpt>
<trkpt lat="45.269859144464135" lon="5.479553192853928"><ele></ele><time>2015-2-3T0:53:38Z</time></trkpt>
<trkpt lat="45.269374335184693" lon="5.479446491226554"><ele></ele><time>2015-2-3T0:53:41Z</time></trkpt>
<trkpt lat="45.268879467621446" lon="5.479522766545415"><ele></ele><time>2015-2-3T0:53:44Z</time></trkpt>
<trkpt lat="45.268430951982737" lon="5.47929578460753"><ele></ele><time>2015-2-3T0:53:47Z</time></trkpt>
<trkpt lat="45.268009090796113" lon="5.479077268391848"><ele></ele><time>2015-2-3T0:53:50Z</time></trkpt>
<trkpt lat="45.267557809129357" lon="5.478859003633261"><ele></ele><time>2015-2-3T0:53:53Z</time></trkpt>
<trkpt lat="45.267082555219531" lon="5.478760935366154"><ele></ele><time>2015-2-3T0:53:56Z</time></trkpt>
<trkpt lat="45.266586681827903" lon="5.478734783828259"><ele></ele><time>2015-2-3T0:53:59Z</time></trkpt>
<trkpt lat="45.266084019094706" lon="5.478665297850967"><ele></ele><time>2015-2-3T0:54:2Z</time></trkpt>
<trkpt lat="45.265590576454997" lon="5.478585418313742"><ele></ele><time>2015-2-3T0:54:5Z</time></trkpt>
<trkpt lat="45.265107275918126" lon="5.478551974520087"><ele></ele><time>2015-2-3T0:54:8Z</time></trkpt>
<trkpt lat="45.264640236273408" lon="5.478510232642293"><ele></ele><time>2015-2-3T0:54:11Z</time></trkpt>
<trkpt lat="45.26417319662869" lon="5.478364303708077"><ele></ele><time>2015-2-3T0:54:14Z</time></trkpt>
<trkpt lat="45.263731721788645" lon="5.478212172165513"><ele></ele><time>2015-2-3T0:54:17Z</time></trkpt>
<trkpt lat="45.263244900852442" lon="5.478105805814266"><ele></ele><time>2015-2-3T0:54:20Z</time></trkpt>
<trkpt lat="45.262795630842447" lon="5.477961553260684"><ele></ele><time>2015-2-3T0:54:23Z</time></trkpt>
<trkpt lat="45.262314761057496" lon="5.477692997083068"><ele></ele><time>2015-2-3T0:54:26Z</time></trkpt>
<trkpt lat="45.261823330074549" lon="5.477477414533496"><ele></ele><time>2015-2-3T0:54:29Z</time></trkpt>
<trkpt lat="45.261375568807125" lon="5.477340118959546"><ele></ele><time>2015-2-3T0:54:32Z</time></trkpt>
<trkpt lat="45.260932752862573" lon="5.477178012952209"><ele></ele><time>2015-2-3T0:54:35Z</time></trkpt>
<trkpt lat="45.260439226403832" lon="5.476956898346543"><ele></ele><time>2015-2-3T0:54:38Z</time></trkpt>
<trkpt lat="45.260006720200181" lon="5.476704351603985"><ele></ele><time>2015-2-3T0:54:41Z</time></trkpt>
<trkpt lat="45.259520402178168" lon="5.476641654968262"><ele></ele><time>2015-2-3T0:54:44Z</time></trkpt>
<trkpt lat="45.259067863225937" lon="5.476567139849067"><ele></ele><time>2015-2-3T0:54:47Z</time></trkpt>
<trkpt lat="45.258613815531135" lon="5.47638701274991"><ele></ele><time>2015-2-3T0:54:50Z</time></trkpt>
<trkpt lat="45.25815230794251" lon="5.47626388259232"><ele></ele><time>2015-2-3T0:54:53Z</time></trkpt>
<trkpt lat="45.257696164771914" lon="5.476165059953928"><ele></ele><time>2015-2-3T0:54:56Z</time></trkpt>
<trkpt lat="45.257237171754241" lon="5.476088616997004"><ele></ele><time>2015-2-3T0:54:59Z</time></trkpt>
<trkpt lat="45.256748590618372" lon="5.47625508159399"><ele></ele><time>2015-2-3T0:55:2Z</time></trkpt>
<trkpt lat="45.256315916776657" lon="5.476526068523526"><ele></ele><time>2015-2-3T0:55:5Z</time></trkpt>
<trkpt lat="45.25583429262042" lon="5.476431185379624"><ele></ele><time>2015-2-3T0:55:8Z</time></trkpt>
<trkpt lat="45.255349650979042" lon="5.476224571466446"><ele></ele><time>2015-2-3T0:55:11Z</time></trkpt>
<trkpt lat="45.254873894155025" lon="5.476024243980646"><ele></ele><time>2015-2-3T0:55:14Z</time></trkpt>
<trkpt lat="45.254378188401461" lon="5.475830119103193"><ele></ele><time>2015-2-3T0:55:17Z</time></trkpt>
<trkpt lat="45.253930343315005" lon="5.475702462717891"><ele></ele><time>2015-2-3T0:55:20Z</time></trkpt>
<trkpt lat="45.253421142697334" lon="5.47579625621438"><ele></ele><time>2015-2-3T0:55:23Z</time></trkpt>
<trkpt lat="45.252929460257292" lon="5.475625768303871"><ele></ele><time>2015-2-3T0:55:26Z</time></trkpt>
<trkpt lat="45.252477088943124" lon="5.475416388362646"><ele></ele><time>2015-2-3T0:55:29Z</time></trkpt>
<trkpt lat="45.252031674608588" lon="5.475290827453136"><ele></ele><time>2015-2-3T0:55:32Z</time></trkpt>
<trkpt lat="45.251525910571218" lon="5.475132241845131"><ele></ele><time>2015-2-3T0:55:35Z</time></trkpt>
<trkpt lat="45.251076808199286" lon="5.475003998726606"><ele></ele><time>2015-2-3T0:55:38Z</time></trkpt>
<trkpt lat="45.250569200143218" lon="5.474849520251155"><ele></ele><time>2015-2-3T0:55:41Z</time></trkpt>
<trkpt lat="45.250106938183308" lon="5.474699400365353"><ele></ele><time>2015-2-3T0:55:44Z</time></trkpt>
<trkpt lat="45.249657584354281" lon="5.474601248279214"><ele></ele><time>2015-2-3T0:55:47Z</time></trkpt>
<trkpt lat="45.249154502525926" lon="5.474497815594077"><ele></ele><time>2015-2-3T0:55:50Z</time></trkpt>
<trkpt lat="45.248648319393396" lon="5.474400669336319"><ele></ele><time>2015-2-3T0:55:53Z</time></trkpt>
<trkpt lat="45.24815202690661" lon="5.474296733736992"><ele></ele><time>2015-2-3T0:55:56Z</time></trkpt>
<trkpt lat="45.247676353901625" lon="5.474196067079902"><ele></ele><time>2015-2-3T0:55:59Z</time></trkpt>
<trkpt lat="45.247198585420847" lon="5.474113505333662"><ele></ele><time>2015-2-3T0:56:2Z</time></trkpt>
<trkpt lat="45.246720649302006" lon="5.474053239449859"><ele></ele><time>2015-2-3T0:56:5Z</time></trkpt>
<trkpt lat="45.246222848072648" lon="5.474085174500942"><ele></ele><time>2015-2-3T0:56:8Z</time></trkpt>
<trkpt lat="45.245726807042956" lon="5.474105207249522"><ele></ele><time>2015-2-3T0:56:11Z</time></trkpt>
<trkpt lat="45.245266053825617" lon="5.47396925278008"><ele></ele><time>2015-2-3T0:56:14Z</time></trkpt>
<trkpt lat="45.244862716645002" lon="5.473630791530013"><ele></ele><time>2015-2-3T0:56:17Z</time></trkpt>
<trkpt lat="45.24445946328342" lon="5.473325103521347"><ele></ele><time>2015-2-3T0:56:20Z</time></trkpt>
<trkpt lat="45.24408814497292" lon="5.472941212356091"><ele></ele><time>2015-2-3T0:56:23Z</time></trkpt>
<trkpt lat="45.24366888217628" lon="5.472680702805519"><ele></ele><time>2015-2-3T0:56:26Z</time></trkpt>
<trkpt lat="45.243174098432064" lon="5.472743734717369"><ele></ele><time>2015-2-3T0:56:29Z</time></trkpt>
<trkpt lat="45.242715105414391" lon="5.472672823816538"><ele></ele><time>2015-2-3T0:56:32Z</time></trkpt>
<trkpt lat="45.242260722443461" lon="5.472588166594505"><ele></ele><time>2015-2-3T0:56:35Z</time></trkpt>
<trkpt lat="45.241805333644152" lon="5.472612055018544"><ele></ele><time>2015-2-3T0:56:38Z</time></trkpt>
<trkpt lat="45.241346005350351" lon="5.472629740834236"><ele></ele><time>2015-2-3T0:56:41Z</time></trkpt>
<trkpt lat="45.240870667621493" lon="5.472677936777473"><ele></ele><time>2015-2-3T0:56:44Z</time></trkpt>
<trkpt lat="45.240410752594471" lon="5.472787991166115"><ele></ele><time>2015-2-3T0:56:47Z</time></trkpt>
<trkpt lat="45.239939019083977" lon="5.472908020019531"><ele></ele><time>2015-2-3T0:56:50Z</time></trkpt>
<trkpt lat="45.239460160955787" lon="5.473023187369108"><ele></ele><time>2015-2-3T0:56:53Z</time></trkpt>
<trkpt lat="45.239009633660316" lon="5.473121758550406"><ele></ele><time>2015-2-3T0:56:56Z</time></trkpt>
<trkpt lat="45.238552400842309" lon="5.473330719396472"><ele></ele><time>2015-2-3T0:56:59Z</time></trkpt>
<trkpt lat="45.238100867718458" lon="5.4735969286412"><ele></ele><time>2015-2-3T0:57:2Z</time></trkpt>
<trkpt lat="45.237677916884422" lon="5.473829777911305"><ele></ele><time>2015-2-3T0:57:5Z</time></trkpt>
<trkpt lat="45.237193275243044" lon="5.47381728887558"><ele></ele><time>2015-2-3T0:57:8Z</time></trkpt>
<trkpt lat="45.236722212284803" lon="5.473850648850203"><ele></ele><time>2015-2-3T0:57:11Z</time></trkpt>
<trkpt lat="45.236269338056445" lon="5.473764901980758"><ele></ele><time>2015-2-3T0:57:14Z</time></trkpt>
<trkpt lat="45.23579366505146" lon="5.473778732120991"><ele></ele><time>2015-2-3T0:57:17Z</time></trkpt>
<trkpt lat="45.235325368121266" lon="5.47372349537909"><ele></ele><time>2015-2-3T0:57:20Z</time></trkpt>
<trkpt lat="45.234872661530972" lon="5.473565999418497"><ele></ele><time>2015-2-3T0:57:23Z</time></trkpt>
<trkpt lat="45.234445100650191" lon="5.473266262561083"><ele></ele><time>2015-2-3T0:57:26Z</time></trkpt>
<trkpt lat="45.234015947207808" lon="5.473046824336052"><ele></ele><time>2015-2-3T0:57:29Z</time></trkpt>
<trkpt lat="45.233503729104996" lon="5.472918916493654"><ele></ele><time>2015-2-3T0:57:32Z</time></trkpt>
<trkpt lat="45.233042137697339" lon="5.472761336714029"><ele></ele><time>2015-2-3T0:57:35Z</time></trkpt>
<trkpt lat="45.232568979263306" lon="5.472831660881639"><ele></ele><time>2015-2-3T0:57:38Z</time></trkpt>
<trkpt lat="45.232076793909073" lon="5.47294951044023"><ele></ele><time>2015-2-3T0:57:41Z</time></trkpt>
<trkpt lat="45.231618052348495" lon="5.473143635317683"><ele></ele><time>2015-2-3T0:57:44Z</time></trkpt>
<trkpt lat="45.231132572516799" lon="5.473224939778447"><ele></ele><time>2015-2-3T0:57:47Z</time></trkpt>
<trkpt lat="45.230639968067408" lon="5.473246648907661"><ele></ele><time>2015-2-3T0:57:50Z</time></trkpt>
<trkpt lat="45.230147363618016" lon="5.473323175683618"><ele></ele><time>2015-2-3T0:57:53Z</time></trkpt>
<trkpt lat="45.229657860472798" lon="5.473501710221171"><ele></ele><time>2015-2-3T0:57:56Z</time></trkpt>
<trkpt lat="45.229170452803373" lon="5.473621152341366"><ele></ele><time>2015-2-3T0:57:59Z</time></trkpt>
<trkpt lat="45.228667370975018" lon="5.473652835935354"><ele></ele><time>2015-2-3T0:58:2Z</time></trkpt>
<trkpt lat="45.228160852566361" lon="5.473739085718989"><ele></ele><time>2015-2-3T0:58:5Z</time></trkpt>
<trkpt lat="45.227683251723647" lon="5.473830532282591"><ele></ele><time>2015-2-3T0:58:8Z</time></trkpt>
<trkpt lat="45.22725778631866" lon="5.474078468978405"><ele></ele><time>2015-2-3T0:58:11Z</time></trkpt>
<trkpt lat="45.22680826485157" lon="5.474192379042506"><ele></ele><time>2015-2-3T0:58:14Z</time></trkpt>
<trkpt lat="45.226310798898339" lon="5.474159521982074"><ele></ele><time>2015-2-3T0:58:17Z</time></trkpt>
<trkpt lat="45.225825319066644" lon="5.474144769832492"><ele></ele><time>2015-2-3T0:58:20Z</time></trkpt>
<trkpt lat="45.225347299128771" lon="5.474136052653194"><ele></ele><time>2015-2-3T0:58:23Z</time></trkpt>
<trkpt lat="45.224894173443317" lon="5.47418818809092"><ele></ele><time>2015-2-3T0:58:26Z</time></trkpt>
<trkpt lat="45.22443643771112" lon="5.474229007959366"><ele></ele><time>2015-2-3T0:58:29Z</time></trkpt>
<trkpt lat="45.223941067233682" lon="5.474292123690248"><ele></ele><time>2015-2-3T0:58:32Z</time></trkpt>
<trkpt lat="45.223441254347563" lon="5.474302349612117"><ele></ele><time>2015-2-3T0:58:35Z</time></trkpt>
<trkpt lat="45.22293834015727" lon="5.474292626604438"><ele></ele><time>2015-2-3T0:58:38Z</time></trkpt>
<trkpt lat="45.222484543919563" lon="5.474331183359027"><ele></ele><time>2015-2-3T0:58:41Z</time></trkpt>
<trkpt lat="45.221992693841457" lon="5.474214339628816"><ele></ele><time>2015-2-3T0:58:44Z</time></trkpt>
<trkpt lat="45.221542837098241" lon="5.474132280796766"><ele></ele><time>2015-2-3T0:58:47Z</time></trkpt>
<trkpt lat="45.221056183800101" lon="5.474109733477235"><ele></ele><time>2015-2-3T0:58:50Z</time></trkpt>
<trkpt lat="45.220541199669242" lon="5.47414074651897"><ele></ele><time>2015-2-3T0:58:53Z</time></trkpt>
<trkpt lat="45.220077177509665" lon="5.474142925813794"><ele></ele><time>2015-2-3T0:58:56Z</time></trkpt>
<trkpt lat="45.219632852822542" lon="5.473985010758042"><ele></ele><time>2015-2-3T0:58:59Z</time></trkpt>
<trkpt lat="45.219247033819556" lon="5.473598521202803"><ele></ele><time>2015-2-3T0:59:2Z</time></trkpt>
<trkpt lat="45.218947967514396" lon="5.473108515143395"><ele></ele><time>2015-2-3T0:59:5Z</time></trkpt>
<trkpt lat="45.218655355274677" lon="5.472620185464621"><ele></ele><time>2015-2-3T0:59:8Z</time></trkpt>
<trkpt lat="45.21835008636117" lon="5.472139902412891"><ele></ele><time>2015-2-3T0:59:11Z</time></trkpt>
<trkpt lat="45.218064934015274" lon="5.471561634913087"><ele></ele><time>2015-2-3T0:59:14Z</time></trkpt>
<trkpt lat="45.218005925416946" lon="5.470896447077394"><ele></ele><time>2015-2-3T0:59:17Z</time></trkpt>
<trkpt lat="45.218418650329113" lon="5.470554884523153"><ele></ele><time>2015-2-3T0:59:20Z</time></trkpt>
<trkpt lat="45.218767337501049" lon="5.470124557614327"><ele></ele><time>2015-2-3T0:59:23Z</time></trkpt>
<trkpt lat="45.218470618128777" lon="5.469690542668104"><ele></ele><time>2015-2-3T0:59:26Z</time></trkpt>
<trkpt lat="45.218037189915776" lon="5.469498848542571"><ele></ele><time>2015-2-3T0:59:29Z</time></trkpt>
<trkpt lat="45.217648856341839" lon="5.469125350937247"><ele></ele><time>2015-2-3T0:59:32Z</time></trkpt>
<trkpt lat="45.217229425907135" lon="5.468879761174321"><ele></ele><time>2015-2-3T0:59:35Z</time></trkpt>
<trkpt lat="45.216840673238039" lon="5.468581700697541"><ele></ele><time>2015-2-3T0:59:38Z</time></trkpt>
<trkpt lat="45.216449154540896" lon="5.468251537531614"><ele></ele><time>2015-2-3T0:59:41Z</time></trkpt>
<trkpt lat="45.216126283630729" lon="5.467791287228465"><ele></ele><time>2015-2-3T0:59:44Z</time></trkpt>
<trkpt lat="45.215955544263124" lon="5.467204973101616"><ele></ele><time>2015-2-3T0:59:47Z</time></trkpt>
<trkpt lat="45.2159343380481" lon="5.466572977602482"><ele></ele><time>2015-2-3T0:59:50Z</time></trkpt>
<trkpt lat="45.216016983613372" lon="5.465911645442247"><ele></ele><time>2015-2-3T0:59:53Z</time></trkpt>
<trkpt lat="45.216010697185993" lon="5.465229190886021"><ele></ele><time>2015-2-3T0:59:56Z</time></trkpt>
<trkpt lat="45.215967278927565" lon="5.464558722451329"><ele></ele><time>2015-2-3T0:59:59Z</time></trkpt>
<trkpt lat="45.215585315600038" lon="5.46424456872046"><ele></ele><time>2015-2-3T1:0:2Z</time></trkpt>
<trkpt lat="45.21511291153729" lon="5.464065112173557"><ele></ele><time>2015-2-3T1:0:5Z</time></trkpt>
<trkpt lat="45.21463799290359" lon="5.463896803557873"><ele></ele><time>2015-2-3T1:0:8Z</time></trkpt>
<trkpt lat="45.214205319061875" lon="5.463582146912813"><ele></ele><time>2015-2-3T1:0:11Z</time></trkpt>
<trkpt lat="45.213744984939694" lon="5.463232537731528"><ele></ele><time>2015-2-3T1:0:14Z</time></trkpt>
<trkpt lat="45.213315077126026" lon="5.462872283533216"><ele></ele><time>2015-2-3T1:0:17Z</time></trkpt>
<trkpt lat="45.212901765480638" lon="5.462559554725885"><ele></ele><time>2015-2-3T1:0:20Z</time></trkpt>
<trkpt lat="45.212471019476652" lon="5.462199803441763"><ele></ele><time>2015-2-3T1:0:23Z</time></trkpt>
<trkpt lat="45.21205997094512" lon="5.461910460144281"><ele></ele><time>2015-2-3T1:0:26Z</time></trkpt>
<trkpt lat="45.211670631542802" lon="5.461537046357989"><ele></ele><time>2015-2-3T1:0:29Z</time></trkpt>
<trkpt lat="45.211302498355508" lon="5.4611652251333"><ele></ele><time>2015-2-3T1:0:32Z</time></trkpt>
<trkpt lat="45.21088776178658" lon="5.46091066673398"><ele></ele><time>2015-2-3T1:0:35Z</time></trkpt>
<trkpt lat="45.21047436632216" lon="5.460638338699937"><ele></ele><time>2015-2-3T1:0:38Z</time></trkpt>
<trkpt lat="45.21003901027143" lon="5.460324184969068"><ele></ele><time>2015-2-3T1:0:41Z</time></trkpt>
<trkpt lat="45.209869025275111" lon="5.459764776751399"><ele></ele><time>2015-2-3T1:0:44Z</time></trkpt>
<trkpt lat="45.209924513474107" lon="5.459091290831566"><ele></ele><time>2015-2-3T1:0:47Z</time></trkpt>
<trkpt lat="45.209724437445402" lon="5.458761211484671"><ele></ele><time>2015-2-3T1:0:50Z</time></trkpt>
<trkpt lat="45.209407517686486" lon="5.459314752370119"><ele></ele><time>2015-2-3T1:0:53Z</time></trkpt>
<trkpt lat="45.209093196317554" lon="5.459864353761077"><ele></ele><time>2015-2-3T1:0:56Z</time></trkpt>
<trkpt lat="45.208762111142278" lon="5.460314713418484"><ele></ele><time>2015-2-3T1:0:59Z</time></trkpt>
<trkpt lat="45.208321390673518" lon="5.460107261314988"><ele></ele><time>2015-2-3T1:1:2Z</time></trkpt>
<trkpt lat="45.207904223352671" lon="5.459853289648891"><ele></ele><time>2015-2-3T1:1:5Z</time></trkpt>
<trkpt lat="45.207520416006446" lon="5.45945012010634"><ele></ele><time>2015-2-3T1:1:8Z</time></trkpt>
<trkpt lat="45.207202238962054" lon="5.45895709656179"><ele></ele><time>2015-2-3T1:1:11Z</time></trkpt>
<trkpt lat="45.206906273961067" lon="5.458443453535438"><ele></ele><time>2015-2-3T1:1:14Z</time></trkpt>
<trkpt lat="45.206575943157077" lon="5.457928720861673"><ele></ele><time>2015-2-3T1:1:17Z</time></trkpt>
<trkpt lat="45.206262292340398" lon="5.457380628213286"><ele></ele><time>2015-2-3T1:1:20Z</time></trkpt>
<trkpt lat="45.205895164981484" lon="5.456928424537182"><ele></ele><time>2015-2-3T1:1:23Z</time></trkpt>
<trkpt lat="45.205549160018563" lon="5.456512933596969"><ele></ele><time>2015-2-3T1:1:26Z</time></trkpt>
<trkpt lat="45.205270126461983" lon="5.456001302227378"><ele></ele><time>2015-2-3T1:1:29Z</time></trkpt>
<trkpt lat="45.204952117055655" lon="5.45553769916296"><ele></ele><time>2015-2-3T1:1:32Z</time></trkpt>
<trkpt lat="45.204647351056337" lon="5.455015590414405"><ele></ele><time>2015-2-3T1:1:35Z</time></trkpt>
<trkpt lat="45.204354152083397" lon="5.454445704817772"><ele></ele><time>2015-2-3T1:1:38Z</time></trkpt>
<trkpt lat="45.204097582027316" lon="5.45391982421279"><ele></ele><time>2015-2-3T1:1:41Z</time></trkpt>
<trkpt lat="45.203891135752201" lon="5.453323451802135"><ele></ele><time>2015-2-3T1:1:44Z</time></trkpt>
<trkpt lat="45.203798012807965" lon="5.452636303380132"><ele></ele><time>2015-2-3T1:1:47Z</time></trkpt>
<trkpt lat="45.203767083585262" lon="5.4519731272012"><ele></ele><time>2015-2-3T1:1:50Z</time></trkpt>
<trkpt lat="45.203750906512141" lon="5.451272232457995"><ele></ele><time>2015-2-3T1:1:53Z</time></trkpt>
<trkpt lat="45.203683599829674" lon="5.450563374906778"><ele></ele><time>2015-2-3T1:1:56Z</time></trkpt>
<trkpt lat="45.20364185795188" lon="5.449853176251054"><ele></ele><time>2015-2-3T1:1:59Z</time></trkpt>
<trkpt lat="45.203502047806978" lon="5.449167285114527"><ele></ele><time>2015-2-3T1:2:2Z</time></trkpt>
<trkpt lat="45.203411774709821" lon="5.448520453646779"><ele></ele><time>2015-2-3T1:2:5Z</time></trkpt>
<trkpt lat="45.203509423881769" lon="5.447838502004743"><ele></ele><time>2015-2-3T1:2:8Z</time></trkpt>
<trkpt lat="45.203695502132177" lon="5.447223521769047"><ele></ele><time>2015-2-3T1:2:11Z</time></trkpt>
<trkpt lat="45.203811842948198" lon="5.446547521278262"><ele></ele><time>2015-2-3T1:2:14Z</time></trkpt>
<trkpt lat="45.203923154622316" lon="5.445924494415522"><ele></ele><time>2015-2-3T1:2:17Z</time></trkpt>
<trkpt lat="45.204016612842679" lon="5.445278584957123"><ele></ele><time>2015-2-3T1:2:20Z</time></trkpt>
<trkpt lat="45.203953580930829" lon="5.444628987461329"><ele></ele><time>2015-2-3T1:2:23Z</time></trkpt>
<trkpt lat="45.203873114660382" lon="5.443978048861027"><ele></ele><time>2015-2-3T1:2:26Z</time></trkpt>
<trkpt lat="45.203778147697449" lon="5.443333815783262"><ele></ele><time>2015-2-3T1:2:29Z</time></trkpt>
<trkpt lat="45.203546807169914" lon="5.44269553385675"><ele></ele><time>2015-2-3T1:2:32Z</time></trkpt>
<trkpt lat="45.203344551846385" lon="5.442096311599016"><ele></ele><time>2015-2-3T1:2:35Z</time></trkpt>
<trkpt lat="45.203179260715842" lon="5.441428441554308"><ele></ele><time>2015-2-3T1:2:38Z</time></trkpt>
<trkpt lat="45.203041126951575" lon="5.440771467983723"><ele></ele><time>2015-2-3T1:2:41Z</time></trkpt>
<trkpt lat="45.20309024490416" lon="5.440034363418818"><ele></ele><time>2015-2-3T1:2:44Z</time></trkpt>
<trkpt lat="45.203205328434706" lon="5.439374623820186"><ele></ele><time>2015-2-3T1:2:47Z</time></trkpt>
<trkpt lat="45.203286549076438" lon="5.438713040202856"><ele></ele><time>2015-2-3T1:2:50Z</time></trkpt>
<trkpt lat="45.203306246548891" lon="5.43800326064229"><ele></ele><time>2015-2-3T1:2:53Z</time></trkpt>
<trkpt lat="45.203276323154569" lon="5.437298929318786"><ele></ele><time>2015-2-3T1:2:56Z</time></trkpt>
<trkpt lat="45.203046910464764" lon="5.436714040115476"><ele></ele><time>2015-2-3T1:2:59Z</time></trkpt>
<trkpt lat="45.202895198017359" lon="5.436086151748896"><ele></ele><time>2015-2-3T1:3:2Z</time></trkpt>
<trkpt lat="45.202984716743231" lon="5.435435799881816"><ele></ele><time>2015-2-3T1:3:5Z</time></trkpt>
<trkpt lat="45.202698055654764" lon="5.434922156855464"><ele></ele><time>2015-2-3T1:3:8Z</time></trkpt>
<trkpt lat="45.202343752607703" lon="5.434500128030777"><ele></ele><time>2015-2-3T1:3:11Z</time></trkpt>
<trkpt lat="45.202016942203045" lon="5.434055803343654"><ele></ele><time>2015-2-3T1:3:14Z</time></trkpt>
<trkpt lat="45.201710667461157" lon="5.433505782857537"><ele></ele><time>2015-2-3T1:3:17Z</time></trkpt>
<trkpt lat="45.201455354690552" lon="5.432950062677264"><ele></ele><time>2015-2-3T1:3:20Z</time></trkpt>
<trkpt lat="45.201443871483207" lon="5.432269619777799"><ele></ele><time>2015-2-3T1:3:23Z</time></trkpt>
<trkpt lat="45.201322082430124" lon="5.431616334244609"><ele></ele><time>2015-2-3T1:3:26Z</time></trkpt>
<trkpt lat="45.20103064365685" lon="5.431103361770511"><ele></ele><time>2015-2-3T1:3:29Z</time></trkpt>
<trkpt lat="45.200738869607449" lon="5.430612349882722"><ele></ele><time>2015-2-3T1:3:32Z</time></trkpt>
<trkpt lat="45.200426895171404" lon="5.430090492591262"><ele></ele><time>2015-2-3T1:3:35Z</time></trkpt>
<trkpt lat="45.200170576572418" lon="5.42955924756825"><ele></ele><time>2015-2-3T1:3:38Z</time></trkpt>
<trkpt lat="45.19995030015707" lon="5.428974945098162"><ele></ele><time>2015-2-3T1:3:41Z</time></trkpt>
<trkpt lat="45.199705632403493" lon="5.42838167399168"><ele></ele><time>2015-2-3T1:3:44Z</time></trkpt>
<trkpt lat="45.19944210536778" lon="5.428012032061815"><ele></ele><time>2015-2-3T1:3:47Z</time></trkpt>
<trkpt lat="45.199112612754107" lon="5.427500903606415"><ele></ele><time>2015-2-3T1:3:50Z</time></trkpt>
<trkpt lat="45.198855958878994" lon="5.426948703825474"><ele></ele><time>2015-2-3T1:3:53Z</time></trkpt>
<trkpt lat="45.198743138462305" lon="5.426328694447875"><ele></ele><time>2015-2-3T1:3:56Z</time></trkpt>
<trkpt lat="45.198360001668334" lon="5.425941869616509"><ele></ele><time>2015-2-3T1:3:59Z</time></trkpt>
<trkpt lat="45.197982899844646" lon="5.425458904355764"><ele></ele><time>2015-2-3T1:4:2Z</time></trkpt>
<trkpt lat="45.197634296491742" lon="5.424989517778158"><ele></ele><time>2015-2-3T1:4:5Z</time></trkpt>
<trkpt lat="45.197258703410625" lon="5.424547456204891"><ele></ele><time>2015-2-3T1:4:8Z</time></trkpt>
<trkpt lat="45.196817647665739" lon="5.424156440421939"><ele></ele><time>2015-2-3T1:4:11Z</time></trkpt>
<trkpt lat="45.19636083394289" lon="5.423780176788569"><ele></ele><time>2015-2-3T1:4:14Z</time></trkpt>
<trkpt lat="45.195978116244078" lon="5.423407349735498"><ele></ele><time>2015-2-3T1:4:17Z</time></trkpt>
<trkpt lat="45.195942241698503" lon="5.423521008342505"><ele></ele><time>2015-2-3T1:4:20Z</time></trkpt>
<trkpt lat="45.195624902844429" lon="5.423155808821321"><ele></ele><time>2015-2-3T1:4:23Z</time></trkpt>
<trkpt lat="45.195235479623079" lon="5.42270528152585"><ele></ele><time>2015-2-3T1:4:26Z</time></trkpt>
<trkpt lat="45.194844212383032" lon="5.422355588525534"><ele></ele><time>2015-2-3T1:4:29Z</time></trkpt>
<trkpt lat="45.194399384781718" lon="5.422125672921538"><ele></ele><time>2015-2-3T1:4:32Z</time></trkpt>
<trkpt lat="45.19394014030695" lon="5.421839850023389"><ele></ele><time>2015-2-3T1:4:35Z</time></trkpt>
<trkpt lat="45.193842323496938" lon="5.421255212277174"><ele></ele><time>2015-2-3T1:4:38Z</time></trkpt>
<trkpt lat="45.193783566355705" lon="5.421914029866457"><ele></ele><time>2015-2-3T1:4:41Z</time></trkpt>
<trkpt lat="45.193917509168386" lon="5.42251761071384"><ele></ele><time>2015-2-3T1:4:44Z</time></trkpt>
<trkpt lat="45.193589022383094" lon="5.422106981277466"><ele></ele><time>2015-2-3T1:4:47Z</time></trkpt>
<trkpt lat="45.193312419578433" lon="5.42160339653492"><ele></ele><time>2015-2-3T1:4:50Z</time></trkpt>
<trkpt lat="45.192946381866932" lon="5.421414552256465"><ele></ele><time>2015-2-3T1:4:53Z</time></trkpt>
<trkpt lat="45.192630887031555" lon="5.421037618070841"><ele></ele><time>2015-2-3T1:4:56Z</time></trkpt>
<trkpt lat="45.19223291426897" lon="5.420486507937312"><ele></ele><time>2015-2-3T1:4:59Z</time></trkpt>
<trkpt lat="45.191977936774492" lon="5.419936655089259"><ele></ele><time>2015-2-3T1:5:2Z</time></trkpt>
<trkpt lat="45.191937200725079" lon="5.419326620176435"><ele></ele><time>2015-2-3T1:5:5Z</time></trkpt>
<trkpt lat="45.191765204071999" lon="5.418510977178812"><ele></ele><time>2015-2-3T1:5:8Z</time></trkpt>
<trkpt lat="45.191371003165841" lon="5.418340070173144"><ele></ele><time>2015-2-3T1:5:11Z</time></trkpt>
<trkpt lat="45.191043354570866" lon="5.418322300538421"><ele></ele><time>2015-2-3T1:5:14Z</time></trkpt>
<trkpt lat="45.191346360370517" lon="5.41787127032876"><ele></ele><time>2015-2-3T1:5:17Z</time></trkpt>
<trkpt lat="45.191609049215913" lon="5.417348323389888"><ele></ele><time>2015-2-3T1:5:20Z</time></trkpt>
<trkpt lat="45.191752295941114" lon="5.416728984564543"><ele></ele><time>2015-2-3T1:5:23Z</time></trkpt>
<trkpt lat="45.191864110529423" lon="5.416081231087446"><ele></ele><time>2015-2-3T1:5:26Z</time></trkpt>
<trkpt lat="45.191978607326746" lon="5.415464490652084"><ele></ele><time>2015-2-3T1:5:29Z</time></trkpt>
<trkpt lat="45.192146832123399" lon="5.414867615327239"><ele></ele><time>2015-2-3T1:5:32Z</time></trkpt>
<trkpt lat="45.192322935909033" lon="5.414233524352312"><ele></ele><time>2015-2-3T1:5:35Z</time></trkpt>
<trkpt lat="45.192252695560455" lon="5.413537742570043"><ele></ele><time>2015-2-3T1:5:38Z</time></trkpt>
<trkpt lat="45.191935272887349" lon="5.413032397627831"><ele></ele><time>2015-2-3T1:5:41Z</time></trkpt>
<trkpt lat="45.191622879356146" lon="5.412527220323682"><ele></ele><time>2015-2-3T1:5:44Z</time></trkpt>
<trkpt lat="45.191431436687708" lon="5.411908300593495"><ele></ele><time>2015-2-3T1:5:47Z</time></trkpt>
<trkpt lat="45.191267738118768" lon="5.411304552108049"><ele></ele><time>2015-2-3T1:5:50Z</time></trkpt>
<trkpt lat="45.191136561334133" lon="5.41065176948905"><ele></ele><time>2015-2-3T1:5:53Z</time></trkpt>
<trkpt lat="45.191054753959179" lon="5.409948695451021"><ele></ele><time>2015-2-3T1:5:56Z</time></trkpt>
<trkpt lat="45.19097713753581" lon="5.409300606697798"><ele></ele><time>2015-2-3T1:5:59Z</time></trkpt>
<trkpt lat="45.190884433686733" lon="5.408652685582638"><ele></ele><time>2015-2-3T1:6:2Z</time></trkpt>
<trkpt lat="45.190736660733819" lon="5.408015325665474"><ele></ele><time>2015-2-3T1:6:5Z</time></trkpt>
<trkpt lat="45.190540440380573" lon="5.407384838908911"><ele></ele><time>2015-2-3T1:6:8Z</time></trkpt>
<trkpt lat="45.190330892801285" lon="5.406766422092915"><ele></ele><time>2015-2-3T1:6:11Z</time></trkpt>
<trkpt lat="45.190146071836352" lon="5.40617885068059"><ele></ele><time>2015-2-3T1:6:14Z</time></trkpt>
<trkpt lat="45.189986480399966" lon="5.405556578189135"><ele></ele><time>2015-2-3T1:6:17Z</time></trkpt>
<trkpt lat="45.189982373267412" lon="5.404884517192841"><ele></ele><time>2015-2-3T1:6:20Z</time></trkpt>
<trkpt lat="45.190053954720497" lon="5.404250426217914"><ele></ele><time>2015-2-3T1:6:23Z</time></trkpt>
<trkpt lat="45.190152944996953" lon="5.403576185926795"><ele></ele><time>2015-2-3T1:6:26Z</time></trkpt>
<trkpt lat="45.190148921683431" lon="5.402924325317144"><ele></ele><time>2015-2-3T1:6:29Z</time></trkpt>
<trkpt lat="45.190092008560896" lon="5.402282271534205"><ele></ele><time>2015-2-3T1:6:32Z</time></trkpt>
<trkpt lat="45.190046830102801" lon="5.401617754250765"><ele></ele><time>2015-2-3T1:6:35Z</time></trkpt>
<trkpt lat="45.189982121810317" lon="5.400930605828762"><ele></ele><time>2015-2-3T1:6:38Z</time></trkpt>
<trkpt lat="45.189900984987617" lon="5.400226945057511"><ele></ele><time>2015-2-3T1:6:41Z</time></trkpt>
<trkpt lat="45.189821356907487" lon="5.399555806070566"><ele></ele><time>2015-2-3T1:6:44Z</time></trkpt>
<trkpt lat="45.189863266423345" lon="5.398922972381115"><ele></ele><time>2015-2-3T1:6:47Z</time></trkpt>
<trkpt lat="45.190097205340862" lon="5.398375885561109"><ele></ele><time>2015-2-3T1:6:50Z</time></trkpt>
<trkpt lat="45.190374227240682" lon="5.397823601961136"><ele></ele><time>2015-2-3T1:6:53Z</time></trkpt>
<trkpt lat="45.190652254968882" lon="5.397286908701062"><ele></ele><time>2015-2-3T1:6:56Z</time></trkpt>
<trkpt lat="45.190931959077716" lon="5.396772176027298"><ele></ele><time>2015-2-3T1:6:59Z</time></trkpt>
<trkpt lat="45.191177716478705" lon="5.396230453625321"><ele></ele><time>2015-2-3T1:7:2Z</time></trkpt>
<trkpt lat="45.191442081704736" lon="5.395694682374597"><ele></ele><time>2015-2-3T1:7:5Z</time></trkpt>
<trkpt lat="45.191572504118085" lon="5.395435346290469"><ele></ele><time>2015-2-3T1:7:8Z</time></trkpt>
<trkpt lat="45.19131668843329" lon="5.395995508879423"><ele></ele><time>2015-2-3T1:7:11Z</time></trkpt>
<trkpt lat="45.191053245216608" lon="5.396568160504103"><ele></ele><time>2015-2-3T1:7:14Z</time></trkpt>
<trkpt lat="45.190701205283403" lon="5.396329611539841"><ele></ele><time>2015-2-3T1:7:17Z</time></trkpt>
<trkpt lat="45.190370036289096" lon="5.395842036232352"><ele></ele><time>2015-2-3T1:7:20Z</time></trkpt>
<trkpt lat="45.190033754333854" lon="5.395348593592644"><ele></ele><time>2015-2-3T1:7:23Z</time></trkpt>
<trkpt lat="45.189741142094135" lon="5.39482849650085"><ele></ele><time>2015-2-3T1:7:26Z</time></trkpt>
<trkpt lat="45.189498066902161" lon="5.394281493499875"><ele></ele><time>2015-2-3T1:7:29Z</time></trkpt>
<trkpt lat="45.18916379660368" lon="5.393788386136293"><ele></ele><time>2015-2-3T1:7:32Z</time></trkpt>
<trkpt lat="45.188817959278822" lon="5.39335479028523"><ele></ele><time>2015-2-3T1:7:35Z</time></trkpt>
<trkpt lat="45.188464745879173" lon="5.392829328775406"><ele></ele><time>2015-2-3T1:7:38Z</time></trkpt>
<trkpt lat="45.188185209408402" lon="5.392212420701981"><ele></ele><time>2015-2-3T1:7:41Z</time></trkpt>
<trkpt lat="45.187945906072855" lon="5.391637086868286"><ele></ele><time>2015-2-3T1:7:44Z</time></trkpt>
<trkpt lat="45.187684055417776" lon="5.391192510724068"><ele></ele><time>2015-2-3T1:7:47Z</time></trkpt>
<trkpt lat="45.187458749860525" lon="5.390632096678019"><ele></ele><time>2015-2-3T1:7:50Z</time></trkpt>
<trkpt lat="45.187274012714624" lon="5.389985181391239"><ele></ele><time>2015-2-3T1:7:53Z</time></trkpt>
<trkpt lat="45.18728356808424" lon="5.389330303296447"><ele></ele><time>2015-2-3T1:7:56Z</time></trkpt>
<trkpt lat="45.187468808144331" lon="5.388868460431695"><ele></ele><time>2015-2-3T1:7:59Z</time></trkpt>
<trkpt lat="45.18729580566287" lon="5.388217773288488"><ele></ele><time>2015-2-3T1:8:2Z</time></trkpt>
<trkpt lat="45.187280299142003" lon="5.387576054781675"><ele></ele><time>2015-2-3T1:8:5Z</time></trkpt>
<trkpt lat="45.187145015224814" lon="5.387022262439132"><ele></ele><time>2015-2-3T1:8:8Z</time></trkpt>
<trkpt lat="45.186723237857223" lon="5.38673291914165"><ele></ele><time>2015-2-3T1:8:11Z</time></trkpt>
<trkpt lat="45.18626382574439" lon="5.386433517560363"><ele></ele><time>2015-2-3T1:8:14Z</time></trkpt>
<trkpt lat="45.18580449745059" lon="5.386128416284919"><ele></ele><time>2015-2-3T1:8:17Z</time></trkpt>
<trkpt lat="45.18534324131906" lon="5.385845191776753"><ele></ele><time>2015-2-3T1:8:20Z</time></trkpt>
<trkpt lat="45.184909561648965" lon="5.385587532073259"><ele></ele><time>2015-2-3T1:8:23Z</time></trkpt>
<trkpt lat="45.184423662722111" lon="5.385383935645223"><ele></ele><time>2015-2-3T1:8:26Z</time></trkpt>
<trkpt lat="45.183971459046006" lon="5.38506131619215"><ele></ele><time>2015-2-3T1:8:29Z</time></trkpt>
<trkpt lat="45.183599637821317" lon="5.384640628471971"><ele></ele><time>2015-2-3T1:8:32Z</time></trkpt>
<trkpt lat="45.183167299255729" lon="5.384379113093019"><ele></ele><time>2015-2-3T1:8:35Z</time></trkpt>
<trkpt lat="45.1826679892838" lon="5.384317254647613"><ele></ele><time>2015-2-3T1:8:38Z</time></trkpt>
<trkpt lat="45.182158704847097" lon="5.384331922978163"><ele></ele><time>2015-2-3T1:8:41Z</time></trkpt>
<trkpt lat="45.181642882525921" lon="5.384268136695027"><ele></ele><time>2015-2-3T1:8:44Z</time></trkpt>
<trkpt lat="45.181144075468183" lon="5.384184820577502"><ele></ele><time>2015-2-3T1:8:47Z</time></trkpt>
<trkpt lat="45.180691704154015" lon="5.384076945483685"><ele></ele><time>2015-2-3T1:8:50Z</time></trkpt>
<trkpt lat="45.180216785520315" lon="5.383996060118079"><ele></ele><time>2015-2-3T1:8:53Z</time></trkpt>
<trkpt lat="45.179711943492293" lon="5.384003017097712"><ele></ele><time>2015-2-3T1:8:56Z</time></trkpt>
<trkpt lat="45.179216824471951" lon="5.384075688198209"><ele></ele><time>2015-2-3T1:8:59Z</time></trkpt>
<trkpt lat="45.178819941356778" lon="5.38437089882791"><ele></ele><time>2015-2-3T1:9:2Z</time></trkpt>
<trkpt lat="45.178365642204881" lon="5.384467961266637"><ele></ele><time>2015-2-3T1:9:5Z</time></trkpt>
<trkpt lat="45.17786767333746" lon="5.384387411177158"><ele></ele><time>2015-2-3T1:9:8Z</time></trkpt>
<trkpt lat="45.177412535995245" lon="5.384546918794513"><ele></ele><time>2015-2-3T1:9:11Z</time></trkpt>
<trkpt lat="45.176984472200274" lon="5.384749257937074"><ele></ele><time>2015-2-3T1:9:14Z</time></trkpt>
<trkpt lat="45.176503518596292" lon="5.384666780009866"><ele></ele><time>2015-2-3T1:9:17Z</time></trkpt>
<trkpt lat="45.176021559163928" lon="5.384490005671978"><ele></ele><time>2015-2-3T1:9:20Z</time></trkpt>
<trkpt lat="45.175622664391994" lon="5.384171828627586"><ele></ele><time>2015-2-3T1:9:23Z</time></trkpt>
<trkpt lat="45.175270708277822" lon="5.383719289675355"><ele></ele><time>2015-2-3T1:9:26Z</time></trkpt>
<trkpt lat="45.174898635596037" lon="5.383306313306093"><ele></ele><time>2015-2-3T1:9:29Z</time></trkpt>
<trkpt lat="45.174526227638125" lon="5.382918147370219"><ele></ele><time>2015-2-3T1:9:32Z</time></trkpt>
<trkpt lat="45.17408961430192" lon="5.382593683898449"><ele></ele><time>2015-2-3T1:9:35Z</time></trkpt>
<trkpt lat="45.173609750345349" lon="5.382441049441695"><ele></ele><time>2015-2-3T1:9:38Z</time></trkpt>
<trkpt lat="45.173142710700631" lon="5.38245789706707"><ele></ele><time>2015-2-3T1:9:41Z</time></trkpt>
<trkpt lat="45.172654381021857" lon="5.382485138252378"><ele></ele><time>2015-2-3T1:9:44Z</time></trkpt>
<trkpt lat="45.172173846513033" lon="5.38254045881331"><ele></ele><time>2015-2-3T1:9:47Z</time></trkpt>
<trkpt lat="45.171701861545444" lon="5.382625283673406"><ele></ele><time>2015-2-3T1:9:50Z</time></trkpt>
<trkpt lat="45.17121990211308" lon="5.382696278393269"><ele></ele><time>2015-2-3T1:9:53Z</time></trkpt>
<trkpt lat="45.170735344290733" lon="5.38258689455688"><ele></ele><time>2015-2-3T1:9:56Z</time></trkpt>
<trkpt lat="45.170355644077063" lon="5.382248852401972"><ele></ele><time>2015-2-3T1:9:59Z</time></trkpt>
<trkpt lat="45.170007711276412" lon="5.381766054779291"><ele></ele><time>2015-2-3T1:10:2Z</time></trkpt>
<trkpt lat="45.169716356322169" lon="5.381172532215715"><ele></ele><time>2015-2-3T1:10:5Z</time></trkpt>
<trkpt lat="45.16954536549747" lon="5.380538022145629"><ele></ele><time>2015-2-3T1:10:8Z</time></trkpt>
<trkpt lat="45.169390719383955" lon="5.379935782402754"><ele></ele><time>2015-2-3T1:10:11Z</time></trkpt>
<trkpt lat="45.169145967811346" lon="5.379351899027824"><ele></ele><time>2015-2-3T1:10:14Z</time></trkpt>
<trkpt lat="45.168812284246087" lon="5.378862312063575"><ele></ele><time>2015-2-3T1:10:17Z</time></trkpt>
<trkpt lat="45.168415317311883" lon="5.37842963822186"><ele></ele><time>2015-2-3T1:10:20Z</time></trkpt>
<trkpt lat="45.168051207438111" lon="5.377980871126056"><ele></ele><time>2015-2-3T1:10:23Z</time></trkpt>
<trkpt lat="45.167752560228109" lon="5.377441076561809"><ele></ele><time>2015-2-3T1:10:26Z</time></trkpt>
<trkpt lat="45.167467575520277" lon="5.376904048025608"><ele></ele><time>2015-2-3T1:10:29Z</time></trkpt>
<trkpt lat="45.16716917976737" lon="5.376416724175215"><ele></ele><time>2015-2-3T1:10:32Z</time></trkpt>
<trkpt lat="45.166794843971729" lon="5.376010201871395"><ele></ele><time>2015-2-3T1:10:35Z</time></trkpt>
<trkpt lat="45.166420424357057" lon="5.375569649040699"><ele></ele><time>2015-2-3T1:10:38Z</time></trkpt>
<trkpt lat="45.166092356666923" lon="5.375038320198655"><ele></ele><time>2015-2-3T1:10:41Z</time></trkpt>
<trkpt lat="45.165794380009174" lon="5.374553930014372"><ele></ele><time>2015-2-3T1:10:44Z</time></trkpt>
<trkpt lat="45.1654804777354" lon="5.374044729396701"><ele></ele><time>2015-2-3T1:10:47Z</time></trkpt>
<trkpt lat="45.165174622088671" lon="5.373552795499563"><ele></ele><time>2015-2-3T1:10:50Z</time></trkpt>
<trkpt lat="45.164895169436932" lon="5.372998835518956"><ele></ele><time>2015-2-3T1:10:53Z</time></trkpt>
<trkpt lat="45.16461756080389" lon="5.37245417945087"><ele></ele><time>2015-2-3T1:10:56Z</time></trkpt>
<trkpt lat="45.164320422336459" lon="5.371908936649561"><ele></ele><time>2015-2-3T1:10:59Z</time></trkpt>
<trkpt lat="45.163982464000583" lon="5.371395712718368"><ele></ele><time>2015-2-3T1:11:2Z</time></trkpt>
<trkpt lat="45.163694377988577" lon="5.37087301723659"><ele></ele><time>2015-2-3T1:11:5Z</time></trkpt>
<trkpt lat="45.163346361368895" lon="5.370320649817586"><ele></ele><time>2015-2-3T1:11:8Z</time></trkpt>
<trkpt lat="45.163007481023669" lon="5.36981119774282"><ele></ele><time>2015-2-3T1:11:11Z</time></trkpt>
<trkpt lat="45.162680419161916" lon="5.36933820694685"><ele></ele><time>2015-2-3T1:11:14Z</time></trkpt>
<trkpt lat="45.162346987053752" lon="5.368832862004638"><ele></ele><time>2015-2-3T1:11:17Z</time></trkpt>
<trkpt lat="45.162027133628726" lon="5.368350399658084"><ele></ele><time>2015-2-3T1:11:20Z</time></trkpt>
<trkpt lat="45.161611223593354" lon="5.367976650595665"><ele></ele><time>2015-2-3T1:11:23Z</time></trkpt>
<trkpt lat="45.161167737096548" lon="5.367659144103527"><ele></ele><time>2015-2-3T1:11:26Z</time></trkpt>
<trkpt lat="45.160783594474196" lon="5.367274917662144"><ele></ele><time>2015-2-3T1:11:29Z</time></trkpt>
<trkpt lat="45.160414204001427" lon="5.366805111989379"><ele></ele><time>2015-2-3T1:11:32Z</time></trkpt>
<trkpt lat="45.160051435232162" lon="5.366368079558015"><ele></ele><time>2015-2-3T1:11:35Z</time></trkpt>
<trkpt lat="45.159714398905635" lon="5.36587430164218"><ele></ele><time>2015-2-3T1:11:38Z</time></trkpt>
<trkpt lat="45.15941952355206" lon="5.365342972800136"><ele></ele><time>2015-2-3T1:11:41Z</time></trkpt>
<trkpt lat="45.159058598801494" lon="5.364876687526703"><ele></ele><time>2015-2-3T1:11:44Z</time></trkpt>
<trkpt lat="45.15865090303123" lon="5.364542752504349"><ele></ele><time>2015-2-3T1:11:47Z</time></trkpt>
<trkpt lat="45.158201800659299" lon="5.364316860213876"><ele></ele><time>2015-2-3T1:11:50Z</time></trkpt>
<trkpt lat="45.157731240615249" lon="5.364120556041598"><ele></ele><time>2015-2-3T1:11:53Z</time></trkpt>
<trkpt lat="45.157318348065019" lon="5.363805228844285"><ele></ele><time>2015-2-3T1:11:56Z</time></trkpt>
<trkpt lat="45.156953232362866" lon="5.363347325474024"><ele></ele><time>2015-2-3T1:11:59Z</time></trkpt>
<trkpt lat="45.156571185216308" lon="5.36298162303865"><ele></ele><time>2015-2-3T1:12:2Z</time></trkpt>
<trkpt lat="45.156147899106145" lon="5.362665960565209"><ele></ele><time>2015-2-3T1:12:5Z</time></trkpt>
<trkpt lat="45.155727379024029" lon="5.362379886209965"><ele></ele><time>2015-2-3T1:12:8Z</time></trkpt>
<trkpt lat="45.155304344370961" lon="5.362099763005972"><ele></ele><time>2015-2-3T1:12:11Z</time></trkpt>
<trkpt lat="45.155094629153609" lon="5.361538846045733"><ele></ele><time>2015-2-3T1:12:14Z</time></trkpt>
<trkpt lat="45.154788522049785" lon="5.361063424497843"><ele></ele><time>2015-2-3T1:12:17Z</time></trkpt>
<trkpt lat="45.154441595077515" lon="5.360615244135261"><ele></ele><time>2015-2-3T1:12:20Z</time></trkpt>
<trkpt lat="45.154082681983709" lon="5.360194221138954"><ele></ele><time>2015-2-3T1:12:23Z</time></trkpt>
<trkpt lat="45.153734581544995" lon="5.359784094616771"><ele></ele><time>2015-2-3T1:12:26Z</time></trkpt>
<trkpt lat="45.153382541611791" lon="5.35936919040978"><ele></ele><time>2015-2-3T1:12:29Z</time></trkpt>
<trkpt lat="45.152993705123663" lon="5.35903986543417"><ele></ele><time>2015-2-3T1:12:32Z</time></trkpt>
<trkpt lat="45.152560193091631" lon="5.358794946223497"><ele></ele><time>2015-2-3T1:12:35Z</time></trkpt>
<trkpt lat="45.152121735736728" lon="5.358577435836196"><ele></ele><time>2015-2-3T1:12:38Z</time></trkpt>
<trkpt lat="45.151722505688667" lon="5.358295971527696"><ele></ele><time>2015-2-3T1:12:41Z</time></trkpt>
<trkpt lat="45.151612870395184" lon="5.357691468670964"><ele></ele><time>2015-2-3T1:12:44Z</time></trkpt>
<trkpt lat="45.151763996109366" lon="5.357064669951797"><ele></ele><time>2015-2-3T1:12:47Z</time></trkpt>
<trkpt lat="45.151386139914393" lon="5.356801142916083"><ele></ele><time>2015-2-3T1:12:50Z</time></trkpt>
<trkpt lat="45.150984562933445" lon="5.356492605060339"><ele></ele><time>2015-2-3T1:12:53Z</time></trkpt>
<trkpt lat="45.150567479431629" lon="5.356137296184897"><ele></ele><time>2015-2-3T1:12:56Z</time></trkpt>
<trkpt lat="45.150147546082735" lon="5.35579145886004"><ele></ele><time>2015-2-3T1:12:59Z</time></trkpt>
<trkpt lat="45.149745130911469" lon="5.355435982346535"><ele></ele><time>2015-2-3T1:13:2Z</time></trkpt>
<trkpt lat="45.149358808994293" lon="5.355053432285786"><ele></ele><time>2015-2-3T1:13:5Z</time></trkpt>
<trkpt lat="45.149000901728868" lon="5.354655040428042"><ele></ele><time>2015-2-3T1:13:8Z</time></trkpt>
<trkpt lat="45.148593708872795" lon="5.354283638298512"><ele></ele><time>2015-2-3T1:13:11Z</time></trkpt>
<trkpt lat="45.148153407499194" lon="5.353953391313553"><ele></ele><time>2015-2-3T1:13:14Z</time></trkpt>
<trkpt lat="45.147794662043452" lon="5.353556843474507"><ele></ele><time>2015-2-3T1:13:17Z</time></trkpt>
<trkpt lat="45.147445220500231" lon="5.353053091093898"><ele></ele><time>2015-2-3T1:13:20Z</time></trkpt>
<trkpt lat="45.147077757865191" lon="5.352648161351681"><ele></ele><time>2015-2-3T1:13:23Z</time></trkpt>
<trkpt lat="45.146702164784074" lon="5.352257899940014"><ele></ele><time>2015-2-3T1:13:26Z</time></trkpt>
<trkpt lat="45.146321458742023" lon="5.351877277716994"><ele></ele><time>2015-2-3T1:13:29Z</time></trkpt>
<trkpt lat="45.145949553698301" lon="5.35147201269865"><ele></ele><time>2015-2-3T1:13:32Z</time></trkpt>
<trkpt lat="45.145574044436216" lon="5.351078566163778"><ele></ele><time>2015-2-3T1:13:35Z</time></trkpt>
<trkpt lat="45.145187806338072" lon="5.350654693320394"><ele></ele><time>2015-2-3T1:13:38Z</time></trkpt>
<trkpt lat="45.144786480814219" lon="5.350202238187194"><ele></ele><time>2015-2-3T1:13:41Z</time></trkpt>
<trkpt lat="45.144438967108727" lon="5.349797308444977"><ele></ele><time>2015-2-3T1:13:44Z</time></trkpt>
<trkpt lat="45.144070917740464" lon="5.349372597411275"><ele></ele><time>2015-2-3T1:13:47Z</time></trkpt>
<trkpt lat="45.143717955797911" lon="5.34894579090178"><ele></ele><time>2015-2-3T1:13:50Z</time></trkpt>
<trkpt lat="45.143332220613956" lon="5.348501298576593"><ele></ele><time>2015-2-3T1:13:53Z</time></trkpt>
<trkpt lat="45.142951430752873" lon="5.34804280847311"><ele></ele><time>2015-2-3T1:13:56Z</time></trkpt>
<trkpt lat="45.142545076087117" lon="5.347644165158272"><ele></ele><time>2015-2-3T1:13:59Z</time></trkpt>
<trkpt lat="45.142138218507171" lon="5.34735138528049"><ele></ele><time>2015-2-3T1:14:2Z</time></trkpt>
<trkpt lat="45.141704538837075" lon="5.347043350338936"><ele></ele><time>2015-2-3T1:14:5Z</time></trkpt>
<trkpt lat="45.141298770904541" lon="5.346767166629434"><ele></ele><time>2015-2-3T1:14:8Z</time></trkpt>
<trkpt lat="45.140938684344292" lon="5.346332648769021"><ele></ele><time>2015-2-3T1:14:11Z</time></trkpt>
<trkpt lat="45.14060826972127" lon="5.345776509493589"><ele></ele><time>2015-2-3T1:14:14Z</time></trkpt>
<trkpt lat="45.140349855646491" lon="5.345245180651546"><ele></ele><time>2015-2-3T1:14:17Z</time></trkpt>
<trkpt lat="45.140054561197758" lon="5.344744781032205"><ele></ele><time>2015-2-3T1:14:20Z</time></trkpt>
<trkpt lat="45.139588359743357" lon="5.344784175977111"><ele></ele><time>2015-2-3T1:14:23Z</time></trkpt>
<trkpt lat="45.139124169945717" lon="5.344830444082618"><ele></ele><time>2015-2-3T1:14:26Z</time></trkpt>
<trkpt lat="45.138708595186472" lon="5.34447530284524"><ele></ele><time>2015-2-3T1:14:29Z</time></trkpt>
<trkpt lat="45.138396453112364" lon="5.343989403918386"><ele></ele><time>2015-2-3T1:14:32Z</time></trkpt>
<trkpt lat="45.13806595467031" lon="5.343531416729093"><ele></ele><time>2015-2-3T1:14:35Z</time></trkpt>
<trkpt lat="45.137731013819575" lon="5.343022299930453"><ele></ele><time>2015-2-3T1:14:38Z</time></trkpt>
<trkpt lat="45.137477545067668" lon="5.342435650527477"><ele></ele><time>2015-2-3T1:14:41Z</time></trkpt>
<trkpt lat="45.137269590049982" lon="5.34182695671916"><ele></ele><time>2015-2-3T1:14:44Z</time></trkpt>
<trkpt lat="45.137031711637974" lon="5.341283641755581"><ele></ele><time>2015-2-3T1:14:47Z</time></trkpt>
<trkpt lat="45.136697273701429" lon="5.340803610160947"><ele></ele><time>2015-2-3T1:14:50Z</time></trkpt>
<trkpt lat="45.13634548522532" lon="5.340283093973994"><ele></ele><time>2015-2-3T1:14:53Z</time></trkpt>
<trkpt lat="45.136065194383264" lon="5.339769283309579"><ele></ele><time>2015-2-3T1:14:56Z</time></trkpt>
<trkpt lat="45.13575280085206" lon="5.339287826791406"><ele></ele><time>2015-2-3T1:14:59Z</time></trkpt>
<trkpt lat="45.135416937991977" lon="5.338824559003115"><ele></ele><time>2015-2-3T1:15:2Z</time></trkpt>
<trkpt lat="45.135053750127554" lon="5.338384760543704"><ele></ele><time>2015-2-3T1:15:5Z</time></trkpt>
<trkpt lat="45.134664578363299" lon="5.338008161634207"><ele></ele><time>2015-2-3T1:15:8Z</time></trkpt>
<trkpt lat="45.134232826530933" lon="5.337691409513354"><ele></ele><time>2015-2-3T1:15:11Z</time></trkpt>
<trkpt lat="45.133727733045816" lon="5.337705072015524"><ele></ele><time>2015-2-3T1:15:14Z</time></trkpt>
<trkpt lat="45.133210066705942" lon="5.337813785299659"><ele></ele><time>2015-2-3T1:15:17Z</time></trkpt>
<trkpt lat="45.132690221071243" lon="5.33778989687562"><ele></ele><time>2015-2-3T1:15:20Z</time></trkpt>
<trkpt lat="45.132359890267253" lon="5.337363593280315"><ele></ele><time>2015-2-3T1:15:23Z</time></trkpt>
<trkpt lat="45.132013130933046" lon="5.336793204769492"><ele></ele><time>2015-2-3T1:15:26Z</time></trkpt>
<trkpt lat="45.131629910320044" lon="5.336370589211583"><ele></ele><time>2015-2-3T1:15:29Z</time></trkpt>
<trkpt lat="45.131167648360133" lon="5.33601762726903"><ele></ele><time>2015-2-3T1:15:32Z</time></trkpt>
<trkpt lat="45.130741177126765" lon="5.33579533919692"><ele></ele><time>2015-2-3T1:15:35Z</time></trkpt>
<trkpt lat="45.130271036177874" lon="5.335598699748516"><ele></ele><time>2015-2-3T1:15:38Z</time></trkpt>
<trkpt lat="45.129789328202605" lon="5.335578666999936"><ele></ele><time>2015-2-3T1:15:41Z</time></trkpt>
<trkpt lat="45.129328323528171" lon="5.335629042237997"><ele></ele><time>2015-2-3T1:15:44Z</time></trkpt>
<trkpt lat="45.128856254741549" lon="5.335645889863372"><ele></ele><time>2015-2-3T1:15:47Z</time></trkpt>
<trkpt lat="45.128511255607009" lon="5.335214054211974"><ele></ele><time>2015-2-3T1:15:50Z</time></trkpt>
<trkpt lat="45.128267509862781" lon="5.334644000977278"><ele></ele><time>2015-2-3T1:15:53Z</time></trkpt>
<trkpt lat="45.128015801310539" lon="5.334115438163281"><ele></ele><time>2015-2-3T1:15:56Z</time></trkpt>
<trkpt lat="45.127619924023747" lon="5.333795584738255"><ele></ele><time>2015-2-3T1:15:59Z</time></trkpt>
<trkpt lat="45.127089265733957" lon="5.333435665816069"><ele></ele><time>2015-2-3T1:16:2Z</time></trkpt>
<trkpt lat="45.126697160303593" lon="5.333099719136953"><ele></ele><time>2015-2-3T1:16:5Z</time></trkpt>
<trkpt lat="45.126295164227486" lon="5.3325205296278"><ele></ele><time>2015-2-3T1:16:8Z</time></trkpt>
<trkpt lat="45.126001797616482" lon="5.331891886889935"><ele></ele><time>2015-2-3T1:16:11Z</time></trkpt>
<trkpt lat="45.125787472352386" lon="5.331180682405829"><ele></ele><time>2015-2-3T1:16:14Z</time></trkpt>
<trkpt lat="45.125635843724012" lon="5.330500826239586"><ele></ele><time>2015-2-3T1:16:17Z</time></trkpt>
<trkpt lat="45.125552695244551" lon="5.32985751517117"><ele></ele><time>2015-2-3T1:16:20Z</time></trkpt>
<trkpt lat="45.125592425465584" lon="5.329211689531803"><ele></ele><time>2015-2-3T1:16:23Z</time></trkpt>
<trkpt lat="45.12557415291667" lon="5.328551111742854"><ele></ele><time>2015-2-3T1:16:26Z</time></trkpt>
<trkpt lat="45.125411879271269" lon="5.327934874221683"><ele></ele><time>2015-2-3T1:16:29Z</time></trkpt>
<trkpt lat="45.125214066356421" lon="5.32724236138165"><ele></ele><time>2015-2-3T1:16:32Z</time></trkpt>
<trkpt lat="45.125044165179133" lon="5.326621346175671"><ele></ele><time>2015-2-3T1:16:35Z</time></trkpt>
<trkpt lat="45.124853393062949" lon="5.325966635718942"><ele></ele><time>2015-2-3T1:16:38Z</time></trkpt>
<trkpt lat="45.124664884060621" lon="5.325325420126319"><ele></ele><time>2015-2-3T1:16:41Z</time></trkpt>
<trkpt lat="45.124459946528077" lon="5.324664171785116"><ele></ele><time>2015-2-3T1:16:44Z</time></trkpt>
<trkpt lat="45.124258864670992" lon="5.324001079425216"><ele></ele><time>2015-2-3T1:16:47Z</time></trkpt>
<trkpt lat="45.124246375635266" lon="5.323310745880008"><ele></ele><time>2015-2-3T1:16:50Z</time></trkpt>
<trkpt lat="45.124454749748111" lon="5.322720995172858"><ele></ele><time>2015-2-3T1:16:53Z</time></trkpt>
<trkpt lat="45.124242939054966" lon="5.322183798998594"><ele></ele><time>2015-2-3T1:16:56Z</time></trkpt>
<trkpt lat="45.123913027346134" lon="5.321750370785594"><ele></ele><time>2015-2-3T1:16:59Z</time></trkpt>
<trkpt lat="45.123691745102406" lon="5.321195404976606"><ele></ele><time>2015-2-3T1:17:2Z</time></trkpt>
<trkpt lat="45.123664671555161" lon="5.320831295102835"><ele></ele><time>2015-2-3T1:17:5Z</time></trkpt>
<trkpt lat="45.123598705977201" lon="5.320189073681831"><ele></ele><time>2015-2-3T1:17:8Z</time></trkpt>
<trkpt lat="45.12339485809207" lon="5.319609465077519"><ele></ele><time>2015-2-3T1:17:11Z</time></trkpt>
<trkpt lat="45.123148681595922" lon="5.319049134850502"><ele></ele><time>2015-2-3T1:17:14Z</time></trkpt>
<trkpt lat="45.122983306646347" lon="5.318460809066892"><ele></ele><time>2015-2-3T1:17:17Z</time></trkpt>
<trkpt lat="45.122883059084415" lon="5.317835183814168"><ele></ele><time>2015-2-3T1:17:20Z</time></trkpt>
<trkpt lat="45.12274257838726" lon="5.317218359559774"><ele></ele><time>2015-2-3T1:17:23Z</time></trkpt>
<trkpt lat="45.122686335816979" lon="5.316574545577169"><ele></ele><time>2015-2-3T1:17:26Z</time></trkpt>
<trkpt lat="45.122700082138181" lon="5.31591740436852"><ele></ele><time>2015-2-3T1:17:29Z</time></trkpt>
<trkpt lat="45.122602852061391" lon="5.315289432182908"><ele></ele><time>2015-2-3T1:17:32Z</time></trkpt>
<trkpt lat="45.122487265616655" lon="5.31466112472117"><ele></ele><time>2015-2-3T1:17:35Z</time></trkpt>
<trkpt lat="45.122495898976922" lon="5.314022591337562"><ele></ele><time>2015-2-3T1:17:38Z</time></trkpt>
<trkpt lat="45.122467651963234" lon="5.313365701586008"><ele></ele><time>2015-2-3T1:17:41Z</time></trkpt>
<trkpt lat="45.122399004176259" lon="5.312712080776691"><ele></ele><time>2015-2-3T1:17:44Z</time></trkpt>
<trkpt lat="45.122306048870087" lon="5.312057621777058"><ele></ele><time>2015-2-3T1:17:47Z</time></trkpt>
<trkpt lat="45.122212758287787" lon="5.311424788087606"><ele></ele><time>2015-2-3T1:17:50Z</time></trkpt>
<trkpt lat="45.122087700292468" lon="5.31079949811101"><ele></ele><time>2015-2-3T1:17:53Z</time></trkpt>
<trkpt lat="45.121947471052408" lon="5.310172531753779"><ele></ele><time>2015-2-3T1:17:56Z</time></trkpt>
<trkpt lat="45.121721411123872" lon="5.309585379436612"><ele></ele><time>2015-2-3T1:17:59Z</time></trkpt>
<trkpt lat="45.121496776118875" lon="5.309003423899412"><ele></ele><time>2015-2-3T1:18:2Z</time></trkpt>
<trkpt lat="45.121263172477484" lon="5.30837788246572"><ele></ele><time>2015-2-3T1:18:5Z</time></trkpt>
<trkpt lat="45.121041471138597" lon="5.307731470093131"><ele></ele><time>2015-2-3T1:18:8Z</time></trkpt>
<trkpt lat="45.120811220258474" lon="5.307073909789324"><ele></ele><time>2015-2-3T1:18:11Z</time></trkpt>
<trkpt lat="45.120583483949304" lon="5.30640478245914"><ele></ele><time>2015-2-3T1:18:14Z</time></trkpt>
<trkpt lat="45.120367063209414" lon="5.305833388119936"><ele></ele><time>2015-2-3T1:18:17Z</time></trkpt>
<trkpt lat="45.120197413489223" lon="5.305243385955691"><ele></ele><time>2015-2-3T1:18:20Z</time></trkpt>
<trkpt lat="45.120044443756342" lon="5.304631423205137"><ele></ele><time>2015-2-3T1:18:23Z</time></trkpt>
<trkpt lat="45.119828777387738" lon="5.30405055731535"><ele></ele><time>2015-2-3T1:18:26Z</time></trkpt>
<trkpt lat="45.119517724961042" lon="5.303460722789168"><ele></ele><time>2015-2-3T1:18:29Z</time></trkpt>
<trkpt lat="45.11922050267458" lon="5.30286418274045"><ele></ele><time>2015-2-3T1:18:32Z</time></trkpt>
<trkpt lat="45.118912132456899" lon="5.302251549437642"><ele></ele><time>2015-2-3T1:18:35Z</time></trkpt>
<trkpt lat="45.118630332872272" lon="5.301692644134164"><ele></ele><time>2015-2-3T1:18:38Z</time></trkpt>
<trkpt lat="45.118463365361094" lon="5.301093086600304"><ele></ele><time>2015-2-3T1:18:41Z</time></trkpt>
<trkpt lat="45.118289943784475" lon="5.300489505752921"><ele></ele><time>2015-2-3T1:18:44Z</time></trkpt>
<trkpt lat="45.118187600746751" lon="5.299871005117893"><ele></ele><time>2015-2-3T1:18:47Z</time></trkpt>
<trkpt lat="45.118188941851258" lon="5.299105904996395"><ele></ele><time>2015-2-3T1:18:50Z</time></trkpt>
<trkpt lat="45.118148121982813" lon="5.298405513167381"><ele></ele><time>2015-2-3T1:18:53Z</time></trkpt>
<trkpt lat="45.118097076192498" lon="5.297730015590787"><ele></ele><time>2015-2-3T1:18:56Z</time></trkpt>
<trkpt lat="45.118010826408863" lon="5.29704412445426"><ele></ele><time>2015-2-3T1:18:59Z</time></trkpt>
<trkpt lat="45.117890629917383" lon="5.296414559707046"><ele></ele><time>2015-2-3T1:19:2Z</time></trkpt>
<trkpt lat="45.117758028209209" lon="5.29573755338788"><ele></ele><time>2015-2-3T1:19:5Z</time></trkpt>
<trkpt lat="45.117634059861302" lon="5.295121315866709"><ele></ele><time>2015-2-3T1:19:8Z</time></trkpt>
<trkpt lat="45.117420321330428" lon="5.294534917920828"><ele></ele><time>2015-2-3T1:19:11Z</time></trkpt>
<trkpt lat="45.117205828428268" lon="5.293865874409676"><ele></ele><time>2015-2-3T1:19:14Z</time></trkpt>
<trkpt lat="45.117104994133115" lon="5.293232705444098"><ele></ele><time>2015-2-3T1:19:17Z</time></trkpt>
<trkpt lat="45.117057720199227" lon="5.292601967230439"><ele></ele><time>2015-2-3T1:19:20Z</time></trkpt>
<trkpt lat="45.117017235606909" lon="5.291968379169703"><ele></ele><time>2015-2-3T1:19:23Z</time></trkpt>
<trkpt lat="45.116834677755833" lon="5.291359852999449"><ele></ele><time>2015-2-3T1:19:26Z</time></trkpt>
<trkpt lat="45.116687072440982" lon="5.290735652670264"><ele></ele><time>2015-2-3T1:19:29Z</time></trkpt>
<trkpt lat="45.116541478782892" lon="5.290104160085321"><ele></ele><time>2015-2-3T1:19:32Z</time></trkpt>
<trkpt lat="45.116364704445004" lon="5.289491945877671"><ele></ele><time>2015-2-3T1:19:35Z</time></trkpt>
<trkpt lat="45.116182314231992" lon="5.288881994783878"><ele></ele><time>2015-2-3T1:19:38Z</time></trkpt>
<trkpt lat="45.116039905697107" lon="5.288266846910119"><ele></ele><time>2015-2-3T1:19:41Z</time></trkpt>
<trkpt lat="45.115876207128167" lon="5.287604341283441"><ele></ele><time>2015-2-3T1:19:44Z</time></trkpt>
<trkpt lat="45.115715023130178" lon="5.287003861740232"><ele></ele><time>2015-2-3T1:19:47Z</time></trkpt>
<trkpt lat="45.115603124722838" lon="5.286359712481499"><ele></ele><time>2015-2-3T1:19:50Z</time></trkpt>
<trkpt lat="45.115386201068759" lon="5.285737356171012"><ele></ele><time>2015-2-3T1:19:53Z</time></trkpt>
<trkpt lat="45.115165673196316" lon="5.28515724465251"><ele></ele><time>2015-2-3T1:19:56Z</time></trkpt>
<trkpt lat="45.114939948543906" lon="5.284506306052208"><ele></ele><time>2015-2-3T1:19:59Z</time></trkpt>
<trkpt lat="45.114609701558948" lon="5.283969277516007"><ele></ele><time>2015-2-3T1:20:2Z</time></trkpt>
<trkpt lat="45.114379115402699" lon="5.28338304720819"><ele></ele><time>2015-2-3T1:20:5Z</time></trkpt>
<trkpt lat="45.114158419892192" lon="5.282741747796536"><ele></ele><time>2015-2-3T1:20:8Z</time></trkpt>
<trkpt lat="45.113970749080181" lon="5.282158283516765"><ele></ele><time>2015-2-3T1:20:11Z</time></trkpt>
<trkpt lat="45.113752568140626" lon="5.281530814245343"><ele></ele><time>2015-2-3T1:20:14Z</time></trkpt>
<trkpt lat="45.113519299775362" lon="5.280942320823669"><ele></ele><time>2015-2-3T1:20:17Z</time></trkpt>
<trkpt lat="45.113301454111934" lon="5.28035206720233"><ele></ele><time>2015-2-3T1:20:20Z</time></trkpt>
<trkpt lat="45.113054104149342" lon="5.279783522710204"><ele></ele><time>2015-2-3T1:20:23Z</time></trkpt>
<trkpt lat="45.112744895741343" lon="5.279240878298879"><ele></ele><time>2015-2-3T1:20:26Z</time></trkpt>
<trkpt lat="45.112347258254886" lon="5.278962599113584"><ele></ele><time>2015-2-3T1:20:29Z</time></trkpt>
<trkpt lat="45.111875189468265" lon="5.27885053306818"><ele></ele><time>2015-2-3T1:20:32Z</time></trkpt>
<trkpt lat="45.111627420410514" lon="5.2793313190341"><ele></ele><time>2015-2-3T1:20:35Z</time></trkpt>
<trkpt lat="45.111325923353434" lon="5.27982777915895"><ele></ele><time>2015-2-3T1:20:38Z</time></trkpt>
<trkpt lat="45.111034233123064" lon="5.280306804925203"><ele></ele><time>2015-2-3T1:20:41Z</time></trkpt>
<trkpt lat="45.1107267010957" lon="5.280788261443377"><ele></ele><time>2015-2-3T1:20:44Z</time></trkpt>
<trkpt lat="45.110367368906736" lon="5.28116662055254"><ele></ele><time>2015-2-3T1:20:47Z</time></trkpt>
<trkpt lat="45.109967635944486" lon="5.280858920887113"><ele></ele><time>2015-2-3T1:20:50Z</time></trkpt>
<trkpt lat="45.109618110582232" lon="5.280429599806666"><ele></ele><time>2015-2-3T1:20:53Z</time></trkpt>
<trkpt lat="45.109257102012634" lon="5.279996171593666"><ele></ele><time>2015-2-3T1:20:56Z</time></trkpt>
<trkpt lat="45.108901290223002" lon="5.279593840241432"><ele></ele><time>2015-2-3T1:20:59Z</time></trkpt>
<trkpt lat="45.108541287481785" lon="5.279172817245126"><ele></ele><time>2015-2-3T1:21:2Z</time></trkpt>
<trkpt lat="45.108172819018364" lon="5.278746597468853"><ele></ele><time>2015-2-3T1:21:5Z</time></trkpt>
<trkpt lat="45.107820276170969" lon="5.278327250853181"><ele></ele><time>2015-2-3T1:21:8Z</time></trkpt>
<trkpt lat="45.107456585392356" lon="5.27789474464953"><ele></ele><time>2015-2-3T1:21:11Z</time></trkpt>
<trkpt lat="45.107084009796381" lon="5.277446480467916"><ele></ele><time>2015-2-3T1:21:14Z</time></trkpt>
<trkpt lat="45.106699867174029" lon="5.27699519880116"><ele></ele><time>2015-2-3T1:21:17Z</time></trkpt>
<trkpt lat="45.106334667652845" lon="5.276601752266288"><ele></ele><time>2015-2-3T1:21:20Z</time></trkpt>
<trkpt lat="45.105981538072228" lon="5.27621484361589"><ele></ele><time>2015-2-3T1:21:23Z</time></trkpt>
<trkpt lat="45.10550762526691" lon="5.275986855849624"><ele></ele><time>2015-2-3T1:21:26Z</time></trkpt>
<trkpt lat="45.105019211769104" lon="5.275948969647288"><ele></ele><time>2015-2-3T1:21:29Z</time></trkpt>
<trkpt lat="45.104513950645924" lon="5.276011498644948"><ele></ele><time>2015-2-3T1:21:32Z</time></trkpt>
<trkpt lat="45.104004582390189" lon="5.276077212765813"><ele></ele><time>2015-2-3T1:21:35Z</time></trkpt>
<trkpt lat="45.103496387600899" lon="5.27613471262157"><ele></ele><time>2015-2-3T1:21:38Z</time></trkpt>
<trkpt lat="45.103000178933144" lon="5.276196068152785"><ele></ele><time>2015-2-3T1:21:41Z</time></trkpt>
<trkpt lat="45.102534228935838" lon="5.27625247836113"><ele></ele><time>2015-2-3T1:21:44Z</time></trkpt>
<trkpt lat="45.102058220654726" lon="5.276298495009542"><ele></ele><time>2015-2-3T1:21:47Z</time></trkpt>
<trkpt lat="45.101557737216353" lon="5.276352223008871"><ele></ele><time>2015-2-3T1:21:50Z</time></trkpt>
<trkpt lat="45.101100588217378" lon="5.276413159444928"><ele></ele><time>2015-2-3T1:21:53Z</time></trkpt>
<trkpt lat="45.100621813908219" lon="5.276461523026228"><ele></ele><time>2015-2-3T1:21:56Z</time></trkpt>
<trkpt lat="45.100113451480865" lon="5.276514077559114"><ele></ele><time>2015-2-3T1:21:59Z</time></trkpt>
<trkpt lat="45.099643645808101" lon="5.276562608778477"><ele></ele><time>2015-2-3T1:22:2Z</time></trkpt>
<trkpt lat="45.099170822650194" lon="5.276619521901012"><ele></ele><time>2015-2-3T1:22:5Z</time></trkpt>
<trkpt lat="45.09870252572" lon="5.276671154424548"><ele></ele><time>2015-2-3T1:22:8Z</time></trkpt>
<trkpt lat="45.098181003704667" lon="5.276736952364445"><ele></ele><time>2015-2-3T1:22:11Z</time></trkpt>
<trkpt lat="45.097679262980819" lon="5.276790345087647"><ele></ele><time>2015-2-3T1:22:14Z</time></trkpt>
<trkpt lat="45.097224963828921" lon="5.276846000924707"><ele></ele><time>2015-2-3T1:22:17Z</time></trkpt>
<trkpt lat="45.096731772646308" lon="5.276821441948414"><ele></ele><time>2015-2-3T1:22:20Z</time></trkpt>
<trkpt lat="45.096271689981222" lon="5.276700910180807"><ele></ele><time>2015-2-3T1:22:23Z</time></trkpt>
<trkpt lat="45.095778750255704" lon="5.276580043137074"><ele></ele><time>2015-2-3T1:22:26Z</time></trkpt>
<trkpt lat="45.095278853550553" lon="5.276491697877646"><ele></ele><time>2015-2-3T1:22:29Z</time></trkpt>
<trkpt lat="45.094782309606671" lon="5.27651684358716"><ele></ele><time>2015-2-3T1:22:32Z</time></trkpt>
<trkpt lat="45.094341924414039" lon="5.27667073532939"><ele></ele><time>2015-2-3T1:22:35Z</time></trkpt>
<trkpt lat="45.09385971352458" lon="5.276868967339397"><ele></ele><time>2015-2-3T1:22:38Z</time></trkpt>
<trkpt lat="45.093420501798391" lon="5.277043981477618"><ele></ele><time>2015-2-3T1:22:41Z</time></trkpt>
<trkpt lat="45.092949941754341" lon="5.27716375887394"><ele></ele><time>2015-2-3T1:22:44Z</time></trkpt>
<trkpt lat="45.092489272356033" lon="5.277190580964088"><ele></ele><time>2015-2-3T1:22:47Z</time></trkpt>
<trkpt lat="45.09202248416841" lon="5.277179097756743"><ele></ele><time>2015-2-3T1:22:50Z</time></trkpt>
<trkpt lat="45.091547314077616" lon="5.277167530730367"><ele></ele><time>2015-2-3T1:22:53Z</time></trkpt>
<trkpt lat="45.091054793447256" lon="5.27713249437511"><ele></ele><time>2015-2-3T1:22:56Z</time></trkpt>
<trkpt lat="45.090567385777831" lon="5.277228970080614"><ele></ele><time>2015-2-3T1:22:59Z</time></trkpt>
<trkpt lat="45.090084001421928" lon="5.277425777167082"><ele></ele><time>2015-2-3T1:23:2Z</time></trkpt>
<trkpt lat="45.089654009789228" lon="5.277645885944367"><ele></ele><time>2015-2-3T1:23:5Z</time></trkpt>
<trkpt lat="45.089188395068049" lon="5.277894241735339"><ele></ele><time>2015-2-3T1:23:8Z</time></trkpt>
<trkpt lat="45.088743567466736" lon="5.278126420453191"><ele></ele><time>2015-2-3T1:23:11Z</time></trkpt>
<trkpt lat="45.088276863098145" lon="5.27816204354167"><ele></ele><time>2015-2-3T1:23:14Z</time></trkpt>
<trkpt lat="45.087882075458765" lon="5.277853170409799"><ele></ele><time>2015-2-3T1:23:17Z</time></trkpt>
<trkpt lat="45.087446048855782" lon="5.277550499886274"><ele></ele><time>2015-2-3T1:23:20Z</time></trkpt>
<trkpt lat="45.086975237354636" lon="5.277295606210828"><ele></ele><time>2015-2-3T1:23:23Z</time></trkpt>
<trkpt lat="45.086518758907914" lon="5.277185216546059"><ele></ele><time>2015-2-3T1:23:26Z</time></trkpt>
<trkpt lat="45.086022466421127" lon="5.277206841856241"><ele></ele><time>2015-2-3T1:23:29Z</time></trkpt>
<trkpt lat="45.085562886670232" lon="5.277074156329036"><ele></ele><time>2015-2-3T1:23:32Z</time></trkpt>
<trkpt lat="45.085128452628851" lon="5.276903584599495"><ele></ele><time>2015-2-3T1:23:35Z</time></trkpt>
<trkpt lat="45.084660826250911" lon="5.276731671765447"><ele></ele><time>2015-2-3T1:23:38Z</time></trkpt>
<trkpt lat="45.084211472421885" lon="5.276730079203844"><ele></ele><time>2015-2-3T1:23:41Z</time></trkpt>
<trkpt lat="45.083748288452625" lon="5.27685689739883"><ele></ele><time>2015-2-3T1:23:44Z</time></trkpt>
<trkpt lat="45.083337659016252" lon="5.27712176553905"><ele></ele><time>2015-2-3T1:23:47Z</time></trkpt>
<trkpt lat="45.082903057336807" lon="5.27733139693737"><ele></ele><time>2015-2-3T1:23:50Z</time></trkpt>
<trkpt lat="45.082391509786248" lon="5.277440110221505"><ele></ele><time>2015-2-3T1:23:53Z</time></trkpt>
<trkpt lat="45.081902844831347" lon="5.27762359008193"><ele></ele><time>2015-2-3T1:23:56Z</time></trkpt>
<trkpt lat="45.081467153504491" lon="5.277904300019145"><ele></ele><time>2015-2-3T1:23:59Z</time></trkpt>
<trkpt lat="45.081025594845414" lon="5.278009995818138"><ele></ele><time>2015-2-3T1:24:2Z</time></trkpt>
<trkpt lat="45.080534582957625" lon="5.278011336922646"><ele></ele><time>2015-2-3T1:24:5Z</time></trkpt>
<trkpt lat="45.080091767013073" lon="5.277867503464222"><ele></ele><time>2015-2-3T1:24:8Z</time></trkpt>
<trkpt lat="45.07961961440742" lon="5.277721155434847"><ele></ele><time>2015-2-3T1:24:11Z</time></trkpt>
<trkpt lat="45.079225832596421" lon="5.277410186827183"><ele></ele><time>2015-2-3T1:24:14Z</time></trkpt>
<trkpt lat="45.07885635830462" lon="5.277051189914346"><ele></ele><time>2015-2-3T1:24:17Z</time></trkpt>
<trkpt lat="45.078441370278597" lon="5.276731252670288"><ele></ele><time>2015-2-3T1:24:20Z</time></trkpt>
<trkpt lat="45.077975001186132" lon="5.276454063132405"><ele></ele><time>2015-2-3T1:24:23Z</time></trkpt>
<trkpt lat="45.077508129179478" lon="5.276213167235255"><ele></ele><time>2015-2-3T1:24:26Z</time></trkpt>
<trkpt lat="45.077060535550117" lon="5.275973277166486"><ele></ele><time>2015-2-3T1:24:29Z</time></trkpt>
<trkpt lat="45.07662090472877" lon="5.275614783167839"><ele></ele><time>2015-2-3T1:24:32Z</time></trkpt>
<trkpt lat="45.07627347484231" lon="5.275148330256343"><ele></ele><time>2015-2-3T1:24:35Z</time></trkpt>
<trkpt lat="45.075922105461359" lon="5.274680284783244"><ele></ele><time>2015-2-3T1:24:38Z</time></trkpt>
<trkpt lat="45.075444504618645" lon="5.27469570748508"><ele></ele><time>2015-2-3T1:24:41Z</time></trkpt>
<trkpt lat="45.074990289285779" lon="5.274828225374222"><ele></ele><time>2015-2-3T1:24:44Z</time></trkpt>
<trkpt lat="45.074514532461762" lon="5.274817077443004"><ele></ele><time>2015-2-3T1:24:47Z</time></trkpt>
<trkpt lat="45.074033830314875" lon="5.274716159328818"><ele></ele><time>2015-2-3T1:24:50Z</time></trkpt>
<trkpt lat="45.073536112904549" lon="5.274587664753199"><ele></ele><time>2015-2-3T1:24:53Z</time></trkpt>
<trkpt lat="45.073036719113588" lon="5.274427570402622"><ele></ele><time>2015-2-3T1:24:56Z</time></trkpt>
<trkpt lat="45.072591891512275" lon="5.274215508252382"><ele></ele><time>2015-2-3T1:24:59Z</time></trkpt>
<trkpt lat="45.072123678401113" lon="5.274019204080105"><ele></ele><time>2015-2-3T1:25:2Z</time></trkpt>
<trkpt lat="45.07163979113102" lon="5.273808650672436"><ele></ele><time>2015-2-3T1:25:5Z</time></trkpt>
<trkpt lat="45.07119270041585" lon="5.273623242974281"><ele></ele><time>2015-2-3T1:25:8Z</time></trkpt>
<trkpt lat="45.070723481476307" lon="5.27344630099833"><ele></ele><time>2015-2-3T1:25:11Z</time></trkpt>
<trkpt lat="45.07025308907032" lon="5.273258462548256"><ele></ele><time>2015-2-3T1:25:14Z</time></trkpt>
<trkpt lat="45.069785797968507" lon="5.273071965202689"><ele></ele><time>2015-2-3T1:25:17Z</time></trkpt>
<trkpt lat="45.069298557937145" lon="5.272923102602363"><ele></ele><time>2015-2-3T1:25:20Z</time></trkpt>
<trkpt lat="45.068812491372228" lon="5.272778933867812"><ele></ele><time>2015-2-3T1:25:23Z</time></trkpt>
<trkpt lat="45.068343691527843" lon="5.272643733769655"><ele></ele><time>2015-2-3T1:25:26Z</time></trkpt>
<trkpt lat="45.067836670204997" lon="5.272504510357976"><ele></ele><time>2015-2-3T1:25:29Z</time></trkpt>
<trkpt lat="45.067355716601014" lon="5.272395461797714"><ele></ele><time>2015-2-3T1:25:32Z</time></trkpt>
<trkpt lat="45.066911894828081" lon="5.272225141525269"><ele></ele><time>2015-2-3T1:25:35Z</time></trkpt>
<trkpt lat="45.066443178802729" lon="5.272040572017431"><ele></ele><time>2015-2-3T1:25:38Z</time></trkpt>
<trkpt lat="45.065997093915939" lon="5.272176191210747"><ele></ele><time>2015-2-3T1:25:41Z</time></trkpt>
<trkpt lat="45.065702302381396" lon="5.271763969212771"><ele></ele><time>2015-2-3T1:25:44Z</time></trkpt>
<trkpt lat="45.065485881641507" lon="5.271201459690929"><ele></ele><time>2015-2-3T1:25:47Z</time></trkpt>
<trkpt lat="45.065253619104624" lon="5.270571392029524"><ele></ele><time>2015-2-3T1:25:50Z</time></trkpt>
<trkpt lat="45.065035354346037" lon="5.269991280511022"><ele></ele><time>2015-2-3T1:25:53Z</time></trkpt>
<trkpt lat="45.064806612208486" lon="5.269396081566811"><ele></ele><time>2015-2-3T1:25:56Z</time></trkpt>
<trkpt lat="45.064568314701319" lon="5.268778251484036"><ele></ele><time>2015-2-3T1:25:59Z</time></trkpt>
<trkpt lat="45.064415847882628" lon="5.268178945407271"><ele></ele><time>2015-2-3T1:26:2Z</time></trkpt>
<trkpt lat="45.064113512635231" lon="5.267965709790587"><ele></ele><time>2015-2-3T1:26:5Z</time></trkpt>
<trkpt lat="45.06364731118083" lon="5.268197972327471"><ele></ele><time>2015-2-3T1:26:8Z</time></trkpt>
<trkpt lat="45.063201813027263" lon="5.268396623432636"><ele></ele><time>2015-2-3T1:26:11Z</time></trkpt>
<trkpt lat="45.062851784750819" lon="5.268868021667004"><ele></ele><time>2015-2-3T1:26:14Z</time></trkpt>
<trkpt lat="45.062690181657672" lon="5.269461292773485"><ele></ele><time>2015-2-3T1:26:17Z</time></trkpt>
<trkpt lat="45.062530087307096" lon="5.270101502537727"><ele></ele><time>2015-2-3T1:26:20Z</time></trkpt>
<trkpt lat="45.062225572764874" lon="5.270701311528683"><ele></ele><time>2015-2-3T1:26:23Z</time></trkpt>
<trkpt lat="45.061888368800282" lon="5.271224761381745"><ele></ele><time>2015-2-3T1:26:26Z</time></trkpt>
<trkpt lat="45.061541777104139" lon="5.2717624604702"><ele></ele><time>2015-2-3T1:26:29Z</time></trkpt>
<trkpt lat="45.061222091317177" lon="5.272371657192707"><ele></ele><time>2015-2-3T1:26:32Z</time></trkpt>
<trkpt lat="45.061044814065099" lon="5.272980853915215"><ele></ele><time>2015-2-3T1:26:35Z</time></trkpt>
<trkpt lat="45.060919001698494" lon="5.273628439754248"><ele></ele><time>2015-2-3T1:26:38Z</time></trkpt>
<trkpt lat="45.06080542691052" lon="5.274296812713146"><ele></ele><time>2015-2-3T1:26:41Z</time></trkpt>
<trkpt lat="45.060735605657101" lon="5.27499376796186"><ele></ele><time>2015-2-3T1:26:44Z</time></trkpt>
<trkpt lat="45.060838032513857" lon="5.275712097063661"><ele></ele><time>2015-2-3T1:26:47Z</time></trkpt>
<trkpt lat="45.06099259480834" lon="5.276430929079652"><ele></ele><time>2015-2-3T1:26:50Z</time></trkpt>
<trkpt lat="45.061005419120193" lon="5.277137691155076"><ele></ele><time>2015-2-3T1:26:53Z</time></trkpt>
<trkpt lat="45.061081610620022" lon="5.277822157368064"><ele></ele><time>2015-2-3T1:26:56Z</time></trkpt>
<trkpt lat="45.061239106580615" lon="5.278456751257181"><ele></ele><time>2015-2-3T1:26:59Z</time></trkpt>
<trkpt lat="45.061505734920502" lon="5.279100900515914"><ele></ele><time>2015-2-3T1:27:2Z</time></trkpt>
<trkpt lat="45.06149391643703" lon="5.279764495790005"><ele></ele><time>2015-2-3T1:27:5Z</time></trkpt>
<trkpt lat="45.061386125162244" lon="5.280418451875448"><ele></ele><time>2015-2-3T1:27:8Z</time></trkpt>
<trkpt lat="45.060929730534554" lon="5.280515514314175"><ele></ele><time>2015-2-3T1:27:11Z</time></trkpt>
<trkpt lat="45.060463529080153" lon="5.280469162389636"><ele></ele><time>2015-2-3T1:27:14Z</time></trkpt>
<trkpt lat="45.059996992349625" lon="5.280406214296818"><ele></ele><time>2015-2-3T1:27:17Z</time></trkpt>
<trkpt lat="45.059519726783037" lon="5.280315522104502"><ele></ele><time>2015-2-3T1:27:20Z</time></trkpt>
<trkpt lat="45.059051010757685" lon="5.280334800481796"><ele></ele><time>2015-2-3T1:27:23Z</time></trkpt>
<trkpt lat="45.058609871193767" lon="5.28056169860065"><ele></ele><time>2015-2-3T1:27:26Z</time></trkpt>
<trkpt lat="45.058323545381427" lon="5.281071905046701"><ele></ele><time>2015-2-3T1:27:29Z</time></trkpt>
<trkpt lat="45.058325473219156" lon="5.281727369874716"><ele></ele><time>2015-2-3T1:27:32Z</time></trkpt>
<trkpt lat="45.058405436575413" lon="5.282384091988206"><ele></ele><time>2015-2-3T1:27:35Z</time></trkpt>
<trkpt lat="45.058477018028498" lon="5.283015249297023"><ele></ele><time>2015-2-3T1:27:38Z</time></trkpt>
<trkpt lat="45.058479784056544" lon="5.283651938661933"><ele></ele><time>2015-2-3T1:27:41Z</time></trkpt>
<trkpt lat="45.058158673346043" lon="5.284071872010827"><ele></ele><time>2015-2-3T1:27:44Z</time></trkpt>
<trkpt lat="45.057751564309001" lon="5.284353001043201"><ele></ele><time>2015-2-3T1:27:47Z</time></trkpt>
<trkpt lat="45.057329786941409" lon="5.284653827548027"><ele></ele><time>2015-2-3T1:27:50Z</time></trkpt>
<trkpt lat="45.05690767429769" lon="5.284957922995091"><ele></ele><time>2015-2-3T1:27:53Z</time></trkpt>
<trkpt lat="45.056481705978513" lon="5.285261431708932"><ele></ele><time>2015-2-3T1:27:56Z</time></trkpt>
<trkpt lat="45.05606772378087" lon="5.285561587661505"><ele></ele><time>2015-2-3T1:27:59Z</time></trkpt>
<trkpt lat="45.055665392428637" lon="5.285870628431439"><ele></ele><time>2015-2-3T1:28:2Z</time></trkpt>
<trkpt lat="45.055254092440009" lon="5.28618486598134"><ele></ele><time>2015-2-3T1:28:5Z</time></trkpt>
<trkpt lat="45.054867183789611" lon="5.286205066367984"><ele></ele><time>2015-2-3T1:28:8Z</time></trkpt>
<trkpt lat="45.054606255143881" lon="5.286747543141246"><ele></ele><time>2015-2-3T1:28:11Z</time></trkpt>
<trkpt lat="45.054341051727533" lon="5.28727401047945"><ele></ele><time>2015-2-3T1:28:14Z</time></trkpt>
<trkpt lat="45.054091103374958" lon="5.287856468930841"><ele></ele><time>2015-2-3T1:28:17Z</time></trkpt>
<trkpt lat="45.053840735927224" lon="5.288434904068708"><ele></ele><time>2015-2-3T1:28:20Z</time></trkpt>
<trkpt lat="45.053602354601026" lon="5.289011998102069"><ele></ele><time>2015-2-3T1:28:23Z</time></trkpt>
<trkpt lat="45.053365398198366" lon="5.28956176713109"><ele></ele><time>2015-2-3T1:28:26Z</time></trkpt>
<trkpt lat="45.053115617483854" lon="5.290132658556104"><ele></ele><time>2015-2-3T1:28:29Z</time></trkpt>
<trkpt lat="45.052879499271512" lon="5.290684271603823"><ele></ele><time>2015-2-3T1:28:32Z</time></trkpt>
<trkpt lat="45.052640698850155" lon="5.291255079209805"><ele></ele><time>2015-2-3T1:28:35Z</time></trkpt>
<trkpt lat="45.05236929282546" lon="5.291817588731647"><ele></ele><time>2015-2-3T1:28:38Z</time></trkpt>
<trkpt lat="45.052054552361369" lon="5.292292255908251"><ele></ele><time>2015-2-3T1:28:41Z</time></trkpt>
<trkpt lat="45.051642414182425" lon="5.292655359953642"><ele></ele><time>2015-2-3T1:28:44Z</time></trkpt>
<trkpt lat="45.051219379529357" lon="5.292982673272491"><ele></ele><time>2015-2-3T1:28:47Z</time></trkpt>
<trkpt lat="45.050799949094653" lon="5.293282074853778"><ele></ele><time>2015-2-3T1:28:50Z</time></trkpt>
<trkpt lat="45.050386302173138" lon="5.293571082875133"><ele></ele><time>2015-2-3T1:28:53Z</time></trkpt>
<trkpt lat="45.049981120973825" lon="5.293851038441062"><ele></ele><time>2015-2-3T1:28:56Z</time></trkpt>
<trkpt lat="45.04954693838954" lon="5.294158654287458"><ele></ele><time>2015-2-3T1:28:59Z</time></trkpt>
<trkpt lat="45.049123233184218" lon="5.294502144679427"><ele></ele><time>2015-2-3T1:29:2Z</time></trkpt>
<trkpt lat="45.048769852146506" lon="5.294890478253365"><ele></ele><time>2015-2-3T1:29:5Z</time></trkpt>
<trkpt lat="45.048362659290433" lon="5.295193903148174"><ele></ele><time>2015-2-3T1:29:8Z</time></trkpt>
<trkpt lat="45.047933757305145" lon="5.295388363301754"><ele></ele><time>2015-2-3T1:29:11Z</time></trkpt>
<trkpt lat="45.04753184504807" lon="5.295673767104745"><ele></ele><time>2015-2-3T1:29:14Z</time></trkpt>
<trkpt lat="45.047115683555603" lon="5.29596864245832"><ele></ele><time>2015-2-3T1:29:17Z</time></trkpt>
<trkpt lat="45.046687033027411" lon="5.29627600684762"><ele></ele><time>2015-2-3T1:29:20Z</time></trkpt>
<trkpt lat="45.04627120681107" lon="5.296585634350777"><ele></ele><time>2015-2-3T1:29:23Z</time></trkpt>
<trkpt lat="45.045843059197068" lon="5.296907583251596"><ele></ele><time>2015-2-3T1:29:26Z</time></trkpt>
<trkpt lat="45.045385658740997" lon="5.297225005924702"><ele></ele><time>2015-2-3T1:29:29Z</time></trkpt>
<trkpt lat="45.044887019321322" lon="5.297397086396813"><ele></ele><time>2015-2-3T1:29:32Z</time></trkpt>
<trkpt lat="45.04438653588295" lon="5.297466740012169"><ele></ele><time>2015-2-3T1:29:35Z</time></trkpt>
<trkpt lat="45.043918155133724" lon="5.297492472454906"><ele></ele><time>2015-2-3T1:29:38Z</time></trkpt>
<trkpt lat="45.043468549847603" lon="5.29742768034339"><ele></ele><time>2015-2-3T1:29:41Z</time></trkpt>
<trkpt lat="45.042966222390532" lon="5.297320559620857"><ele></ele><time>2015-2-3T1:29:44Z</time></trkpt>
<trkpt lat="45.04248627461493" lon="5.297221653163433"><ele></ele><time>2015-2-3T1:29:47Z</time></trkpt>
<trkpt lat="45.041990987956524" lon="5.29713892377913"><ele></ele><time>2015-2-3T1:29:50Z</time></trkpt>
<trkpt lat="45.041521769016981" lon="5.297076897695661"><ele></ele><time>2015-2-3T1:29:53Z</time></trkpt>
<trkpt lat="45.041059423238039" lon="5.297055607661605"><ele></ele><time>2015-2-3T1:29:56Z</time></trkpt>
<trkpt lat="45.040590288117528" lon="5.297072539106011"><ele></ele><time>2015-2-3T1:29:59Z</time></trkpt>
<trkpt lat="45.040121488273144" lon="5.297129200771451"><ele></ele><time>2015-2-3T1:30:2Z</time></trkpt>
<trkpt lat="45.039652772247791" lon="5.297167673707008"><ele></ele><time>2015-2-3T1:30:5Z</time></trkpt>
<trkpt lat="45.039175087586045" lon="5.29722542501986"><ele></ele><time>2015-2-3T1:30:8Z</time></trkpt>
<trkpt lat="45.038663372397423" lon="5.297264652326703"><ele></ele><time>2015-2-3T1:30:11Z</time></trkpt>
<trkpt lat="45.038147130981088" lon="5.297308154404163"><ele></ele><time>2015-2-3T1:30:14Z</time></trkpt>
<trkpt lat="45.037669781595469" lon="5.297367079183459"><ele></ele><time>2015-2-3T1:30:17Z</time></trkpt>
<trkpt lat="45.037197461351752" lon="5.297319637611508"><ele></ele><time>2015-2-3T1:30:20Z</time></trkpt>
<trkpt lat="45.036760177463293" lon="5.296971704810858"><ele></ele><time>2015-2-3T1:30:23Z</time></trkpt>
<trkpt lat="45.036409310996532" lon="5.296559231355786"><ele></ele><time>2015-2-3T1:30:26Z</time></trkpt>
<trkpt lat="45.036077136173844" lon="5.296130580827594"><ele></ele><time>2015-2-3T1:30:29Z</time></trkpt>
<trkpt lat="45.035757282748818" lon="5.295602437108755"><ele></ele><time>2015-2-3T1:30:32Z</time></trkpt>
<trkpt lat="45.035429801791906" lon="5.295115448534489"><ele></ele><time>2015-2-3T1:30:35Z</time></trkpt>
<trkpt lat="45.035143727436662" lon="5.294519076123834"><ele></ele><time>2015-2-3T1:30:38Z</time></trkpt>
<trkpt lat="45.034891767427325" lon="5.293986489996314"><ele></ele><time>2015-2-3T1:30:41Z</time></trkpt>
<trkpt lat="45.03449865616858" lon="5.293494807556272"><ele></ele><time>2015-2-3T1:30:44Z</time></trkpt>
<trkpt lat="45.034112250432372" lon="5.293170846998692"><ele></ele><time>2015-2-3T1:30:47Z</time></trkpt>
<trkpt lat="45.03366750665009" lon="5.292806401848793"><ele></ele><time>2015-2-3T1:30:50Z</time></trkpt>
<trkpt lat="45.033261403441429" lon="5.292474394664168"><ele></ele><time>2015-2-3T1:30:53Z</time></trkpt>
<trkpt lat="45.032824873924255" lon="5.292127635329962"><ele></ele><time>2015-2-3T1:30:56Z</time></trkpt>
<trkpt lat="45.032364958897233" lon="5.29177132062614"><ele></ele><time>2015-2-3T1:30:59Z</time></trkpt>
<trkpt lat="45.031917365267873" lon="5.291415005922318"><ele></ele><time>2015-2-3T1:31:2Z</time></trkpt>
<trkpt lat="45.031486116349697" lon="5.291034132242203"><ele></ele><time>2015-2-3T1:31:5Z</time></trkpt>
<trkpt lat="45.031110104173422" lon="5.290667759254575"><ele></ele><time>2015-2-3T1:31:8Z</time></trkpt>
<trkpt lat="45.03070249222219" lon="5.290274983271956"><ele></ele><time>2015-2-3T1:31:11Z</time></trkpt>
<trkpt lat="45.030287085101008" lon="5.289882374927402"><ele></ele><time>2015-2-3T1:31:14Z</time></trkpt>
<trkpt lat="45.02986254170537" lon="5.28952069580555"><ele></ele><time>2015-2-3T1:31:17Z</time></trkpt>
<trkpt lat="45.029385862872005" lon="5.289368899539113"><ele></ele><time>2015-2-3T1:31:20Z</time></trkpt>
<trkpt lat="45.028851265087724" lon="5.289466800168157"><ele></ele><time>2015-2-3T1:31:23Z</time></trkpt>
<trkpt lat="45.028363773599267" lon="5.289465459063649"><ele></ele><time>2015-2-3T1:31:26Z</time></trkpt>
<trkpt lat="45.027880724519491" lon="5.289244093000889"><ele></ele><time>2015-2-3T1:31:29Z</time></trkpt>
<trkpt lat="45.027463808655739" lon="5.288891633972526"><ele></ele><time>2015-2-3T1:31:32Z</time></trkpt>
<trkpt lat="45.02702652476728" lon="5.288490727543831"><ele></ele><time>2015-2-3T1:31:35Z</time></trkpt>
<trkpt lat="45.02663224004209" lon="5.288140531629324"><ele></ele><time>2015-2-3T1:31:38Z</time></trkpt>
<trkpt lat="45.026220856234431" lon="5.287876501679421"><ele></ele><time>2015-2-3T1:31:41Z</time></trkpt>
<trkpt lat="45.025776531547308" lon="5.287818415090442"><ele></ele><time>2015-2-3T1:31:44Z</time></trkpt>
<trkpt lat="45.025339163839817" lon="5.287677431479096"><ele></ele><time>2015-2-3T1:31:47Z</time></trkpt>
<trkpt lat="45.0250637345016" lon="5.287140654399991"><ele></ele><time>2015-2-3T1:31:50Z</time></trkpt>
<trkpt lat="45.024688560515642" lon="5.286683421581984"><ele></ele><time>2015-2-3T1:31:53Z</time></trkpt>
<trkpt lat="45.024195872247219" lon="5.286665065214038"><ele></ele><time>2015-2-3T1:31:56Z</time></trkpt>
<trkpt lat="45.023754397407174" lon="5.286987265571952"><ele></ele><time>2015-2-3T1:31:59Z</time></trkpt>
<trkpt lat="45.023387521505356" lon="5.287443660199642"><ele></ele><time>2015-2-3T1:32:2Z</time></trkpt>
<trkpt lat="45.023105219006538" lon="5.2879966981709"><ele></ele><time>2015-2-3T1:32:5Z</time></trkpt>
<trkpt lat="45.022891731932759" lon="5.288596507161856"><ele></ele><time>2015-2-3T1:32:8Z</time></trkpt>
<trkpt lat="45.022614542394876" lon="5.289150467142463"><ele></ele><time>2015-2-3T1:32:11Z</time></trkpt>
<trkpt lat="45.022256802767515" lon="5.289583140984178"><ele></ele><time>2015-2-3T1:32:14Z</time></trkpt>
<trkpt lat="45.021899817511439" lon="5.290015060454607"><ele></ele><time>2015-2-3T1:32:17Z</time></trkpt>
<trkpt lat="45.021554147824645" lon="5.290465671569109"><ele></ele><time>2015-2-3T1:32:20Z</time></trkpt>
<trkpt lat="45.021185846999288" lon="5.290884599089623"><ele></ele><time>2015-2-3T1:32:23Z</time></trkpt>
<trkpt lat="45.020811343565583" lon="5.291284332051873"><ele></ele><time>2015-2-3T1:32:26Z</time></trkpt>
<trkpt lat="45.020457040518522" lon="5.291679287329316"><ele></ele><time>2015-2-3T1:32:29Z</time></trkpt>
<trkpt lat="45.020087314769626" lon="5.292063681408763"><ele></ele><time>2015-2-3T1:32:32Z</time></trkpt>
<trkpt lat="45.01970250159502" lon="5.292409351095557"><ele></ele><time>2015-2-3T1:32:35Z</time></trkpt>
<trkpt lat="45.019273096695542" lon="5.292405411601067"><ele></ele><time>2015-2-3T1:32:38Z</time></trkpt>
<trkpt lat="45.018899347633123" lon="5.292330645024777"><ele></ele><time>2015-2-3T1:32:41Z</time></trkpt>
<trkpt lat="45.018659792840481" lon="5.292614791542292"><ele></ele><time>2015-2-3T1:32:44Z</time></trkpt>
<trkpt lat="45.018213875591755" lon="5.292871445417404"><ele></ele><time>2015-2-3T1:32:47Z</time></trkpt>
<trkpt lat="45.01780760474503" lon="5.292790643870831"><ele></ele><time>2015-2-3T1:32:50Z</time></trkpt>
<trkpt lat="45.017464030534029" lon="5.29236258007586"><ele></ele><time>2015-2-3T1:32:53Z</time></trkpt>
<trkpt lat="45.016994224861264" lon="5.292133754119277"><ele></ele><time>2015-2-3T1:32:56Z</time></trkpt>
<trkpt lat="45.016523916274309" lon="5.291964439675212"><ele></ele><time>2015-2-3T1:32:59Z</time></trkpt>
<trkpt lat="45.016042711213231" lon="5.291855977848172"><ele></ele><time>2015-2-3T1:33:2Z</time></trkpt>
<trkpt lat="45.015595871955156" lon="5.291651375591755"><ele></ele><time>2015-2-3T1:33:5Z</time></trkpt>
<trkpt lat="45.015137549489737" lon="5.291478708386421"><ele></ele><time>2015-2-3T1:33:8Z</time></trkpt>
<trkpt lat="45.014665145426989" lon="5.291282571852207"><ele></ele><time>2015-2-3T1:33:11Z</time></trkpt>
<trkpt lat="45.014187041670084" lon="5.291187688708305"><ele></ele><time>2015-2-3T1:33:14Z</time></trkpt>
<trkpt lat="45.01370944082737" lon="5.291073527187109"><ele></ele><time>2015-2-3T1:33:17Z</time></trkpt>
<trkpt lat="45.013440046459436" lon="5.290543707087636"><ele></ele><time>2015-2-3T1:33:20Z</time></trkpt>
<trkpt lat="45.013211723417044" lon="5.289973989129067"><ele></ele><time>2015-2-3T1:33:23Z</time></trkpt>
<trkpt lat="45.0129911955446" lon="5.289415754377842"><ele></ele><time>2015-2-3T1:33:26Z</time></trkpt>
<trkpt lat="45.012755831703544" lon="5.288815023377538"><ele></ele><time>2015-2-3T1:33:29Z</time></trkpt>
<trkpt lat="45.012354589998722" lon="5.288418056443334"><ele></ele><time>2015-2-3T1:33:32Z</time></trkpt>
<trkpt lat="45.011847903952003" lon="5.28822049498558"><ele></ele><time>2015-2-3T1:33:35Z</time></trkpt>
<trkpt lat="45.011396538466215" lon="5.287876250222325"><ele></ele><time>2015-2-3T1:33:38Z</time></trkpt>
<trkpt lat="45.011005941778421" lon="5.287547679618001"><ele></ele><time>2015-2-3T1:33:41Z</time></trkpt>
<trkpt lat="45.010588020086288" lon="5.287218857556582"><ele></ele><time>2015-2-3T1:33:44Z</time></trkpt>
<trkpt lat="45.010170349851251" lon="5.286865727975965"><ele></ele><time>2015-2-3T1:33:47Z</time></trkpt>
<trkpt lat="45.009762989357114" lon="5.28650731779635"><ele></ele><time>2015-2-3T1:33:50Z</time></trkpt>
<trkpt lat="45.009320676326752" lon="5.28616089373827"><ele></ele><time>2015-2-3T1:33:53Z</time></trkpt>
<trkpt lat="45.008911387994885" lon="5.285812541842461"><ele></ele><time>2015-2-3T1:33:56Z</time></trkpt>
<trkpt lat="45.008509391918778" lon="5.2854841388762"><ele></ele><time>2015-2-3T1:33:59Z</time></trkpt>
<trkpt lat="45.008068000897765" lon="5.285119358450174"><ele></ele><time>2015-2-3T1:34:2Z</time></trkpt>
<trkpt lat="45.007665334269404" lon="5.284788943827152"><ele></ele><time>2015-2-3T1:34:5Z</time></trkpt>
<trkpt lat="45.007263170555234" lon="5.284452829509974"><ele></ele><time>2015-2-3T1:34:8Z</time></trkpt>
<trkpt lat="45.006867963820696" lon="5.284134736284614"><ele></ele><time>2015-2-3T1:34:11Z</time></trkpt>
<trkpt lat="45.006449790671468" lon="5.283781690523028"><ele></ele><time>2015-2-3T1:34:14Z</time></trkpt>
<trkpt lat="45.00602382235229" lon="5.28343970887363"><ele></ele><time>2015-2-3T1:34:17Z</time></trkpt>
<trkpt lat="45.00560749322176" lon="5.283110635355115"><ele></ele><time>2015-2-3T1:34:20Z</time></trkpt>
<trkpt lat="45.005196277052164" lon="5.282708220183849"><ele></ele><time>2015-2-3T1:34:23Z</time></trkpt>
<trkpt lat="45.005111368373036" lon="5.282064322382212"><ele></ele><time>2015-2-3T1:34:26Z</time></trkpt>
<trkpt lat="45.005160821601748" lon="5.281414892524481"><ele></ele><time>2015-2-3T1:34:29Z</time></trkpt>
<trkpt lat="45.005169287323952" lon="5.280781555920839"><ele></ele><time>2015-2-3T1:34:32Z</time></trkpt>
<trkpt lat="45.004946663975716" lon="5.280192559584975"><ele></ele><time>2015-2-3T1:34:35Z</time></trkpt>
<trkpt lat="45.004578782245517" lon="5.279815373942256"><ele></ele><time>2015-2-3T1:34:38Z</time></trkpt>
<trkpt lat="45.004173601046205" lon="5.279467441141605"><ele></ele><time>2015-2-3T1:34:41Z</time></trkpt>
<trkpt lat="45.003765318542719" lon="5.27910752221942"><ele></ele><time>2015-2-3T1:34:44Z</time></trkpt>
<trkpt lat="45.003362819552422" lon="5.278753135353327"><ele></ele><time>2015-2-3T1:34:47Z</time></trkpt>
<trkpt lat="45.002975324168801" lon="5.278396317735314"><ele></ele><time>2015-2-3T1:34:50Z</time></trkpt>
<trkpt lat="45.00259168446064" lon="5.278039164841175"><ele></ele><time>2015-2-3T1:34:53Z</time></trkpt>
<trkpt lat="45.002188179641962" lon="5.277671786025167"><ele></ele><time>2015-2-3T1:34:56Z</time></trkpt>
<trkpt lat="45.001786351203918" lon="5.27730499394238"><ele></ele><time>2015-2-3T1:34:59Z</time></trkpt>
<trkpt lat="45.001398269087076" lon="5.276943482458592"><ele></ele><time>2015-2-3T1:35:2Z</time></trkpt>
<trkpt lat="45.001007923856378" lon="5.276600075885654"><ele></ele><time>2015-2-3T1:35:5Z</time></trkpt>
<trkpt lat="45.00060542486608" lon="5.276228422299027"><ele></ele><time>2015-2-3T1:35:8Z</time></trkpt>
<trkpt lat="45.000209966674447" lon="5.275882668793201"><ele></ele><time>2015-2-3T1:35:11Z</time></trkpt>
<trkpt lat="44.999808976426721" lon="5.275508332997561"><ele></ele><time>2015-2-3T1:35:14Z</time></trkpt>
<trkpt lat="44.999452661722898" lon="5.27510809712112"><ele></ele><time>2015-2-3T1:35:17Z</time></trkpt>
<trkpt lat="44.999112104997039" lon="5.274651786312461"><ele></ele><time>2015-2-3T1:35:20Z</time></trkpt>
<trkpt lat="44.998752186074853" lon="5.274266134947538"><ele></ele><time>2015-2-3T1:35:23Z</time></trkpt>
<trkpt lat="44.998294785618782" lon="5.274101262912154"><ele></ele><time>2015-2-3T1:35:26Z</time></trkpt>
<trkpt lat="44.997840989381075" lon="5.273982239887118"><ele></ele><time>2015-2-3T1:35:29Z</time></trkpt>
<trkpt lat="44.997398089617491" lon="5.274133700877428"><ele></ele><time>2015-2-3T1:35:32Z</time></trkpt>
<trkpt lat="44.996940521523356" lon="5.274099251255393"><ele></ele><time>2015-2-3T1:35:35Z</time></trkpt>
<trkpt lat="44.996509104967117" lon="5.273994393646717"><ele></ele><time>2015-2-3T1:35:38Z</time></trkpt>
<trkpt lat="44.996070899069309" lon="5.273827593773603"><ele></ele><time>2015-2-3T1:35:41Z</time></trkpt>
<trkpt lat="44.995645517483354" lon="5.273534143343568"><ele></ele><time>2015-2-3T1:35:44Z</time></trkpt>
<trkpt lat="44.995265649631619" lon="5.273169279098511"><ele></ele><time>2015-2-3T1:35:47Z</time></trkpt>
<trkpt lat="44.994856109842658" lon="5.272889155894518"><ele></ele><time>2015-2-3T1:35:50Z</time></trkpt>
<trkpt lat="44.994436847046018" lon="5.272575169801712"><ele></ele><time>2015-2-3T1:35:53Z</time></trkpt>
<trkpt lat="44.994043568149209" lon="5.272198235616088"><ele></ele><time>2015-2-3T1:35:56Z</time></trkpt>
<trkpt lat="44.993758331984282" lon="5.271680904552341"><ele></ele><time>2015-2-3T1:35:59Z</time></trkpt>
<trkpt lat="44.993420541286469" lon="5.271209506317973"><ele></ele><time>2015-2-3T1:36:2Z</time></trkpt>
<trkpt lat="44.993039751425385" lon="5.270815892145038"><ele></ele><time>2015-2-3T1:36:5Z</time></trkpt>
<trkpt lat="44.992658877745271" lon="5.270425295457244"><ele></ele><time>2015-2-3T1:36:8Z</time></trkpt>
<trkpt lat="44.992405828088522" lon="5.269902851432562"><ele></ele><time>2015-2-3T1:36:11Z</time></trkpt>
<trkpt lat="44.992225952446461" lon="5.269291056320071"><ele></ele><time>2015-2-3T1:36:14Z</time></trkpt>
<trkpt lat="44.991946667432785" lon="5.268784454092383"><ele></ele><time>2015-2-3T1:36:17Z</time></trkpt>
<trkpt lat="44.991594878956676" lon="5.268376171588898"><ele></ele><time>2015-2-3T1:36:20Z</time></trkpt>
<trkpt lat="44.991206880658865" lon="5.267975516617298"><ele></ele><time>2015-2-3T1:36:23Z</time></trkpt>
<trkpt lat="44.990854170173407" lon="5.267569916322827"><ele></ele><time>2015-2-3T1:36:26Z</time></trkpt>
<trkpt lat="44.990481846034527" lon="5.267135817557573"><ele></ele><time>2015-2-3T1:36:29Z</time></trkpt>
<trkpt lat="44.990104492753744" lon="5.266702808439732"><ele></ele><time>2015-2-3T1:36:32Z</time></trkpt>
<trkpt lat="44.989771479740739" lon="5.266230572015047"><ele></ele><time>2015-2-3T1:36:35Z</time></trkpt>
<trkpt lat="44.989644913002849" lon="5.265614669770002"><ele></ele><time>2015-2-3T1:36:38Z</time></trkpt>
<trkpt lat="44.989482890814543" lon="5.265000108629465"><ele></ele><time>2015-2-3T1:36:41Z</time></trkpt>
<trkpt lat="44.989309217780828" lon="5.264414800330997"><ele></ele><time>2015-2-3T1:36:44Z</time></trkpt>
<trkpt lat="44.989203689619899" lon="5.2637895103544"><ele></ele><time>2015-2-3T1:36:47Z</time></trkpt>
<trkpt lat="44.989263787865639" lon="5.263144606724381"><ele></ele><time>2015-2-3T1:36:50Z</time></trkpt>
<trkpt lat="44.989510551095009" lon="5.262591317296028"><ele></ele><time>2015-2-3T1:36:53Z</time></trkpt>
<trkpt lat="44.989815736189485" lon="5.262079685926437"><ele></ele><time>2015-2-3T1:36:56Z</time></trkpt>
<trkpt lat="44.990117903798819" lon="5.261578615754843"><ele></ele><time>2015-2-3T1:36:59Z</time></trkpt>
<trkpt lat="44.990484612062573" lon="5.261181397363544"><ele></ele><time>2015-2-3T1:37:2Z</time></trkpt>
<trkpt lat="44.99088610522449" lon="5.260851066559553"><ele></ele><time>2015-2-3T1:37:5Z</time></trkpt>
<trkpt lat="44.991336883977056" lon="5.260769762098789"><ele></ele><time>2015-2-3T1:37:8Z</time></trkpt>
<trkpt lat="44.991809036582708" lon="5.260701784864068"><ele></ele><time>2015-2-3T1:37:11Z</time></trkpt>
<trkpt lat="44.992265347391367" lon="5.260617211461067"><ele></ele><time>2015-2-3T1:37:14Z</time></trkpt>
<trkpt lat="44.992664158344269" lon="5.260323090478778"><ele></ele><time>2015-2-3T1:37:17Z</time></trkpt>
<trkpt lat="44.993059281259775" lon="5.259969206526876"><ele></ele><time>2015-2-3T1:37:20Z</time></trkpt>
<trkpt lat="44.993470748886466" lon="5.259682377800345"><ele></ele><time>2015-2-3T1:37:23Z</time></trkpt>
<trkpt lat="44.993923706933856" lon="5.259520020335913"><ele></ele><time>2015-2-3T1:37:26Z</time></trkpt>
<trkpt lat="44.994359733536839" lon="5.259277699515224"><ele></ele><time>2015-2-3T1:37:29Z</time></trkpt>
<trkpt lat="44.994826689362526" lon="5.259162532165647"><ele></ele><time>2015-2-3T1:37:32Z</time></trkpt>
<trkpt lat="44.995296746492386" lon="5.259068738669157"><ele></ele><time>2015-2-3T1:37:35Z</time></trkpt>
<trkpt lat="44.99574551358819" lon="5.258879726752639"><ele></ele><time>2015-2-3T1:37:38Z</time></trkpt>
<trkpt lat="44.996014991775155" lon="5.258384104818106"><ele></ele><time>2015-2-3T1:37:41Z</time></trkpt>
<trkpt lat="44.996043741703033" lon="5.257817655801773"><ele></ele><time>2015-2-3T1:37:44Z</time></trkpt>
<trkpt lat="44.995772922411561" lon="5.258244629949331"><ele></ele><time>2015-2-3T1:37:47Z</time></trkpt>
<trkpt lat="44.995367825031281" lon="5.258565070107579"><ele></ele><time>2015-2-3T1:37:50Z</time></trkpt>
<trkpt lat="44.994912184774876" lon="5.258415956050158"><ele></ele><time>2015-2-3T1:37:53Z</time></trkpt>
<trkpt lat="44.994622841477394" lon="5.257921339944005"><ele></ele><time>2015-2-3T1:37:56Z</time></trkpt>
<trkpt lat="44.994405331090093" lon="5.25735086761415"><ele></ele><time>2015-2-3T1:37:59Z</time></trkpt>
<trkpt lat="44.994006771594286" lon="5.257073091343045"><ele></ele><time>2015-2-3T1:38:2Z</time></trkpt>
<trkpt lat="44.993562279269099" lon="5.256889192387462"><ele></ele><time>2015-2-3T1:38:5Z</time></trkpt>
<trkpt lat="44.993103118613362" lon="5.256727756932378"><ele></ele><time>2015-2-3T1:38:8Z</time></trkpt>
<trkpt lat="44.992629876360297" lon="5.256740413606167"><ele></ele><time>2015-2-3T1:38:11Z</time></trkpt>
<trkpt lat="44.992180103436112" lon="5.256702778860927"><ele></ele><time>2015-2-3T1:38:14Z</time></trkpt>
<trkpt lat="44.991739634424448" lon="5.256553245708346"><ele></ele><time>2015-2-3T1:38:17Z</time></trkpt>
<trkpt lat="44.991288101300597" lon="5.256479401141405"><ele></ele><time>2015-2-3T1:38:20Z</time></trkpt>
<trkpt lat="44.990831203758717" lon="5.256492979824543"><ele></ele><time>2015-2-3T1:38:23Z</time></trkpt>
<trkpt lat="44.990597181022167" lon="5.255947820842266"><ele></ele><time>2015-2-3T1:38:26Z</time></trkpt>
<trkpt lat="44.990358548238873" lon="5.255392100661993"><ele></ele><time>2015-2-3T1:38:29Z</time></trkpt>
<trkpt lat="44.990052105858922" lon="5.254920115694404"><ele></ele><time>2015-2-3T1:38:32Z</time></trkpt>
<trkpt lat="44.989682966843247" lon="5.254554245620966"><ele></ele><time>2015-2-3T1:38:35Z</time></trkpt>
<trkpt lat="44.989274013787508" lon="5.254229195415974"><ele></ele><time>2015-2-3T1:38:38Z</time></trkpt>
<trkpt lat="44.988863468170166" lon="5.253975307568908"><ele></ele><time>2015-2-3T1:38:41Z</time></trkpt>
<trkpt lat="44.988434063270688" lon="5.253757797181606"><ele></ele><time>2015-2-3T1:38:44Z</time></trkpt>
<trkpt lat="44.987985631451011" lon="5.253592086955905"><ele></ele><time>2015-2-3T1:38:47Z</time></trkpt>
<trkpt lat="44.98753946274519" lon="5.253477422520518"><ele></ele><time>2015-2-3T1:38:50Z</time></trkpt>
<trkpt lat="44.987070998176932" lon="5.253398381173611"><ele></ele><time>2015-2-3T1:38:53Z</time></trkpt>
<trkpt lat="44.986621309071779" lon="5.253523020073772"><ele></ele><time>2015-2-3T1:38:56Z</time></trkpt>
<trkpt lat="44.986188216134906" lon="5.253767017275095"><ele></ele><time>2015-2-3T1:38:59Z</time></trkpt>
<trkpt lat="44.985782029107213" lon="5.253674061968923"><ele></ele><time>2015-2-3T1:39:2Z</time></trkpt>
<trkpt lat="44.986016722396016" lon="5.253157233819366"><ele></ele><time>2015-2-3T1:39:5Z</time></trkpt>
<trkpt lat="44.986347053200006" lon="5.252715172246099"><ele></ele><time>2015-2-3T1:39:8Z</time></trkpt>
<trkpt lat="44.986647795885801" lon="5.252204211428762"><ele></ele><time>2015-2-3T1:39:11Z</time></trkpt>
<trkpt lat="44.986885925754905" lon="5.251654023304582"><ele></ele><time>2015-2-3T1:39:14Z</time></trkpt>
<trkpt lat="44.987085079774261" lon="5.251078438013792"><ele></ele><time>2015-2-3T1:39:17Z</time></trkpt>
<trkpt lat="44.987019952386618" lon="5.250449124723673"><ele></ele><time>2015-2-3T1:39:20Z</time></trkpt>
<trkpt lat="44.986783415079117" lon="5.249910419806838"><ele></ele><time>2015-2-3T1:39:23Z</time></trkpt>
<trkpt lat="44.986350825056434" lon="5.249848058447242"><ele></ele><time>2015-2-3T1:39:26Z</time></trkpt>
<trkpt lat="44.985907087102532" lon="5.250062216073275"><ele></ele><time>2015-2-3T1:39:29Z</time></trkpt>
<trkpt lat="44.985430743545294" lon="5.25008006952703"><ele></ele><time>2015-2-3T1:39:32Z</time></trkpt>
<trkpt lat="44.98498247936368" lon="5.250072022899985"><ele></ele><time>2015-2-3T1:39:35Z</time></trkpt>
<trkpt lat="44.984510410577059" lon="5.250054085627198"><ele></ele><time>2015-2-3T1:39:38Z</time></trkpt>
<trkpt lat="44.98403892852366" lon="5.250055175274611"><ele></ele><time>2015-2-3T1:39:41Z</time></trkpt>
<trkpt lat="44.983592759817839" lon="5.250200433656573"><ele></ele><time>2015-2-3T1:39:44Z</time></trkpt>
<trkpt lat="44.983133599162102" lon="5.250273104757071"><ele></ele><time>2015-2-3T1:39:47Z</time></trkpt>
<trkpt lat="44.982655243948102" lon="5.250278385356069"><ele></ele><time>2015-2-3T1:39:50Z</time></trkpt>
<trkpt lat="44.982206393033266" lon="5.250152824446559"><ele></ele><time>2015-2-3T1:39:53Z</time></trkpt>
<trkpt lat="44.98175804503262" lon="5.250018881633878"><ele></ele><time>2015-2-3T1:39:56Z</time></trkpt>
<trkpt lat="44.981303745880723" lon="5.249924082309008"><ele></ele><time>2015-2-3T1:39:59Z</time></trkpt>
<trkpt lat="44.980851374566555" lon="5.249835988506675"><ele></ele><time>2015-2-3T1:40:2Z</time></trkpt>
<trkpt lat="44.980385005474091" lon="5.249756025150418"><ele></ele><time>2015-2-3T1:40:5Z</time></trkpt>
<trkpt lat="44.979931628331542" lon="5.249826349318028"><ele></ele><time>2015-2-3T1:40:8Z</time></trkpt>
<trkpt lat="44.979484621435404" lon="5.249955514445901"><ele></ele><time>2015-2-3T1:40:11Z</time></trkpt>
<trkpt lat="44.979032166302204" lon="5.250078057870269"><ele></ele><time>2015-2-3T1:40:14Z</time></trkpt>
<trkpt lat="44.978587171062827" lon="5.250122649595141"><ele></ele><time>2015-2-3T1:40:17Z</time></trkpt>
<trkpt lat="44.978754306212068" lon="5.249595427885652"><ele></ele><time>2015-2-3T1:40:20Z</time></trkpt>
<trkpt lat="44.979140209034085" lon="5.249274987727404"><ele></ele><time>2015-2-3T1:40:23Z</time></trkpt>
<trkpt lat="44.979584785178304" lon="5.249083125963807"><ele></ele><time>2015-2-3T1:40:26Z</time></trkpt>
<trkpt lat="44.979916289448738" lon="5.24864642880857"><ele></ele><time>2015-2-3T1:40:29Z</time></trkpt>
<trkpt lat="44.980274615809321" lon="5.248231943696737"><ele></ele><time>2015-2-3T1:40:32Z</time></trkpt>
<trkpt lat="44.980629337951541" lon="5.247808238491416"><ele></ele><time>2015-2-3T1:40:35Z</time></trkpt>
<trkpt lat="44.980994621291757" lon="5.24739358574152"><ele></ele><time>2015-2-3T1:40:38Z</time></trkpt>
<trkpt lat="44.981111045926809" lon="5.246840547770262"><ele></ele><time>2015-2-3T1:40:41Z</time></trkpt>
<trkpt lat="44.980710055679083" lon="5.24704665876925"><ele></ele><time>2015-2-3T1:40:44Z</time></trkpt>
<trkpt lat="44.980291798710823" lon="5.247275149449706"><ele></ele><time>2015-2-3T1:40:47Z</time></trkpt>
<trkpt lat="44.979847641661763" lon="5.247444296255708"><ele></ele><time>2015-2-3T1:40:50Z</time></trkpt>
<trkpt lat="44.979392252862453" lon="5.247423592954874"><ele></ele><time>2015-2-3T1:40:53Z</time></trkpt>
<trkpt lat="44.979026047512889" lon="5.247071133926511"><ele></ele><time>2015-2-3T1:40:56Z</time></trkpt>
<trkpt lat="44.978939546272159" lon="5.246455818414688"><ele></ele><time>2015-2-3T1:40:59Z</time></trkpt>
<trkpt lat="44.978673337027431" lon="5.246036220341921"><ele></ele><time>2015-2-3T1:41:2Z</time></trkpt>
<trkpt lat="44.978218199685216" lon="5.24607134051621"><ele></ele><time>2015-2-3T1:41:5Z</time></trkpt>
<trkpt lat="44.977840092033148" lon="5.245714522898197"><ele></ele><time>2015-2-3T1:41:8Z</time></trkpt>
<trkpt lat="44.977537505328655" lon="5.245241699740291"><ele></ele><time>2015-2-3T1:41:11Z</time></trkpt>
<trkpt lat="44.977237600833178" lon="5.244756639003754"><ele></ele><time>2015-2-3T1:41:14Z</time></trkpt>
<trkpt lat="44.976872485131025" lon="5.244393786415458"><ele></ele><time>2015-2-3T1:41:17Z</time></trkpt>
<trkpt lat="44.976421790197492" lon="5.244317008182406"><ele></ele><time>2015-2-3T1:41:20Z</time></trkpt>
<trkpt lat="44.975984757766128" lon="5.244111232459545"><ele></ele><time>2015-2-3T1:41:23Z</time></trkpt>
<trkpt lat="44.975653840228915" lon="5.243665566667914"><ele></ele><time>2015-2-3T1:41:26Z</time></trkpt>
<trkpt lat="44.975322252139449" lon="5.243259966373444"><ele></ele><time>2015-2-3T1:41:29Z</time></trkpt>
<trkpt lat="44.97490600682795" lon="5.243486193940043"><ele></ele><time>2015-2-3T1:41:32Z</time></trkpt>
<trkpt lat="44.974997453391552" lon="5.24409580975771"><ele></ele><time>2015-2-3T1:41:35Z</time></trkpt>
<trkpt lat="44.974744655191898" lon="5.244087930768728"><ele></ele><time>2015-2-3T1:41:38Z</time></trkpt>
<trkpt lat="44.974403008818626" lon="5.243677301332355"><ele></ele><time>2015-2-3T1:41:41Z</time></trkpt>
<trkpt lat="44.974238220602274" lon="5.243079755455256"><ele></ele><time>2015-2-3T1:41:44Z</time></trkpt>
<trkpt lat="44.973955834284425" lon="5.242555718868971"><ele></ele><time>2015-2-3T1:41:47Z</time></trkpt>
<trkpt lat="44.973665317520499" lon="5.242066886276007"><ele></ele><time>2015-2-3T1:41:50Z</time></trkpt>
<trkpt lat="44.973355270922184" lon="5.24157403036952"><ele></ele><time>2015-2-3T1:41:53Z</time></trkpt>
<trkpt lat="44.973008427768946" lon="5.24116013199091"><ele></ele><time>2015-2-3T1:41:56Z</time></trkpt>
<trkpt lat="44.972683461382985" lon="5.240690829232335"><ele></ele><time>2015-2-3T1:41:59Z</time></trkpt>
<trkpt lat="44.972427729517221" lon="5.240159081295133"><ele></ele><time>2015-2-3T1:42:2Z</time></trkpt>
<trkpt lat="44.972323123365641" lon="5.239509399980307"><ele></ele><time>2015-2-3T1:42:5Z</time></trkpt>
<trkpt lat="44.972227150574327" lon="5.238860389217734"><ele></ele><time>2015-2-3T1:42:8Z</time></trkpt>
<trkpt lat="44.972117431461811" lon="5.238213641569018"><ele></ele><time>2015-2-3T1:42:11Z</time></trkpt>
<trkpt lat="44.971924228593707" lon="5.237601427361369"><ele></ele><time>2015-2-3T1:42:14Z</time></trkpt>
<trkpt lat="44.971914840862155" lon="5.236963648349047"><ele></ele><time>2015-2-3T1:42:17Z</time></trkpt>
<trkpt lat="44.971868991851807" lon="5.236266776919365"><ele></ele><time>2015-2-3T1:42:20Z</time></trkpt>
<trkpt lat="44.971754578873515" lon="5.235589602962136"><ele></ele><time>2015-2-3T1:42:23Z</time></trkpt>
<trkpt lat="44.971618289127946" lon="5.234980657696724"><ele></ele><time>2015-2-3T1:42:26Z</time></trkpt>
<trkpt lat="44.971498595550656" lon="5.234335083514452"><ele></ele><time>2015-2-3T1:42:29Z</time></trkpt>
<trkpt lat="44.971319977194071" lon="5.23374181240797"><ele></ele><time>2015-2-3T1:42:32Z</time></trkpt>
<trkpt lat="44.971131049096584" lon="5.233157761394978"><ele></ele><time>2015-2-3T1:42:35Z</time></trkpt>
<trkpt lat="44.970924351364374" lon="5.232583181932569"><ele></ele><time>2015-2-3T1:42:38Z</time></trkpt>
<trkpt lat="44.970744559541345" lon="5.231999130919576"><ele></ele><time>2015-2-3T1:42:41Z</time></trkpt>
<trkpt lat="44.970606928691268" lon="5.231384485960007"><ele></ele><time>2015-2-3T1:42:44Z</time></trkpt>
<trkpt lat="44.970509111881256" lon="5.230761375278235"><ele></ele><time>2015-2-3T1:42:47Z</time></trkpt>
<trkpt lat="44.970366535708308" lon="5.230138180777431"><ele></ele><time>2015-2-3T1:42:50Z</time></trkpt>
<trkpt lat="44.970126394182444" lon="5.229599811136723"><ele></ele><time>2015-2-3T1:42:53Z</time></trkpt>
<trkpt lat="44.969883318990469" lon="5.229045683518052"><ele></ele><time>2015-2-3T1:42:56Z</time></trkpt>
<trkpt lat="44.969724817201495" lon="5.228446545079351"><ele></ele><time>2015-2-3T1:42:59Z</time></trkpt>
<trkpt lat="44.96965222992003" lon="5.227786805480719"><ele></ele><time>2015-2-3T1:43:2Z</time></trkpt>
<trkpt lat="44.96961023658514" lon="5.227153636515141"><ele></ele><time>2015-2-3T1:43:5Z</time></trkpt>
<trkpt lat="44.969687601551414" lon="5.226528514176607"><ele></ele><time>2015-2-3T1:43:8Z</time></trkpt>
<trkpt lat="44.969691960141063" lon="5.225905738770962"><ele></ele><time>2015-2-3T1:43:11Z</time></trkpt>
<trkpt lat="44.969404712319374" lon="5.225380109623075"><ele></ele><time>2015-2-3T1:43:14Z</time></trkpt>
<trkpt lat="44.969235649332404" lon="5.224750377237797"><ele></ele><time>2015-2-3T1:43:17Z</time></trkpt>
<trkpt lat="44.96904538013041" lon="5.224160877987742"><ele></ele><time>2015-2-3T1:43:20Z</time></trkpt>
<trkpt lat="44.968703147023916" lon="5.223714541643858"><ele></ele><time>2015-2-3T1:43:23Z</time></trkpt>
<trkpt lat="44.968249350786209" lon="5.223536510020495"><ele></ele><time>2015-2-3T1:43:26Z</time></trkpt>
<trkpt lat="44.967790609225631" lon="5.223535755649209"><ele></ele><time>2015-2-3T1:43:29Z</time></trkpt>
<trkpt lat="44.967317534610629" lon="5.223633907735348"><ele></ele><time>2015-2-3T1:43:32Z</time></trkpt>
<trkpt lat="44.966881843283772" lon="5.223510023206472"><ele></ele><time>2015-2-3T1:43:35Z</time></trkpt>
<trkpt lat="44.966608006507158" lon="5.222981041297317"><ele></ele><time>2015-2-3T1:43:38Z</time></trkpt>
<trkpt lat="44.96641656383872" lon="5.222375532612205"><ele></ele><time>2015-2-3T1:43:41Z</time></trkpt>
<trkpt lat="44.966131243854761" lon="5.221880581229925"><ele></ele><time>2015-2-3T1:43:44Z</time></trkpt>
<trkpt lat="44.965804265812039" lon="5.221439441666007"><ele></ele><time>2015-2-3T1:43:47Z</time></trkpt>
<trkpt lat="44.965425571426749" lon="5.22101397626102"><ele></ele><time>2015-2-3T1:43:50Z</time></trkpt>
<trkpt lat="44.96513782069087" lon="5.220475941896439"><ele></ele><time>2015-2-3T1:43:53Z</time></trkpt>
<trkpt lat="44.964775051921606" lon="5.220011919736862"><ele></ele><time>2015-2-3T1:43:56Z</time></trkpt>
<trkpt lat="44.964348077774048" lon="5.219651916995645"><ele></ele><time>2015-2-3T1:43:59Z</time></trkpt>
<trkpt lat="44.963914481922984" lon="5.219420827925205"><ele></ele><time>2015-2-3T1:44:2Z</time></trkpt>
<trkpt lat="44.963467307388783" lon="5.219158558174968"><ele></ele><time>2015-2-3T1:44:5Z</time></trkpt>
<trkpt lat="44.963010493665934" lon="5.218986561521888"><ele></ele><time>2015-2-3T1:44:8Z</time></trkpt>
<trkpt lat="44.962636157870293" lon="5.218625217676163"><ele></ele><time>2015-2-3T1:44:11Z</time></trkpt>
<trkpt lat="44.962275819852948" lon="5.218219282105565"><ele></ele><time>2015-2-3T1:44:14Z</time></trkpt>
<trkpt lat="44.961917577311397" lon="5.217800522223115"><ele></ele><time>2015-2-3T1:44:17Z</time></trkpt>
<trkpt lat="44.961530165746808" lon="5.217402968555689"><ele></ele><time>2015-2-3T1:44:20Z</time></trkpt>
<trkpt lat="44.961104784160852" lon="5.217152014374733"><ele></ele><time>2015-2-3T1:44:23Z</time></trkpt>
<trkpt lat="44.960777973756194" lon="5.216674078255892"><ele></ele><time>2015-2-3T1:44:26Z</time></trkpt>
<trkpt lat="44.960397519171238" lon="5.21629043854773"><ele></ele><time>2015-2-3T1:44:29Z</time></trkpt>
<trkpt lat="44.959926959127188" lon="5.216145263984799"><ele></ele><time>2015-2-3T1:44:32Z</time></trkpt>
<trkpt lat="44.959458159282804" lon="5.216035377234221"><ele></ele><time>2015-2-3T1:44:35Z</time></trkpt>
<trkpt lat="44.959008051082492" lon="5.215887269005179"><ele></ele><time>2015-2-3T1:44:38Z</time></trkpt>
<trkpt lat="44.958588201552629" lon="5.215643355622888"><ele></ele><time>2015-2-3T1:44:41Z</time></trkpt>
<trkpt lat="44.958122419193387" lon="5.215596668422222"><ele></ele><time>2015-2-3T1:44:44Z</time></trkpt>
<trkpt lat="44.95768672786653" lon="5.215798085555434"><ele></ele><time>2015-2-3T1:44:47Z</time></trkpt>
<trkpt lat="44.957232512533665" lon="5.215929681435227"><ele></ele><time>2015-2-3T1:44:50Z</time></trkpt>
<trkpt lat="44.956764467060566" lon="5.215823901817203"><ele></ele><time>2015-2-3T1:44:53Z</time></trkpt>
<trkpt lat="44.956411756575108" lon="5.215412015095353"><ele></ele><time>2015-2-3T1:44:56Z</time></trkpt>
<trkpt lat="44.95620958507061" lon="5.21483525633812"><ele></ele><time>2015-2-3T1:44:59Z</time></trkpt>
<trkpt lat="44.955889564007521" lon="5.214393781498075"><ele></ele><time>2015-2-3T1:45:2Z</time></trkpt>
<trkpt lat="44.955467283725739" lon="5.214076610282064"><ele></ele><time>2015-2-3T1:45:5Z</time></trkpt>
<trkpt lat="44.95501390658319" lon="5.21399044431746"><ele></ele><time>2015-2-3T1:45:8Z</time></trkpt>
<trkpt lat="44.954549465328455" lon="5.21389271132648"><ele></ele><time>2015-2-3T1:45:11Z</time></trkpt>
<trkpt lat="44.954151995480061" lon="5.213581826537848"><ele></ele><time>2015-2-3T1:45:14Z</time></trkpt>
<trkpt lat="44.953763578087091" lon="5.213266499340534"><ele></ele><time>2015-2-3T1:45:17Z</time></trkpt>
<trkpt lat="44.953346997499466" lon="5.213016634806991"><ele></ele><time>2015-2-3T1:45:20Z</time></trkpt>
<trkpt lat="44.95289035141468" lon="5.212922757491469"><ele></ele><time>2015-2-3T1:45:23Z</time></trkpt>
<trkpt lat="44.952459605410695" lon="5.212637856602669"><ele></ele><time>2015-2-3T1:45:26Z</time></trkpt>
<trkpt lat="44.95204403065145" lon="5.212308196350932"><ele></ele><time>2015-2-3T1:45:29Z</time></trkpt>
<trkpt lat="44.951622588559985" lon="5.212010303512216"><ele></ele><time>2015-2-3T1:45:32Z</time></trkpt>
<trkpt lat="44.951228303834796" lon="5.211712243035436"><ele></ele><time>2015-2-3T1:45:35Z</time></trkpt>
<trkpt lat="44.950792025774717" lon="5.211564218625426"><ele></ele><time>2015-2-3T1:45:38Z</time></trkpt>
<trkpt lat="44.950348790735006" lon="5.211539743468165"><ele></ele><time>2015-2-3T1:45:41Z</time></trkpt>
<trkpt lat="44.94997177273035" lon="5.211167670786381"><ele></ele><time>2015-2-3T1:45:44Z</time></trkpt>
<trkpt lat="44.949596095830202" lon="5.21084563806653"><ele></ele><time>2015-2-3T1:45:47Z</time></trkpt>
<trkpt lat="44.949281690642238" lon="5.210358984768391"><ele></ele><time>2015-2-3T1:45:50Z</time></trkpt>
<trkpt lat="44.948911294341087" lon="5.209980458021164"><ele></ele><time>2015-2-3T1:45:53Z</time></trkpt>
<trkpt lat="44.948497815057635" lon="5.209711063653231"><ele></ele><time>2015-2-3T1:45:56Z</time></trkpt>
<trkpt lat="44.948049886152148" lon="5.209720451384783"><ele></ele><time>2015-2-3T1:45:59Z</time></trkpt>
<trkpt lat="44.947690889239311" lon="5.20931770093739"><ele></ele><time>2015-2-3T1:46:2Z</time></trkpt>
<trkpt lat="44.947371706366539" lon="5.208911513909698"><ele></ele><time>2015-2-3T1:46:5Z</time></trkpt>
<trkpt lat="44.946921011433005" lon="5.209044618532062"><ele></ele><time>2015-2-3T1:46:8Z</time></trkpt>
<trkpt lat="44.946451541036367" lon="5.209034560248256"><ele></ele><time>2015-2-3T1:46:11Z</time></trkpt>
<trkpt lat="44.945986177772284" lon="5.208883937448263"><ele></ele><time>2015-2-3T1:46:14Z</time></trkpt>
<trkpt lat="44.945539506152272" lon="5.208673048764467"><ele></ele><time>2015-2-3T1:46:17Z</time></trkpt>
<trkpt lat="44.945092918351293" lon="5.208470206707716"><ele></ele><time>2015-2-3T1:46:20Z</time></trkpt>
<trkpt lat="44.9446936044842" lon="5.208176085725427"><ele></ele><time>2015-2-3T1:46:23Z</time></trkpt>
<trkpt lat="44.944338379427791" lon="5.207789931446314"><ele></ele><time>2015-2-3T1:46:26Z</time></trkpt>
<trkpt lat="44.943924313411117" lon="5.207571918144822"><ele></ele><time>2015-2-3T1:46:29Z</time></trkpt>
<trkpt lat="44.943466493859887" lon="5.207374524325132"><ele></ele><time>2015-2-3T1:46:32Z</time></trkpt>
<trkpt lat="44.943045973777771" lon="5.207114014774561"><ele></ele><time>2015-2-3T1:46:35Z</time></trkpt>
<trkpt lat="44.942691503092647" lon="5.206698272377253"><ele></ele><time>2015-2-3T1:46:38Z</time></trkpt>
<trkpt lat="44.942350359633565" lon="5.206246906891465"><ele></ele><time>2015-2-3T1:46:41Z</time></trkpt>
<trkpt lat="44.941996224224567" lon="5.205794787034392"><ele></ele><time>2015-2-3T1:46:44Z</time></trkpt>
<trkpt lat="44.941566148772836" lon="5.205563781782985"><ele></ele><time>2015-2-3T1:46:47Z</time></trkpt>
<trkpt lat="44.941179156303406" lon="5.205220710486174"><ele></ele><time>2015-2-3T1:46:50Z</time></trkpt>
<trkpt lat="44.940733825787902" lon="5.205037733539939"><ele></ele><time>2015-2-3T1:46:53Z</time></trkpt>
<trkpt lat="44.94032378308475" lon="5.204803962260485"><ele></ele><time>2015-2-3T1:46:56Z</time></trkpt>
<trkpt lat="44.939955063164234" lon="5.204427698627114"><ele></ele><time>2015-2-3T1:46:59Z</time></trkpt>
<trkpt lat="44.939541835337877" lon="5.204180097207427"><ele></ele><time>2015-2-3T1:47:2Z</time></trkpt>
<trkpt lat="44.93913447484374" lon="5.203912127763033"><ele></ele><time>2015-2-3T1:47:5Z</time></trkpt>
<trkpt lat="44.938812023028731" lon="5.203431509435177"><ele></ele><time>2015-2-3T1:47:8Z</time></trkpt>
<trkpt lat="44.938383540138602" lon="5.203141244128346"><ele></ele><time>2015-2-3T1:47:11Z</time></trkpt>
<trkpt lat="44.937976934015751" lon="5.202864222228527"><ele></ele><time>2015-2-3T1:47:14Z</time></trkpt>
<trkpt lat="44.937569154426455" lon="5.202580913901329"><ele></ele><time>2015-2-3T1:47:17Z</time></trkpt>
<trkpt lat="44.93713547475636" lon="5.202303389087319"><ele></ele><time>2015-2-3T1:47:20Z</time></trkpt>
<trkpt lat="44.936715038493276" lon="5.202052099630237"><ele></ele><time>2015-2-3T1:47:23Z</time></trkpt>
<trkpt lat="44.936267444863915" lon="5.201801816001535"><ele></ele><time>2015-2-3T1:47:26Z</time></trkpt>
<trkpt lat="44.935846254229546" lon="5.201547592878342"><ele></ele><time>2015-2-3T1:47:29Z</time></trkpt>
<trkpt lat="44.935425482690334" lon="5.201261769980192"><ele></ele><time>2015-2-3T1:47:32Z</time></trkpt>
<trkpt lat="44.934985935688019" lon="5.201035710051656"><ele></ele><time>2015-2-3T1:47:35Z</time></trkpt>
<trkpt lat="44.934538844972849" lon="5.200841166079044"><ele></ele><time>2015-2-3T1:47:38Z</time></trkpt>
<trkpt lat="44.934110026806593" lon="5.200647125020623"><ele></ele><time>2015-2-3T1:47:41Z</time></trkpt>
<trkpt lat="44.933681879192591" lon="5.20042123273015"><ele></ele><time>2015-2-3T1:47:44Z</time></trkpt>
<trkpt lat="44.933266388252378" lon="5.20017053000629"><ele></ele><time>2015-2-3T1:47:47Z</time></trkpt>
<trkpt lat="44.932807227596641" lon="5.200057039037347"><ele></ele><time>2015-2-3T1:47:50Z</time></trkpt>
<trkpt lat="44.932338511571288" lon="5.200061481446028"><ele></ele><time>2015-2-3T1:47:53Z</time></trkpt>
<trkpt lat="44.931892594322562" lon="5.199855538085103"><ele></ele><time>2015-2-3T1:47:56Z</time></trkpt>
<trkpt lat="44.931438378989697" lon="5.199724193662405"><ele></ele><time>2015-2-3T1:47:59Z</time></trkpt>
<trkpt lat="44.931001765653491" lon="5.199484303593636"><ele></ele><time>2015-2-3T1:48:2Z</time></trkpt>
<trkpt lat="44.930617874488235" lon="5.199142824858427"><ele></ele><time>2015-2-3T1:48:5Z</time></trkpt>
<trkpt lat="44.930172208696604" lon="5.198891703039408"><ele></ele><time>2015-2-3T1:48:8Z</time></trkpt>
<trkpt lat="44.929721681401134" lon="5.198837136849761"><ele></ele><time>2015-2-3T1:48:11Z</time></trkpt>
<trkpt lat="44.929258748888969" lon="5.198817774653435"><ele></ele><time>2015-2-3T1:48:14Z</time></trkpt>
<trkpt lat="44.92882926017046" lon="5.198662960901856"><ele></ele><time>2015-2-3T1:48:17Z</time></trkpt>
<trkpt lat="44.928367082029581" lon="5.19857813604176"><ele></ele><time>2015-2-3T1:48:20Z</time></trkpt>
<trkpt lat="44.927942873910069" lon="5.198360793292522"><ele></ele><time>2015-2-3T1:48:23Z</time></trkpt>
<trkpt lat="44.92745135910809" lon="5.198393315076828"><ele></ele><time>2015-2-3T1:48:26Z</time></trkpt>
<trkpt lat="44.92700376547873" lon="5.198514685034752"><ele></ele><time>2015-2-3T1:48:29Z</time></trkpt>
<trkpt lat="44.926567319780588" lon="5.198322320356965"><ele></ele><time>2015-2-3T1:48:32Z</time></trkpt>
<trkpt lat="44.926083851605654" lon="5.198260545730591"><ele></ele><time>2015-2-3T1:48:35Z</time></trkpt>
<trkpt lat="44.925635755062103" lon="5.198240345343947"><ele></ele><time>2015-2-3T1:48:38Z</time></trkpt>
<trkpt lat="44.925168883055449" lon="5.198321482166648"><ele></ele><time>2015-2-3T1:48:41Z</time></trkpt>
<trkpt lat="44.924705279991031" lon="5.198209416121244"><ele></ele><time>2015-2-3T1:48:44Z</time></trkpt>
<trkpt lat="44.924224577844143" lon="5.198053931817412"><ele></ele><time>2015-2-3T1:48:47Z</time></trkpt>
<trkpt lat="44.923744630068541" lon="5.198026858270168"><ele></ele><time>2015-2-3T1:48:50Z</time></trkpt>
<trkpt lat="44.923295443877578" lon="5.198020823299885"><ele></ele><time>2015-2-3T1:48:53Z</time></trkpt>
<trkpt lat="44.922847179695964" lon="5.197809347882867"><ele></ele><time>2015-2-3T1:48:56Z</time></trkpt>
<trkpt lat="44.922395562753081" lon="5.19753735512495"><ele></ele><time>2015-2-3T1:48:59Z</time></trkpt>
<trkpt lat="44.921964732930064" lon="5.197319509461522"><ele></ele><time>2015-2-3T1:49:2Z</time></trkpt>
<trkpt lat="44.921565167605877" lon="5.196947352960706"><ele></ele><time>2015-2-3T1:49:5Z</time></trkpt>
<trkpt lat="44.921157220378518" lon="5.196640994399786"><ele></ele><time>2015-2-3T1:49:8Z</time></trkpt>
<trkpt lat="44.920730497688055" lon="5.196341592818499"><ele></ele><time>2015-2-3T1:49:11Z</time></trkpt>
<trkpt lat="44.920301260426641" lon="5.196025175973773"><ele></ele><time>2015-2-3T1:49:14Z</time></trkpt>
<trkpt lat="44.919885685667396" lon="5.195783609524369"><ele></ele><time>2015-2-3T1:49:17Z</time></trkpt>
<trkpt lat="44.919415041804314" lon="5.19566735252738"><ele></ele><time>2015-2-3T1:49:20Z</time></trkpt>
<trkpt lat="44.918979685753584" lon="5.1953692920506"><ele></ele><time>2015-2-3T1:49:23Z</time></trkpt>
<trkpt lat="44.918529745191336" lon="5.195091683417559"><ele></ele><time>2015-2-3T1:49:26Z</time></trkpt>
<trkpt lat="44.918123558163643" lon="5.19481030292809"><ele></ele><time>2015-2-3T1:49:29Z</time></trkpt>
<trkpt lat="44.917672863230109" lon="5.194581644609571"><ele></ele><time>2015-2-3T1:49:32Z</time></trkpt>
<trkpt lat="44.917207667604089" lon="5.194393303245306"><ele></ele><time>2015-2-3T1:49:35Z</time></trkpt>
<trkpt lat="44.916730066761374" lon="5.194198926910758"><ele></ele><time>2015-2-3T1:49:38Z</time></trkpt>
<trkpt lat="44.916296554729342" lon="5.194035647436976"><ele></ele><time>2015-2-3T1:49:41Z</time></trkpt>
<trkpt lat="44.915844518691301" lon="5.19390195608139"><ele></ele><time>2015-2-3T1:49:44Z</time></trkpt>
<trkpt lat="44.915357865393162" lon="5.193753596395254"><ele></ele><time>2015-2-3T1:49:47Z</time></trkpt>
<trkpt lat="44.914907505735755" lon="5.193542456254363"><ele></ele><time>2015-2-3T1:49:50Z</time></trkpt>
<trkpt lat="44.914483884349465" lon="5.193303739652038"><ele></ele><time>2015-2-3T1:49:53Z</time></trkpt>
<trkpt lat="44.914032099768519" lon="5.193037949502468"><ele></ele><time>2015-2-3T1:49:56Z</time></trkpt>
<trkpt lat="44.913617447018623" lon="5.192768471315503"><ele></ele><time>2015-2-3T1:49:59Z</time></trkpt>
<trkpt lat="44.913163734599948" lon="5.192573172971606"><ele></ele><time>2015-2-3T1:50:2Z</time></trkpt>
<trkpt lat="44.912709100171924" lon="5.192555654793978"><ele></ele><time>2015-2-3T1:50:5Z</time></trkpt>
<trkpt lat="44.912253376096487" lon="5.192554062232375"><ele></ele><time>2015-2-3T1:50:8Z</time></trkpt>
<trkpt lat="44.911797065287828" lon="5.192555906251073"><ele></ele><time>2015-2-3T1:50:11Z</time></trkpt>
<trkpt lat="44.911333462223411" lon="5.192474015057087"><ele></ele><time>2015-2-3T1:50:14Z</time></trkpt>
<trkpt lat="44.910872960463166" lon="5.192350130528212"><ele></ele><time>2015-2-3T1:50:17Z</time></trkpt>
<trkpt lat="44.91045143455267" lon="5.192204033955932"><ele></ele><time>2015-2-3T1:50:20Z</time></trkpt>
<trkpt lat="44.910003840923309" lon="5.192084843292832"><ele></ele><time>2015-2-3T1:50:23Z</time></trkpt>
<trkpt lat="44.909508135169744" lon="5.192062463611364"><ele></ele><time>2015-2-3T1:50:26Z</time></trkpt>
<trkpt lat="44.909032797440886" lon="5.192206967622042"><ele></ele><time>2015-2-3T1:50:29Z</time></trkpt>
<trkpt lat="44.908570954576135" lon="5.192292798310518"><ele></ele><time>2015-2-3T1:50:32Z</time></trkpt>
<trkpt lat="44.90808455273509" lon="5.192380640655756"><ele></ele><time>2015-2-3T1:50:35Z</time></trkpt>
<trkpt lat="44.907633438706398" lon="5.192480385303497"><ele></ele><time>2015-2-3T1:50:38Z</time></trkpt>
<trkpt lat="44.907141588628292" lon="5.192604521289468"><ele></ele><time>2015-2-3T1:50:41Z</time></trkpt>
<trkpt lat="44.90668561309576" lon="5.192717928439379"><ele></ele><time>2015-2-3T1:50:44Z</time></trkpt>
<trkpt lat="44.90619745105505" lon="5.192882549017668"><ele></ele><time>2015-2-3T1:50:47Z</time></trkpt>
<trkpt lat="44.905750695616007" lon="5.193037949502468"><ele></ele><time>2015-2-3T1:50:50Z</time></trkpt>
<trkpt lat="44.905289690941572" lon="5.193196618929505"><ele></ele><time>2015-2-3T1:50:53Z</time></trkpt>
<trkpt lat="44.904823657125235" lon="5.193344643339515"><ele></ele><time>2015-2-3T1:50:56Z</time></trkpt>
<trkpt lat="44.904357455670834" lon="5.193459140136838"><ele></ele><time>2015-2-3T1:50:59Z</time></trkpt>
<trkpt lat="44.903903910890222" lon="5.193530889227986"><ele></ele><time>2015-2-3T1:51:2Z</time></trkpt>
<trkpt lat="44.903437625616789" lon="5.193564584478736"><ele></ele><time>2015-2-3T1:51:5Z</time></trkpt>
<trkpt lat="44.90294854156673" lon="5.193526698276401"><ele></ele><time>2015-2-3T1:51:8Z</time></trkpt>
<trkpt lat="44.902478568255901" lon="5.193542204797268"><ele></ele><time>2015-2-3T1:51:11Z</time></trkpt>
<trkpt lat="44.902030555531383" lon="5.19367472268641"><ele></ele><time>2015-2-3T1:51:14Z</time></trkpt>
<trkpt lat="44.901584722101688" lon="5.193815119564533"><ele></ele><time>2015-2-3T1:51:17Z</time></trkpt>
<trkpt lat="44.90111525170505" lon="5.193877061828971"><ele></ele><time>2015-2-3T1:51:20Z</time></trkpt>
<trkpt lat="44.900655001401901" lon="5.193785531446338"><ele></ele><time>2015-2-3T1:51:23Z</time></trkpt>
<trkpt lat="44.900196930393577" lon="5.193678326904774"><ele></ele><time>2015-2-3T1:51:26Z</time></trkpt>
<trkpt lat="44.899744223803282" lon="5.193558046594262"><ele></ele><time>2015-2-3T1:51:29Z</time></trkpt>
<trkpt lat="44.899285398423672" lon="5.193419493734837"><ele></ele><time>2015-2-3T1:51:32Z</time></trkpt>
<trkpt lat="44.898850964382291" lon="5.193245736882091"><ele></ele><time>2015-2-3T1:51:35Z</time></trkpt>
<trkpt lat="44.898356013000011" lon="5.193013222888112"><ele></ele><time>2015-2-3T1:51:38Z</time></trkpt>
<trkpt lat="44.897863324731588" lon="5.192773416638374"><ele></ele><time>2015-2-3T1:51:41Z</time></trkpt>
<trkpt lat="44.897427633404732" lon="5.192530928179622"><ele></ele><time>2015-2-3T1:51:44Z</time></trkpt>
<trkpt lat="44.896983057260513" lon="5.192263377830386"><ele></ele><time>2015-2-3T1:51:47Z</time></trkpt>
<trkpt lat="44.896535547450185" lon="5.191976465284824"><ele></ele><time>2015-2-3T1:51:50Z</time></trkpt>
<trkpt lat="44.896085355430841" lon="5.191678823903203"><ele></ele><time>2015-2-3T1:51:53Z</time></trkpt>
<trkpt lat="44.895645137876272" lon="5.191385792568326"><ele></ele><time>2015-2-3T1:51:56Z</time></trkpt>
<trkpt lat="44.895198298618197" lon="5.191108770668507"><ele></ele><time>2015-2-3T1:51:59Z</time></trkpt>
<trkpt lat="44.894749280065298" lon="5.190855469554663"><ele></ele><time>2015-2-3T1:52:2Z</time></trkpt>
<trkpt lat="44.894317025318742" lon="5.190613819286227"><ele></ele><time>2015-2-3T1:52:5Z</time></trkpt>
<trkpt lat="44.893893823027611" lon="5.190393626689911"><ele></ele><time>2015-2-3T1:52:8Z</time></trkpt>
<trkpt lat="44.893430387601256" lon="5.190134290605784"><ele></ele><time>2015-2-3T1:52:11Z</time></trkpt>
<trkpt lat="44.892995450645685" lon="5.189864812418819"><ele></ele><time>2015-2-3T1:52:14Z</time></trkpt>
<trkpt lat="44.892582641914487" lon="5.18958929926157"><ele></ele><time>2015-2-3T1:52:17Z</time></trkpt>
<trkpt lat="44.892165390774608" lon="5.189279923215509"><ele></ele><time>2015-2-3T1:52:20Z</time></trkpt>
<trkpt lat="44.891754426062107" lon="5.188930565491319"><ele></ele><time>2015-2-3T1:52:23Z</time></trkpt>
<trkpt lat="44.891359135508537" lon="5.188557486981154"><ele></ele><time>2015-2-3T1:52:26Z</time></trkpt>
<trkpt lat="44.890979686751962" lon="5.188203938305378"><ele></ele><time>2015-2-3T1:52:29Z</time></trkpt>
<trkpt lat="44.890564698725939" lon="5.187823148444295"><ele></ele><time>2015-2-3T1:52:32Z</time></trkpt>
<trkpt lat="44.890150716528296" lon="5.187449567019939"><ele></ele><time>2015-2-3T1:52:35Z</time></trkpt>
<trkpt lat="44.889773698523641" lon="5.187093252316117"><ele></ele><time>2015-2-3T1:52:38Z</time></trkpt>
<trkpt lat="44.889376731589437" lon="5.186720425263047"><ele></ele><time>2015-2-3T1:52:41Z</time></trkpt>
<trkpt lat="44.888964090496302" lon="5.1863360311836"><ele></ele><time>2015-2-3T1:52:44Z</time></trkpt>
<trkpt lat="44.888517502695322" lon="5.185977788642049"><ele></ele><time>2015-2-3T1:52:47Z</time></trkpt>
<trkpt lat="44.888097820803523" lon="5.185649553313851"><ele></ele><time>2015-2-3T1:52:50Z</time></trkpt>
<trkpt lat="44.887672774493694" lon="5.185294160619378"><ele></ele><time>2015-2-3T1:52:53Z</time></trkpt>
<trkpt lat="44.887244878336787" lon="5.184918399900198"><ele></ele><time>2015-2-3T1:52:56Z</time></trkpt>
<trkpt lat="44.88722643814981" lon="5.184336444362998"><ele></ele><time>2015-2-3T1:52:59Z</time></trkpt>
<trkpt lat="44.887402290478349" lon="5.183705957606435"><ele></ele><time>2015-2-3T1:53:2Z</time></trkpt>
<trkpt lat="44.887356609106064" lon="5.183063903823495"><ele></ele><time>2015-2-3T1:53:5Z</time></trkpt>
<trkpt lat="44.886979339644313" lon="5.182678503915668"><ele></ele><time>2015-2-3T1:53:8Z</time></trkpt>
<trkpt lat="44.886697875335813" lon="5.182152455672622"><ele></ele><time>2015-2-3T1:53:11Z</time></trkpt>
<trkpt lat="44.886437617242336" lon="5.181579049676657"><ele></ele><time>2015-2-3T1:53:14Z</time></trkpt>
<trkpt lat="44.886083817109466" lon="5.181188872084022"><ele></ele><time>2015-2-3T1:53:17Z</time></trkpt>
<trkpt lat="44.885675366967916" lon="5.180870275944471"><ele></ele><time>2015-2-3T1:53:20Z</time></trkpt>
<trkpt lat="44.885226096957922" lon="5.18067036755383"><ele></ele><time>2015-2-3T1:53:23Z</time></trkpt>
<trkpt lat="44.884760733693838" lon="5.180545561015606"><ele></ele><time>2015-2-3T1:53:26Z</time></trkpt>
<trkpt lat="44.884298890829086" lon="5.18049594014883"><ele></ele><time>2015-2-3T1:53:29Z</time></trkpt>
<trkpt lat="44.883825145661831" lon="5.180473057553172"><ele></ele><time>2015-2-3T1:53:32Z</time></trkpt>
<trkpt lat="44.883372858166695" lon="5.180469118058682"><ele></ele><time>2015-2-3T1:53:35Z</time></trkpt>
<trkpt lat="44.882902298122644" lon="5.180387226864696"><ele></ele><time>2015-2-3T1:53:38Z</time></trkpt>
<trkpt lat="44.88244816660881" lon="5.180213637650013"><ele></ele><time>2015-2-3T1:53:41Z</time></trkpt>
<trkpt lat="44.881986742839217" lon="5.180099727585912"><ele></ele><time>2015-2-3T1:53:44Z</time></trkpt>
<trkpt lat="44.881508806720376" lon="5.180126382037997"><ele></ele><time>2015-2-3T1:53:47Z</time></trkpt>
<trkpt lat="44.881042521446943" lon="5.180141469463706"><ele></ele><time>2015-2-3T1:53:50Z</time></trkpt>
<trkpt lat="44.880718644708395" lon="5.17986805178225"><ele></ele><time>2015-2-3T1:53:53Z</time></trkpt>
<trkpt lat="44.881119970232248" lon="5.179545013234019"><ele></ele><time>2015-2-3T1:53:56Z</time></trkpt>
<trkpt lat="44.881461029872298" lon="5.179132204502821"><ele></ele><time>2015-2-3T1:53:59Z</time></trkpt>
<trkpt lat="44.881709888577461" lon="5.178530467674136"><ele></ele><time>2015-2-3T1:54:2Z</time></trkpt>
<trkpt lat="44.881705278530717" lon="5.177838541567326"><ele></ele><time>2015-2-3T1:54:5Z</time></trkpt>
<trkpt lat="44.881486846134067" lon="5.17723236232996"><ele></ele><time>2015-2-3T1:54:8Z</time></trkpt>
<trkpt lat="44.88107169046998" lon="5.176974618807435"><ele></ele><time>2015-2-3T1:54:11Z</time></trkpt>
<trkpt lat="44.880638513714075" lon="5.176678653806448"><ele></ele><time>2015-2-3T1:54:14Z</time></trkpt>
<trkpt lat="44.880261914804578" lon="5.176329798996449"><ele></ele><time>2015-2-3T1:54:17Z</time></trkpt>
<trkpt lat="44.879970643669367" lon="5.175761841237545"><ele></ele><time>2015-2-3T1:54:20Z</time></trkpt>
<trkpt lat="44.879615167155862" lon="5.175364706665278"><ele></ele><time>2015-2-3T1:54:23Z</time></trkpt>
<trkpt lat="44.879190875217319" lon="5.175142167136073"><ele></ele><time>2015-2-3T1:54:26Z</time></trkpt>
<trkpt lat="44.878749400377274" lon="5.175032112747431"><ele></ele><time>2015-2-3T1:54:29Z</time></trkpt>
<trkpt lat="44.878282779827714" lon="5.174926500767469"><ele></ele><time>2015-2-3T1:54:32Z</time></trkpt>
<trkpt lat="44.877825463190675" lon="5.174783254042268"><ele></ele><time>2015-2-3T1:54:35Z</time></trkpt>
<trkpt lat="44.877408631145954" lon="5.174521738663316"><ele></ele><time>2015-2-3T1:54:38Z</time></trkpt>
<trkpt lat="44.87701216712594" lon="5.174231473356485"><ele></ele><time>2015-2-3T1:54:41Z</time></trkpt>
<trkpt lat="44.876531129702926" lon="5.174225606024265"><ele></ele><time>2015-2-3T1:54:44Z</time></trkpt>
<trkpt lat="44.876082614064217" lon="5.174128878861666"><ele></ele><time>2015-2-3T1:54:47Z</time></trkpt>
<trkpt lat="44.875621777027845" lon="5.174014214426279"><ele></ele><time>2015-2-3T1:54:50Z</time></trkpt>
<trkpt lat="44.875147277489305" lon="5.173967946320772"><ele></ele><time>2015-2-3T1:54:53Z</time></trkpt>
<trkpt lat="44.87466431222856" lon="5.173983536660671"><ele></ele><time>2015-2-3T1:54:56Z</time></trkpt>
<trkpt lat="44.874190567061305" lon="5.17399032600224"><ele></ele><time>2015-2-3T1:54:59Z</time></trkpt>
<trkpt lat="44.873728808015585" lon="5.173947997391224"><ele></ele><time>2015-2-3T1:55:2Z</time></trkpt>
<trkpt lat="44.873239891603589" lon="5.173931317403913"><ele></ele><time>2015-2-3T1:55:5Z</time></trkpt>
<trkpt lat="44.872780479490757" lon="5.173942213878036"><ele></ele><time>2015-2-3T1:55:8Z</time></trkpt>
<trkpt lat="44.872307321056724" lon="5.173971215263009"><ele></ele><time>2015-2-3T1:55:11Z</time></trkpt>
<trkpt lat="44.871846819296479" lon="5.174038438126445"><ele></ele><time>2015-2-3T1:55:14Z</time></trkpt>
<trkpt lat="44.8713743314147" lon="5.174108343198896"><ele></ele><time>2015-2-3T1:55:17Z</time></trkpt>
<trkpt lat="44.870880637317896" lon="5.174187384545803"><ele></ele><time>2015-2-3T1:55:20Z</time></trkpt>
<trkpt lat="44.870397336781025" lon="5.17417598515749"><ele></ele><time>2015-2-3T1:55:23Z</time></trkpt>
<trkpt lat="44.869919484481215" lon="5.174164418131113"><ele></ele><time>2015-2-3T1:55:26Z</time></trkpt>
<trkpt lat="44.869440207257867" lon="5.174122760072351"><ele></ele><time>2015-2-3T1:55:29Z</time></trkpt>
<trkpt lat="44.868959588930011" lon="5.17404698766768"><ele></ele><time>2015-2-3T1:55:32Z</time></trkpt>
<trkpt lat="44.868512330576777" lon="5.173872895538807"><ele></ele><time>2015-2-3T1:55:35Z</time></trkpt>
<trkpt lat="44.868059540167451" lon="5.173628143966198"><ele></ele><time>2015-2-3T1:55:38Z</time></trkpt>
<trkpt lat="44.867568528279662" lon="5.173523370176554"><ele></ele><time>2015-2-3T1:55:41Z</time></trkpt>
<trkpt lat="44.867087323218584" lon="5.173586988821626"><ele></ele><time>2015-2-3T1:55:44Z</time></trkpt>
<trkpt lat="44.86660142429173" lon="5.17362043261528"><ele></ele><time>2015-2-3T1:55:47Z</time></trkpt>
<trkpt lat="44.866147795692086" lon="5.173612385988236"><ele></ele><time>2015-2-3T1:55:50Z</time></trkpt>
<trkpt lat="44.865635577589273" lon="5.173554299399257"><ele></ele><time>2015-2-3T1:55:53Z</time></trkpt>
<trkpt lat="44.865174489095807" lon="5.173501912504435"><ele></ele><time>2015-2-3T1:55:56Z</time></trkpt>
<trkpt lat="44.864668808877468" lon="5.173399150371552"><ele></ele><time>2015-2-3T1:55:59Z</time></trkpt>
<trkpt lat="44.86416949890554" lon="5.173413986340165"><ele></ele><time>2015-2-3T1:56:2Z</time></trkpt>
<trkpt lat="44.863687790930271" lon="5.173337291926146"><ele></ele><time>2015-2-3T1:56:5Z</time></trkpt>
<trkpt lat="44.863179596140981" lon="5.173229249194264"><ele></ele><time>2015-2-3T1:56:8Z</time></trkpt>
<trkpt lat="44.862703504040837" lon="5.173142496496439"><ele></ele><time>2015-2-3T1:56:11Z</time></trkpt>
<trkpt lat="44.862242750823498" lon="5.173113159835339"><ele></ele><time>2015-2-3T1:56:14Z</time></trkpt>
<trkpt lat="44.861734891310334" lon="5.173127576708794"><ele></ele><time>2015-2-3T1:56:17Z</time></trkpt>
<trkpt lat="44.861233318224549" lon="5.173135036602616"><ele></ele><time>2015-2-3T1:56:20Z</time></trkpt>
<trkpt lat="44.860699726268649" lon="5.173237212002277"><ele></ele><time>2015-2-3T1:56:23Z</time></trkpt>
<trkpt lat="44.860228914767504" lon="5.173392863944173"><ele></ele><time>2015-2-3T1:56:26Z</time></trkpt>
<trkpt lat="44.859774112701416" lon="5.173676088452339"><ele></ele><time>2015-2-3T1:56:29Z</time></trkpt>
<trkpt lat="44.859261978417635" lon="5.173876583576202"><ele></ele><time>2015-2-3T1:56:32Z</time></trkpt>
<trkpt lat="44.858719417825341" lon="5.173974400386214"><ele></ele><time>2015-2-3T1:56:35Z</time></trkpt>
<trkpt lat="44.858184400945902" lon="5.174172548577189"><ele></ele><time>2015-2-3T1:56:38Z</time></trkpt>
<trkpt lat="44.857818447053432" lon="5.174552416428924"><ele></ele><time>2015-2-3T1:56:41Z</time></trkpt>
<trkpt lat="44.85793168656528" lon="5.175198409706354"><ele></ele><time>2015-2-3T1:56:44Z</time></trkpt>
<trkpt lat="44.858165876939893" lon="5.175742981955409"><ele></ele><time>2015-2-3T1:56:47Z</time></trkpt>
<trkpt lat="44.857962867245078" lon="5.176238184794784"><ele></ele><time>2015-2-3T1:56:50Z</time></trkpt>
<trkpt lat="44.857526002451777" lon="5.176104828715324"><ele></ele><time>2015-2-3T1:56:53Z</time></trkpt>
<trkpt lat="44.85707513988018" lon="5.175834009423852"><ele></ele><time>2015-2-3T1:56:56Z</time></trkpt>
<trkpt lat="44.856624947860837" lon="5.175673915073276"><ele></ele><time>2015-2-3T1:56:59Z</time></trkpt>
<trkpt lat="44.856141395866871" lon="5.175556736066937"><ele></ele><time>2015-2-3T1:57:2Z</time></trkpt>
<trkpt lat="44.855669243261218" lon="5.175469312816858"><ele></ele><time>2015-2-3T1:57:5Z</time></trkpt>
<trkpt lat="44.855182589963078" lon="5.175447519868612"><ele></ele><time>2015-2-3T1:57:8Z</time></trkpt>
<trkpt lat="44.854695349931717" lon="5.175458583980799"><ele></ele><time>2015-2-3T1:57:11Z</time></trkpt>
<trkpt lat="44.854214731603861" lon="5.175464283674955"><ele></ele><time>2015-2-3T1:57:14Z</time></trkpt>
<trkpt lat="44.85376805998385" lon="5.175539469346404"><ele></ele><time>2015-2-3T1:57:17Z</time></trkpt>
<trkpt lat="44.85331954434514" lon="5.175639381632209"><ele></ele><time>2015-2-3T1:57:20Z</time></trkpt>
<trkpt lat="44.852861892431974" lon="5.175486830994487"><ele></ele><time>2015-2-3T1:57:23Z</time></trkpt>
<trkpt lat="44.852418070659041" lon="5.175203187391162"><ele></ele><time>2015-2-3T1:57:26Z</time></trkpt>
<trkpt lat="44.852008447051048" lon="5.174759868532419"><ele></ele><time>2015-2-3T1:57:29Z</time></trkpt>
<trkpt lat="44.851683815941215" lon="5.174229629337788"><ele></ele><time>2015-2-3T1:57:32Z</time></trkpt>
<trkpt lat="44.851416265591979" lon="5.173626802861691"><ele></ele><time>2015-2-3T1:57:35Z</time></trkpt>
<trkpt lat="44.851553644984961" lon="5.173024563118815"><ele></ele><time>2015-2-3T1:57:38Z</time></trkpt>
<trkpt lat="44.851835528388619" lon="5.172468088567257"><ele></ele><time>2015-2-3T1:57:41Z</time></trkpt>
<trkpt lat="44.851746512576938" lon="5.172003898769617"><ele></ele><time>2015-2-3T1:57:44Z</time></trkpt>
<trkpt lat="44.851334374397993" lon="5.172278909012675"><ele></ele><time>2015-2-3T1:57:47Z</time></trkpt>
<trkpt lat="44.850860964506865" lon="5.172643940895796"><ele></ele><time>2015-2-3T1:57:50Z</time></trkpt>
<trkpt lat="44.850414711982012" lon="5.172845106571913"><ele></ele><time>2015-2-3T1:57:53Z</time></trkpt>
<trkpt lat="44.849934764206409" lon="5.172840496525168"><ele></ele><time>2015-2-3T1:57:56Z</time></trkpt>
<trkpt lat="44.849452469497919" lon="5.172774782404304"><ele></ele><time>2015-2-3T1:57:59Z</time></trkpt>
<trkpt lat="44.84897268936038" lon="5.172717366367579"><ele></ele><time>2015-2-3T1:58:2Z</time></trkpt>
<trkpt lat="44.848500033840537" lon="5.172684760764241"><ele></ele><time>2015-2-3T1:58:5Z</time></trkpt>
<trkpt lat="44.848070628941059" lon="5.17251024954021"><ele></ele><time>2015-2-3T1:58:8Z</time></trkpt>
<trkpt lat="44.848028970882297" lon="5.171871213242412"><ele></ele><time>2015-2-3T1:58:11Z</time></trkpt>
<trkpt lat="44.848013212904334" lon="5.171214658766985"><ele></ele><time>2015-2-3T1:58:14Z</time></trkpt>
<trkpt lat="44.847863176837564" lon="5.170526504516602"><ele></ele><time>2015-2-3T1:58:17Z</time></trkpt>
<trkpt lat="44.84740074723959" lon="5.170274628326297"><ele></ele><time>2015-2-3T1:58:20Z</time></trkpt>
<trkpt lat="44.846885511651635" lon="5.170334307476878"><ele></ele><time>2015-2-3T1:58:23Z</time></trkpt>
<trkpt lat="44.846440264955163" lon="5.17045458778739"><ele></ele><time>2015-2-3T1:58:26Z</time></trkpt>
<trkpt lat="44.846002059057355" lon="5.170678133144975"><ele></ele><time>2015-2-3T1:58:29Z</time></trkpt>
<trkpt lat="44.845521608367562" lon="5.170956496149302"><ele></ele><time>2015-2-3T1:58:32Z</time></trkpt>
<trkpt lat="44.845007043331861" lon="5.171123966574669"><ele></ele><time>2015-2-3T1:58:35Z</time></trkpt>
<trkpt lat="44.844467835500836" lon="5.17096278257668"><ele></ele><time>2015-2-3T1:58:38Z</time></trkpt>
<trkpt lat="44.844034658744931" lon="5.170791288837791"><ele></ele><time>2015-2-3T1:58:41Z</time></trkpt>
<trkpt lat="44.843608271330595" lon="5.170510495081544"><ele></ele><time>2015-2-3T1:58:44Z</time></trkpt>
<trkpt lat="44.843175429850817" lon="5.170209417119622"><ele></ele><time>2015-2-3T1:58:47Z</time></trkpt>
<trkpt lat="44.842718783766031" lon="5.170057788491249"><ele></ele><time>2015-2-3T1:58:50Z</time></trkpt>
<trkpt lat="44.842289043590426" lon="5.169819658622146"><ele></ele><time>2015-2-3T1:58:53Z</time></trkpt>
<trkpt lat="44.841788979247212" lon="5.169478012248874"><ele></ele><time>2015-2-3T1:58:56Z</time></trkpt>
<trkpt lat="44.841258237138391" lon="5.169269470497966"><ele></ele><time>2015-2-3T1:58:59Z</time></trkpt>
<trkpt lat="44.840715005993843" lon="5.169127145782113"><ele></ele><time>2015-2-3T1:59:2Z</time></trkpt>
<trkpt lat="44.840197842568159" lon="5.168849118053913"><ele></ele><time>2015-2-3T1:59:5Z</time></trkpt>
<trkpt lat="44.839684115722775" lon="5.168568575754762"><ele></ele><time>2015-2-3T1:59:8Z</time></trkpt>
<trkpt lat="44.839232079684734" lon="5.168560445308685"><ele></ele><time>2015-2-3T1:59:11Z</time></trkpt>
<trkpt lat="44.838787000626326" lon="5.168458605185151"><ele></ele><time>2015-2-3T1:59:14Z</time></trkpt>
<trkpt lat="44.838244607672095" lon="5.168263725936413"><ele></ele><time>2015-2-3T1:59:17Z</time></trkpt>
<trkpt lat="44.837801037356257" lon="5.16812483780086"><ele></ele><time>2015-2-3T1:59:20Z</time></trkpt>
<trkpt lat="44.837353359907866" lon="5.168084520846605"><ele></ele><time>2015-2-3T1:59:23Z</time></trkpt>
<trkpt lat="44.836896546185017" lon="5.168081922456622"><ele></ele><time>2015-2-3T1:59:26Z</time></trkpt>
<trkpt lat="44.83644618652761" lon="5.167924594134092"><ele></ele><time>2015-2-3T1:59:29Z</time></trkpt>
<trkpt lat="44.836000688374043" lon="5.167749663814902"><ele></ele><time>2015-2-3T1:59:32Z</time></trkpt>
<trkpt lat="44.835542868822813" lon="5.16766500659287"><ele></ele><time>2015-2-3T1:59:35Z</time></trkpt>
<trkpt lat="44.835090916603804" lon="5.167592586949468"><ele></ele><time>2015-2-3T1:59:38Z</time></trkpt>
<trkpt lat="44.834681963548064" lon="5.167299723252654"><ele></ele><time>2015-2-3T1:59:41Z</time></trkpt>
<trkpt lat="44.834253145381808" lon="5.167027143761516"><ele></ele><time>2015-2-3T1:59:44Z</time></trkpt>
<trkpt lat="44.833810916170478" lon="5.166794378310442"><ele></ele><time>2015-2-3T1:59:47Z</time></trkpt>
<trkpt lat="44.8333590477705" lon="5.166619531810284"><ele></ele><time>2015-2-3T1:59:50Z</time></trkpt>
<trkpt lat="44.832895528525114" lon="5.166482236236334"><ele></ele><time>2015-2-3T1:59:53Z</time></trkpt>
<trkpt lat="44.832435613498092" lon="5.166342761367559"><ele></ele><time>2015-2-3T1:59:56Z</time></trkpt>
<trkpt lat="44.831980895251036" lon="5.166193479672074"><ele></ele><time>2015-2-3T1:59:59Z</time></trkpt>
<trkpt lat="44.831519303843379" lon="5.166032547131181"><ele></ele><time>2015-2-3T2:0:2Z</time></trkpt>
<trkpt lat="44.831047654151917" lon="5.165930539369583"><ele></ele><time>2015-2-3T2:0:5Z</time></trkpt>
<trkpt lat="44.830584470182657" lon="5.165872536599636"><ele></ele><time>2015-2-3T2:0:8Z</time></trkpt>
<trkpt lat="44.830122878775001" lon="5.165909165516496"><ele></ele><time>2015-2-3T2:0:11Z</time></trkpt>
<trkpt lat="44.829662460833788" lon="5.165986698120832"><ele></ele><time>2015-2-3T2:0:14Z</time></trkpt>
<trkpt lat="44.829188631847501" lon="5.166078396141529"><ele></ele><time>2015-2-3T2:0:17Z</time></trkpt>
<trkpt lat="44.82871413230896" lon="5.16608920879662"><ele></ele><time>2015-2-3T2:0:20Z</time></trkpt>
<trkpt lat="44.828246925026178" lon="5.166002372279763"><ele></ele><time>2015-2-3T2:0:23Z</time></trkpt>
<trkpt lat="44.827780555933714" lon="5.165864322334528"><ele></ele><time>2015-2-3T2:0:26Z</time></trkpt>
<trkpt lat="44.827313851565123" lon="5.165697941556573"><ele></ele><time>2015-2-3T2:0:29Z</time></trkpt>
<trkpt lat="44.826848823577166" lon="5.165536925196648"><ele></ele><time>2015-2-3T2:0:32Z</time></trkpt>
<trkpt lat="44.826373821124434" lon="5.16543684527278"><ele></ele><time>2015-2-3T2:0:35Z</time></trkpt>
<trkpt lat="44.825899070128798" lon="5.165448160842061"><ele></ele><time>2015-2-3T2:0:38Z</time></trkpt>
<trkpt lat="44.82541786506772" lon="5.165451094508171"><ele></ele><time>2015-2-3T2:0:41Z</time></trkpt>
<trkpt lat="44.824986448511481" lon="5.165150854736567"><ele></ele><time>2015-2-3T2:0:44Z</time></trkpt>
<trkpt lat="44.824585458263755" lon="5.16477819532156"><ele></ele><time>2015-2-3T2:0:47Z</time></trkpt>
<trkpt lat="44.824116993695498" lon="5.164682976901531"><ele></ele><time>2015-2-3T2:0:50Z</time></trkpt>
<trkpt lat="44.823672166094184" lon="5.164450882002711"><ele></ele><time>2015-2-3T2:0:53Z</time></trkpt>
<trkpt lat="44.823277881368995" lon="5.164050897583365"><ele></ele><time>2015-2-3T2:0:56Z</time></trkpt>
<trkpt lat="44.82286473736167" lon="5.163700534030795"><ele></ele><time>2015-2-3T2:0:59Z</time></trkpt>
<trkpt lat="44.822406833991408" lon="5.16360598616302"><ele></ele><time>2015-2-3T2:1:2Z</time></trkpt>
<trkpt lat="44.821951361373067" lon="5.163636161014438"><ele></ele><time>2015-2-3T2:1:5Z</time></trkpt>
<trkpt lat="44.821501085534692" lon="5.163603806868196"><ele></ele><time>2015-2-3T2:1:8Z</time></trkpt>
<trkpt lat="44.820954501628876" lon="5.163473384454846"><ele></ele><time>2015-2-3T2:1:11Z</time></trkpt>
<trkpt lat="44.820401547476649" lon="5.163451256230474"><ele></ele><time>2015-2-3T2:1:14Z</time></trkpt>
<trkpt lat="44.819858400151134" lon="5.163290156051517"><ele></ele><time>2015-2-3T2:1:17Z</time></trkpt>
<trkpt lat="44.819319359958172" lon="5.163247911259532"><ele></ele><time>2015-2-3T2:1:20Z</time></trkpt>
<trkpt lat="44.818790126591921" lon="5.163315469399095"><ele></ele><time>2015-2-3T2:1:23Z</time></trkpt>
<trkpt lat="44.818274807184935" lon="5.163146071135998"><ele></ele><time>2015-2-3T2:1:26Z</time></trkpt>
<trkpt lat="44.817818161100149" lon="5.163177335634828"><ele></ele><time>2015-2-3T2:1:29Z</time></trkpt>
<trkpt lat="44.817354558035731" lon="5.163314966484904"><ele></ele><time>2015-2-3T2:1:32Z</time></trkpt>
<trkpt lat="44.816882237792015" lon="5.163450166583061"><ele></ele><time>2015-2-3T2:1:35Z</time></trkpt>
<trkpt lat="44.81640413403511" lon="5.163501044735313"><ele></ele><time>2015-2-3T2:1:38Z</time></trkpt>
<trkpt lat="44.815925862640142" lon="5.163454106077552"><ele></ele><time>2015-2-3T2:1:41Z</time></trkpt>
<trkpt lat="44.815483298152685" lon="5.163688631728292"><ele></ele><time>2015-2-3T2:1:44Z</time></trkpt>
<trkpt lat="44.815073423087597" lon="5.163985602557659"><ele></ele><time>2015-2-3T2:1:47Z</time></trkpt>
<trkpt lat="44.814635049551725" lon="5.164422551169992"><ele></ele><time>2015-2-3T2:1:50Z</time></trkpt>
<trkpt lat="44.814304383471608" lon="5.164888333529234"><ele></ele><time>2015-2-3T2:1:53Z</time></trkpt>
<trkpt lat="44.81387984007597" lon="5.165115147829056"><ele></ele><time>2015-2-3T2:1:56Z</time></trkpt>
<trkpt lat="44.813392600044608" lon="5.165250599384308"><ele></ele><time>2015-2-3T2:1:59Z</time></trkpt>
<trkpt lat="44.812922040000558" lon="5.165332071483135"><ele></ele><time>2015-2-3T2:2:2Z</time></trkpt>
<trkpt lat="44.812485510483384" lon="5.16563524492085"><ele></ele><time>2015-2-3T2:2:5Z</time></trkpt>
<trkpt lat="44.81229230761528" lon="5.166254583746195"><ele></ele><time>2015-2-3T2:2:8Z</time></trkpt>
<trkpt lat="44.81224830262363" lon="5.166925555095077"><ele></ele><time>2015-2-3T2:2:11Z</time></trkpt>
<trkpt lat="44.812287949025631" lon="5.167610943317413"><ele></ele><time>2015-2-3T2:2:14Z</time></trkpt>
<trkpt lat="44.812362631782889" lon="5.168268335983157"><ele></ele><time>2015-2-3T2:2:17Z</time></trkpt>
<trkpt lat="44.812302365899086" lon="5.169030837714672"><ele></ele><time>2015-2-3T2:2:20Z</time></trkpt>
<trkpt lat="44.812182756140828" lon="5.169720500707626"><ele></ele><time>2015-2-3T2:2:23Z</time></trkpt>
<trkpt lat="44.811954936012626" lon="5.16989316791296"><ele></ele><time>2015-2-3T2:2:26Z</time></trkpt>
<trkpt lat="44.811614379286766" lon="5.169442221522331"><ele></ele><time>2015-2-3T2:2:29Z</time></trkpt>
<trkpt lat="44.811248928308487" lon="5.168992364779115"><ele></ele><time>2015-2-3T2:2:32Z</time></trkpt>
<trkpt lat="44.810848524793983" lon="5.168509483337402"><ele></ele><time>2015-2-3T2:2:35Z</time></trkpt>
<trkpt lat="44.810435296967626" lon="5.168009335175157"><ele></ele><time>2015-2-3T2:2:38Z</time></trkpt>
<trkpt lat="44.810057943686843" lon="5.167572135105729"><ele></ele><time>2015-2-3T2:2:41Z</time></trkpt>
<trkpt lat="44.809661144390702" lon="5.167069723829627"><ele></ele><time>2015-2-3T2:2:44Z</time></trkpt>
<trkpt lat="44.809275912120938" lon="5.166601678356528"><ele></ele><time>2015-2-3T2:2:47Z</time></trkpt>
<trkpt lat="44.808995118364692" lon="5.166068254038692"><ele></ele><time>2015-2-3T2:2:50Z</time></trkpt>
<trkpt lat="44.808915238827467" lon="5.165414549410343"><ele></ele><time>2015-2-3T2:2:53Z</time></trkpt>
<trkpt lat="44.808908784762025" lon="5.16475330106914"><ele></ele><time>2015-2-3T2:2:56Z</time></trkpt>
<trkpt lat="44.80898036621511" lon="5.164079228416085"><ele></ele><time>2015-2-3T2:2:59Z</time></trkpt>
<trkpt lat="44.809068543836474" lon="5.163423847407103"><ele></ele><time>2015-2-3T2:3:2Z</time></trkpt>
<trkpt lat="44.808712899684906" lon="5.163002572953701"><ele></ele><time>2015-2-3T2:3:5Z</time></trkpt>
<trkpt lat="44.808314591646194" lon="5.162626476958394"><ele></ele><time>2015-2-3T2:3:8Z</time></trkpt>
<trkpt lat="44.808315094560385" lon="5.161909153684974"><ele></ele><time>2015-2-3T2:3:11Z</time></trkpt>
<trkpt lat="44.808390364050865" lon="5.161152184009552"><ele></ele><time>2015-2-3T2:3:14Z</time></trkpt>
<trkpt lat="44.808372091501951" lon="5.160401668399572"><ele></ele><time>2015-2-3T2:3:17Z</time></trkpt>
<trkpt lat="44.808115186169744" lon="5.159720722585917"><ele></ele><time>2015-2-3T2:3:20Z</time></trkpt>
<trkpt lat="44.807691900059581" lon="5.159199452027679"><ele></ele><time>2015-2-3T2:3:23Z</time></trkpt>
<trkpt lat="44.807238522917032" lon="5.158743476495147"><ele></ele><time>2015-2-3T2:3:26Z</time></trkpt>
<trkpt lat="44.806760335341096" lon="5.158318681642413"><ele></ele><time>2015-2-3T2:3:29Z</time></trkpt>
<trkpt lat="44.806354399770498" lon="5.158005282282829"><ele></ele><time>2015-2-3T2:3:32Z</time></trkpt>
<trkpt lat="44.805944440886378" lon="5.157700683921576"><ele></ele><time>2015-2-3T2:3:35Z</time></trkpt>
<trkpt lat="44.805528949946165" lon="5.157369934022427"><ele></ele><time>2015-2-3T2:3:38Z</time></trkpt>
<trkpt lat="44.805123852565885" lon="5.157025521621108"><ele></ele><time>2015-2-3T2:3:41Z</time></trkpt>
<trkpt lat="44.804695872589946" lon="5.156766101717949"><ele></ele><time>2015-2-3T2:3:44Z</time></trkpt>
<trkpt lat="44.804257499054074" lon="5.156539538875222"><ele></ele><time>2015-2-3T2:3:47Z</time></trkpt>
<trkpt lat="44.803804121911526" lon="5.156317418441176"><ele></ele><time>2015-2-3T2:3:50Z</time></trkpt>
<trkpt lat="44.803316462785006" lon="5.156167717650533"><ele></ele><time>2015-2-3T2:3:53Z</time></trkpt>
<trkpt lat="44.802817907184362" lon="5.156047018244863"><ele></ele><time>2015-2-3T2:3:56Z</time></trkpt>
<trkpt lat="44.802324967458844" lon="5.155947525054216"><ele></ele><time>2015-2-3T2:3:59Z</time></trkpt>
<trkpt lat="44.801828423514962" lon="5.155818527564406"><ele></ele><time>2015-2-3T2:4:2Z</time></trkpt>
<trkpt lat="44.801343865692616" lon="5.155672514811158"><ele></ele><time>2015-2-3T2:4:5Z</time></trkpt>
<trkpt lat="44.800862576812506" lon="5.155465230345726"><ele></ele><time>2015-2-3T2:4:8Z</time></trkpt>
<trkpt lat="44.800389586016536" lon="5.155244702473283"><ele></ele><time>2015-2-3T2:4:11Z</time></trkpt>
<trkpt lat="44.799932688474655" lon="5.15498804859817"><ele></ele><time>2015-2-3T2:4:14Z</time></trkpt>
<trkpt lat="44.799500517547131" lon="5.154662830755115"><ele></ele><time>2015-2-3T2:4:17Z</time></trkpt>
<trkpt lat="44.799114782363176" lon="5.15424775891006"><ele></ele><time>2015-2-3T2:4:20Z</time></trkpt>
<trkpt lat="44.798732232302427" lon="5.153859509155154"><ele></ele><time>2015-2-3T2:4:23Z</time></trkpt>
<trkpt lat="44.798259492963552" lon="5.153812738135457"><ele></ele><time>2015-2-3T2:4:26Z</time></trkpt>
<trkpt lat="44.797816677019" lon="5.154105601832271"><ele></ele><time>2015-2-3T2:4:29Z</time></trkpt>
<trkpt lat="44.797404874116182" lon="5.154500054195523"><ele></ele><time>2015-2-3T2:4:32Z</time></trkpt>
<trkpt lat="44.79694445617497" lon="5.154776070266962"><ele></ele><time>2015-2-3T2:4:35Z</time></trkpt>
<trkpt lat="44.796543465927243" lon="5.155178233981133"><ele></ele><time>2015-2-3T2:4:38Z</time></trkpt>
<trkpt lat="44.796308353543282" lon="5.155765051022172"><ele></ele><time>2015-2-3T2:4:41Z</time></trkpt>
<trkpt lat="44.796219673007727" lon="5.156438956037164"><ele></ele><time>2015-2-3T2:4:44Z</time></trkpt>
<trkpt lat="44.79646853171289" lon="5.157063324004412"><ele></ele><time>2015-2-3T2:4:47Z</time></trkpt>
<trkpt lat="44.796360908076167" lon="5.157030299305916"><ele></ele><time>2015-2-3T2:4:50Z</time></trkpt>
<trkpt lat="44.79609570465982" lon="5.156476339325309"><ele></ele><time>2015-2-3T2:4:53Z</time></trkpt>
<trkpt lat="44.79600727558136" lon="5.155774690210819"><ele></ele><time>2015-2-3T2:4:56Z</time></trkpt>
<trkpt lat="44.796009873971343" lon="5.155108328908682"><ele></ele><time>2015-2-3T2:4:59Z</time></trkpt>
<trkpt lat="44.796227803453803" lon="5.154420174658299"><ele></ele><time>2015-2-3T2:5:2Z</time></trkpt>
<trkpt lat="44.796541118994355" lon="5.153789771720767"><ele></ele><time>2015-2-3T2:5:5Z</time></trkpt>
<trkpt lat="44.796861726790667" lon="5.153337232768536"><ele></ele><time>2015-2-3T2:5:8Z</time></trkpt>
<trkpt lat="44.797167833894491" lon="5.152677744626999"><ele></ele><time>2015-2-3T2:5:11Z</time></trkpt>
<trkpt lat="44.797435216605663" lon="5.152154713869095"><ele></ele><time>2015-2-3T2:5:14Z</time></trkpt>
<trkpt lat="44.79784308001399" lon="5.151868890970945"><ele></ele><time>2015-2-3T2:5:17Z</time></trkpt>
<trkpt lat="44.797649374231696" lon="5.151676526293159"><ele></ele><time>2015-2-3T2:5:20Z</time></trkpt>
<trkpt lat="44.797189123928547" lon="5.151836201548576"><ele></ele><time>2015-2-3T2:5:23Z</time></trkpt>
<trkpt lat="44.796746894717216" lon="5.15203376300633"><ele></ele><time>2015-2-3T2:5:26Z</time></trkpt>
<trkpt lat="44.796317154541612" lon="5.152408936992288"><ele></ele><time>2015-2-3T2:5:29Z</time></trkpt>
<trkpt lat="44.795892694965005" lon="5.1529142819345"><ele></ele><time>2015-2-3T2:5:32Z</time></trkpt>
<trkpt lat="44.795536296442151" lon="5.153321474790573"><ele></ele><time>2015-2-3T2:5:35Z</time></trkpt>
<trkpt lat="44.795145951211452" lon="5.15368533320725"><ele></ele><time>2015-2-3T2:5:38Z</time></trkpt>
<trkpt lat="44.794677067548037" lon="5.153784239664674"><ele></ele><time>2015-2-3T2:5:41Z</time></trkpt>
<trkpt lat="44.794215140864253" lon="5.153875099495053"><ele></ele><time>2015-2-3T2:5:44Z</time></trkpt>
<trkpt lat="44.793787579983473" lon="5.154125550761819"><ele></ele><time>2015-2-3T2:5:47Z</time></trkpt>
<trkpt lat="44.793363036587834" lon="5.154371224343777"><ele></ele><time>2015-2-3T2:5:50Z</time></trkpt>
<trkpt lat="44.793344009667635" lon="5.153908375650644"><ele></ele><time>2015-2-3T2:5:53Z</time></trkpt>
<trkpt lat="44.793546600267291" lon="5.153313763439655"><ele></ele><time>2015-2-3T2:5:56Z</time></trkpt>
<trkpt lat="44.793765870854259" lon="5.152759132906795"><ele></ele><time>2015-2-3T2:5:59Z</time></trkpt>
<trkpt lat="44.794125286862254" lon="5.152239119634032"><ele></ele><time>2015-2-3T2:6:2Z</time></trkpt>
<trkpt lat="44.794109864160419" lon="5.151631012558937"><ele></ele><time>2015-2-3T2:6:5Z</time></trkpt>
<trkpt lat="44.793840302154422" lon="5.151922451332212"><ele></ele><time>2015-2-3T2:6:8Z</time></trkpt>
<trkpt lat="44.793404946103692" lon="5.152023788541555"><ele></ele><time>2015-2-3T2:6:11Z</time></trkpt>
<trkpt lat="44.792874874547124" lon="5.152058824896812"><ele></ele><time>2015-2-3T2:6:14Z</time></trkpt>
<trkpt lat="44.792397441342473" lon="5.152074666693807"><ele></ele><time>2015-2-3T2:6:17Z</time></trkpt>
<trkpt lat="44.791912967339158" lon="5.152255464345217"><ele></ele><time>2015-2-3T2:6:20Z</time></trkpt>
<trkpt lat="44.79147425852716" lon="5.152614545077086"><ele></ele><time>2015-2-3T2:6:23Z</time></trkpt>
<trkpt lat="44.791146107017994" lon="5.152882849797607"><ele></ele><time>2015-2-3T2:6:26Z</time></trkpt>
<trkpt lat="44.790835389867425" lon="5.152376163750887"><ele></ele><time>2015-2-3T2:6:29Z</time></trkpt>
<trkpt lat="44.790432220324874" lon="5.152075756341219"><ele></ele><time>2015-2-3T2:6:32Z</time></trkpt>
<trkpt lat="44.789954954758286" lon="5.151939801871777"><ele></ele><time>2015-2-3T2:6:35Z</time></trkpt>
<trkpt lat="44.789434857666492" lon="5.151807870715857"><ele></ele><time>2015-2-3T2:6:38Z</time></trkpt>
<trkpt lat="44.788943259045482" lon="5.151436636224389"><ele></ele><time>2015-2-3T2:6:41Z</time></trkpt>
<trkpt lat="44.788676463067532" lon="5.150804473087192"><ele></ele><time>2015-2-3T2:6:44Z</time></trkpt>
<trkpt lat="44.788885843008757" lon="5.150213045999408"><ele></ele><time>2015-2-3T2:6:47Z</time></trkpt>
<trkpt lat="44.789272248744965" lon="5.149693703278899"><ele></ele><time>2015-2-3T2:6:50Z</time></trkpt>
<trkpt lat="44.78962822817266" lon="5.149304028600454"><ele></ele><time>2015-2-3T2:6:53Z</time></trkpt>
<trkpt lat="44.79005872271955" lon="5.148933129385114"><ele></ele><time>2015-2-3T2:6:56Z</time></trkpt>
<trkpt lat="44.790290733799338" lon="5.148678487166762"><ele></ele><time>2015-2-3T2:6:59Z</time></trkpt>
<trkpt lat="44.78977239690721" lon="5.148671865463257"><ele></ele><time>2015-2-3T2:7:2Z</time></trkpt>
<trkpt lat="44.789313906803727" lon="5.148693658411503"><ele></ele><time>2015-2-3T2:7:5Z</time></trkpt>
<trkpt lat="44.788858769461513" lon="5.148998592048883"><ele></ele><time>2015-2-3T2:7:8Z</time></trkpt>
<trkpt lat="44.788385694846511" lon="5.149414334446192"><ele></ele><time>2015-2-3T2:7:11Z</time></trkpt>
<trkpt lat="44.787988057360053" lon="5.14975480735302"><ele></ele><time>2015-2-3T2:7:14Z</time></trkpt>
<trkpt lat="44.787576422095299" lon="5.150104500353336"><ele></ele><time>2015-2-3T2:7:17Z</time></trkpt>
<trkpt lat="44.787709023803473" lon="5.149700911715627"><ele></ele><time>2015-2-3T2:7:20Z</time></trkpt>
<trkpt lat="44.788101296871901" lon="5.149177378043532"><ele></ele><time>2015-2-3T2:7:23Z</time></trkpt>
<trkpt lat="44.788382844999433" lon="5.148547729477286"><ele></ele><time>2015-2-3T2:7:26Z</time></trkpt>
<trkpt lat="44.788680570200086" lon="5.147873321548104"><ele></ele><time>2015-2-3T2:7:29Z</time></trkpt>
<trkpt lat="44.788967231288552" lon="5.147339561954141"><ele></ele><time>2015-2-3T2:7:32Z</time></trkpt>
<trkpt lat="44.789288677275181" lon="5.146900098770857"><ele></ele><time>2015-2-3T2:7:35Z</time></trkpt>
<trkpt lat="44.789731660857797" lon="5.146503886207938"><ele></ele><time>2015-2-3T2:7:38Z</time></trkpt>
<trkpt lat="44.789992421865463" lon="5.145810786634684"><ele></ele><time>2015-2-3T2:7:41Z</time></trkpt>
<trkpt lat="44.790041036903858" lon="5.145180718973279"><ele></ele><time>2015-2-3T2:7:44Z</time></trkpt>
<trkpt lat="44.789640884846449" lon="5.14487293548882"><ele></ele><time>2015-2-3T2:7:47Z</time></trkpt>
<trkpt lat="44.78915766812861" lon="5.144750894978643"><ele></ele><time>2015-2-3T2:7:50Z</time></trkpt>
<trkpt lat="44.78871351107955" lon="5.144485021010041"><ele></ele><time>2015-2-3T2:7:53Z</time></trkpt>
<trkpt lat="44.788275556638837" lon="5.144306402653456"><ele></ele><time>2015-2-3T2:7:56Z</time></trkpt>
<trkpt lat="44.787845145910978" lon="5.14403005130589"><ele></ele><time>2015-2-3T2:7:59Z</time></trkpt>
<trkpt lat="44.787404257804155" lon="5.143767530098558"><ele></ele><time>2015-2-3T2:8:2Z</time></trkpt>
<trkpt lat="44.786951383575797" lon="5.143850427120924"><ele></ele><time>2015-2-3T2:8:5Z</time></trkpt>
<trkpt lat="44.786524493247271" lon="5.144058717414737"><ele></ele><time>2015-2-3T2:8:8Z</time></trkpt>
<trkpt lat="44.786116881296039" lon="5.144402123987675"><ele></ele><time>2015-2-3T2:8:11Z</time></trkpt>
<trkpt lat="44.785734750330448" lon="5.144763635471463"><ele></ele><time>2015-2-3T2:8:14Z</time></trkpt>
<trkpt lat="44.785314900800586" lon="5.144963711500168"><ele></ele><time>2015-2-3T2:8:17Z</time></trkpt>
<trkpt lat="44.784866636618972" lon="5.144908810034394"><ele></ele><time>2015-2-3T2:8:20Z</time></trkpt>
<trkpt lat="44.784394400194287" lon="5.144792217761278"><ele></ele><time>2015-2-3T2:8:23Z</time></trkpt>
<trkpt lat="44.783944794908166" lon="5.144691886380315"><ele></ele><time>2015-2-3T2:8:26Z</time></trkpt>
<trkpt lat="44.783478090539575" lon="5.144579485058785"><ele></ele><time>2015-2-3T2:8:29Z</time></trkpt>
<trkpt lat="44.78298045694828" lon="5.144453169777989"><ele></ele><time>2015-2-3T2:8:32Z</time></trkpt>
<trkpt lat="44.78261299431324" lon="5.144053855910897"><ele></ele><time>2015-2-3T2:8:35Z</time></trkpt>
<trkpt lat="44.782251315191388" lon="5.143690248951316"><ele></ele><time>2015-2-3T2:8:38Z</time></trkpt>
<trkpt lat="44.781774301081896" lon="5.143706928938627"><ele></ele><time>2015-2-3T2:8:41Z</time></trkpt>
<trkpt lat="44.781300472095609" lon="5.143664348870516"><ele></ele><time>2015-2-3T2:8:44Z</time></trkpt>
<trkpt lat="44.780848519876599" lon="5.143324295058847"><ele></ele><time>2015-2-3T2:8:47Z</time></trkpt>
<trkpt lat="44.780421378090978" lon="5.142954736948013"><ele></ele><time>2015-2-3T2:8:50Z</time></trkpt>
<trkpt lat="44.780021896585822" lon="5.142611833289266"><ele></ele><time>2015-2-3T2:8:53Z</time></trkpt>
<trkpt lat="44.779601795598865" lon="5.142799755558372"><ele></ele><time>2015-2-3T2:8:56Z</time></trkpt>
<trkpt lat="44.779081614688039" lon="5.142863458022475"><ele></ele><time>2015-2-3T2:8:59Z</time></trkpt>
<trkpt lat="44.778567384928465" lon="5.142835378646851"><ele></ele><time>2015-2-3T2:9:2Z</time></trkpt>
<trkpt lat="44.778152983635664" lon="5.142582161352038"><ele></ele><time>2015-2-3T2:9:5Z</time></trkpt>
<trkpt lat="44.777728859335184" lon="5.142681570723653"><ele></ele><time>2015-2-3T2:9:8Z</time></trkpt>
<trkpt lat="44.777471702545881" lon="5.143154645338655"><ele></ele><time>2015-2-3T2:9:11Z</time></trkpt>
<trkpt lat="44.777021426707506" lon="5.143380872905254"><ele></ele><time>2015-2-3T2:9:14Z</time></trkpt>
<trkpt lat="44.776716576889157" lon="5.142876198515296"><ele></ele><time>2015-2-3T2:9:17Z</time></trkpt>
<trkpt lat="44.776499150320888" lon="5.142287202179432"><ele></ele><time>2015-2-3T2:9:20Z</time></trkpt>
<trkpt lat="44.776032529771328" lon="5.142148062586784"><ele></ele><time>2015-2-3T2:9:23Z</time></trkpt>
<trkpt lat="44.775547385215759" lon="5.141933234408498"><ele></ele><time>2015-2-3T2:9:26Z</time></trkpt>
<trkpt lat="44.775143293663859" lon="5.141567615792155"><ele></ele><time>2015-2-3T2:9:29Z</time></trkpt>
<trkpt lat="44.774742890149355" lon="5.141148436814547"><ele></ele><time>2015-2-3T2:9:32Z</time></trkpt>
<trkpt lat="44.774374337866902" lon="5.140664968639612"><ele></ele><time>2015-2-3T2:9:35Z</time></trkpt>
<trkpt lat="44.773912997916341" lon="5.14037805609405"><ele></ele><time>2015-2-3T2:9:38Z</time></trkpt>
<trkpt lat="44.773439504206181" lon="5.140093406662345"><ele></ele><time>2015-2-3T2:9:41Z</time></trkpt>
<trkpt lat="44.77297137491405" lon="5.13978729955852"><ele></ele><time>2015-2-3T2:9:44Z</time></trkpt>
<trkpt lat="44.772448763251305" lon="5.139589235186577"><ele></ele><time>2015-2-3T2:9:47Z</time></trkpt>
<trkpt lat="44.771930258721113" lon="5.139392428100109"><ele></ele><time>2015-2-3T2:9:50Z</time></trkpt>
<trkpt lat="44.771423153579235" lon="5.139152370393276"><ele></ele><time>2015-2-3T2:9:53Z</time></trkpt>
<trkpt lat="44.770914539694786" lon="5.138903092592955"><ele></ele><time>2015-2-3T2:9:56Z</time></trkpt>
<trkpt lat="44.770593261346221" lon="5.138403447344899"><ele></ele><time>2015-2-3T2:9:59Z</time></trkpt>
<trkpt lat="44.770614970475435" lon="5.137759717181325"><ele></ele><time>2015-2-3T2:10:2Z</time></trkpt>
<trkpt lat="44.770382959395647" lon="5.137156890705228"><ele></ele><time>2015-2-3T2:10:5Z</time></trkpt>
<trkpt lat="44.769917847588658" lon="5.136875510215759"><ele></ele><time>2015-2-3T2:10:8Z</time></trkpt>
<trkpt lat="44.769460950046778" lon="5.136669566854835"><ele></ele><time>2015-2-3T2:10:11Z</time></trkpt>
<trkpt lat="44.768959209322929" lon="5.136531516909599"><ele></ele><time>2015-2-3T2:10:14Z</time></trkpt>
<trkpt lat="44.768458139151335" lon="5.136506287381053"><ele></ele><time>2015-2-3T2:10:17Z</time></trkpt>
<trkpt lat="44.767928067594767" lon="5.136569570749998"><ele></ele><time>2015-2-3T2:10:20Z</time></trkpt>
<trkpt lat="44.767495896667242" lon="5.136746931821108"><ele></ele><time>2015-2-3T2:10:23Z</time></trkpt>
<trkpt lat="44.76700572296977" lon="5.136977769434452"><ele></ele><time>2015-2-3T2:10:26Z</time></trkpt>
<trkpt lat="44.766536587849259" lon="5.137199386954308"><ele></ele><time>2015-2-3T2:10:29Z</time></trkpt>
<trkpt lat="44.766077678650618" lon="5.137403067201376"><ele></ele><time>2015-2-3T2:10:32Z</time></trkpt>
<trkpt lat="44.765627654269338" lon="5.137613955885172"><ele></ele><time>2015-2-3T2:10:35Z</time></trkpt>
<trkpt lat="44.765196992084384" lon="5.137814786285162"><ele></ele><time>2015-2-3T2:10:38Z</time></trkpt>
<trkpt lat="44.764704303815961" lon="5.138021567836404"><ele></ele><time>2015-2-3T2:10:41Z</time></trkpt>
<trkpt lat="44.764191331341863" lon="5.138109661638737"><ele></ele><time>2015-2-3T2:10:44Z</time></trkpt>
<trkpt lat="44.763714820146561" lon="5.138079067692161"><ele></ele><time>2015-2-3T2:10:47Z</time></trkpt>
<trkpt lat="44.76324375718832" lon="5.138054676353931"><ele></ele><time>2015-2-3T2:10:50Z</time></trkpt>
<trkpt lat="44.762794403359294" lon="5.13802969828248"><ele></ele><time>2015-2-3T2:10:53Z</time></trkpt>
<trkpt lat="44.762299954891205" lon="5.138010755181313"><ele></ele><time>2015-2-3T2:10:56Z</time></trkpt>
<trkpt lat="44.761786898598075" lon="5.137977646663785"><ele></ele><time>2015-2-3T2:10:59Z</time></trkpt>
<trkpt lat="44.761351374909282" lon="5.137782767415047"><ele></ele><time>2015-2-3T2:11:2Z</time></trkpt>
<trkpt lat="44.760950887575746" lon="5.137471966445446"><ele></ele><time>2015-2-3T2:11:5Z</time></trkpt>
<trkpt lat="44.760547885671258" lon="5.137156220152974"><ele></ele><time>2015-2-3T2:11:8Z</time></trkpt>
<trkpt lat="44.760144716128707" lon="5.136737627908588"><ele></ele><time>2015-2-3T2:11:11Z</time></trkpt>
<trkpt lat="44.759888648986816" lon="5.136107476428151"><ele></ele><time>2015-2-3T2:11:14Z</time></trkpt>
<trkpt lat="44.75971388630569" lon="5.135511187836528"><ele></ele><time>2015-2-3T2:11:17Z</time></trkpt>
<trkpt lat="44.759569298475981" lon="5.134900063276291"><ele></ele><time>2015-2-3T2:11:20Z</time></trkpt>
<trkpt lat="44.759356733411551" lon="5.134343840181828"><ele></ele><time>2015-2-3T2:11:23Z</time></trkpt>
<trkpt lat="44.758944176137447" lon="5.13407913967967"><ele></ele><time>2015-2-3T2:11:26Z</time></trkpt>
<trkpt lat="44.758426174521446" lon="5.133968582376838"><ele></ele><time>2015-2-3T2:11:29Z</time></trkpt>
<trkpt lat="44.757967768236995" lon="5.133853079751134"><ele></ele><time>2015-2-3T2:11:32Z</time></trkpt>
<trkpt lat="44.757510870695114" lon="5.133664738386869"><ele></ele><time>2015-2-3T2:11:35Z</time></trkpt>
<trkpt lat="44.75712857209146" lon="5.133276488631964"><ele></ele><time>2015-2-3T2:11:38Z</time></trkpt>
<trkpt lat="44.756749123334885" lon="5.132805006578565"><ele></ele><time>2015-2-3T2:11:41Z</time></trkpt>
<trkpt lat="44.756397418677807" lon="5.132379122078419"><ele></ele><time>2015-2-3T2:11:44Z</time></trkpt>
<trkpt lat="44.756036996841431" lon="5.131928427144885"><ele></ele><time>2015-2-3T2:11:47Z</time></trkpt>
<trkpt lat="44.755672048777342" lon="5.131477564573288"><ele></ele><time>2015-2-3T2:11:50Z</time></trkpt>
<trkpt lat="44.7553392034024" lon="5.131044220179319"><ele></ele><time>2015-2-3T2:11:53Z</time></trkpt>
<trkpt lat="44.754991186782718" lon="5.130626298487186"><ele></ele><time>2015-2-3T2:11:56Z</time></trkpt>
<trkpt lat="44.7546052839607" lon="5.13018767349422"><ele></ele><time>2015-2-3T2:11:59Z</time></trkpt>
<trkpt lat="44.754216782748699" lon="5.129793472588062"><ele></ele><time>2015-2-3T2:12:2Z</time></trkpt>
<trkpt lat="44.75378779694438" lon="5.129396924749017"><ele></ele><time>2015-2-3T2:12:5Z</time></trkpt>
<trkpt lat="44.753368282690644" lon="5.129005992785096"><ele></ele><time>2015-2-3T2:12:8Z</time></trkpt>
<trkpt lat="44.752970645204186" lon="5.128641799092293"><ele></ele><time>2015-2-3T2:12:11Z</time></trkpt>
<trkpt lat="44.752593962475657" lon="5.128287244588137"><ele></ele><time>2015-2-3T2:12:14Z</time></trkpt>
<trkpt lat="44.752187188714743" lon="5.127907125279307"><ele></ele><time>2015-2-3T2:12:17Z</time></trkpt>
<trkpt lat="44.751796005293727" lon="5.127553744241595"><ele></ele><time>2015-2-3T2:12:20Z</time></trkpt>
<trkpt lat="44.751398703083396" lon="5.127190891653299"><ele></ele><time>2015-2-3T2:12:23Z</time></trkpt>
<trkpt lat="44.750994611531496" lon="5.126782944425941"><ele></ele><time>2015-2-3T2:12:26Z</time></trkpt>
<trkpt lat="44.75058875977993" lon="5.126398131251335"><ele></ele><time>2015-2-3T2:12:29Z</time></trkpt>
<trkpt lat="44.75018223747611" lon="5.12607341632247"><ele></ele><time>2015-2-3T2:12:32Z</time></trkpt>
<trkpt lat="44.74972240626812" lon="5.125797735527158"><ele></ele><time>2015-2-3T2:12:35Z</time></trkpt>
<trkpt lat="44.749274477362633" lon="5.125546529889107"><ele></ele><time>2015-2-3T2:12:38Z</time></trkpt>
<trkpt lat="44.748805845156312" lon="5.125313261523843"><ele></ele><time>2015-2-3T2:12:41Z</time></trkpt>
<trkpt lat="44.748353390023112" lon="5.125157441943884"><ele></ele><time>2015-2-3T2:12:44Z</time></trkpt>
<trkpt lat="44.747889367863536" lon="5.125013692304492"><ele></ele><time>2015-2-3T2:12:47Z</time></trkpt>
<trkpt lat="44.747392321005464" lon="5.124870697036386"><ele></ele><time>2015-2-3T2:12:50Z</time></trkpt>
<trkpt lat="44.746945314109325" lon="5.1247663423419"><ele></ele><time>2015-2-3T2:12:53Z</time></trkpt>
<trkpt lat="44.746491434052587" lon="5.12462317943573"><ele></ele><time>2015-2-3T2:12:56Z</time></trkpt>
<trkpt lat="44.746006289497018" lon="5.124440370127559"><ele></ele><time>2015-2-3T2:12:59Z</time></trkpt>
<trkpt lat="44.745505638420582" lon="5.124233001843095"><ele></ele><time>2015-2-3T2:13:2Z</time></trkpt>
<trkpt lat="44.745003562420607" lon="5.124058574438095"><ele></ele><time>2015-2-3T2:13:5Z</time></trkpt>
<trkpt lat="44.744514562189579" lon="5.123927816748619"><ele></ele><time>2015-2-3T2:13:8Z</time></trkpt>
<trkpt lat="44.744040984660387" lon="5.123807452619076"><ele></ele><time>2015-2-3T2:13:11Z</time></trkpt>
<trkpt lat="44.743562545627356" lon="5.123691027984023"><ele></ele><time>2015-2-3T2:13:14Z</time></trkpt>
<trkpt lat="44.743098942562938" lon="5.123575273901224"><ele></ele><time>2015-2-3T2:13:17Z</time></trkpt>
<trkpt lat="44.742647157981992" lon="5.123401265591383"><ele></ele><time>2015-2-3T2:13:20Z</time></trkpt>
<trkpt lat="44.742226805537939" lon="5.123166739940643"><ele></ele><time>2015-2-3T2:13:23Z</time></trkpt>
<trkpt lat="44.741770830005407" lon="5.12290614657104"><ele></ele><time>2015-2-3T2:13:26Z</time></trkpt>
<trkpt lat="44.741318877786398" lon="5.122650330886245"><ele></ele><time>2015-2-3T2:13:29Z</time></trkpt>
<trkpt lat="44.740862818434834" lon="5.122345900163055"><ele></ele><time>2015-2-3T2:13:32Z</time></trkpt>
<trkpt lat="44.740418493747711" lon="5.121998889371753"><ele></ele><time>2015-2-3T2:13:35Z</time></trkpt>
<trkpt lat="44.739992106333375" lon="5.121680879965425"><ele></ele><time>2015-2-3T2:13:38Z</time></trkpt>
<trkpt lat="44.739585416391492" lon="5.121369073167443"><ele></ele><time>2015-2-3T2:13:41Z</time></trkpt>
<trkpt lat="44.739160789176822" lon="5.121034299954772"><ele></ele><time>2015-2-3T2:13:44Z</time></trkpt>
<trkpt lat="44.738721493631601" lon="5.120694413781166"><ele></ele><time>2015-2-3T2:13:47Z</time></trkpt>
<trkpt lat="44.738275241106749" lon="5.120379338040948"><ele></ele><time>2015-2-3T2:13:50Z</time></trkpt>
<trkpt lat="44.73781356588006" lon="5.120099131017923"><ele></ele><time>2015-2-3T2:13:53Z</time></trkpt>
<trkpt lat="44.737392542883754" lon="5.119861755520105"><ele></ele><time>2015-2-3T2:13:56Z</time></trkpt>
<trkpt lat="44.736975459381938" lon="5.119613567367196"><ele></ele><time>2015-2-3T2:13:59Z</time></trkpt>
<trkpt lat="44.736548149958253" lon="5.119364960119128"><ele></ele><time>2015-2-3T2:14:2Z</time></trkpt>
<trkpt lat="44.736090581864119" lon="5.119100175797939"><ele></ele><time>2015-2-3T2:14:5Z</time></trkpt>
<trkpt lat="44.735630750656128" lon="5.118841426447034"><ele></ele><time>2015-2-3T2:14:8Z</time></trkpt>
<trkpt lat="44.735157676041126" lon="5.118622155860066"><ele></ele><time>2015-2-3T2:14:11Z</time></trkpt>
<trkpt lat="44.734684182330966" lon="5.118435909971595"><ele></ele><time>2015-2-3T2:14:14Z</time></trkpt>
<trkpt lat="44.734223429113626" lon="5.118163581937552"><ele></ele><time>2015-2-3T2:14:17Z</time></trkpt>
<trkpt lat="44.73376770503819" lon="5.117851607501507"><ele></ele><time>2015-2-3T2:14:20Z</time></trkpt>
<trkpt lat="44.733292032033205" lon="5.117515409365296"><ele></ele><time>2015-2-3T2:14:23Z</time></trkpt>
<trkpt lat="44.73286815918982" lon="5.117093548178673"><ele></ele><time>2015-2-3T2:14:26Z</time></trkpt>
<trkpt lat="44.732491057366133" lon="5.116598512977362"><ele></ele><time>2015-2-3T2:14:29Z</time></trkpt>
<trkpt lat="44.732120912522078" lon="5.116092497482896"><ele></ele><time>2015-2-3T2:14:32Z</time></trkpt>
<trkpt lat="44.731758059933782" lon="5.115607101470232"><ele></ele><time>2015-2-3T2:14:35Z</time></trkpt>
<trkpt lat="44.731398811563849" lon="5.11511885561049"><ele></ele><time>2015-2-3T2:14:38Z</time></trkpt>
<trkpt lat="44.731046939268708" lon="5.114638488739729"><ele></ele><time>2015-2-3T2:14:41Z</time></trkpt>
<trkpt lat="44.73073379136622" lon="5.114080924540758"><ele></ele><time>2015-2-3T2:14:44Z</time></trkpt>
<trkpt lat="44.730460792779922" lon="5.113483630120754"><ele></ele><time>2015-2-3T2:14:47Z</time></trkpt>
<trkpt lat="44.730196846649051" lon="5.112886670976877"><ele></ele><time>2015-2-3T2:14:50Z</time></trkpt>
<trkpt lat="44.72993834875524" lon="5.112312762066722"><ele></ele><time>2015-2-3T2:14:53Z</time></trkpt>
<trkpt lat="44.729685299098492" lon="5.111746145412326"><ele></ele><time>2015-2-3T2:14:56Z</time></trkpt>
<trkpt lat="44.729431997984648" lon="5.111185479909182"><ele></ele><time>2015-2-3T2:14:59Z</time></trkpt>
<trkpt lat="44.72917995415628" lon="5.110628250986338"><ele></ele><time>2015-2-3T2:15:2Z</time></trkpt>
<trkpt lat="44.728942913934588" lon="5.110090970993042"><ele></ele><time>2015-2-3T2:15:5Z</time></trkpt>
<trkpt lat="44.728681230917573" lon="5.109498286619782"><ele></ele><time>2015-2-3T2:15:8Z</time></trkpt>
<trkpt lat="44.728419883176684" lon="5.10892546735704"><ele></ele><time>2015-2-3T2:15:11Z</time></trkpt>
<trkpt lat="44.728170856833458" lon="5.108369076624513"><ele></ele><time>2015-2-3T2:15:14Z</time></trkpt>
<trkpt lat="44.727930715307593" lon="5.107829533517361"><ele></ele><time>2015-2-3T2:15:17Z</time></trkpt>
<trkpt lat="44.727680096402764" lon="5.107282949611545"><ele></ele><time>2015-2-3T2:15:20Z</time></trkpt>
<trkpt lat="44.727420676499605" lon="5.10670468211174"><ele></ele><time>2015-2-3T2:15:23Z</time></trkpt>
<trkpt lat="44.727154048159719" lon="5.10612809099257"><ele></ele><time>2015-2-3T2:15:26Z</time></trkpt>
<trkpt lat="44.726901249960065" lon="5.105554349720478"><ele></ele><time>2015-2-3T2:15:29Z</time></trkpt>
<trkpt lat="44.726708633825183" lon="5.104932244867086"><ele></ele><time>2015-2-3T2:15:32Z</time></trkpt>
<trkpt lat="44.726458266377449" lon="5.104371076449752"><ele></ele><time>2015-2-3T2:15:35Z</time></trkpt>
<trkpt lat="44.726174371317029" lon="5.10384519584477"><ele></ele><time>2015-2-3T2:15:38Z</time></trkpt>
<trkpt lat="44.725824510678649" lon="5.103416377678514"><ele></ele><time>2015-2-3T2:15:41Z</time></trkpt>
<trkpt lat="44.725553775206208" lon="5.102913044393063"><ele></ele><time>2015-2-3T2:15:44Z</time></trkpt>
<trkpt lat="44.725280357524753" lon="5.102380122989416"><ele></ele><time>2015-2-3T2:15:47Z</time></trkpt>
<trkpt lat="44.724994534626603" lon="5.101822558790445"><ele></ele><time>2015-2-3T2:15:50Z</time></trkpt>
<trkpt lat="44.724710304290056" lon="5.10126918554306"><ele></ele><time>2015-2-3T2:15:53Z</time></trkpt>
<trkpt lat="44.7244075499475" lon="5.100715644657612"><ele></ele><time>2015-2-3T2:15:56Z</time></trkpt>
<trkpt lat="44.724082667380571" lon="5.10027039796114"><ele></ele><time>2015-2-3T2:15:59Z</time></trkpt>
<trkpt lat="44.723733309656382" lon="5.099841579794884"><ele></ele><time>2015-2-3T2:16:2Z</time></trkpt>
<trkpt lat="44.723394345492125" lon="5.099408570677042"><ele></ele><time>2015-2-3T2:16:5Z</time></trkpt>
<trkpt lat="44.723055632784963" lon="5.098990313708782"><ele></ele><time>2015-2-3T2:16:8Z</time></trkpt>
<trkpt lat="44.72270174883306" lon="5.098546743392944"><ele></ele><time>2015-2-3T2:16:11Z</time></trkpt>
<trkpt lat="44.722344093024731" lon="5.098102921620011"><ele></ele><time>2015-2-3T2:16:14Z</time></trkpt>
<trkpt lat="44.721985515207052" lon="5.097631020471454"><ele></ele><time>2015-2-3T2:16:17Z</time></trkpt>
<trkpt lat="44.721615286543965" lon="5.097171775996685"><ele></ele><time>2015-2-3T2:16:20Z</time></trkpt>
<trkpt lat="44.721279423683882" lon="5.096687888726592"><ele></ele><time>2015-2-3T2:16:23Z</time></trkpt>
<trkpt lat="44.721019500866532" lon="5.096119260415435"><ele></ele><time>2015-2-3T2:16:26Z</time></trkpt>
<trkpt lat="44.720866279676557" lon="5.09546622633934"><ele></ele><time>2015-2-3T2:16:29Z</time></trkpt>
<trkpt lat="44.720581043511629" lon="5.094910673797131"><ele></ele><time>2015-2-3T2:16:32Z</time></trkpt>
<trkpt lat="44.720223220065236" lon="5.094529381021857"><ele></ele><time>2015-2-3T2:16:35Z</time></trkpt>
<trkpt lat="44.71983790397644" lon="5.094128893688321"><ele></ele><time>2015-2-3T2:16:38Z</time></trkpt>
<trkpt lat="44.71944160759449" lon="5.09372572414577"><ele></ele><time>2015-2-3T2:16:41Z</time></trkpt>
<trkpt lat="44.719047239050269" lon="5.093317776918411"><ele></ele><time>2015-2-3T2:16:44Z</time></trkpt>
<trkpt lat="44.718680866062641" lon="5.092927515506744"><ele></ele><time>2015-2-3T2:16:47Z</time></trkpt>
<trkpt lat="44.718308122828603" lon="5.092549826949835"><ele></ele><time>2015-2-3T2:16:50Z</time></trkpt>
<trkpt lat="44.71794786863029" lon="5.092157972976565"><ele></ele><time>2015-2-3T2:16:53Z</time></trkpt>
<trkpt lat="44.717571940273046" lon="5.091758323833346"><ele></ele><time>2015-2-3T2:16:56Z</time></trkpt>
<trkpt lat="44.7171875461936" lon="5.091352974995971"><ele></ele><time>2015-2-3T2:16:59Z</time></trkpt>
<trkpt lat="44.716820167377591" lon="5.090950895100832"><ele></ele><time>2015-2-3T2:17:2Z</time></trkpt>
<trkpt lat="44.716446837410331" lon="5.090552000328898"><ele></ele><time>2015-2-3T2:17:5Z</time></trkpt>
<trkpt lat="44.716072669252753" lon="5.09012988768518"><ele></ele><time>2015-2-3T2:17:8Z</time></trkpt>
<trkpt lat="44.71568307839334" lon="5.089719090610743"><ele></ele><time>2015-2-3T2:17:11Z</time></trkpt>
<trkpt lat="44.715314609929919" lon="5.089434273540974"><ele></ele><time>2015-2-3T2:17:14Z</time></trkpt>
<trkpt lat="44.715088633820415" lon="5.090047493577004"><ele></ele><time>2015-2-3T2:17:17Z</time></trkpt>
<trkpt lat="44.714870704337955" lon="5.090634478256106"><ele></ele><time>2015-2-3T2:17:20Z</time></trkpt>
<trkpt lat="44.714542217552662" lon="5.090859532356262"><ele></ele><time>2015-2-3T2:17:23Z</time></trkpt>
<trkpt lat="44.714135359972715" lon="5.090584438294172"><ele></ele><time>2015-2-3T2:17:26Z</time></trkpt>
<trkpt lat="44.713688185438514" lon="5.090289562940598"><ele></ele><time>2015-2-3T2:17:29Z</time></trkpt>
<trkpt lat="44.713232629001141" lon="5.089992508292198"><ele></ele><time>2015-2-3T2:17:32Z</time></trkpt>
<trkpt lat="44.712823340669274" lon="5.089732417836785"><ele></ele><time>2015-2-3T2:17:35Z</time></trkpt>
<trkpt lat="44.712381111457944" lon="5.08942874148488"><ele></ele><time>2015-2-3T2:17:38Z</time></trkpt>
<trkpt lat="44.711934272199869" lon="5.089153563603759"><ele></ele><time>2015-2-3T2:17:41Z</time></trkpt>
<trkpt lat="44.711504280567169" lon="5.088865058496594"><ele></ele><time>2015-2-3T2:17:44Z</time></trkpt>
<trkpt lat="44.711152911186218" lon="5.089263701811433"><ele></ele><time>2015-2-3T2:17:47Z</time></trkpt>
<trkpt lat="44.710858287289739" lon="5.089781703427434"><ele></ele><time>2015-2-3T2:17:50Z</time></trkpt>
<trkpt lat="44.710567686706781" lon="5.090329544618726"><ele></ele><time>2015-2-3T2:17:53Z</time></trkpt>
<trkpt lat="44.710214138031006" lon="5.090739419683814"><ele></ele><time>2015-2-3T2:17:56Z</time></trkpt>
<trkpt lat="44.709740057587624" lon="5.090911835432053"><ele></ele><time>2015-2-3T2:17:59Z</time></trkpt>
<trkpt lat="44.709288692101836" lon="5.090661803260446"><ele></ele><time>2015-2-3T2:18:2Z</time></trkpt>
<trkpt lat="44.708823747932911" lon="5.090409843251109"><ele></ele><time>2015-2-3T2:18:5Z</time></trkpt>
<trkpt lat="44.708385290578008" lon="5.090169701725245"><ele></ele><time>2015-2-3T2:18:8Z</time></trkpt>
<trkpt lat="44.707959406077862" lon="5.089942971244454"><ele></ele><time>2015-2-3T2:18:11Z</time></trkpt>
<trkpt lat="44.707545591518283" lon="5.089742140844464"><ele></ele><time>2015-2-3T2:18:14Z</time></trkpt>
<trkpt lat="44.70712716691196" lon="5.089500993490219"><ele></ele><time>2015-2-3T2:18:17Z</time></trkpt>
<trkpt lat="44.706708826124668" lon="5.089237382635474"><ele></ele><time>2015-2-3T2:18:20Z</time></trkpt>
<trkpt lat="44.706236757338047" lon="5.089082904160023"><ele></ele><time>2015-2-3T2:18:23Z</time></trkpt>
<trkpt lat="44.705769214779139" lon="5.088957259431481"><ele></ele><time>2015-2-3T2:18:26Z</time></trkpt>
<trkpt lat="44.705318016931415" lon="5.088857682421804"><ele></ele><time>2015-2-3T2:18:29Z</time></trkpt>
<trkpt lat="44.704940412193537" lon="5.088472785428166"><ele></ele><time>2015-2-3T2:18:32Z</time></trkpt>
<trkpt lat="44.704493237659335" lon="5.088589126244187"><ele></ele><time>2015-2-3T2:18:35Z</time></trkpt>
<trkpt lat="44.704321995377541" lon="5.089184828102589"><ele></ele><time>2015-2-3T2:18:38Z</time></trkpt>
<trkpt lat="44.704143544659019" lon="5.089822690933943"><ele></ele><time>2015-2-3T2:18:41Z</time></trkpt>
<trkpt lat="44.703971464186907" lon="5.090409424155951"><ele></ele><time>2015-2-3T2:18:44Z</time></trkpt>
<trkpt lat="44.703783458098769" lon="5.091027673333883"><ele></ele><time>2015-2-3T2:18:47Z</time></trkpt>
<trkpt lat="44.703649263828993" lon="5.091690514236689"><ele></ele><time>2015-2-3T2:18:50Z</time></trkpt>
<trkpt lat="44.703631661832333" lon="5.092342123389244"><ele></ele><time>2015-2-3T2:18:53Z</time></trkpt>
<trkpt lat="44.7035988047719" lon="5.093000689521432"><ele></ele><time>2015-2-3T2:18:56Z</time></trkpt>
<trkpt lat="44.703580029308796" lon="5.093723628669977"><ele></ele><time>2015-2-3T2:18:59Z</time></trkpt>
<trkpt lat="44.703535940498114" lon="5.094404825940728"><ele></ele><time>2015-2-3T2:19:2Z</time></trkpt>
<trkpt lat="44.703376265242696" lon="5.095010586082935"><ele></ele><time>2015-2-3T2:19:5Z</time></trkpt>
<trkpt lat="44.703096812590957" lon="5.095553314313293"><ele></ele><time>2015-2-3T2:19:8Z</time></trkpt>
<trkpt lat="44.702815180644393" lon="5.09613610804081"><ele></ele><time>2015-2-3T2:19:11Z</time></trkpt>
<trkpt lat="44.70254922285676" lon="5.096687469631434"><ele></ele><time>2015-2-3T2:19:14Z</time></trkpt>
<trkpt lat="44.702306650578976" lon="5.09723749011755"><ele></ele><time>2015-2-3T2:19:17Z</time></trkpt>
<trkpt lat="44.702165080234408" lon="5.097841070964932"><ele></ele><time>2015-2-3T2:19:20Z</time></trkpt>
<trkpt lat="44.702044548466802" lon="5.098469378426671"><ele></ele><time>2015-2-3T2:19:23Z</time></trkpt>
<trkpt lat="44.702150160446763" lon="5.099089974537492"><ele></ele><time>2015-2-3T2:19:26Z</time></trkpt>
<trkpt lat="44.702136162668467" lon="5.099729262292385"><ele></ele><time>2015-2-3T2:19:29Z</time></trkpt>
<trkpt lat="44.70208796672523" lon="5.100409956648946"><ele></ele><time>2015-2-3T2:19:32Z</time></trkpt>
<trkpt lat="44.701970787718892" lon="5.101048573851585"><ele></ele><time>2015-2-3T2:19:35Z</time></trkpt>
<trkpt lat="44.701785128563643" lon="5.101668415591121"><ele></ele><time>2015-2-3T2:19:38Z</time></trkpt>
<trkpt lat="44.701590165495872" lon="5.10227526538074"><ele></ele><time>2015-2-3T2:19:41Z</time></trkpt>
<trkpt lat="44.701361590996385" lon="5.102886138483882"><ele></ele><time>2015-2-3T2:19:44Z</time></trkpt>
<trkpt lat="44.701158329844475" lon="5.103540429845452"><ele></ele><time>2015-2-3T2:19:47Z</time></trkpt>
<trkpt lat="44.701018771156669" lon="5.104157589375973"><ele></ele><time>2015-2-3T2:19:50Z</time></trkpt>
<trkpt lat="44.700883654877543" lon="5.104811042547226"><ele></ele><time>2015-2-3T2:19:53Z</time></trkpt>
<trkpt lat="44.700745521113276" lon="5.105458376929164"><ele></ele><time>2015-2-3T2:19:56Z</time></trkpt>
<trkpt lat="44.700606297701597" lon="5.106105376034975"><ele></ele><time>2015-2-3T2:19:59Z</time></trkpt>
<trkpt lat="44.700475037097931" lon="5.106726391240954"><ele></ele><time>2015-2-3T2:20:2Z</time></trkpt>
<trkpt lat="44.700335143133998" lon="5.10741563513875"><ele></ele><time>2015-2-3T2:20:5Z</time></trkpt>
<trkpt lat="44.700202206149697" lon="5.108021395280957"><ele></ele><time>2015-2-3T2:20:8Z</time></trkpt>
<trkpt lat="44.700057534500957" lon="5.108627742156386"><ele></ele><time>2015-2-3T2:20:11Z</time></trkpt>
<trkpt lat="44.699849328026175" lon="5.109264012426138"><ele></ele><time>2015-2-3T2:20:14Z</time></trkpt>
<trkpt lat="44.699636679142714" lon="5.109869437292218"><ele></ele><time>2015-2-3T2:20:17Z</time></trkpt>
<trkpt lat="44.699431406334043" lon="5.110439658164978"><ele></ele><time>2015-2-3T2:20:20Z</time></trkpt>
<trkpt lat="44.699193276464939" lon="5.111040137708187"><ele></ele><time>2015-2-3T2:20:23Z</time></trkpt>
<trkpt lat="44.698965791612864" lon="5.11160465888679"><ele></ele><time>2015-2-3T2:20:26Z</time></trkpt>
<trkpt lat="44.698832016438246" lon="5.112234642729163"><ele></ele><time>2015-2-3T2:20:29Z</time></trkpt>
<trkpt lat="44.698756914585829" lon="5.112905111163855"><ele></ele><time>2015-2-3T2:20:32Z</time></trkpt>
<trkpt lat="44.698690781369805" lon="5.113568371161819"><ele></ele><time>2015-2-3T2:20:35Z</time></trkpt>
<trkpt lat="44.698590785264969" lon="5.114206820726395"><ele></ele><time>2015-2-3T2:20:38Z</time></trkpt>
<trkpt lat="44.698406299576163" lon="5.114788273349404"><ele></ele><time>2015-2-3T2:20:41Z</time></trkpt>
<trkpt lat="44.698174791410565" lon="5.115420017391443"><ele></ele><time>2015-2-3T2:20:44Z</time></trkpt>
<trkpt lat="44.697929788380861" lon="5.116007504984736"><ele></ele><time>2015-2-3T2:20:47Z</time></trkpt>
<trkpt lat="44.69768394716084" lon="5.116589376702905"><ele></ele><time>2015-2-3T2:20:50Z</time></trkpt>
<trkpt lat="44.697410948574543" lon="5.117122298106551"><ele></ele><time>2015-2-3T2:20:53Z</time></trkpt>
<trkpt lat="44.697131160646677" lon="5.11761968024075"><ele></ele><time>2015-2-3T2:20:56Z</time></trkpt>
<trkpt lat="44.696827568113804" lon="5.118168611079454"><ele></ele><time>2015-2-3T2:20:59Z</time></trkpt>
<trkpt lat="44.696513162925839" lon="5.118730952963233"><ele></ele><time>2015-2-3T2:21:2Z</time></trkpt>
<trkpt lat="44.696240164339542" lon="5.119238393381238"><ele></ele><time>2015-2-3T2:21:5Z</time></trkpt>
<trkpt lat="44.695924418047071" lon="5.119815822690725"><ele></ele><time>2015-2-3T2:21:8Z</time></trkpt>
<trkpt lat="44.695678912103176" lon="5.120366765186191"><ele></ele><time>2015-2-3T2:21:11Z</time></trkpt>
<trkpt lat="44.695468358695507" lon="5.120967663824558"><ele></ele><time>2015-2-3T2:21:14Z</time></trkpt>
<trkpt lat="44.695285968482494" lon="5.12157023884356"><ele></ele><time>2015-2-3T2:21:17Z</time></trkpt>
<trkpt lat="44.695166358724236" lon="5.122209023684263"><ele></ele><time>2015-2-3T2:21:20Z</time></trkpt>
<trkpt lat="44.695136686787009" lon="5.122881336137652"><ele></ele><time>2015-2-3T2:21:23Z</time></trkpt>
<trkpt lat="44.695121180266142" lon="5.123592456802726"><ele></ele><time>2015-2-3T2:21:26Z</time></trkpt>
<trkpt lat="44.695102069526911" lon="5.124244652688503"><ele></ele><time>2015-2-3T2:21:29Z</time></trkpt>
<trkpt lat="44.69508052803576" lon="5.124946050345898"><ele></ele><time>2015-2-3T2:21:32Z</time></trkpt>
<trkpt lat="44.695131573826075" lon="5.125598749145865"><ele></ele><time>2015-2-3T2:21:35Z</time></trkpt>
<trkpt lat="44.695232827216387" lon="5.126286065205932"><ele></ele><time>2015-2-3T2:21:38Z</time></trkpt>
<trkpt lat="44.695238023996353" lon="5.126957539469004"><ele></ele><time>2015-2-3T2:21:41Z</time></trkpt>
<trkpt lat="44.69522318802774" lon="5.12763555161655"><ele></ele><time>2015-2-3T2:21:44Z</time></trkpt>
<trkpt lat="44.695205586031079" lon="5.128339380025864"><ele></ele><time>2015-2-3T2:21:47Z</time></trkpt>
<trkpt lat="44.695177003741264" lon="5.129051003605127"><ele></ele><time>2015-2-3T2:21:50Z</time></trkpt>
<trkpt lat="44.695108355954289" lon="5.129704540595412"><ele></ele><time>2015-2-3T2:21:53Z</time></trkpt>
<trkpt lat="44.694939879700541" lon="5.130298566073179"><ele></ele><time>2015-2-3T2:21:56Z</time></trkpt>
<trkpt lat="44.694815408438444" lon="5.130925616249442"><ele></ele><time>2015-2-3T2:21:59Z</time></trkpt>
<trkpt lat="44.694704683497548" lon="5.131575297564268"><ele></ele><time>2015-2-3T2:22:2Z</time></trkpt>
<trkpt lat="44.694528831169009" lon="5.132163623347879"><ele></ele><time>2015-2-3T2:22:5Z</time></trkpt>
<trkpt lat="44.694379465654492" lon="5.132762175053358"><ele></ele><time>2015-2-3T2:22:8Z</time></trkpt>
<trkpt lat="44.69426991418004" lon="5.133410934358835"><ele></ele><time>2015-2-3T2:22:11Z</time></trkpt>
<trkpt lat="44.694173857569695" lon="5.134072015061975"><ele></ele><time>2015-2-3T2:22:14Z</time></trkpt>
<trkpt lat="44.694083919748664" lon="5.134728401899338"><ele></ele><time>2015-2-3T2:22:17Z</time></trkpt>
<trkpt lat="44.693993143737316" lon="5.135371210053563"><ele></ele><time>2015-2-3T2:22:20Z</time></trkpt>
<trkpt lat="44.693905133754015" lon="5.136006977409124"><ele></ele><time>2015-2-3T2:22:23Z</time></trkpt>
<trkpt lat="44.693803545087576" lon="5.136679792776704"><ele></ele><time>2015-2-3T2:22:26Z</time></trkpt>
<trkpt lat="44.693711427971721" lon="5.137357302010059"><ele></ele><time>2015-2-3T2:22:29Z</time></trkpt>
<trkpt lat="44.693731544539332" lon="5.138001451268792"><ele></ele><time>2015-2-3T2:22:32Z</time></trkpt>
<trkpt lat="44.693472879007459" lon="5.138457929715514"><ele></ele><time>2015-2-3T2:22:35Z</time></trkpt>
<trkpt lat="44.693167358636856" lon="5.138897392898798"><ele></ele><time>2015-2-3T2:22:38Z</time></trkpt>
<trkpt lat="44.692916320636868" lon="5.139466356486082"><ele></ele><time>2015-2-3T2:22:41Z</time></trkpt>
<trkpt lat="44.692748347297311" lon="5.14006968587637"><ele></ele><time>2015-2-3T2:22:44Z</time></trkpt>
<trkpt lat="44.692716412246227" lon="5.140720037743449"><ele></ele><time>2015-2-3T2:22:47Z</time></trkpt>
<trkpt lat="44.692737702280283" lon="5.14140316285193"><ele></ele><time>2015-2-3T2:22:50Z</time></trkpt>
<trkpt lat="44.692767038941383" lon="5.142074720934033"><ele></ele><time>2015-2-3T2:22:53Z</time></trkpt>
<trkpt lat="44.692790172994137" lon="5.142739238217473"><ele></ele><time>2015-2-3T2:22:56Z</time></trkpt>
<trkpt lat="44.692783802747726" lon="5.143448682501912"><ele></ele><time>2015-2-3T2:22:59Z</time></trkpt>
<trkpt lat="44.692705767229199" lon="5.14416097663343"><ele></ele><time>2015-2-3T2:23:2Z</time></trkpt>
<trkpt lat="44.692663187161088" lon="5.144828427582979"><ele></ele><time>2015-2-3T2:23:5Z</time></trkpt>
<trkpt lat="44.692655727267265" lon="5.145467044785619"><ele></ele><time>2015-2-3T2:23:8Z</time></trkpt>
<trkpt lat="44.692663690075278" lon="5.146161736920476"><ele></ele><time>2015-2-3T2:23:11Z</time></trkpt>
<trkpt lat="44.692615158855915" lon="5.14681862667203"><ele></ele><time>2015-2-3T2:23:14Z</time></trkpt>
<trkpt lat="44.692518850788474" lon="5.147454561665654"><ele></ele><time>2015-2-3T2:23:17Z</time></trkpt>
<trkpt lat="44.692415837198496" lon="5.148136261850596"><ele></ele><time>2015-2-3T2:23:20Z</time></trkpt>
<trkpt lat="44.692385913804173" lon="5.148787787184119"><ele></ele><time>2015-2-3T2:23:23Z</time></trkpt>
<trkpt lat="44.692367725074291" lon="5.149432690814138"><ele></ele><time>2015-2-3T2:23:26Z</time></trkpt>
<trkpt lat="44.692314751446247" lon="5.150066027417779"><ele></ele><time>2015-2-3T2:23:29Z</time></trkpt>
<trkpt lat="44.692303771153092" lon="5.150718055665493"><ele></ele><time>2015-2-3T2:23:32Z</time></trkpt>
<trkpt lat="44.692387087270617" lon="5.151406964287162"><ele></ele><time>2015-2-3T2:23:35Z</time></trkpt>
<trkpt lat="44.692610800266266" lon="5.152046922594309"><ele></ele><time>2015-2-3T2:23:38Z</time></trkpt>
<trkpt lat="44.692810960114002" lon="5.152615383267403"><ele></ele><time>2015-2-3T2:23:41Z</time></trkpt>
<trkpt lat="44.692913554608822" lon="5.153231956064701"><ele></ele><time>2015-2-3T2:23:44Z</time></trkpt>
<trkpt lat="44.692929144948721" lon="5.15389010310173"><ele></ele><time>2015-2-3T2:23:47Z</time></trkpt>
<trkpt lat="44.693011790513992" lon="5.154570629820228"><ele></ele><time>2015-2-3T2:23:50Z</time></trkpt>
<trkpt lat="44.693220080807805" lon="5.155187956988812"><ele></ele><time>2015-2-3T2:23:53Z</time></trkpt>
<trkpt lat="44.693472040817142" lon="5.155787263065577"><ele></ele><time>2015-2-3T2:23:56Z</time></trkpt>
<trkpt lat="44.693812513723969" lon="5.156308114528656"><ele></ele><time>2015-2-3T2:23:59Z</time></trkpt>
<trkpt lat="44.69407394528389" lon="5.156825529411435"><ele></ele><time>2015-2-3T2:24:2Z</time></trkpt>
<trkpt lat="44.694370413199067" lon="5.157336741685867"><ele></ele><time>2015-2-3T2:24:5Z</time></trkpt>
<trkpt lat="44.694671239703894" lon="5.157787352800369"><ele></ele><time>2015-2-3T2:24:8Z</time></trkpt>
<trkpt lat="44.694580631330609" lon="5.158432172611356"><ele></ele><time>2015-2-3T2:24:11Z</time></trkpt>
<trkpt lat="44.694444173946977" lon="5.159061569720507"><ele></ele><time>2015-2-3T2:24:14Z</time></trkpt>
<trkpt lat="44.694391367956996" lon="5.159735307097435"><ele></ele><time>2015-2-3T2:24:17Z</time></trkpt>
<trkpt lat="44.694240745157003" lon="5.160381970927119"><ele></ele><time>2015-2-3T2:24:20Z</time></trkpt>
<trkpt lat="44.694144604727626" lon="5.161005249246955"><ele></ele><time>2015-2-3T2:24:23Z</time></trkpt>
<trkpt lat="44.69408911652863" lon="5.161661971360445"><ele></ele><time>2015-2-3T2:24:26Z</time></trkpt>
<trkpt lat="44.693993898108602" lon="5.162327326834202"><ele></ele><time>2015-2-3T2:24:29Z</time></trkpt>
<trkpt lat="44.69388191588223" lon="5.162978852167726"><ele></ele><time>2015-2-3T2:24:32Z</time></trkpt>
<trkpt lat="44.693881748244166" lon="5.163678908720613"><ele></ele><time>2015-2-3T2:24:35Z</time></trkpt>
<trkpt lat="44.693893399089575" lon="5.164313167333603"><ele></ele><time>2015-2-3T2:24:38Z</time></trkpt>
<trkpt lat="44.693861547857523" lon="5.165011128410697"><ele></ele><time>2015-2-3T2:24:41Z</time></trkpt>
<trkpt lat="44.69377345405519" lon="5.165709927678108"><ele></ele><time>2015-2-3T2:24:44Z</time></trkpt>
<trkpt lat="44.693665746599436" lon="5.166399255394936"><ele></ele><time>2015-2-3T2:24:47Z</time></trkpt>
<trkpt lat="44.693461647257209" lon="5.167011637240648"><ele></ele><time>2015-2-3T2:24:50Z</time></trkpt>
<trkpt lat="44.693214213475585" lon="5.167570458725095"><ele></ele><time>2015-2-3T2:24:53Z</time></trkpt>
<trkpt lat="44.69284406863153" lon="5.168000450357795"><ele></ele><time>2015-2-3T2:24:56Z</time></trkpt>
<trkpt lat="44.692513905465603" lon="5.168512333184481"><ele></ele><time>2015-2-3T2:24:59Z</time></trkpt>
<trkpt lat="44.69238918274641" lon="5.169150782749057"><ele></ele><time>2015-2-3T2:25:2Z</time></trkpt>
<trkpt lat="44.692297065630555" lon="5.169780012220144"><ele></ele><time>2015-2-3T2:25:5Z</time></trkpt>
<trkpt lat="44.692186675965786" lon="5.170397004112601"><ele></ele><time>2015-2-3T2:25:8Z</time></trkpt>
<trkpt lat="44.692090367898345" lon="5.171059928834438"><ele></ele><time>2015-2-3T2:25:11Z</time></trkpt>
<trkpt lat="44.692133283242583" lon="5.171785466372967"><ele></ele><time>2015-2-3T2:25:14Z</time></trkpt>
<trkpt lat="44.692187262699008" lon="5.172481331974268"><ele></ele><time>2015-2-3T2:25:17Z</time></trkpt>
<trkpt lat="44.692143592983484" lon="5.17317233607173"><ele></ele><time>2015-2-3T2:25:20Z</time></trkpt>
<trkpt lat="44.692300669848919" lon="5.173808773979545"><ele></ele><time>2015-2-3T2:25:23Z</time></trkpt>
<trkpt lat="44.69239211641252" lon="5.174438590183854"><ele></ele><time>2015-2-3T2:25:26Z</time></trkpt>
<trkpt lat="44.692469565197825" lon="5.175083661451936"><ele></ele><time>2015-2-3T2:25:29Z</time></trkpt>
<trkpt lat="44.692374598234892" lon="5.175714986398816"><ele></ele><time>2015-2-3T2:25:32Z</time></trkpt>
<trkpt lat="44.692609626799822" lon="5.176227875053883"><ele></ele><time>2015-2-3T2:25:35Z</time></trkpt>
<trkpt lat="44.692615242674947" lon="5.17693379893899"><ele></ele><time>2015-2-3T2:25:38Z</time></trkpt>
<trkpt lat="44.692587666213512" lon="5.17761692404747"><ele></ele><time>2015-2-3T2:25:41Z</time></trkpt>
<trkpt lat="44.692515330389142" lon="5.178311448544264"><ele></ele><time>2015-2-3T2:25:44Z</time></trkpt>
<trkpt lat="44.692419189959764" lon="5.178999602794647"><ele></ele><time>2015-2-3T2:25:47Z</time></trkpt>
<trkpt lat="44.692320618778467" lon="5.179676106199622"><ele></ele><time>2015-2-3T2:25:50Z</time></trkpt>
<trkpt lat="44.692222215235233" lon="5.180355291813612"><ele></ele><time>2015-2-3T2:25:53Z</time></trkpt>
<trkpt lat="44.692127583548427" lon="5.181037662550807"><ele></ele><time>2015-2-3T2:25:56Z</time></trkpt>
<trkpt lat="44.692043261602521" lon="5.181702263653278"><ele></ele><time>2015-2-3T2:25:59Z</time></trkpt>
<trkpt lat="44.692012751474977" lon="5.182388909161091"><ele></ele><time>2015-2-3T2:26:2Z</time></trkpt>
<trkpt lat="44.692036975175142" lon="5.183036075904965"><ele></ele><time>2015-2-3T2:26:5Z</time></trkpt>
<trkpt lat="44.692127499729395" lon="5.183704784139991"><ele></ele><time>2015-2-3T2:26:8Z</time></trkpt>
<trkpt lat="44.692248366773129" lon="5.184419173747301"><ele></ele><time>2015-2-3T2:26:11Z</time></trkpt>
<trkpt lat="44.692361354827881" lon="5.185045888647437"><ele></ele><time>2015-2-3T2:26:14Z</time></trkpt>
<trkpt lat="44.692481467500329" lon="5.185761451721191"><ele></ele><time>2015-2-3T2:26:17Z</time></trkpt>
<trkpt lat="44.69259487465024" lon="5.186475422233343"><ele></ele><time>2015-2-3T2:26:20Z</time></trkpt>
<trkpt lat="44.692707695066929" lon="5.187160726636648"><ele></ele><time>2015-2-3T2:26:23Z</time></trkpt>
<trkpt lat="44.692890588194132" lon="5.18777159973979"><ele></ele><time>2015-2-3T2:26:26Z</time></trkpt>
<trkpt lat="44.693141710013151" lon="5.188364200294018"><ele></ele><time>2015-2-3T2:26:29Z</time></trkpt>
<trkpt lat="44.693408086895943" lon="5.188944563269615"><ele></ele><time>2015-2-3T2:26:32Z</time></trkpt>
<trkpt lat="44.693674044683576" lon="5.189494080841541"><ele></ele><time>2015-2-3T2:26:35Z</time></trkpt>
<trkpt lat="44.693893985822797" lon="5.190055081620812"><ele></ele><time>2015-2-3T2:26:38Z</time></trkpt>
<trkpt lat="44.694090038537979" lon="5.190671151503921"><ele></ele><time>2015-2-3T2:26:41Z</time></trkpt>
<trkpt lat="44.694239320233464" lon="5.19129803404212"><ele></ele><time>2015-2-3T2:26:44Z</time></trkpt>
<trkpt lat="44.694360690191388" lon="5.191915612667799"><ele></ele><time>2015-2-3T2:26:47Z</time></trkpt>
<trkpt lat="44.694440737366676" lon="5.192537717521191"><ele></ele><time>2015-2-3T2:26:50Z</time></trkpt>
<trkpt lat="44.694528495892882" lon="5.193205671384931"><ele></ele><time>2015-2-3T2:26:53Z</time></trkpt>
<trkpt lat="44.694619690999389" lon="5.19384085200727"><ele></ele><time>2015-2-3T2:26:56Z</time></trkpt>
<trkpt lat="44.694699821993709" lon="5.194516014307737"><ele></ele><time>2015-2-3T2:26:59Z</time></trkpt>
<trkpt lat="44.694769475609064" lon="5.195174077525735"><ele></ele><time>2015-2-3T2:27:2Z</time></trkpt>
<trkpt lat="44.694840554147959" lon="5.195849407464266"><ele></ele><time>2015-2-3T2:27:5Z</time></trkpt>
<trkpt lat="44.694882715120912" lon="5.196486013010144"><ele></ele><time>2015-2-3T2:27:8Z</time></trkpt>
<trkpt lat="44.694943148642778" lon="5.197210628539324"><ele></ele><time>2015-2-3T2:27:11Z</time></trkpt>
<trkpt lat="44.694988578557968" lon="5.197921665385366"><ele></ele><time>2015-2-3T2:27:14Z</time></trkpt>
<trkpt lat="44.695035349577665" lon="5.198570676147938"><ele></ele><time>2015-2-3T2:27:17Z</time></trkpt>
<trkpt lat="44.695014813914895" lon="5.199206946417689"><ele></ele><time>2015-2-3T2:27:20Z</time></trkpt>
<trkpt lat="44.694916578009725" lon="5.199843216687441"><ele></ele><time>2015-2-3T2:27:23Z</time></trkpt>
<trkpt lat="44.694756483659148" lon="5.200437074527144"><ele></ele><time>2015-2-3T2:27:26Z</time></trkpt>
<trkpt lat="44.694570740684867" lon="5.201018862426281"><ele></ele><time>2015-2-3T2:27:29Z</time></trkpt>
<trkpt lat="44.694359768182039" lon="5.201659323647618"><ele></ele><time>2015-2-3T2:27:32Z</time></trkpt>
<trkpt lat="44.694157848134637" lon="5.20226089283824"><ele></ele><time>2015-2-3T2:27:35Z</time></trkpt>
<trkpt lat="44.693918628618121" lon="5.202875789254904"><ele></ele><time>2015-2-3T2:27:38Z</time></trkpt>
<trkpt lat="44.693643618375063" lon="5.203458499163389"><ele></ele><time>2015-2-3T2:27:41Z</time></trkpt>
<trkpt lat="44.69338545575738" lon="5.203989576548338"><ele></ele><time>2015-2-3T2:27:44Z</time></trkpt>
<trkpt lat="44.693138524889946" lon="5.204523084685206"><ele></ele><time>2015-2-3T2:27:47Z</time></trkpt>
<trkpt lat="44.69289243221283" lon="5.205062292516232"><ele></ele><time>2015-2-3T2:27:50Z</time></trkpt>
<trkpt lat="44.692609207704663" lon="5.205566799268127"><ele></ele><time>2015-2-3T2:27:53Z</time></trkpt>
<trkpt lat="44.692299412563443" lon="5.206050183624029"><ele></ele><time>2015-2-3T2:27:56Z</time></trkpt>
<trkpt lat="44.691989533603191" lon="5.206514038145542"><ele></ele><time>2015-2-3T2:27:59Z</time></trkpt>
<trkpt lat="44.69168359413743" lon="5.206983424723148"><ele></ele><time>2015-2-3T2:28:2Z</time></trkpt>
<trkpt lat="44.691353514790535" lon="5.20746286958456"><ele></ele><time>2015-2-3T2:28:5Z</time></trkpt>
<trkpt lat="44.69099560752511" lon="5.207876600325108"><ele></ele><time>2015-2-3T2:28:8Z</time></trkpt>
<trkpt lat="44.690655805170536" lon="5.20836777985096"><ele></ele><time>2015-2-3T2:28:11Z</time></trkpt>
<trkpt lat="44.690393032506108" lon="5.208904892206192"><ele></ele><time>2015-2-3T2:28:14Z</time></trkpt>
<trkpt lat="44.690226819366217" lon="5.209578294306994"><ele></ele><time>2015-2-3T2:28:17Z</time></trkpt>
<trkpt lat="44.690209971740842" lon="5.210313387215138"><ele></ele><time>2015-2-3T2:28:20Z</time></trkpt>
<trkpt lat="44.690060103312135" lon="5.210949154570699"><ele></ele><time>2015-2-3T2:28:23Z</time></trkpt>
<trkpt lat="44.689814345911145" lon="5.211563631892204"><ele></ele><time>2015-2-3T2:28:26Z</time></trkpt>
<trkpt lat="44.68987125903368" lon="5.212206356227398"><ele></ele><time>2015-2-3T2:28:29Z</time></trkpt>
<trkpt lat="44.690192118287086" lon="5.212666103616357"><ele></ele><time>2015-2-3T2:28:32Z</time></trkpt>
<trkpt lat="44.690582044422626" lon="5.213076733052731"><ele></ele><time>2015-2-3T2:28:35Z</time></trkpt>
<trkpt lat="44.690943975001574" lon="5.213459031656385"><ele></ele><time>2015-2-3T2:28:38Z</time></trkpt>
<trkpt lat="44.691282687708735" lon="5.213914504274726"><ele></ele><time>2015-2-3T2:28:41Z</time></trkpt>
<trkpt lat="44.691571276634932" lon="5.214483384042978"><ele></ele><time>2015-2-3T2:28:44Z</time></trkpt>
<trkpt lat="44.691726509481668" lon="5.215165670961142"><ele></ele><time>2015-2-3T2:28:47Z</time></trkpt>
<trkpt lat="44.691633637994528" lon="5.215846700593829"><ele></ele><time>2015-2-3T2:28:50Z</time></trkpt>
<trkpt lat="44.691398357972503" lon="5.216423291712999"><ele></ele><time>2015-2-3T2:28:53Z</time></trkpt>
<trkpt lat="44.691097028553486" lon="5.216931737959385"><ele></ele><time>2015-2-3T2:28:56Z</time></trkpt>
<trkpt lat="44.690762925893068" lon="5.217457450926304"><ele></ele><time>2015-2-3T2:28:59Z</time></trkpt>
<trkpt lat="44.690529238432646" lon="5.218061450868845"><ele></ele><time>2015-2-3T2:29:2Z</time></trkpt>
<trkpt lat="44.690399738028646" lon="5.218751952052116"><ele></ele><time>2015-2-3T2:29:5Z</time></trkpt>
<trkpt lat="44.690328659489751" lon="5.219404399394989"><ele></ele><time>2015-2-3T2:29:8Z</time></trkpt>
<trkpt lat="44.69023042358458" lon="5.220072772353888"><ele></ele><time>2015-2-3T2:29:11Z</time></trkpt>
<trkpt lat="44.690099162980914" lon="5.220766626298428"><ele></ele><time>2015-2-3T2:29:14Z</time></trkpt>
<trkpt lat="44.68998659402132" lon="5.221385126933456"><ele></ele><time>2015-2-3T2:29:17Z</time></trkpt>
<trkpt lat="44.689876036718488" lon="5.222003879025579"><ele></ele><time>2015-2-3T2:29:20Z</time></trkpt>
<trkpt lat="44.689739998430014" lon="5.22269094362855"><ele></ele><time>2015-2-3T2:29:23Z</time></trkpt>
<trkpt lat="44.689590130001307" lon="5.223369458690286"><ele></ele><time>2015-2-3T2:29:26Z</time></trkpt>
<trkpt lat="44.689459372311831" lon="5.224051242694259"><ele></ele><time>2015-2-3T2:29:29Z</time></trkpt>
<trkpt lat="44.689333224669099" lon="5.224722381681204"><ele></ele><time>2015-2-3T2:29:32Z</time></trkpt>
<trkpt lat="44.689206993207335" lon="5.225423611700535"><ele></ele><time>2015-2-3T2:29:35Z</time></trkpt>
<trkpt lat="44.689081432297826" lon="5.226112520322204"><ele></ele><time>2015-2-3T2:29:38Z</time></trkpt>
<trkpt lat="44.688954278826714" lon="5.226802434772253"><ele></ele><time>2015-2-3T2:29:41Z</time></trkpt>
<trkpt lat="44.688836764544249" lon="5.227490505203605"><ele></ele><time>2015-2-3T2:29:44Z</time></trkpt>
<trkpt lat="44.688721429556608" lon="5.228167595341802"><ele></ele><time>2015-2-3T2:29:47Z</time></trkpt>
<trkpt lat="44.688625959679484" lon="5.228825993835926"><ele></ele><time>2015-2-3T2:29:50Z</time></trkpt>
<trkpt lat="44.688573824241757" lon="5.229471400380135"><ele></ele><time>2015-2-3T2:29:53Z</time></trkpt>
<trkpt lat="44.688602909445763" lon="5.230135414749384"><ele></ele><time>2015-2-3T2:29:56Z</time></trkpt>
<trkpt lat="44.688714724034071" lon="5.230790376663208"><ele></ele><time>2015-2-3T2:29:59Z</time></trkpt>
<trkpt lat="44.688819833099842" lon="5.231448020786047"><ele></ele><time>2015-2-3T2:30:2Z</time></trkpt>
<trkpt lat="44.68882855027914" lon="5.232134331017733"><ele></ele><time>2015-2-3T2:30:5Z</time></trkpt>
<trkpt lat="44.688803069293499" lon="5.232809660956264"><ele></ele><time>2015-2-3T2:30:8Z</time></trkpt>
<trkpt lat="44.688785132020712" lon="5.233450792729855"><ele></ele><time>2015-2-3T2:30:11Z</time></trkpt>
<trkpt lat="44.6887874789536" lon="5.234166271984577"><ele></ele><time>2015-2-3T2:30:14Z</time></trkpt>
<trkpt lat="44.688846319913864" lon="5.23481578566134"><ele></ele><time>2015-2-3T2:30:17Z</time></trkpt>
<trkpt lat="44.688973976299167" lon="5.235479967668653"><ele></ele><time>2015-2-3T2:30:20Z</time></trkpt>
<trkpt lat="44.689133232459426" lon="5.236095366999507"><ele></ele><time>2015-2-3T2:30:23Z</time></trkpt>
<trkpt lat="44.689352000132203" lon="5.236658211797476"><ele></ele><time>2015-2-3T2:30:26Z</time></trkpt>
<trkpt lat="44.689672943204641" lon="5.237215859815478"><ele></ele><time>2015-2-3T2:30:29Z</time></trkpt>
<trkpt lat="44.689891962334514" lon="5.237754983827472"><ele></ele><time>2015-2-3T2:30:32Z</time></trkpt>
<trkpt lat="44.68975156545639" lon="5.238321265205741"><ele></ele><time>2015-2-3T2:30:35Z</time></trkpt>
<trkpt lat="44.690153812989593" lon="5.238662743940949"><ele></ele><time>2015-2-3T2:30:38Z</time></trkpt>
<trkpt lat="44.690592521801591" lon="5.238947225734592"><ele></ele><time>2015-2-3T2:30:41Z</time></trkpt>
<trkpt lat="44.691033158451319" lon="5.239262972027063"><ele></ele><time>2015-2-3T2:30:44Z</time></trkpt>
<trkpt lat="44.691469520330429" lon="5.239464724436402"><ele></ele><time>2015-2-3T2:30:47Z</time></trkpt>
<trkpt lat="44.691935302689672" lon="5.23963856510818"><ele></ele><time>2015-2-3T2:30:50Z</time></trkpt>
<trkpt lat="44.692369904369116" lon="5.239814752712846"><ele></ele><time>2015-2-3T2:30:53Z</time></trkpt>
<trkpt lat="44.692767960950732" lon="5.240109628066421"><ele></ele><time>2015-2-3T2:30:56Z</time></trkpt>
<trkpt lat="44.693184960633516" lon="5.240526795387268"><ele></ele><time>2015-2-3T2:30:59Z</time></trkpt>
<trkpt lat="44.693534737452865" lon="5.241044377908111"><ele></ele><time>2015-2-3T2:31:2Z</time></trkpt>
<trkpt lat="44.693823913112283" lon="5.241612251847982"><ele></ele><time>2015-2-3T2:31:5Z</time></trkpt>
<trkpt lat="44.694089367985725" lon="5.242169732227922"><ele></ele><time>2015-2-3T2:31:8Z</time></trkpt>
<trkpt lat="44.694424225017428" lon="5.242680693045259"><ele></ele><time>2015-2-3T2:31:11Z</time></trkpt>
<trkpt lat="44.694740222766995" lon="5.243196599185467"><ele></ele><time>2015-2-3T2:31:14Z</time></trkpt>
<trkpt lat="44.695047838613391" lon="5.243775453418493"><ele></ele><time>2015-2-3T2:31:17Z</time></trkpt>
<trkpt lat="44.695308180525899" lon="5.244402419775724"><ele></ele><time>2015-2-3T2:31:20Z</time></trkpt>
<trkpt lat="44.695503897964954" lon="5.245019160211086"><ele></ele><time>2015-2-3T2:31:23Z</time></trkpt>
<trkpt lat="44.695711936801672" lon="5.245657861232758"><ele></ele><time>2015-2-3T2:31:26Z</time></trkpt>
<trkpt lat="44.695888962596655" lon="5.246287928894162"><ele></ele><time>2015-2-3T2:31:29Z</time></trkpt>
<trkpt lat="44.696024414151907" lon="5.246980274096131"><ele></ele><time>2015-2-3T2:31:32Z</time></trkpt>
<trkpt lat="44.696111334487796" lon="5.247685611248016"><ele></ele><time>2015-2-3T2:31:35Z</time></trkpt>
<trkpt lat="44.696231363341212" lon="5.24836789816618"><ele></ele><time>2015-2-3T2:31:38Z</time></trkpt>
<trkpt lat="44.696293557062745" lon="5.249049095436931"><ele></ele><time>2015-2-3T2:31:41Z</time></trkpt>
<trkpt lat="44.696252485737205" lon="5.24970187805593"><ele></ele><time>2015-2-3T2:31:44Z</time></trkpt>
<trkpt lat="44.696218455210328" lon="5.250344015657902"><ele></ele><time>2015-2-3T2:31:47Z</time></trkpt>
<trkpt lat="44.696235973387957" lon="5.251007946208119"><ele></ele><time>2015-2-3T2:31:50Z</time></trkpt>
<trkpt lat="44.696269333362579" lon="5.251715797930956"><ele></ele><time>2015-2-3T2:31:53Z</time></trkpt>
<trkpt lat="44.69634217210114" lon="5.252346871420741"><ele></ele><time>2015-2-3T2:31:56Z</time></trkpt>
<trkpt lat="44.69628986902535" lon="5.25298397988081"><ele></ele><time>2015-2-3T2:31:59Z</time></trkpt>
<trkpt lat="44.696054169908166" lon="5.253606587648392"><ele></ele><time>2015-2-3T2:32:2Z</time></trkpt>
<trkpt lat="44.695886950939894" lon="5.25419918820262"><ele></ele><time>2015-2-3T2:32:5Z</time></trkpt>
<trkpt lat="44.695776561275125" lon="5.254888013005257"><ele></ele><time>2015-2-3T2:32:8Z</time></trkpt>
<trkpt lat="44.695591740310192" lon="5.255518415942788"><ele></ele><time>2015-2-3T2:32:11Z</time></trkpt>
<trkpt lat="44.695264426991343" lon="5.256004650145769"><ele></ele><time>2015-2-3T2:32:14Z</time></trkpt>
<trkpt lat="44.694981370121241" lon="5.256530782207847"><ele></ele><time>2015-2-3T2:32:17Z</time></trkpt>
<trkpt lat="44.694696553051472" lon="5.25708164088428"><ele></ele><time>2015-2-3T2:32:20Z</time></trkpt>
<trkpt lat="44.694550037384033" lon="5.257710199803114"><ele></ele><time>2015-2-3T2:32:23Z</time></trkpt>
<trkpt lat="44.694326156750321" lon="5.258294669911265"><ele></ele><time>2015-2-3T2:32:26Z</time></trkpt>
<trkpt lat="44.693986270576715" lon="5.258769420906901"><ele></ele><time>2015-2-3T2:32:29Z</time></trkpt>
<trkpt lat="44.693583603948355" lon="5.259114252403379"><ele></ele><time>2015-2-3T2:32:32Z</time></trkpt>
<trkpt lat="44.693106086924672" lon="5.259256744757295"><ele></ele><time>2015-2-3T2:32:35Z</time></trkpt>
<trkpt lat="44.692653883248568" lon="5.259250039234757"><ele></ele><time>2015-2-3T2:32:38Z</time></trkpt>
<trkpt lat="44.692195225507021" lon="5.259079048410058"><ele></ele><time>2015-2-3T2:32:41Z</time></trkpt>
<trkpt lat="44.691774705424905" lon="5.259296307340264"><ele></ele><time>2015-2-3T2:32:44Z</time></trkpt>
<trkpt lat="44.691343121230602" lon="5.259507112205029"><ele></ele><time>2015-2-3T2:32:47Z</time></trkpt>
<trkpt lat="44.690901646390557" lon="5.259699812158942"><ele></ele><time>2015-2-3T2:32:50Z</time></trkpt>
<trkpt lat="44.690462602302432" lon="5.259898379445076"><ele></ele><time>2015-2-3T2:32:53Z</time></trkpt>
<trkpt lat="44.690009811893106" lon="5.259918663650751"><ele></ele><time>2015-2-3T2:32:56Z</time></trkpt>
<trkpt lat="44.689557692036033" lon="5.260035255923867"><ele></ele><time>2015-2-3T2:32:59Z</time></trkpt>
<trkpt lat="44.689105488359928" lon="5.259937439113855"><ele></ele><time>2015-2-3T2:33:2Z</time></trkpt>
<trkpt lat="44.688655966892838" lon="5.259779524058104"><ele></ele><time>2015-2-3T2:33:5Z</time></trkpt>
<trkpt lat="44.688194878399372" lon="5.259706685319543"><ele></ele><time>2015-2-3T2:33:8Z</time></trkpt>
<trkpt lat="44.68775206245482" lon="5.259434022009373"><ele></ele><time>2015-2-3T2:33:11Z</time></trkpt>
<trkpt lat="44.687469424679875" lon="5.258929263800383"><ele></ele><time>2015-2-3T2:33:14Z</time></trkpt>
<trkpt lat="44.687086874619126" lon="5.258549228310585"><ele></ele><time>2015-2-3T2:33:17Z</time></trkpt>
<trkpt lat="44.686664091423154" lon="5.258305817842484"><ele></ele><time>2015-2-3T2:33:20Z</time></trkpt>
<trkpt lat="44.686200907453895" lon="5.258110351860523"><ele></ele><time>2015-2-3T2:33:23Z</time></trkpt>
<trkpt lat="44.685722887516022" lon="5.257957465946674"><ele></ele><time>2015-2-3T2:33:26Z</time></trkpt>
<trkpt lat="44.685251908376813" lon="5.257934667170048"><ele></ele><time>2015-2-3T2:33:29Z</time></trkpt>
<trkpt lat="44.684787131845951" lon="5.257941456511617"><ele></ele><time>2015-2-3T2:33:32Z</time></trkpt>
<trkpt lat="44.684330653399229" lon="5.257828049361706"><ele></ele><time>2015-2-3T2:33:35Z</time></trkpt>
<trkpt lat="44.683878282085061" lon="5.257864678278565"><ele></ele><time>2015-2-3T2:33:38Z</time></trkpt>
<trkpt lat="44.683455750346184" lon="5.258047739043832"><ele></ele><time>2015-2-3T2:33:41Z</time></trkpt>
<trkpt lat="44.683106308802962" lon="5.258483346551657"><ele></ele><time>2015-2-3T2:33:44Z</time></trkpt>
<trkpt lat="44.682713700458407" lon="5.258785597980022"><ele></ele><time>2015-2-3T2:33:47Z</time></trkpt>
<trkpt lat="44.682361157611012" lon="5.259217601269484"><ele></ele><time>2015-2-3T2:33:50Z</time></trkpt>
<trkpt lat="44.681900152936578" lon="5.259217182174325"><ele></ele><time>2015-2-3T2:33:53Z</time></trkpt>
<trkpt lat="44.681484159082174" lon="5.258971340954304"><ele></ele><time>2015-2-3T2:33:56Z</time></trkpt>
<trkpt lat="44.681146871298552" lon="5.259440308436751"><ele></ele><time>2015-2-3T2:33:59Z</time></trkpt>
<trkpt lat="44.680770775303245" lon="5.259855967015028"><ele></ele><time>2015-2-3T2:34:2Z</time></trkpt>
<trkpt lat="44.680315386503935" lon="5.260089905932546"><ele></ele><time>2015-2-3T2:34:5Z</time></trkpt>
<trkpt lat="44.67986024916172" lon="5.260278079658747"><ele></ele><time>2015-2-3T2:34:8Z</time></trkpt>
<trkpt lat="44.679409805685282" lon="5.260070627555251"><ele></ele><time>2015-2-3T2:34:11Z</time></trkpt>
<trkpt lat="44.67900219373405" lon="5.259740129113197"><ele></ele><time>2015-2-3T2:34:14Z</time></trkpt>
<trkpt lat="44.678616458550096" lon="5.259336456656456"><ele></ele><time>2015-2-3T2:34:17Z</time></trkpt>
<trkpt lat="44.678187388926744" lon="5.259554469957948"><ele></ele><time>2015-2-3T2:34:20Z</time></trkpt>
<trkpt lat="44.678076831623912" lon="5.260208593681455"><ele></ele><time>2015-2-3T2:34:23Z</time></trkpt>
<trkpt lat="44.67822628095746" lon="5.260815778747201"><ele></ele><time>2015-2-3T2:34:26Z</time></trkpt>
<trkpt lat="44.678344549611211" lon="5.261419443413615"><ele></ele><time>2015-2-3T2:34:29Z</time></trkpt>
<trkpt lat="44.678361481055617" lon="5.262069627642632"><ele></ele><time>2015-2-3T2:34:32Z</time></trkpt>
<trkpt lat="44.678278919309378" lon="5.262711681425571"><ele></ele><time>2015-2-3T2:34:35Z</time></trkpt>
<trkpt lat="44.678240362554789" lon="5.263363542035222"><ele></ele><time>2015-2-3T2:34:38Z</time></trkpt>
<trkpt lat="44.67823751270771" lon="5.264001069590449"><ele></ele><time>2015-2-3T2:34:41Z</time></trkpt>
<trkpt lat="44.677822440862656" lon="5.264129061251879"><ele></ele><time>2015-2-3T2:34:44Z</time></trkpt>
<trkpt lat="44.677386749535799" lon="5.263950359076262"><ele></ele><time>2015-2-3T2:34:47Z</time></trkpt>
<trkpt lat="44.676932785660028" lon="5.263850027695298"><ele></ele><time>2015-2-3T2:34:50Z</time></trkpt>
<trkpt lat="44.676467590034008" lon="5.263758497312665"><ele></ele><time>2015-2-3T2:34:53Z</time></trkpt>
<trkpt lat="44.67599174939096" lon="5.263828486204147"><ele></ele><time>2015-2-3T2:34:56Z</time></trkpt>
<trkpt lat="44.675589669495821" lon="5.264114225283265"><ele></ele><time>2015-2-3T2:34:59Z</time></trkpt>
<trkpt lat="44.675162527710199" lon="5.264340033754706"><ele></ele><time>2015-2-3T2:35:2Z</time></trkpt>
<trkpt lat="44.674722058698535" lon="5.264531979337335"><ele></ele><time>2015-2-3T2:35:5Z</time></trkpt>
<trkpt lat="44.674426512792706" lon="5.265078982338309"><ele></ele><time>2015-2-3T2:35:8Z</time></trkpt>
<trkpt lat="44.673980847001076" lon="5.265310909599066"><ele></ele><time>2015-2-3T2:35:11Z</time></trkpt>
<trkpt lat="44.673620844259858" lon="5.265690525993705"><ele></ele><time>2015-2-3T2:35:14Z</time></trkpt>
<trkpt lat="44.673188924789429" lon="5.265943072736263"><ele></ele><time>2015-2-3T2:35:17Z</time></trkpt>
<trkpt lat="44.672768404707313" lon="5.266175251454115"><ele></ele><time>2015-2-3T2:35:20Z</time></trkpt>
<trkpt lat="44.672731440514326" lon="5.266826022416353"><ele></ele><time>2015-2-3T2:35:23Z</time></trkpt>
<trkpt lat="44.672567239031196" lon="5.267473692074418"><ele></ele><time>2015-2-3T2:35:26Z</time></trkpt>
<trkpt lat="44.672129536047578" lon="5.267651723697782"><ele></ele><time>2015-2-3T2:35:29Z</time></trkpt>
<trkpt lat="44.672088632360101" lon="5.268239714205265"><ele></ele><time>2015-2-3T2:35:32Z</time></trkpt>
<trkpt lat="44.672273034229875" lon="5.268883025273681"><ele></ele><time>2015-2-3T2:35:35Z</time></trkpt>
<trkpt lat="44.67217555269599" lon="5.269449558109045"><ele></ele><time>2015-2-3T2:35:38Z</time></trkpt>
<trkpt lat="44.671727623790503" lon="5.269529856741428"><ele></ele><time>2015-2-3T2:35:41Z</time></trkpt>
<trkpt lat="44.671349516138434" lon="5.269887428730726"><ele></ele><time>2015-2-3T2:35:44Z</time></trkpt>
<trkpt lat="44.670867389068007" lon="5.269932774826884"><ele></ele><time>2015-2-3T2:35:47Z</time></trkpt>
<trkpt lat="44.670484503731132" lon="5.269594648852944"><ele></ele><time>2015-2-3T2:35:50Z</time></trkpt>
<trkpt lat="44.670041603967547" lon="5.269467243924737"><ele></ele><time>2015-2-3T2:35:53Z</time></trkpt>
<trkpt lat="44.669598620384932" lon="5.2693603746593"><ele></ele><time>2015-2-3T2:35:56Z</time></trkpt>
<trkpt lat="44.669203916564584" lon="5.269040437415242"><ele></ele><time>2015-2-3T2:35:59Z</time></trkpt>
<trkpt lat="44.66895061545074" lon="5.268517825752497"><ele></ele><time>2015-2-3T2:36:2Z</time></trkpt>
<trkpt lat="44.668541913852096" lon="5.268425792455673"><ele></ele><time>2015-2-3T2:36:5Z</time></trkpt>
<trkpt lat="44.668192556127906" lon="5.268854862079024"><ele></ele><time>2015-2-3T2:36:8Z</time></trkpt>
<trkpt lat="44.668090213090181" lon="5.269510494545102"><ele></ele><time>2015-2-3T2:36:11Z</time></trkpt>
<trkpt lat="44.667742028832436" lon="5.269913077354431"><ele></ele><time>2015-2-3T2:36:14Z</time></trkpt>
<trkpt lat="44.667296782135963" lon="5.270109046250582"><ele></ele><time>2015-2-3T2:36:17Z</time></trkpt>
<trkpt lat="44.666884811595082" lon="5.269779385998845"><ele></ele><time>2015-2-3T2:36:20Z</time></trkpt>
<trkpt lat="44.666428081691265" lon="5.269507057964802"><ele></ele><time>2015-2-3T2:36:23Z</time></trkpt>
<trkpt lat="44.666014770045877" lon="5.269609233364463"><ele></ele><time>2015-2-3T2:36:26Z</time></trkpt>
<trkpt lat="44.665763061493635" lon="5.270175933837891"><ele></ele><time>2015-2-3T2:36:29Z</time></trkpt>
<trkpt lat="44.665308678522706" lon="5.270223710685968"><ele></ele><time>2015-2-3T2:36:32Z</time></trkpt>
<trkpt lat="44.664857564494014" lon="5.270367711782455"><ele></ele><time>2015-2-3T2:36:35Z</time></trkpt>
<trkpt lat="44.664523713290691" lon="5.270790830254555"><ele></ele><time>2015-2-3T2:36:38Z</time></trkpt>
<trkpt lat="44.664196064695716" lon="5.27126750908792"><ele></ele><time>2015-2-3T2:36:41Z</time></trkpt>
<trkpt lat="44.663779316470027" lon="5.271610915660858"><ele></ele><time>2015-2-3T2:36:44Z</time></trkpt>
<trkpt lat="44.663312947377563" lon="5.271768579259515"><ele></ele><time>2015-2-3T2:36:47Z</time></trkpt>
<trkpt lat="44.662888320162892" lon="5.271682916209102"><ele></ele><time>2015-2-3T2:36:50Z</time></trkpt>
<trkpt lat="44.662423795089126" lon="5.271600438281894"><ele></ele><time>2015-2-3T2:36:53Z</time></trkpt>
<trkpt lat="44.662108216434717" lon="5.272065969184041"><ele></ele><time>2015-2-3T2:36:56Z</time></trkpt>
<trkpt lat="44.661916103214025" lon="5.272656306624413"><ele></ele><time>2015-2-3T2:36:59Z</time></trkpt>
<trkpt lat="44.661746704950929" lon="5.273263994604349"><ele></ele><time>2015-2-3T2:37:2Z</time></trkpt>
<trkpt lat="44.661767156794667" lon="5.273909904062748"><ele></ele><time>2015-2-3T2:37:5Z</time></trkpt>
<trkpt lat="44.661845779046416" lon="5.27456964366138"><ele></ele><time>2015-2-3T2:37:8Z</time></trkpt>
<trkpt lat="44.661629525944591" lon="5.27514866553247"><ele></ele><time>2015-2-3T2:37:11Z</time></trkpt>
<trkpt lat="44.661440178751945" lon="5.275757107883692"><ele></ele><time>2015-2-3T2:37:14Z</time></trkpt>
<trkpt lat="44.661066513508558" lon="5.276192547753453"><ele></ele><time>2015-2-3T2:37:17Z</time></trkpt>
<trkpt lat="44.660624703392386" lon="5.276560848578811"><ele></ele><time>2015-2-3T2:37:20Z</time></trkpt>
<trkpt lat="44.660115838050842" lon="5.27666931040585"><ele></ele><time>2015-2-3T2:37:23Z</time></trkpt>
<trkpt lat="44.659741837531328" lon="5.277032498270273"><ele></ele><time>2015-2-3T2:37:26Z</time></trkpt>
<trkpt lat="44.659595573320985" lon="5.27764655649662"><ele></ele><time>2015-2-3T2:37:29Z</time></trkpt>
<trkpt lat="44.659602446481586" lon="5.278337392956018"><ele></ele><time>2015-2-3T2:37:32Z</time></trkpt>
<trkpt lat="44.659823477268219" lon="5.278914486989379"><ele></ele><time>2015-2-3T2:37:35Z</time></trkpt>
<trkpt lat="44.660085663199425" lon="5.279442127794027"><ele></ele><time>2015-2-3T2:37:38Z</time></trkpt>
<trkpt lat="44.660240225493908" lon="5.280046043917537"><ele></ele><time>2015-2-3T2:37:41Z</time></trkpt>
<trkpt lat="44.660359248518944" lon="5.28073470108211"><ele></ele><time>2015-2-3T2:37:44Z</time></trkpt>
<trkpt lat="44.660185910761356" lon="5.281358901411295"><ele></ele><time>2015-2-3T2:37:47Z</time></trkpt>
<trkpt lat="44.659946272149682" lon="5.28192107565701"><ele></ele><time>2015-2-3T2:37:50Z</time></trkpt>
<trkpt lat="44.659710405394435" lon="5.282513089478016"><ele></ele><time>2015-2-3T2:37:53Z</time></trkpt>
<trkpt lat="44.659399688243866" lon="5.282932855188847"><ele></ele><time>2015-2-3T2:37:56Z</time></trkpt>
<trkpt lat="44.658950166776776" lon="5.282888514921069"><ele></ele><time>2015-2-3T2:37:59Z</time></trkpt>
<trkpt lat="44.658505087718368" lon="5.282981973141432"><ele></ele><time>2015-2-3T2:38:2Z</time></trkpt>
<trkpt lat="44.658015165477991" lon="5.283171571791172"><ele></ele><time>2015-2-3T2:38:5Z</time></trkpt>
<trkpt lat="44.657495068386197" lon="5.283304927870631"><ele></ele><time>2015-2-3T2:38:8Z</time></trkpt>
<trkpt lat="44.65698653832078" lon="5.283137457445264"><ele></ele><time>2015-2-3T2:38:11Z</time></trkpt>
<trkpt lat="44.656533915549517" lon="5.282748285681009"><ele></ele><time>2015-2-3T2:38:14Z</time></trkpt>
<trkpt lat="44.656051453202963" lon="5.282430779188871"><ele></ele><time>2015-2-3T2:38:17Z</time></trkpt>
<trkpt lat="44.65552163310349" lon="5.28231980279088"><ele></ele><time>2015-2-3T2:38:20Z</time></trkpt>
<trkpt lat="44.65501100756228" lon="5.282480232417584"><ele></ele><time>2015-2-3T2:38:23Z</time></trkpt>
<trkpt lat="44.654555534943938" lon="5.282672010362148"><ele></ele><time>2015-2-3T2:38:26Z</time></trkpt>
<trkpt lat="44.654116658493876" lon="5.282887006178498"><ele></ele><time>2015-2-3T2:38:29Z</time></trkpt>
<trkpt lat="44.653780208900571" lon="5.283370055258274"><ele></ele><time>2015-2-3T2:38:32Z</time></trkpt>
<trkpt lat="44.653611732646823" lon="5.283992663025856"><ele></ele><time>2015-2-3T2:38:35Z</time></trkpt>
<trkpt lat="44.653515173122287" lon="5.28462122194469"><ele></ele><time>2015-2-3T2:38:38Z</time></trkpt>
<trkpt lat="44.653426576405764" lon="5.285307448357344"><ele></ele><time>2015-2-3T2:38:41Z</time></trkpt>
<trkpt lat="44.653336638584733" lon="5.285927038639784"><ele></ele><time>2015-2-3T2:38:44Z</time></trkpt>
<trkpt lat="44.6531449444592" lon="5.286503545939922"><ele></ele><time>2015-2-3T2:38:47Z</time></trkpt>
<trkpt lat="44.652819391340017" lon="5.286865895614028"><ele></ele><time>2015-2-3T2:38:50Z</time></trkpt>
<trkpt lat="44.652355955913663" lon="5.286856172606349"><ele></ele><time>2015-2-3T2:38:53Z</time></trkpt>
<trkpt lat="44.651901489123702" lon="5.286825662478805"><ele></ele><time>2015-2-3T2:38:56Z</time></trkpt>
<trkpt lat="44.651450961828232" lon="5.286791296675801"><ele></ele><time>2015-2-3T2:38:59Z</time></trkpt>
<trkpt lat="44.65100965462625" lon="5.287024984136224"><ele></ele><time>2015-2-3T2:39:2Z</time></trkpt>
<trkpt lat="44.650556361302733" lon="5.287127494812012"><ele></ele><time>2015-2-3T2:39:5Z</time></trkpt>
<trkpt lat="44.650112455710769" lon="5.287204356864095"><ele></ele><time>2015-2-3T2:39:8Z</time></trkpt>
<trkpt lat="44.649722697213292" lon="5.287552708759904"><ele></ele><time>2015-2-3T2:39:11Z</time></trkpt>
<trkpt lat="44.649400496855378" lon="5.288025867193937"><ele></ele><time>2015-2-3T2:39:14Z</time></trkpt>
<trkpt lat="44.649018030613661" lon="5.288439430296421"><ele></ele><time>2015-2-3T2:39:17Z</time></trkpt>
<trkpt lat="44.648571945726871" lon="5.28870077803731"><ele></ele><time>2015-2-3T2:39:20Z</time></trkpt>
<trkpt lat="44.6481301356107" lon="5.288938991725445"><ele></ele><time>2015-2-3T2:39:23Z</time></trkpt>
<trkpt lat="44.64772311039269" lon="5.28930863365531"><ele></ele><time>2015-2-3T2:39:26Z</time></trkpt>
<trkpt lat="44.647428654134274" lon="5.289777517318726"><ele></ele><time>2015-2-3T2:39:29Z</time></trkpt>
<trkpt lat="44.647542228922248" lon="5.290406495332718"><ele></ele><time>2015-2-3T2:39:32Z</time></trkpt>
<trkpt lat="44.64733712375164" lon="5.290932208299637"><ele></ele><time>2015-2-3T2:39:35Z</time></trkpt>
<trkpt lat="44.647044343873858" lon="5.291441828012466"><ele></ele><time>2015-2-3T2:39:38Z</time></trkpt>
<trkpt lat="44.646847285330296" lon="5.292040463536978"><ele></ele><time>2015-2-3T2:39:41Z</time></trkpt>
<trkpt lat="44.646658524870872" lon="5.292620658874512"><ele></ele><time>2015-2-3T2:39:44Z</time></trkpt>
<trkpt lat="44.646412264555693" lon="5.293145114555955"><ele></ele><time>2015-2-3T2:39:47Z</time></trkpt>
<trkpt lat="44.646153347566724" lon="5.293670073151588"><ele></ele><time>2015-2-3T2:39:50Z</time></trkpt>
<trkpt lat="44.645781107246876" lon="5.294027058407664"><ele></ele><time>2015-2-3T2:39:53Z</time></trkpt>
<trkpt lat="44.645512215793133" lon="5.294488649815321"><ele></ele><time>2015-2-3T2:39:56Z</time></trkpt>
<trkpt lat="44.645055653527379" lon="5.294567439705133"><ele></ele><time>2015-2-3T2:39:59Z</time></trkpt>
<trkpt lat="44.644570592790842" lon="5.294603146612644"><ele></ele><time>2015-2-3T2:40:2Z</time></trkpt>
<trkpt lat="44.644069941714406" lon="5.294453529641032"><ele></ele><time>2015-2-3T2:40:5Z</time></trkpt>
<trkpt lat="44.643595442175865" lon="5.294264014810324"><ele></ele><time>2015-2-3T2:40:8Z</time></trkpt>
<trkpt lat="44.643124463036656" lon="5.293954806402326"><ele></ele><time>2015-2-3T2:40:11Z</time></trkpt>
<trkpt lat="44.642600007355213" lon="5.293813906610012"><ele></ele><time>2015-2-3T2:40:14Z</time></trkpt>
<trkpt lat="44.642165992408991" lon="5.293429931625724"><ele></ele><time>2015-2-3T2:40:17Z</time></trkpt>
<trkpt lat="44.641771875321865" lon="5.292978147044778"><ele></ele><time>2015-2-3T2:40:20Z</time></trkpt>
<trkpt lat="44.641455542296171" lon="5.29245050624013"><ele></ele><time>2015-2-3T2:40:23Z</time></trkpt>
<trkpt lat="44.641102496534586" lon="5.292048510164022"><ele></ele><time>2015-2-3T2:40:26Z</time></trkpt>
<trkpt lat="44.64067317545414" lon="5.291693955659866"><ele></ele><time>2015-2-3T2:40:29Z</time></trkpt>
<trkpt lat="44.640259360894561" lon="5.291380472481251"><ele></ele><time>2015-2-3T2:40:32Z</time></trkpt>
<trkpt lat="44.640126675367355" lon="5.290791811421514"><ele></ele><time>2015-2-3T2:40:35Z</time></trkpt>
<trkpt lat="44.639901705086231" lon="5.290276911109686"><ele></ele><time>2015-2-3T2:40:38Z</time></trkpt>
<trkpt lat="44.639548659324646" lon="5.290709082037211"><ele></ele><time>2015-2-3T2:40:41Z</time></trkpt>
<trkpt lat="44.639219753444195" lon="5.291213924065232"><ele></ele><time>2015-2-3T2:40:44Z</time></trkpt>
<trkpt lat="44.638927057385445" lon="5.291690183803439"><ele></ele><time>2015-2-3T2:40:47Z</time></trkpt>
<trkpt lat="44.638511650264263" lon="5.291805434972048"><ele></ele><time>2015-2-3T2:40:50Z</time></trkpt>
<trkpt lat="44.638073947280645" lon="5.291523383930326"><ele></ele><time>2015-2-3T2:40:53Z</time></trkpt>
<trkpt lat="44.637770857661963" lon="5.291040586307645"><ele></ele><time>2015-2-3T2:40:56Z</time></trkpt>
<trkpt lat="44.637436168268323" lon="5.291439816355705"><ele></ele><time>2015-2-3T2:40:59Z</time></trkpt>
<trkpt lat="44.637380177155137" lon="5.292021436616778"><ele></ele><time>2015-2-3T2:41:2Z</time></trkpt>
<trkpt lat="44.637052277103066" lon="5.292451428249478"><ele></ele><time>2015-2-3T2:41:5Z</time></trkpt>
<trkpt lat="44.636657740920782" lon="5.292798103764653"><ele></ele><time>2015-2-3T2:41:8Z</time></trkpt>
<trkpt lat="44.636224815621972" lon="5.293043525889516"><ele></ele><time>2015-2-3T2:41:11Z</time></trkpt>
<trkpt lat="44.635832123458385" lon="5.293429596349597"><ele></ele><time>2015-2-3T2:41:14Z</time></trkpt>
<trkpt lat="44.635527525097132" lon="5.293974587693811"><ele></ele><time>2015-2-3T2:41:17Z</time></trkpt>
<trkpt lat="44.635527106001973" lon="5.294661652296782"><ele></ele><time>2015-2-3T2:41:20Z</time></trkpt>
<trkpt lat="44.635471198707819" lon="5.295301945880055"><ele></ele><time>2015-2-3T2:41:23Z</time></trkpt>
<trkpt lat="44.635254694148898" lon="5.295928074046969"><ele></ele><time>2015-2-3T2:41:26Z</time></trkpt>
<trkpt lat="44.634854039177299" lon="5.296294027939439"><ele></ele><time>2015-2-3T2:41:29Z</time></trkpt>
<trkpt lat="44.634381970390677" lon="5.296375248581171"><ele></ele><time>2015-2-3T2:41:32Z</time></trkpt>
<trkpt lat="44.633884923532605" lon="5.296346917748451"><ele></ele><time>2015-2-3T2:41:35Z</time></trkpt>
<trkpt lat="44.633444370701909" lon="5.296210628002882"><ele></ele><time>2015-2-3T2:41:38Z</time></trkpt>
<trkpt lat="44.632982695475221" lon="5.295998817309737"><ele></ele><time>2015-2-3T2:41:41Z</time></trkpt>
<trkpt lat="44.632521104067564" lon="5.296036368235946"><ele></ele><time>2015-2-3T2:41:44Z</time></trkpt>
<trkpt lat="44.632070660591125" lon="5.296284975484014"><ele></ele><time>2015-2-3T2:41:47Z</time></trkpt>
<trkpt lat="44.63162331841886" lon="5.296560069546104"><ele></ele><time>2015-2-3T2:41:50Z</time></trkpt>
<trkpt lat="44.631327940151095" lon="5.297034233808518"><ele></ele><time>2015-2-3T2:41:53Z</time></trkpt>
<trkpt lat="44.631234649568796" lon="5.29765248298645"><ele></ele><time>2015-2-3T2:41:56Z</time></trkpt>
<trkpt lat="44.631338501349092" lon="5.298297805711627"><ele></ele><time>2015-2-3T2:41:59Z</time></trkpt>
<trkpt lat="44.631546875461936" lon="5.298931058496237"><ele></ele><time>2015-2-3T2:42:2Z</time></trkpt>
<trkpt lat="44.63155341334641" lon="5.299582164734602"><ele></ele><time>2015-2-3T2:42:5Z</time></trkpt>
<trkpt lat="44.631456015631557" lon="5.300252549350262"><ele></ele><time>2015-2-3T2:42:8Z</time></trkpt>
<trkpt lat="44.631355600431561" lon="5.300904493778944"><ele></ele><time>2015-2-3T2:42:11Z</time></trkpt>
<trkpt lat="44.631233308464289" lon="5.301586696878076"><ele></ele><time>2015-2-3T2:42:14Z</time></trkpt>
<trkpt lat="44.630901385098696" lon="5.302040660753846"><ele></ele><time>2015-2-3T2:42:17Z</time></trkpt>
<trkpt lat="44.630443062633276" lon="5.302129425108433"><ele></ele><time>2015-2-3T2:42:20Z</time></trkpt>
<trkpt lat="44.629974598065019" lon="5.302217518910766"><ele></ele><time>2015-2-3T2:42:23Z</time></trkpt>
<trkpt lat="44.629528177902102" lon="5.302330506965518"><ele></ele><time>2015-2-3T2:42:26Z</time></trkpt>
<trkpt lat="44.629059713333845" lon="5.302505018189549"><ele></ele><time>2015-2-3T2:42:29Z</time></trkpt>
<trkpt lat="44.628609688952565" lon="5.302439471706748"><ele></ele><time>2015-2-3T2:42:32Z</time></trkpt>
<trkpt lat="44.628273993730545" lon="5.30290181748569"><ele></ele><time>2015-2-3T2:42:35Z</time></trkpt>
<trkpt lat="44.628000408411026" lon="5.303451586514711"><ele></ele><time>2015-2-3T2:42:38Z</time></trkpt>
<trkpt lat="44.627717267721891" lon="5.303535908460617"><ele></ele><time>2015-2-3T2:42:41Z</time></trkpt>
<trkpt lat="44.627443179488182" lon="5.303020756691694"><ele></ele><time>2015-2-3T2:42:44Z</time></trkpt>
<trkpt lat="44.626991730183363" lon="5.302843814715743"><ele></ele><time>2015-2-3T2:42:47Z</time></trkpt>
<trkpt lat="44.626541286706924" lon="5.302813053131104"><ele></ele><time>2015-2-3T2:42:50Z</time></trkpt>
<trkpt lat="44.626091346144676" lon="5.302791427820921"><ele></ele><time>2015-2-3T2:42:53Z</time></trkpt>
<trkpt lat="44.625850953161716" lon="5.303275818005204"><ele></ele><time>2015-2-3T2:42:56Z</time></trkpt>
<trkpt lat="44.625592706725001" lon="5.303801950067282"><ele></ele><time>2015-2-3T2:42:59Z</time></trkpt>
<trkpt lat="44.625296825543046" lon="5.304293883964419"><ele></ele><time>2015-2-3T2:43:2Z</time></trkpt>
<trkpt lat="44.625074286013842" lon="5.304842730984092"><ele></ele><time>2015-2-3T2:43:5Z</time></trkpt>
<trkpt lat="44.624933889135718" lon="5.305459722876549"><ele></ele><time>2015-2-3T2:43:8Z</time></trkpt>
<trkpt lat="44.624691819772124" lon="5.306015778332949"><ele></ele><time>2015-2-3T2:43:11Z</time></trkpt>
<trkpt lat="44.624256547540426" lon="5.306214345619083"><ele></ele><time>2015-2-3T2:43:14Z</time></trkpt>
<trkpt lat="44.623834183439612" lon="5.306416349485517"><ele></ele><time>2015-2-3T2:43:17Z</time></trkpt>
<trkpt lat="44.623400839045644" lon="5.306521877646446"><ele></ele><time>2015-2-3T2:43:20Z</time></trkpt>
<trkpt lat="44.62301904335618" lon="5.30613505281508"><ele></ele><time>2015-2-3T2:43:23Z</time></trkpt>
<trkpt lat="44.622583938762546" lon="5.305878566578031"><ele></ele><time>2015-2-3T2:43:26Z</time></trkpt>
<trkpt lat="44.622137937694788" lon="5.305673461407423"><ele></ele><time>2015-2-3T2:43:29Z</time></trkpt>
<trkpt lat="44.621683219447732" lon="5.305523509159684"><ele></ele><time>2015-2-3T2:43:32Z</time></trkpt>
<trkpt lat="44.621217856183648" lon="5.305537255480886"><ele></ele><time>2015-2-3T2:43:35Z</time></trkpt>
<trkpt lat="44.620746793225408" lon="5.30555360019207"><ele></ele><time>2015-2-3T2:43:38Z</time></trkpt>
<trkpt lat="44.620304312556982" lon="5.305625852197409"><ele></ele><time>2015-2-3T2:43:41Z</time></trkpt>
<trkpt lat="44.619855713099241" lon="5.305549576878548"><ele></ele><time>2015-2-3T2:43:44Z</time></trkpt>
<trkpt lat="44.619444664567709" lon="5.305299460887909"><ele></ele><time>2015-2-3T2:43:47Z</time></trkpt>
<trkpt lat="44.619053062051535" lon="5.305023193359375"><ele></ele><time>2015-2-3T2:43:50Z</time></trkpt>
<trkpt lat="44.619465284049511" lon="5.304743908345699"><ele></ele><time>2015-2-3T2:43:53Z</time></trkpt>
<trkpt lat="44.619874404743314" lon="5.304444506764412"><ele></ele><time>2015-2-3T2:43:56Z</time></trkpt>
<trkpt lat="44.620309257879853" lon="5.304140578955412"><ele></ele><time>2015-2-3T2:43:59Z</time></trkpt>
<trkpt lat="44.620619639754295" lon="5.303659038618207"><ele></ele><time>2015-2-3T2:44:2Z</time></trkpt>
<trkpt lat="44.620848214253783" lon="5.30307968147099"><ele></ele><time>2015-2-3T2:44:5Z</time></trkpt>
<trkpt lat="44.620815524831414" lon="5.302456570789218"><ele></ele><time>2015-2-3T2:44:8Z</time></trkpt>
<trkpt lat="44.620671859011054" lon="5.301783503964543"><ele></ele><time>2015-2-3T2:44:11Z</time></trkpt>
<trkpt lat="44.620522577315569" lon="5.301179587841034"><ele></ele><time>2015-2-3T2:44:14Z</time></trkpt>
<trkpt lat="44.620279334485531" lon="5.300602661445737"><ele></ele><time>2015-2-3T2:44:17Z</time></trkpt>
<trkpt lat="44.62022116407752" lon="5.299995727837086"><ele></ele><time>2015-2-3T2:44:20Z</time></trkpt>
<trkpt lat="44.620302049443126" lon="5.299327522516251"><ele></ele><time>2015-2-3T2:44:23Z</time></trkpt>
<trkpt lat="44.620465496554971" lon="5.298741795122623"><ele></ele><time>2015-2-3T2:44:26Z</time></trkpt>
<trkpt lat="44.620937649160624" lon="5.298718828707933"><ele></ele><time>2015-2-3T2:44:29Z</time></trkpt>
<trkpt lat="44.621372502297163" lon="5.298483548685908"><ele></ele><time>2015-2-3T2:44:32Z</time></trkpt>
<trkpt lat="44.621739713475108" lon="5.298122121021152"><ele></ele><time>2015-2-3T2:44:35Z</time></trkpt>
<trkpt lat="44.62174273096025" lon="5.297476463019848"><ele></ele><time>2015-2-3T2:44:38Z</time></trkpt>
<trkpt lat="44.621772235259414" lon="5.296841617673636"><ele></ele><time>2015-2-3T2:44:41Z</time></trkpt>
<trkpt lat="44.621560256928205" lon="5.29629654251039"><ele></ele><time>2015-2-3T2:44:44Z</time></trkpt>
<trkpt lat="44.621154824271798" lon="5.296533415094018"><ele></ele><time>2015-2-3T2:44:47Z</time></trkpt>
<trkpt lat="44.620748804882169" lon="5.296400645747781"><ele></ele><time>2015-2-3T2:44:50Z</time></trkpt>
<trkpt lat="44.620390059426427" lon="5.295972414314747"><ele></ele><time>2015-2-3T2:44:53Z</time></trkpt>
<trkpt lat="44.619928132742643" lon="5.295884739607573"><ele></ele><time>2015-2-3T2:44:56Z</time></trkpt>
<trkpt lat="44.619467379525304" lon="5.29604097828269"><ele></ele><time>2015-2-3T2:44:59Z</time></trkpt>
<trkpt lat="44.619083739817142" lon="5.296363430097699"><ele></ele><time>2015-2-3T2:45:2Z</time></trkpt>
<trkpt lat="44.618754833936691" lon="5.296185817569494"><ele></ele><time>2015-2-3T2:45:5Z</time></trkpt>
<trkpt lat="44.618662633001804" lon="5.295525658875704"><ele></ele><time>2015-2-3T2:45:8Z</time></trkpt>
<trkpt lat="44.618518212810159" lon="5.294823423027992"><ele></ele><time>2015-2-3T2:45:11Z</time></trkpt>
<trkpt lat="44.618460377678275" lon="5.294156977906823"><ele></ele><time>2015-2-3T2:45:14Z</time></trkpt>
<trkpt lat="44.618437495082617" lon="5.293538644909859"><ele></ele><time>2015-2-3T2:45:17Z</time></trkpt>
<trkpt lat="44.618065003305674" lon="5.293671246618033"><ele></ele><time>2015-2-3T2:45:20Z</time></trkpt>
<trkpt lat="44.617701396346092" lon="5.294177262112498"><ele></ele><time>2015-2-3T2:45:23Z</time></trkpt>
<trkpt lat="44.617299484089017" lon="5.294498121365905"><ele></ele><time>2015-2-3T2:45:26Z</time></trkpt>
<trkpt lat="44.616919364780188" lon="5.294866003096104"><ele></ele><time>2015-2-3T2:45:29Z</time></trkpt>
<trkpt lat="44.616552824154496" lon="5.294627286493778"><ele></ele><time>2015-2-3T2:45:32Z</time></trkpt>
<trkpt lat="44.616295918822289" lon="5.294029824435711"><ele></ele><time>2015-2-3T2:45:35Z</time></trkpt>
<trkpt lat="44.615889564156532" lon="5.293688010424376"><ele></ele><time>2015-2-3T2:45:38Z</time></trkpt>
<trkpt lat="44.615425877273083" lon="5.293611735105515"><ele></ele><time>2015-2-3T2:45:41Z</time></trkpt>
<trkpt lat="44.614958921447396" lon="5.293437140062451"><ele></ele><time>2015-2-3T2:45:44Z</time></trkpt>
<trkpt lat="44.614507975056767" lon="5.293613160029054"><ele></ele><time>2015-2-3T2:45:47Z</time></trkpt>
<trkpt lat="44.614077396690845" lon="5.293869394809008"><ele></ele><time>2015-2-3T2:45:50Z</time></trkpt>
<trkpt lat="44.613621672615409" lon="5.294044325128198"><ele></ele><time>2015-2-3T2:45:53Z</time></trkpt>
<trkpt lat="44.613158823922276" lon="5.293980203568935"><ele></ele><time>2015-2-3T2:45:56Z</time></trkpt>
<trkpt lat="44.612723719328642" lon="5.29380208812654"><ele></ele><time>2015-2-3T2:45:59Z</time></trkpt>
<trkpt lat="44.612208986654878" lon="5.293707875534892"><ele></ele><time>2015-2-3T2:46:2Z</time></trkpt>
<trkpt lat="44.611761812120676" lon="5.293822204694152"><ele></ele><time>2015-2-3T2:46:5Z</time></trkpt>
<trkpt lat="44.61131639778614" lon="5.293980455026031"><ele></ele><time>2015-2-3T2:46:8Z</time></trkpt>
<trkpt lat="44.610835025086999" lon="5.293805943801999"><ele></ele><time>2015-2-3T2:46:11Z</time></trkpt>
<trkpt lat="44.610361028462648" lon="5.293544512242079"><ele></ele><time>2015-2-3T2:46:14Z</time></trkpt>
<trkpt lat="44.609887199476361" lon="5.29330562800169"><ele></ele><time>2015-2-3T2:46:17Z</time></trkpt>
<trkpt lat="44.609361235052347" lon="5.293231196701527"><ele></ele><time>2015-2-3T2:46:20Z</time></trkpt>
<trkpt lat="44.609029395505786" lon="5.292691569775343"><ele></ele><time>2015-2-3T2:46:23Z</time></trkpt>
<trkpt lat="44.608585489913821" lon="5.292430724948645"><ele></ele><time>2015-2-3T2:46:26Z</time></trkpt>
<trkpt lat="44.608193887397647" lon="5.292115900665522"><ele></ele><time>2015-2-3T2:46:29Z</time></trkpt>
<trkpt lat="44.607990961521864" lon="5.291906520724297"><ele></ele><time>2015-2-3T2:46:32Z</time></trkpt>
<trkpt lat="44.608203358948231" lon="5.291408970952034"><ele></ele><time>2015-2-3T2:46:35Z</time></trkpt>
<trkpt lat="44.608096489682794" lon="5.290804803371429"><ele></ele><time>2015-2-3T2:46:38Z</time></trkpt>
<trkpt lat="44.607687201350927" lon="5.290539767593145"><ele></ele><time>2015-2-3T2:46:41Z</time></trkpt>
<trkpt lat="44.607260227203369" lon="5.290278168395162"><ele></ele><time>2015-2-3T2:46:44Z</time></trkpt>
<trkpt lat="44.606895949691534" lon="5.289875837042928"><ele></ele><time>2015-2-3T2:46:47Z</time></trkpt>
<trkpt lat="44.606554303318262" lon="5.289402510970831"><ele></ele><time>2015-2-3T2:46:50Z</time></trkpt>
<trkpt lat="44.60620385594666" lon="5.288958353921771"><ele></ele><time>2015-2-3T2:46:53Z</time></trkpt>
<trkpt lat="44.605851145461202" lon="5.288464240729809"><ele></ele><time>2015-2-3T2:46:56Z</time></trkpt>
<trkpt lat="44.605428278446198" lon="5.288145644590259"><ele></ele><time>2015-2-3T2:46:59Z</time></trkpt>
<trkpt lat="44.605008596554399" lon="5.287889745086432"><ele></ele><time>2015-2-3T2:47:2Z</time></trkpt>
<trkpt lat="44.60459528490901" lon="5.287596797570586"><ele></ele><time>2015-2-3T2:47:5Z</time></trkpt>
<trkpt lat="44.604105865582824" lon="5.287590846419334"><ele></ele><time>2015-2-3T2:47:8Z</time></trkpt>
<trkpt lat="44.603615775704384" lon="5.287745660170913"><ele></ele><time>2015-2-3T2:47:11Z</time></trkpt>
<trkpt lat="44.603149490430951" lon="5.287583721801639"><ele></ele><time>2015-2-3T2:47:14Z</time></trkpt>
<trkpt lat="44.602701393887401" lon="5.287365457043052"><ele></ele><time>2015-2-3T2:47:17Z</time></trkpt>
<trkpt lat="44.602253967896104" lon="5.287020206451416"><ele></ele><time>2015-2-3T2:47:20Z</time></trkpt>
<trkpt lat="44.601841578260064" lon="5.28676975518465"><ele></ele><time>2015-2-3T2:47:23Z</time></trkpt>
<trkpt lat="44.601763291284442" lon="5.286150081083179"><ele></ele><time>2015-2-3T2:47:26Z</time></trkpt>
<trkpt lat="44.601718951016665" lon="5.285512050613761"><ele></ele><time>2015-2-3T2:47:29Z</time></trkpt>
<trkpt lat="44.601392475888133" lon="5.285111563280225"><ele></ele><time>2015-2-3T2:47:32Z</time></trkpt>
<trkpt lat="44.600930633023381" lon="5.285078790038824"><ele></ele><time>2015-2-3T2:47:35Z</time></trkpt>
<trkpt lat="44.600467197597027" lon="5.285154646262527"><ele></ele><time>2015-2-3T2:47:38Z</time></trkpt>
<trkpt lat="44.600023375824094" lon="5.285059344023466"><ele></ele><time>2015-2-3T2:47:41Z</time></trkpt>
<trkpt lat="44.599714921787381" lon="5.284586939960718"><ele></ele><time>2015-2-3T2:47:44Z</time></trkpt>
<trkpt lat="44.599277386441827" lon="5.284504545852542"><ele></ele><time>2015-2-3T2:47:47Z</time></trkpt>
<trkpt lat="44.598839683458209" lon="5.284708980470896"><ele></ele><time>2015-2-3T2:47:50Z</time></trkpt>
<trkpt lat="44.598444225266576" lon="5.285055572167039"><ele></ele><time>2015-2-3T2:47:53Z</time></trkpt>
<trkpt lat="44.598080618306994" lon="5.285287499427795"><ele></ele><time>2015-2-3T2:47:56Z</time></trkpt>
<trkpt lat="44.597605699673295" lon="5.285101840272546"><ele></ele><time>2015-2-3T2:47:59Z</time></trkpt>
<trkpt lat="44.597133044153452" lon="5.284862369298935"><ele></ele><time>2015-2-3T2:48:2Z</time></trkpt>
<trkpt lat="44.596702884882689" lon="5.284527093172073"><ele></ele><time>2015-2-3T2:48:5Z</time></trkpt>
<trkpt lat="44.596272641792893" lon="5.284203048795462"><ele></ele><time>2015-2-3T2:48:8Z</time></trkpt>
<trkpt lat="44.59584784694016" lon="5.283862072974443"><ele></ele><time>2015-2-3T2:48:11Z</time></trkpt>
<trkpt lat="44.595516594126821" lon="5.283411964774132"><ele></ele><time>2015-2-3T2:48:14Z</time></trkpt>
<trkpt lat="44.595252480357885" lon="5.282880216836929"><ele></ele><time>2015-2-3T2:48:17Z</time></trkpt>
<trkpt lat="44.595045782625675" lon="5.282308738678694"><ele></ele><time>2015-2-3T2:48:20Z</time></trkpt>
<trkpt lat="44.594849310815334" lon="5.281732399016619"><ele></ele><time>2015-2-3T2:48:23Z</time></trkpt>
<trkpt lat="44.594560889527202" lon="5.281259072944522"><ele></ele><time>2015-2-3T2:48:26Z</time></trkpt>
<trkpt lat="44.594213711097836" lon="5.280785914510489"><ele></ele><time>2015-2-3T2:48:29Z</time></trkpt>
<trkpt lat="44.59404137916863" lon="5.280151572078466"><ele></ele><time>2015-2-3T2:48:32Z</time></trkpt>
<trkpt lat="44.594066692516208" lon="5.279567437246442"><ele></ele><time>2015-2-3T2:48:35Z</time></trkpt>
<trkpt lat="44.593856809660792" lon="5.279072737321258"><ele></ele><time>2015-2-3T2:48:38Z</time></trkpt>
<trkpt lat="44.593396559357643" lon="5.278824549168348"><ele></ele><time>2015-2-3T2:48:41Z</time></trkpt>
<trkpt lat="44.592986181378365" lon="5.278577534481883"><ele></ele><time>2015-2-3T2:48:44Z</time></trkpt>
<trkpt lat="44.592599608004093" lon="5.278266230598092"><ele></ele><time>2015-2-3T2:48:47Z</time></trkpt>
<trkpt lat="44.592135082930326" lon="5.278080152347684"><ele></ele><time>2015-2-3T2:48:50Z</time></trkpt>
<trkpt lat="44.591915477067232" lon="5.277518313378096"><ele></ele><time>2015-2-3T2:48:53Z</time></trkpt>
<trkpt lat="44.591580536216497" lon="5.277099972590804"><ele></ele><time>2015-2-3T2:48:56Z</time></trkpt>
<trkpt lat="44.591148952022195" lon="5.276856562122703"><ele></ele><time>2015-2-3T2:48:59Z</time></trkpt>
<trkpt lat="44.590677805244923" lon="5.276666712015867"><ele></ele><time>2015-2-3T2:49:2Z</time></trkpt>
<trkpt lat="44.590227110311389" lon="5.276626562699676"><ele></ele><time>2015-2-3T2:49:5Z</time></trkpt>
<trkpt lat="44.589759400114417" lon="5.27651290409267"><ele></ele><time>2015-2-3T2:49:8Z</time></trkpt>
<trkpt lat="44.589306777343154" lon="5.276372926309705"><ele></ele><time>2015-2-3T2:49:11Z</time></trkpt>
<trkpt lat="44.588831691071391" lon="5.276351971551776"><ele></ele><time>2015-2-3T2:49:14Z</time></trkpt>
<trkpt lat="44.588352162390947" lon="5.276479544118047"><ele></ele><time>2015-2-3T2:49:17Z</time></trkpt>
<trkpt lat="44.587895767763257" lon="5.276646008715034"><ele></ele><time>2015-2-3T2:49:20Z</time></trkpt>
<trkpt lat="44.587423447519541" lon="5.276691354811192"><ele></ele><time>2015-2-3T2:49:23Z</time></trkpt>
<trkpt lat="44.586947271600366" lon="5.276772743090987"><ele></ele><time>2015-2-3T2:49:26Z</time></trkpt>
<trkpt lat="44.58648769184947" lon="5.276888497173786"><ele></ele><time>2015-2-3T2:49:29Z</time></trkpt>
<trkpt lat="44.586024256423116" lon="5.276997461915016"><ele></ele><time>2015-2-3T2:49:32Z</time></trkpt>
<trkpt lat="44.585585463792086" lon="5.277135511860251"><ele></ele><time>2015-2-3T2:49:35Z</time></trkpt>
<trkpt lat="44.585107862949371" lon="5.277245482429862"><ele></ele><time>2015-2-3T2:49:38Z</time></trkpt>
<trkpt lat="44.584629088640213" lon="5.277263922616839"><ele></ele><time>2015-2-3T2:49:41Z</time></trkpt>
<trkpt lat="44.584154086187482" lon="5.277303652837873"><ele></ele><time>2015-2-3T2:49:44Z</time></trkpt>
<trkpt lat="44.583684280514717" lon="5.277324356138706"><ele></ele><time>2015-2-3T2:49:47Z</time></trkpt>
<trkpt lat="44.583239955827594" lon="5.277514038607478"><ele></ele><time>2015-2-3T2:49:50Z</time></trkpt>
<trkpt lat="44.582817675545812" lon="5.277248416095972"><ele></ele><time>2015-2-3T2:49:53Z</time></trkpt>
<trkpt lat="44.582414170727134" lon="5.27684424072504"><ele></ele><time>2015-2-3T2:49:56Z</time></trkpt>
<trkpt lat="44.581958195194602" lon="5.276627149432898"><ele></ele><time>2015-2-3T2:49:59Z</time></trkpt>
<trkpt lat="44.581478247419" lon="5.276647014543414"><ele></ele><time>2015-2-3T2:50:2Z</time></trkpt>
<trkpt lat="44.581035431474447" lon="5.27680023573339"><ele></ele><time>2015-2-3T2:50:5Z</time></trkpt>
<trkpt lat="44.580579120665789" lon="5.276887156069279"><ele></ele><time>2015-2-3T2:50:8Z</time></trkpt>
<trkpt lat="44.580112667754292" lon="5.276891430839896"><ele></ele><time>2015-2-3T2:50:11Z</time></trkpt>
<trkpt lat="44.57963808439672" lon="5.276767211034894"><ele></ele><time>2015-2-3T2:50:14Z</time></trkpt>
<trkpt lat="44.579189736396074" lon="5.276803588494659"><ele></ele><time>2015-2-3T2:50:17Z</time></trkpt>
<trkpt lat="44.578761253505945" lon="5.277035096660256"><ele></ele><time>2015-2-3T2:50:20Z</time></trkpt>
<trkpt lat="44.578324807807803" lon="5.277197286486626"><ele></ele><time>2015-2-3T2:50:23Z</time></trkpt>
<trkpt lat="44.577871598303318" lon="5.277113132178783"><ele></ele><time>2015-2-3T2:50:26Z</time></trkpt>
<trkpt lat="44.577515367418528" lon="5.27671767398715"><ele></ele><time>2015-2-3T2:50:29Z</time></trkpt>
<trkpt lat="44.577207583934069" lon="5.276205455884337"><ele></ele><time>2015-2-3T2:50:32Z</time></trkpt>
<trkpt lat="44.576893430203199" lon="5.275732884183526"><ele></ele><time>2015-2-3T2:50:35Z</time></trkpt>
<trkpt lat="44.576440555974841" lon="5.275684604421258"><ele></ele><time>2015-2-3T2:50:38Z</time></trkpt>
<trkpt lat="44.575997488573194" lon="5.27578242123127"><ele></ele><time>2015-2-3T2:50:41Z</time></trkpt>
<trkpt lat="44.575525671243668" lon="5.275992387905717"><ele></ele><time>2015-2-3T2:50:44Z</time></trkpt>
<trkpt lat="44.575075730681419" lon="5.276141837239265"><ele></ele><time>2015-2-3T2:50:47Z</time></trkpt>
<trkpt lat="44.574597207829356" lon="5.276135466992855"><ele></ele><time>2015-2-3T2:50:50Z</time></trkpt>
<trkpt lat="44.574155900627375" lon="5.276004793122411"><ele></ele><time>2015-2-3T2:50:53Z</time></trkpt>
<trkpt lat="44.57369782961905" lon="5.275788875296712"><ele></ele><time>2015-2-3T2:50:56Z</time></trkpt>
<trkpt lat="44.573227604851127" lon="5.275656608864665"><ele></ele><time>2015-2-3T2:50:59Z</time></trkpt>
<trkpt lat="44.572745561599731" lon="5.27547363191843"><ele></ele><time>2015-2-3T2:51:2Z</time></trkpt>
<trkpt lat="44.572284640744328" lon="5.275295684114099"><ele></ele><time>2015-2-3T2:51:5Z</time></trkpt>
<trkpt lat="44.571828665211797" lon="5.275223767384887"><ele></ele><time>2015-2-3T2:51:8Z</time></trkpt>
<trkpt lat="44.571357350796461" lon="5.275173308327794"><ele></ele><time>2015-2-3T2:51:11Z</time></trkpt>
<trkpt lat="44.570884611457586" lon="5.275085801258683"><ele></ele><time>2015-2-3T2:51:14Z</time></trkpt>
<trkpt lat="44.570436766371131" lon="5.274972477927804"><ele></ele><time>2015-2-3T2:51:17Z</time></trkpt>
<trkpt lat="44.570344900712371" lon="5.275580417364836"><ele></ele><time>2015-2-3T2:51:20Z</time></trkpt>
<trkpt lat="44.570266529917717" lon="5.276225237175822"><ele></ele><time>2015-2-3T2:51:23Z</time></trkpt>
<trkpt lat="44.569852547720075" lon="5.276224063709378"><ele></ele><time>2015-2-3T2:51:26Z</time></trkpt>
<trkpt lat="44.569518696516752" lon="5.276121804490686"><ele></ele><time>2015-2-3T2:51:29Z</time></trkpt>
<trkpt lat="44.56987970508635" lon="5.275877388194203"><ele></ele><time>2015-2-3T2:51:32Z</time></trkpt>
<trkpt lat="44.569774931296706" lon="5.275565078482032"><ele></ele><time>2015-2-3T2:51:35Z</time></trkpt>
<trkpt lat="44.569540908560157" lon="5.276031447574496"><ele></ele><time>2015-2-3T2:51:38Z</time></trkpt>
<trkpt lat="44.569120053201914" lon="5.276261866092682"><ele></ele><time>2015-2-3T2:51:41Z</time></trkpt>
<trkpt lat="44.568811599165201" lon="5.276718176901341"><ele></ele><time>2015-2-3T2:51:44Z</time></trkpt>
<trkpt lat="44.568812604993582" lon="5.277251349762082"><ele></ele><time>2015-2-3T2:51:47Z</time></trkpt>
<trkpt lat="44.568847725167871" lon="5.277580004185438"><ele></ele><time>2015-2-3T2:51:50Z</time></trkpt>
<trkpt lat="44.568606242537498" lon="5.277221174910665"><ele></ele><time>2015-2-3T2:51:53Z</time></trkpt>
<trkpt lat="44.56821396946907" lon="5.277552930638194"><ele></ele><time>2015-2-3T2:51:56Z</time></trkpt>
<trkpt lat="44.567812979221344" lon="5.277914945036173"><ele></ele><time>2015-2-3T2:51:59Z</time></trkpt>
<trkpt lat="44.567419867962599" lon="5.278262458741665"><ele></ele><time>2015-2-3T2:52:2Z</time></trkpt>
<trkpt lat="44.567049220204353" lon="5.278649451211095"><ele></ele><time>2015-2-3T2:52:5Z</time></trkpt>
<trkpt lat="44.566728612408042" lon="5.27912269346416"><ele></ele><time>2015-2-3T2:52:8Z</time></trkpt>
<trkpt lat="44.566599279642105" lon="5.279788048937917"><ele></ele><time>2015-2-3T2:52:11Z</time></trkpt>
<trkpt lat="44.56641336902976" lon="5.280419960618019"><ele></ele><time>2015-2-3T2:52:14Z</time></trkpt>
<trkpt lat="44.566172724589705" lon="5.280969059094787"><ele></ele><time>2015-2-3T2:52:17Z</time></trkpt>
<trkpt lat="44.565849853679538" lon="5.281455796211958"><ele></ele><time>2015-2-3T2:52:20Z</time></trkpt>
<trkpt lat="44.565492952242494" lon="5.281871203333139"><ele></ele><time>2015-2-3T2:52:23Z</time></trkpt>
<trkpt lat="44.565035635605454" lon="5.282047977671027"><ele></ele><time>2015-2-3T2:52:26Z</time></trkpt>
<trkpt lat="44.564617546275258" lon="5.282263727858663"><ele></ele><time>2015-2-3T2:52:29Z</time></trkpt>
<trkpt lat="44.5641422085464" lon="5.282312761992216"><ele></ele><time>2015-2-3T2:52:32Z</time></trkpt>
<trkpt lat="44.563686903566122" lon="5.282263141125441"><ele></ele><time>2015-2-3T2:52:35Z</time></trkpt>
<trkpt lat="44.563242997974157" lon="5.282423319295049"><ele></ele><time>2015-2-3T2:52:38Z</time></trkpt>
<trkpt lat="44.56279163248837" lon="5.282526668161154"><ele></ele><time>2015-2-3T2:52:41Z</time></trkpt>
<trkpt lat="44.562333142384887" lon="5.282591795548797"><ele></ele><time>2015-2-3T2:52:44Z</time></trkpt>
<trkpt lat="44.561889069154859" lon="5.282775359228253"><ele></ele><time>2015-2-3T2:52:47Z</time></trkpt>
<trkpt lat="44.561499981209636" lon="5.283115161582828"><ele></ele><time>2015-2-3T2:52:50Z</time></trkpt>
<trkpt lat="44.56113662570715" lon="5.283495197072625"><ele></ele><time>2015-2-3T2:52:53Z</time></trkpt>
<trkpt lat="44.560813838616014" lon="5.283954106271267"><ele></ele><time>2015-2-3T2:52:56Z</time></trkpt>
<trkpt lat="44.560502618551254" lon="5.284483171999455"><ele></ele><time>2015-2-3T2:52:59Z</time></trkpt>
<trkpt lat="44.560106238350272" lon="5.284804534167051"><ele></ele><time>2015-2-3T2:53:2Z</time></trkpt>
<trkpt lat="44.559702901169658" lon="5.284892292693257"><ele></ele><time>2015-2-3T2:53:5Z</time></trkpt>
<trkpt lat="44.559272741898894" lon="5.285076610744"><ele></ele><time>2015-2-3T2:53:8Z</time></trkpt>
<trkpt lat="44.558817101642489" lon="5.285058170557022"><ele></ele><time>2015-2-3T2:53:11Z</time></trkpt>
<trkpt lat="44.558346541598439" lon="5.284953312948346"><ele></ele><time>2015-2-3T2:53:14Z</time></trkpt>
<trkpt lat="44.557914538308978" lon="5.284600351005793"><ele></ele><time>2015-2-3T2:53:17Z</time></trkpt>
<trkpt lat="44.55748270265758" lon="5.284333722665906"><ele></ele><time>2015-2-3T2:53:20Z</time></trkpt>
<trkpt lat="44.557053800672293" lon="5.284131383523345"><ele></ele><time>2015-2-3T2:53:23Z</time></trkpt>
<trkpt lat="44.556619953364134" lon="5.283791748806834"><ele></ele><time>2015-2-3T2:53:26Z</time></trkpt>
<trkpt lat="44.556219968944788" lon="5.283417580649257"><ele></ele><time>2015-2-3T2:53:29Z</time></trkpt>
<trkpt lat="44.555813949555159" lon="5.283048776909709"><ele></ele><time>2015-2-3T2:53:32Z</time></trkpt>
<trkpt lat="44.555423352867365" lon="5.282725319266319"><ele></ele><time>2015-2-3T2:53:35Z</time></trkpt>
<trkpt lat="44.555005012080073" lon="5.282370178028941"><ele></ele><time>2015-2-3T2:53:38Z</time></trkpt>
<trkpt lat="44.55458021722734" lon="5.282020233571529"><ele></ele><time>2015-2-3T2:53:41Z</time></trkpt>
<trkpt lat="44.554128097370267" lon="5.282002715393901"><ele></ele><time>2015-2-3T2:53:44Z</time></trkpt>
<trkpt lat="44.553678659722209" lon="5.282226596027613"><ele></ele><time>2015-2-3T2:53:47Z</time></trkpt>
<trkpt lat="44.553247829899192" lon="5.282460367307067"><ele></ele><time>2015-2-3T2:53:50Z</time></trkpt>
<trkpt lat="44.552809791639447" lon="5.282642086967826"><ele></ele><time>2015-2-3T2:53:53Z</time></trkpt>
<trkpt lat="44.552310649305582" lon="5.282783573493362"><ele></ele><time>2015-2-3T2:53:56Z</time></trkpt>
<trkpt lat="44.551829025149345" lon="5.282901003956795"><ele></ele><time>2015-2-3T2:53:59Z</time></trkpt>
<trkpt lat="44.551365673542023" lon="5.282928831875324"><ele></ele><time>2015-2-3T2:54:2Z</time></trkpt>
<trkpt lat="44.550876757130027" lon="5.282991863787174"><ele></ele><time>2015-2-3T2:54:5Z</time></trkpt>
<trkpt lat="44.550411645323038" lon="5.283127231523395"><ele></ele><time>2015-2-3T2:54:8Z</time></trkpt>
<trkpt lat="44.549962459132075" lon="5.283023379743099"><ele></ele><time>2015-2-3T2:54:11Z</time></trkpt>
<trkpt lat="44.549479577690363" lon="5.282985912635922"><ele></ele><time>2015-2-3T2:54:14Z</time></trkpt>
<trkpt lat="44.549013124778867" lon="5.282942913472652"><ele></ele><time>2015-2-3T2:54:17Z</time></trkpt>
<trkpt lat="44.54853736795485" lon="5.282920533791184"><ele></ele><time>2015-2-3T2:54:20Z</time></trkpt>
<trkpt lat="44.548072842881083" lon="5.282871834933758"><ele></ele><time>2015-2-3T2:54:23Z</time></trkpt>
<trkpt lat="44.547622902318835" lon="5.282837804406881"><ele></ele><time>2015-2-3T2:54:26Z</time></trkpt>
<trkpt lat="44.5471515879035" lon="5.282889436930418"><ele></ele><time>2015-2-3T2:54:29Z</time></trkpt>
<trkpt lat="44.5467025693506" lon="5.283047687262297"><ele></ele><time>2015-2-3T2:54:32Z</time></trkpt>
<trkpt lat="44.546258663758636" lon="5.283043244853616"><ele></ele><time>2015-2-3T2:54:35Z</time></trkpt>
<trkpt lat="44.545761868357658" lon="5.282997228205204"><ele></ele><time>2015-2-3T2:54:38Z</time></trkpt>
<trkpt lat="44.545305138453841" lon="5.283096805214882"><ele></ele><time>2015-2-3T2:54:41Z</time></trkpt>
<trkpt lat="44.544842205941677" lon="5.283062858507037"><ele></ele><time>2015-2-3T2:54:44Z</time></trkpt>
<trkpt lat="44.544363180175424" lon="5.283013489097357"><ele></ele><time>2015-2-3T2:54:47Z</time></trkpt>
<trkpt lat="44.543883483856916" lon="5.283083729445934"><ele></ele><time>2015-2-3T2:54:50Z</time></trkpt>
<trkpt lat="44.54342826269567" lon="5.283111808821559"><ele></ele><time>2015-2-3T2:54:53Z</time></trkpt>
<trkpt lat="44.542989553883672" lon="5.283307442441583"><ele></ele><time>2015-2-3T2:54:56Z</time></trkpt>
<trkpt lat="44.542559813708067" lon="5.283613884821534"><ele></ele><time>2015-2-3T2:54:59Z</time></trkpt>
<trkpt lat="44.542084559798241" lon="5.283498633652926"><ele></ele><time>2015-2-3T2:55:2Z</time></trkpt>
<trkpt lat="44.541647778823972" lon="5.283246338367462"><ele></ele><time>2015-2-3T2:55:5Z</time></trkpt>
<trkpt lat="44.541188450530171" lon="5.282980296760798"><ele></ele><time>2015-2-3T2:55:8Z</time></trkpt>
<trkpt lat="44.540704227983952" lon="5.282931346446276"><ele></ele><time>2015-2-3T2:55:11Z</time></trkpt>
<trkpt lat="44.540285049006343" lon="5.282668322324753"><ele></ele><time>2015-2-3T2:55:14Z</time></trkpt>
<trkpt lat="44.539863942191005" lon="5.282375877723098"><ele></ele><time>2015-2-3T2:55:17Z</time></trkpt>
<trkpt lat="44.53942053951323" lon="5.282297423109412"><ele></ele><time>2015-2-3T2:55:20Z</time></trkpt>
<trkpt lat="44.538976969197392" lon="5.282400520518422"><ele></ele><time>2015-2-3T2:55:23Z</time></trkpt>
<trkpt lat="44.538489477708936" lon="5.282415440306068"><ele></ele><time>2015-2-3T2:55:26Z</time></trkpt>
<trkpt lat="44.538002405315638" lon="5.282414853572846"><ele></ele><time>2015-2-3T2:55:29Z</time></trkpt>
<trkpt lat="44.537543999031186" lon="5.28237696737051"><ele></ele><time>2015-2-3T2:55:32Z</time></trkpt>
<trkpt lat="44.537103027105331" lon="5.282262973487377"><ele></ele><time>2015-2-3T2:55:35Z</time></trkpt>
<trkpt lat="44.536648811772466" lon="5.282032722607255"><ele></ele><time>2015-2-3T2:55:38Z</time></trkpt>
<trkpt lat="44.536195518448949" lon="5.281876064836979"><ele></ele><time>2015-2-3T2:55:41Z</time></trkpt>
<trkpt lat="44.535735184326768" lon="5.281817056238651"><ele></ele><time>2015-2-3T2:55:44Z</time></trkpt>
<trkpt lat="44.535279041156173" lon="5.281896432861686"><ele></ele><time>2015-2-3T2:55:47Z</time></trkpt>
<trkpt lat="44.534834381192923" lon="5.281916968524456"><ele></ele><time>2015-2-3T2:55:50Z</time></trkpt>
<trkpt lat="44.534464320167899" lon="5.281564425677061"><ele></ele><time>2015-2-3T2:55:53Z</time></trkpt>
<trkpt lat="44.534170785918832" lon="5.281046675518155"><ele></ele><time>2015-2-3T2:55:56Z</time></trkpt>
<trkpt lat="44.533936260268092" lon="5.280488273128867"><ele></ele><time>2015-2-3T2:55:59Z</time></trkpt>
<trkpt lat="44.533547423779964" lon="5.28019524179399"><ele></ele><time>2015-2-3T2:56:2Z</time></trkpt>
<trkpt lat="44.53306588344276" lon="5.280178897082806"><ele></ele><time>2015-2-3T2:56:5Z</time></trkpt>
<trkpt lat="44.532617535442114" lon="5.280246455222368"><ele></ele><time>2015-2-3T2:56:8Z</time></trkpt>
<trkpt lat="44.532151501625776" lon="5.280366651713848"><ele></ele><time>2015-2-3T2:56:11Z</time></trkpt>
<trkpt lat="44.531700303778052" lon="5.280172694474459"><ele></ele><time>2015-2-3T2:56:14Z</time></trkpt>
<trkpt lat="44.531246172264218" lon="5.280028777197003"><ele></ele><time>2015-2-3T2:56:17Z</time></trkpt>
<trkpt lat="44.530784161761403" lon="5.279866755008698"><ele></ele><time>2015-2-3T2:56:20Z</time></trkpt>
<trkpt lat="44.530316535383463" lon="5.279810260981321"><ele></ele><time>2015-2-3T2:56:23Z</time></trkpt>
<trkpt lat="44.529874725267291" lon="5.279776817187667"><ele></ele><time>2015-2-3T2:56:26Z</time></trkpt>
<trkpt lat="44.529619580134749" lon="5.279207350686193"><ele></ele><time>2015-2-3T2:56:29Z</time></trkpt>
<trkpt lat="44.529262846335769" lon="5.278835110366345"><ele></ele><time>2015-2-3T2:56:32Z</time></trkpt>
<trkpt lat="44.528824388980865" lon="5.278562698513269"><ele></ele><time>2015-2-3T2:56:35Z</time></trkpt>
<trkpt lat="44.528459021821618" lon="5.278193475678563"><ele></ele><time>2015-2-3T2:56:38Z</time></trkpt>
<trkpt lat="44.528128355741501" lon="5.277730962261558"><ele></ele><time>2015-2-3T2:56:41Z</time></trkpt>
<trkpt lat="44.527891064062715" lon="5.277194520458579"><ele></ele><time>2015-2-3T2:56:44Z</time></trkpt>
<trkpt lat="44.527634829282761" lon="5.276623629033566"><ele></ele><time>2015-2-3T2:56:47Z</time></trkpt>
<trkpt lat="44.527350263670087" lon="5.276122894138098"><ele></ele><time>2015-2-3T2:56:50Z</time></trkpt>
<trkpt lat="44.526992524042726" lon="5.275696339085698"><ele></ele><time>2015-2-3T2:56:53Z</time></trkpt>
<trkpt lat="44.526621792465448" lon="5.275273388251662"><ele></ele><time>2015-2-3T2:56:56Z</time></trkpt>
<trkpt lat="44.526394056156278" lon="5.274699814617634"><ele></ele><time>2015-2-3T2:56:59Z</time></trkpt>
<trkpt lat="44.52603455632925" lon="5.274286000058055"><ele></ele><time>2015-2-3T2:57:2Z</time></trkpt>
<trkpt lat="44.525590147823095" lon="5.274095060303807"><ele></ele><time>2015-2-3T2:57:5Z</time></trkpt>
<trkpt lat="44.525272054597735" lon="5.273588541895151"><ele></ele><time>2015-2-3T2:57:8Z</time></trkpt>
<trkpt lat="44.525011545047164" lon="5.273049250245094"><ele></ele><time>2015-2-3T2:57:11Z</time></trkpt>
<trkpt lat="44.525017077103257" lon="5.272403759881854"><ele></ele><time>2015-2-3T2:57:14Z</time></trkpt>
<trkpt lat="44.5248041767627" lon="5.2718211337924"><ele></ele><time>2015-2-3T2:57:17Z</time></trkpt>
<trkpt lat="44.524382147938013" lon="5.27149616740644"><ele></ele><time>2015-2-3T2:57:20Z</time></trkpt>
<trkpt lat="44.52396908774972" lon="5.271162400022149"><ele></ele><time>2015-2-3T2:57:23Z</time></trkpt>
<trkpt lat="44.523859787732363" lon="5.270550018176436"><ele></ele><time>2015-2-3T2:57:26Z</time></trkpt>
<trkpt lat="44.52360506169498" lon="5.26998189277947"><ele></ele><time>2015-2-3T2:57:29Z</time></trkpt>
<trkpt lat="44.523415295407176" lon="5.269404128193855"><ele></ele><time>2015-2-3T2:57:32Z</time></trkpt>
<trkpt lat="44.52348000369966" lon="5.268726786598563"><ele></ele><time>2015-2-3T2:57:35Z</time></trkpt>
<trkpt lat="44.523287974298" lon="5.268136616796255"><ele></ele><time>2015-2-3T2:57:38Z</time></trkpt>
<trkpt lat="44.522939203307033" lon="5.26772984303534"><ele></ele><time>2015-2-3T2:57:41Z</time></trkpt>
<trkpt lat="44.522675508633256" lon="5.267187617719173"><ele></ele><time>2015-2-3T2:57:44Z</time></trkpt>
<trkpt lat="44.522444754838943" lon="5.266598118469119"><ele></ele><time>2015-2-3T2:57:47Z</time></trkpt>
<trkpt lat="44.522107131779194" lon="5.266182878986001"><ele></ele><time>2015-2-3T2:57:50Z</time></trkpt>
<trkpt lat="44.521689461544156" lon="5.265933517366648"><ele></ele><time>2015-2-3T2:57:53Z</time></trkpt>
<trkpt lat="44.521230384707451" lon="5.265804855152965"><ele></ele><time>2015-2-3T2:57:56Z</time></trkpt>
<trkpt lat="44.520785892382264" lon="5.265640905126929"><ele></ele><time>2015-2-3T2:57:59Z</time></trkpt>
<trkpt lat="44.52052035368979" lon="5.265126172453165"><ele></ele><time>2015-2-3T2:58:2Z</time></trkpt>
<trkpt lat="44.520469726994634" lon="5.264448244124651"><ele></ele><time>2015-2-3T2:58:5Z</time></trkpt>
<trkpt lat="44.520288510248065" lon="5.263886405155063"><ele></ele><time>2015-2-3T2:58:8Z</time></trkpt>
<trkpt lat="44.519865307956934" lon="5.263646012172103"><ele></ele><time>2015-2-3T2:58:11Z</time></trkpt>
<trkpt lat="44.519446715712547" lon="5.263419365510345"><ele></ele><time>2015-2-3T2:58:14Z</time></trkpt>
<trkpt lat="44.519073637202382" lon="5.263006053864956"><ele></ele><time>2015-2-3T2:58:17Z</time></trkpt>
<trkpt lat="44.518753029406071" lon="5.262557622045279"><ele></ele><time>2015-2-3T2:58:20Z</time></trkpt>
<trkpt lat="44.518385734409094" lon="5.262196194380522"><ele></ele><time>2015-2-3T2:58:23Z</time></trkpt>
<trkpt lat="44.51809580437839" lon="5.261691939085722"><ele></ele><time>2015-2-3T2:58:26Z</time></trkpt>
<trkpt lat="44.518045512959361" lon="5.261048208922148"><ele></ele><time>2015-2-3T2:58:29Z</time></trkpt>
<trkpt lat="44.517872678115964" lon="5.260442113503814"><ele></ele><time>2015-2-3T2:58:32Z</time></trkpt>
<trkpt lat="44.517680061981082" lon="5.259844064712524"><ele></ele><time>2015-2-3T2:58:35Z</time></trkpt>
<trkpt lat="44.517586017027497" lon="5.259206872433424"><ele></ele><time>2015-2-3T2:58:38Z</time></trkpt>
<trkpt lat="44.517375631257892" lon="5.258638244122267"><ele></ele><time>2015-2-3T2:58:41Z</time></trkpt>
<trkpt lat="44.517114786431193" lon="5.258103143423796"><ele></ele><time>2015-2-3T2:58:44Z</time></trkpt>
<trkpt lat="44.516945723444223" lon="5.257504340261221"><ele></ele><time>2015-2-3T2:58:47Z</time></trkpt>
<trkpt lat="44.5168571267277" lon="5.256864130496979"><ele></ele><time>2015-2-3T2:58:50Z</time></trkpt>
<trkpt lat="44.516565855592489" lon="5.256328275427222"><ele></ele><time>2015-2-3T2:58:53Z</time></trkpt>
<trkpt lat="44.516181964427233" lon="5.255876993760467"><ele></ele><time>2015-2-3T2:58:56Z</time></trkpt>
<trkpt lat="44.515702435746789" lon="5.255612377077341"><ele></ele><time>2015-2-3T2:58:59Z</time></trkpt>
<trkpt lat="44.515260793268681" lon="5.255451695993543"><ele></ele><time>2015-2-3T2:59:2Z</time></trkpt>
<trkpt lat="44.514798782765865" lon="5.255423532798886"><ele></ele><time>2015-2-3T2:59:5Z</time></trkpt>
<trkpt lat="44.514364516362548" lon="5.255187498405576"><ele></ele><time>2015-2-3T2:59:8Z</time></trkpt>
<trkpt lat="44.513919185847044" lon="5.255289589986205"><ele></ele><time>2015-2-3T2:59:11Z</time></trkpt>
<trkpt lat="44.513469161465764" lon="5.255414396524429"><ele></ele><time>2015-2-3T2:59:14Z</time></trkpt>
<trkpt lat="44.513053083792329" lon="5.255675911903381"><ele></ele><time>2015-2-3T2:59:17Z</time></trkpt>
<trkpt lat="44.512633150443435" lon="5.255943210795522"><ele></ele><time>2015-2-3T2:59:20Z</time></trkpt>
<trkpt lat="44.512224951758981" lon="5.256215455010533"><ele></ele><time>2015-2-3T2:59:23Z</time></trkpt>
<trkpt lat="44.511824967339635" lon="5.256538242101669"><ele></ele><time>2015-2-3T2:59:26Z</time></trkpt>
<trkpt lat="44.511385252699256" lon="5.25663455016911"><ele></ele><time>2015-2-3T2:59:29Z</time></trkpt>
<trkpt lat="44.510938329622149" lon="5.256763380020857"><ele></ele><time>2015-2-3T2:59:32Z</time></trkpt>
<trkpt lat="44.51049174182117" lon="5.256935376673937"><ele></ele><time>2015-2-3T2:59:35Z</time></trkpt>
<trkpt lat="44.510248498991132" lon="5.257456814870238"><ele></ele><time>2015-2-3T2:59:38Z</time></trkpt>
<trkpt lat="44.510133164003491" lon="5.258085709065199"><ele></ele><time>2015-2-3T2:59:41Z</time></trkpt>
<trkpt lat="44.509959071874619" lon="5.258679650723934"><ele></ele><time>2015-2-3T2:59:44Z</time></trkpt>
<trkpt lat="44.509654305875301" lon="5.259129423648119"><ele></ele><time>2015-2-3T2:59:47Z</time></trkpt>
<trkpt lat="44.509551795199513" lon="5.259722610935569"><ele></ele><time>2015-2-3T2:59:50Z</time></trkpt>
<trkpt lat="44.509403603151441" lon="5.260308338329196"><ele></ele><time>2015-2-3T2:59:53Z</time></trkpt>
<trkpt lat="44.509007390588522" lon="5.260664485394955"><ele></ele><time>2015-2-3T2:59:56Z</time></trkpt>
<trkpt lat="44.508750401437283" lon="5.261167483404279"><ele></ele><time>2015-2-3T2:59:59Z</time></trkpt>
<trkpt lat="44.508490227162838" lon="5.261680958792567"><ele></ele><time>2015-2-3T3:0:2Z</time></trkpt>
<trkpt lat="44.508413448929787" lon="5.262324521318078"><ele></ele><time>2015-2-3T3:0:5Z</time></trkpt>
<trkpt lat="44.508502213284373" lon="5.262960707768798"><ele></ele><time>2015-2-3T3:0:8Z</time></trkpt>
<trkpt lat="44.508556863293052" lon="5.263595385476947"><ele></ele><time>2015-2-3T3:0:11Z</time></trkpt>
<trkpt lat="44.508548732846975" lon="5.264236014336348"><ele></ele><time>2015-2-3T3:0:14Z</time></trkpt>
<trkpt lat="44.508601538836956" lon="5.264894161373377"><ele></ele><time>2015-2-3T3:0:17Z</time></trkpt>
<trkpt lat="44.508645040914416" lon="5.265517272055149"><ele></ele><time>2015-2-3T3:0:20Z</time></trkpt>
<trkpt lat="44.508457034826279" lon="5.266111548990011"><ele></ele><time>2015-2-3T3:0:23Z</time></trkpt>
<trkpt lat="44.508252013474703" lon="5.266686799004674"><ele></ele><time>2015-2-3T3:0:26Z</time></trkpt>
<trkpt lat="44.508042130619287" lon="5.267244279384613"><ele></ele><time>2015-2-3T3:0:29Z</time></trkpt>
<trkpt lat="44.507887316867709" lon="5.267826654016972"><ele></ele><time>2015-2-3T3:0:32Z</time></trkpt>
<trkpt lat="44.507875917479396" lon="5.268468372523785"><ele></ele><time>2015-2-3T3:0:35Z</time></trkpt>
<trkpt lat="44.507933501154184" lon="5.269055608659983"><ele></ele><time>2015-2-3T3:0:38Z</time></trkpt>
<trkpt lat="44.508164674043655" lon="5.269614430144429"><ele></ele><time>2015-2-3T3:0:41Z</time></trkpt>
<trkpt lat="44.508387465029955" lon="5.270190266892314"><ele></ele><time>2015-2-3T3:0:44Z</time></trkpt>
<trkpt lat="44.508626516908407" lon="5.270734000951052"><ele></ele><time>2015-2-3T3:0:47Z</time></trkpt>
<trkpt lat="44.50884603895247" lon="5.271290559321642"><ele></ele><time>2015-2-3T3:0:50Z</time></trkpt>
<trkpt lat="44.509079894050956" lon="5.271844686940312"><ele></ele><time>2015-2-3T3:0:53Z</time></trkpt>
<trkpt lat="44.509160360321403" lon="5.272458996623755"><ele></ele><time>2015-2-3T3:0:56Z</time></trkpt>
<trkpt lat="44.509087353944778" lon="5.27307003736496"><ele></ele><time>2015-2-3T3:0:59Z</time></trkpt>
<trkpt lat="44.509168826043606" lon="5.273689292371273"><ele></ele><time>2015-2-3T3:1:2Z</time></trkpt>
<trkpt lat="44.509131526574492" lon="5.274344589561224"><ele></ele><time>2015-2-3T3:1:5Z</time></trkpt>
<trkpt lat="44.509160527959466" lon="5.274969125166535"><ele></ele><time>2015-2-3T3:1:8Z</time></trkpt>
<trkpt lat="44.509336715564132" lon="5.275556948035955"><ele></ele><time>2015-2-3T3:1:11Z</time></trkpt>
<trkpt lat="44.509598901495337" lon="5.276082074269652"><ele></ele><time>2015-2-3T3:1:14Z</time></trkpt>
<trkpt lat="44.509918754920363" lon="5.276536205783486"><ele></ele><time>2015-2-3T3:1:17Z</time></trkpt>
<trkpt lat="44.509710799902678" lon="5.277081783860922"><ele></ele><time>2015-2-3T3:1:20Z</time></trkpt>
<trkpt lat="44.509415421634912" lon="5.277569191530347"><ele></ele><time>2015-2-3T3:1:23Z</time></trkpt>
<trkpt lat="44.509235294535756" lon="5.278133628889918"><ele></ele><time>2015-2-3T3:1:26Z</time></trkpt>
<trkpt lat="44.509243005886674" lon="5.278761852532625"><ele></ele><time>2015-2-3T3:1:29Z</time></trkpt>
<trkpt lat="44.509428748860955" lon="5.279338276013732"><ele></ele><time>2015-2-3T3:1:32Z</time></trkpt>
<trkpt lat="44.509646259248257" lon="5.279915370047092"><ele></ele><time>2015-2-3T3:1:35Z</time></trkpt>
<trkpt lat="44.509716751053929" lon="5.280534541234374"><ele></ele><time>2015-2-3T3:1:38Z</time></trkpt>
<trkpt lat="44.509734017774463" lon="5.281164944171906"><ele></ele><time>2015-2-3T3:1:41Z</time></trkpt>
<trkpt lat="44.509836360812187" lon="5.28178277425468"><ele></ele><time>2015-2-3T3:1:44Z</time></trkpt>
<trkpt lat="44.510065773501992" lon="5.282348049804568"><ele></ele><time>2015-2-3T3:1:47Z</time></trkpt>
<trkpt lat="44.510392667725682" lon="5.282821208238602"><ele></ele><time>2015-2-3T3:1:50Z</time></trkpt>
<trkpt lat="44.510712856426835" lon="5.283302161842585"><ele></ele><time>2015-2-3T3:1:53Z</time></trkpt>
<trkpt lat="44.51081226579845" lon="5.283932648599148"><ele></ele><time>2015-2-3T3:1:56Z</time></trkpt>
<trkpt lat="44.510594587773085" lon="5.284419050440192"><ele></ele><time>2015-2-3T3:1:59Z</time></trkpt>
<trkpt lat="44.510241625830531" lon="5.2848313562572"><ele></ele><time>2015-2-3T3:2:2Z</time></trkpt>
<trkpt lat="44.509841138496995" lon="5.285167973488569"><ele></ele><time>2015-2-3T3:2:5Z</time></trkpt>
<trkpt lat="44.509578701108694" lon="5.285673486068845"><ele></ele><time>2015-2-3T3:2:8Z</time></trkpt>
<trkpt lat="44.509545927867293" lon="5.286333225667477"><ele></ele><time>2015-2-3T3:2:11Z</time></trkpt>
<trkpt lat="44.509492954239249" lon="5.286962455138564"><ele></ele><time>2015-2-3T3:2:14Z</time></trkpt>
<trkpt lat="44.509404776617885" lon="5.28758967295289"><ele></ele><time>2015-2-3T3:2:17Z</time></trkpt>
<trkpt lat="44.508984172716737" lon="5.287657817825675"><ele></ele><time>2015-2-3T3:2:20Z</time></trkpt>
<trkpt lat="44.50855728238821" lon="5.287377862259746"><ele></ele><time>2015-2-3T3:2:23Z</time></trkpt>
<trkpt lat="44.508116142824292" lon="5.287442654371262"><ele></ele><time>2015-2-3T3:2:26Z</time></trkpt>
<trkpt lat="44.507689755409956" lon="5.287696458399296"><ele></ele><time>2015-2-3T3:2:29Z</time></trkpt>
<trkpt lat="44.507240150123835" lon="5.287897037342191"><ele></ele><time>2015-2-3T3:2:32Z</time></trkpt>
<trkpt lat="44.506854917854071" lon="5.288270283490419"><ele></ele><time>2015-2-3T3:2:35Z</time></trkpt>
<trkpt lat="44.506557444110513" lon="5.288752326741815"><ele></ele><time>2015-2-3T3:2:38Z</time></trkpt>
<trkpt lat="44.506547134369612" lon="5.289389099925757"><ele></ele><time>2015-2-3T3:2:41Z</time></trkpt>
<trkpt lat="44.506703959777951" lon="5.290030231699348"><ele></ele><time>2015-2-3T3:2:44Z</time></trkpt>
<trkpt lat="44.506876794621348" lon="5.29064848087728"><ele></ele><time>2015-2-3T3:2:47Z</time></trkpt>
<trkpt lat="44.50721156783402" lon="5.291073946282268"><ele></ele><time>2015-2-3T3:2:50Z</time></trkpt>
<trkpt lat="44.50747056864202" lon="5.291599659249187"><ele></ele><time>2015-2-3T3:2:53Z</time></trkpt>
<trkpt lat="44.507644828408957" lon="5.292197540402412"><ele></ele><time>2015-2-3T3:2:56Z</time></trkpt>
<trkpt lat="44.507581628859043" lon="5.292824003845453"><ele></ele><time>2015-2-3T3:2:59Z</time></trkpt>
<trkpt lat="44.507694197818637" lon="5.293435379862785"><ele></ele><time>2015-2-3T3:3:2Z</time></trkpt>
<trkpt lat="44.507939452305436" lon="5.293983388692141"><ele></ele><time>2015-2-3T3:3:5Z</time></trkpt>
<trkpt lat="44.507908103987575" lon="5.294617144390941"><ele></ele><time>2015-2-3T3:3:8Z</time></trkpt>
<trkpt lat="44.507617838680744" lon="5.295115867629647"><ele></ele><time>2015-2-3T3:3:11Z</time></trkpt>
<trkpt lat="44.507226571440697" lon="5.295558348298073"><ele></ele><time>2015-2-3T3:3:14Z</time></trkpt>
<trkpt lat="44.506780821830034" lon="5.295645520091057"><ele></ele><time>2015-2-3T3:3:17Z</time></trkpt>
<trkpt lat="44.506272207945585" lon="5.295792119577527"><ele></ele><time>2015-2-3T3:3:20Z</time></trkpt>
<trkpt lat="44.505975069478154" lon="5.296336524188519"><ele></ele><time>2015-2-3T3:3:23Z</time></trkpt>
<trkpt lat="44.505961742252111" lon="5.296983020380139"><ele></ele><time>2015-2-3T3:3:26Z</time></trkpt>
<trkpt lat="44.506107838824391" lon="5.297578889876604"><ele></ele><time>2015-2-3T3:3:29Z</time></trkpt>
<trkpt lat="44.506301209330559" lon="5.298149948939681"><ele></ele><time>2015-2-3T3:3:32Z</time></trkpt>
<trkpt lat="44.506577141582966" lon="5.298662753775716"><ele></ele><time>2015-2-3T3:3:35Z</time></trkpt>
<trkpt lat="44.506439175456762" lon="5.299086458981037"><ele></ele><time>2015-2-3T3:3:38Z</time></trkpt>
<trkpt lat="44.506195764988661" lon="5.299651063978672"><ele></ele><time>2015-2-3T3:3:41Z</time></trkpt>
<trkpt lat="44.505969369783998" lon="5.300222290679812"><ele></ele><time>2015-2-3T3:3:44Z</time></trkpt>
<trkpt lat="44.505696957930923" lon="5.300776837393642"><ele></ele><time>2015-2-3T3:3:47Z</time></trkpt>
<trkpt lat="44.505433766171336" lon="5.30134211294353"><ele></ele><time>2015-2-3T3:3:50Z</time></trkpt>
<trkpt lat="44.505024729296565" lon="5.301622403785586"><ele></ele><time>2015-2-3T3:3:53Z</time></trkpt>
<trkpt lat="44.504740666598082" lon="5.302094556391239"><ele></ele><time>2015-2-3T3:3:56Z</time></trkpt>
<trkpt lat="44.504615524783731" lon="5.302793523296714"><ele></ele><time>2015-2-3T3:3:59Z</time></trkpt>
<trkpt lat="44.504505638033152" lon="5.303414119407535"><ele></ele><time>2015-2-3T3:4:2Z</time></trkpt>
<trkpt lat="44.504526508972049" lon="5.304061956703663"><ele></ele><time>2015-2-3T3:4:5Z</time></trkpt>
<trkpt lat="44.504633713513613" lon="5.304710045456886"><ele></ele><time>2015-2-3T3:4:8Z</time></trkpt>
<trkpt lat="44.504785258322954" lon="5.305339694023132"><ele></ele><time>2015-2-3T3:4:11Z</time></trkpt>
<trkpt lat="44.504652572795749" lon="5.305924415588379"><ele></ele><time>2015-2-3T3:4:14Z</time></trkpt>
<trkpt lat="44.504279578104615" lon="5.306331189349294"><ele></ele><time>2015-2-3T3:4:17Z</time></trkpt>
<trkpt lat="44.503853274509311" lon="5.30670871026814"><ele></ele><time>2015-2-3T3:4:20Z</time></trkpt>
<trkpt lat="44.503438537940383" lon="5.307019930332899"><ele></ele><time>2015-2-3T3:4:23Z</time></trkpt>
<trkpt lat="44.502983400598168" lon="5.307343807071447"><ele></ele><time>2015-2-3T3:4:26Z</time></trkpt>
<trkpt lat="44.502560114488006" lon="5.307722501456738"><ele></ele><time>2015-2-3T3:4:29Z</time></trkpt>
<trkpt lat="44.502194747328758" lon="5.308133214712143"><ele></ele><time>2015-2-3T3:4:32Z</time></trkpt>
<trkpt lat="44.501816807314754" lon="5.308498414233327"><ele></ele><time>2015-2-3T3:4:35Z</time></trkpt>
<trkpt lat="44.501333422958851" lon="5.308640403673053"><ele></ele><time>2015-2-3T3:4:38Z</time></trkpt>
<trkpt lat="44.500809973105788" lon="5.308503359556198"><ele></ele><time>2015-2-3T3:4:41Z</time></trkpt>
<trkpt lat="44.500309573486447" lon="5.308462539687753"><ele></ele><time>2015-2-3T3:4:44Z</time></trkpt>
<trkpt lat="44.49988461099565" lon="5.308719864115119"><ele></ele><time>2015-2-3T3:4:47Z</time></trkpt>
<trkpt lat="44.499468114227057" lon="5.308993449434638"><ele></ele><time>2015-2-3T3:4:50Z</time></trkpt>
<trkpt lat="44.499008199200034" lon="5.309205260127783"><ele></ele><time>2015-2-3T3:4:53Z</time></trkpt>
<trkpt lat="44.498605616390705" lon="5.309578590095043"><ele></ele><time>2015-2-3T3:4:56Z</time></trkpt>
<trkpt lat="44.49812893755734" lon="5.309585882350802"><ele></ele><time>2015-2-3T3:4:59Z</time></trkpt>
<trkpt lat="44.497852083295584" lon="5.309095289558172"><ele></ele><time>2015-2-3T3:5:2Z</time></trkpt>
<trkpt lat="44.497655192390084" lon="5.30851760879159"><ele></ele><time>2015-2-3T3:5:5Z</time></trkpt>
<trkpt lat="44.497234169393778" lon="5.308595895767212"><ele></ele><time>2015-2-3T3:5:8Z</time></trkpt>
<trkpt lat="44.496786911040545" lon="5.308805359527469"><ele></ele><time>2015-2-3T3:5:11Z</time></trkpt>
<trkpt lat="44.496306041255593" lon="5.308686587959528"><ele></ele><time>2015-2-3T3:5:14Z</time></trkpt>
<trkpt lat="44.49593547731638" lon="5.308158695697784"><ele></ele><time>2015-2-3T3:5:17Z</time></trkpt>
<trkpt lat="44.495712015777826" lon="5.307608507573605"><ele></ele><time>2015-2-3T3:5:20Z</time></trkpt>
<trkpt lat="44.495458630844951" lon="5.307042980566621"><ele></ele><time>2015-2-3T3:5:23Z</time></trkpt>
<trkpt lat="44.495152356103063" lon="5.306510478258133"><ele></ele><time>2015-2-3T3:5:26Z</time></trkpt>
<trkpt lat="44.494820684194565" lon="5.30607302673161"><ele></ele><time>2015-2-3T3:5:29Z</time></trkpt>
<trkpt lat="44.494331181049347" lon="5.305851325392723"><ele></ele><time>2015-2-3T3:5:32Z</time></trkpt>
<trkpt lat="44.493830781430006" lon="5.305629707872868"><ele></ele><time>2015-2-3T3:5:35Z</time></trkpt>
<trkpt lat="44.493439262732863" lon="5.305197117850184"><ele></ele><time>2015-2-3T3:5:38Z</time></trkpt>
<trkpt lat="44.493134329095483" lon="5.304645588621497"><ele></ele><time>2015-2-3T3:5:41Z</time></trkpt>
<trkpt lat="44.492845237255096" lon="5.304146027192473"><ele></ele><time>2015-2-3T3:5:44Z</time></trkpt>
<trkpt lat="44.492682376876473" lon="5.303512690588832"><ele></ele><time>2015-2-3T3:5:47Z</time></trkpt>
<trkpt lat="44.492739960551262" lon="5.302845239639282"><ele></ele><time>2015-2-3T3:5:50Z</time></trkpt>
<trkpt lat="44.49269394390285" lon="5.302367638796568"><ele></ele><time>2015-2-3T3:5:53Z</time></trkpt>
<trkpt lat="44.492577938362956" lon="5.30297951772809"><ele></ele><time>2015-2-3T3:5:56Z</time></trkpt>
<trkpt lat="44.492448270320892" lon="5.303593408316374"><ele></ele><time>2015-2-3T3:5:59Z</time></trkpt>
<trkpt lat="44.492571400478482" lon="5.304300673305988"><ele></ele><time>2015-2-3T3:6:2Z</time></trkpt>
<trkpt lat="44.492705427110195" lon="5.304929651319981"><ele></ele><time>2015-2-3T3:6:5Z</time></trkpt>
<trkpt lat="44.492820678278804" lon="5.305559886619449"><ele></ele><time>2015-2-3T3:6:8Z</time></trkpt>
<trkpt lat="44.492863845080137" lon="5.306183584034443"><ele></ele><time>2015-2-3T3:6:11Z</time></trkpt>
<trkpt lat="44.492661170661449" lon="5.30678641051054"><ele></ele><time>2015-2-3T3:6:14Z</time></trkpt>
<trkpt lat="44.492353135719895" lon="5.307324696332216"><ele></ele><time>2015-2-3T3:6:17Z</time></trkpt>
<trkpt lat="44.492360260337591" lon="5.307965409010649"><ele></ele><time>2015-2-3T3:6:20Z</time></trkpt>
<trkpt lat="44.492622194811702" lon="5.308610983192921"><ele></ele><time>2015-2-3T3:6:23Z</time></trkpt>
<trkpt lat="44.492906341329217" lon="5.309276422485709"><ele></ele><time>2015-2-3T3:6:26Z</time></trkpt>
<trkpt lat="44.493215549737215" lon="5.309920655563474"><ele></ele><time>2015-2-3T3:6:29Z</time></trkpt>
<trkpt lat="44.493631292134523" lon="5.310423569753766"><ele></ele><time>2015-2-3T3:6:32Z</time></trkpt>
<trkpt lat="44.493752745911479" lon="5.311134103685617"><ele></ele><time>2015-2-3T3:6:35Z</time></trkpt>
<trkpt lat="44.493701197206974" lon="5.311877578496933"><ele></ele><time>2015-2-3T3:6:38Z</time></trkpt>
<trkpt lat="44.493921138346195" lon="5.31243740580976"><ele></ele><time>2015-2-3T3:6:41Z</time></trkpt>
<trkpt lat="44.494306370615959" lon="5.312904864549637"><ele></ele><time>2015-2-3T3:6:44Z</time></trkpt>
<trkpt lat="44.494670061394572" lon="5.313314069062471"><ele></ele><time>2015-2-3T3:6:47Z</time></trkpt>
<trkpt lat="44.494555983692408" lon="5.313884541392326"><ele></ele><time>2015-2-3T3:6:50Z</time></trkpt>
<trkpt lat="44.49436797760427" lon="5.314474878832698"><ele></ele><time>2015-2-3T3:6:53Z</time></trkpt>
<trkpt lat="44.494254486635327" lon="5.3151517175138"><ele></ele><time>2015-2-3T3:6:56Z</time></trkpt>
<trkpt lat="44.494202602654696" lon="5.31589443795383"><ele></ele><time>2015-2-3T3:6:59Z</time></trkpt>
<trkpt lat="44.494090536609292" lon="5.316533055156469"><ele></ele><time>2015-2-3T3:7:2Z</time></trkpt>
<trkpt lat="44.493929268792272" lon="5.317156836390495"><ele></ele><time>2015-2-3T3:7:5Z</time></trkpt>
<trkpt lat="44.493762385100126" lon="5.317864855751395"><ele></ele><time>2015-2-3T3:7:8Z</time></trkpt>
<trkpt lat="44.493367010727525" lon="5.318418312817812"><ele></ele><time>2015-2-3T3:7:11Z</time></trkpt>
<trkpt lat="44.493087138980627" lon="5.318913096562028"><ele></ele><time>2015-2-3T3:7:14Z</time></trkpt>
<trkpt lat="44.492934253066778" lon="5.319505529478192"><ele></ele><time>2015-2-3T3:7:17Z</time></trkpt>
<trkpt lat="44.492880273610353" lon="5.320162167772651"><ele></ele><time>2015-2-3T3:7:20Z</time></trkpt>
<trkpt lat="44.493004828691483" lon="5.320798689499497"><ele></ele><time>2015-2-3T3:7:23Z</time></trkpt>
<trkpt lat="44.493127204477787" lon="5.321464380249381"><ele></ele><time>2015-2-3T3:7:26Z</time></trkpt>
<trkpt lat="44.493093676865101" lon="5.322102243080735"><ele></ele><time>2015-2-3T3:7:29Z</time></trkpt>
<trkpt lat="44.492671899497509" lon="5.322368536144495"><ele></ele><time>2015-2-3T3:7:32Z</time></trkpt>
<trkpt lat="44.492227323353291" lon="5.322573641315103"><ele></ele><time>2015-2-3T3:7:35Z</time></trkpt>
<trkpt lat="44.491948205977678" lon="5.323104383423924"><ele></ele><time>2015-2-3T3:7:38Z</time></trkpt>
<trkpt lat="44.491699011996388" lon="5.323705365881324"><ele></ele><time>2015-2-3T3:7:41Z</time></trkpt>
<trkpt lat="44.491359293460846" lon="5.324272653087974"><ele></ele><time>2015-2-3T3:7:44Z</time></trkpt>
<trkpt lat="44.491052180528641" lon="5.324744386598468"><ele></ele><time>2015-2-3T3:7:47Z</time></trkpt>
<trkpt lat="44.490616489201784" lon="5.325034651905298"><ele></ele><time>2015-2-3T3:7:50Z</time></trkpt>
<trkpt lat="44.490285068750381" lon="5.325495740398765"><ele></ele><time>2015-2-3T3:7:53Z</time></trkpt>
<trkpt lat="44.490224719047546" lon="5.326140308752656"><ele></ele><time>2015-2-3T3:7:56Z</time></trkpt>
<trkpt lat="44.4900509621948" lon="5.326832234859467"><ele></ele><time>2015-2-3T3:7:59Z</time></trkpt>
<trkpt lat="44.489723397418857" lon="5.327294748276472"><ele></ele><time>2015-2-3T3:8:2Z</time></trkpt>
<trkpt lat="44.489272115752101" lon="5.327658522874117"><ele></ele><time>2015-2-3T3:8:5Z</time></trkpt>
<trkpt lat="44.48887431062758" lon="5.328019112348557"><ele></ele><time>2015-2-3T3:8:8Z</time></trkpt>
<trkpt lat="44.488560492172837" lon="5.328496713191271"><ele></ele><time>2015-2-3T3:8:11Z</time></trkpt>
<trkpt lat="44.488176433369517" lon="5.328900972381234"><ele></ele><time>2015-2-3T3:8:14Z</time></trkpt>
<trkpt lat="44.487754153087735" lon="5.329222921282053"><ele></ele><time>2015-2-3T3:8:17Z</time></trkpt>
<trkpt lat="44.48740353807807" lon="5.329714184626937"><ele></ele><time>2015-2-3T3:8:20Z</time></trkpt>
<trkpt lat="44.487009588629007" lon="5.330069158226252"><ele></ele><time>2015-2-3T3:8:23Z</time></trkpt>
<trkpt lat="44.486648412421346" lon="5.330495797097683"><ele></ele><time>2015-2-3T3:8:26Z</time></trkpt>
<trkpt lat="44.48628949932754" lon="5.330979600548744"><ele></ele><time>2015-2-3T3:8:29Z</time></trkpt>
<trkpt lat="44.485937375575304" lon="5.331410933285952"><ele></ele><time>2015-2-3T3:8:32Z</time></trkpt>
<trkpt lat="44.485745932906866" lon="5.332016861066222"><ele></ele><time>2015-2-3T3:8:35Z</time></trkpt>
<trkpt lat="44.485400011762977" lon="5.332541903480887"><ele></ele><time>2015-2-3T3:8:38Z</time></trkpt>
<trkpt lat="44.484971361234784" lon="5.332978600636125"><ele></ele><time>2015-2-3T3:8:41Z</time></trkpt>
<trkpt lat="44.484755443409085" lon="5.33353490754962"><ele></ele><time>2015-2-3T3:8:44Z</time></trkpt>
<trkpt lat="44.484620997682214" lon="5.334164304658771"><ele></ele><time>2015-2-3T3:8:47Z</time></trkpt>
<trkpt lat="44.484469033777714" lon="5.334856817498803"><ele></ele><time>2015-2-3T3:8:50Z</time></trkpt>
<trkpt lat="44.484047004953027" lon="5.335062593221664"><ele></ele><time>2015-2-3T3:8:53Z</time></trkpt>
<trkpt lat="44.483709884807467" lon="5.335507253184915"><ele></ele><time>2015-2-3T3:8:56Z</time></trkpt>
<trkpt lat="44.483381230384111" lon="5.335992397740483"><ele></ele><time>2015-2-3T3:8:59Z</time></trkpt>
<trkpt lat="44.483223399147391" lon="5.336617855355144"><ele></ele><time>2015-2-3T3:9:2Z</time></trkpt>
<trkpt lat="44.483205461874604" lon="5.337288994342089"><ele></ele><time>2015-2-3T3:9:5Z</time></trkpt>
<trkpt lat="44.483149470761418" lon="5.33791646361351"><ele></ele><time>2015-2-3T3:9:8Z</time></trkpt>
<trkpt lat="44.482913604006171" lon="5.338482409715653"><ele></ele><time>2015-2-3T3:9:11Z</time></trkpt>
<trkpt lat="44.482858367264271" lon="5.33915413543582"><ele></ele><time>2015-2-3T3:9:14Z</time></trkpt>
<trkpt lat="44.482880244031549" lon="5.339868860319257"><ele></ele><time>2015-2-3T3:9:17Z</time></trkpt>
<trkpt lat="44.482798436656594" lon="5.340572269633412"><ele></ele><time>2015-2-3T3:9:20Z</time></trkpt>
<trkpt lat="44.482639264315367" lon="5.341256400570273"><ele></ele><time>2015-2-3T3:9:23Z</time></trkpt>
<trkpt lat="44.482522923499346" lon="5.34194078296423"><ele></ele><time>2015-2-3T3:9:26Z</time></trkpt>
<trkpt lat="44.482507165521383" lon="5.342642683535814"><ele></ele><time>2015-2-3T3:9:29Z</time></trkpt>
<trkpt lat="44.482563408091664" lon="5.343308793380857"><ele></ele><time>2015-2-3T3:9:32Z</time></trkpt>
<trkpt lat="44.482582099735737" lon="5.343940118327737"><ele></ele><time>2015-2-3T3:9:35Z</time></trkpt>
<trkpt lat="44.482261324301362" lon="5.344412606209517"><ele></ele><time>2015-2-3T3:9:38Z</time></trkpt>
<trkpt lat="44.481916157528758" lon="5.344857349991798"><ele></ele><time>2015-2-3T3:9:41Z</time></trkpt>
<trkpt lat="44.481631172820926" lon="5.345385661348701"><ele></ele><time>2015-2-3T3:9:44Z</time></trkpt>
<trkpt lat="44.481210233643651" lon="5.345592778176069"><ele></ele><time>2015-2-3T3:9:47Z</time></trkpt>
<trkpt lat="44.480735650286078" lon="5.345730828121305"><ele></ele><time>2015-2-3T3:9:50Z</time></trkpt>
<trkpt lat="44.480371959507465" lon="5.346154114231467"><ele></ele><time>2015-2-3T3:9:53Z</time></trkpt>
<trkpt lat="44.480160987004638" lon="5.346726262941957"><ele></ele><time>2015-2-3T3:9:56Z</time></trkpt>
<trkpt lat="44.479763014242053" lon="5.347147285938263"><ele></ele><time>2015-2-3T3:9:59Z</time></trkpt>
<trkpt lat="44.479335201904178" lon="5.347372591495514"><ele></ele><time>2015-2-3T3:10:2Z</time></trkpt>
<trkpt lat="44.478912418708205" lon="5.347654726356268"><ele></ele><time>2015-2-3T3:10:5Z</time></trkpt>
<trkpt lat="44.478544956073165" lon="5.348142301663756"><ele></ele><time>2015-2-3T3:10:8Z</time></trkpt>
<trkpt lat="44.478215966373682" lon="5.348649239167571"><ele></ele><time>2015-2-3T3:10:11Z</time></trkpt>
<trkpt lat="44.477759907022119" lon="5.348992394283414"><ele></ele><time>2015-2-3T3:10:14Z</time></trkpt>
<trkpt lat="44.477339889854193" lon="5.349263716489077"><ele></ele><time>2015-2-3T3:10:17Z</time></trkpt>
<trkpt lat="44.476907718926668" lon="5.349559346213937"><ele></ele><time>2015-2-3T3:10:20Z</time></trkpt>
<trkpt lat="44.476533383131027" lon="5.349983302876353"><ele></ele><time>2015-2-3T3:10:23Z</time></trkpt>
<trkpt lat="44.476174721494317" lon="5.350488983094692"><ele></ele><time>2015-2-3T3:10:26Z</time></trkpt>
<trkpt lat="44.475785717368126" lon="5.350959459319711"><ele></ele><time>2015-2-3T3:10:29Z</time></trkpt>
<trkpt lat="44.475429067388177" lon="5.351504702121019"><ele></ele><time>2015-2-3T3:10:32Z</time></trkpt>
<trkpt lat="44.474972086027265" lon="5.351918013766408"><ele></ele><time>2015-2-3T3:10:35Z</time></trkpt>
<trkpt lat="44.474557181820273" lon="5.352305676788092"><ele></ele><time>2015-2-3T3:10:38Z</time></trkpt>
<trkpt lat="44.474308658391237" lon="5.352924931794405"><ele></ele><time>2015-2-3T3:10:41Z</time></trkpt>
<trkpt lat="44.474014369770885" lon="5.35349247045815"><ele></ele><time>2015-2-3T3:10:44Z</time></trkpt>
<trkpt lat="44.473621090874076" lon="5.353873427957296"><ele></ele><time>2015-2-3T3:10:47Z</time></trkpt>
<trkpt lat="44.473169222474098" lon="5.354084400460124"><ele></ele><time>2015-2-3T3:10:50Z</time></trkpt>
<trkpt lat="44.472703356295824" lon="5.354313896968961"><ele></ele><time>2015-2-3T3:10:53Z</time></trkpt>
<trkpt lat="44.472249811515212" lon="5.354597121477127"><ele></ele><time>2015-2-3T3:10:56Z</time></trkpt>
<trkpt lat="44.471745388582349" lon="5.354579770937562"><ele></ele><time>2015-2-3T3:10:59Z</time></trkpt>
<trkpt lat="44.471251275390387" lon="5.354755539447069"><ele></ele><time>2015-2-3T3:11:2Z</time></trkpt>
<trkpt lat="44.470831174403429" lon="5.35511227324605"><ele></ele><time>2015-2-3T3:11:5Z</time></trkpt>
<trkpt lat="44.470478799194098" lon="5.355555424466729"><ele></ele><time>2015-2-3T3:11:8Z</time></trkpt>
<trkpt lat="44.470489863306284" lon="5.355864632874727"><ele></ele><time>2015-2-3T3:11:11Z</time></trkpt>
<trkpt lat="44.47032792493701" lon="5.356302252039313"><ele></ele><time>2015-2-3T3:11:14Z</time></trkpt>
<trkpt lat="44.46987010538578" lon="5.356567036360502"><ele></ele><time>2015-2-3T3:11:17Z</time></trkpt>
<trkpt lat="44.469438102096319" lon="5.356853110715747"><ele></ele><time>2015-2-3T3:11:20Z</time></trkpt>
<trkpt lat="44.469040213152766" lon="5.35721680149436"><ele></ele><time>2015-2-3T3:11:23Z</time></trkpt>
<trkpt lat="44.468625476583838" lon="5.357587113976479"><ele></ele><time>2015-2-3T3:11:26Z</time></trkpt>
<trkpt lat="44.468227252364159" lon="5.357930772006512"><ele></ele><time>2015-2-3T3:11:29Z</time></trkpt>
<trkpt lat="44.468455407768488" lon="5.358433937653899"><ele></ele><time>2015-2-3T3:11:32Z</time></trkpt>
<trkpt lat="44.468705272302032" lon="5.358995525166392"><ele></ele><time>2015-2-3T3:11:35Z</time></trkpt>
<trkpt lat="44.468936026096344" lon="5.35958812572062"><ele></ele><time>2015-2-3T3:11:38Z</time></trkpt>
<trkpt lat="44.469190668314695" lon="5.360161866992712"><ele></ele><time>2015-2-3T3:11:41Z</time></trkpt>
<trkpt lat="44.469409352168441" lon="5.360700823366642"><ele></ele><time>2015-2-3T3:11:44Z</time></trkpt>
<trkpt lat="44.469562405720353" lon="5.361334998160601"><ele></ele><time>2015-2-3T3:11:47Z</time></trkpt>
<trkpt lat="44.469254286959767" lon="5.36172391846776"><ele></ele><time>2015-2-3T3:11:50Z</time></trkpt>
<trkpt lat="44.469160912558436" lon="5.362349292263389"><ele></ele><time>2015-2-3T3:11:53Z</time></trkpt>
<trkpt lat="44.468919681385159" lon="5.362798981368542"><ele></ele><time>2015-2-3T3:11:56Z</time></trkpt>
<trkpt lat="44.468488600105047" lon="5.362986400723457"><ele></ele><time>2015-2-3T3:11:59Z</time></trkpt>
<trkpt lat="44.468305455520749" lon="5.363471377640963"><ele></ele><time>2015-2-3T3:12:2Z</time></trkpt>
<trkpt lat="44.468203447759151" lon="5.363884270191193"><ele></ele><time>2015-2-3T3:12:5Z</time></trkpt>
<trkpt lat="44.467855095863342" lon="5.364111000671983"><ele></ele><time>2015-2-3T3:12:8Z</time></trkpt>
<trkpt lat="44.467452680692077" lon="5.364089962095022"><ele></ele><time>2015-2-3T3:12:11Z</time></trkpt>
<trkpt lat="44.466991676017642" lon="5.364040089771152"><ele></ele><time>2015-2-3T3:12:14Z</time></trkpt>
<trkpt lat="44.466493371874094" lon="5.36417487077415"><ele></ele><time>2015-2-3T3:12:17Z</time></trkpt>
<trkpt lat="44.466085592284799" lon="5.36447879858315"><ele></ele><time>2015-2-3T3:12:20Z</time></trkpt>
<trkpt lat="44.466178882867098" lon="5.364829245954752"><ele></ele><time>2015-2-3T3:12:23Z</time></trkpt>
<trkpt lat="44.466617172583938" lon="5.365045750513673"><ele></ele><time>2015-2-3T3:12:26Z</time></trkpt>
<trkpt lat="44.467123188078403" lon="5.364930499345064"><ele></ele><time>2015-2-3T3:12:29Z</time></trkpt>
<trkpt lat="44.467508839443326" lon="5.365121606737375"><ele></ele><time>2015-2-3T3:12:32Z</time></trkpt>
<trkpt lat="44.467701036483049" lon="5.365685373544693"><ele></ele><time>2015-2-3T3:12:35Z</time></trkpt>
<trkpt lat="44.467965066432953" lon="5.366192394867539"><ele></ele><time>2015-2-3T3:12:38Z</time></trkpt>
<trkpt lat="44.468105966225266" lon="5.366899659857154"><ele></ele><time>2015-2-3T3:12:41Z</time></trkpt>
<trkpt lat="44.468352980911732" lon="5.367466108873487"><ele></ele><time>2015-2-3T3:12:44Z</time></trkpt>
<trkpt lat="44.468675097450614" lon="5.367910852655768"><ele></ele><time>2015-2-3T3:12:47Z</time></trkpt>
<trkpt lat="44.46898958645761" lon="5.368397505953908"><ele></ele><time>2015-2-3T3:12:50Z</time></trkpt>
<trkpt lat="44.46933844126761" lon="5.36889941431582"><ele></ele><time>2015-2-3T3:12:53Z</time></trkpt>
<trkpt lat="44.469677656888962" lon="5.369395539164543"><ele></ele><time>2015-2-3T3:12:56Z</time></trkpt>
<trkpt lat="44.470088537782431" lon="5.369804995134473"><ele></ele><time>2015-2-3T3:12:59Z</time></trkpt>
<trkpt lat="44.470521882176399" lon="5.37011562846601"><ele></ele><time>2015-2-3T3:13:2Z</time></trkpt>
<trkpt lat="44.47095388546586" lon="5.370375467464328"><ele></ele><time>2015-2-3T3:13:5Z</time></trkpt>
<trkpt lat="44.471392594277859" lon="5.37060571834445"><ele></ele><time>2015-2-3T3:13:8Z</time></trkpt>
<trkpt lat="44.471828704699874" lon="5.370819708332419"><ele></ele><time>2015-2-3T3:13:11Z</time></trkpt>
<trkpt lat="44.472276298329234" lon="5.370924146845937"><ele></ele><time>2015-2-3T3:13:14Z</time></trkpt>
<trkpt lat="44.472757671028376" lon="5.371014587581158"><ele></ele><time>2015-2-3T3:13:17Z</time></trkpt>
<trkpt lat="44.473231080919504" lon="5.37111634388566"><ele></ele><time>2015-2-3T3:13:20Z</time></trkpt>
<trkpt lat="44.473677333444357" lon="5.371298985555768"><ele></ele><time>2015-2-3T3:13:23Z</time></trkpt>
<trkpt lat="44.474030965939164" lon="5.371741550043225"><ele></ele><time>2015-2-3T3:13:26Z</time></trkpt>
<trkpt lat="44.474399853497744" lon="5.372137930244207"><ele></ele><time>2015-2-3T3:13:29Z</time></trkpt>
<trkpt lat="44.474842250347137" lon="5.372493909671903"><ele></ele><time>2015-2-3T3:13:32Z</time></trkpt>
<trkpt lat="44.475281294435263" lon="5.372772607952356"><ele></ele><time>2015-2-3T3:13:35Z</time></trkpt>
<trkpt lat="44.475740622729063" lon="5.373040661215782"><ele></ele><time>2015-2-3T3:13:38Z</time></trkpt>
<trkpt lat="44.476182013750076" lon="5.373292034491897"><ele></ele><time>2015-2-3T3:13:41Z</time></trkpt>
<trkpt lat="44.476609909906983" lon="5.373528236523271"><ele></ele><time>2015-2-3T3:13:44Z</time></trkpt>
<trkpt lat="44.477033782750368" lon="5.373766953125596"><ele></ele><time>2015-2-3T3:13:47Z</time></trkpt>
<trkpt lat="44.477512305602431" lon="5.373867116868496"><ele></ele><time>2015-2-3T3:13:50Z</time></trkpt>
<trkpt lat="44.477965515106916" lon="5.373874828219414"><ele></ele><time>2015-2-3T3:13:53Z</time></trkpt>
<trkpt lat="44.478409588336945" lon="5.373774915933609"><ele></ele><time>2015-2-3T3:13:56Z</time></trkpt>
<trkpt lat="44.478903282433748" lon="5.373771311715245"><ele></ele><time>2015-2-3T3:13:59Z</time></trkpt>
<trkpt lat="44.479347607120872" lon="5.37397968582809"><ele></ele><time>2015-2-3T3:14:2Z</time></trkpt>
<trkpt lat="44.479770809412003" lon="5.374211277812719"><ele></ele><time>2015-2-3T3:14:5Z</time></trkpt>
<trkpt lat="44.480209434404969" lon="5.374474218115211"><ele></ele><time>2015-2-3T3:14:8Z</time></trkpt>
<trkpt lat="44.480647556483746" lon="5.374733721837401"><ele></ele><time>2015-2-3T3:14:11Z</time></trkpt>
<trkpt lat="44.481079559773207" lon="5.374986520037055"><ele></ele><time>2015-2-3T3:14:14Z</time></trkpt>
<trkpt lat="44.481529835611582" lon="5.375241413712502"><ele></ele><time>2015-2-3T3:14:17Z</time></trkpt>
<trkpt lat="44.48196318000555" lon="5.375505276024342"><ele></ele><time>2015-2-3T3:14:20Z</time></trkpt>
<trkpt lat="44.482390321791172" lon="5.375749440863729"><ele></ele><time>2015-2-3T3:14:23Z</time></trkpt>
<trkpt lat="44.482806902378798" lon="5.375995533540845"><ele></ele><time>2015-2-3T3:14:26Z</time></trkpt>
<trkpt lat="44.483242342248559" lon="5.376235088333488"><ele></ele><time>2015-2-3T3:14:29Z</time></trkpt>
<trkpt lat="44.483666718006134" lon="5.376500710844994"><ele></ele><time>2015-2-3T3:14:32Z</time></trkpt>
<trkpt lat="44.484124118462205" lon="5.37678150460124"><ele></ele><time>2015-2-3T3:14:35Z</time></trkpt>
<trkpt lat="44.484446486458182" lon="5.377266146242619"><ele></ele><time>2015-2-3T3:14:38Z</time></trkpt>
<trkpt lat="44.484383538365364" lon="5.377909289672971"><ele></ele><time>2015-2-3T3:14:41Z</time></trkpt>
<trkpt lat="44.484317405149341" lon="5.378529131412506"><ele></ele><time>2015-2-3T3:14:44Z</time></trkpt>
<trkpt lat="44.483950026333332" lon="5.378449084237218"><ele></ele><time>2015-2-3T3:14:47Z</time></trkpt>
<trkpt lat="44.484014399349689" lon="5.378852421417832"><ele></ele><time>2015-2-3T3:14:50Z</time></trkpt>
<trkpt lat="44.48434523306787" lon="5.378684112802148"><ele></ele><time>2015-2-3T3:14:53Z</time></trkpt>
<trkpt lat="44.484388902783394" lon="5.378029905259609"><ele></ele><time>2015-2-3T3:14:56Z</time></trkpt>
<trkpt lat="44.484501052647829" lon="5.377378379926086"><ele></ele><time>2015-2-3T3:14:59Z</time></trkpt>
<trkpt lat="44.484240291640162" lon="5.376813355833292"><ele></ele><time>2015-2-3T3:15:2Z</time></trkpt>
<trkpt lat="44.483795547857881" lon="5.376519486308098"><ele></ele><time>2015-2-3T3:15:5Z</time></trkpt>
<trkpt lat="44.483379554003477" lon="5.376274148002267"><ele></ele><time>2015-2-3T3:15:8Z</time></trkpt>
<trkpt lat="44.482945539057255" lon="5.376013051718473"><ele></ele><time>2015-2-3T3:15:11Z</time></trkpt>
<trkpt lat="44.482524683699012" lon="5.375770144164562"><ele></ele><time>2015-2-3T3:15:14Z</time></trkpt>
<trkpt lat="44.482098296284676" lon="5.375521369278431"><ele></ele><time>2015-2-3T3:15:17Z</time></trkpt>
<trkpt lat="44.481665873900056" lon="5.37526429630816"><ele></ele><time>2015-2-3T3:15:20Z</time></trkpt>
<trkpt lat="44.481233200058341" lon="5.375012923032045"><ele></ele><time>2015-2-3T3:15:23Z</time></trkpt>
<trkpt lat="44.480759622529149" lon="5.374734224751592"><ele></ele><time>2015-2-3T3:15:26Z</time></trkpt>
<trkpt lat="44.480278668925166" lon="5.374452508985996"><ele></ele><time>2015-2-3T3:15:29Z</time></trkpt>
<trkpt lat="44.479803834110498" lon="5.374178253114224"><ele></ele><time>2015-2-3T3:15:32Z</time></trkpt>
<trkpt lat="44.479323299601674" lon="5.373912127688527"><ele></ele><time>2015-2-3T3:15:35Z</time></trkpt>
<trkpt lat="44.478849219158292" lon="5.373691515997052"><ele></ele><time>2015-2-3T3:15:38Z</time></trkpt>
<trkpt lat="44.47835074737668" lon="5.373726887628436"><ele></ele><time>2015-2-3T3:15:41Z</time></trkpt>
<trkpt lat="44.477829728275537" lon="5.37382529117167"><ele></ele><time>2015-2-3T3:15:44Z</time></trkpt>
<trkpt lat="44.477351121604443" lon="5.373788578435779"><ele></ele><time>2015-2-3T3:15:47Z</time></trkpt>
<trkpt lat="44.476880980655551" lon="5.373612977564335"><ele></ele><time>2015-2-3T3:15:50Z</time></trkpt>
<trkpt lat="44.476448390632868" lon="5.373373338952661"><ele></ele><time>2015-2-3T3:15:53Z</time></trkpt>
<trkpt lat="44.475968023762107" lon="5.373113667592406"><ele></ele><time>2015-2-3T3:15:56Z</time></trkpt>
<trkpt lat="44.475521268323064" lon="5.372861037030816"><ele></ele><time>2015-2-3T3:15:59Z</time></trkpt>
<trkpt lat="44.475092450156808" lon="5.372621063143015"><ele></ele><time>2015-2-3T3:16:2Z</time></trkpt>
<trkpt lat="44.474649215117097" lon="5.372295593842864"><ele></ele><time>2015-2-3T3:16:5Z</time></trkpt>
<trkpt lat="44.474243614822626" lon="5.371938357129693"><ele></ele><time>2015-2-3T3:16:8Z</time></trkpt>
<trkpt lat="44.473915630951524" lon="5.371504509821534"><ele></ele><time>2015-2-3T3:16:11Z</time></trkpt>
<trkpt lat="44.473547665402293" lon="5.371143333613873"><ele></ele><time>2015-2-3T3:16:14Z</time></trkpt>
<trkpt lat="44.473057743161917" lon="5.371015509590507"><ele></ele><time>2015-2-3T3:16:17Z</time></trkpt>
<trkpt lat="44.472568826749921" lon="5.370921129360795"><ele></ele><time>2015-2-3T3:16:20Z</time></trkpt>
<trkpt lat="44.472081838175654" lon="5.370812583714724"><ele></ele><time>2015-2-3T3:16:23Z</time></trkpt>
<trkpt lat="44.471622426062822" lon="5.3706462867558"><ele></ele><time>2015-2-3T3:16:26Z</time></trkpt>
<trkpt lat="44.471164522692561" lon="5.370398098602891"><ele></ele><time>2015-2-3T3:16:29Z</time></trkpt>
<trkpt lat="44.470732351765037" lon="5.370157705619931"><ele></ele><time>2015-2-3T3:16:32Z</time></trkpt>
<trkpt lat="44.470315435901284" lon="5.369876241311431"><ele></ele><time>2015-2-3T3:16:35Z</time></trkpt>
<trkpt lat="44.469913188368082" lon="5.369553454220295"><ele></ele><time>2015-2-3T3:16:38Z</time></trkpt>
<trkpt lat="44.469539942219853" lon="5.36906654946506"><ele></ele><time>2015-2-3T3:16:41Z</time></trkpt>
<trkpt lat="44.469218412414193" lon="5.368584087118506"><ele></ele><time>2015-2-3T3:16:44Z</time></trkpt>
<trkpt lat="44.468897469341755" lon="5.368114365264773"><ele></ele><time>2015-2-3T3:16:47Z</time></trkpt>
<trkpt lat="44.468579879030585" lon="5.367657886818051"><ele></ele><time>2015-2-3T3:16:50Z</time></trkpt>
<trkpt lat="44.468230605125427" lon="5.367256812751293"><ele></ele><time>2015-2-3T3:16:53Z</time></trkpt>
<trkpt lat="44.467836655676365" lon="5.366932600736618"><ele></ele><time>2015-2-3T3:16:56Z</time></trkpt>
<trkpt lat="44.467368107289076" lon="5.366647113114595"><ele></ele><time>2015-2-3T3:16:59Z</time></trkpt>
<trkpt lat="44.466874497011304" lon="5.366512667387724"><ele></ele><time>2015-2-3T3:17:2Z</time></trkpt>
<trkpt lat="44.466393711045384" lon="5.366567149758339"><ele></ele><time>2015-2-3T3:17:5Z</time></trkpt>
<trkpt lat="44.465924659743905" lon="5.366713162511587"><ele></ele><time>2015-2-3T3:17:8Z</time></trkpt>
<trkpt lat="44.46554864756763" lon="5.367064196616411"><ele></ele><time>2015-2-3T3:17:11Z</time></trkpt>
<trkpt lat="44.465329125523567" lon="5.367664927616715"><ele></ele><time>2015-2-3T3:17:14Z</time></trkpt>
<trkpt lat="44.46513818576932" lon="5.368264736607671"><ele></ele><time>2015-2-3T3:17:17Z</time></trkpt>
<trkpt lat="44.464843645691872" lon="5.368766644969583"><ele></ele><time>2015-2-3T3:17:20Z</time></trkpt>
<trkpt lat="44.464406026527286" lon="5.368994884192944"><ele></ele><time>2015-2-3T3:17:23Z</time></trkpt>
<trkpt lat="44.463949799537659" lon="5.368907041847706"><ele></ele><time>2015-2-3T3:17:26Z</time></trkpt>
<trkpt lat="44.463491477072239" lon="5.368798244744539"><ele></ele><time>2015-2-3T3:17:29Z</time></trkpt>
<trkpt lat="44.463036675006151" lon="5.368787851184607"><ele></ele><time>2015-2-3T3:17:32Z</time></trkpt>
<trkpt lat="44.462570892646909" lon="5.368726160377264"><ele></ele><time>2015-2-3T3:17:35Z</time></trkpt>
<trkpt lat="44.46213411167264" lon="5.368457855656743"><ele></ele><time>2015-2-3T3:17:38Z</time></trkpt>
<trkpt lat="44.461744856089354" lon="5.368086202070117"><ele></ele><time>2015-2-3T3:17:41Z</time></trkpt>
<trkpt lat="44.461464984342456" lon="5.367586640641093"><ele></ele><time>2015-2-3T3:17:44Z</time></trkpt>
<trkpt lat="44.461093917489052" lon="5.367216747254133"><ele></ele><time>2015-2-3T3:17:47Z</time></trkpt>
<trkpt lat="44.460626626387239" lon="5.367152290418744"><ele></ele><time>2015-2-3T3:17:50Z</time></trkpt>
<trkpt lat="44.460160257294774" lon="5.366990268230438"><ele></ele><time>2015-2-3T3:17:53Z</time></trkpt>
<trkpt lat="44.459724565967917" lon="5.366798490285873"><ele></ele><time>2015-2-3T3:17:56Z</time></trkpt>
<trkpt lat="44.459275044500828" lon="5.366695057600737"><ele></ele><time>2015-2-3T3:17:59Z</time></trkpt>
<trkpt lat="44.458881597965956" lon="5.367009546607733"><ele></ele><time>2015-2-3T3:18:2Z</time></trkpt>
<trkpt lat="44.458493012934923" lon="5.367381786927581"><ele></ele><time>2015-2-3T3:18:5Z</time></trkpt>
<trkpt lat="44.458154048770666" lon="5.36784254014492"><ele></ele><time>2015-2-3T3:18:8Z</time></trkpt>
<trkpt lat="44.458091268315911" lon="5.368529101833701"><ele></ele><time>2015-2-3T3:18:11Z</time></trkpt>
<trkpt lat="44.458148013800383" lon="5.369173502549529"><ele></ele><time>2015-2-3T3:18:14Z</time></trkpt>
<trkpt lat="44.458319926634431" lon="5.369844641536474"><ele></ele><time>2015-2-3T3:18:17Z</time></trkpt>
<trkpt lat="44.458271395415068" lon="5.370471021160483"><ele></ele><time>2015-2-3T3:18:20Z</time></trkpt>
<trkpt lat="44.457823382690549" lon="5.370443444699049"><ele></ele><time>2015-2-3T3:18:23Z</time></trkpt>
<trkpt lat="44.457374783232808" lon="5.370305143296719"><ele></ele><time>2015-2-3T3:18:26Z</time></trkpt>
<trkpt lat="44.456868432462215" lon="5.370275219902396"><ele></ele><time>2015-2-3T3:18:29Z</time></trkpt>
<trkpt lat="44.45635168813169" lon="5.370246637612581"><ele></ele><time>2015-2-3T3:18:32Z</time></trkpt>
<trkpt lat="44.455854222178459" lon="5.370218558236957"><ele></ele><time>2015-2-3T3:18:35Z</time></trkpt>
<trkpt lat="44.455325156450272" lon="5.370297096669674"><ele></ele><time>2015-2-3T3:18:38Z</time></trkpt>
<trkpt lat="44.45484621450305" lon="5.370331211015582"><ele></ele><time>2015-2-3T3:18:41Z</time></trkpt>
<trkpt lat="44.454405158758163" lon="5.370303383097053"><ele></ele><time>2015-2-3T3:18:44Z</time></trkpt>
<trkpt lat="44.453885061666369" lon="5.370279075577855"><ele></ele><time>2015-2-3T3:18:47Z</time></trkpt>
<trkpt lat="44.453417100012302" lon="5.37025535479188"><ele></ele><time>2015-2-3T3:18:50Z</time></trkpt>
<trkpt lat="44.452954083681107" lon="5.370194669812918"><ele></ele><time>2015-2-3T3:18:53Z</time></trkpt>
<trkpt lat="44.452441865578294" lon="5.370230879634619"><ele></ele><time>2015-2-3T3:18:56Z</time></trkpt>
<trkpt lat="44.451902490109205" lon="5.370408911257982"><ele></ele><time>2015-2-3T3:18:59Z</time></trkpt>
<trkpt lat="44.45136034861207" lon="5.370560036972165"><ele></ele><time>2015-2-3T3:19:2Z</time></trkpt>
<trkpt lat="44.450812758877873" lon="5.370734045282006"><ele></ele><time>2015-2-3T3:19:5Z</time></trkpt>
<trkpt lat="44.450347730889916" lon="5.371138555929065"><ele></ele><time>2015-2-3T3:19:8Z</time></trkpt>
<trkpt lat="44.449960570782423" lon="5.371613977476955"><ele></ele><time>2015-2-3T3:19:11Z</time></trkpt>
<trkpt lat="44.449547678232193" lon="5.371971298009157"><ele></ele><time>2015-2-3T3:19:14Z</time></trkpt>
<trkpt lat="44.449073262512684" lon="5.372061487287283"><ele></ele><time>2015-2-3T3:19:17Z</time></trkpt>
<trkpt lat="44.448550986126065" lon="5.372009938582778"><ele></ele><time>2015-2-3T3:19:20Z</time></trkpt>
<trkpt lat="44.448011359199882" lon="5.372024271637201"><ele></ele><time>2015-2-3T3:19:23Z</time></trkpt>
<trkpt lat="44.44746159017086" lon="5.372056877240539"><ele></ele><time>2015-2-3T3:19:26Z</time></trkpt>
<trkpt lat="44.44694560021162" lon="5.371957970783114"><ele></ele><time>2015-2-3T3:19:29Z</time></trkpt>
<trkpt lat="44.446441596373916" lon="5.371829643845558"><ele></ele><time>2015-2-3T3:19:32Z</time></trkpt>
<trkpt lat="44.445941615849733" lon="5.371679943054915"><ele></ele><time>2015-2-3T3:19:35Z</time></trkpt>
<trkpt lat="44.445512294769287" lon="5.37143787369132"><ele></ele><time>2015-2-3T3:19:38Z</time></trkpt>
<trkpt lat="44.445063276216388" lon="5.371083905920386"><ele></ele><time>2015-2-3T3:19:41Z</time></trkpt>
<trkpt lat="44.44456790573895" lon="5.370966056361795"><ele></ele><time>2015-2-3T3:19:44Z</time></trkpt>
<trkpt lat="44.444086281582713" lon="5.370854744687676"><ele></ele><time>2015-2-3T3:19:47Z</time></trkpt>
<trkpt lat="44.44363122805953" lon="5.370545536279678"><ele></ele><time>2015-2-3T3:19:50Z</time></trkpt>
<trkpt lat="44.443206433206797" lon="5.370288882404566"><ele></ele><time>2015-2-3T3:19:53Z</time></trkpt>
<trkpt lat="44.442736795172095" lon="5.370031138882041"><ele></ele><time>2015-2-3T3:19:56Z</time></trkpt>
<trkpt lat="44.442304037511349" lon="5.369755793362856"><ele></ele><time>2015-2-3T3:19:59Z</time></trkpt>
<trkpt lat="44.441887456923723" lon="5.369374919682741"><ele></ele><time>2015-2-3T3:20:2Z</time></trkpt>
<trkpt lat="44.441421339288354" lon="5.369204599410296"><ele></ele><time>2015-2-3T3:20:5Z</time></trkpt>
<trkpt lat="44.440961675718427" lon="5.369027657434344"><ele></ele><time>2015-2-3T3:20:8Z</time></trkpt>
<trkpt lat="44.4405797123909" lon="5.368682239204645"><ele></ele><time>2015-2-3T3:20:11Z</time></trkpt>
<trkpt lat="44.440198335796595" lon="5.368298096582294"><ele></ele><time>2015-2-3T3:20:14Z</time></trkpt>
<trkpt lat="44.439734565094113" lon="5.368140516802669"><ele></ele><time>2015-2-3T3:20:17Z</time></trkpt>
<trkpt lat="44.43926090374589" lon="5.368227856233716"><ele></ele><time>2015-2-3T3:20:20Z</time></trkpt>
<trkpt lat="44.438779447227716" lon="5.368446875363588"><ele></ele><time>2015-2-3T3:20:23Z</time></trkpt>
<trkpt lat="44.438357586041093" lon="5.368695314973593"><ele></ele><time>2015-2-3T3:20:26Z</time></trkpt>
<trkpt lat="44.437918793410063" lon="5.368927326053381"><ele></ele><time>2015-2-3T3:20:29Z</time></trkpt>
<trkpt lat="44.437467511743307" lon="5.36914324387908"><ele></ele><time>2015-2-3T3:20:32Z</time></trkpt>
<trkpt lat="44.436974823474884" lon="5.369123378768563"><ele></ele><time>2015-2-3T3:20:35Z</time></trkpt>
<trkpt lat="44.436481883749366" lon="5.369014497846365"><ele></ele><time>2015-2-3T3:20:38Z</time></trkpt>
<trkpt lat="44.435965223237872" lon="5.368909556418657"><ele></ele><time>2015-2-3T3:20:41Z</time></trkpt>
<trkpt lat="44.435518551617861" lon="5.368811655789614"><ele></ele><time>2015-2-3T3:20:44Z</time></trkpt>
<trkpt lat="44.435025192797184" lon="5.36859842017293"><ele></ele><time>2015-2-3T3:20:47Z</time></trkpt>
<trkpt lat="44.434591345489025" lon="5.368364062160254"><ele></ele><time>2015-2-3T3:20:50Z</time></trkpt>
<trkpt lat="44.434140818193555" lon="5.368200447410345"><ele></ele><time>2015-2-3T3:20:53Z</time></trkpt>
<trkpt lat="44.433675454929471" lon="5.368081843480468"><ele></ele><time>2015-2-3T3:20:56Z</time></trkpt>
<trkpt lat="44.433230711147189" lon="5.367962066084147"><ele></ele><time>2015-2-3T3:20:59Z</time></trkpt>
<trkpt lat="44.432782279327512" lon="5.367693174630404"><ele></ele><time>2015-2-3T3:21:2Z</time></trkpt>
<trkpt lat="44.432369722053409" lon="5.367322694510222"><ele></ele><time>2015-2-3T3:21:5Z</time></trkpt>
<trkpt lat="44.431970408186316" lon="5.366983311250806"><ele></ele><time>2015-2-3T3:21:8Z</time></trkpt>
<trkpt lat="44.431539662182331" lon="5.366684328764677"><ele></ele><time>2015-2-3T3:21:11Z</time></trkpt>
<trkpt lat="44.431103970855474" lon="5.366389118134975"><ele></ele><time>2015-2-3T3:21:14Z</time></trkpt>
<trkpt lat="44.430694598704576" lon="5.366109078750014"><ele></ele><time>2015-2-3T3:21:17Z</time></trkpt>
<trkpt lat="44.430264355614781" lon="5.365813365206122"><ele></ele><time>2015-2-3T3:21:20Z</time></trkpt>
<trkpt lat="44.429850205779076" lon="5.365558555349708"><ele></ele><time>2015-2-3T3:21:23Z</time></trkpt>
<trkpt lat="44.429364977404475" lon="5.365421008318663"><ele></ele><time>2015-2-3T3:21:26Z</time></trkpt>
<trkpt lat="44.428860973566771" lon="5.36533241160214"><ele></ele><time>2015-2-3T3:21:29Z</time></trkpt>
<trkpt lat="44.428393179550767" lon="5.365246161818504"><ele></ele><time>2015-2-3T3:21:32Z</time></trkpt>
<trkpt lat="44.427885320037603" lon="5.365156475454569"><ele></ele><time>2015-2-3T3:21:35Z</time></trkpt>
<trkpt lat="44.427368827164173" lon="5.365112219005823"><ele></ele><time>2015-2-3T3:21:38Z</time></trkpt>
<trkpt lat="44.426897009834647" lon="5.365277845412493"><ele></ele><time>2015-2-3T3:21:41Z</time></trkpt>
<trkpt lat="44.426408680155873" lon="5.365344397723675"><ele></ele><time>2015-2-3T3:21:44Z</time></trkpt>
<trkpt lat="44.425906101241708" lon="5.365254627540708"><ele></ele><time>2015-2-3T3:21:47Z</time></trkpt>
<trkpt lat="44.425442079082131" lon="5.365157648921013"><ele></ele><time>2015-2-3T3:21:50Z</time></trkpt>
<trkpt lat="44.424935476854444" lon="5.364934355020523"><ele></ele><time>2015-2-3T3:21:53Z</time></trkpt>
<trkpt lat="44.424501713365316" lon="5.364613914862275"><ele></ele><time>2015-2-3T3:21:56Z</time></trkpt>
<trkpt lat="44.424037104472518" lon="5.364281320944428"><ele></ele><time>2015-2-3T3:21:59Z</time></trkpt>
<trkpt lat="44.423579284921288" lon="5.363926095888019"><ele></ele><time>2015-2-3T3:22:2Z</time></trkpt>
<trkpt lat="44.423130266368389" lon="5.363552598282695"><ele></ele><time>2015-2-3T3:22:5Z</time></trkpt>
<trkpt lat="44.422740088775754" lon="5.363239115104079"><ele></ele><time>2015-2-3T3:22:8Z</time></trkpt>
<trkpt lat="44.422318981960416" lon="5.362914400175214"><ele></ele><time>2015-2-3T3:22:11Z</time></trkpt>
<trkpt lat="44.422006085515022" lon="5.362428165972233"><ele></ele><time>2015-2-3T3:22:14Z</time></trkpt>
<trkpt lat="44.421833334490657" lon="5.361794913187623"><ele></ele><time>2015-2-3T3:22:17Z</time></trkpt>
<trkpt lat="44.421663265675306" lon="5.361153278499842"><ele></ele><time>2015-2-3T3:22:20Z</time></trkpt>
<trkpt lat="44.421459836885333" lon="5.360564114525914"><ele></ele><time>2015-2-3T3:22:23Z</time></trkpt>
<trkpt lat="44.421158088371158" lon="5.359966987743974"><ele></ele><time>2015-2-3T3:22:26Z</time></trkpt>
<trkpt lat="44.420797415077686" lon="5.359520148485899"><ele></ele><time>2015-2-3T3:22:29Z</time></trkpt>
<trkpt lat="44.420420564711094" lon="5.359161989763379"><ele></ele><time>2015-2-3T3:22:32Z</time></trkpt>
<trkpt lat="44.419944807887077" lon="5.358858229592443"><ele></ele><time>2015-2-3T3:22:35Z</time></trkpt>
<trkpt lat="44.419455556198955" lon="5.358609706163406"><ele></ele><time>2015-2-3T3:22:38Z</time></trkpt>
<trkpt lat="44.418973932042718" lon="5.35835187882185"><ele></ele><time>2015-2-3T3:22:41Z</time></trkpt>
<trkpt lat="44.418488787487149" lon="5.358111569657922"><ele></ele><time>2015-2-3T3:22:44Z</time></trkpt>
<trkpt lat="44.418007833883166" lon="5.357862794771791"><ele></ele><time>2015-2-3T3:22:47Z</time></trkpt>
<trkpt lat="44.4175242818892" lon="5.35758962854743"><ele></ele><time>2015-2-3T3:22:50Z</time></trkpt>
<trkpt lat="44.417059505358338" lon="5.357334902510047"><ele></ele><time>2015-2-3T3:22:53Z</time></trkpt>
<trkpt lat="44.416636973619461" lon="5.357108674943447"><ele></ele><time>2015-2-3T3:22:56Z</time></trkpt>
<trkpt lat="44.416189212352037" lon="5.35684204660356"><ele></ele><time>2015-2-3T3:22:59Z</time></trkpt>
<trkpt lat="44.415715551003814" lon="5.356584303081036"><ele></ele><time>2015-2-3T3:23:2Z</time></trkpt>
<trkpt lat="44.415265778079629" lon="5.356352040544152"><ele></ele><time>2015-2-3T3:23:5Z</time></trkpt>
<trkpt lat="44.414805360138416" lon="5.356109635904431"><ele></ele><time>2015-2-3T3:23:8Z</time></trkpt>
<trkpt lat="44.414348127320409" lon="5.355855161324143"><ele></ele><time>2015-2-3T3:23:11Z</time></trkpt>
<trkpt lat="44.41392601467669" lon="5.355592053383589"><ele></ele><time>2015-2-3T3:23:14Z</time></trkpt>
<trkpt lat="44.413581602275372" lon="5.355070196092129"><ele></ele><time>2015-2-3T3:23:17Z</time></trkpt>
<trkpt lat="44.41326149739325" lon="5.354571556672454"><ele></ele><time>2015-2-3T3:23:20Z</time></trkpt>
<trkpt lat="44.412929574027658" lon="5.354070654138923"><ele></ele><time>2015-2-3T3:23:23Z</time></trkpt>
<trkpt lat="44.412589184939861" lon="5.353518202900887"><ele></ele><time>2015-2-3T3:23:26Z</time></trkpt>
<trkpt lat="44.412280647084117" lon="5.353028196841478"><ele></ele><time>2015-2-3T3:23:29Z</time></trkpt>
<trkpt lat="44.411967415362597" lon="5.352526204660535"><ele></ele><time>2015-2-3T3:23:32Z</time></trkpt>
<trkpt lat="44.411649322137237" lon="5.352017171680927"><ele></ele><time>2015-2-3T3:23:35Z</time></trkpt>
<trkpt lat="44.411334497854114" lon="5.351520041003823"><ele></ele><time>2015-2-3T3:23:38Z</time></trkpt>
<trkpt lat="44.411023613065481" lon="5.351041601970792"><ele></ele><time>2015-2-3T3:23:41Z</time></trkpt>
<trkpt lat="44.410699065774679" lon="5.350529719144106"><ele></ele><time>2015-2-3T3:23:44Z</time></trkpt>
<trkpt lat="44.410414667800069" lon="5.350011130794883"><ele></ele><time>2015-2-3T3:23:47Z</time></trkpt>
<trkpt lat="44.410207802429795" lon="5.349439484998584"><ele></ele><time>2015-2-3T3:23:50Z</time></trkpt>
<trkpt lat="44.4100072234869" lon="5.348840681836009"><ele></ele><time>2015-2-3T3:23:53Z</time></trkpt>
<trkpt lat="44.409568095579743" lon="5.348990131169558"><ele></ele><time>2015-2-3T3:23:56Z</time></trkpt>
<trkpt lat="44.409129051491618" lon="5.349187944084406"><ele></ele><time>2015-2-3T3:23:59Z</time></trkpt>
<trkpt lat="44.408689839765429" lon="5.349405538290739"><ele></ele><time>2015-2-3T3:24:2Z</time></trkpt>
<trkpt lat="44.408256914466619" lon="5.349661102518439"><ele></ele><time>2015-2-3T3:24:5Z</time></trkpt>
<trkpt lat="44.407804124057293" lon="5.349845085293055"><ele></ele><time>2015-2-3T3:24:8Z</time></trkpt>
<trkpt lat="44.407354099676013" lon="5.349972657859325"><ele></ele><time>2015-2-3T3:24:11Z</time></trkpt>
<trkpt lat="44.406858393922448" lon="5.350093776360154"><ele></ele><time>2015-2-3T3:24:14Z</time></trkpt>
<trkpt lat="44.40635908395052" lon="5.350053459405899"><ele></ele><time>2015-2-3T3:24:17Z</time></trkpt>
<trkpt lat="44.405936300754547" lon="5.349826896563172"><ele></ele><time>2015-2-3T3:24:20Z</time></trkpt>
<trkpt lat="44.405450569465756" lon="5.349688427522779"><ele></ele><time>2015-2-3T3:24:23Z</time></trkpt>
<trkpt lat="44.405001299455762" lon="5.349730085581541"><ele></ele><time>2015-2-3T3:24:26Z</time></trkpt>
<trkpt lat="44.404555549845099" lon="5.349848940968514"><ele></ele><time>2015-2-3T3:24:29Z</time></trkpt>
<trkpt lat="44.404095634818077" lon="5.349972071126103"><ele></ele><time>2015-2-3T3:24:32Z</time></trkpt>
<trkpt lat="44.403643012046814" lon="5.350103164091706"><ele></ele><time>2015-2-3T3:24:35Z</time></trkpt>
<trkpt lat="44.403168177232146" lon="5.350282620638609"><ele></ele><time>2015-2-3T3:24:38Z</time></trkpt>
<trkpt lat="44.40268998965621" lon="5.350266862660646"><ele></ele><time>2015-2-3T3:24:41Z</time></trkpt>
<trkpt lat="44.402215657755733" lon="5.350101152434945"><ele></ele><time>2015-2-3T3:24:44Z</time></trkpt>
<trkpt lat="44.401782900094986" lon="5.349932843819261"><ele></ele><time>2015-2-3T3:24:47Z</time></trkpt>
<trkpt lat="44.40133111551404" lon="5.349951284006238"><ele></ele><time>2015-2-3T3:24:50Z</time></trkpt>
<trkpt lat="44.400854017585516" lon="5.350091261789203"><ele></ele><time>2015-2-3T3:24:53Z</time></trkpt>
<trkpt lat="44.400401143357158" lon="5.350051950663328"><ele></ele><time>2015-2-3T3:24:56Z</time></trkpt>
<trkpt lat="44.399965703487396" lon="5.350004089996219"><ele></ele><time>2015-2-3T3:24:59Z</time></trkpt>
<trkpt lat="44.399513164535165" lon="5.35000417381525"><ele></ele><time>2015-2-3T3:25:2Z</time></trkpt>
<trkpt lat="44.399056350812316" lon="5.350152784958482"><ele></ele><time>2015-2-3T3:25:5Z</time></trkpt>
<trkpt lat="44.398630047217011" lon="5.350417234003544"><ele></ele><time>2015-2-3T3:25:8Z</time></trkpt>
<trkpt lat="44.398264093324542" lon="5.350780840963125"><ele></ele><time>2015-2-3T3:25:11Z</time></trkpt>
<trkpt lat="44.397877939045429" lon="5.351171270012856"><ele></ele><time>2015-2-3T3:25:14Z</time></trkpt>
<trkpt lat="44.397412575781345" lon="5.35136891528964"><ele></ele><time>2015-2-3T3:25:17Z</time></trkpt>
<trkpt lat="44.396978644654155" lon="5.351533032953739"><ele></ele><time>2015-2-3T3:25:20Z</time></trkpt>
<trkpt lat="44.396508671343327" lon="5.351698910817504"><ele></ele><time>2015-2-3T3:25:23Z</time></trkpt>
<trkpt lat="44.396078679710627" lon="5.352022452279925"><ele></ele><time>2015-2-3T3:25:26Z</time></trkpt>
<trkpt lat="44.395715575665236" lon="5.352442134171724"><ele></ele><time>2015-2-3T3:25:29Z</time></trkpt>
<trkpt lat="44.395387591794133" lon="5.352885453030467"><ele></ele><time>2015-2-3T3:25:32Z</time></trkpt>
<trkpt lat="44.395065475255251" lon="5.353416865691543"><ele></ele><time>2015-2-3T3:25:35Z</time></trkpt>
<trkpt lat="44.394779484719038" lon="5.353983147069812"><ele></ele><time>2015-2-3T3:25:38Z</time></trkpt>
<trkpt lat="44.394600782543421" lon="5.354584464803338"><ele></ele><time>2015-2-3T3:25:41Z</time></trkpt>
<trkpt lat="44.394535990431905" lon="5.355253173038364"><ele></ele><time>2015-2-3T3:25:44Z</time></trkpt>
<trkpt lat="44.394474970176816" lon="5.355923809111118"><ele></ele><time>2015-2-3T3:25:47Z</time></trkpt>
<trkpt lat="44.394406909123063" lon="5.356615735217929"><ele></ele><time>2015-2-3T3:25:50Z</time></trkpt>
<trkpt lat="44.394327867776155" lon="5.357309589162469"><ele></ele><time>2015-2-3T3:25:53Z</time></trkpt>
<trkpt lat="44.394263159483671" lon="5.35796002484858"><ele></ele><time>2015-2-3T3:25:56Z</time></trkpt>
<trkpt lat="44.394235583022237" lon="5.358656896278262"><ele></ele><time>2015-2-3T3:25:59Z</time></trkpt>
<trkpt lat="44.394250754266977" lon="5.35936089232564"><ele></ele><time>2015-2-3T3:26:2Z</time></trkpt>
<trkpt lat="44.394263410940766" lon="5.360018955543637"><ele></ele><time>2015-2-3T3:26:5Z</time></trkpt>
<trkpt lat="44.394277660176158" lon="5.360708115622401"><ele></ele><time>2015-2-3T3:26:8Z</time></trkpt>
<trkpt lat="44.394228123128414" lon="5.361360060051084"><ele></ele><time>2015-2-3T3:26:11Z</time></trkpt>
<trkpt lat="44.39399971626699" lon="5.361950229853392"><ele></ele><time>2015-2-3T3:26:14Z</time></trkpt>
<trkpt lat="44.39377742819488" lon="5.362500669434667"><ele></ele><time>2015-2-3T3:26:17Z</time></trkpt>
<trkpt lat="44.393561845645308" lon="5.363059910014272"><ele></ele><time>2015-2-3T3:26:20Z</time></trkpt>
<trkpt lat="44.393436117097735" lon="5.363719565793872"><ele></ele><time>2015-2-3T3:26:23Z</time></trkpt>
<trkpt lat="44.393362523987889" lon="5.364347789436579"><ele></ele><time>2015-2-3T3:26:26Z</time></trkpt>
<trkpt lat="44.393199160695076" lon="5.364992609247565"><ele></ele><time>2015-2-3T3:26:29Z</time></trkpt>
<trkpt lat="44.392891712486744" lon="5.36549954675138"><ele></ele><time>2015-2-3T3:26:32Z</time></trkpt>
<trkpt lat="44.392622988671064" lon="5.366031294688582"><ele></ele><time>2015-2-3T3:26:35Z</time></trkpt>
<trkpt lat="44.392457362264395" lon="5.366657422855496"><ele></ele><time>2015-2-3T3:26:38Z</time></trkpt>
<trkpt lat="44.392376644536853" lon="5.367302326485515"><ele></ele><time>2015-2-3T3:26:41Z</time></trkpt>
<trkpt lat="44.392114290967584" lon="5.367851424962282"><ele></ele><time>2015-2-3T3:26:44Z</time></trkpt>
<trkpt lat="44.391755377873778" lon="5.368262557312846"><ele></ele><time>2015-2-3T3:26:47Z</time></trkpt>
<trkpt lat="44.391392860561609" lon="5.368645526468754"><ele></ele><time>2015-2-3T3:26:50Z</time></trkpt>
<trkpt lat="44.390980219468474" lon="5.369049115106463"><ele></ele><time>2015-2-3T3:26:53Z</time></trkpt>
<trkpt lat="44.390591466799378" lon="5.369472987949848"><ele></ele><time>2015-2-3T3:26:56Z</time></trkpt>
<trkpt lat="44.390209000557661" lon="5.369902895763516"><ele></ele><time>2015-2-3T3:26:59Z</time></trkpt>
<trkpt lat="44.389864755794406" lon="5.370306400582194"><ele></ele><time>2015-2-3T3:27:2Z</time></trkpt>
<trkpt lat="44.389509195461869" lon="5.370779642835259"><ele></ele><time>2015-2-3T3:27:5Z</time></trkpt>
<trkpt lat="44.389278022572398" lon="5.371398478746414"><ele></ele><time>2015-2-3T3:27:8Z</time></trkpt>
<trkpt lat="44.389268886297941" lon="5.372054781764746"><ele></ele><time>2015-2-3T3:27:11Z</time></trkpt>
<trkpt lat="44.389358321204782" lon="5.372688788920641"><ele></ele><time>2015-2-3T3:27:14Z</time></trkpt>
<trkpt lat="44.389511710032821" lon="5.373327657580376"><ele></ele><time>2015-2-3T3:27:17Z</time></trkpt>
<trkpt lat="44.389684796333313" lon="5.373965855687857"><ele></ele><time>2015-2-3T3:27:20Z</time></trkpt>
<trkpt lat="44.389748750254512" lon="5.374618973582983"><ele></ele><time>2015-2-3T3:27:23Z</time></trkpt>
<trkpt lat="44.389646491035819" lon="5.375230014324188"><ele></ele><time>2015-2-3T3:27:26Z</time></trkpt>
<trkpt lat="44.389568958431482" lon="5.375899728387594"><ele></ele><time>2015-2-3T3:27:29Z</time></trkpt>
<trkpt lat="44.389546662569046" lon="5.376565922051668"><ele></ele><time>2015-2-3T3:27:32Z</time></trkpt>
<trkpt lat="44.389561833813787" lon="5.377205880358815"><ele></ele><time>2015-2-3T3:27:35Z</time></trkpt>
<trkpt lat="44.389585889875889" lon="5.377892525866628"><ele></ele><time>2015-2-3T3:27:38Z</time></trkpt>
<trkpt lat="44.389750761911273" lon="5.378475738689303"><ele></ele><time>2015-2-3T3:27:41Z</time></trkpt>
<trkpt lat="44.389995513483882" lon="5.379050988703966"><ele></ele><time>2015-2-3T3:27:44Z</time></trkpt>
<trkpt lat="44.389955028891563" lon="5.379724390804768"><ele></ele><time>2015-2-3T3:27:47Z</time></trkpt>
<trkpt lat="44.389796191826463" lon="5.380311626940966"><ele></ele><time>2015-2-3T3:27:50Z</time></trkpt>
<trkpt lat="44.389816978946328" lon="5.380985196679831"><ele></ele><time>2015-2-3T3:27:53Z</time></trkpt>
<trkpt lat="44.389594020321965" lon="5.381538402289152"><ele></ele><time>2015-2-3T3:27:56Z</time></trkpt>
<trkpt lat="44.389342814683914" lon="5.382079118862748"><ele></ele><time>2015-2-3T3:27:59Z</time></trkpt>
<trkpt lat="44.389300486072898" lon="5.382738104090095"><ele></ele><time>2015-2-3T3:28:2Z</time></trkpt>
<trkpt lat="44.389443900436163" lon="5.38334964774549"><ele></ele><time>2015-2-3T3:28:5Z</time></trkpt>
<trkpt lat="44.389647748321295" lon="5.383940236642957"><ele></ele><time>2015-2-3T3:28:8Z</time></trkpt>
<trkpt lat="44.389787139371037" lon="5.384592348709703"><ele></ele><time>2015-2-3T3:28:11Z</time></trkpt>
<trkpt lat="44.389639869332314" lon="5.385228870436549"><ele></ele><time>2015-2-3T3:28:14Z</time></trkpt>
<trkpt lat="44.389325464144349" lon="5.38577520288527"><ele></ele><time>2015-2-3T3:28:17Z</time></trkpt>
<trkpt lat="44.389135362580419" lon="5.386369312182069"><ele></ele><time>2015-2-3T3:28:20Z</time></trkpt>
<trkpt lat="44.388855993747711" lon="5.386901060119271"><ele></ele><time>2015-2-3T3:28:23Z</time></trkpt>
<trkpt lat="44.388443185016513" lon="5.387300457805395"><ele></ele><time>2015-2-3T3:28:26Z</time></trkpt>
<trkpt lat="44.388014283031225" lon="5.387573037296534"><ele></ele><time>2015-2-3T3:28:29Z</time></trkpt>
<trkpt lat="44.387557720765471" lon="5.387729024514556"><ele></ele><time>2015-2-3T3:28:32Z</time></trkpt>
<trkpt lat="44.387231497094035" lon="5.388174019753933"><ele></ele><time>2015-2-3T3:28:35Z</time></trkpt>
<trkpt lat="44.38703628256917" lon="5.388748431578279"><ele></ele><time>2015-2-3T3:28:38Z</time></trkpt>
<trkpt lat="44.386930335313082" lon="5.389426443725824"><ele></ele><time>2015-2-3T3:28:41Z</time></trkpt>
<trkpt lat="44.386919271200895" lon="5.390096995979548"><ele></ele><time>2015-2-3T3:28:44Z</time></trkpt>
<trkpt lat="44.386856406927109" lon="5.390765201300383"><ele></ele><time>2015-2-3T3:28:47Z</time></trkpt>
<trkpt lat="44.38668449409306" lon="5.391346151009202"><ele></ele><time>2015-2-3T3:28:50Z</time></trkpt>
<trkpt lat="44.386475365608931" lon="5.391960125416517"><ele></ele><time>2015-2-3T3:28:53Z</time></trkpt>
<trkpt lat="44.386231787502766" lon="5.392524227499962"><ele></ele><time>2015-2-3T3:28:56Z</time></trkpt>
<trkpt lat="44.385975804179907" lon="5.393063016235828"><ele></ele><time>2015-2-3T3:28:59Z</time></trkpt>
<trkpt lat="44.385723927989602" lon="5.39361379109323"><ele></ele><time>2015-2-3T3:29:2Z</time></trkpt>
<trkpt lat="44.385456461459398" lon="5.394122153520584"><ele></ele><time>2015-2-3T3:29:5Z</time></trkpt>
<trkpt lat="44.385125376284122" lon="5.394590282812715"><ele></ele><time>2015-2-3T3:29:8Z</time></trkpt>
<trkpt lat="44.384741988033056" lon="5.39500636048615"><ele></ele><time>2015-2-3T3:29:11Z</time></trkpt>
<trkpt lat="44.384366143494844" lon="5.395369548350573"><ele></ele><time>2015-2-3T3:29:14Z</time></trkpt>
<trkpt lat="44.384025000035763" lon="5.395833319053054"><ele></ele><time>2015-2-3T3:29:17Z</time></trkpt>
<trkpt lat="44.38375610858202" lon="5.396399684250355"><ele></ele><time>2015-2-3T3:29:20Z</time></trkpt>
<trkpt lat="44.383540777489543" lon="5.397009970620275"><ele></ele><time>2015-2-3T3:29:23Z</time></trkpt>
<trkpt lat="44.383180439472198" lon="5.397440129891038"><ele></ele><time>2015-2-3T3:29:26Z</time></trkpt>
<trkpt lat="44.382720105350018" lon="5.397488661110401"><ele></ele><time>2015-2-3T3:29:29Z</time></trkpt>
<trkpt lat="44.382231859490275" lon="5.39750131778419"><ele></ele><time>2015-2-3T3:29:32Z</time></trkpt>
<trkpt lat="44.381789714097977" lon="5.397677756845951"><ele></ele><time>2015-2-3T3:29:35Z</time></trkpt>
<trkpt lat="44.381356704980135" lon="5.397955616936088"><ele></ele><time>2015-2-3T3:29:38Z</time></trkpt>
<trkpt lat="44.380969712510705" lon="5.398317379876971"><ele></ele><time>2015-2-3T3:29:41Z</time></trkpt>
<trkpt lat="44.380692774429917" lon="5.398859605193138"><ele></ele><time>2015-2-3T3:29:44Z</time></trkpt>
<trkpt lat="44.380588755011559" lon="5.399486655369401"><ele></ele><time>2015-2-3T3:29:47Z</time></trkpt>
<trkpt lat="44.380579870194197" lon="5.400160392746329"><ele></ele><time>2015-2-3T3:29:50Z</time></trkpt>
<trkpt lat="44.380563860759139" lon="5.400832453742623"><ele></ele><time>2015-2-3T3:29:53Z</time></trkpt>
<trkpt lat="44.380555227398872" lon="5.401492863893509"><ele></ele><time>2015-2-3T3:29:56Z</time></trkpt>
<trkpt lat="44.380569560453296" lon="5.402155788615346"><ele></ele><time>2015-2-3T3:29:59Z</time></trkpt>
<trkpt lat="44.38066796399653" lon="5.402813935652375"><ele></ele><time>2015-2-3T3:30:2Z</time></trkpt>
<trkpt lat="44.380835518240929" lon="5.403423048555851"><ele></ele><time>2015-2-3T3:30:5Z</time></trkpt>
<trkpt lat="44.381101643666625" lon="5.404013302177191"><ele></ele><time>2015-2-3T3:30:8Z</time></trkpt>
<trkpt lat="44.381387131288648" lon="5.404571872204542"><ele></ele><time>2015-2-3T3:30:11Z</time></trkpt>
<trkpt lat="44.381559295579791" lon="5.405195569619536"><ele></ele><time>2015-2-3T3:30:14Z</time></trkpt>
<trkpt lat="44.381573041900992" lon="5.405831756070256"><ele></ele><time>2015-2-3T3:30:17Z</time></trkpt>
<trkpt lat="44.381438093259931" lon="5.406481185927987"><ele></ele><time>2015-2-3T3:30:20Z</time></trkpt>
<trkpt lat="44.381215469911695" lon="5.407035313546658"><ele></ele><time>2015-2-3T3:30:23Z</time></trkpt>
<trkpt lat="44.380823029205203" lon="5.40736623108387"><ele></ele><time>2015-2-3T3:30:26Z</time></trkpt>
<trkpt lat="44.380462439730763" lon="5.407821536064148"><ele></ele><time>2015-2-3T3:30:29Z</time></trkpt>
<trkpt lat="44.380163792520761" lon="5.4083645157516"><ele></ele><time>2015-2-3T3:30:32Z</time></trkpt>
<trkpt lat="44.379935972392559" lon="5.408944543451071"><ele></ele><time>2015-2-3T3:30:35Z</time></trkpt>
<trkpt lat="44.379796413704753" lon="5.40956798940897"><ele></ele><time>2015-2-3T3:30:38Z</time></trkpt>
<trkpt lat="44.379686359316111" lon="5.410184394568205"><ele></ele><time>2015-2-3T3:30:41Z</time></trkpt>
<trkpt lat="44.379549399018288" lon="5.410840446129441"><ele></ele><time>2015-2-3T3:30:44Z</time></trkpt>
<trkpt lat="44.379489384591579" lon="5.411487696692348"><ele></ele><time>2015-2-3T3:30:47Z</time></trkpt>
<trkpt lat="44.379523750394583" lon="5.412174090743065"><ele></ele><time>2015-2-3T3:30:50Z</time></trkpt>
<trkpt lat="44.379646461457014" lon="5.412821341305971"><ele></ele><time>2015-2-3T3:30:53Z</time></trkpt>
<trkpt lat="44.37984804622829" lon="5.413433136418462"><ele></ele><time>2015-2-3T3:30:56Z</time></trkpt>
<trkpt lat="44.3799355532974" lon="5.414060689508915"><ele></ele><time>2015-2-3T3:30:59Z</time></trkpt>
<trkpt lat="44.379991125315428" lon="5.41474649682641"><ele></ele><time>2015-2-3T3:31:2Z</time></trkpt>
<trkpt lat="44.380059437826276" lon="5.415394920855761"><ele></ele><time>2015-2-3T3:31:5Z</time></trkpt>
<trkpt lat="44.380093133077025" lon="5.416062539443374"><ele></ele><time>2015-2-3T3:31:8Z</time></trkpt>
<trkpt lat="44.380064886063337" lon="5.416736695915461"><ele></ele><time>2015-2-3T3:31:11Z</time></trkpt>
<trkpt lat="44.380037393420935" lon="5.417390652000904"><ele></ele><time>2015-2-3T3:31:14Z</time></trkpt>
<trkpt lat="44.380000680685043" lon="5.418046787381172"><ele></ele><time>2015-2-3T3:31:17Z</time></trkpt>
<trkpt lat="44.379932954907417" lon="5.418727565556765"><ele></ele><time>2015-2-3T3:31:20Z</time></trkpt>
<trkpt lat="44.379829522222281" lon="5.419349502772093"><ele></ele><time>2015-2-3T3:31:23Z</time></trkpt>
<trkpt lat="44.379709074273705" lon="5.420027179643512"><ele></ele><time>2015-2-3T3:31:26Z</time></trkpt>
<trkpt lat="44.379631793126464" lon="5.420653223991394"><ele></ele><time>2015-2-3T3:31:29Z</time></trkpt>
<trkpt lat="44.379659537225962" lon="5.421302318572998"><ele></ele><time>2015-2-3T3:31:32Z</time></trkpt>
<trkpt lat="44.379801275208592" lon="5.42191369459033"><ele></ele><time>2015-2-3T3:31:35Z</time></trkpt>
<trkpt lat="44.380010990425944" lon="5.422537727281451"><ele></ele><time>2015-2-3T3:31:38Z</time></trkpt>
<trkpt lat="44.380233194679022" lon="5.423132423311472"><ele></ele><time>2015-2-3T3:31:41Z</time></trkpt>
<trkpt lat="44.380461433902383" lon="5.423731226474047"><ele></ele><time>2015-2-3T3:31:44Z</time></trkpt>
<trkpt lat="44.380566375330091" lon="5.424346290528774"><ele></ele><time>2015-2-3T3:31:47Z</time></trkpt>
<trkpt lat="44.380510803312063" lon="5.424982644617558"><ele></ele><time>2015-2-3T3:31:50Z</time></trkpt>
<trkpt lat="44.380243001505733" lon="5.425470471382141"><ele></ele><time>2015-2-3T3:31:53Z</time></trkpt>
<trkpt lat="44.379844609647989" lon="5.425840448588133"><ele></ele><time>2015-2-3T3:31:56Z</time></trkpt>
<trkpt lat="44.379415456205606" lon="5.426072962582111"><ele></ele><time>2015-2-3T3:31:59Z</time></trkpt>
<trkpt lat="44.37899393029511" lon="5.4262116830796"><ele></ele><time>2015-2-3T3:32:2Z</time></trkpt>
<trkpt lat="44.378781449049711" lon="5.426744436845183"><ele></ele><time>2015-2-3T3:32:5Z</time></trkpt>
<trkpt lat="44.378452962264419" lon="5.42718306183815"><ele></ele><time>2015-2-3T3:32:8Z</time></trkpt>
<trkpt lat="44.378096060827374" lon="5.427563600242138"><ele></ele><time>2015-2-3T3:32:11Z</time></trkpt>
<trkpt lat="44.377779895439744" lon="5.428019324317575"><ele></ele><time>2015-2-3T3:32:14Z</time></trkpt>
<trkpt lat="44.377572778612375" lon="5.428616618737578"><ele></ele><time>2015-2-3T3:32:17Z</time></trkpt>
<trkpt lat="44.377209758386016" lon="5.429001012817025"><ele></ele><time>2015-2-3T3:32:20Z</time></trkpt>
<trkpt lat="44.376756800338626" lon="5.429232520982623"><ele></ele><time>2015-2-3T3:32:23Z</time></trkpt>
<trkpt lat="44.376286994665861" lon="5.429303096607328"><ele></ele><time>2015-2-3T3:32:26Z</time></trkpt>
<trkpt lat="44.375793887302279" lon="5.429383646696806"><ele></ele><time>2015-2-3T3:32:29Z</time></trkpt>
<trkpt lat="44.375322489067912" lon="5.429460508748889"><ele></ele><time>2015-2-3T3:32:32Z</time></trkpt>
<trkpt lat="44.37483474612236" lon="5.429561091586947"><ele></ele><time>2015-2-3T3:32:35Z</time></trkpt>
<trkpt lat="44.374346835538745" lon="5.429654298350215"><ele></ele><time>2015-2-3T3:32:38Z</time></trkpt>
<trkpt lat="44.373854901641607" lon="5.429701488465071"><ele></ele><time>2015-2-3T3:32:41Z</time></trkpt>
<trkpt lat="44.373431028798223" lon="5.430001644417644"><ele></ele><time>2015-2-3T3:32:44Z</time></trkpt>
<trkpt lat="44.373203460127115" lon="5.430557448416948"><ele></ele><time>2015-2-3T3:32:47Z</time></trkpt>
<trkpt lat="44.372957702726126" lon="5.431109983474016"><ele></ele><time>2015-2-3T3:32:50Z</time></trkpt>
<trkpt lat="44.372543720528483" lon="5.431385077536106"><ele></ele><time>2015-2-3T3:32:53Z</time></trkpt>
<trkpt lat="44.372087577357888" lon="5.43148834258318"><ele></ele><time>2015-2-3T3:32:56Z</time></trkpt>
<trkpt lat="44.371605031192303" lon="5.431444169953466"><ele></ele><time>2015-2-3T3:32:59Z</time></trkpt>
<trkpt lat="44.371173027902842" lon="5.431255158036947"><ele></ele><time>2015-2-3T3:33:2Z</time></trkpt>
<trkpt lat="44.37072928994894" lon="5.43115122243762"><ele></ele><time>2015-2-3T3:33:5Z</time></trkpt>
<trkpt lat="44.370329137891531" lon="5.43146638199687"><ele></ele><time>2015-2-3T3:33:8Z</time></trkpt>
<trkpt lat="44.369981288909912" lon="5.431925123557448"><ele></ele><time>2015-2-3T3:33:11Z</time></trkpt>
<trkpt lat="44.369660094380379" lon="5.432418147101998"><ele></ele><time>2015-2-3T3:33:14Z</time></trkpt>
<trkpt lat="44.369343426078558" lon="5.432887617498636"><ele></ele><time>2015-2-3T3:33:17Z</time></trkpt>
<trkpt lat="44.369007982313633" lon="5.433314424008131"><ele></ele><time>2015-2-3T3:33:20Z</time></trkpt>
<trkpt lat="44.36870539560914" lon="5.433779619634152"><ele></ele><time>2015-2-3T3:33:23Z</time></trkpt>
<trkpt lat="44.368312787264585" lon="5.434164935722947"><ele></ele><time>2015-2-3T3:33:26Z</time></trkpt>
<trkpt lat="44.368219999596477" lon="5.434759128838778"><ele></ele><time>2015-2-3T3:33:29Z</time></trkpt>
<trkpt lat="44.368173396214843" lon="5.435404786840081"><ele></ele><time>2015-2-3T3:33:32Z</time></trkpt>
<trkpt lat="44.367983881384134" lon="5.436009457334876"><ele></ele><time>2015-2-3T3:33:35Z</time></trkpt>
<trkpt lat="44.367795791476965" lon="5.436577582731843"><ele></ele><time>2015-2-3T3:33:38Z</time></trkpt>
<trkpt lat="44.367665704339743" lon="5.437222486361861"><ele></ele><time>2015-2-3T3:33:41Z</time></trkpt>
<trkpt lat="44.367371834814548" lon="5.437785750254989"><ele></ele><time>2015-2-3T3:33:44Z</time></trkpt>
<trkpt lat="44.367176620289683" lon="5.438400730490685"><ele></ele><time>2015-2-3T3:33:47Z</time></trkpt>
<trkpt lat="44.367121802642941" lon="5.439084442332387"><ele></ele><time>2015-2-3T3:33:50Z</time></trkpt>
<trkpt lat="44.367087436839938" lon="5.439717276021838"><ele></ele><time>2015-2-3T3:33:53Z</time></trkpt>
<trkpt lat="44.367047036066651" lon="5.440395036712289"><ele></ele><time>2015-2-3T3:33:56Z</time></trkpt>
<trkpt lat="44.367056926712394" lon="5.441054189577699"><ele></ele><time>2015-2-3T3:33:59Z</time></trkpt>
<trkpt lat="44.367135632783175" lon="5.441716024652124"><ele></ele><time>2015-2-3T3:34:2Z</time></trkpt>
<trkpt lat="44.367277286946774" lon="5.442365538328886"><ele></ele><time>2015-2-3T3:34:5Z</time></trkpt>
<trkpt lat="44.367418605834246" lon="5.443002562969923"><ele></ele><time>2015-2-3T3:34:8Z</time></trkpt>
<trkpt lat="44.367224229499698" lon="5.443602036684752"><ele></ele><time>2015-2-3T3:34:11Z</time></trkpt>
<trkpt lat="44.367232359945774" lon="5.444258507341147"><ele></ele><time>2015-2-3T3:34:14Z</time></trkpt>
<trkpt lat="44.367334200069308" lon="5.444946829229593"><ele></ele><time>2015-2-3T3:34:17Z</time></trkpt>
<trkpt lat="44.367404021322727" lon="5.445631798356772"><ele></ele><time>2015-2-3T3:34:20Z</time></trkpt>
<trkpt lat="44.367528995499015" lon="5.446240659803152"><ele></ele><time>2015-2-3T3:34:23Z</time></trkpt>
<trkpt lat="44.367720354348421" lon="5.446855053305626"><ele></ele><time>2015-2-3T3:34:26Z</time></trkpt>
<trkpt lat="44.367852956056595" lon="5.447513367980719"><ele></ele><time>2015-2-3T3:34:29Z</time></trkpt>
<trkpt lat="44.36797097325325" lon="5.44814720749855"><ele></ele><time>2015-2-3T3:34:32Z</time></trkpt>
<trkpt lat="44.367783386260271" lon="5.448719607666135"><ele></ele><time>2015-2-3T3:34:35Z</time></trkpt>
<trkpt lat="44.367357920855284" lon="5.449017332866788"><ele></ele><time>2015-2-3T3:34:38Z</time></trkpt>
<trkpt lat="44.36691309325397" lon="5.449118837714195"><ele></ele><time>2015-2-3T3:34:41Z</time></trkpt>
<trkpt lat="44.366470025852323" lon="5.449302401393652"><ele></ele><time>2015-2-3T3:34:44Z</time></trkpt>
<trkpt lat="44.366112956777215" lon="5.449693249538541"><ele></ele><time>2015-2-3T3:34:47Z</time></trkpt>
<trkpt lat="44.366062330082059" lon="5.450344523414969"><ele></ele><time>2015-2-3T3:34:50Z</time></trkpt>
<trkpt lat="44.366045230999589" lon="5.451006023213267"><ele></ele><time>2015-2-3T3:34:53Z</time></trkpt>
<trkpt lat="44.366045230999589" lon="5.451659644022584"><ele></ele><time>2015-2-3T3:34:56Z</time></trkpt>
<trkpt lat="44.366089152172208" lon="5.452333549037576"><ele></ele><time>2015-2-3T3:34:59Z</time></trkpt>
<trkpt lat="44.366140784695745" lon="5.453002173453569"><ele></ele><time>2015-2-3T3:35:2Z</time></trkpt>
<trkpt lat="44.36624757014215" lon="5.453660152852535"><ele></ele><time>2015-2-3T3:35:5Z</time></trkpt>
<trkpt lat="44.366247486323118" lon="5.454320143908262"><ele></ele><time>2015-2-3T3:35:8Z</time></trkpt>
<trkpt lat="44.366164254024625" lon="5.454970328137279"><ele></ele><time>2015-2-3T3:35:11Z</time></trkpt>
<trkpt lat="44.366104071959853" lon="5.45560852624476"><ele></ele><time>2015-2-3T3:35:14Z</time></trkpt>
<trkpt lat="44.366030897945166" lon="5.45628578402102"><ele></ele><time>2015-2-3T3:35:17Z</time></trkpt>
<trkpt lat="44.365775585174561" lon="5.456819208338857"><ele></ele><time>2015-2-3T3:35:20Z</time></trkpt>
<trkpt lat="44.365607444196939" lon="5.457402504980564"><ele></ele><time>2015-2-3T3:35:23Z</time></trkpt>
<trkpt lat="44.365329584106803" lon="5.457959650084376"><ele></ele><time>2015-2-3T3:35:26Z</time></trkpt>
<trkpt lat="44.365139817818999" lon="5.45856817625463"><ele></ele><time>2015-2-3T3:35:29Z</time></trkpt>
<trkpt lat="44.36488576233387" lon="5.459127500653267"><ele></ele><time>2015-2-3T3:35:32Z</time></trkpt>
<trkpt lat="44.36469323001802" lon="5.459705181419849"><ele></ele><time>2015-2-3T3:35:35Z</time></trkpt>
<trkpt lat="44.364502290263772" lon="5.460275318473578"><ele></ele><time>2015-2-3T3:35:38Z</time></trkpt>
<trkpt lat="44.364288970828056" lon="5.460854843258858"><ele></ele><time>2015-2-3T3:35:41Z</time></trkpt>
<trkpt lat="44.364012200385332" lon="5.461409976705909"><ele></ele><time>2015-2-3T3:35:44Z</time></trkpt>
<trkpt lat="44.363845065236092" lon="5.462037194520235"><ele></ele><time>2015-2-3T3:35:47Z</time></trkpt>
<trkpt lat="44.363791672512889" lon="5.462725684046745"><ele></ele><time>2015-2-3T3:35:50Z</time></trkpt>
<trkpt lat="44.363802736625075" lon="5.463397493585944"><ele></ele><time>2015-2-3T3:35:53Z</time></trkpt>
<trkpt lat="44.363722940906882" lon="5.464043151587248"><ele></ele><time>2015-2-3T3:35:56Z</time></trkpt>
<trkpt lat="44.36342085711658" lon="5.464504575356841"><ele></ele><time>2015-2-3T3:35:59Z</time></trkpt>
<trkpt lat="44.362989356741309" lon="5.464709596708417"><ele></ele><time>2015-2-3T3:36:2Z</time></trkpt>
<trkpt lat="44.362522233277559" lon="5.464722756296396"><ele></ele><time>2015-2-3T3:36:5Z</time></trkpt>
<trkpt lat="44.362064581364393" lon="5.464629381895065"><ele></ele><time>2015-2-3T3:36:8Z</time></trkpt>
<trkpt lat="44.361609108746052" lon="5.464502479881048"><ele></ele><time>2015-2-3T3:36:11Z</time></trkpt>
<trkpt lat="44.361163945868611" lon="5.464274156838656"><ele></ele><time>2015-2-3T3:36:14Z</time></trkpt>
<trkpt lat="44.360702354460955" lon="5.464260159060359"><ele></ele><time>2015-2-3T3:36:17Z</time></trkpt>
<trkpt lat="44.360235733911395" lon="5.464340457692742"><ele></ele><time>2015-2-3T3:36:20Z</time></trkpt>
<trkpt lat="44.359785709530115" lon="5.464365603402257"><ele></ele><time>2015-2-3T3:36:23Z</time></trkpt>
<trkpt lat="44.359309617429972" lon="5.46425236389041"><ele></ele><time>2015-2-3T3:36:26Z</time></trkpt>
<trkpt lat="44.358845427632332" lon="5.464153038337827"><ele></ele><time>2015-2-3T3:36:29Z</time></trkpt>
<trkpt lat="44.358361791819334" lon="5.464049438014627"><ele></ele><time>2015-2-3T3:36:32Z</time></trkpt>
<trkpt lat="44.357864828780293" lon="5.463933432474732"><ele></ele><time>2015-2-3T3:36:35Z</time></trkpt>
<trkpt lat="44.357415894046426" lon="5.463771661743522"><ele></ele><time>2015-2-3T3:36:38Z</time></trkpt>
<trkpt lat="44.356930162757635" lon="5.463846260681748"><ele></ele><time>2015-2-3T3:36:41Z</time></trkpt>
<trkpt lat="44.3564916215837" lon="5.464104088023305"><ele></ele><time>2015-2-3T3:36:44Z</time></trkpt>
<trkpt lat="44.35603179037571" lon="5.464338697493076"><ele></ele><time>2015-2-3T3:36:47Z</time></trkpt>
<trkpt lat="44.35560037381947" lon="5.464623430743814"><ele></ele><time>2015-2-3T3:36:50Z</time></trkpt>
<trkpt lat="44.355374649167061" lon="5.465199602767825"><ele></ele><time>2015-2-3T3:36:53Z</time></trkpt>
<trkpt lat="44.355101063847542" lon="5.465719113126397"><ele></ele><time>2015-2-3T3:36:56Z</time></trkpt>
<trkpt lat="44.354738295078278" lon="5.466145919635892"><ele></ele><time>2015-2-3T3:36:59Z</time></trkpt>
<trkpt lat="44.354289025068283" lon="5.466185314580798"><ele></ele><time>2015-2-3T3:37:2Z</time></trkpt>
<trkpt lat="44.353885101154447" lon="5.466499803587794"><ele></ele><time>2015-2-3T3:37:5Z</time></trkpt>
<trkpt lat="44.353473214432597" lon="5.466847652569413"><ele></ele><time>2015-2-3T3:37:8Z</time></trkpt>
<trkpt lat="44.3530448153615" lon="5.467054434120655"><ele></ele><time>2015-2-3T3:37:11Z</time></trkpt>
<trkpt lat="44.352611470967531" lon="5.467374455183744"><ele></ele><time>2015-2-3T3:37:14Z</time></trkpt>
<trkpt lat="44.352174857631326" lon="5.4675667360425"><ele></ele><time>2015-2-3T3:37:17Z</time></trkpt>
<trkpt lat="44.351717289537191" lon="5.46758190728724"><ele></ele><time>2015-2-3T3:37:20Z</time></trkpt>
<trkpt lat="44.351223763078451" lon="5.467623900622129"><ele></ele><time>2015-2-3T3:37:23Z</time></trkpt>
<trkpt lat="44.350884547457099" lon="5.468038888648152"><ele></ele><time>2015-2-3T3:37:26Z</time></trkpt>
<trkpt lat="44.350723195821047" lon="5.468707764521241"><ele></ele><time>2015-2-3T3:37:29Z</time></trkpt>
<trkpt lat="44.350540386512876" lon="5.469302963465452"><ele></ele><time>2015-2-3T3:37:32Z</time></trkpt>
<trkpt lat="44.350286247208714" lon="5.469889445230365"><ele></ele><time>2015-2-3T3:37:35Z</time></trkpt>
<trkpt lat="44.350060522556305" lon="5.470514735206962"><ele></ele><time>2015-2-3T3:37:38Z</time></trkpt>
<trkpt lat="44.349943259730935" lon="5.471170451492071"><ele></ele><time>2015-2-3T3:37:41Z</time></trkpt>
<trkpt lat="44.350035209208727" lon="5.471856677904725"><ele></ele><time>2015-2-3T3:37:44Z</time></trkpt>
<trkpt lat="44.350267555564642" lon="5.472405105829239"><ele></ele><time>2015-2-3T3:37:47Z</time></trkpt>
<trkpt lat="44.350350955501199" lon="5.473079765215516"><ele></ele><time>2015-2-3T3:37:50Z</time></trkpt>
<trkpt lat="44.350428571924567" lon="5.473727518692613"><ele></ele><time>2015-2-3T3:37:53Z</time></trkpt>
<trkpt lat="44.350495124235749" lon="5.474392371252179"><ele></ele><time>2015-2-3T3:37:56Z</time></trkpt>
<trkpt lat="44.350575339049101" lon="5.475046494975686"><ele></ele><time>2015-2-3T3:37:59Z</time></trkpt>
<trkpt lat="44.350732918828726" lon="5.475711431354284"><ele></ele><time>2015-2-3T3:38:2Z</time></trkpt>
<trkpt lat="44.350865185260773" lon="5.476373098790646"><ele></ele><time>2015-2-3T3:38:5Z</time></trkpt>
<trkpt lat="44.35101605951786" lon="5.476997215300798"><ele></ele><time>2015-2-3T3:38:8Z</time></trkpt>
<trkpt lat="44.351094262674451" lon="5.477655278518796"><ele></ele><time>2015-2-3T3:38:11Z</time></trkpt>
<trkpt lat="44.351050844416022" lon="5.47831216827035"><ele></ele><time>2015-2-3T3:38:14Z</time></trkpt>
<trkpt lat="44.350861664861441" lon="5.478879623115063"><ele></ele><time>2015-2-3T3:38:17Z</time></trkpt>
<trkpt lat="44.350551031529903" lon="5.479366527870297"><ele></ele><time>2015-2-3T3:38:20Z</time></trkpt>
<trkpt lat="44.350378951057792" lon="5.47999600879848"><ele></ele><time>2015-2-3T3:38:23Z</time></trkpt>
<trkpt lat="44.350305609405041" lon="5.480633284896612"><ele></ele><time>2015-2-3T3:38:26Z</time></trkpt>
<trkpt lat="44.350114585831761" lon="5.481201326474547"><ele></ele><time>2015-2-3T3:38:29Z</time></trkpt>
<trkpt lat="44.349746704101563" lon="5.481622265651822"><ele></ele><time>2015-2-3T3:38:32Z</time></trkpt>
<trkpt lat="44.349270779639482" lon="5.481594521552324"><ele></ele><time>2015-2-3T3:38:35Z</time></trkpt>
<trkpt lat="44.348809607326984" lon="5.481565520167351"><ele></ele><time>2015-2-3T3:38:38Z</time></trkpt>
<trkpt lat="44.348348351195455" lon="5.481574237346649"><ele></ele><time>2015-2-3T3:38:41Z</time></trkpt>
<trkpt lat="44.347897404804826" lon="5.481678759679198"><ele></ele><time>2015-2-3T3:38:44Z</time></trkpt>
<trkpt lat="44.347455091774464" lon="5.481786383315921"><ele></ele><time>2015-2-3T3:38:47Z</time></trkpt>
<trkpt lat="44.347031638026237" lon="5.482112523168325"><ele></ele><time>2015-2-3T3:38:50Z</time></trkpt>
<trkpt lat="44.346639784052968" lon="5.482483087107539"><ele></ele><time>2015-2-3T3:38:53Z</time></trkpt>
<trkpt lat="44.346211552619934" lon="5.482820123434067"><ele></ele><time>2015-2-3T3:38:56Z</time></trkpt>
<trkpt lat="44.345846520736814" lon="5.483210971578956"><ele></ele><time>2015-2-3T3:38:59Z</time></trkpt>
<trkpt lat="44.345410577952862" lon="5.483476677909493"><ele></ele><time>2015-2-3T3:39:2Z</time></trkpt>
<trkpt lat="44.34495946392417" lon="5.483580613508821"><ele></ele><time>2015-2-3T3:39:5Z</time></trkpt>
<trkpt lat="44.344597281888127" lon="5.483977245166898"><ele></ele><time>2015-2-3T3:39:8Z</time></trkpt>
<trkpt lat="44.344242140650749" lon="5.484409248456359"><ele></ele><time>2015-2-3T3:39:11Z</time></trkpt>
<trkpt lat="44.343846850097179" lon="5.484779560938478"><ele></ele><time>2015-2-3T3:39:14Z</time></trkpt>
<trkpt lat="44.3434745259583" lon="5.485179796814919"><ele></ele><time>2015-2-3T3:39:17Z</time></trkpt>
<trkpt lat="44.34311100281775" lon="5.485562011599541"><ele></ele><time>2015-2-3T3:39:20Z</time></trkpt>
<trkpt lat="44.342706240713596" lon="5.485923103988171"><ele></ele><time>2015-2-3T3:39:23Z</time></trkpt>
<trkpt lat="44.342417987063527" lon="5.486433058977127"><ele></ele><time>2015-2-3T3:39:26Z</time></trkpt>
<trkpt lat="44.342083130031824" lon="5.486922059208155"><ele></ele><time>2015-2-3T3:39:29Z</time></trkpt>
<trkpt lat="44.341738130897284" lon="5.487361857667565"><ele></ele><time>2015-2-3T3:39:32Z</time></trkpt>
<trkpt lat="44.341398747637868" lon="5.487776258960366"><ele></ele><time>2015-2-3T3:39:35Z</time></trkpt>
<trkpt lat="44.341004965826869" lon="5.488128466531634"><ele></ele><time>2015-2-3T3:39:38Z</time></trkpt>
<trkpt lat="44.340569274500012" lon="5.488335499539971"><ele></ele><time>2015-2-3T3:39:41Z</time></trkpt>
<trkpt lat="44.340193094685674" lon="5.488683767616749"><ele></ele><time>2015-2-3T3:39:44Z</time></trkpt>
<trkpt lat="44.339796379208565" lon="5.489072520285845"><ele></ele><time>2015-2-3T3:39:47Z</time></trkpt>
<trkpt lat="44.339347528293729" lon="5.489255664870143"><ele></ele><time>2015-2-3T3:39:50Z</time></trkpt>
<trkpt lat="44.338991465047002" lon="5.489705353975296"><ele></ele><time>2015-2-3T3:39:53Z</time></trkpt>
<trkpt lat="44.338666247203946" lon="5.490204747766256"><ele></ele><time>2015-2-3T3:39:56Z</time></trkpt>
<trkpt lat="44.338506236672401" lon="5.490800533443689"><ele></ele><time>2015-2-3T3:39:59Z</time></trkpt>
<trkpt lat="44.338532639667392" lon="5.491430852562189"><ele></ele><time>2015-2-3T3:40:2Z</time></trkpt>
<trkpt lat="44.338257377967238" lon="5.491953631862998"><ele></ele><time>2015-2-3T3:40:5Z</time></trkpt>
<trkpt lat="44.337908020243049" lon="5.49239351414144"><ele></ele><time>2015-2-3T3:40:8Z</time></trkpt>
<trkpt lat="44.337561512365937" lon="5.492823421955109"><ele></ele><time>2015-2-3T3:40:11Z</time></trkpt>
<trkpt lat="44.337251801043749" lon="5.493327174335718"><ele></ele><time>2015-2-3T3:40:14Z</time></trkpt>
<trkpt lat="44.336969582363963" lon="5.493856826797128"><ele></ele><time>2015-2-3T3:40:17Z</time></trkpt>
<trkpt lat="44.336701361462474" lon="5.494366949424148"><ele></ele><time>2015-2-3T3:40:20Z</time></trkpt>
<trkpt lat="44.33644462376833" lon="5.494914874434471"><ele></ele><time>2015-2-3T3:40:23Z</time></trkpt>
<trkpt lat="44.336222587153316" lon="5.495481407269836"><ele></ele><time>2015-2-3T3:40:26Z</time></trkpt>
<trkpt lat="44.33589200489223" lon="5.495953056961298"><ele></ele><time>2015-2-3T3:40:29Z</time></trkpt>
<trkpt lat="44.335541808977723" lon="5.496421605348587"><ele></ele><time>2015-2-3T3:40:32Z</time></trkpt>
<trkpt lat="44.33526948094368" lon="5.496967937797308"><ele></ele><time>2015-2-3T3:40:35Z</time></trkpt>
<trkpt lat="44.335096143186092" lon="5.49755291081965"><ele></ele><time>2015-2-3T3:40:38Z</time></trkpt>
<trkpt lat="44.334982819855213" lon="5.498161101713777"><ele></ele><time>2015-2-3T3:40:41Z</time></trkpt>
<trkpt lat="44.334779810160398" lon="5.498736603185535"><ele></ele><time>2015-2-3T3:40:44Z</time></trkpt>
<trkpt lat="44.334478564560413" lon="5.499202469363809"><ele></ele><time>2015-2-3T3:40:47Z</time></trkpt>
<trkpt lat="44.33414370752871" lon="5.499649895355105"><ele></ele><time>2015-2-3T3:40:50Z</time></trkpt>
<trkpt lat="44.333706423640251" lon="5.499942926689982"><ele></ele><time>2015-2-3T3:40:53Z</time></trkpt>
<trkpt lat="44.333286993205547" lon="5.500184912234545"><ele></ele><time>2015-2-3T3:40:56Z</time></trkpt>
<trkpt lat="44.332913411781192" lon="5.500556901097298"><ele></ele><time>2015-2-3T3:40:59Z</time></trkpt>
<trkpt lat="44.33266656473279" lon="5.501048499718308"><ele></ele><time>2015-2-3T3:41:2Z</time></trkpt>
<trkpt lat="44.332699086517096" lon="5.501685691997409"><ele></ele><time>2015-2-3T3:41:5Z</time></trkpt>
<trkpt lat="44.332604622468352" lon="5.502309976145625"><ele></ele><time>2015-2-3T3:41:8Z</time></trkpt>
<trkpt lat="44.332751557230949" lon="5.502929231151938"><ele></ele><time>2015-2-3T3:41:11Z</time></trkpt>
<trkpt lat="44.333018437027931" lon="5.503443963825703"><ele></ele><time>2015-2-3T3:41:14Z</time></trkpt>
<trkpt lat="44.333062693476677" lon="5.504054669290781"><ele></ele><time>2015-2-3T3:41:17Z</time></trkpt>
<trkpt lat="44.332743762061" lon="5.504570826888084"><ele></ele><time>2015-2-3T3:41:20Z</time></trkpt>
<trkpt lat="44.332520803436637" lon="5.50515110604465"><ele></ele><time>2015-2-3T3:41:23Z</time></trkpt>
<trkpt lat="44.332671845331788" lon="5.505735240876675"><ele></ele><time>2015-2-3T3:41:26Z</time></trkpt>
<trkpt lat="44.332920955494046" lon="5.506298923864961"><ele></ele><time>2015-2-3T3:41:29Z</time></trkpt>
<trkpt lat="44.33305062353611" lon="5.506910970434547"><ele></ele><time>2015-2-3T3:41:32Z</time></trkpt>
<trkpt lat="44.33329202234745" lon="5.507458643987775"><ele></ele><time>2015-2-3T3:41:35Z</time></trkpt>
<trkpt lat="44.333634087815881" lon="5.507933227345347"><ele></ele><time>2015-2-3T3:41:38Z</time></trkpt>
<trkpt lat="44.333813209086657" lon="5.508503196761012"><ele></ele><time>2015-2-3T3:41:41Z</time></trkpt>
<trkpt lat="44.334064247086644" lon="5.509042236953974"><ele></ele><time>2015-2-3T3:41:44Z</time></trkpt>
<trkpt lat="44.334158711135387" lon="5.509654115885496"><ele></ele><time>2015-2-3T3:41:47Z</time></trkpt>
<trkpt lat="44.334206823259592" lon="5.510315699502826"><ele></ele><time>2015-2-3T3:41:50Z</time></trkpt>
<trkpt lat="44.334254432469606" lon="5.510996310040355"><ele></ele><time>2015-2-3T3:41:53Z</time></trkpt>
<trkpt lat="44.334307489916682" lon="5.511678848415613"><ele></ele><time>2015-2-3T3:41:56Z</time></trkpt>
<trkpt lat="44.334360379725695" lon="5.512321908026934"><ele></ele><time>2015-2-3T3:41:59Z</time></trkpt>
<trkpt lat="44.334161058068275" lon="5.512908138334751"><ele></ele><time>2015-2-3T3:42:2Z</time></trkpt>
<trkpt lat="44.333901889622211" lon="5.51343142054975"><ele></ele><time>2015-2-3T3:42:5Z</time></trkpt>
<trkpt lat="44.333688402548432" lon="5.51400356926024"><ele></ele><time>2015-2-3T3:42:8Z</time></trkpt>
<trkpt lat="44.333531325682998" lon="5.514626679942012"><ele></ele><time>2015-2-3T3:42:11Z</time></trkpt>
<trkpt lat="44.333329992368817" lon="5.51525448448956"><ele></ele><time>2015-2-3T3:42:14Z</time></trkpt>
<trkpt lat="44.333192110061646" lon="5.515881450846791"><ele></ele><time>2015-2-3T3:42:17Z</time></trkpt>
<trkpt lat="44.333019778132439" lon="5.51646382547915"><ele></ele><time>2015-2-3T3:42:20Z</time></trkpt>
<trkpt lat="44.332731692120433" lon="5.517003200948238"><ele></ele><time>2015-2-3T3:42:23Z</time></trkpt>
<trkpt lat="44.332621386274695" lon="5.517645757645369"><ele></ele><time>2015-2-3T3:42:26Z</time></trkpt>
<trkpt lat="44.33248283341527" lon="5.518268197774887"><ele></ele><time>2015-2-3T3:42:29Z</time></trkpt>
<trkpt lat="44.332317961379886" lon="5.518912011757493"><ele></ele><time>2015-2-3T3:42:32Z</time></trkpt>
<trkpt lat="44.332117130979896" lon="5.519501762464643"><ele></ele><time>2015-2-3T3:42:35Z</time></trkpt>
<trkpt lat="44.331877995282412" lon="5.520073575899005"><ele></ele><time>2015-2-3T3:42:38Z</time></trkpt>
<trkpt lat="44.331702645868063" lon="5.520681766793132"><ele></ele><time>2015-2-3T3:42:41Z</time></trkpt>
<trkpt lat="44.33161505497992" lon="5.521319629624486"><ele></ele><time>2015-2-3T3:42:44Z</time></trkpt>
<trkpt lat="44.331562668085098" lon="5.521984482184053"><ele></ele><time>2015-2-3T3:42:47Z</time></trkpt>
<trkpt lat="44.331488907337189" lon="5.522620333358645"><ele></ele><time>2015-2-3T3:42:50Z</time></trkpt>
<trkpt lat="44.331293692812324" lon="5.5232063960284"><ele></ele><time>2015-2-3T3:42:53Z</time></trkpt>
<trkpt lat="44.331121193245053" lon="5.523825231939554"><ele></ele><time>2015-2-3T3:42:56Z</time></trkpt>
<trkpt lat="44.330960344523191" lon="5.524436188861728"><ele></ele><time>2015-2-3T3:42:59Z</time></trkpt>
<trkpt lat="44.330836543813348" lon="5.525055024772883"><ele></ele><time>2015-2-3T3:43:2Z</time></trkpt>
<trkpt lat="44.330675527453423" lon="5.52567495033145"><ele></ele><time>2015-2-3T3:43:5Z</time></trkpt>
<trkpt lat="44.330531693994999" lon="5.526278950273991"><ele></ele><time>2015-2-3T3:43:8Z</time></trkpt>
<trkpt lat="44.330385094508529" lon="5.526887560263276"><ele></ele><time>2015-2-3T3:43:11Z</time></trkpt>
<trkpt lat="44.330187449231744" lon="5.527450488880277"><ele></ele><time>2015-2-3T3:43:14Z</time></trkpt>
<trkpt lat="44.329942530021071" lon="5.528004365041852"><ele></ele><time>2015-2-3T3:43:17Z</time></trkpt>
<trkpt lat="44.32967908680439" lon="5.528545416891575"><ele></ele><time>2015-2-3T3:43:20Z</time></trkpt>
<trkpt lat="44.329417068511248" lon="5.529078170657158"><ele></ele><time>2015-2-3T3:43:23Z</time></trkpt>
<trkpt lat="44.329118253663182" lon="5.529581839218736"><ele></ele><time>2015-2-3T3:43:26Z</time></trkpt>
<trkpt lat="44.32873360812664" lon="5.529954833909869"><ele></ele><time>2015-2-3T3:43:29Z</time></trkpt>
<trkpt lat="44.328352734446526" lon="5.530325397849083"><ele></ele><time>2015-2-3T3:43:32Z</time></trkpt>
<trkpt lat="44.327968005090952" lon="5.530677521601319"><ele></ele><time>2015-2-3T3:43:35Z</time></trkpt>
<trkpt lat="44.32758872397244" lon="5.531054455786943"><ele></ele><time>2015-2-3T3:43:38Z</time></trkpt>
<trkpt lat="44.327151356264949" lon="5.531261069700122"><ele></ele><time>2015-2-3T3:43:41Z</time></trkpt>
<trkpt lat="44.326742067933083" lon="5.531518897041678"><ele></ele><time>2015-2-3T3:43:44Z</time></trkpt>
<trkpt lat="44.326319117099047" lon="5.53172224201262"><ele></ele><time>2015-2-3T3:43:47Z</time></trkpt>
<trkpt lat="44.325846629217267" lon="5.53185903467238"><ele></ele><time>2015-2-3T3:43:50Z</time></trkpt>
<trkpt lat="44.325757781043649" lon="5.532387429848313"><ele></ele><time>2015-2-3T3:43:53Z</time></trkpt>
<trkpt lat="44.325962131842971" lon="5.532951783388853"><ele></ele><time>2015-2-3T3:43:56Z</time></trkpt>
<trkpt lat="44.326036144047976" lon="5.533611103892326"><ele></ele><time>2015-2-3T3:43:59Z</time></trkpt>
<trkpt lat="44.325923155993223" lon="5.534258857369423"><ele></ele><time>2015-2-3T3:44:2Z</time></trkpt>
<trkpt lat="44.326033378019929" lon="5.534889176487923"><ele></ele><time>2015-2-3T3:44:5Z</time></trkpt>
<trkpt lat="44.325896082445979" lon="5.535380188375711"><ele></ele><time>2015-2-3T3:44:8Z</time></trkpt>
<trkpt lat="44.325483022257686" lon="5.535674225538969"><ele></ele><time>2015-2-3T3:44:11Z</time></trkpt>
<trkpt lat="44.325073817744851" lon="5.535941272974014"><ele></ele><time>2015-2-3T3:44:14Z</time></trkpt>
<trkpt lat="44.324618261307478" lon="5.53612039424479"><ele></ele><time>2015-2-3T3:44:17Z</time></trkpt>
<trkpt lat="44.324171505868435" lon="5.53629532456398"><ele></ele><time>2015-2-3T3:44:20Z</time></trkpt>
<trkpt lat="44.323703292757273" lon="5.53641795180738"><ele></ele><time>2015-2-3T3:44:23Z</time></trkpt>
<trkpt lat="44.323284700512886" lon="5.536694638431072"><ele></ele><time>2015-2-3T3:44:26Z</time></trkpt>
<trkpt lat="44.322856971994042" lon="5.536961350589991"><ele></ele><time>2015-2-3T3:44:29Z</time></trkpt>
<trkpt lat="44.322533179074526" lon="5.537472981959581"><ele></ele><time>2015-2-3T3:44:32Z</time></trkpt>
<trkpt lat="44.322153395041823" lon="5.537860561162233"><ele></ele><time>2015-2-3T3:44:35Z</time></trkpt>
<trkpt lat="44.321848712861538" lon="5.538378562778235"><ele></ele><time>2015-2-3T3:44:38Z</time></trkpt>
<trkpt lat="44.321486614644527" lon="5.538757592439652"><ele></ele><time>2015-2-3T3:44:41Z</time></trkpt>
<trkpt lat="44.321317300200462" lon="5.539363268762827"><ele></ele><time>2015-2-3T3:44:44Z</time></trkpt>
<trkpt lat="44.321131305769086" lon="5.539967184886336"><ele></ele><time>2015-2-3T3:44:47Z</time></trkpt>
<trkpt lat="44.320890409871936" lon="5.540528688579798"><ele></ele><time>2015-2-3T3:44:50Z</time></trkpt>
<trkpt lat="44.320806423202157" lon="5.541181974112988"><ele></ele><time>2015-2-3T3:44:53Z</time></trkpt>
<trkpt lat="44.320723107084632" lon="5.541821010410786"><ele></ele><time>2015-2-3T3:44:56Z</time></trkpt>
<trkpt lat="44.320609532296658" lon="5.542452251538634"><ele></ele><time>2015-2-3T3:44:59Z</time></trkpt>
<trkpt lat="44.320583632215858" lon="5.543086342513561"><ele></ele><time>2015-2-3T3:45:2Z</time></trkpt>
<trkpt lat="44.320405684411526" lon="5.543690174818039"><ele></ele><time>2015-2-3T3:45:5Z</time></trkpt>
<trkpt lat="44.320161854848266" lon="5.544256959110498"><ele></ele><time>2015-2-3T3:45:8Z</time></trkpt>
<trkpt lat="44.319954486563802" lon="5.544852828606963"><ele></ele><time>2015-2-3T3:45:11Z</time></trkpt>
<trkpt lat="44.319680901244283" lon="5.545364627614617"><ele></ele><time>2015-2-3T3:45:14Z</time></trkpt>
<trkpt lat="44.319519214332104" lon="5.545967370271683"><ele></ele><time>2015-2-3T3:45:17Z</time></trkpt>
<trkpt lat="44.319498091936111" lon="5.546623421832919"><ele></ele><time>2015-2-3T3:45:20Z</time></trkpt>
<trkpt lat="44.31937730871141" lon="5.547224907204509"><ele></ele><time>2015-2-3T3:45:23Z</time></trkpt>
<trkpt lat="44.319221572950482" lon="5.547830583527684"><ele></ele><time>2015-2-3T3:45:26Z</time></trkpt>
<trkpt lat="44.318929044529796" lon="5.5483219306916"><ele></ele><time>2015-2-3T3:45:29Z</time></trkpt>
<trkpt lat="44.318731650710106" lon="5.548888714984059"><ele></ele><time>2015-2-3T3:45:32Z</time></trkpt>
<trkpt lat="44.318733578547835" lon="5.549546107649803"><ele></ele><time>2015-2-3T3:45:35Z</time></trkpt>
<trkpt lat="44.318477679044008" lon="5.549763198941946"><ele></ele><time>2015-2-3T3:45:38Z</time></trkpt>
<trkpt lat="44.318388495594263" lon="5.549153750762343"><ele></ele><time>2015-2-3T3:45:41Z</time></trkpt>
<trkpt lat="44.318298390135169" lon="5.548530807718635"><ele></ele><time>2015-2-3T3:45:44Z</time></trkpt>
<trkpt lat="44.318178026005626" lon="5.548039544373751"><ele></ele><time>2015-2-3T3:45:47Z</time></trkpt>
<trkpt lat="44.31773747317493" lon="5.547978356480598"><ele></ele><time>2015-2-3T3:45:50Z</time></trkpt>
<trkpt lat="44.317328855395317" lon="5.54776637814939"><ele></ele><time>2015-2-3T3:45:53Z</time></trkpt>
<trkpt lat="44.31706365197897" lon="5.547798732295632"><ele></ele><time>2015-2-3T3:45:56Z</time></trkpt>
<trkpt lat="44.317107489332557" lon="5.548444557935"><ele></ele><time>2015-2-3T3:45:59Z</time></trkpt>
<trkpt lat="44.317178651690483" lon="5.549087030813098"><ele></ele><time>2015-2-3T3:46:2Z</time></trkpt>
<trkpt lat="44.317338494583964" lon="5.549668231979013"><ele></ele><time>2015-2-3T3:46:5Z</time></trkpt>
<trkpt lat="44.317719787359238" lon="5.549951372668147"><ele></ele><time>2015-2-3T3:46:8Z</time></trkpt>
<trkpt lat="44.317320138216019" lon="5.5499676335603"><ele></ele><time>2015-2-3T3:46:11Z</time></trkpt>
<trkpt lat="44.316909844055772" lon="5.550225209444761"><ele></ele><time>2015-2-3T3:46:14Z</time></trkpt>
<trkpt lat="44.316545063629746" lon="5.55053249001503"><ele></ele><time>2015-2-3T3:46:17Z</time></trkpt>
<trkpt lat="44.31628773920238" lon="5.55001012980938"><ele></ele><time>2015-2-3T3:46:20Z</time></trkpt>
<trkpt lat="44.315888844430447" lon="5.549773676320911"><ele></ele><time>2015-2-3T3:46:23Z</time></trkpt>
<trkpt lat="44.315451811999083" lon="5.549925304949284"><ele></ele><time>2015-2-3T3:46:26Z</time></trkpt>
<trkpt lat="44.315032968297601" lon="5.550172403454781"><ele></ele><time>2015-2-3T3:46:29Z</time></trkpt>
<trkpt lat="44.314583111554384" lon="5.55029109120369"><ele></ele><time>2015-2-3T3:46:32Z</time></trkpt>
<trkpt lat="44.314135769382119" lon="5.550216324627399"><ele></ele><time>2015-2-3T3:46:35Z</time></trkpt>
<trkpt lat="44.313877858221531" lon="5.549685163423419"><ele></ele><time>2015-2-3T3:46:38Z</time></trkpt>
<trkpt lat="44.313586922362447" lon="5.549478633329272"><ele></ele><time>2015-2-3T3:46:41Z</time></trkpt>
<trkpt lat="44.313825136050582" lon="5.54999403655529"><ele></ele><time>2015-2-3T3:46:44Z</time></trkpt>
<trkpt lat="44.31394181214273" lon="5.550600551068783"><ele></ele><time>2015-2-3T3:46:47Z</time></trkpt>
<trkpt lat="44.314077766612172" lon="5.551216537132859"><ele></ele><time>2015-2-3T3:46:50Z</time></trkpt>
<trkpt lat="44.314358057454228" lon="5.551727497950196"><ele></ele><time>2015-2-3T3:46:53Z</time></trkpt>
<trkpt lat="44.314646143466234" lon="5.55221876129508"><ele></ele><time>2015-2-3T3:46:56Z</time></trkpt>
<trkpt lat="44.314589146524668" lon="5.552784036844969"><ele></ele><time>2015-2-3T3:46:59Z</time></trkpt>
<trkpt lat="44.314660644158721" lon="5.553330956026912"><ele></ele><time>2015-2-3T3:47:2Z</time></trkpt>
<trkpt lat="44.315047049894929" lon="5.553637063130736"><ele></ele><time>2015-2-3T3:47:5Z</time></trkpt>
<trkpt lat="44.315485004335642" lon="5.55347696878016"><ele></ele><time>2015-2-3T3:47:8Z</time></trkpt>
<trkpt lat="44.315835116431117" lon="5.553072122856975"><ele></ele><time>2015-2-3T3:47:11Z</time></trkpt>
<trkpt lat="44.316142732277513" lon="5.552607597783208"><ele></ele><time>2015-2-3T3:47:14Z</time></trkpt>
<trkpt lat="44.316475410014391" lon="5.55216453038156"><ele></ele><time>2015-2-3T3:47:17Z</time></trkpt>
<trkpt lat="44.316827282309532" lon="5.552127733826637"><ele></ele><time>2015-2-3T3:47:20Z</time></trkpt>
<trkpt lat="44.316880004480481" lon="5.55275771766901"><ele></ele><time>2015-2-3T3:47:23Z</time></trkpt>
<trkpt lat="44.316925434395671" lon="5.553408740088344"><ele></ele><time>2015-2-3T3:47:26Z</time></trkpt>
<trkpt lat="44.316924680024385" lon="5.554071748629212"><ele></ele><time>2015-2-3T3:47:29Z</time></trkpt>
<trkpt lat="44.316928870975971" lon="5.554730985313654"><ele></ele><time>2015-2-3T3:47:32Z</time></trkpt>
<trkpt lat="44.316921746358275" lon="5.555368848145008"><ele></ele><time>2015-2-3T3:47:35Z</time></trkpt>
<trkpt lat="44.316817140206695" lon="5.555996233597398"><ele></ele><time>2015-2-3T3:47:38Z</time></trkpt>
<trkpt lat="44.316620249301195" lon="5.556579949334264"><ele></ele><time>2015-2-3T3:47:41Z</time></trkpt>
<trkpt lat="44.316385053098202" lon="5.557121504098177"><ele></ele><time>2015-2-3T3:47:44Z</time></trkpt>
<trkpt lat="44.316076096147299" lon="5.557590052485466"><ele></ele><time>2015-2-3T3:47:47Z</time></trkpt>
<trkpt lat="44.315832853317261" lon="5.558119118213654"><ele></ele><time>2015-2-3T3:47:50Z</time></trkpt>
<trkpt lat="44.315732941031456" lon="5.558728901669383"><ele></ele><time>2015-2-3T3:47:53Z</time></trkpt>
<trkpt lat="44.315446196123958" lon="5.559172220528126"><ele></ele><time>2015-2-3T3:47:56Z</time></trkpt>
<trkpt lat="44.315024334937334" lon="5.559374475851655"><ele></ele><time>2015-2-3T3:47:59Z</time></trkpt>
<trkpt lat="44.315040679648519" lon="5.559989456087351"><ele></ele><time>2015-2-3T3:48:2Z</time></trkpt>
<trkpt lat="44.315074291080236" lon="5.560619691386819"><ele></ele><time>2015-2-3T3:48:5Z</time></trkpt>
<trkpt lat="44.314857115969062" lon="5.561168538406491"><ele></ele><time>2015-2-3T3:48:8Z</time></trkpt>
<trkpt lat="44.314623177051544" lon="5.561691485345364"><ele></ele><time>2015-2-3T3:48:11Z</time></trkpt>
<trkpt lat="44.314327882602811" lon="5.562162715941668"><ele></ele><time>2015-2-3T3:48:14Z</time></trkpt>
<trkpt lat="44.313899483531713" lon="5.562305795028806"><ele></ele><time>2015-2-3T3:48:17Z</time></trkpt>
<trkpt lat="44.313477957621217" lon="5.562555408105254"><ele></ele><time>2015-2-3T3:48:20Z</time></trkpt>
<trkpt lat="44.313091384246945" lon="5.562873585149646"><ele></ele><time>2015-2-3T3:48:23Z</time></trkpt>
<trkpt lat="44.312686203047633" lon="5.563183045014739"><ele></ele><time>2015-2-3T3:48:26Z</time></trkpt>
<trkpt lat="44.312247913330793" lon="5.563320340588689"><ele></ele><time>2015-2-3T3:48:29Z</time></trkpt>
<trkpt lat="44.312029480934143" lon="5.563888801261783"><ele></ele><time>2015-2-3T3:48:32Z</time></trkpt>
<trkpt lat="44.312201393768191" lon="5.564470253884792"><ele></ele><time>2015-2-3T3:48:35Z</time></trkpt>
<trkpt lat="44.312508758157492" lon="5.564981466159225"><ele></ele><time>2015-2-3T3:48:38Z</time></trkpt>
<trkpt lat="44.312944365665317" lon="5.565135106444359"><ele></ele><time>2015-2-3T3:48:41Z</time></trkpt>
<trkpt lat="44.31339698843658" lon="5.565266367048025"><ele></ele><time>2015-2-3T3:48:44Z</time></trkpt>
<trkpt lat="44.313804768025875" lon="5.565499216318131"><ele></ele><time>2015-2-3T3:48:47Z</time></trkpt>
<trkpt lat="44.314217241480947" lon="5.565664423629642"><ele></ele><time>2015-2-3T3:48:50Z</time></trkpt>
<trkpt lat="44.314439697191119" lon="5.56622383184731"><ele></ele><time>2015-2-3T3:48:53Z</time></trkpt>
<trkpt lat="44.314703308045864" lon="5.566763961687684"><ele></ele><time>2015-2-3T3:48:56Z</time></trkpt>
<trkpt lat="44.314969768747687" lon="5.567274754866958"><ele></ele><time>2015-2-3T3:48:59Z</time></trkpt>
<trkpt lat="44.315146710723639" lon="5.567851010710001"><ele></ele><time>2015-2-3T3:49:2Z</time></trkpt>
<trkpt lat="44.315319042652845" lon="5.568443275988102"><ele></ele><time>2015-2-3T3:49:5Z</time></trkpt>
<trkpt lat="44.315523812547326" lon="5.568965217098594"><ele></ele><time>2015-2-3T3:49:8Z</time></trkpt>
<trkpt lat="44.315703101456165" lon="5.569601403549314"><ele></ele><time>2015-2-3T3:49:11Z</time></trkpt>
<trkpt lat="44.315850958228111" lon="5.570210516452789"><ele></ele><time>2015-2-3T3:49:14Z</time></trkpt>
<trkpt lat="44.315937124192715" lon="5.57088878005743"><ele></ele><time>2015-2-3T3:49:17Z</time></trkpt>
<trkpt lat="44.316025301814079" lon="5.571528151631355"><ele></ele><time>2015-2-3T3:49:20Z</time></trkpt>
<trkpt lat="44.316060170531273" lon="5.572229633107781"><ele></ele><time>2015-2-3T3:49:23Z</time></trkpt>
<trkpt lat="44.316019434481859" lon="5.572962043806911"><ele></ele><time>2015-2-3T3:49:26Z</time></trkpt>
<trkpt lat="44.315913822501898" lon="5.573612144216895"><ele></ele><time>2015-2-3T3:49:29Z</time></trkpt>
<trkpt lat="44.315814496949315" lon="5.574240786954761"><ele></ele><time>2015-2-3T3:49:32Z</time></trkpt>
<trkpt lat="44.315658928826451" lon="5.57487353682518"><ele></ele><time>2015-2-3T3:49:35Z</time></trkpt>
<trkpt lat="44.315416943281889" lon="5.57543596252799"><ele></ele><time>2015-2-3T3:49:38Z</time></trkpt>
<trkpt lat="44.315075632184744" lon="5.575993359088898"><ele></ele><time>2015-2-3T3:49:41Z</time></trkpt>
<trkpt lat="44.314801879227161" lon="5.576489064842463"><ele></ele><time>2015-2-3T3:49:44Z</time></trkpt>
<trkpt lat="44.314769022166729" lon="5.577170429751277"><ele></ele><time>2015-2-3T3:49:47Z</time></trkpt>
<trkpt lat="44.314842112362385" lon="5.577881801873446"><ele></ele><time>2015-2-3T3:49:50Z</time></trkpt>
<trkpt lat="44.314901456236839" lon="5.578648159280419"><ele></ele><time>2015-2-3T3:49:53Z</time></trkpt>
<trkpt lat="44.315043948590755" lon="5.579291889443994"><ele></ele><time>2015-2-3T3:49:56Z</time></trkpt>
<trkpt lat="44.315171940252185" lon="5.580041147768498"><ele></ele><time>2015-2-3T3:49:59Z</time></trkpt>
<trkpt lat="44.315237235277891" lon="5.58068823069334"><ele></ele><time>2015-2-3T3:50:2Z</time></trkpt>
<trkpt lat="44.315337985754013" lon="5.581373702734709"><ele></ele><time>2015-2-3T3:50:5Z</time></trkpt>
<trkpt lat="44.315535044297576" lon="5.581992119550705"><ele></ele><time>2015-2-3T3:50:8Z</time></trkpt>
<trkpt lat="44.315559100359678" lon="5.582505343481898"><ele></ele><time>2015-2-3T3:50:11Z</time></trkpt>
<trkpt lat="44.315246120095253" lon="5.583009514957666"><ele></ele><time>2015-2-3T3:50:14Z</time></trkpt>
<trkpt lat="44.315039338544011" lon="5.583630446344614"><ele></ele><time>2015-2-3T3:50:17Z</time></trkpt>
<trkpt lat="44.315184010192752" lon="5.584267051890492"><ele></ele><time>2015-2-3T3:50:20Z</time></trkpt>
<trkpt lat="44.31534661911428" lon="5.584859233349562"><ele></ele><time>2015-2-3T3:50:23Z</time></trkpt>
<trkpt lat="44.315594891086221" lon="5.585483266040683"><ele></ele><time>2015-2-3T3:50:26Z</time></trkpt>
<trkpt lat="44.315902171656489" lon="5.585977463051677"><ele></ele><time>2015-2-3T3:50:29Z</time></trkpt>
<trkpt lat="44.316182881593704" lon="5.586547600105405"><ele></ele><time>2015-2-3T3:50:32Z</time></trkpt>
<trkpt lat="44.31644456461072" lon="5.587192000821233"><ele></ele><time>2015-2-3T3:50:35Z</time></trkpt>
<trkpt lat="44.316650591790676" lon="5.587750487029553"><ele></ele><time>2015-2-3T3:50:38Z</time></trkpt>
<trkpt lat="44.316842285916209" lon="5.588333364576101"><ele></ele><time>2015-2-3T3:50:41Z</time></trkpt>
<trkpt lat="44.317070357501507" lon="5.589049849659205"><ele></ele><time>2015-2-3T3:50:44Z</time></trkpt>
<trkpt lat="44.317241767421365" lon="5.589635241776705"><ele></ele><time>2015-2-3T3:50:47Z</time></trkpt>
<trkpt lat="44.317447878420353" lon="5.590333119034767"><ele></ele><time>2015-2-3T3:50:50Z</time></trkpt>
<trkpt lat="44.317731438204646" lon="5.591004509478807"><ele></ele><time>2015-2-3T3:50:53Z</time></trkpt>
<trkpt lat="44.317992031574249" lon="5.591609766706824"><ele></ele><time>2015-2-3T3:50:56Z</time></trkpt>
<trkpt lat="44.318335521966219" lon="5.592145202681422"><ele></ele><time>2015-2-3T3:50:59Z</time></trkpt>
<trkpt lat="44.318614052608609" lon="5.592676196247339"><ele></ele><time>2015-2-3T3:51:2Z</time></trkpt>
<trkpt lat="44.318669708445668" lon="5.593381198123097"><ele></ele><time>2015-2-3T3:51:5Z</time></trkpt>
<trkpt lat="44.318879591301084" lon="5.593942869454622"><ele></ele><time>2015-2-3T3:51:8Z</time></trkpt>
<trkpt lat="44.319046642631292" lon="5.594637645408511"><ele></ele><time>2015-2-3T3:51:11Z</time></trkpt>
<trkpt lat="44.319177903234959" lon="5.595331164076924"><ele></ele><time>2015-2-3T3:51:14Z</time></trkpt>
<trkpt lat="44.319462887942791" lon="5.595907084643841"><ele></ele><time>2015-2-3T3:51:17Z</time></trkpt>
<trkpt lat="44.319556262344122" lon="5.596503457054496"><ele></ele><time>2015-2-3T3:51:20Z</time></trkpt>
<trkpt lat="44.319181926548481" lon="5.596872260794044"><ele></ele><time>2015-2-3T3:51:23Z</time></trkpt>
<trkpt lat="44.319019317626953" lon="5.59750241227448"><ele></ele><time>2015-2-3T3:51:26Z</time></trkpt>
<trkpt lat="44.318966679275036" lon="5.598139939829707"><ele></ele><time>2015-2-3T3:51:29Z</time></trkpt>
<trkpt lat="44.319001045078039" lon="5.598806636407971"><ele></ele><time>2015-2-3T3:51:32Z</time></trkpt>
<trkpt lat="44.319072375074029" lon="5.599479954689741"><ele></ele><time>2015-2-3T3:51:35Z</time></trkpt>
<trkpt lat="44.319075224921107" lon="5.600151512771845"><ele></ele><time>2015-2-3T3:51:38Z</time></trkpt>
<trkpt lat="44.319088384509087" lon="5.600821310654283"><ele></ele><time>2015-2-3T3:51:41Z</time></trkpt>
<trkpt lat="44.319157199934125" lon="5.601519104093313"><ele></ele><time>2015-2-3T3:51:44Z</time></trkpt>
<trkpt lat="44.319246215745807" lon="5.602208850905299"><ele></ele><time>2015-2-3T3:51:47Z</time></trkpt>
<trkpt lat="44.31932701729238" lon="5.602879989892244"><ele></ele><time>2015-2-3T3:51:50Z</time></trkpt>
<trkpt lat="44.319391474127769" lon="5.603564372286201"><ele></ele><time>2015-2-3T3:51:53Z</time></trkpt>
<trkpt lat="44.319300781935453" lon="5.604247748851776"><ele></ele><time>2015-2-3T3:51:56Z</time></trkpt>
<trkpt lat="44.319204557687044" lon="5.604863064363599"><ele></ele><time>2015-2-3T3:51:59Z</time></trkpt>
<trkpt lat="44.319190811365843" lon="5.605572843924165"><ele></ele><time>2015-2-3T3:52:2Z</time></trkpt>
<trkpt lat="44.318969529122114" lon="5.606202743947506"><ele></ele><time>2015-2-3T3:52:5Z</time></trkpt>
<trkpt lat="44.318645903840661" lon="5.606758967041969"><ele></ele><time>2015-2-3T3:52:8Z</time></trkpt>
<trkpt lat="44.318444905802608" lon="5.607338408008218"><ele></ele><time>2015-2-3T3:52:11Z</time></trkpt>
<trkpt lat="44.318351279944181" lon="5.607956908643246"><ele></ele><time>2015-2-3T3:52:14Z</time></trkpt>
<trkpt lat="44.318031091243029" lon="5.60841741040349"><ele></ele><time>2015-2-3T3:52:17Z</time></trkpt>
<trkpt lat="44.317663377150893" lon="5.608865758404136"><ele></ele><time>2015-2-3T3:52:20Z</time></trkpt>
<trkpt lat="44.317314270883799" lon="5.609281919896603"><ele></ele><time>2015-2-3T3:52:23Z</time></trkpt>
<trkpt lat="44.317180914804339" lon="5.60989698395133"><ele></ele><time>2015-2-3T3:52:26Z</time></trkpt>
<trkpt lat="44.316994585096836" lon="5.610389253124595"><ele></ele><time>2015-2-3T3:52:29Z</time></trkpt>
<trkpt lat="44.316555708646774" lon="5.610270984470844"><ele></ele><time>2015-2-3T3:52:32Z</time></trkpt>
<trkpt lat="44.31612697429955" lon="5.610086834058166"><ele></ele><time>2015-2-3T3:52:35Z</time></trkpt>
<trkpt lat="44.315690025687218" lon="5.609932271763682"><ele></ele><time>2015-2-3T3:52:38Z</time></trkpt>
<trkpt lat="44.315230697393417" lon="5.60987401753664"><ele></ele><time>2015-2-3T3:52:41Z</time></trkpt>
<trkpt lat="44.314808500930667" lon="5.610079457983375"><ele></ele><time>2015-2-3T3:52:44Z</time></trkpt>
<trkpt lat="44.314392255619168" lon="5.610354384407401"><ele></ele><time>2015-2-3T3:52:47Z</time></trkpt>
<trkpt lat="44.313955893740058" lon="5.6101886741817"><ele></ele><time>2015-2-3T3:52:50Z</time></trkpt>
<trkpt lat="44.31363302282989" lon="5.609747366979718"><ele></ele><time>2015-2-3T3:52:53Z</time></trkpt>
<trkpt lat="44.313243180513382" lon="5.609628763049841"><ele></ele><time>2015-2-3T3:52:56Z</time></trkpt>
<trkpt lat="44.312869179993868" lon="5.609795646741986"><ele></ele><time>2015-2-3T3:52:59Z</time></trkpt>
<trkpt lat="44.313120050355792" lon="5.609284015372396"><ele></ele><time>2015-2-3T3:53:2Z</time></trkpt>
<trkpt lat="44.313334291800857" lon="5.608793674036861"><ele></ele><time>2015-2-3T3:53:5Z</time></trkpt>
<trkpt lat="44.313776018097997" lon="5.608862154185772"><ele></ele><time>2015-2-3T3:53:8Z</time></trkpt>
<trkpt lat="44.314207853749394" lon="5.608645146712661"><ele></ele><time>2015-2-3T3:53:11Z</time></trkpt>
<trkpt lat="44.314639773219824" lon="5.60842327773571"><ele></ele><time>2015-2-3T3:53:14Z</time></trkpt>
<trkpt lat="44.314657375216484" lon="5.608124462887645"><ele></ele><time>2015-2-3T3:53:17Z</time></trkpt>
<trkpt lat="44.314246159046888" lon="5.607857163995504"><ele></ele><time>2015-2-3T3:53:20Z</time></trkpt>
<trkpt lat="44.313874589279294" lon="5.607482325285673"><ele></ele><time>2015-2-3T3:53:23Z</time></trkpt>
<trkpt lat="44.313534116372466" lon="5.60706440359354"><ele></ele><time>2015-2-3T3:53:26Z</time></trkpt>
<trkpt lat="44.313275618478656" lon="5.606607338413596"><ele></ele><time>2015-2-3T3:53:29Z</time></trkpt>
<trkpt lat="44.312837915495038" lon="5.606778161600232"><ele></ele><time>2015-2-3T3:53:32Z</time></trkpt>
<trkpt lat="44.312415719032288" lon="5.606997767463327"><ele></ele><time>2015-2-3T3:53:35Z</time></trkpt>
<trkpt lat="44.311968795955181" lon="5.607113856822252"><ele></ele><time>2015-2-3T3:53:38Z</time></trkpt>
<trkpt lat="44.311514999717474" lon="5.607046633958817"><ele></ele><time>2015-2-3T3:53:41Z</time></trkpt>
<trkpt lat="44.311053492128849" lon="5.606952672824264"><ele></ele><time>2015-2-3T3:53:44Z</time></trkpt>
<trkpt lat="44.310604808852077" lon="5.607047723606229"><ele></ele><time>2015-2-3T3:53:47Z</time></trkpt>
<trkpt lat="44.31016274727881" lon="5.606900034472346"><ele></ele><time>2015-2-3T3:53:50Z</time></trkpt>
<trkpt lat="44.309751866385341" lon="5.606610774993897"><ele></ele><time>2015-2-3T3:53:53Z</time></trkpt>
<trkpt lat="44.309353474527597" lon="5.606304500252008"><ele></ele><time>2015-2-3T3:53:56Z</time></trkpt>
<trkpt lat="44.308961201459169" lon="5.606001326814294"><ele></ele><time>2015-2-3T3:53:59Z</time></trkpt>
<trkpt lat="44.308540681377053" lon="5.605769399553537"><ele></ele><time>2015-2-3T3:54:2Z</time></trkpt>
<trkpt lat="44.308125944808125" lon="5.605472764000297"><ele></ele><time>2015-2-3T3:54:5Z</time></trkpt>
<trkpt lat="44.307769546285272" lon="5.605081496760249"><ele></ele><time>2015-2-3T3:54:8Z</time></trkpt>
<trkpt lat="44.307788405567408" lon="5.604717051610351"><ele></ele><time>2015-2-3T3:54:11Z</time></trkpt>
<trkpt lat="44.308114293962717" lon="5.604331400245428"><ele></ele><time>2015-2-3T3:54:14Z</time></trkpt>
<trkpt lat="44.308454263955355" lon="5.603942647576332"><ele></ele><time>2015-2-3T3:54:17Z</time></trkpt>
<trkpt lat="44.30870178155601" lon="5.603575436398387"><ele></ele><time>2015-2-3T3:54:20Z</time></trkpt>
<trkpt lat="44.308252260088921" lon="5.603634444996715"><ele></ele><time>2015-2-3T3:54:23Z</time></trkpt>
<trkpt lat="44.307868033647537" lon="5.603427328169346"><ele></ele><time>2015-2-3T3:54:26Z</time></trkpt>
<trkpt lat="44.307791590690613" lon="5.602806648239493"><ele></ele><time>2015-2-3T3:54:29Z</time></trkpt>
<trkpt lat="44.308105409145355" lon="5.602566925808787"><ele></ele><time>2015-2-3T3:54:32Z</time></trkpt>
<trkpt lat="44.30835141800344" lon="5.602150680497289"><ele></ele><time>2015-2-3T3:54:35Z</time></trkpt>
<trkpt lat="44.308072971180081" lon="5.601663859561086"><ele></ele><time>2015-2-3T3:54:38Z</time></trkpt>
<trkpt lat="44.30767516605556" lon="5.601358423009515"><ele></ele><time>2015-2-3T3:54:41Z</time></trkpt>
<trkpt lat="44.307317929342389" lon="5.600962042808533"><ele></ele><time>2015-2-3T3:54:44Z</time></trkpt>
<trkpt lat="44.306889362633228" lon="5.60078308917582"><ele></ele><time>2015-2-3T3:54:47Z</time></trkpt>
<trkpt lat="44.306492814794183" lon="5.600999007001519"><ele></ele><time>2015-2-3T3:54:50Z</time></trkpt>
<trkpt lat="44.306061901152134" lon="5.600879648700357"><ele></ele><time>2015-2-3T3:54:53Z</time></trkpt>
<trkpt lat="44.305677842348814" lon="5.600551161915064"><ele></ele><time>2015-2-3T3:54:56Z</time></trkpt>
<trkpt lat="44.305185824632645" lon="5.600720560178161"><ele></ele><time>2015-2-3T3:54:59Z</time></trkpt>
<trkpt lat="44.304711492732167" lon="5.6007772218436"><ele></ele><time>2015-2-3T3:55:2Z</time></trkpt>
<trkpt lat="44.304250990971923" lon="5.600742101669312"><ele></ele><time>2015-2-3T3:55:5Z</time></trkpt>
<trkpt lat="44.304272029548883" lon="5.600172802805901"><ele></ele><time>2015-2-3T3:55:8Z</time></trkpt>
<trkpt lat="44.304665978997946" lon="5.599696291610599"><ele></ele><time>2015-2-3T3:55:11Z</time></trkpt>
<trkpt lat="44.305027741938829" lon="5.599176697432995"><ele></ele><time>2015-2-3T3:55:14Z</time></trkpt>
<trkpt lat="44.30527844466269" lon="5.598584180697799"><ele></ele><time>2015-2-3T3:55:17Z</time></trkpt>
<trkpt lat="44.305381793528795" lon="5.597983868792653"><ele></ele><time>2015-2-3T3:55:20Z</time></trkpt>
<trkpt lat="44.305368969216943" lon="5.597341479733586"><ele></ele><time>2015-2-3T3:55:23Z</time></trkpt>
<trkpt lat="44.305081218481064" lon="5.596799002960324"><ele></ele><time>2015-2-3T3:55:26Z</time></trkpt>
<trkpt lat="44.305038638412952" lon="5.596206905320287"><ele></ele><time>2015-2-3T3:55:29Z</time></trkpt>
<trkpt lat="44.304868569597602" lon="5.595624195411801"><ele></ele><time>2015-2-3T3:55:32Z</time></trkpt>
<trkpt lat="44.30452348664403" lon="5.595143660902977"><ele></ele><time>2015-2-3T3:55:35Z</time></trkpt>
<trkpt lat="44.304225845262408" lon="5.594667736440897"><ele></ele><time>2015-2-3T3:55:38Z</time></trkpt>
<trkpt lat="44.303853940218687" lon="5.594229614362121"><ele></ele><time>2015-2-3T3:55:41Z</time></trkpt>
<trkpt lat="44.30347491055727" lon="5.593868773430586"><ele></ele><time>2015-2-3T3:55:44Z</time></trkpt>
<trkpt lat="44.303499301895499" lon="5.59451837092638"><ele></ele><time>2015-2-3T3:55:47Z</time></trkpt>
<trkpt lat="44.303369885310531" lon="5.595103595405817"><ele></ele><time>2015-2-3T3:55:50Z</time></trkpt>
<trkpt lat="44.303045254200697" lon="5.595567282289267"><ele></ele><time>2015-2-3T3:55:53Z</time></trkpt>
<trkpt lat="44.302771165966988" lon="5.596122751012445"><ele></ele><time>2015-2-3T3:55:56Z</time></trkpt>
<trkpt lat="44.302562959492207" lon="5.596692971885204"><ele></ele><time>2015-2-3T3:55:59Z</time></trkpt>
<trkpt lat="44.302355675026774" lon="5.596199613064528"><ele></ele><time>2015-2-3T3:56:2Z</time></trkpt>
<trkpt lat="44.302184013649821" lon="5.595603827387095"><ele></ele><time>2015-2-3T3:56:5Z</time></trkpt>
<trkpt lat="44.301859717816114" lon="5.595065457746387"><ele></ele><time>2015-2-3T3:56:8Z</time></trkpt>
<trkpt lat="44.30139091797173" lon="5.595000581815839"><ele></ele><time>2015-2-3T3:56:11Z</time></trkpt>
<trkpt lat="44.300961261615157" lon="5.595296295359731"><ele></ele><time>2015-2-3T3:56:14Z</time></trkpt>
<trkpt lat="44.300495646893978" lon="5.59550441801548"><ele></ele><time>2015-2-3T3:56:17Z</time></trkpt>
<trkpt lat="44.300028355792165" lon="5.595399560406804"><ele></ele><time>2015-2-3T3:56:20Z</time></trkpt>
<trkpt lat="44.299744963645935" lon="5.595505759119988"><ele></ele><time>2015-2-3T3:56:23Z</time></trkpt>
<trkpt lat="44.300144612789154" lon="5.595816392451525"><ele></ele><time>2015-2-3T3:56:26Z</time></trkpt>
<trkpt lat="44.30057929828763" lon="5.595973385497928"><ele></ele><time>2015-2-3T3:56:29Z</time></trkpt>
<trkpt lat="44.300506543368101" lon="5.596336405724287"><ele></ele><time>2015-2-3T3:56:32Z</time></trkpt>
<trkpt lat="44.300046628341079" lon="5.596457608044148"><ele></ele><time>2015-2-3T3:56:35Z</time></trkpt>
<trkpt lat="44.299551760777831" lon="5.596644021570683"><ele></ele><time>2015-2-3T3:56:38Z</time></trkpt>
<trkpt lat="44.299139371141791" lon="5.596885336562991"><ele></ele><time>2015-2-3T3:56:41Z</time></trkpt>
<trkpt lat="44.298841394484043" lon="5.596615774556994"><ele></ele><time>2015-2-3T3:56:44Z</time></trkpt>
<trkpt lat="44.298788420855999" lon="5.595935331657529"><ele></ele><time>2015-2-3T3:56:47Z</time></trkpt>
<trkpt lat="44.298467645421624" lon="5.595431663095951"><ele></ele><time>2015-2-3T3:56:50Z</time></trkpt>
<trkpt lat="44.298146283254027" lon="5.594967808574438"><ele></ele><time>2015-2-3T3:56:53Z</time></trkpt>
<trkpt lat="44.297765325754881" lon="5.594542594626546"><ele></ele><time>2015-2-3T3:56:56Z</time></trkpt>
<trkpt lat="44.297365425154567" lon="5.594234140589833"><ele></ele><time>2015-2-3T3:56:59Z</time></trkpt>
<trkpt lat="44.296915736049414" lon="5.594025934115052"><ele></ele><time>2015-2-3T3:57:2Z</time></trkpt>
<trkpt lat="44.29640837945044" lon="5.593873215839267"><ele></ele><time>2015-2-3T3:57:5Z</time></trkpt>
<trkpt lat="44.296223139390349" lon="5.593468956649303"><ele></ele><time>2015-2-3T3:57:8Z</time></trkpt>
<trkpt lat="44.296544920653105" lon="5.59294743463397"><ele></ele><time>2015-2-3T3:57:11Z</time></trkpt>
<trkpt lat="44.296646844595671" lon="5.59232784435153"><ele></ele><time>2015-2-3T3:57:14Z</time></trkpt>
<trkpt lat="44.296692023053765" lon="5.591691490262747"><ele></ele><time>2015-2-3T3:57:17Z</time></trkpt>
<trkpt lat="44.296507285907865" lon="5.591588476672769"><ele></ele><time>2015-2-3T3:57:20Z</time></trkpt>
<trkpt lat="44.296393627300858" lon="5.592225585132837"><ele></ele><time>2015-2-3T3:57:23Z</time></trkpt>
<trkpt lat="44.296163208782673" lon="5.592805193737149"><ele></ele><time>2015-2-3T3:57:26Z</time></trkpt>
<trkpt lat="44.295744197443128" lon="5.593222696334124"><ele></ele><time>2015-2-3T3:57:29Z</time></trkpt>
<trkpt lat="44.295322755351663" lon="5.593640618026257"><ele></ele><time>2015-2-3T3:57:32Z</time></trkpt>
<trkpt lat="44.294946659356356" lon="5.593996932730079"><ele></ele><time>2015-2-3T3:57:35Z</time></trkpt>
<trkpt lat="44.294517002999783" lon="5.59440596960485"><ele></ele><time>2015-2-3T3:57:38Z</time></trkpt>
<trkpt lat="44.294100506231189" lon="5.594819951802492"><ele></ele><time>2015-2-3T3:57:41Z</time></trkpt>
<trkpt lat="44.293705467134714" lon="5.59517945162952"><ele></ele><time>2015-2-3T3:57:44Z</time></trkpt>
<trkpt lat="44.293316379189491" lon="5.595566863194108"><ele></ele><time>2015-2-3T3:57:47Z</time></trkpt>
<trkpt lat="44.292934415861964" lon="5.595944887027144"><ele></ele><time>2015-2-3T3:57:50Z</time></trkpt>
<trkpt lat="44.292521607130766" lon="5.595806920900941"><ele></ele><time>2015-2-3T3:57:53Z</time></trkpt>
<trkpt lat="44.292091866955161" lon="5.595588991418481"><ele></ele><time>2015-2-3T3:57:56Z</time></trkpt>
<trkpt lat="44.291639914736152" lon="5.595648000016809"><ele></ele><time>2015-2-3T3:57:59Z</time></trkpt>
<trkpt lat="44.291246719658375" lon="5.596009930595756"><ele></ele><time>2015-2-3T3:58:2Z</time></trkpt>
<trkpt lat="44.290929464623332" lon="5.596548970788717"><ele></ele><time>2015-2-3T3:58:5Z</time></trkpt>
<trkpt lat="44.290618915110826" lon="5.597047610208392"><ele></ele><time>2015-2-3T3:58:8Z</time></trkpt>
<trkpt lat="44.290172159671783" lon="5.596922384575009"><ele></ele><time>2015-2-3T3:58:11Z</time></trkpt>
<trkpt lat="44.289711490273476" lon="5.596725158393383"><ele></ele><time>2015-2-3T3:58:14Z</time></trkpt>
<trkpt lat="44.289277559146285" lon="5.596525836735964"><ele></ele><time>2015-2-3T3:58:17Z</time></trkpt>
<trkpt lat="44.288869192823768" lon="5.59658233076334"><ele></ele><time>2015-2-3T3:58:20Z</time></trkpt>
<trkpt lat="44.288466610014439" lon="5.596841666847467"><ele></ele><time>2015-2-3T3:58:23Z</time></trkpt>
<trkpt lat="44.28810459561646" lon="5.596503708511591"><ele></ele><time>2015-2-3T3:58:26Z</time></trkpt>
<trkpt lat="44.287759093567729" lon="5.596077740192413"><ele></ele><time>2015-2-3T3:58:29Z</time></trkpt>
<trkpt lat="44.287568489089608" lon="5.595493940636516"><ele></ele><time>2015-2-3T3:58:32Z</time></trkpt>
<trkpt lat="44.287233129143715" lon="5.595050035044551"><ele></ele><time>2015-2-3T3:58:35Z</time></trkpt>
<trkpt lat="44.286792911589146" lon="5.594896143302321"><ele></ele><time>2015-2-3T3:58:38Z</time></trkpt>
<trkpt lat="44.28633626550436" lon="5.594803523272276"><ele></ele><time>2015-2-3T3:58:41Z</time></trkpt>
<trkpt lat="44.285877523943782" lon="5.594764044508338"><ele></ele><time>2015-2-3T3:58:44Z</time></trkpt>
<trkpt lat="44.286107858642936" lon="5.594986248761416"><ele></ele><time>2015-2-3T3:58:47Z</time></trkpt>
<trkpt lat="44.286575736477971" lon="5.59509688988328"><ele></ele><time>2015-2-3T3:58:50Z</time></trkpt>
<trkpt lat="44.286971613764763" lon="5.595455719158053"><ele></ele><time>2015-2-3T3:58:53Z</time></trkpt>
<trkpt lat="44.28690942004323" lon="5.596007499843836"><ele></ele><time>2015-2-3T3:58:56Z</time></trkpt>
<trkpt lat="44.286813447251916" lon="5.596618624404073"><ele></ele><time>2015-2-3T3:58:59Z</time></trkpt>
<trkpt lat="44.286937834694982" lon="5.597237544134259"><ele></ele><time>2015-2-3T3:59:2Z</time></trkpt>
<trkpt lat="44.286841526627541" lon="5.597386993467808"><ele></ele><time>2015-2-3T3:59:5Z</time></trkpt>
<trkpt lat="44.286617394536734" lon="5.596837811172009"><ele></ele><time>2015-2-3T3:59:8Z</time></trkpt>
<trkpt lat="44.286252781748772" lon="5.596460625529289"><ele></ele><time>2015-2-3T3:59:11Z</time></trkpt>
<trkpt lat="44.28592094220221" lon="5.59604337438941"><ele></ele><time>2015-2-3T3:59:14Z</time></trkpt>
<trkpt lat="44.28555934689939" lon="5.595718743279576"><ele></ele><time>2015-2-3T3:59:17Z</time></trkpt>
<trkpt lat="44.285117536783218" lon="5.595778003334999"><ele></ele><time>2015-2-3T3:59:20Z</time></trkpt>
<trkpt lat="44.284677654504776" lon="5.595905911177397"><ele></ele><time>2015-2-3T3:59:23Z</time></trkpt>
<trkpt lat="44.284232575446367" lon="5.596065167337656"><ele></ele><time>2015-2-3T3:59:26Z</time></trkpt>
<trkpt lat="44.283772828057408" lon="5.596099197864533"><ele></ele><time>2015-2-3T3:59:29Z</time></trkpt>
<trkpt lat="44.283322049304843" lon="5.596013450995088"><ele></ele><time>2015-2-3T3:59:32Z</time></trkpt>
<trkpt lat="44.282876467332244" lon="5.595954107120633"><ele></ele><time>2015-2-3T3:59:35Z</time></trkpt>
<trkpt lat="44.282541694119573" lon="5.596318887546659"><ele></ele><time>2015-2-3T3:59:38Z</time></trkpt>
<trkpt lat="44.282308090478182" lon="5.596860023215413"><ele></ele><time>2015-2-3T3:59:41Z</time></trkpt>
<trkpt lat="44.281948171555996" lon="5.597268892452121"><ele></ele><time>2015-2-3T3:59:44Z</time></trkpt>
<trkpt lat="44.281603172421455" lon="5.597701566293836"><ele></ele><time>2015-2-3T3:59:47Z</time></trkpt>
<trkpt lat="44.281242163851857" lon="5.598058048635721"><ele></ele><time>2015-2-3T3:59:50Z</time></trkpt>
<trkpt lat="44.280838072299957" lon="5.598303889855743"><ele></ele><time>2015-2-3T3:59:53Z</time></trkpt>
<trkpt lat="44.280511261895299" lon="5.598738323897123"><ele></ele><time>2015-2-3T3:59:56Z</time></trkpt>
<trkpt lat="44.280075905844569" lon="5.598839828744531"><ele></ele><time>2015-2-3T3:59:59Z</time></trkpt>
<trkpt lat="44.279874991625547" lon="5.599408121779561"><ele></ele><time>2015-2-3T4:0:2Z</time></trkpt>
<trkpt lat="44.279720764607191" lon="5.600005919113755"><ele></ele><time>2015-2-3T4:0:5Z</time></trkpt>
<trkpt lat="44.279396301135421" lon="5.600399868562818"><ele></ele><time>2015-2-3T4:0:8Z</time></trkpt>
<trkpt lat="44.278968991711736" lon="5.600634897127748"><ele></ele><time>2015-2-3T4:0:11Z</time></trkpt>
<trkpt lat="44.278585268184543" lon="5.601025493815541"><ele></ele><time>2015-2-3T4:0:14Z</time></trkpt>
<trkpt lat="44.278177488595247" lon="5.601326487958431"><ele></ele><time>2015-2-3T4:0:17Z</time></trkpt>
<trkpt lat="44.277733415365219" lon="5.601282566785812"><ele></ele><time>2015-2-3T4:0:20Z</time></trkpt>
<trkpt lat="44.277318343520164" lon="5.601496053859592"><ele></ele><time>2015-2-3T4:0:23Z</time></trkpt>
<trkpt lat="44.276982480660081" lon="5.601900396868587"><ele></ele><time>2015-2-3T4:0:26Z</time></trkpt>
<trkpt lat="44.277282971888781" lon="5.602323515340686"><ele></ele><time>2015-2-3T4:0:29Z</time></trkpt>
<trkpt lat="44.277199991047382" lon="5.602775299921632"><ele></ele><time>2015-2-3T4:0:32Z</time></trkpt>
<trkpt lat="44.277184987440705" lon="5.603381479158998"><ele></ele><time>2015-2-3T4:0:35Z</time></trkpt>
<trkpt lat="44.277206026017666" lon="5.604024538770318"><ele></ele><time>2015-2-3T4:0:38Z</time></trkpt>
<trkpt lat="44.276960603892803" lon="5.604562154039741"><ele></ele><time>2015-2-3T4:0:41Z</time></trkpt>
<trkpt lat="44.276529438793659" lon="5.604743454605341"><ele></ele><time>2015-2-3T4:0:44Z</time></trkpt>
<trkpt lat="44.27607212215662" lon="5.604725098237395"><ele></ele><time>2015-2-3T4:0:47Z</time></trkpt>
<trkpt lat="44.275628300383687" lon="5.60464471578598"><ele></ele><time>2015-2-3T4:0:50Z</time></trkpt>
<trkpt lat="44.275221694260836" lon="5.604355037212372"><ele></ele><time>2015-2-3T4:0:53Z</time></trkpt>
<trkpt lat="44.275080459192395" lon="5.604671286419034"><ele></ele><time>2015-2-3T4:0:56Z</time></trkpt>
<trkpt lat="44.27498054690659" lon="5.605284841731191"><ele></ele><time>2015-2-3T4:0:59Z</time></trkpt>
<trkpt lat="44.274822128936648" lon="5.605886578559876"><ele></ele><time>2015-2-3T4:1:2Z</time></trkpt>
<trkpt lat="44.27446304820478" lon="5.606251610442996"><ele></ele><time>2015-2-3T4:1:5Z</time></trkpt>
<trkpt lat="44.274248387664557" lon="5.606712531298399"><ele></ele><time>2015-2-3T4:1:8Z</time></trkpt>
<trkpt lat="44.27393339574337" lon="5.6071234960109"><ele></ele><time>2015-2-3T4:1:11Z</time></trkpt>
<trkpt lat="44.273493764922023" lon="5.607253164052963"><ele></ele><time>2015-2-3T4:1:14Z</time></trkpt>
<trkpt lat="44.273191429674625" lon="5.607720371335745"><ele></ele><time>2015-2-3T4:1:17Z</time></trkpt>
<trkpt lat="44.273128984495997" lon="5.608269553631544"><ele></ele><time>2015-2-3T4:1:20Z</time></trkpt>
<trkpt lat="44.27306218072772" lon="5.608772467821837"><ele></ele><time>2015-2-3T4:1:23Z</time></trkpt>
<trkpt lat="44.272843915969133" lon="5.609328523278236"><ele></ele><time>2015-2-3T4:1:26Z</time></trkpt>
<trkpt lat="44.272504029795527" lon="5.609682742506266"><ele></ele><time>2015-2-3T4:1:29Z</time></trkpt>
<trkpt lat="44.27206733264029" lon="5.60985155403614"><ele></ele><time>2015-2-3T4:1:32Z</time></trkpt>
<trkpt lat="44.271627366542816" lon="5.610044589266181"><ele></ele><time>2015-2-3T4:1:35Z</time></trkpt>
<trkpt lat="44.271225119009614" lon="5.610325634479523"><ele></ele><time>2015-2-3T4:1:38Z</time></trkpt>
<trkpt lat="44.27080225199461" lon="5.610541887581348"><ele></ele><time>2015-2-3T4:1:41Z</time></trkpt>
<trkpt lat="44.270362788811326" lon="5.61066510155797"><ele></ele><time>2015-2-3T4:1:44Z</time></trkpt>
<trkpt lat="44.269956015050411" lon="5.610913541167975"><ele></ele><time>2015-2-3T4:1:47Z</time></trkpt>
<trkpt lat="44.269573213532567" lon="5.611232556402683"><ele></ele><time>2015-2-3T4:1:50Z</time></trkpt>
<trkpt lat="44.269197871908545" lon="5.611573783680797"><ele></ele><time>2015-2-3T4:1:53Z</time></trkpt>
<trkpt lat="44.268841557204723" lon="5.611947616562247"><ele></ele><time>2015-2-3T4:1:56Z</time></trkpt>
<trkpt lat="44.268429754301906" lon="5.612242240458727"><ele></ele><time>2015-2-3T4:1:59Z</time></trkpt>
<trkpt lat="44.268122557550669" lon="5.612706765532494"><ele></ele><time>2015-2-3T4:2:2Z</time></trkpt>
<trkpt lat="44.267828520387411" lon="5.613205740228295"><ele></ele><time>2015-2-3T4:2:5Z</time></trkpt>
<trkpt lat="44.267480252310634" lon="5.613604718819261"><ele></ele><time>2015-2-3T4:2:8Z</time></trkpt>
<trkpt lat="44.267130643129349" lon="5.614005960524082"><ele></ele><time>2015-2-3T4:2:11Z</time></trkpt>
<trkpt lat="44.266755636781454" lon="5.614368729293346"><ele></ele><time>2015-2-3T4:2:14Z</time></trkpt>
<trkpt lat="44.266335368156433" lon="5.614602584391832"><ele></ele><time>2015-2-3T4:2:17Z</time></trkpt>
<trkpt lat="44.266004282981157" lon="5.615010363981128"><ele></ele><time>2015-2-3T4:2:20Z</time></trkpt>
<trkpt lat="44.265724746510386" lon="5.615523839369416"><ele></ele><time>2015-2-3T4:2:23Z</time></trkpt>
<trkpt lat="44.26557881757617" lon="5.616096323356032"><ele></ele><time>2015-2-3T4:2:26Z</time></trkpt>
<trkpt lat="44.265400618314743" lon="5.616648104041815"><ele></ele><time>2015-2-3T4:2:29Z</time></trkpt>
<trkpt lat="44.265463566407561" lon="5.617278758436441"><ele></ele><time>2015-2-3T4:2:32Z</time></trkpt>
<trkpt lat="44.265435738489032" lon="5.617896420881152"><ele></ele><time>2015-2-3T4:2:35Z</time></trkpt>
<trkpt lat="44.265017313882709" lon="5.618050480261445"><ele></ele><time>2015-2-3T4:2:38Z</time></trkpt>
<trkpt lat="44.264683714136481" lon="5.618384666740894"><ele></ele><time>2015-2-3T4:2:41Z</time></trkpt>
<trkpt lat="44.264425467699766" lon="5.618908451870084"><ele></ele><time>2015-2-3T4:2:44Z</time></trkpt>
<trkpt lat="44.264224721118808" lon="5.61948730610311"><ele></ele><time>2015-2-3T4:2:47Z</time></trkpt>
<trkpt lat="44.263959266245365" lon="5.619998518377543"><ele></ele><time>2015-2-3T4:2:50Z</time></trkpt>
<trkpt lat="44.263574704527855" lon="5.620324742048979"><ele></ele><time>2015-2-3T4:2:53Z</time></trkpt>
<trkpt lat="44.263209840282798" lon="5.620687594637275"><ele></ele><time>2015-2-3T4:2:56Z</time></trkpt>
<trkpt lat="44.262857800349593" lon="5.621108366176486"><ele></ele><time>2015-2-3T4:2:59Z</time></trkpt>
<trkpt lat="44.262578096240759" lon="5.621612118557096"><ele></ele><time>2015-2-3T4:3:2Z</time></trkpt>
<trkpt lat="44.262214908376336" lon="5.621911520138383"><ele></ele><time>2015-2-3T4:3:5Z</time></trkpt>
<trkpt lat="44.261775529012084" lon="5.621651597321034"><ele></ele><time>2015-2-3T4:3:8Z</time></trkpt>
<trkpt lat="44.261985076591372" lon="5.621505668386817"><ele></ele><time>2015-2-3T4:3:11Z</time></trkpt>
<trkpt lat="44.262283388525248" lon="5.621015997603536"><ele></ele><time>2015-2-3T4:3:14Z</time></trkpt>
<trkpt lat="44.262257823720574" lon="5.62026129104197"><ele></ele><time>2015-2-3T4:3:17Z</time></trkpt>
<trkpt lat="44.262065878137946" lon="5.619554361328483"><ele></ele><time>2015-2-3T4:3:20Z</time></trkpt>
<trkpt lat="44.261902347207069" lon="5.61895614489913"><ele></ele><time>2015-2-3T4:3:23Z</time></trkpt>
<trkpt lat="44.261766308918595" lon="5.618261201307178"><ele></ele><time>2015-2-3T4:3:26Z</time></trkpt>
<trkpt lat="44.261405803263187" lon="5.617674803361297"><ele></ele><time>2015-2-3T4:3:29Z</time></trkpt>
<trkpt lat="44.260994754731655" lon="5.617222096771002"><ele></ele><time>2015-2-3T4:3:32Z</time></trkpt>
<trkpt lat="44.260542467236519" lon="5.617046328261495"><ele></ele><time>2015-2-3T4:3:35Z</time></trkpt>
<trkpt lat="44.260208196938038" lon="5.616575349122286"><ele></ele><time>2015-2-3T4:3:38Z</time></trkpt>
<trkpt lat="44.259780636057258" lon="5.616299333050847"><ele></ele><time>2015-2-3T4:3:41Z</time></trkpt>
<trkpt lat="44.259279146790504" lon="5.61633562669158"><ele></ele><time>2015-2-3T4:3:44Z</time></trkpt>
<trkpt lat="44.258898356929421" lon="5.616726977750659"><ele></ele><time>2015-2-3T4:3:47Z</time></trkpt>
<trkpt lat="44.258471047505736" lon="5.616976423189044"><ele></ele><time>2015-2-3T4:3:50Z</time></trkpt>
<trkpt lat="44.257989171892405" lon="5.616920432075858"><ele></ele><time>2015-2-3T4:3:53Z</time></trkpt>
<trkpt lat="44.257656242698431" lon="5.617180103436112"><ele></ele><time>2015-2-3T4:3:56Z</time></trkpt>
<trkpt lat="44.258146667852998" lon="5.617255792021751"><ele></ele><time>2015-2-3T4:3:59Z</time></trkpt>
<trkpt lat="44.258558135479689" lon="5.617533484473825"><ele></ele><time>2015-2-3T4:4:2Z</time></trkpt>
<trkpt lat="44.259043447673321" lon="5.617525605484843"><ele></ele><time>2015-2-3T4:4:5Z</time></trkpt>
<trkpt lat="44.259316027164459" lon="5.618109991773963"><ele></ele><time>2015-2-3T4:4:8Z</time></trkpt>
<trkpt lat="44.259310411289334" lon="5.61884525232017"><ele></ele><time>2015-2-3T4:4:11Z</time></trkpt>
<trkpt lat="44.259497663006186" lon="5.619453778490424"><ele></ele><time>2015-2-3T4:4:14Z</time></trkpt>
<trkpt lat="44.259171774610877" lon="5.619959207251668"><ele></ele><time>2015-2-3T4:4:17Z</time></trkpt>
<trkpt lat="44.258847562596202" lon="5.620549796149135"><ele></ele><time>2015-2-3T4:4:20Z</time></trkpt>
<trkpt lat="44.258547490462661" lon="5.621062181890011"><ele></ele><time>2015-2-3T4:4:23Z</time></trkpt>
<trkpt lat="44.258157480508089" lon="5.621456215158105"><ele></ele><time>2015-2-3T4:4:26Z</time></trkpt>
<trkpt lat="44.257688513025641" lon="5.621677916496992"><ele></ele><time>2015-2-3T4:4:29Z</time></trkpt>
<trkpt lat="44.257232621312141" lon="5.62154590152204"><ele></ele><time>2015-2-3T4:4:32Z</time></trkpt>
<trkpt lat="44.256936823949218" lon="5.622045714408159"><ele></ele><time>2015-2-3T4:4:35Z</time></trkpt>
<trkpt lat="44.256774550303817" lon="5.621913447976112"><ele></ele><time>2015-2-3T4:4:38Z</time></trkpt>
<trkpt lat="44.256904134526849" lon="5.621299473568797"><ele></ele><time>2015-2-3T4:4:41Z</time></trkpt>
<trkpt lat="44.257060959935188" lon="5.620630513876677"><ele></ele><time>2015-2-3T4:4:44Z</time></trkpt>
<trkpt lat="44.257312417030334" lon="5.620037158951163"><ele></ele><time>2015-2-3T4:4:47Z</time></trkpt>
<trkpt lat="44.257285762578249" lon="5.619648490101099"><ele></ele><time>2015-2-3T4:4:50Z</time></trkpt>
<trkpt lat="44.256794499233365" lon="5.61979659833014"><ele></ele><time>2015-2-3T4:4:53Z</time></trkpt>
<trkpt lat="44.25631832331419" lon="5.619909083470702"><ele></ele><time>2015-2-3T4:4:56Z</time></trkpt>
<trkpt lat="44.25577157177031" lon="5.619903970509768"><ele></ele><time>2015-2-3T4:4:59Z</time></trkpt>
<trkpt lat="44.2553093098104" lon="5.620003128424287"><ele></ele><time>2015-2-3T4:5:2Z</time></trkpt>
<trkpt lat="44.255003537982702" lon="5.620211083441973"><ele></ele><time>2015-2-3T4:5:5Z</time></trkpt>
<trkpt lat="44.255497148260474" lon="5.620237486436963"><ele></ele><time>2015-2-3T4:5:8Z</time></trkpt>
<trkpt lat="44.255372676998377" lon="5.620484333485365"><ele></ele><time>2015-2-3T4:5:11Z</time></trkpt>
<trkpt lat="44.254918210208416" lon="5.620473101735115"><ele></ele><time>2015-2-3T4:5:14Z</time></trkpt>
<trkpt lat="44.254404986277223" lon="5.620203036814928"><ele></ele><time>2015-2-3T4:5:17Z</time></trkpt>
<trkpt lat="44.253909951075912" lon="5.61995342373848"><ele></ele><time>2015-2-3T4:5:20Z</time></trkpt>
<trkpt lat="44.253489850088954" lon="5.620262632146478"><ele></ele><time>2015-2-3T4:5:23Z</time></trkpt>
<trkpt lat="44.252942176535726" lon="5.620330944657326"><ele></ele><time>2015-2-3T4:5:26Z</time></trkpt>
<trkpt lat="44.252436915412545" lon="5.620456840842962"><ele></ele><time>2015-2-3T4:5:29Z</time></trkpt>
<trkpt lat="44.251918997615576" lon="5.62039322219789"><ele></ele><time>2015-2-3T4:5:32Z</time></trkpt>
<trkpt lat="44.251466877758503" lon="5.620388193055987"><ele></ele><time>2015-2-3T4:5:35Z</time></trkpt>
<trkpt lat="44.250992210581899" lon="5.620456840842962"><ele></ele><time>2015-2-3T4:5:38Z</time></trkpt>
<trkpt lat="44.250639248639345" lon="5.620003128424287"><ele></ele><time>2015-2-3T4:5:41Z</time></trkpt>
<trkpt lat="44.250467084348202" lon="5.619372557848692"><ele></ele><time>2015-2-3T4:5:44Z</time></trkpt>
<trkpt lat="44.25046163611114" lon="5.618662862107158"><ele></ele><time>2015-2-3T4:5:47Z</time></trkpt>
<trkpt lat="44.250695072114468" lon="5.61812499538064"><ele></ele><time>2015-2-3T4:5:50Z</time></trkpt>
<trkpt lat="44.250940578058362" lon="5.617682430893183"><ele></ele><time>2015-2-3T4:5:53Z</time></trkpt>
<trkpt lat="44.250489296391606" lon="5.617626439779997"><ele></ele><time>2015-2-3T4:5:56Z</time></trkpt>
<trkpt lat="44.25004337914288" lon="5.617465758696199"><ele></ele><time>2015-2-3T4:5:59Z</time></trkpt>
<trkpt lat="44.249709444120526" lon="5.616927053779364"><ele></ele><time>2015-2-3T4:6:2Z</time></trkpt>
<trkpt lat="44.249613052234054" lon="5.616257842630148"><ele></ele><time>2015-2-3T4:6:5Z</time></trkpt>
<trkpt lat="44.249760741367936" lon="5.615666499361396"><ele></ele><time>2015-2-3T4:6:8Z</time></trkpt>
<trkpt lat="44.249383304268122" lon="5.615396853536367"><ele></ele><time>2015-2-3T4:6:11Z</time></trkpt>
<trkpt lat="44.248919617384672" lon="5.61535737477243"><ele></ele><time>2015-2-3T4:6:14Z</time></trkpt>
<trkpt lat="44.248431036248803" lon="5.615020003169775"><ele></ele><time>2015-2-3T4:6:17Z</time></trkpt>
<trkpt lat="44.248072626069188" lon="5.614540809765458"><ele></ele><time>2015-2-3T4:6:20Z</time></trkpt>
<trkpt lat="44.247959470376372" lon="5.613971594721079"><ele></ele><time>2015-2-3T4:6:23Z</time></trkpt>
<trkpt lat="44.247487150132656" lon="5.613612178713083"><ele></ele><time>2015-2-3T4:6:26Z</time></trkpt>
<trkpt lat="44.247302748262882" lon="5.612877504900098"><ele></ele><time>2015-2-3T4:6:29Z</time></trkpt>
<trkpt lat="44.247242398560047" lon="5.612224722281098"><ele></ele><time>2015-2-3T4:6:32Z</time></trkpt>
<trkpt lat="44.247179953381419" lon="5.611575208604336"><ele></ele><time>2015-2-3T4:6:35Z</time></trkpt>
<trkpt lat="44.24713896587491" lon="5.610916642472148"><ele></ele><time>2015-2-3T4:6:38Z</time></trkpt>
<trkpt lat="44.247116586193442" lon="5.610367124900222"><ele></ele><time>2015-2-3T4:6:41Z</time></trkpt>
<trkpt lat="44.247018350288272" lon="5.611012363806367"><ele></ele><time>2015-2-3T4:6:44Z</time></trkpt>
<trkpt lat="44.246931597590446" lon="5.611742762848735"><ele></ele><time>2015-2-3T4:6:47Z</time></trkpt>
<trkpt lat="44.246817771345377" lon="5.612453632056713"><ele></ele><time>2015-2-3T4:6:50Z</time></trkpt>
<trkpt lat="44.24685113132" lon="5.613136338070035"><ele></ele><time>2015-2-3T4:6:53Z</time></trkpt>
<trkpt lat="44.246928915381432" lon="5.613900516182184"><ele></ele><time>2015-2-3T4:6:56Z</time></trkpt>
<trkpt lat="44.247050369158387" lon="5.614564949646592"><ele></ele><time>2015-2-3T4:6:59Z</time></trkpt>
<trkpt lat="44.247136283665895" lon="5.615200465545058"><ele></ele><time>2015-2-3T4:7:2Z</time></trkpt>
<trkpt lat="44.24689756706357" lon="5.615569101646543"><ele></ele><time>2015-2-3T4:7:5Z</time></trkpt>
<trkpt lat="44.246559692546725" lon="5.615225024521351"><ele></ele><time>2015-2-3T4:7:8Z</time></trkpt>
<trkpt lat="44.246298260986805" lon="5.614641979336739"><ele></ele><time>2015-2-3T4:7:11Z</time></trkpt>
<trkpt lat="44.246030291542411" lon="5.614040242508054"><ele></ele><time>2015-2-3T4:7:14Z</time></trkpt>
<trkpt lat="44.245794508606195" lon="5.613482845947146"><ele></ele><time>2015-2-3T4:7:17Z</time></trkpt>
<trkpt lat="44.24557238817215" lon="5.61283752322197"><ele></ele><time>2015-2-3T4:7:20Z</time></trkpt>
<trkpt lat="44.245454035699368" lon="5.612182393670082"><ele></ele><time>2015-2-3T4:7:23Z</time></trkpt>
<trkpt lat="44.245377006009221" lon="5.611517122015357"><ele></ele><time>2015-2-3T4:7:26Z</time></trkpt>
<trkpt lat="44.244975009933114" lon="5.611125435680151"><ele></ele><time>2015-2-3T4:7:29Z</time></trkpt>
<trkpt lat="44.2446752730757" lon="5.61060206964612"><ele></ele><time>2015-2-3T4:7:32Z</time></trkpt>
<trkpt lat="44.244257435202599" lon="5.610150285065174"><ele></ele><time>2015-2-3T4:7:35Z</time></trkpt>
<trkpt lat="44.243881087750196" lon="5.609806543216109"><ele></ele><time>2015-2-3T4:7:38Z</time></trkpt>
<trkpt lat="44.24348596483469" lon="5.609464729204774"><ele></ele><time>2015-2-3T4:7:41Z</time></trkpt>
<trkpt lat="44.243062091991305" lon="5.609241519123316"><ele></ele><time>2015-2-3T4:7:44Z</time></trkpt>
<trkpt lat="44.242631429806352" lon="5.609024427831173"><ele></ele><time>2015-2-3T4:7:47Z</time></trkpt>
<trkpt lat="44.2425287514925" lon="5.608465690165758"><ele></ele><time>2015-2-3T4:7:50Z</time></trkpt>
<trkpt lat="44.242064645513892" lon="5.608272235840559"><ele></ele><time>2015-2-3T4:7:53Z</time></trkpt>
<trkpt lat="44.241597438231111" lon="5.608134269714356"><ele></ele><time>2015-2-3T4:7:56Z</time></trkpt>
<trkpt lat="44.241104582324624" lon="5.608120271936059"><ele></ele><time>2015-2-3T4:7:59Z</time></trkpt>
<trkpt lat="44.24059378914535" lon="5.608077608048916"><ele></ele><time>2015-2-3T4:8:2Z</time></trkpt>
<trkpt lat="44.240091545507312" lon="5.608089091256261"><ele></ele><time>2015-2-3T4:8:5Z</time></trkpt>
<trkpt lat="44.239652501419187" lon="5.607982976362109"><ele></ele><time>2015-2-3T4:8:8Z</time></trkpt>
<trkpt lat="44.239256959408522" lon="5.60761115513742"><ele></ele><time>2015-2-3T4:8:11Z</time></trkpt>
<trkpt lat="44.238828308880329" lon="5.607396075502038"><ele></ele><time>2015-2-3T4:8:14Z</time></trkpt>
<trkpt lat="44.238376440480351" lon="5.607146210968494"><ele></ele><time>2015-2-3T4:8:17Z</time></trkpt>
<trkpt lat="44.237950220704079" lon="5.606915792450309"><ele></ele><time>2015-2-3T4:8:20Z</time></trkpt>
<trkpt lat="44.23750857822597" lon="5.606802133843303"><ele></ele><time>2015-2-3T4:8:23Z</time></trkpt>
<trkpt lat="44.237010190263391" lon="5.606835912913084"><ele></ele><time>2015-2-3T4:8:26Z</time></trkpt>
<trkpt lat="44.23654499463737" lon="5.606833314523101"><ele></ele><time>2015-2-3T4:8:29Z</time></trkpt>
<trkpt lat="44.236087175086141" lon="5.606633825227618"><ele></ele><time>2015-2-3T4:8:32Z</time></trkpt>
<trkpt lat="44.235839070752263" lon="5.606121607124806"><ele></ele><time>2015-2-3T4:8:35Z</time></trkpt>
<trkpt lat="44.235759694129229" lon="5.605455916374922"><ele></ele><time>2015-2-3T4:8:38Z</time></trkpt>
<trkpt lat="44.235488204285502" lon="5.604903381317854"><ele></ele><time>2015-2-3T4:8:41Z</time></trkpt>
<trkpt lat="44.235281338915229" lon="5.604350008070469"><ele></ele><time>2015-2-3T4:8:44Z</time></trkpt>
<trkpt lat="44.235196514055133" lon="5.60373486019671"><ele></ele><time>2015-2-3T4:8:47Z</time></trkpt>
<trkpt lat="44.235036503523588" lon="5.603150390088558"><ele></ele><time>2015-2-3T4:8:50Z</time></trkpt>
<trkpt lat="44.234886635094881" lon="5.60255778953433"><ele></ele><time>2015-2-3T4:8:53Z</time></trkpt>
<trkpt lat="44.234748920425773" lon="5.60196066275239"><ele></ele><time>2015-2-3T4:8:56Z</time></trkpt>
<trkpt lat="44.234498888254166" lon="5.601416677236557"><ele></ele><time>2015-2-3T4:8:59Z</time></trkpt>
<trkpt lat="44.23425086773932" lon="5.600891383364797"><ele></ele><time>2015-2-3T4:9:2Z</time></trkpt>
<trkpt lat="44.233952891081572" lon="5.600325604900718"><ele></ele><time>2015-2-3T4:9:5Z</time></trkpt>
<trkpt lat="44.233584254980087" lon="5.599793856963515"><ele></ele><time>2015-2-3T4:9:8Z</time></trkpt>
<trkpt lat="44.233276639133692" lon="5.599149456247687"><ele></ele><time>2015-2-3T4:9:11Z</time></trkpt>
<trkpt lat="44.232994001358747" lon="5.598631789907813"><ele></ele><time>2015-2-3T4:9:14Z</time></trkpt>
<trkpt lat="44.232606925070286" lon="5.598120577633381"><ele></ele><time>2015-2-3T4:9:17Z</time></trkpt>
<trkpt lat="44.232165617868304" lon="5.597823858261108"><ele></ele><time>2015-2-3T4:9:20Z</time></trkpt>
<trkpt lat="44.231804357841611" lon="5.597257828339934"><ele></ele><time>2015-2-3T4:9:23Z</time></trkpt>
<trkpt lat="44.231546362861991" lon="5.596640417352319"><ele></ele><time>2015-2-3T4:9:26Z</time></trkpt>
<trkpt lat="44.231231538578868" lon="5.596182933077216"><ele></ele><time>2015-2-3T4:9:29Z</time></trkpt>
<trkpt lat="44.230835745111108" lon="5.595838185399771"><ele></ele><time>2015-2-3T4:9:32Z</time></trkpt>
<trkpt lat="44.230423355475068" lon="5.595503496006131"><ele></ele><time>2015-2-3T4:9:35Z</time></trkpt>
<trkpt lat="44.230007696896791" lon="5.595210129395127"><ele></ele><time>2015-2-3T4:9:38Z</time></trkpt>
<trkpt lat="44.229613663628697" lon="5.594901591539383"><ele></ele><time>2015-2-3T4:9:41Z</time></trkpt>
<trkpt lat="44.229138744994998" lon="5.594567740336061"><ele></ele><time>2015-2-3T4:9:44Z</time></trkpt>
<trkpt lat="44.228728367015719" lon="5.594300692901015"><ele></ele><time>2015-2-3T4:9:47Z</time></trkpt>
<trkpt lat="44.228362999856472" lon="5.593909760937095"><ele></ele><time>2015-2-3T4:9:50Z</time></trkpt>
<trkpt lat="44.228068040683866" lon="5.593404332175851"><ele></ele><time>2015-2-3T4:9:53Z</time></trkpt>
<trkpt lat="44.2275879252702" lon="5.593109792098403"><ele></ele><time>2015-2-3T4:9:56Z</time></trkpt>
<trkpt lat="44.227126333862543" lon="5.592942405492067"><ele></ele><time>2015-2-3T4:9:59Z</time></trkpt>
<trkpt lat="44.226679410785437" lon="5.592862693592906"><ele></ele><time>2015-2-3T4:10:2Z</time></trkpt>
<trkpt lat="44.226321000605822" lon="5.592382913455367"><ele></ele><time>2015-2-3T4:10:5Z</time></trkpt>
<trkpt lat="44.22585915774107" lon="5.592445190995932"><ele></ele><time>2015-2-3T4:10:8Z</time></trkpt>
<trkpt lat="44.22537250444293" lon="5.592555413022637"><ele></ele><time>2015-2-3T4:10:11Z</time></trkpt>
<trkpt lat="44.224910913035274" lon="5.592608219012618"><ele></ele><time>2015-2-3T4:10:14Z</time></trkpt>
<trkpt lat="44.22448368743062" lon="5.592817347496748"><ele></ele><time>2015-2-3T4:10:17Z</time></trkpt>
<trkpt lat="44.22409862279892" lon="5.59316486120224"><ele></ele><time>2015-2-3T4:10:20Z</time></trkpt>
<trkpt lat="44.223689250648022" lon="5.593546908348799"><ele></ele><time>2015-2-3T4:10:23Z</time></trkpt>
<trkpt lat="44.223347185179591" lon="5.594012858346105"><ele></ele><time>2015-2-3T4:10:26Z</time></trkpt>
<trkpt lat="44.222973855212331" lon="5.594420973211527"><ele></ele><time>2015-2-3T4:10:29Z</time></trkpt>
<trkpt lat="44.222503043711185" lon="5.594396414235234"><ele></ele><time>2015-2-3T4:10:32Z</time></trkpt>
<trkpt lat="44.222148489207029" lon="5.594818107783794"><ele></ele><time>2015-2-3T4:10:35Z</time></trkpt>
<trkpt lat="44.22191740013659" lon="5.595416324213147"><ele></ele><time>2015-2-3T4:10:38Z</time></trkpt>
<trkpt lat="44.221510123461485" lon="5.595622938126326"><ele></ele><time>2015-2-3T4:10:41Z</time></trkpt>
<trkpt lat="44.221314825117588" lon="5.595058584585786"><ele></ele><time>2015-2-3T4:10:44Z</time></trkpt>
<trkpt lat="44.221207704395056" lon="5.59442600235343"><ele></ele><time>2015-2-3T4:10:47Z</time></trkpt>
<trkpt lat="44.221101170405746" lon="5.593782942742109"><ele></ele><time>2015-2-3T4:10:50Z</time></trkpt>
<trkpt lat="44.220975106582046" lon="5.593072576448321"><ele></ele><time>2015-2-3T4:10:53Z</time></trkpt>
<trkpt lat="44.220878966152668" lon="5.592443682253361"><ele></ele><time>2015-2-3T4:10:56Z</time></trkpt>
<trkpt lat="44.220794560387731" lon="5.591824427247047"><ele></ele><time>2015-2-3T4:10:59Z</time></trkpt>
<trkpt lat="44.220801098272204" lon="5.591131830587983"><ele></ele><time>2015-2-3T4:11:2Z</time></trkpt>
<trkpt lat="44.220916265621781" lon="5.590481730177999"><ele></ele><time>2015-2-3T4:11:5Z</time></trkpt>
<trkpt lat="44.221040066331625" lon="5.589855685830116"><ele></ele><time>2015-2-3T4:11:8Z</time></trkpt>
<trkpt lat="44.221071498468518" lon="5.589216817170382"><ele></ele><time>2015-2-3T4:11:11Z</time></trkpt>
<trkpt lat="44.221069319173694" lon="5.588513743132353"><ele></ele><time>2015-2-3T4:11:14Z</time></trkpt>
<trkpt lat="44.221066134050488" lon="5.58787495829165"><ele></ele><time>2015-2-3T4:11:17Z</time></trkpt>
<trkpt lat="44.221060266718268" lon="5.58721630834043"><ele></ele><time>2015-2-3T4:11:20Z</time></trkpt>
<trkpt lat="44.221050459891558" lon="5.586531758308411"><ele></ele><time>2015-2-3T4:11:23Z</time></trkpt>
<trkpt lat="44.221041575074196" lon="5.585878053680062"><ele></ele><time>2015-2-3T4:11:26Z</time></trkpt>
<trkpt lat="44.221036210656166" lon="5.585208674892783"><ele></ele><time>2015-2-3T4:11:29Z</time></trkpt>
<trkpt lat="44.221032857894897" lon="5.584508702158928"><ele></ele><time>2015-2-3T4:11:32Z</time></trkpt>
<trkpt lat="44.221027325838804" lon="5.583859356120229"><ele></ele><time>2015-2-3T4:11:35Z</time></trkpt>
<trkpt lat="44.221022548153996" lon="5.583231635391712"><ele></ele><time>2015-2-3T4:11:38Z</time></trkpt>
<trkpt lat="44.221013663336635" lon="5.582526717334986"><ele></ele><time>2015-2-3T4:11:41Z</time></trkpt>
<trkpt lat="44.221072588115931" lon="5.581805873662233"><ele></ele><time>2015-2-3T4:11:44Z</time></trkpt>
<trkpt lat="44.221148695796728" lon="5.581142697483301"><ele></ele><time>2015-2-3T4:11:47Z</time></trkpt>
<trkpt lat="44.221229078248143" lon="5.580439791083336"><ele></ele><time>2015-2-3T4:11:50Z</time></trkpt>
<trkpt lat="44.221300827339292" lon="5.579723389819264"><ele></ele><time>2015-2-3T4:11:53Z</time></trkpt>
<trkpt lat="44.221374755725265" lon="5.57903909124434"><ele></ele><time>2015-2-3T4:11:56Z</time></trkpt>
<trkpt lat="44.221439966931939" lon="5.578376250341535"><ele></ele><time>2015-2-3T4:11:59Z</time></trkpt>
<trkpt lat="44.221458910033107" lon="5.57774375192821"><ele></ele><time>2015-2-3T4:12:2Z</time></trkpt>
<trkpt lat="44.221430998295546" lon="5.577054005116224"><ele></ele><time>2015-2-3T4:12:5Z</time></trkpt>
<trkpt lat="44.221403673291206" lon="5.576371634379029"><ele></ele><time>2015-2-3T4:12:8Z</time></trkpt>
<trkpt lat="44.221383724361658" lon="5.575685743242502"><ele></ele><time>2015-2-3T4:12:11Z</time></trkpt>
<trkpt lat="44.221361931413412" lon="5.574984680861235"><ele></ele><time>2015-2-3T4:12:14Z</time></trkpt>
<trkpt lat="44.221344580873847" lon="5.574289234355092"><ele></ele><time>2015-2-3T4:12:17Z</time></trkpt>
<trkpt lat="44.221323039382696" lon="5.573586914688349"><ele></ele><time>2015-2-3T4:12:20Z</time></trkpt>
<trkpt lat="44.221299486234784" lon="5.572898760437965"><ele></ele><time>2015-2-3T4:12:23Z</time></trkpt>
<trkpt lat="44.221280962228775" lon="5.572193590924144"><ele></ele><time>2015-2-3T4:12:26Z</time></trkpt>
<trkpt lat="44.221264533698559" lon="5.571558829396963"><ele></ele><time>2015-2-3T4:12:29Z</time></trkpt>
<trkpt lat="44.221246764063835" lon="5.570842679589987"><ele></ele><time>2015-2-3T4:12:32Z</time></trkpt>
<trkpt lat="44.221223127096891" lon="5.570166511461139"><ele></ele><time>2015-2-3T4:12:35Z</time></trkpt>
<trkpt lat="44.221213990822434" lon="5.569527894258499"><ele></ele><time>2015-2-3T4:12:38Z</time></trkpt>
<trkpt lat="44.221196305006742" lon="5.568901346996427"><ele></ele><time>2015-2-3T4:12:41Z</time></trkpt>
<trkpt lat="44.221174428239465" lon="5.568207912147045"><ele></ele><time>2015-2-3T4:12:44Z</time></trkpt>
<trkpt lat="44.221157748252153" lon="5.56751866824925"><ele></ele><time>2015-2-3T4:12:47Z</time></trkpt>
<trkpt lat="44.221137799322605" lon="5.566847026348114"><ele></ele><time>2015-2-3T4:12:50Z</time></trkpt>
<trkpt lat="44.221116928383708" lon="5.566201033070684"><ele></ele><time>2015-2-3T4:12:53Z</time></trkpt>
<trkpt lat="44.221101254224777" lon="5.56555881164968"><ele></ele><time>2015-2-3T4:12:56Z</time></trkpt>
<trkpt lat="44.221082394942641" lon="5.564921703189611"><ele></ele><time>2015-2-3T4:12:59Z</time></trkpt>
<trkpt lat="44.221031181514263" lon="5.56425609625876"><ele></ele><time>2015-2-3T4:13:2Z</time></trkpt>
<trkpt lat="44.220968568697572" lon="5.563584957271814"><ele></ele><time>2015-2-3T4:13:5Z</time></trkpt>
<trkpt lat="44.220899417996407" lon="5.562932761386037"><ele></ele><time>2015-2-3T4:13:8Z</time></trkpt>
<trkpt lat="44.220829429104924" lon="5.562290120869875"><ele></ele><time>2015-2-3T4:13:11Z</time></trkpt>
<trkpt lat="44.220758685842156" lon="5.561588052660227"><ele></ele><time>2015-2-3T4:13:14Z</time></trkpt>
<trkpt lat="44.220689199864864" lon="5.560949686914682"><ele></ele><time>2015-2-3T4:13:17Z</time></trkpt>
<trkpt lat="44.220622731372714" lon="5.560269830748439"><ele></ele><time>2015-2-3T4:13:20Z</time></trkpt>
<trkpt lat="44.220550060272217" lon="5.559563655406237"><ele></ele><time>2015-2-3T4:13:23Z</time></trkpt>
<trkpt lat="44.220472192391753" lon="5.558868292719126"><ele></ele><time>2015-2-3T4:13:26Z</time></trkpt>
<trkpt lat="44.220404969528317" lon="5.558177707716823"><ele></ele><time>2015-2-3T4:13:29Z</time></trkpt>
<trkpt lat="44.22033280134201" lon="5.557492654770613"><ele></ele><time>2015-2-3T4:13:32Z</time></trkpt>
<trkpt lat="44.220266919583082" lon="5.556833250448108"><ele></ele><time>2015-2-3T4:13:35Z</time></trkpt>
<trkpt lat="44.220205480232835" lon="5.556198740378022"><ele></ele><time>2015-2-3T4:13:38Z</time></trkpt>
<trkpt lat="44.220133312046528" lon="5.555499019101262"><ele></ele><time>2015-2-3T4:13:41Z</time></trkpt>
<trkpt lat="44.220064161345363" lon="5.554832071065903"><ele></ele><time>2015-2-3T4:13:44Z</time></trkpt>
<trkpt lat="44.219994843006134" lon="5.554187586531043"><ele></ele><time>2015-2-3T4:13:47Z</time></trkpt>
<trkpt lat="44.219925524666905" lon="5.553567744791508"><ele></ele><time>2015-2-3T4:13:50Z</time></trkpt>
<trkpt lat="44.219853105023503" lon="5.552885793149471"><ele></ele><time>2015-2-3T4:13:53Z</time></trkpt>
<trkpt lat="44.219775069504976" lon="5.552207445725799"><ele></ele><time>2015-2-3T4:13:56Z</time></trkpt>
<trkpt lat="44.219652945175767" lon="5.551571762189269"><ele></ele><time>2015-2-3T4:13:59Z</time></trkpt>
<trkpt lat="44.21946594491601" lon="5.550962230190635"><ele></ele><time>2015-2-3T4:14:2Z</time></trkpt>
<trkpt lat="44.219248769804835" lon="5.550365354865789"><ele></ele><time>2015-2-3T4:14:5Z</time></trkpt>
<trkpt lat="44.219033941626549" lon="5.549796223640442"><ele></ele><time>2015-2-3T4:14:8Z</time></trkpt>
<trkpt lat="44.218818610534072" lon="5.549216447398067"><ele></ele><time>2015-2-3T4:14:11Z</time></trkpt>
<trkpt lat="44.218618953600526" lon="5.548646561801434"><ele></ele><time>2015-2-3T4:14:14Z</time></trkpt>
<trkpt lat="44.218386271968484" lon="5.548053458333015"><ele></ele><time>2015-2-3T4:14:17Z</time></trkpt>
<trkpt lat="44.218168258666992" lon="5.547477202489972"><ele></ele><time>2015-2-3T4:14:20Z</time></trkpt>
<trkpt lat="44.217959884554148" lon="5.546918967738748"><ele></ele><time>2015-2-3T4:14:23Z</time></trkpt>
<trkpt lat="44.217727622017264" lon="5.546293510124087"><ele></ele><time>2015-2-3T4:14:26Z</time></trkpt>
<trkpt lat="44.217490330338478" lon="5.545668136328459"><ele></ele><time>2015-2-3T4:14:29Z</time></trkpt>
<trkpt lat="44.21727885492146" lon="5.545105040073395"><ele></ele><time>2015-2-3T4:14:32Z</time></trkpt>
<trkpt lat="44.217056399211287" lon="5.544484024867415"><ele></ele><time>2015-2-3T4:14:35Z</time></trkpt>
<trkpt lat="44.216781808063388" lon="5.543975830078125"><ele></ele><time>2015-2-3T4:14:38Z</time></trkpt>
<trkpt lat="44.216397581622005" lon="5.543641643598676"><ele></ele><time>2015-2-3T4:14:41Z</time></trkpt>
<trkpt lat="44.215931966900826" lon="5.543395131826401"><ele></ele><time>2015-2-3T4:14:44Z</time></trkpt>
<trkpt lat="44.215533575043082" lon="5.543017107993364"><ele></ele><time>2015-2-3T4:14:47Z</time></trkpt>
<trkpt lat="44.215152114629745" lon="5.542575214058161"><ele></ele><time>2015-2-3T4:14:50Z</time></trkpt>
<trkpt lat="44.214832093566656" lon="5.542157543823123"><ele></ele><time>2015-2-3T4:14:53Z</time></trkpt>
<trkpt lat="44.215177679434419" lon="5.541804330423474"><ele></ele><time>2015-2-3T4:14:56Z</time></trkpt>
<trkpt lat="44.214883977547288" lon="5.541996695101261"><ele></ele><time>2015-2-3T4:14:59Z</time></trkpt>
<trkpt lat="44.214788256213069" lon="5.542168524116278"><ele></ele><time>2015-2-3T4:15:2Z</time></trkpt>
<trkpt lat="44.214414088055491" lon="5.54175621829927"><ele></ele><time>2015-2-3T4:15:5Z</time></trkpt>
<trkpt lat="44.214058946818113" lon="5.541353551670909"><ele></ele><time>2015-2-3T4:15:8Z</time></trkpt>
<trkpt lat="44.213699279353023" lon="5.540945772081614"><ele></ele><time>2015-2-3T4:15:11Z</time></trkpt>
<trkpt lat="44.213340450078249" lon="5.540548469871283"><ele></ele><time>2015-2-3T4:15:14Z</time></trkpt>
<trkpt lat="44.212952284142375" lon="5.540233561769128"><ele></ele><time>2015-2-3T4:15:17Z</time></trkpt>
<trkpt lat="44.212534697726369" lon="5.539980679750443"><ele></ele><time>2015-2-3T4:15:20Z</time></trkpt>
<trkpt lat="44.21211157925427" lon="5.539763337001205"><ele></ele><time>2015-2-3T4:15:23Z</time></trkpt>
<trkpt lat="44.211694076657295" lon="5.539526045322418"><ele></ele><time>2015-2-3T4:15:26Z</time></trkpt>
<trkpt lat="44.211250087246299" lon="5.539282970130444"><ele></ele><time>2015-2-3T4:15:29Z</time></trkpt>
<trkpt lat="44.210807271301746" lon="5.539035955443978"><ele></ele><time>2015-2-3T4:15:32Z</time></trkpt>
<trkpt lat="44.210414662957191" lon="5.538728004321456"><ele></ele><time>2015-2-3T4:15:35Z</time></trkpt>
<trkpt lat="44.210059605538845" lon="5.538306729868054"><ele></ele><time>2015-2-3T4:15:38Z</time></trkpt>
<trkpt lat="44.20976422727108" lon="5.537781435996294"><ele></ele><time>2015-2-3T4:15:41Z</time></trkpt>
<trkpt lat="44.209538754075766" lon="5.537188919261098"><ele></ele><time>2015-2-3T4:15:44Z</time></trkpt>
<trkpt lat="44.209297522902489" lon="5.536594055593014"><ele></ele><time>2015-2-3T4:15:47Z</time></trkpt>
<trkpt lat="44.208850516006351" lon="5.536415688693523"><ele></ele><time>2015-2-3T4:15:50Z</time></trkpt>
<trkpt lat="44.208357911556959" lon="5.536528844386339"><ele></ele><time>2015-2-3T4:15:53Z</time></trkpt>
<trkpt lat="44.20788886025548" lon="5.536599922925234"><ele></ele><time>2015-2-3T4:15:56Z</time></trkpt>
<trkpt lat="44.207426765933633" lon="5.536455921828747"><ele></ele><time>2015-2-3T4:15:59Z</time></trkpt>
<trkpt lat="44.206978920847178" lon="5.536376796662808"><ele></ele><time>2015-2-3T4:16:2Z</time></trkpt>
<trkpt lat="44.206507187336683" lon="5.536493472754955"><ele></ele><time>2015-2-3T4:16:5Z</time></trkpt>
<trkpt lat="44.206071244552732" lon="5.53671651519835"><ele></ele><time>2015-2-3T4:16:8Z</time></trkpt>
<trkpt lat="44.205638905987144" lon="5.536810560151935"><ele></ele><time>2015-2-3T4:16:11Z</time></trkpt>
<trkpt lat="44.205186534672976" lon="5.536615764722228"><ele></ele><time>2015-2-3T4:16:14Z</time></trkpt>
<trkpt lat="44.204797362908721" lon="5.536342347040772"><ele></ele><time>2015-2-3T4:16:17Z</time></trkpt>
<trkpt lat="44.204334933310747" lon="5.53627235814929"><ele></ele><time>2015-2-3T4:16:20Z</time></trkpt>
<trkpt lat="44.203871665522456" lon="5.536314183846116"><ele></ele><time>2015-2-3T4:16:23Z</time></trkpt>
<trkpt lat="44.20344477519393" lon="5.536514427512884"><ele></ele><time>2015-2-3T4:16:26Z</time></trkpt>
<trkpt lat="44.203002881258726" lon="5.536720370873809"><ele></ele><time>2015-2-3T4:16:29Z</time></trkpt>
<trkpt lat="44.202538691461086" lon="5.536823719739914"><ele></ele><time>2015-2-3T4:16:32Z</time></trkpt>
<trkpt lat="44.202061258256435" lon="5.536835789680481"><ele></ele><time>2015-2-3T4:16:35Z</time></trkpt>
<trkpt lat="44.201600672677159" lon="5.536847524344921"><ele></ele><time>2015-2-3T4:16:38Z</time></trkpt>
<trkpt lat="44.201145200058818" lon="5.536884320899844"><ele></ele><time>2015-2-3T4:16:41Z</time></trkpt>
<trkpt lat="44.200668521225452" lon="5.536915920674801"><ele></ele><time>2015-2-3T4:16:44Z</time></trkpt>
<trkpt lat="44.200220592319965" lon="5.536993034183979"><ele></ele><time>2015-2-3T4:16:47Z</time></trkpt>
<trkpt lat="44.199772579595447" lon="5.537131754681468"><ele></ele><time>2015-2-3T4:16:50Z</time></trkpt>
<trkpt lat="44.1993139218539" lon="5.53727307356894"><ele></ele><time>2015-2-3T4:16:53Z</time></trkpt>
<trkpt lat="44.198861382901669" lon="5.53744163364172"><ele></ele><time>2015-2-3T4:16:56Z</time></trkpt>
<trkpt lat="44.19841437600553" lon="5.537559734657407"><ele></ele><time>2015-2-3T4:16:59Z</time></trkpt>
<trkpt lat="44.197948928922415" lon="5.537593765184283"><ele></ele><time>2015-2-3T4:17:2Z</time></trkpt>
<trkpt lat="44.197498569265008" lon="5.5376101937145"><ele></ele><time>2015-2-3T4:17:5Z</time></trkpt>
<trkpt lat="44.197043599560857" lon="5.537609606981278"><ele></ele><time>2015-2-3T4:17:8Z</time></trkpt>
<trkpt lat="44.196572285145521" lon="5.537627041339874"><ele></ele><time>2015-2-3T4:17:11Z</time></trkpt>
<trkpt lat="44.196109687909484" lon="5.537636848166585"><ele></ele><time>2015-2-3T4:17:14Z</time></trkpt>
<trkpt lat="44.195642648264766" lon="5.537651432678103"><ele></ele><time>2015-2-3T4:17:17Z</time></trkpt>
<trkpt lat="44.195173429325223" lon="5.537646990269423"><ele></ele><time>2015-2-3T4:17:20Z</time></trkpt>
<trkpt lat="44.194706557318568" lon="5.537615306675434"><ele></ele><time>2015-2-3T4:17:23Z</time></trkpt>
<trkpt lat="44.194222250953317" lon="5.537566943094134"><ele></ele><time>2015-2-3T4:17:26Z</time></trkpt>
<trkpt lat="44.193738698959351" lon="5.537537354975939"><ele></ele><time>2015-2-3T4:17:29Z</time></trkpt>
<trkpt lat="44.193270234391093" lon="5.537499720230699"><ele></ele><time>2015-2-3T4:17:32Z</time></trkpt>
<trkpt lat="44.192813001573086" lon="5.537450099363923"><ele></ele><time>2015-2-3T4:17:35Z</time></trkpt>
<trkpt lat="44.192351410165429" lon="5.537416152656078"><ele></ele><time>2015-2-3T4:17:38Z</time></trkpt>
<trkpt lat="44.191876240074635" lon="5.537368208169937"><ele></ele><time>2015-2-3T4:17:41Z</time></trkpt>
<trkpt lat="44.191421018913388" lon="5.537328310310841"><ele></ele><time>2015-2-3T4:17:44Z</time></trkpt>
<trkpt lat="44.190950291231275" lon="5.537288412451744"><ele></ele><time>2015-2-3T4:17:47Z</time></trkpt>
<trkpt lat="44.190490711480379" lon="5.537240887060762"><ele></ele><time>2015-2-3T4:17:50Z</time></trkpt>
<trkpt lat="44.190036579966545" lon="5.537191685289145"><ele></ele><time>2015-2-3T4:17:53Z</time></trkpt>
<trkpt lat="44.189588315784931" lon="5.537151619791985"><ele></ele><time>2015-2-3T4:17:56Z</time></trkpt>
<trkpt lat="44.18916804715991" lon="5.53742160089314"><ele></ele><time>2015-2-3T4:17:59Z</time></trkpt>
<trkpt lat="44.188726739957929" lon="5.537570547312498"><ele></ele><time>2015-2-3T4:18:2Z</time></trkpt>
<trkpt lat="44.188279565423727" lon="5.537590831518173"><ele></ele><time>2015-2-3T4:18:5Z</time></trkpt>
<trkpt lat="44.187833648175001" lon="5.537590412423015"><ele></ele><time>2015-2-3T4:18:8Z</time></trkpt>
<trkpt lat="44.187429640442133" lon="5.537354713305831"><ele></ele><time>2015-2-3T4:18:11Z</time></trkpt>
<trkpt lat="44.187269797548652" lon="5.536759598180652"><ele></ele><time>2015-2-3T4:18:14Z</time></trkpt>
<trkpt lat="44.187160413712263" lon="5.536144617944956"><ele></ele><time>2015-2-3T4:18:17Z</time></trkpt>
<trkpt lat="44.187061339616776" lon="5.535511365160346"><ele></ele><time>2015-2-3T4:18:20Z</time></trkpt>
<trkpt lat="44.186919098719954" lon="5.534908035770059"><ele></ele><time>2015-2-3T4:18:23Z</time></trkpt>
<trkpt lat="44.186594802886248" lon="5.534490784630179"><ele></ele><time>2015-2-3T4:18:26Z</time></trkpt>
<trkpt lat="44.186273524537683" lon="5.534039586782455"><ele></ele><time>2015-2-3T4:18:29Z</time></trkpt>
<trkpt lat="44.186186352744699" lon="5.53358880802989"><ele></ele><time>2015-2-3T4:18:32Z</time></trkpt>
<trkpt lat="44.186488939449191" lon="5.534086525440216"><ele></ele><time>2015-2-3T4:18:35Z</time></trkpt>
<trkpt lat="44.186806697398424" lon="5.533901955932379"><ele></ele><time>2015-2-3T4:18:38Z</time></trkpt>
<trkpt lat="44.18647569604218" lon="5.533502390608192"><ele></ele><time>2015-2-3T4:18:41Z</time></trkpt>
<trkpt lat="44.186173779889941" lon="5.533016910776496"><ele></ele><time>2015-2-3T4:18:44Z</time></trkpt>
<trkpt lat="44.185951156541705" lon="5.532470997422934"><ele></ele><time>2015-2-3T4:18:47Z</time></trkpt>
<trkpt lat="44.185668770223856" lon="5.531981661915779"><ele></ele><time>2015-2-3T4:18:50Z</time></trkpt>
<trkpt lat="44.185280604287982" lon="5.531633645296097"><ele></ele><time>2015-2-3T4:18:53Z</time></trkpt>
<trkpt lat="44.184840386733413" lon="5.531455278396606"><ele></ele><time>2015-2-3T4:18:56Z</time></trkpt>
<trkpt lat="44.184395726770163" lon="5.531577821820974"><ele></ele><time>2015-2-3T4:18:59Z</time></trkpt>
<trkpt lat="44.184007560834289" lon="5.531272049993277"><ele></ele><time>2015-2-3T4:19:2Z</time></trkpt>
<trkpt lat="44.183917455375195" lon="5.530668888241053"><ele></ele><time>2015-2-3T4:19:5Z</time></trkpt>
<trkpt lat="44.184102779254317" lon="5.530081233009696"><ele></ele><time>2015-2-3T4:19:8Z</time></trkpt>
<trkpt lat="44.18403253890574" lon="5.529484022408724"><ele></ele><time>2015-2-3T4:19:11Z</time></trkpt>
<trkpt lat="44.183808322995901" lon="5.528911119326949"><ele></ele><time>2015-2-3T4:19:14Z</time></trkpt>
<trkpt lat="44.183694245293736" lon="5.528296893462539"><ele></ele><time>2015-2-3T4:19:17Z</time></trkpt>
<trkpt lat="44.183567678555846" lon="5.527686439454556"><ele></ele><time>2015-2-3T4:19:20Z</time></trkpt>
<trkpt lat="44.183269115164876" lon="5.52718142978847"><ele></ele><time>2015-2-3T4:19:23Z</time></trkpt>
<trkpt lat="44.182896120473742" lon="5.526810362935066"><ele></ele><time>2015-2-3T4:19:26Z</time></trkpt>
<trkpt lat="44.182725297287107" lon="5.526211224496365"><ele></ele><time>2015-2-3T4:19:29Z</time></trkpt>
<trkpt lat="44.182664193212986" lon="5.525591047480702"><ele></ele><time>2015-2-3T4:19:32Z</time></trkpt>
<trkpt lat="44.182600909844041" lon="5.524958716705442"><ele></ele><time>2015-2-3T4:19:35Z</time></trkpt>
<trkpt lat="44.182650865986943" lon="5.524335522204638"><ele></ele><time>2015-2-3T4:19:38Z</time></trkpt>
<trkpt lat="44.18280903249979" lon="5.523744178935885"><ele></ele><time>2015-2-3T4:19:41Z</time></trkpt>
<trkpt lat="44.182916320860386" lon="5.523141352459788"><ele></ele><time>2015-2-3T4:19:44Z</time></trkpt>
<trkpt lat="44.182979771867394" lon="5.522529808804393"><ele></ele><time>2015-2-3T4:19:47Z</time></trkpt>
<trkpt lat="44.183210860937834" lon="5.521969813853502"><ele></ele><time>2015-2-3T4:19:50Z</time></trkpt>
<trkpt lat="44.183480003848672" lon="5.521434377878904"><ele></ele><time>2015-2-3T4:19:53Z</time></trkpt>
<trkpt lat="44.183646133169532" lon="5.520844124257565"><ele></ele><time>2015-2-3T4:19:56Z</time></trkpt>
<trkpt lat="44.183532893657684" lon="5.520243979990482"><ele></ele><time>2015-2-3T4:19:59Z</time></trkpt>
<trkpt lat="44.183359472081065" lon="5.51963453181088"><ele></ele><time>2015-2-3T4:20:2Z</time></trkpt>
<trkpt lat="44.183077588677406" lon="5.51913321018219"><ele></ele><time>2015-2-3T4:20:5Z</time></trkpt>
<trkpt lat="44.182886900380254" lon="5.518573382869363"><ele></ele><time>2015-2-3T4:20:8Z</time></trkpt>
<trkpt lat="44.183081025257707" lon="5.518031744286418"><ele></ele><time>2015-2-3T4:20:11Z</time></trkpt>
<trkpt lat="44.18342225253582" lon="5.517622036859393"><ele></ele><time>2015-2-3T4:20:14Z</time></trkpt>
<trkpt lat="44.183675469830632" lon="5.517080314457417"><ele></ele><time>2015-2-3T4:20:17Z</time></trkpt>
<trkpt lat="44.183774963021278" lon="5.516467094421387"><ele></ele><time>2015-2-3T4:20:20Z</time></trkpt>
<trkpt lat="44.183814860880375" lon="5.515839625149965"><ele></ele><time>2015-2-3T4:20:23Z</time></trkpt>
<trkpt lat="44.183888956904411" lon="5.515189943835139"><ele></ele><time>2015-2-3T4:20:26Z</time></trkpt>
<trkpt lat="44.184107892215252" lon="5.514626931399107"><ele></ele><time>2015-2-3T4:20:29Z</time></trkpt>
<trkpt lat="44.184425817802548" lon="5.514165004715323"><ele></ele><time>2015-2-3T4:20:32Z</time></trkpt>
<trkpt lat="44.184640981256962" lon="5.513620600104332"><ele></ele><time>2015-2-3T4:20:35Z</time></trkpt>
<trkpt lat="44.184759836643934" lon="5.512990532442927"><ele></ele><time>2015-2-3T4:20:38Z</time></trkpt>
<trkpt lat="44.184994613751769" lon="5.512986509129405"><ele></ele><time>2015-2-3T4:20:41Z</time></trkpt>
<trkpt lat="44.185140123590827" lon="5.513590257614851"><ele></ele><time>2015-2-3T4:20:44Z</time></trkpt>
<trkpt lat="44.185049431398511" lon="5.514204064384103"><ele></ele><time>2015-2-3T4:20:47Z</time></trkpt>
<trkpt lat="44.184995954856277" lon="5.514823403209448"><ele></ele><time>2015-2-3T4:20:50Z</time></trkpt>
<trkpt lat="44.184995703399181" lon="5.51536244340241"><ele></ele><time>2015-2-3T4:20:53Z</time></trkpt>
<trkpt lat="44.185211285948753" lon="5.514817452058196"><ele></ele><time>2015-2-3T4:20:56Z</time></trkpt>
<trkpt lat="44.185381438583136" lon="5.514202220365405"><ele></ele><time>2015-2-3T4:20:59Z</time></trkpt>
<trkpt lat="44.185594925656915" lon="5.513611296191812"><ele></ele><time>2015-2-3T4:21:2Z</time></trkpt>
<trkpt lat="44.185777818784118" lon="5.513029843568802"><ele></ele><time>2015-2-3T4:21:5Z</time></trkpt>
<trkpt lat="44.185987785458565" lon="5.512470602989197"><ele></ele><time>2015-2-3T4:21:8Z</time></trkpt>
<trkpt lat="44.186086943373084" lon="5.511844977736473"><ele></ele><time>2015-2-3T4:21:11Z</time></trkpt>
<trkpt lat="44.185948055237532" lon="5.511259082704783"><ele></ele><time>2015-2-3T4:21:14Z</time></trkpt>
<trkpt lat="44.18594310991466" lon="5.510649969801307"><ele></ele><time>2015-2-3T4:21:17Z</time></trkpt>
<trkpt lat="44.186094654724002" lon="5.510063236579299"><ele></ele><time>2015-2-3T4:21:20Z</time></trkpt>
<trkpt lat="44.185860129073262" lon="5.509514221921563"><ele></ele><time>2015-2-3T4:21:23Z</time></trkpt>
<trkpt lat="44.185545975342393" lon="5.509040476754308"><ele></ele><time>2015-2-3T4:21:26Z</time></trkpt>
<trkpt lat="44.185271300375462" lon="5.508543765172362"><ele></ele><time>2015-2-3T4:21:29Z</time></trkpt>
<trkpt lat="44.185040043666959" lon="5.50797438248992"><ele></ele><time>2015-2-3T4:21:32Z</time></trkpt>
<trkpt lat="44.184710551053286" lon="5.50751555711031"><ele></ele><time>2015-2-3T4:21:35Z</time></trkpt>
<trkpt lat="44.184267148375511" lon="5.507505750283599"><ele></ele><time>2015-2-3T4:21:38Z</time></trkpt>
<trkpt lat="44.183969339355826" lon="5.508000366389751"><ele></ele><time>2015-2-3T4:21:41Z</time></trkpt>
<trkpt lat="44.183653593063354" lon="5.508447540923953"><ele></ele><time>2015-2-3T4:21:44Z</time></trkpt>
<trkpt lat="44.183226618915796" lon="5.508704362437129"><ele></ele><time>2015-2-3T4:21:47Z</time></trkpt>
<trkpt lat="44.182833675295115" lon="5.509030502289534"><ele></ele><time>2015-2-3T4:21:50Z</time></trkpt>
<trkpt lat="44.182545086368918" lon="5.509526459500194"><ele></ele><time>2015-2-3T4:21:53Z</time></trkpt>
<trkpt lat="44.182302346453071" lon="5.510045383125544"><ele></ele><time>2015-2-3T4:21:56Z</time></trkpt>
<trkpt lat="44.18193630874157" lon="5.509959720075131"><ele></ele><time>2015-2-3T4:21:59Z</time></trkpt>
<trkpt lat="44.181532887741923" lon="5.509603573009372"><ele></ele><time>2015-2-3T4:22:2Z</time></trkpt>
<trkpt lat="44.181206077337265" lon="5.509164780378342"><ele></ele><time>2015-2-3T4:22:5Z</time></trkpt>
<trkpt lat="44.180850852280855" lon="5.50879773683846"><ele></ele><time>2015-2-3T4:22:8Z</time></trkpt>
<trkpt lat="44.180476097390056" lon="5.509100491181016"><ele></ele><time>2015-2-3T4:22:11Z</time></trkpt>
<trkpt lat="44.180183736607432" lon="5.509599382057786"><ele></ele><time>2015-2-3T4:22:14Z</time></trkpt>
<trkpt lat="44.179882574826479" lon="5.510075641795993"><ele></ele><time>2015-2-3T4:22:17Z</time></trkpt>
<trkpt lat="44.179520392790437" lon="5.510432291775942"><ele></ele><time>2015-2-3T4:22:20Z</time></trkpt>
<trkpt lat="44.17907346971333" lon="5.510560283437371"><ele></ele><time>2015-2-3T4:22:23Z</time></trkpt>
<trkpt lat="44.178637443110347" lon="5.510719539597631"><ele></ele><time>2015-2-3T4:22:26Z</time></trkpt>
<trkpt lat="44.178216671571136" lon="5.510952807962894"><ele></ele><time>2015-2-3T4:22:29Z</time></trkpt>
<trkpt lat="44.177850466221571" lon="5.511369807645679"><ele></ele><time>2015-2-3T4:22:32Z</time></trkpt>
<trkpt lat="44.17741360142827" lon="5.511321695521474"><ele></ele><time>2015-2-3T4:22:35Z</time></trkpt>
<trkpt lat="44.177082516252995" lon="5.510885501280427"><ele></ele><time>2015-2-3T4:22:38Z</time></trkpt>
<trkpt lat="44.176710862666368" lon="5.510494820773602"><ele></ele><time>2015-2-3T4:22:41Z</time></trkpt>
<trkpt lat="44.176307190209627" lon="5.51018251106143"><ele></ele><time>2015-2-3T4:22:44Z</time></trkpt>
<trkpt lat="44.175970824435353" lon="5.509765595197678"><ele></ele><time>2015-2-3T4:22:47Z</time></trkpt>
<trkpt lat="44.175781393423676" lon="5.509183807298541"><ele></ele><time>2015-2-3T4:22:50Z</time></trkpt>
<trkpt lat="44.175588777288795" lon="5.508584752678871"><ele></ele><time>2015-2-3T4:22:53Z</time></trkpt>
<trkpt lat="44.175456929951906" lon="5.507948733866215"><ele></ele><time>2015-2-3T4:22:56Z</time></trkpt>
<trkpt lat="44.175166161730886" lon="5.507864998653531"><ele></ele><time>2015-2-3T4:22:59Z</time></trkpt>
<trkpt lat="44.175132550299168" lon="5.508511075749993"><ele></ele><time>2015-2-3T4:23:2Z</time></trkpt>
<trkpt lat="44.175071194767952" lon="5.509160757064819"><ele></ele><time>2015-2-3T4:23:5Z</time></trkpt>
<trkpt lat="44.175086282193661" lon="5.509786466136575"><ele></ele><time>2015-2-3T4:23:8Z</time></trkpt>
<trkpt lat="44.175094412639737" lon="5.510413181036711"><ele></ele><time>2015-2-3T4:23:11Z</time></trkpt>
<trkpt lat="44.174773385748267" lon="5.510298432782292"><ele></ele><time>2015-2-3T4:23:14Z</time></trkpt>
<trkpt lat="44.174478594213724" lon="5.509789986535907"><ele></ele><time>2015-2-3T4:23:17Z</time></trkpt>
<trkpt lat="44.174228478223085" lon="5.509269051253796"><ele></ele><time>2015-2-3T4:23:20Z</time></trkpt>
<trkpt lat="44.174023121595383" lon="5.508708050474525"><ele></ele><time>2015-2-3T4:23:23Z</time></trkpt>
<trkpt lat="44.173951623961329" lon="5.508068511262536"><ele></ele><time>2015-2-3T4:23:26Z</time></trkpt>
<trkpt lat="44.173964448273182" lon="5.507432073354721"><ele></ele><time>2015-2-3T4:23:29Z</time></trkpt>
<trkpt lat="44.174013650044799" lon="5.506794881075621"><ele></ele><time>2015-2-3T4:23:32Z</time></trkpt>
<trkpt lat="44.174094954505563" lon="5.506171016022563"><ele></ele><time>2015-2-3T4:23:35Z</time></trkpt>
<trkpt lat="44.17425655759871" lon="5.5055629927665"><ele></ele><time>2015-2-3T4:23:38Z</time></trkpt>
<trkpt lat="44.174328222870827" lon="5.504933344200254"><ele></ele><time>2015-2-3T4:23:41Z</time></trkpt>
<trkpt lat="44.174163602292538" lon="5.504319872707129"><ele></ele><time>2015-2-3T4:23:44Z</time></trkpt>
<trkpt lat="44.17402203194797" lon="5.503697264939547"><ele></ele><time>2015-2-3T4:23:47Z</time></trkpt>
<trkpt lat="44.173835869878531" lon="5.503095863386989"><ele></ele><time>2015-2-3T4:23:50Z</time></trkpt>
<trkpt lat="44.17357443831861" lon="5.502551710233092"><ele></ele><time>2015-2-3T4:23:53Z</time></trkpt>
<trkpt lat="44.173319209367037" lon="5.502013089135289"><ele></ele><time>2015-2-3T4:23:56Z</time></trkpt>
<trkpt lat="44.173066662624478" lon="5.501471115276218"><ele></ele><time>2015-2-3T4:23:59Z</time></trkpt>
<trkpt lat="44.172797352075577" lon="5.500925118103623"><ele></ele><time>2015-2-3T4:24:2Z</time></trkpt>
<trkpt lat="44.17277648113668" lon="5.500311478972435"><ele></ele><time>2015-2-3T4:24:5Z</time></trkpt>
<trkpt lat="44.172771787270904" lon="5.499681746587157"><ele></ele><time>2015-2-3T4:24:8Z</time></trkpt>
<trkpt lat="44.172581769526005" lon="5.499115968123078"><ele></ele><time>2015-2-3T4:24:11Z</time></trkpt>
<trkpt lat="44.172369791194797" lon="5.498537868261337"><ele></ele><time>2015-2-3T4:24:14Z</time></trkpt>
<trkpt lat="44.172105845063925" lon="5.498026991263032"><ele></ele><time>2015-2-3T4:24:17Z</time></trkpt>
<trkpt lat="44.171683480963111" lon="5.497840493917465"><ele></ele><time>2015-2-3T4:24:20Z</time></trkpt>
<trkpt lat="44.171286011114717" lon="5.498191863298416"><ele></ele><time>2015-2-3T4:24:23Z</time></trkpt>
<trkpt lat="44.170862305909395" lon="5.498460922390223"><ele></ele><time>2015-2-3T4:24:26Z</time></trkpt>
<trkpt lat="44.170482438057661" lon="5.498233018442988"><ele></ele><time>2015-2-3T4:24:29Z</time></trkpt>
<trkpt lat="44.170474223792553" lon="5.497571937739849"><ele></ele><time>2015-2-3T4:24:32Z</time></trkpt>
<trkpt lat="44.170442875474691" lon="5.496903229504824"><ele></ele><time>2015-2-3T4:24:35Z</time></trkpt>
<trkpt lat="44.170312620699406" lon="5.496265199035406"><ele></ele><time>2015-2-3T4:24:38Z</time></trkpt>
<trkpt lat="44.170099133625627" lon="5.49570051021874"><ele></ele><time>2015-2-3T4:24:41Z</time></trkpt>
<trkpt lat="44.169740388169885" lon="5.495340675115585"><ele></ele><time>2015-2-3T4:24:44Z</time></trkpt>
<trkpt lat="44.169268319383264" lon="5.495297843590379"><ele></ele><time>2015-2-3T4:24:47Z</time></trkpt>
<trkpt lat="44.168791137635708" lon="5.495377806946635"><ele></ele><time>2015-2-3T4:24:50Z</time></trkpt>
<trkpt lat="44.168347734957933" lon="5.495556341484189"><ele></ele><time>2015-2-3T4:24:53Z</time></trkpt>
<trkpt lat="44.167894357815385" lon="5.495763961225748"><ele></ele><time>2015-2-3T4:24:56Z</time></trkpt>
<trkpt lat="44.167563440278172" lon="5.496230162680149"><ele></ele><time>2015-2-3T4:24:59Z</time></trkpt>
<trkpt lat="44.167434107512236" lon="5.496833827346563"><ele></ele><time>2015-2-3T4:25:2Z</time></trkpt>
<trkpt lat="44.16713478974998" lon="5.49735258333385"><ele></ele><time>2015-2-3T4:25:5Z</time></trkpt>
<trkpt lat="44.166745701804757" lon="5.497183268889785"><ele></ele><time>2015-2-3T4:25:8Z</time></trkpt>
<trkpt lat="44.166427021846175" lon="5.496682533994317"><ele></ele><time>2015-2-3T4:25:11Z</time></trkpt>
<trkpt lat="44.166082693263888" lon="5.496279699727893"><ele></ele><time>2015-2-3T4:25:14Z</time></trkpt>
<trkpt lat="44.165613055229187" lon="5.496183056384325"><ele></ele><time>2015-2-3T4:25:17Z</time></trkpt>
<trkpt lat="44.16513729840517" lon="5.496215661987662"><ele></ele><time>2015-2-3T4:25:20Z</time></trkpt>
<trkpt lat="44.164755083620548" lon="5.496574407443404"><ele></ele><time>2015-2-3T4:25:23Z</time></trkpt>
<trkpt lat="44.164324169978499" lon="5.496818153187633"><ele></ele><time>2015-2-3T4:25:26Z</time></trkpt>
<trkpt lat="44.163843635469675" lon="5.496869701892138"><ele></ele><time>2015-2-3T4:25:29Z</time></trkpt>
<trkpt lat="44.163356814533472" lon="5.496796444058418"><ele></ele><time>2015-2-3T4:25:32Z</time></trkpt>
<trkpt lat="44.162897821515799" lon="5.4966782592237"><ele></ele><time>2015-2-3T4:25:35Z</time></trkpt>
<trkpt lat="44.162411000579596" lon="5.496730897575617"><ele></ele><time>2015-2-3T4:25:38Z</time></trkpt>
<trkpt lat="44.162018559873104" lon="5.497046560049057"><ele></ele><time>2015-2-3T4:25:41Z</time></trkpt>
<trkpt lat="44.161656042560935" lon="5.497486861422658"><ele></ele><time>2015-2-3T4:25:44Z</time></trkpt>
<trkpt lat="44.161298219114542" lon="5.497874692082405"><ele></ele><time>2015-2-3T4:25:47Z</time></trkpt>
<trkpt lat="44.160925140604377" lon="5.498274508863688"><ele></ele><time>2015-2-3T4:25:50Z</time></trkpt>
<trkpt lat="44.160533873364329" lon="5.498687569051981"><ele></ele><time>2015-2-3T4:25:53Z</time></trkpt>
<trkpt lat="44.160112431272864" lon="5.499006835743785"><ele></ele><time>2015-2-3T4:25:56Z</time></trkpt>
<trkpt lat="44.159672548994422" lon="5.499277487397194"><ele></ele><time>2015-2-3T4:25:59Z</time></trkpt>
<trkpt lat="44.159200564026833" lon="5.499460967257619"><ele></ele><time>2015-2-3T4:26:2Z</time></trkpt>
<trkpt lat="44.158745594322681" lon="5.499512851238251"><ele></ele><time>2015-2-3T4:26:5Z</time></trkpt>
<trkpt lat="44.158312752842903" lon="5.499351499602199"><ele></ele><time>2015-2-3T4:26:8Z</time></trkpt>
<trkpt lat="44.15793489664793" lon="5.498990155756474"><ele></ele><time>2015-2-3T4:26:11Z</time></trkpt>
<trkpt lat="44.157649157568812" lon="5.498500401154161"><ele></ele><time>2015-2-3T4:26:14Z</time></trkpt>
<trkpt lat="44.157350342720747" lon="5.498013747856021"><ele></ele><time>2015-2-3T4:26:17Z</time></trkpt>
<trkpt lat="44.157083295285702" lon="5.497525250539184"><ele></ele><time>2015-2-3T4:26:20Z</time></trkpt>
<trkpt lat="44.157111207023263" lon="5.496930135414004"><ele></ele><time>2015-2-3T4:26:23Z</time></trkpt>
<trkpt lat="44.156672665849328" lon="5.496796192601323"><ele></ele><time>2015-2-3T4:26:26Z</time></trkpt>
<trkpt lat="44.156241500750184" lon="5.496548172086477"><ele></ele><time>2015-2-3T4:26:29Z</time></trkpt>
<trkpt lat="44.155886527150869" lon="5.496161431074143"><ele></ele><time>2015-2-3T4:26:32Z</time></trkpt>
<trkpt lat="44.155440609902143" lon="5.495888432487845"><ele></ele><time>2015-2-3T4:26:35Z</time></trkpt>
<trkpt lat="44.154986813664436" lon="5.49577284604311"><ele></ele><time>2015-2-3T4:26:38Z</time></trkpt>
<trkpt lat="44.154481217265129" lon="5.495881643146277"><ele></ele><time>2015-2-3T4:26:41Z</time></trkpt>
<trkpt lat="44.154024319723248" lon="5.496063614264131"><ele></ele><time>2015-2-3T4:26:44Z</time></trkpt>
<trkpt lat="44.153554262593389" lon="5.496130920946598"><ele></ele><time>2015-2-3T4:26:47Z</time></trkpt>
<trkpt lat="44.153081774711609" lon="5.496090268716216"><ele></ele><time>2015-2-3T4:26:50Z</time></trkpt>
<trkpt lat="44.152583051472902" lon="5.496084401383996"><ele></ele><time>2015-2-3T4:26:53Z</time></trkpt>
<trkpt lat="44.152084076777101" lon="5.4961740039289"><ele></ele><time>2015-2-3T4:26:56Z</time></trkpt>
<trkpt lat="44.151603206992149" lon="5.496282884851098"><ele></ele><time>2015-2-3T4:26:59Z</time></trkpt>
<trkpt lat="44.151133233681321" lon="5.496396543458104"><ele></ele><time>2015-2-3T4:27:2Z</time></trkpt>
<trkpt lat="44.15065236389637" lon="5.496476087719202"><ele></ele><time>2015-2-3T4:27:5Z</time></trkpt>
<trkpt lat="44.150158334523439" lon="5.496568791568279"><ele></ele><time>2015-2-3T4:27:8Z</time></trkpt>
<trkpt lat="44.149657264351845" lon="5.496733244508505"><ele></ele><time>2015-2-3T4:27:11Z</time></trkpt>
<trkpt lat="44.14917815476656" lon="5.49690842628479"><ele></ele><time>2015-2-3T4:27:14Z</time></trkpt>
<trkpt lat="44.14868320338428" lon="5.496984450146556"><ele></ele><time>2015-2-3T4:27:17Z</time></trkpt>
<trkpt lat="44.148179199546576" lon="5.496942037716508"><ele></ele><time>2015-2-3T4:27:20Z</time></trkpt>
<trkpt lat="44.14772498421371" lon="5.496672475710511"><ele></ele><time>2015-2-3T4:27:23Z</time></trkpt>
<trkpt lat="44.14729306474328" lon="5.496338373050094"><ele></ele><time>2015-2-3T4:27:26Z</time></trkpt>
<trkpt lat="44.146974133327603" lon="5.495967641472817"><ele></ele><time>2015-2-3T4:27:29Z</time></trkpt>
<trkpt lat="44.14729448966682" lon="5.495478473603725"><ele></ele><time>2015-2-3T4:27:32Z</time></trkpt>
<trkpt lat="44.147548042237759" lon="5.494901463389397"><ele></ele><time>2015-2-3T4:27:35Z</time></trkpt>
<trkpt lat="44.147742837667465" lon="5.49431623890996"><ele></ele><time>2015-2-3T4:27:38Z</time></trkpt>
<trkpt lat="44.14810610935092" lon="5.493846936151385"><ele></ele><time>2015-2-3T4:27:41Z</time></trkpt>
<trkpt lat="44.148528054356575" lon="5.493617272004485"><ele></ele><time>2015-2-3T4:27:44Z</time></trkpt>
<trkpt lat="44.148783618584275" lon="5.493088457733393"><ele></ele><time>2015-2-3T4:27:47Z</time></trkpt>
<trkpt lat="44.148459741845727" lon="5.492647318169475"><ele></ele><time>2015-2-3T4:27:50Z</time></trkpt>
<trkpt lat="44.148016758263111" lon="5.49231874756515"><ele></ele><time>2015-2-3T4:27:53Z</time></trkpt>
<trkpt lat="44.147857753559947" lon="5.491736875846982"><ele></ele><time>2015-2-3T4:27:56Z</time></trkpt>
<trkpt lat="44.147928077727556" lon="5.491035729646683"><ele></ele><time>2015-2-3T4:27:59Z</time></trkpt>
<trkpt lat="44.148140223696828" lon="5.490384371951222"><ele></ele><time>2015-2-3T4:28:2Z</time></trkpt>
<trkpt lat="44.148491090163589" lon="5.489991344511509"><ele></ele><time>2015-2-3T4:28:5Z</time></trkpt>
<trkpt lat="44.148894846439362" lon="5.489657409489155"><ele></ele><time>2015-2-3T4:28:8Z</time></trkpt>
<trkpt lat="44.149173209443688" lon="5.489165307953954"><ele></ele><time>2015-2-3T4:28:11Z</time></trkpt>
<trkpt lat="44.148914376273751" lon="5.488563068211079"><ele></ele><time>2015-2-3T4:28:14Z</time></trkpt>
<trkpt lat="44.148779008537531" lon="5.48788832500577"><ele></ele><time>2015-2-3T4:28:17Z</time></trkpt>
<trkpt lat="44.148562671616673" lon="5.487281978130341"><ele></ele><time>2015-2-3T4:28:20Z</time></trkpt>
<trkpt lat="44.148135026916862" lon="5.487030018121004"><ele></ele><time>2015-2-3T4:28:23Z</time></trkpt>
<trkpt lat="44.147660946473479" lon="5.486778812482953"><ele></ele><time>2015-2-3T4:28:26Z</time></trkpt>
<trkpt lat="44.147165408357978" lon="5.48672391101718"><ele></ele><time>2015-2-3T4:28:29Z</time></trkpt>
<trkpt lat="44.146702811121941" lon="5.486875455826521"><ele></ele><time>2015-2-3T4:28:32Z</time></trkpt>
<trkpt lat="44.14629964157939" lon="5.487246857956052"><ele></ele><time>2015-2-3T4:28:35Z</time></trkpt>
<trkpt lat="44.146031169220805" lon="5.487801739946008"><ele></ele><time>2015-2-3T4:28:38Z</time></trkpt>
<trkpt lat="44.146189503371716" lon="5.488399621099234"><ele></ele><time>2015-2-3T4:28:41Z</time></trkpt>
<trkpt lat="44.146628715097904" lon="5.488480171188712"><ele></ele><time>2015-2-3T4:28:44Z</time></trkpt>
<trkpt lat="44.146771458908916" lon="5.488754762336612"><ele></ele><time>2015-2-3T4:28:47Z</time></trkpt>
<trkpt lat="44.146255301311612" lon="5.488784266635776"><ele></ele><time>2015-2-3T4:28:50Z</time></trkpt>
<trkpt lat="44.145748531445861" lon="5.488778902217746"><ele></ele><time>2015-2-3T4:28:53Z</time></trkpt>
<trkpt lat="44.145247042179108" lon="5.488636745139957"><ele></ele><time>2015-2-3T4:28:56Z</time></trkpt>
<trkpt lat="44.144812440499663" lon="5.488219326362014"><ele></ele><time>2015-2-3T4:28:59Z</time></trkpt>
<trkpt lat="44.144543632864952" lon="5.487669976428151"><ele></ele><time>2015-2-3T4:29:2Z</time></trkpt>
<trkpt lat="44.144349591806531" lon="5.486968411132693"><ele></ele><time>2015-2-3T4:29:5Z</time></trkpt>
<trkpt lat="44.144283877685666" lon="5.486319987103343"><ele></ele><time>2015-2-3T4:29:8Z</time></trkpt>
<trkpt lat="44.144247164949775" lon="5.485693607479334"><ele></ele><time>2015-2-3T4:29:11Z</time></trkpt>
<trkpt lat="44.144189665094018" lon="5.485061528161168"><ele></ele><time>2015-2-3T4:29:14Z</time></trkpt>
<trkpt lat="44.143796050921082" lon="5.48495507799089"><ele></ele><time>2015-2-3T4:29:17Z</time></trkpt>
<trkpt lat="44.143416434526443" lon="5.485364701598883"><ele></ele><time>2015-2-3T4:29:20Z</time></trkpt>
<trkpt lat="44.143002536147833" lon="5.485673658549786"><ele></ele><time>2015-2-3T4:29:23Z</time></trkpt>
<trkpt lat="44.142480511218309" lon="5.485853366553783"><ele></ele><time>2015-2-3T4:29:26Z</time></trkpt>
<trkpt lat="44.142012633383274" lon="5.485991332679987"><ele></ele><time>2015-2-3T4:29:29Z</time></trkpt>
<trkpt lat="44.141553724184632" lon="5.486139776185155"><ele></ele><time>2015-2-3T4:29:32Z</time></trkpt>
<trkpt lat="44.141116524115205" lon="5.486401375383139"><ele></ele><time>2015-2-3T4:29:35Z</time></trkpt>
<trkpt lat="44.140635738149285" lon="5.486639756709337"><ele></ele><time>2015-2-3T4:29:38Z</time></trkpt>
<trkpt lat="44.140142044052482" lon="5.486789960414171"><ele></ele><time>2015-2-3T4:29:41Z</time></trkpt>
<trkpt lat="44.139634855091572" lon="5.486831115558744"><ele></ele><time>2015-2-3T4:29:44Z</time></trkpt>
<trkpt lat="44.139185417443514" lon="5.486800437793136"><ele></ele><time>2015-2-3T4:29:47Z</time></trkpt>
<trkpt lat="44.138706978410482" lon="5.486743273213506"><ele></ele><time>2015-2-3T4:29:50Z</time></trkpt>
<trkpt lat="44.138214290142059" lon="5.486684767529368"><ele></ele><time>2015-2-3T4:29:53Z</time></trkpt>
<trkpt lat="44.137706598266959" lon="5.486615868285298"><ele></ele><time>2015-2-3T4:29:56Z</time></trkpt>
<trkpt lat="44.13719697855413" lon="5.486449655145407"><ele></ele><time>2015-2-3T4:29:59Z</time></trkpt>
<trkpt lat="44.136730022728443" lon="5.486063417047262"><ele></ele><time>2015-2-3T4:30:2Z</time></trkpt>
<trkpt lat="44.136272454634309" lon="5.485670808702707"><ele></ele><time>2015-2-3T4:30:5Z</time></trkpt>
<trkpt lat="44.135825866833329" lon="5.485313320532441"><ele></ele><time>2015-2-3T4:30:8Z</time></trkpt>
<trkpt lat="44.135345667600632" lon="5.485040154308081"><ele></ele><time>2015-2-3T4:30:11Z</time></trkpt>
<trkpt lat="44.134849961847067" lon="5.484868073835969"><ele></ele><time>2015-2-3T4:30:14Z</time></trkpt>
<trkpt lat="44.134386442601681" lon="5.48472055234015"><ele></ele><time>2015-2-3T4:30:17Z</time></trkpt>
<trkpt lat="44.133931640535593" lon="5.484577221795917"><ele></ele><time>2015-2-3T4:30:20Z</time></trkpt>
<trkpt lat="44.133421769365668" lon="5.484391646459699"><ele></ele><time>2015-2-3T4:30:23Z</time></trkpt>
<trkpt lat="44.132992699742317" lon="5.483952015638351"><ele></ele><time>2015-2-3T4:30:26Z</time></trkpt>
<trkpt lat="44.132830258458853" lon="5.483321528881788"><ele></ele><time>2015-2-3T4:30:29Z</time></trkpt>
<trkpt lat="44.132918771356344" lon="5.482609821483493"><ele></ele><time>2015-2-3T4:30:32Z</time></trkpt>
<trkpt lat="44.133245414122939" lon="5.482016131281853"><ele></ele><time>2015-2-3T4:30:35Z</time></trkpt>
<trkpt lat="44.133695438504219" lon="5.481733325868845"><ele></ele><time>2015-2-3T4:30:38Z</time></trkpt>
<trkpt lat="44.134167926385999" lon="5.481749922037125"><ele></ele><time>2015-2-3T4:30:41Z</time></trkpt>
<trkpt lat="44.134627925232053" lon="5.481798872351646"><ele></ele><time>2015-2-3T4:30:44Z</time></trkpt>
<trkpt lat="44.13492338731885" lon="5.481349434703589"><ele></ele><time>2015-2-3T4:30:47Z</time></trkpt>
<trkpt lat="44.134743763133883" lon="5.480751134455204"><ele></ele><time>2015-2-3T4:30:50Z</time></trkpt>
<trkpt lat="44.134495407342911" lon="5.480216788128018"><ele></ele><time>2015-2-3T4:30:53Z</time></trkpt>
<trkpt lat="44.134242860600352" lon="5.47966668382287"><ele></ele><time>2015-2-3T4:30:56Z</time></trkpt>
<trkpt lat="44.133956534788013" lon="5.479043321684003"><ele></ele><time>2015-2-3T4:30:59Z</time></trkpt>
<trkpt lat="44.133667275309563" lon="5.478412248194218"><ele></ele><time>2015-2-3T4:31:2Z</time></trkpt>
<trkpt lat="44.133382542058825" lon="5.477905310690403"><ele></ele><time>2015-2-3T4:31:5Z</time></trkpt>
<trkpt lat="44.133187411352992" lon="5.477812020108104"><ele></ele><time>2015-2-3T4:31:8Z</time></trkpt>
<trkpt lat="44.133609356358647" lon="5.478060794994235"><ele></ele><time>2015-2-3T4:31:11Z</time></trkpt>
<trkpt lat="44.133996684104204" lon="5.477792909368873"><ele></ele><time>2015-2-3T4:31:14Z</time></trkpt>
<trkpt lat="44.134301114827394" lon="5.477324109524488"><ele></ele><time>2015-2-3T4:31:17Z</time></trkpt>
<trkpt lat="44.134666649624705" lon="5.476880539208651"><ele></ele><time>2015-2-3T4:31:20Z</time></trkpt>
<trkpt lat="44.135066214948893" lon="5.476549956947565"><ele></ele><time>2015-2-3T4:31:23Z</time></trkpt>
<trkpt lat="44.135486567392945" lon="5.47631174325943"><ele></ele><time>2015-2-3T4:31:26Z</time></trkpt>
<trkpt lat="44.135423619300127" lon="5.47577228397131"><ele></ele><time>2015-2-3T4:31:29Z</time></trkpt>
<trkpt lat="44.135202839970589" lon="5.475214719772339"><ele></ele><time>2015-2-3T4:31:32Z</time></trkpt>
<trkpt lat="44.13501332513988" lon="5.474646678194404"><ele></ele><time>2015-2-3T4:31:35Z</time></trkpt>
<trkpt lat="44.134917687624693" lon="5.473975203931332"><ele></ele><time>2015-2-3T4:31:38Z</time></trkpt>
<trkpt lat="44.134895224124193" lon="5.473294761031866"><ele></ele><time>2015-2-3T4:31:41Z</time></trkpt>
<trkpt lat="44.134901594370604" lon="5.472657652571797"><ele></ele><time>2015-2-3T4:31:44Z</time></trkpt>
<trkpt lat="44.134902264922857" lon="5.471958182752132"><ele></ele><time>2015-2-3T4:31:47Z</time></trkpt>
<trkpt lat="44.134815763682127" lon="5.471279248595238"><ele></ele><time>2015-2-3T4:31:50Z</time></trkpt>
<trkpt lat="44.13468886166811" lon="5.470660999417305"><ele></ele><time>2015-2-3T4:31:53Z</time></trkpt>
<trkpt lat="44.134491384029388" lon="5.470003690570593"><ele></ele><time>2015-2-3T4:31:56Z</time></trkpt>
<trkpt lat="44.134265994653106" lon="5.469325175508857"><ele></ele><time>2015-2-3T4:31:59Z</time></trkpt>
<trkpt lat="44.134077485650778" lon="5.468750512227416"><ele></ele><time>2015-2-3T4:32:2Z</time></trkpt>
<trkpt lat="44.133877158164978" lon="5.468169143423438"><ele></ele><time>2015-2-3T4:32:5Z</time></trkpt>
<trkpt lat="44.133679177612066" lon="5.467589451000094"><ele></ele><time>2015-2-3T4:32:8Z</time></trkpt>
<trkpt lat="44.13347415626049" lon="5.467001628130674"><ele></ele><time>2015-2-3T4:32:11Z</time></trkpt>
<trkpt lat="44.133251700550318" lon="5.466430233791471"><ele></ele><time>2015-2-3T4:32:14Z</time></trkpt>
<trkpt lat="44.133015498518944" lon="5.465846853330731"><ele></ele><time>2015-2-3T4:32:17Z</time></trkpt>
<trkpt lat="44.132735207676888" lon="5.465192645788193"><ele></ele><time>2015-2-3T4:32:20Z</time></trkpt>
<trkpt lat="44.132475703954697" lon="5.464653186500073"><ele></ele><time>2015-2-3T4:32:23Z</time></trkpt>
<trkpt lat="44.132160376757383" lon="5.464187320321798"><ele></ele><time>2015-2-3T4:32:26Z</time></trkpt>
<trkpt lat="44.13181864656508" lon="5.46373394317925"><ele></ele><time>2015-2-3T4:32:29Z</time></trkpt>
<trkpt lat="44.131476916372776" lon="5.463291294872761"><ele></ele><time>2015-2-3T4:32:32Z</time></trkpt>
<trkpt lat="44.131143484264612" lon="5.462846802547574"><ele></ele><time>2015-2-3T4:32:35Z</time></trkpt>
<trkpt lat="44.131115237250924" lon="5.462188068777323"><ele></ele><time>2015-2-3T4:32:38Z</time></trkpt>
<trkpt lat="44.131192937493324" lon="5.461570490151644"><ele></ele><time>2015-2-3T4:32:41Z</time></trkpt>
<trkpt lat="44.131273739039898" lon="5.460906643420458"><ele></ele><time>2015-2-3T4:32:44Z</time></trkpt>
<trkpt lat="44.131332663819194" lon="5.46018797904253"><ele></ele><time>2015-2-3T4:32:47Z</time></trkpt>
<trkpt lat="44.131287150084972" lon="5.459427740424871"><ele></ele><time>2015-2-3T4:32:50Z</time></trkpt>
<trkpt lat="44.131105514243245" lon="5.458692312240601"><ele></ele><time>2015-2-3T4:32:53Z</time></trkpt>
<trkpt lat="44.130862858146429" lon="5.458141872659326"><ele></ele><time>2015-2-3T4:32:56Z</time></trkpt>
<trkpt lat="44.130526827648282" lon="5.457567293196917"><ele></ele><time>2015-2-3T4:32:59Z</time></trkpt>
<trkpt lat="44.13011820986867" lon="5.457155825570226"><ele></ele><time>2015-2-3T4:33:2Z</time></trkpt>
<trkpt lat="44.129683692008257" lon="5.456731365993619"><ele></ele><time>2015-2-3T4:33:5Z</time></trkpt>
<trkpt lat="44.129354702308774" lon="5.456297434866428"><ele></ele><time>2015-2-3T4:33:8Z</time></trkpt>
<trkpt lat="44.129043817520142" lon="5.455798795446754"><ele></ele><time>2015-2-3T4:33:11Z</time></trkpt>
<trkpt lat="44.128740141168237" lon="5.455308202654123"><ele></ele><time>2015-2-3T4:33:14Z</time></trkpt>
<trkpt lat="44.128392962738872" lon="5.454840660095215"><ele></ele><time>2015-2-3T4:33:17Z</time></trkpt>
<trkpt lat="44.128061542287469" lon="5.454387785866857"><ele></ele><time>2015-2-3T4:33:20Z</time></trkpt>
<trkpt lat="44.127666084095836" lon="5.453944634646177"><ele></ele><time>2015-2-3T4:33:23Z</time></trkpt>
<trkpt lat="44.127227710559964" lon="5.453681778162718"><ele></ele><time>2015-2-3T4:33:26Z</time></trkpt>
<trkpt lat="44.126763604581356" lon="5.453399308025837"><ele></ele><time>2015-2-3T4:33:29Z</time></trkpt>
<trkpt lat="44.126313999295235" lon="5.453117592260242"><ele></ele><time>2015-2-3T4:33:32Z</time></trkpt>
<trkpt lat="44.125872943550348" lon="5.452751722186804"><ele></ele><time>2015-2-3T4:33:35Z</time></trkpt>
<trkpt lat="44.12547723390162" lon="5.452287448570132"><ele></ele><time>2015-2-3T4:33:38Z</time></trkpt>
<trkpt lat="44.125228626653552" lon="5.45171563513577"><ele></ele><time>2015-2-3T4:33:41Z</time></trkpt>
<trkpt lat="44.124918915331364" lon="5.451159998774529"><ele></ele><time>2015-2-3T4:33:44Z</time></trkpt>
<trkpt lat="44.124469980597496" lon="5.45080678537488"><ele></ele><time>2015-2-3T4:33:47Z</time></trkpt>
<trkpt lat="44.124057507142425" lon="5.450418703258038"><ele></ele><time>2015-2-3T4:33:50Z</time></trkpt>
<trkpt lat="44.123616702854633" lon="5.450162636116147"><ele></ele><time>2015-2-3T4:33:53Z</time></trkpt>
<trkpt lat="44.123214455321431" lon="5.449890810996294"><ele></ele><time>2015-2-3T4:33:56Z</time></trkpt>
<trkpt lat="44.122862834483385" lon="5.449481103569269"><ele></ele><time>2015-2-3T4:33:59Z</time></trkpt>
<trkpt lat="44.122586734592915" lon="5.448939632624388"><ele></ele><time>2015-2-3T4:34:2Z</time></trkpt>
<trkpt lat="44.122338211163878" lon="5.448411908000708"><ele></ele><time>2015-2-3T4:34:5Z</time></trkpt>
<trkpt lat="44.122065715491772" lon="5.447832299396396"><ele></ele><time>2015-2-3T4:34:8Z</time></trkpt>
<trkpt lat="44.121762877330184" lon="5.447248751297593"><ele></ele><time>2015-2-3T4:34:11Z</time></trkpt>
<trkpt lat="44.121504127979279" lon="5.446688923984766"><ele></ele><time>2015-2-3T4:34:14Z</time></trkpt>
<trkpt lat="44.121246971189976" lon="5.446143848821521"><ele></ele><time>2015-2-3T4:34:17Z</time></trkpt>
<trkpt lat="44.121006829664111" lon="5.445610508322716"><ele></ele><time>2015-2-3T4:34:20Z</time></trkpt>
<trkpt lat="44.120770208537579" lon="5.444964431226254"><ele></ele><time>2015-2-3T4:34:23Z</time></trkpt>
<trkpt lat="44.120598798617721" lon="5.44427677989006"><ele></ele><time>2015-2-3T4:34:26Z</time></trkpt>
<trkpt lat="44.120456725358963" lon="5.443680575117469"><ele></ele><time>2015-2-3T4:34:29Z</time></trkpt>
<trkpt lat="44.120263522490859" lon="5.443009939044714"><ele></ele><time>2015-2-3T4:34:32Z</time></trkpt>
<trkpt lat="44.119830010458827" lon="5.442767450585961"><ele></ele><time>2015-2-3T4:34:35Z</time></trkpt>
<trkpt lat="44.119383674114943" lon="5.442668795585632"><ele></ele><time>2015-2-3T4:34:38Z</time></trkpt>
<trkpt lat="44.118912862613797" lon="5.442546000704169"><ele></ele><time>2015-2-3T4:34:41Z</time></trkpt>
<trkpt lat="44.1184360999614" lon="5.442681200802326"><ele></ele><time>2015-2-3T4:34:44Z</time></trkpt>
<trkpt lat="44.118014574050903" lon="5.442956043407321"><ele></ele><time>2015-2-3T4:34:47Z</time></trkpt>
<trkpt lat="44.117603106424212" lon="5.44323449023068"><ele></ele><time>2015-2-3T4:34:50Z</time></trkpt>
<trkpt lat="44.117151740938425" lon="5.4435442853719"><ele></ele><time>2015-2-3T4:34:53Z</time></trkpt>
<trkpt lat="44.116705404594541" lon="5.443850392475724"><ele></ele><time>2015-2-3T4:34:56Z</time></trkpt>
<trkpt lat="44.116286979988217" lon="5.444130348041654"><ele></ele><time>2015-2-3T4:34:59Z</time></trkpt>
<trkpt lat="44.115871237590909" lon="5.444414494559169"><ele></ele><time>2015-2-3T4:35:2Z</time></trkpt>
<trkpt lat="44.115446861833334" lon="5.444694114848971"><ele></ele><time>2015-2-3T4:35:5Z</time></trkpt>
<trkpt lat="44.114992395043373" lon="5.444937609136105"><ele></ele><time>2015-2-3T4:35:8Z</time></trkpt>
<trkpt lat="44.114517141133547" lon="5.444804672151804"><ele></ele><time>2015-2-3T4:35:11Z</time></trkpt>
<trkpt lat="44.114082539454103" lon="5.444619683548808"><ele></ele><time>2015-2-3T4:35:14Z</time></trkpt>
<trkpt lat="44.113632263615727" lon="5.444418350234628"><ele></ele><time>2015-2-3T4:35:17Z</time></trkpt>
<trkpt lat="44.113190369680524" lon="5.444228919222951"><ele></ele><time>2015-2-3T4:35:20Z</time></trkpt>
<trkpt lat="44.112748643383384" lon="5.444047199562192"><ele></ele><time>2015-2-3T4:35:23Z</time></trkpt>
<trkpt lat="44.112298535183072" lon="5.443844273686409"><ele></ele><time>2015-2-3T4:35:26Z</time></trkpt>
<trkpt lat="44.111852534115314" lon="5.443657021969557"><ele></ele><time>2015-2-3T4:35:29Z</time></trkpt>
<trkpt lat="44.111419105902314" lon="5.443439176306129"><ele></ele><time>2015-2-3T4:35:32Z</time></trkpt>
<trkpt lat="44.111040746793151" lon="5.443094680085778"><ele></ele><time>2015-2-3T4:35:35Z</time></trkpt>
<trkpt lat="44.110656352713704" lon="5.442713219672442"><ele></ele><time>2015-2-3T4:35:38Z</time></trkpt>
<trkpt lat="44.110280927270651" lon="5.442220028489828"><ele></ele><time>2015-2-3T4:35:41Z</time></trkpt>
<trkpt lat="44.109881529584527" lon="5.441785845905542"><ele></ele><time>2015-2-3T4:35:44Z</time></trkpt>
<trkpt lat="44.109450951218605" lon="5.441378401592374"><ele></ele><time>2015-2-3T4:35:47Z</time></trkpt>
<trkpt lat="44.109015762805939" lon="5.441023260354996"><ele></ele><time>2015-2-3T4:35:50Z</time></trkpt>
<trkpt lat="44.108595410361886" lon="5.440671052783728"><ele></ele><time>2015-2-3T4:35:53Z</time></trkpt>
<trkpt lat="44.108188636600971" lon="5.440319264307618"><ele></ele><time>2015-2-3T4:35:56Z</time></trkpt>
<trkpt lat="44.107797872275114" lon="5.439892960712314"><ele></ele><time>2015-2-3T4:35:59Z</time></trkpt>
<trkpt lat="44.107478773221374" lon="5.439340258017182"><ele></ele><time>2015-2-3T4:36:2Z</time></trkpt>
<trkpt lat="44.10742630250752" lon="5.438654283061624"><ele></ele><time>2015-2-3T4:36:5Z</time></trkpt>
<trkpt lat="44.107765518128872" lon="5.438250275328755"><ele></ele><time>2015-2-3T4:36:8Z</time></trkpt>
<trkpt lat="44.108208334073424" lon="5.437974259257317"><ele></ele><time>2015-2-3T4:36:11Z</time></trkpt>
<trkpt lat="44.1086654830724" lon="5.437944671139121"><ele></ele><time>2015-2-3T4:36:14Z</time></trkpt>
<trkpt lat="44.109120285138488" lon="5.438028490170836"><ele></ele><time>2015-2-3T4:36:17Z</time></trkpt>
<trkpt lat="44.109564274549484" lon="5.43805749155581"><ele></ele><time>2015-2-3T4:36:20Z</time></trkpt>
<trkpt lat="44.109515910968184" lon="5.437508309260011"><ele></ele><time>2015-2-3T4:36:23Z</time></trkpt>
<trkpt lat="44.109078543260694" lon="5.437153838574886"><ele></ele><time>2015-2-3T4:36:26Z</time></trkpt>
<trkpt lat="44.108673445880413" lon="5.436806911602616"><ele></ele><time>2015-2-3T4:36:29Z</time></trkpt>
<trkpt lat="44.108264744281769" lon="5.436384966596961"><ele></ele><time>2015-2-3T4:36:32Z</time></trkpt>
<trkpt lat="44.108079588040709" lon="5.435768477618694"><ele></ele><time>2015-2-3T4:36:35Z</time></trkpt>
<trkpt lat="44.108038851991296" lon="5.435114772990346"><ele></ele><time>2015-2-3T4:36:38Z</time></trkpt>
<trkpt lat="44.108200622722507" lon="5.434467019513249"><ele></ele><time>2015-2-3T4:36:41Z</time></trkpt>
<trkpt lat="44.108612677082419" lon="5.434098467230797"><ele></ele><time>2015-2-3T4:36:44Z</time></trkpt>
<trkpt lat="44.108509914949536" lon="5.433496227487922"><ele></ele><time>2015-2-3T4:36:47Z</time></trkpt>
<trkpt lat="44.10809132270515" lon="5.43318391777575"><ele></ele><time>2015-2-3T4:36:50Z</time></trkpt>
<trkpt lat="44.107625959441066" lon="5.433020386844873"><ele></ele><time>2015-2-3T4:36:53Z</time></trkpt>
<trkpt lat="44.107169900089502" lon="5.432901531457901"><ele></ele><time>2015-2-3T4:36:56Z</time></trkpt>
<trkpt lat="44.106696825474501" lon="5.432804804295301"><ele></ele><time>2015-2-3T4:36:59Z</time></trkpt>
<trkpt lat="44.106232551857829" lon="5.432686451822519"><ele></ele><time>2015-2-3T4:37:2Z</time></trkpt>
<trkpt lat="44.10579334013164" lon="5.432552844285965"><ele></ele><time>2015-2-3T4:37:5Z</time></trkpt>
<trkpt lat="44.105347422882915" lon="5.432338938117027"><ele></ele><time>2015-2-3T4:37:8Z</time></trkpt>
<trkpt lat="44.104920029640198" lon="5.432067029178143"><ele></ele><time>2015-2-3T4:37:11Z</time></trkpt>
<trkpt lat="44.104566816240549" lon="5.431635612621903"><ele></ele><time>2015-2-3T4:37:14Z</time></trkpt>
<trkpt lat="44.104436645284295" lon="5.431004539132118"><ele></ele><time>2015-2-3T4:37:17Z</time></trkpt>
<trkpt lat="44.104351233690977" lon="5.430389055982232"><ele></ele><time>2015-2-3T4:37:20Z</time></trkpt>
<trkpt lat="44.104282334446907" lon="5.429759826511145"><ele></ele><time>2015-2-3T4:37:23Z</time></trkpt>
<trkpt lat="44.104210752993822" lon="5.429083993658423"><ele></ele><time>2015-2-3T4:37:26Z</time></trkpt>
<trkpt lat="44.104172950610518" lon="5.42842417024076"><ele></ele><time>2015-2-3T4:37:29Z</time></trkpt>
<trkpt lat="44.104172782972455" lon="5.427713384851813"><ele></ele><time>2015-2-3T4:37:32Z</time></trkpt>
<trkpt lat="44.104095418006182" lon="5.42703059501946"><ele></ele><time>2015-2-3T4:37:35Z</time></trkpt>
<trkpt lat="44.103899449110031" lon="5.42639147490263"><ele></ele><time>2015-2-3T4:37:38Z</time></trkpt>
<trkpt lat="44.103659223765135" lon="5.425807842984796"><ele></ele><time>2015-2-3T4:37:41Z</time></trkpt>
<trkpt lat="44.1033536195755" lon="5.425253296270967"><ele></ele><time>2015-2-3T4:37:44Z</time></trkpt>
<trkpt lat="44.103035442531109" lon="5.424713250249624"><ele></ele><time>2015-2-3T4:37:47Z</time></trkpt>
<trkpt lat="44.102740148082376" lon="5.424186531454325"><ele></ele><time>2015-2-3T4:37:50Z</time></trkpt>
<trkpt lat="44.102431526407599" lon="5.423646317794919"><ele></ele><time>2015-2-3T4:37:53Z</time></trkpt>
<trkpt lat="44.102132460102439" lon="5.423093028366566"><ele></ele><time>2015-2-3T4:37:56Z</time></trkpt>
<trkpt lat="44.101891480386257" lon="5.422555161640048"><ele></ele><time>2015-2-3T4:37:59Z</time></trkpt>
<trkpt lat="44.101690230891109" lon="5.421937750652432"><ele></ele><time>2015-2-3T4:38:2Z</time></trkpt>
<trkpt lat="44.101545643061399" lon="5.421247081831098"><ele></ele><time>2015-2-3T4:38:5Z</time></trkpt>
<trkpt lat="44.10135411657393" lon="5.420632185414434"><ele></ele><time>2015-2-3T4:38:8Z</time></trkpt>
<trkpt lat="44.101052284240723" lon="5.420076632872224"><ele></ele><time>2015-2-3T4:38:11Z</time></trkpt>
<trkpt lat="44.100713990628719" lon="5.41955360211432"><ele></ele><time>2015-2-3T4:38:14Z</time></trkpt>
<trkpt lat="44.100356418639421" lon="5.419035516679287"><ele></ele><time>2015-2-3T4:38:17Z</time></trkpt>
<trkpt lat="44.100023657083511" lon="5.418550204485655"><ele></ele><time>2015-2-3T4:38:20Z</time></trkpt>
<trkpt lat="44.099681088700891" lon="5.418040752410889"><ele></ele><time>2015-2-3T4:38:23Z</time></trkpt>
<trkpt lat="44.099348075687885" lon="5.417563067749143"><ele></ele><time>2015-2-3T4:38:26Z</time></trkpt>
<trkpt lat="44.099025623872876" lon="5.417107678949833"><ele></ele><time>2015-2-3T4:38:29Z</time></trkpt>
<trkpt lat="44.098706273362041" lon="5.416644159704447"><ele></ele><time>2015-2-3T4:38:32Z</time></trkpt>
<trkpt lat="44.098370745778084" lon="5.416156752035022"><ele></ele><time>2015-2-3T4:38:35Z</time></trkpt>
<trkpt lat="44.098059190437198" lon="5.415699100121856"><ele></ele><time>2015-2-3T4:38:38Z</time></trkpt>
<trkpt lat="44.097727853804827" lon="5.415229042991996"><ele></ele><time>2015-2-3T4:38:41Z</time></trkpt>
<trkpt lat="44.097405066713691" lon="5.414771223440766"><ele></ele><time>2015-2-3T4:38:44Z</time></trkpt>
<trkpt lat="44.097073981538415" lon="5.414301417768002"><ele></ele><time>2015-2-3T4:38:47Z</time></trkpt>
<trkpt lat="44.096736945211887" lon="5.413823649287224"><ele></ele><time>2015-2-3T4:38:50Z</time></trkpt>
<trkpt lat="44.096475932747126" lon="5.413256697356701"><ele></ele><time>2015-2-3T4:38:53Z</time></trkpt>
<trkpt lat="44.096108889207244" lon="5.412899879738689"><ele></ele><time>2015-2-3T4:38:56Z</time></trkpt>
<trkpt lat="44.095762465149164" lon="5.412410376593471"><ele></ele><time>2015-2-3T4:38:59Z</time></trkpt>
<trkpt lat="44.095493322238326" lon="5.411871420219541"><ele></ele><time>2015-2-3T4:39:2Z</time></trkpt>
<trkpt lat="44.095344543457031" lon="5.411249399185181"><ele></ele><time>2015-2-3T4:39:5Z</time></trkpt>
<trkpt lat="44.095094176009297" lon="5.410640202462673"><ele></ele><time>2015-2-3T4:39:8Z</time></trkpt>
<trkpt lat="44.09461347386241" lon="5.41042554192245"><ele></ele><time>2015-2-3T4:39:11Z</time></trkpt>
<trkpt lat="44.094197144731879" lon="5.410643555223942"><ele></ele><time>2015-2-3T4:39:14Z</time></trkpt>
<trkpt lat="44.093954572454095" lon="5.411193743348122"><ele></ele><time>2015-2-3T4:39:17Z</time></trkpt>
<trkpt lat="44.09370319917798" lon="5.41178978048265"><ele></ele><time>2015-2-3T4:39:20Z</time></trkpt>
<trkpt lat="44.09331226721406" lon="5.411833701655269"><ele></ele><time>2015-2-3T4:39:23Z</time></trkpt>
<trkpt lat="44.093002136796713" lon="5.41132802143693"><ele></ele><time>2015-2-3T4:39:26Z</time></trkpt>
<trkpt lat="44.092702232301235" lon="5.410810774192214"><ele></ele><time>2015-2-3T4:39:29Z</time></trkpt>
<trkpt lat="44.092406015843153" lon="5.410331916064024"><ele></ele><time>2015-2-3T4:39:32Z</time></trkpt>
<trkpt lat="44.092090521007776" lon="5.409796815365553"><ele></ele><time>2015-2-3T4:39:35Z</time></trkpt>
<trkpt lat="44.091725908219814" lon="5.409492300823331"><ele></ele><time>2015-2-3T4:39:38Z</time></trkpt>
<trkpt lat="44.091252330690622" lon="5.409741159528494"><ele></ele><time>2015-2-3T4:39:41Z</time></trkpt>
<trkpt lat="44.090841449797153" lon="5.410099066793919"><ele></ele><time>2015-2-3T4:39:44Z</time></trkpt>
<trkpt lat="44.09043132327497" lon="5.410474492236972"><ele></ele><time>2015-2-3T4:39:47Z</time></trkpt>
<trkpt lat="44.090121863409877" lon="5.410987297073007"><ele></ele><time>2015-2-3T4:39:50Z</time></trkpt>
<trkpt lat="44.089887505397201" lon="5.411599259823561"><ele></ele><time>2015-2-3T4:39:53Z</time></trkpt>
<trkpt lat="44.089385680854321" lon="5.411610910668969"><ele></ele><time>2015-2-3T4:39:56Z</time></trkpt>
<trkpt lat="44.088912522420287" lon="5.411596493795514"><ele></ele><time>2015-2-3T4:39:59Z</time></trkpt>
<trkpt lat="44.088713033124804" lon="5.412198901176453"><ele></ele><time>2015-2-3T4:40:2Z</time></trkpt>
<trkpt lat="44.088652767241001" lon="5.412831902503967"><ele></ele><time>2015-2-3T4:40:5Z</time></trkpt>
<trkpt lat="44.088513543829322" lon="5.412686811760068"><ele></ele><time>2015-2-3T4:40:8Z</time></trkpt>
<trkpt lat="44.088544975966215" lon="5.412032520398498"><ele></ele><time>2015-2-3T4:40:11Z</time></trkpt>
<trkpt lat="44.088598703965545" lon="5.411399602890015"><ele></ele><time>2015-2-3T4:40:14Z</time></trkpt>
<trkpt lat="44.088954096660018" lon="5.410928959026933"><ele></ele><time>2015-2-3T4:40:17Z</time></trkpt>
<trkpt lat="44.089343687519431" lon="5.410567363724113"><ele></ele><time>2015-2-3T4:40:20Z</time></trkpt>
<trkpt lat="44.089533872902393" lon="5.40990024805069"><ele></ele><time>2015-2-3T4:40:23Z</time></trkpt>
<trkpt lat="44.089720537886024" lon="5.409203376621008"><ele></ele><time>2015-2-3T4:40:26Z</time></trkpt>
<trkpt lat="44.089830927550793" lon="5.408582780510187"><ele></ele><time>2015-2-3T4:40:29Z</time></trkpt>
<trkpt lat="44.089788850396872" lon="5.407897224649787"><ele></ele><time>2015-2-3T4:40:32Z</time></trkpt>
<trkpt lat="44.089771751314402" lon="5.407257098704577"><ele></ele><time>2015-2-3T4:40:35Z</time></trkpt>
<trkpt lat="44.089479558169842" lon="5.406992146745324"><ele></ele><time>2015-2-3T4:40:38Z</time></trkpt>
<trkpt lat="44.089021738618612" lon="5.406958619132638"><ele></ele><time>2015-2-3T4:40:41Z</time></trkpt>
<trkpt lat="44.088562577962875" lon="5.406923415139318"><ele></ele><time>2015-2-3T4:40:44Z</time></trkpt>
<trkpt lat="44.088126551359892" lon="5.406626109033823"><ele></ele><time>2015-2-3T4:40:47Z</time></trkpt>
<trkpt lat="44.087744923308492" lon="5.406154794618487"><ele></ele><time>2015-2-3T4:40:50Z</time></trkpt>
<trkpt lat="44.08736371435225" lon="5.405710805207491"><ele></ele><time>2015-2-3T4:40:53Z</time></trkpt>
<trkpt lat="44.086982756853104" lon="5.405240077525377"><ele></ele><time>2015-2-3T4:40:56Z</time></trkpt>
<trkpt lat="44.086595261469483" lon="5.404783934354782"><ele></ele><time>2015-2-3T4:40:59Z</time></trkpt>
<trkpt lat="44.086250429973006" lon="5.404377244412899"><ele></ele><time>2015-2-3T4:41:2Z</time></trkpt>
<trkpt lat="44.085897300392389" lon="5.403951611369848"><ele></ele><time>2015-2-3T4:41:5Z</time></trkpt>
<trkpt lat="44.085522629320621" lon="5.403494210913777"><ele></ele><time>2015-2-3T4:41:8Z</time></trkpt>
<trkpt lat="44.08509649336338" lon="5.403154324740171"><ele></ele><time>2015-2-3T4:41:11Z</time></trkpt>
<trkpt lat="44.08462836407125" lon="5.403009066358209"><ele></ele><time>2015-2-3T4:41:14Z</time></trkpt>
<trkpt lat="44.084162665531039" lon="5.402898425236344"><ele></ele><time>2015-2-3T4:41:17Z</time></trkpt>
<trkpt lat="44.083711551502347" lon="5.402773534879088"><ele></ele><time>2015-2-3T4:41:20Z</time></trkpt>
<trkpt lat="44.08326068893075" lon="5.402669347822666"><ele></ele><time>2015-2-3T4:41:23Z</time></trkpt>
<trkpt lat="44.082806054502726" lon="5.402554934844375"><ele></ele><time>2015-2-3T4:41:26Z</time></trkpt>
<trkpt lat="44.082335997372866" lon="5.402442617341876"><ele></ele><time>2015-2-3T4:41:29Z</time></trkpt>
<trkpt lat="44.081848338246346" lon="5.402321498841047"><ele></ele><time>2015-2-3T4:41:32Z</time></trkpt>
<trkpt lat="44.081366797909141" lon="5.402201553806663"><ele></ele><time>2015-2-3T4:41:35Z</time></trkpt>
<trkpt lat="44.080891041085124" lon="5.40207683108747"><ele></ele><time>2015-2-3T4:41:38Z</time></trkpt>
<trkpt lat="44.080418050289154" lon="5.401965100318193"><ele></ele><time>2015-2-3T4:41:41Z</time></trkpt>
<trkpt lat="44.079959224909544" lon="5.401999466121197"><ele></ele><time>2015-2-3T4:41:44Z</time></trkpt>
<trkpt lat="44.079605592414737" lon="5.40240028873086"><ele></ele><time>2015-2-3T4:41:47Z</time></trkpt>
<trkpt lat="44.079317254945636" lon="5.402936981990933"><ele></ele><time>2015-2-3T4:41:50Z</time></trkpt>
<trkpt lat="44.078908553346992" lon="5.403290865942836"><ele></ele><time>2015-2-3T4:41:53Z</time></trkpt>
<trkpt lat="44.07847361639142" lon="5.403545424342156"><ele></ele><time>2015-2-3T4:41:56Z</time></trkpt>
<trkpt lat="44.078018395230174" lon="5.40378456003964"><ele></ele><time>2015-2-3T4:41:59Z</time></trkpt>
<trkpt lat="44.077562168240547" lon="5.403830576688051"><ele></ele><time>2015-2-3T4:42:2Z</time></trkpt>
<trkpt lat="44.077074425294995" lon="5.403833258897066"><ele></ele><time>2015-2-3T4:42:5Z</time></trkpt>
<trkpt lat="44.076605373993516" lon="5.403866032138467"><ele></ele><time>2015-2-3T4:42:8Z</time></trkpt>
<trkpt lat="44.076154846698046" lon="5.403903080150485"><ele></ele><time>2015-2-3T4:42:11Z</time></trkpt>
<trkpt lat="44.075630139559507" lon="5.403899224475026"><ele></ele><time>2015-2-3T4:42:14Z</time></trkpt>
<trkpt lat="44.07518221065402" lon="5.403851782903075"><ele></ele><time>2015-2-3T4:42:17Z</time></trkpt>
<trkpt lat="44.074717182666063" lon="5.403766622766852"><ele></ele><time>2015-2-3T4:42:20Z</time></trkpt>
<trkpt lat="44.074232457205653" lon="5.403785482048988"><ele></ele><time>2015-2-3T4:42:23Z</time></trkpt>
<trkpt lat="44.073760388419032" lon="5.403950689360499"><ele></ele><time>2015-2-3T4:42:26Z</time></trkpt>
<trkpt lat="44.073289409279823" lon="5.403989832848311"><ele></ele><time>2015-2-3T4:42:29Z</time></trkpt>
<trkpt lat="44.072822956368327" lon="5.403881035745144"><ele></ele><time>2015-2-3T4:42:32Z</time></trkpt>
<trkpt lat="44.07237452454865" lon="5.403654891997576"><ele></ele><time>2015-2-3T4:42:35Z</time></trkpt>
<trkpt lat="44.071978563442826" lon="5.403350042179227"><ele></ele><time>2015-2-3T4:42:38Z</time></trkpt>
<trkpt lat="44.071509260684252" lon="5.403350042179227"><ele></ele><time>2015-2-3T4:42:41Z</time></trkpt>
<trkpt lat="44.071087315678596" lon="5.403570150956512"><ele></ele><time>2015-2-3T4:42:44Z</time></trkpt>
<trkpt lat="44.070647936314344" lon="5.403782296925783"><ele></ele><time>2015-2-3T4:42:47Z</time></trkpt>
<trkpt lat="44.070177040994167" lon="5.403900649398565"><ele></ele><time>2015-2-3T4:42:50Z</time></trkpt>
<trkpt lat="44.069729447364807" lon="5.403759414330125"><ele></ele><time>2015-2-3T4:42:53Z</time></trkpt>
<trkpt lat="44.069298701360822" lon="5.403487253934145"><ele></ele><time>2015-2-3T4:42:56Z</time></trkpt>
<trkpt lat="44.068879187107086" lon="5.403238898143172"><ele></ele><time>2015-2-3T4:42:59Z</time></trkpt>
<trkpt lat="44.068457912653685" lon="5.402973275631666"><ele></ele><time>2015-2-3T4:43:2Z</time></trkpt>
<trkpt lat="44.068015851080418" lon="5.402712179347873"><ele></ele><time>2015-2-3T4:43:5Z</time></trkpt>
<trkpt lat="44.067578986287117" lon="5.402439935132861"><ele></ele><time>2015-2-3T4:43:8Z</time></trkpt>
<trkpt lat="44.067147569730878" lon="5.402180515229702"><ele></ele><time>2015-2-3T4:43:11Z</time></trkpt>
<trkpt lat="44.066727217286825" lon="5.401920843869448"><ele></ele><time>2015-2-3T4:43:14Z</time></trkpt>
<trkpt lat="44.066297141835093" lon="5.401651198044419"><ele></ele><time>2015-2-3T4:43:17Z</time></trkpt>
<trkpt lat="44.065857762470841" lon="5.401390017941594"><ele></ele><time>2015-2-3T4:43:20Z</time></trkpt>
<trkpt lat="44.065419053658843" lon="5.401289435103536"><ele></ele><time>2015-2-3T4:43:23Z</time></trkpt>
<trkpt lat="44.065010100603104" lon="5.401617335155606"><ele></ele><time>2015-2-3T4:43:26Z</time></trkpt>
<trkpt lat="44.064618330448866" lon="5.401977421715856"><ele></ele><time>2015-2-3T4:43:29Z</time></trkpt>
<trkpt lat="44.064215580001473" lon="5.402260897681117"><ele></ele><time>2015-2-3T4:43:32Z</time></trkpt>
<trkpt lat="44.063758347183466" lon="5.402251677587628"><ele></ele><time>2015-2-3T4:43:35Z</time></trkpt>
<trkpt lat="44.063330702483654" lon="5.402006423100829"><ele></ele><time>2015-2-3T4:43:38Z</time></trkpt>
<trkpt lat="44.062986876815557" lon="5.401551369577646"><ele></ele><time>2015-2-3T4:43:41Z</time></trkpt>
<trkpt lat="44.06269334256649" lon="5.401057088747621"><ele></ele><time>2015-2-3T4:43:44Z</time></trkpt>
<trkpt lat="44.062407435849309" lon="5.400558030232787"><ele></ele><time>2015-2-3T4:43:47Z</time></trkpt>
<trkpt lat="44.062048438936472" lon="5.400119991973043"><ele></ele><time>2015-2-3T4:43:50Z</time></trkpt>
<trkpt lat="44.061680221930146" lon="5.399728054180741"><ele></ele><time>2015-2-3T4:43:53Z</time></trkpt>
<trkpt lat="44.061307897791266" lon="5.399350449442864"><ele></ele><time>2015-2-3T4:43:56Z</time></trkpt>
<trkpt lat="44.060909757390618" lon="5.399018945172429"><ele></ele><time>2015-2-3T4:43:59Z</time></trkpt>
<trkpt lat="44.060489991679788" lon="5.398705126717687"><ele></ele><time>2015-2-3T4:44:2Z</time></trkpt>
<trkpt lat="44.060070645064116" lon="5.39841896854341"><ele></ele><time>2015-2-3T4:44:5Z</time></trkpt>
<trkpt lat="44.059653645381331" lon="5.398161476477981"><ele></ele><time>2015-2-3T4:44:8Z</time></trkpt>
<trkpt lat="44.059208231046796" lon="5.397936087101698"><ele></ele><time>2015-2-3T4:44:11Z</time></trkpt>
<trkpt lat="44.058765163645148" lon="5.39768110960722"><ele></ele><time>2015-2-3T4:44:14Z</time></trkpt>
<trkpt lat="44.058347074314952" lon="5.397411044687033"><ele></ele><time>2015-2-3T4:44:17Z</time></trkpt>
<trkpt lat="44.057981623336673" lon="5.397038217633963"><ele></ele><time>2015-2-3T4:44:20Z</time></trkpt>
<trkpt lat="44.057569736614823" lon="5.396699421107769"><ele></ele><time>2015-2-3T4:44:23Z</time></trkpt>
<trkpt lat="44.057147456333041" lon="5.396443605422974"><ele></ele><time>2015-2-3T4:44:26Z</time></trkpt>
<trkpt lat="44.057045867666602" lon="5.395812531933188"><ele></ele><time>2015-2-3T4:44:29Z</time></trkpt>
<trkpt lat="44.056921899318695" lon="5.395218003541231"><ele></ele><time>2015-2-3T4:44:32Z</time></trkpt>
<trkpt lat="44.056622833013535" lon="5.394742917269468"><ele></ele><time>2015-2-3T4:44:35Z</time></trkpt>
<trkpt lat="44.056295268237591" lon="5.394244780763984"><ele></ele><time>2015-2-3T4:44:38Z</time></trkpt>
<trkpt lat="44.055899139493704" lon="5.393979996442795"><ele></ele><time>2015-2-3T4:44:41Z</time></trkpt>
<trkpt lat="44.055459927767515" lon="5.394117292016745"><ele></ele><time>2015-2-3T4:44:44Z</time></trkpt>
<trkpt lat="44.055199921131134" lon="5.393654862418771"><ele></ele><time>2015-2-3T4:44:47Z</time></trkpt>
<trkpt lat="44.055056925863028" lon="5.39303476922214"><ele></ele><time>2015-2-3T4:44:50Z</time></trkpt>
<trkpt lat="44.054624671116471" lon="5.392803596332669"><ele></ele><time>2015-2-3T4:44:53Z</time></trkpt>
<trkpt lat="44.054160481318831" lon="5.39273570291698"><ele></ele><time>2015-2-3T4:44:56Z</time></trkpt>
<trkpt lat="44.053694196045399" lon="5.392795214429498"><ele></ele><time>2015-2-3T4:44:59Z</time></trkpt>
<trkpt lat="44.053233275189996" lon="5.392919853329659"><ele></ele><time>2015-2-3T4:45:2Z</time></trkpt>
<trkpt lat="44.052915684878826" lon="5.393328135833144"><ele></ele><time>2015-2-3T4:45:5Z</time></trkpt>
<trkpt lat="44.0527184586972" lon="5.393864577636123"><ele></ele><time>2015-2-3T4:45:8Z</time></trkpt>
<trkpt lat="44.052287712693214" lon="5.393648827448487"><ele></ele><time>2015-2-3T4:45:11Z</time></trkpt>
<trkpt lat="44.05183307826519" lon="5.393470041453838"><ele></ele><time>2015-2-3T4:45:14Z</time></trkpt>
<trkpt lat="44.051375510171056" lon="5.393575066700578"><ele></ele><time>2015-2-3T4:45:17Z</time></trkpt>
<trkpt lat="44.050941579043865" lon="5.393761144950986"><ele></ele><time>2015-2-3T4:45:20Z</time></trkpt>
<trkpt lat="44.050661707296968" lon="5.394248887896538"><ele></ele><time>2015-2-3T4:45:23Z</time></trkpt>
<trkpt lat="44.050232218578458" lon="5.394370760768652"><ele></ele><time>2015-2-3T4:45:26Z</time></trkpt>
<trkpt lat="44.049773728474975" lon="5.394308315590024"><ele></ele><time>2015-2-3T4:45:29Z</time></trkpt>
<trkpt lat="44.049305850639939" lon="5.394246205687523"><ele></ele><time>2015-2-3T4:45:32Z</time></trkpt>
<trkpt lat="44.048825483769178" lon="5.394240505993366"><ele></ele><time>2015-2-3T4:45:35Z</time></trkpt>
<trkpt lat="44.048379315063357" lon="5.39448156952858"><ele></ele><time>2015-2-3T4:45:38Z</time></trkpt>
<trkpt lat="44.047965416684747" lon="5.394782228395343"><ele></ele><time>2015-2-3T4:45:41Z</time></trkpt>
<trkpt lat="44.047571048140526" lon="5.395137285813689"><ele></ele><time>2015-2-3T4:45:44Z</time></trkpt>
<trkpt lat="44.047425119206309" lon="5.395718906074762"><ele></ele><time>2015-2-3T4:45:47Z</time></trkpt>
<trkpt lat="44.047362171113491" lon="5.396364312618971"><ele></ele><time>2015-2-3T4:45:50Z</time></trkpt>
<trkpt lat="44.047010550275445" lon="5.396781899034977"><ele></ele><time>2015-2-3T4:45:53Z</time></trkpt>
<trkpt lat="44.046561699360609" lon="5.39687099866569"><ele></ele><time>2015-2-3T4:45:56Z</time></trkpt>
<trkpt lat="44.046106059104204" lon="5.396936712786555"><ele></ele><time>2015-2-3T4:45:59Z</time></trkpt>
<trkpt lat="44.04564849101007" lon="5.396987507119775"><ele></ele><time>2015-2-3T4:46:2Z</time></trkpt>
<trkpt lat="44.045196622610092" lon="5.397037966176868"><ele></ele><time>2015-2-3T4:46:5Z</time></trkpt>
<trkpt lat="44.04473134316504" lon="5.397110972553492"><ele></ele><time>2015-2-3T4:46:8Z</time></trkpt>
<trkpt lat="44.044271763414145" lon="5.397132094949484"><ele></ele><time>2015-2-3T4:46:11Z</time></trkpt>
<trkpt lat="44.043826851993799" lon="5.39701659232378"><ele></ele><time>2015-2-3T4:46:14Z</time></trkpt>
<trkpt lat="44.043377917259932" lon="5.396828334778547"><ele></ele><time>2015-2-3T4:46:17Z</time></trkpt>
<trkpt lat="44.042932000011206" lon="5.396633455529809"><ele></ele><time>2015-2-3T4:46:20Z</time></trkpt>
<trkpt lat="44.042501421645284" lon="5.396431619301438"><ele></ele><time>2015-2-3T4:46:23Z</time></trkpt>
<trkpt lat="44.042054750025272" lon="5.396238751709461"><ele></ele><time>2015-2-3T4:46:26Z</time></trkpt>
<trkpt lat="44.04159776866436" lon="5.396036831662059"><ele></ele><time>2015-2-3T4:46:29Z</time></trkpt>
<trkpt lat="44.04115118086338" lon="5.395833654329181"><ele></ele><time>2015-2-3T4:46:32Z</time></trkpt>
<trkpt lat="44.040714232251048" lon="5.395640367642045"><ele></ele><time>2015-2-3T4:46:35Z</time></trkpt>
<trkpt lat="44.040255239233375" lon="5.395452780649066"><ele></ele><time>2015-2-3T4:46:38Z</time></trkpt>
<trkpt lat="44.039809238165617" lon="5.395239796489477"><ele></ele><time>2015-2-3T4:46:41Z</time></trkpt>
<trkpt lat="44.03937354683876" lon="5.395048605278134"><ele></ele><time>2015-2-3T4:46:44Z</time></trkpt>
<trkpt lat="44.038914805278182" lon="5.394825479015708"><ele></ele><time>2015-2-3T4:46:47Z</time></trkpt>
<trkpt lat="44.038565363734961" lon="5.39440244436264"><ele></ele><time>2015-2-3T4:46:50Z</time></trkpt>
<trkpt lat="44.038421530276537" lon="5.393806826323271"><ele></ele><time>2015-2-3T4:46:53Z</time></trkpt>
<trkpt lat="44.038339136168361" lon="5.393242053687573"><ele></ele><time>2015-2-3T4:46:56Z</time></trkpt>
<trkpt lat="44.038368389010429" lon="5.39258080534637"><ele></ele><time>2015-2-3T4:46:59Z</time></trkpt>
<trkpt lat="44.038337375968695" lon="5.391888460144401"><ele></ele><time>2015-2-3T4:47:2Z</time></trkpt>
<trkpt lat="44.038311811164021" lon="5.391260487958789"><ele></ele><time>2015-2-3T4:47:5Z</time></trkpt>
<trkpt lat="44.03828582726419" lon="5.390601838007569"><ele></ele><time>2015-2-3T4:47:8Z</time></trkpt>
<trkpt lat="44.038258921355009" lon="5.389910330995917"><ele></ele><time>2015-2-3T4:47:11Z</time></trkpt>
<trkpt lat="44.038321617990732" lon="5.389207089319825"><ele></ele><time>2015-2-3T4:47:14Z</time></trkpt>
<trkpt lat="44.038444748148322" lon="5.388544416055083"><ele></ele><time>2015-2-3T4:47:17Z</time></trkpt>
<trkpt lat="44.038539212197065" lon="5.387869253754616"><ele></ele><time>2015-2-3T4:47:20Z</time></trkpt>
<trkpt lat="44.038571901619434" lon="5.387170119211078"><ele></ele><time>2015-2-3T4:47:23Z</time></trkpt>
<trkpt lat="44.038636945188046" lon="5.386467464268208"><ele></ele><time>2015-2-3T4:47:26Z</time></trkpt>
<trkpt lat="44.038856886327267" lon="5.385833289474249"><ele></ele><time>2015-2-3T4:47:29Z</time></trkpt>
<trkpt lat="44.039079174399376" lon="5.385179501026869"><ele></ele><time>2015-2-3T4:47:32Z</time></trkpt>
<trkpt lat="44.039274891838431" lon="5.3846132196486"><ele></ele><time>2015-2-3T4:47:35Z</time></trkpt>
<trkpt lat="44.0393334813416" lon="5.383977703750134"><ele></ele><time>2015-2-3T4:47:38Z</time></trkpt>
<trkpt lat="44.039360471069813" lon="5.383344534784555"><ele></ele><time>2015-2-3T4:47:41Z</time></trkpt>
<trkpt lat="44.039604887366295" lon="5.382815888151527"><ele></ele><time>2015-2-3T4:47:44Z</time></trkpt>
<trkpt lat="44.039947036653757" lon="5.382313309237361"><ele></ele><time>2015-2-3T4:47:47Z</time></trkpt>
<trkpt lat="44.040266135707498" lon="5.381810059770942"><ele></ele><time>2015-2-3T4:47:50Z</time></trkpt>
<trkpt lat="44.040542403236032" lon="5.381289459764957"><ele></ele><time>2015-2-3T4:47:53Z</time></trkpt>
<trkpt lat="44.040808025747538" lon="5.380683615803719"><ele></ele><time>2015-2-3T4:47:56Z</time></trkpt>
<trkpt lat="44.041016735136509" lon="5.380060505121946"><ele></ele><time>2015-2-3T4:47:59Z</time></trkpt>
<trkpt lat="44.041185211390257" lon="5.37945818156004"><ele></ele><time>2015-2-3T4:48:2Z</time></trkpt>
<trkpt lat="44.041354358196259" lon="5.37886206060648"><ele></ele><time>2015-2-3T4:48:5Z</time></trkpt>
<trkpt lat="44.041527193039656" lon="5.378274908289313"><ele></ele><time>2015-2-3T4:48:8Z</time></trkpt>
<trkpt lat="44.041709583252668" lon="5.377624472603202"><ele></ele><time>2015-2-3T4:48:11Z</time></trkpt>
<trkpt lat="44.04186213389039" lon="5.377016700804234"><ele></ele><time>2015-2-3T4:48:14Z</time></trkpt>
<trkpt lat="44.041845789179206" lon="5.376390740275383"><ele></ele><time>2015-2-3T4:48:17Z</time></trkpt>
<trkpt lat="44.041606234386563" lon="5.375791769474745"><ele></ele><time>2015-2-3T4:48:20Z</time></trkpt>
<trkpt lat="44.041188061237335" lon="5.375435203313828"><ele></ele><time>2015-2-3T4:48:23Z</time></trkpt>
<trkpt lat="44.040700318291783" lon="5.375345097854734"><ele></ele><time>2015-2-3T4:48:26Z</time></trkpt>
<trkpt lat="44.040245935320854" lon="5.37529069930315"><ele></ele><time>2015-2-3T4:48:29Z</time></trkpt>
<trkpt lat="44.03978786431253" lon="5.375245520845056"><ele></ele><time>2015-2-3T4:48:32Z</time></trkpt>
<trkpt lat="44.039309844374657" lon="5.375081906095147"><ele></ele><time>2015-2-3T4:48:35Z</time></trkpt>
<trkpt lat="44.038935592398047" lon="5.37461101077497"><ele></ele><time>2015-2-3T4:48:38Z</time></trkpt>
<trkpt lat="44.038604758679867" lon="5.374085130169988"><ele></ele><time>2015-2-3T4:48:41Z</time></trkpt>
<trkpt lat="44.038272919133306" lon="5.373534858226776"><ele></ele><time>2015-2-3T4:48:44Z</time></trkpt>
<trkpt lat="44.038072340190411" lon="5.372959608212113"><ele></ele><time>2015-2-3T4:48:47Z</time></trkpt>
<trkpt lat="44.038043674081564" lon="5.372307579964399"><ele></ele><time>2015-2-3T4:48:50Z</time></trkpt>
<trkpt lat="44.038036717101932" lon="5.371620263904333"><ele></ele><time>2015-2-3T4:48:53Z</time></trkpt>
<trkpt lat="44.038022384047508" lon="5.370931858196855"><ele></ele><time>2015-2-3T4:48:56Z</time></trkpt>
<trkpt lat="44.038004279136658" lon="5.370279243215919"><ele></ele><time>2015-2-3T4:48:59Z</time></trkpt>
<trkpt lat="44.037889782339334" lon="5.369674572721124"><ele></ele><time>2015-2-3T4:49:2Z</time></trkpt>
<trkpt lat="44.037607060745358" lon="5.369127988815308"><ele></ele><time>2015-2-3T4:49:5Z</time></trkpt>
<trkpt lat="44.037301708012819" lon="5.368563132360578"><ele></ele><time>2015-2-3T4:49:8Z</time></trkpt>
<trkpt lat="44.036999540403485" lon="5.368021577596664"><ele></ele><time>2015-2-3T4:49:11Z</time></trkpt>
<trkpt lat="44.036619756370783" lon="5.367654534056783"><ele></ele><time>2015-2-3T4:49:14Z</time></trkpt>
<trkpt lat="44.036166379228234" lon="5.367348426952958"><ele></ele><time>2015-2-3T4:49:17Z</time></trkpt>
<trkpt lat="44.035694729536772" lon="5.367010468617082"><ele></ele><time>2015-2-3T4:49:20Z</time></trkpt>
<trkpt lat="44.035293320193887" lon="5.366727914661169"><ele></ele><time>2015-2-3T4:49:23Z</time></trkpt>
<trkpt lat="44.034854276105762" lon="5.366418203338981"><ele></ele><time>2015-2-3T4:49:26Z</time></trkpt>
<trkpt lat="44.034445323050022" lon="5.366133470088244"><ele></ele><time>2015-2-3T4:49:29Z</time></trkpt>
<trkpt lat="44.033981636166573" lon="5.365811940282583"><ele></ele><time>2015-2-3T4:49:32Z</time></trkpt>
<trkpt lat="44.03353831730783" lon="5.365513879805803"><ele></ele><time>2015-2-3T4:49:35Z</time></trkpt>
<trkpt lat="44.03305753134191" lon="5.365518489852548"><ele></ele><time>2015-2-3T4:49:38Z</time></trkpt>
<trkpt lat="44.03257180005312" lon="5.365593591704965"><ele></ele><time>2015-2-3T4:49:41Z</time></trkpt>
<trkpt lat="44.03211884200573" lon="5.36534707993269"><ele></ele><time>2015-2-3T4:49:44Z</time></trkpt>
<trkpt lat="44.031791528686881" lon="5.364855229854584"><ele></ele><time>2015-2-3T4:49:47Z</time></trkpt>
<trkpt lat="44.031416103243828" lon="5.364408390596509"><ele></ele><time>2015-2-3T4:49:50Z</time></trkpt>
<trkpt lat="44.030916038900614" lon="5.364354830235243"><ele></ele><time>2015-2-3T4:49:53Z</time></trkpt>
<trkpt lat="44.03046534396708" lon="5.364487264305353"><ele></ele><time>2015-2-3T4:49:56Z</time></trkpt>
<trkpt lat="44.030004758387804" lon="5.364174451678991"><ele></ele><time>2015-2-3T4:49:59Z</time></trkpt>
<trkpt lat="44.02951936237514" lon="5.364062217995524"><ele></ele><time>2015-2-3T4:50:2Z</time></trkpt>
<trkpt lat="44.029041342437267" lon="5.364062888547778"><ele></ele><time>2015-2-3T4:50:5Z</time></trkpt>
<trkpt lat="44.028532980009913" lon="5.364058949053288"><ele></ele><time>2015-2-3T4:50:8Z</time></trkpt>
<trkpt lat="44.028033167123795" lon="5.364157017320395"><ele></ele><time>2015-2-3T4:50:11Z</time></trkpt>
<trkpt lat="44.027555985376239" lon="5.364285260438919"><ele></ele><time>2015-2-3T4:50:14Z</time></trkpt>
<trkpt lat="44.027102859690785" lon="5.364157604053617"><ele></ele><time>2015-2-3T4:50:17Z</time></trkpt>
<trkpt lat="44.026662725955248" lon="5.363830290734768"><ele></ele><time>2015-2-3T4:50:20Z</time></trkpt>
<trkpt lat="44.026239523664117" lon="5.36350691691041"><ele></ele><time>2015-2-3T4:50:23Z</time></trkpt>
<trkpt lat="44.025821853429079" lon="5.363218327984214"><ele></ele><time>2015-2-3T4:50:26Z</time></trkpt>
<trkpt lat="44.025367638096213" lon="5.363055132329464"><ele></ele><time>2015-2-3T4:50:29Z</time></trkpt>
<trkpt lat="44.02484318241477" lon="5.362912137061358"><ele></ele><time>2015-2-3T4:50:32Z</time></trkpt>
<trkpt lat="44.024364994838834" lon="5.362774170935154"><ele></ele><time>2015-2-3T4:50:35Z</time></trkpt>
<trkpt lat="44.023895859718323" lon="5.362607957795262"><ele></ele><time>2015-2-3T4:50:38Z</time></trkpt>
<trkpt lat="44.023491013795137" lon="5.362323559820652"><ele></ele><time>2015-2-3T4:50:41Z</time></trkpt>
<trkpt lat="44.023118270561099" lon="5.361968753859401"><ele></ele><time>2015-2-3T4:50:44Z</time></trkpt>
<trkpt lat="44.022748628631234" lon="5.361610595136881"><ele></ele><time>2015-2-3T4:50:47Z</time></trkpt>
<trkpt lat="44.022376639768481" lon="5.361240534111857"><ele></ele><time>2015-2-3T4:50:50Z</time></trkpt>
<trkpt lat="44.022003142163157" lon="5.360874999314547"><ele></ele><time>2015-2-3T4:50:53Z</time></trkpt>
<trkpt lat="44.021564098075032" lon="5.360610047355294"><ele></ele><time>2015-2-3T4:50:56Z</time></trkpt>
<trkpt lat="44.021071409806609" lon="5.360607365146279"><ele></ele><time>2015-2-3T4:50:59Z</time></trkpt>
<trkpt lat="44.020578637719154" lon="5.36063963547349"><ele></ele><time>2015-2-3T4:51:2Z</time></trkpt>
<trkpt lat="44.02013179846108" lon="5.360561851412058"><ele></ele><time>2015-2-3T4:51:5Z</time></trkpt>
<trkpt lat="44.019701890647411" lon="5.360305029898882"><ele></ele><time>2015-2-3T4:51:8Z</time></trkpt>
<trkpt lat="44.019252704456449" lon="5.360005125403404"><ele></ele><time>2015-2-3T4:51:11Z</time></trkpt>
<trkpt lat="44.018829083070159" lon="5.359773114323616"><ele></ele><time>2015-2-3T4:51:14Z</time></trkpt>
<trkpt lat="44.018357349559665" lon="5.359513526782394"><ele></ele><time>2015-2-3T4:51:17Z</time></trkpt>
<trkpt lat="44.017930962145329" lon="5.359278414398432"><ele></ele><time>2015-2-3T4:51:20Z</time></trkpt>
<trkpt lat="44.017488397657871" lon="5.359035423025489"><ele></ele><time>2015-2-3T4:51:23Z</time></trkpt>
<trkpt lat="44.017036026343703" lon="5.358793521299958"><ele></ele><time>2015-2-3T4:51:26Z</time></trkpt>
<trkpt lat="44.016571668908" lon="5.358541728928685"><ele></ele><time>2015-2-3T4:51:29Z</time></trkpt>
<trkpt lat="44.016106892377138" lon="5.358289768919349"><ele></ele><time>2015-2-3T4:51:32Z</time></trkpt>
<trkpt lat="44.015658628195524" lon="5.358040994033217"><ele></ele><time>2015-2-3T4:51:35Z</time></trkpt>
<trkpt lat="44.01517323218286" lon="5.357780149206519"><ele></ele><time>2015-2-3T4:51:38Z</time></trkpt>
<trkpt lat="44.014706695452332" lon="5.357527434825897"><ele></ele><time>2015-2-3T4:51:41Z</time></trkpt>
<trkpt lat="44.014235632494092" lon="5.357243539765477"><ele></ele><time>2015-2-3T4:51:44Z</time></trkpt>
<trkpt lat="44.013827098533511" lon="5.356951765716076"><ele></ele><time>2015-2-3T4:51:47Z</time></trkpt>
<trkpt lat="44.013397023081779" lon="5.356613807380199"><ele></ele><time>2015-2-3T4:51:50Z</time></trkpt>
<trkpt lat="44.012952530756593" lon="5.356287164613605"><ele></ele><time>2015-2-3T4:51:53Z</time></trkpt>
<trkpt lat="44.012547601014376" lon="5.355975944548845"><ele></ele><time>2015-2-3T4:51:56Z</time></trkpt>
<trkpt lat="44.012204613536596" lon="5.355555089190602"><ele></ele><time>2015-2-3T4:51:59Z</time></trkpt>
<trkpt lat="44.011910408735275" lon="5.355076566338539"><ele></ele><time>2015-2-3T4:52:2Z</time></trkpt>
<trkpt lat="44.011601116508245" lon="5.354609442874789"><ele></ele><time>2015-2-3T4:52:5Z</time></trkpt>
<trkpt lat="44.011292494833469" lon="5.354143241420388"><ele></ele><time>2015-2-3T4:52:8Z</time></trkpt>
<trkpt lat="44.010965768247843" lon="5.353654073551297"><ele></ele><time>2015-2-3T4:52:11Z</time></trkpt>
<trkpt lat="44.010624289512634" lon="5.353147219866514"><ele></ele><time>2015-2-3T4:52:14Z</time></trkpt>
<trkpt lat="44.010283648967743" lon="5.352633744478226"><ele></ele><time>2015-2-3T4:52:17Z</time></trkpt>
<trkpt lat="44.009939404204488" lon="5.35211062990129"><ele></ele><time>2015-2-3T4:52:20Z</time></trkpt>
<trkpt lat="44.009621143341064" lon="5.351627916097641"><ele></ele><time>2015-2-3T4:52:23Z</time></trkpt>
<trkpt lat="44.009292908012867" lon="5.351139083504677"><ele></ele><time>2015-2-3T4:52:26Z</time></trkpt>
<trkpt lat="44.008965594694018" lon="5.350651172921062"><ele></ele><time>2015-2-3T4:52:29Z</time></trkpt>
<trkpt lat="44.008637107908726" lon="5.350163262337446"><ele></ele><time>2015-2-3T4:52:32Z</time></trkpt>
<trkpt lat="44.008306190371513" lon="5.349685242399573"><ele></ele><time>2015-2-3T4:52:35Z</time></trkpt>
<trkpt lat="44.007887262851" lon="5.3493557497859"><ele></ele><time>2015-2-3T4:52:38Z</time></trkpt>
<trkpt lat="44.007409578189254" lon="5.349375028163195"><ele></ele><time>2015-2-3T4:52:41Z</time></trkpt>
<trkpt lat="44.006941448897123" lon="5.349548030644655"><ele></ele><time>2015-2-3T4:52:44Z</time></trkpt>
<trkpt lat="44.006485054269433" lon="5.349713489413261"><ele></ele><time>2015-2-3T4:52:47Z</time></trkpt>
<trkpt lat="44.006034946069121" lon="5.349836116656661"><ele></ele><time>2015-2-3T4:52:50Z</time></trkpt>
<trkpt lat="44.005569582805037" lon="5.349688846617937"><ele></ele><time>2015-2-3T4:52:53Z</time></trkpt>
<trkpt lat="44.005184853449464" lon="5.349320629611611"><ele></ele><time>2015-2-3T4:52:56Z</time></trkpt>
<trkpt lat="44.004782438278198" lon="5.34894235432148"><ele></ele><time>2015-2-3T4:52:59Z</time></trkpt>
<trkpt lat="44.004399133846164" lon="5.348573550581932"><ele></ele><time>2015-2-3T4:53:2Z</time></trkpt>
<trkpt lat="44.003992192447186" lon="5.348187815397978"><ele></ele><time>2015-2-3T4:53:5Z</time></trkpt>
<trkpt lat="44.00356924161315" lon="5.347783053293824"><ele></ele><time>2015-2-3T4:53:8Z</time></trkpt>
<trkpt lat="44.003171436488628" lon="5.347410226240754"><ele></ele><time>2015-2-3T4:53:11Z</time></trkpt>
<trkpt lat="44.002773547545075" lon="5.347044439986348"><ele></ele><time>2015-2-3T4:53:14Z</time></trkpt>
<trkpt lat="44.002328887581825" lon="5.346628865227103"><ele></ele><time>2015-2-3T4:53:17Z</time></trkpt>
<trkpt lat="44.001945499330759" lon="5.346277579665184"><ele></ele><time>2015-2-3T4:53:20Z</time></trkpt>
<trkpt lat="44.001541910693049" lon="5.345964431762695"><ele></ele><time>2015-2-3T4:53:23Z</time></trkpt>
<trkpt lat="44.001143435016274" lon="5.345661174505949"><ele></ele><time>2015-2-3T4:53:26Z</time></trkpt>
<trkpt lat="44.000675473362207" lon="5.345310140401125"><ele></ele><time>2015-2-3T4:53:29Z</time></trkpt>
<trkpt lat="44.000220084562898" lon="5.345013504847884"><ele></ele><time>2015-2-3T4:53:32Z</time></trkpt>
<trkpt lat="43.999785147607327" lon="5.344737656414509"><ele></ele><time>2015-2-3T4:53:35Z</time></trkpt>
<trkpt lat="43.999321293085814" lon="5.344594744965434"><ele></ele><time>2015-2-3T4:53:38Z</time></trkpt>
<trkpt lat="43.998869089409709" lon="5.344358794391155"><ele></ele><time>2015-2-3T4:53:41Z</time></trkpt>
<trkpt lat="43.998501626774669" lon="5.343907093629241"><ele></ele><time>2015-2-3T4:53:44Z</time></trkpt>
<trkpt lat="43.998183030635118" lon="5.343373417854309"><ele></ele><time>2015-2-3T4:53:47Z</time></trkpt>
<trkpt lat="43.99783082306385" lon="5.342861032113433"><ele></ele><time>2015-2-3T4:53:50Z</time></trkpt>
<trkpt lat="43.997542737051845" lon="5.342245548963547"><ele></ele><time>2015-2-3T4:53:53Z</time></trkpt>
<trkpt lat="43.997237971052527" lon="5.341639285907149"><ele></ele><time>2015-2-3T4:53:56Z</time></trkpt>
<trkpt lat="43.996882913634181" lon="5.341139053925872"><ele></ele><time>2015-2-3T4:53:59Z</time></trkpt>
<trkpt lat="43.996518887579441" lon="5.340681150555611"><ele></ele><time>2015-2-3T4:54:2Z</time></trkpt>
<trkpt lat="43.99624421261251" lon="5.340174464508891"><ele></ele><time>2015-2-3T4:54:5Z</time></trkpt>
<trkpt lat="43.995946738868952" lon="5.339643135666847"><ele></ele><time>2015-2-3T4:54:8Z</time></trkpt>
<trkpt lat="43.995636943727732" lon="5.339071992784739"><ele></ele><time>2015-2-3T4:54:11Z</time></trkpt>
<trkpt lat="43.995328908786178" lon="5.338499676436186"><ele></ele><time>2015-2-3T4:54:14Z</time></trkpt>
<trkpt lat="43.995064962655306" lon="5.337988715618849"><ele></ele><time>2015-2-3T4:54:17Z</time></trkpt>
<trkpt lat="43.994768662378192" lon="5.337432408705354"><ele></ele><time>2015-2-3T4:54:20Z</time></trkpt>
<trkpt lat="43.994524413719773" lon="5.336888590827584"><ele></ele><time>2015-2-3T4:54:23Z</time></trkpt>
<trkpt lat="43.994281841441989" lon="5.336355334147811"><ele></ele><time>2015-2-3T4:54:26Z</time></trkpt>
<trkpt lat="43.994020242244005" lon="5.335794249549508"><ele></ele><time>2015-2-3T4:54:29Z</time></trkpt>
<trkpt lat="43.993724696338177" lon="5.335203157737851"><ele></ele><time>2015-2-3T4:54:32Z</time></trkpt>
<trkpt lat="43.9934575650841" lon="5.334564791992307"><ele></ele><time>2015-2-3T4:54:35Z</time></trkpt>
<trkpt lat="43.993330830708146" lon="5.33396003767848"><ele></ele><time>2015-2-3T4:54:38Z</time></trkpt>
<trkpt lat="43.99309454485774" lon="5.333418482914567"><ele></ele><time>2015-2-3T4:54:41Z</time></trkpt>
<trkpt lat="43.992751725018024" lon="5.332942642271519"><ele></ele><time>2015-2-3T4:54:44Z</time></trkpt>
<trkpt lat="43.992524994537234" lon="5.332337049767375"><ele></ele><time>2015-2-3T4:54:47Z</time></trkpt>
<trkpt lat="43.992311339825392" lon="5.3317382466048"><ele></ele><time>2015-2-3T4:54:50Z</time></trkpt>
<trkpt lat="43.992101792246103" lon="5.331180598586798"><ele></ele><time>2015-2-3T4:54:53Z</time></trkpt>
<trkpt lat="43.991762660443783" lon="5.330638624727726"><ele></ele><time>2015-2-3T4:54:56Z</time></trkpt>
<trkpt lat="43.991459906101227" lon="5.330128250643611"><ele></ele><time>2015-2-3T4:54:59Z</time></trkpt>
<trkpt lat="43.991182884201407" lon="5.329577224329114"><ele></ele><time>2015-2-3T4:55:2Z</time></trkpt>
<trkpt lat="43.990849032998085" lon="5.329044973477721"><ele></ele><time>2015-2-3T4:55:5Z</time></trkpt>
<trkpt lat="43.990489868447185" lon="5.328504759818316"><ele></ele><time>2015-2-3T4:55:8Z</time></trkpt>
<trkpt lat="43.990125590935349" lon="5.327984746545553"><ele></ele><time>2015-2-3T4:55:11Z</time></trkpt>
<trkpt lat="43.989739939570427" lon="5.327549893409014"><ele></ele><time>2015-2-3T4:55:14Z</time></trkpt>
<trkpt lat="43.989300644025207" lon="5.327559281140566"><ele></ele><time>2015-2-3T4:55:17Z</time></trkpt>
<trkpt lat="43.988831425085664" lon="5.327346548438072"><ele></ele><time>2015-2-3T4:55:20Z</time></trkpt>
<trkpt lat="43.988394644111395" lon="5.327373621985316"><ele></ele><time>2015-2-3T4:55:23Z</time></trkpt>
<trkpt lat="43.988029863685369" lon="5.327886091545224"><ele></ele><time>2015-2-3T4:55:26Z</time></trkpt>
<trkpt lat="43.987579587846994" lon="5.328026572242379"><ele></ele><time>2015-2-3T4:55:29Z</time></trkpt>
<trkpt lat="43.987275492399931" lon="5.328363189473748"><ele></ele><time>2015-2-3T4:55:32Z</time></trkpt>
<trkpt lat="43.987303152680397" lon="5.329021671786904"><ele></ele><time>2015-2-3T4:55:35Z</time></trkpt>
<trkpt lat="43.986881962046027" lon="5.329367760568857"><ele></ele><time>2015-2-3T4:55:38Z</time></trkpt>
<trkpt lat="43.986496310681105" lon="5.329729858785868"><ele></ele><time>2015-2-3T4:55:41Z</time></trkpt>
<trkpt lat="43.986014435067773" lon="5.329967737197876"><ele></ele><time>2015-2-3T4:55:44Z</time></trkpt>
<trkpt lat="43.98557354696095" lon="5.330111403018236"><ele></ele><time>2015-2-3T4:55:47Z</time></trkpt>
<trkpt lat="43.985105082392693" lon="5.330142667517066"><ele></ele><time>2015-2-3T4:55:50Z</time></trkpt>
<trkpt lat="43.984632678329945" lon="5.330263953655958"><ele></ele><time>2015-2-3T4:55:53Z</time></trkpt>
<trkpt lat="43.98417703807354" lon="5.330020878463984"><ele></ele><time>2015-2-3T4:55:56Z</time></trkpt>
<trkpt lat="43.983712932094932" lon="5.329981483519077"><ele></ele><time>2015-2-3T4:55:59Z</time></trkpt>
<trkpt lat="43.983299704268575" lon="5.33031634055078"><ele></ele><time>2015-2-3T4:56:2Z</time></trkpt>
<trkpt lat="43.982909861952066" lon="5.330346431583166"><ele></ele><time>2015-2-3T4:56:5Z</time></trkpt>
<trkpt lat="43.982530999928713" lon="5.329989697784185"><ele></ele><time>2015-2-3T4:56:8Z</time></trkpt>
<trkpt lat="43.982027415186167" lon="5.329852318391204"><ele></ele><time>2015-2-3T4:56:11Z</time></trkpt>
<trkpt lat="43.981545623391867" lon="5.329832872375846"><ele></ele><time>2015-2-3T4:56:14Z</time></trkpt>
<trkpt lat="43.981096521019936" lon="5.329880397766829"><ele></ele><time>2015-2-3T4:56:17Z</time></trkpt>
<trkpt lat="43.980635348707438" lon="5.329746538773179"><ele></ele><time>2015-2-3T4:56:20Z</time></trkpt>
<trkpt lat="43.980191443115473" lon="5.329506983980537"><ele></ele><time>2015-2-3T4:56:23Z</time></trkpt>
<trkpt lat="43.979738233610988" lon="5.329271033406258"><ele></ele><time>2015-2-3T4:56:26Z</time></trkpt>
<trkpt lat="43.979259626939893" lon="5.329128038138151"><ele></ele><time>2015-2-3T4:56:29Z</time></trkpt>
<trkpt lat="43.978833071887493" lon="5.328829474747181"><ele></ele><time>2015-2-3T4:56:32Z</time></trkpt>
<trkpt lat="43.978419424965978" lon="5.328570809215307"><ele></ele><time>2015-2-3T4:56:35Z</time></trkpt>
<trkpt lat="43.97797292098403" lon="5.32851473428309"><ele></ele><time>2015-2-3T4:56:38Z</time></trkpt>
<trkpt lat="43.977541420608759" lon="5.328343072906137"><ele></ele><time>2015-2-3T4:56:41Z</time></trkpt>
<trkpt lat="43.977209581062198" lon="5.327869830653071"><ele></ele><time>2015-2-3T4:56:44Z</time></trkpt>
<trkpt lat="43.976869527250528" lon="5.327462889254093"><ele></ele><time>2015-2-3T4:56:47Z</time></trkpt>
<trkpt lat="43.976499298587441" lon="5.327819623053074"><ele></ele><time>2015-2-3T4:56:50Z</time></trkpt>
<trkpt lat="43.976102750748396" lon="5.3281394764781"><ele></ele><time>2015-2-3T4:56:53Z</time></trkpt>
<trkpt lat="43.975652307271957" lon="5.328189767897129"><ele></ele><time>2015-2-3T4:56:56Z</time></trkpt>
<trkpt lat="43.975166073068976" lon="5.328075271099806"><ele></ele><time>2015-2-3T4:56:59Z</time></trkpt>
<trkpt lat="43.974699703976512" lon="5.328100752085447"><ele></ele><time>2015-2-3T4:57:2Z</time></trkpt>
<trkpt lat="43.974215900525451" lon="5.328150540590286"><ele></ele><time>2015-2-3T4:57:5Z</time></trkpt>
<trkpt lat="43.973768558353186" lon="5.32830367796123"><ele></ele><time>2015-2-3T4:57:8Z</time></trkpt>
<trkpt lat="43.973293472081423" lon="5.328443320468068"><ele></ele><time>2015-2-3T4:57:11Z</time></trkpt>
<trkpt lat="43.972841436043382" lon="5.328639959916472"><ele></ele><time>2015-2-3T4:57:14Z</time></trkpt>
<trkpt lat="43.972417144104838" lon="5.329026700928807"><ele></ele><time>2015-2-3T4:57:17Z</time></trkpt>
<trkpt lat="43.972038198262453" lon="5.329462895169854"><ele></ele><time>2015-2-3T4:57:20Z</time></trkpt>
<trkpt lat="43.971575098112226" lon="5.329594993963838"><ele></ele><time>2015-2-3T4:57:23Z</time></trkpt>
<trkpt lat="43.971095820888877" lon="5.329663138836622"><ele></ele><time>2015-2-3T4:57:26Z</time></trkpt>
<trkpt lat="43.970640599727631" lon="5.329412017017603"><ele></ele><time>2015-2-3T4:57:29Z</time></trkpt>
<trkpt lat="43.970150593668222" lon="5.32950178720057"><ele></ele><time>2015-2-3T4:57:32Z</time></trkpt>
<trkpt lat="43.969687325879931" lon="5.329672107473016"><ele></ele><time>2015-2-3T4:57:35Z</time></trkpt>
<trkpt lat="43.9692054502666" lon="5.329852234572172"><ele></ele><time>2015-2-3T4:57:38Z</time></trkpt>
<trkpt lat="43.968751318752766" lon="5.32971334643662"><ele></ele><time>2015-2-3T4:57:41Z</time></trkpt>
<trkpt lat="43.968436494469643" lon="5.329247396439314"><ele></ele><time>2015-2-3T4:57:44Z</time></trkpt>
<trkpt lat="43.968089399859309" lon="5.328716738149524"><ele></ele><time>2015-2-3T4:57:47Z</time></trkpt>
<trkpt lat="43.96777625195682" lon="5.328244250267744"><ele></ele><time>2015-2-3T4:57:50Z</time></trkpt>
<trkpt lat="43.967566536739469" lon="5.327611081302166"><ele></ele><time>2015-2-3T4:57:53Z</time></trkpt>
<trkpt lat="43.967457236722112" lon="5.326988808810711"><ele></ele><time>2015-2-3T4:57:56Z</time></trkpt>
<trkpt lat="43.967384984716773" lon="5.326353712007403"><ele></ele><time>2015-2-3T4:57:59Z</time></trkpt>
<trkpt lat="43.967587240040302" lon="5.325735546648502"><ele></ele><time>2015-2-3T4:58:2Z</time></trkpt>
<trkpt lat="43.967338632792234" lon="5.325256017968059"><ele></ele><time>2015-2-3T4:58:5Z</time></trkpt>
<trkpt lat="43.966898079961538" lon="5.324981426820159"><ele></ele><time>2015-2-3T4:58:8Z</time></trkpt>
<trkpt lat="43.96670613437891" lon="5.324378348886967"><ele></ele><time>2015-2-3T4:58:11Z</time></trkpt>
<trkpt lat="43.966540340334177" lon="5.323722129687667"><ele></ele><time>2015-2-3T4:58:14Z</time></trkpt>
<trkpt lat="43.966298187151551" lon="5.32311586663127"><ele></ele><time>2015-2-3T4:58:17Z</time></trkpt>
<trkpt lat="43.966238088905811" lon="5.322462413460016"><ele></ele><time>2015-2-3T4:58:20Z</time></trkpt>
<trkpt lat="43.966127699241042" lon="5.321852546185255"><ele></ele><time>2015-2-3T4:58:23Z</time></trkpt>
<trkpt lat="43.96629617549479" lon="5.321273691952229"><ele></ele><time>2015-2-3T4:58:26Z</time></trkpt>
<trkpt lat="43.966104313731194" lon="5.320685869082809"><ele></ele><time>2015-2-3T4:58:29Z</time></trkpt>
<trkpt lat="43.965835338458419" lon="5.320111960172653"><ele></ele><time>2015-2-3T4:58:32Z</time></trkpt>
<trkpt lat="43.965734168887138" lon="5.319501589983702"><ele></ele><time>2015-2-3T4:58:35Z</time></trkpt>
<trkpt lat="43.965633250772953" lon="5.318881161510944"><ele></ele><time>2015-2-3T4:58:38Z</time></trkpt>
<trkpt lat="43.965439964085817" lon="5.318265678361058"><ele></ele><time>2015-2-3T4:58:41Z</time></trkpt>
<trkpt lat="43.965240558609366" lon="5.317701576277614"><ele></ele><time>2015-2-3T4:58:44Z</time></trkpt>
<trkpt lat="43.965019695460796" lon="5.3170529846102"><ele></ele><time>2015-2-3T4:58:47Z</time></trkpt>
<trkpt lat="43.964713420718908" lon="5.316489385440946"><ele></ele><time>2015-2-3T4:58:50Z</time></trkpt>
<trkpt lat="43.964297007769346" lon="5.316092586144805"><ele></ele><time>2015-2-3T4:58:53Z</time></trkpt>
<trkpt lat="43.9639160502702" lon="5.315727218985558"><ele></ele><time>2015-2-3T4:58:56Z</time></trkpt>
<trkpt lat="43.963733911514282" lon="5.315145263448358"><ele></ele><time>2015-2-3T4:58:59Z</time></trkpt>
<trkpt lat="43.963232841342688" lon="5.31503789126873"><ele></ele><time>2015-2-3T4:59:2Z</time></trkpt>
<trkpt lat="43.962779296562076" lon="5.315214246511459"><ele></ele><time>2015-2-3T4:59:5Z</time></trkpt>
<trkpt lat="43.962691286578774" lon="5.315837021917105"><ele></ele><time>2015-2-3T4:59:8Z</time></trkpt>
<trkpt lat="43.962740991264582" lon="5.316535234451294"><ele></ele><time>2015-2-3T4:59:11Z</time></trkpt>
<trkpt lat="43.962879711762071" lon="5.31712238676846"><ele></ele><time>2015-2-3T4:59:14Z</time></trkpt>
<trkpt lat="43.963311044499278" lon="5.317370658740401"><ele></ele><time>2015-2-3T4:59:17Z</time></trkpt>
<trkpt lat="43.963682949542999" lon="5.317726386711001"><ele></ele><time>2015-2-3T4:59:20Z</time></trkpt>
<trkpt lat="43.963738940656185" lon="5.318382354453206"><ele></ele><time>2015-2-3T4:59:23Z</time></trkpt>
<trkpt lat="43.963777329772711" lon="5.319114848971367"><ele></ele><time>2015-2-3T4:59:26Z</time></trkpt>
<trkpt lat="43.963800212368369" lon="5.319766206666827"><ele></ele><time>2015-2-3T4:59:29Z</time></trkpt>
<trkpt lat="43.963767103850842" lon="5.320432735607028"><ele></ele><time>2015-2-3T4:59:32Z</time></trkpt>
<trkpt lat="43.963606841862202" lon="5.321060540154576"><ele></ele><time>2015-2-3T4:59:35Z</time></trkpt>
<trkpt lat="43.963387571275234" lon="5.321668479591608"><ele></ele><time>2015-2-3T4:59:38Z</time></trkpt>
<trkpt lat="43.962900750339031" lon="5.321692451834679"><ele></ele><time>2015-2-3T4:59:41Z</time></trkpt>
<trkpt lat="43.962421305477619" lon="5.321506960317493"><ele></ele><time>2015-2-3T4:59:44Z</time></trkpt>
<trkpt lat="43.961957283318043" lon="5.321632185950875"><ele></ele><time>2015-2-3T4:59:47Z</time></trkpt>
<trkpt lat="43.961587892845273" lon="5.322001576423645"><ele></ele><time>2015-2-3T4:59:50Z</time></trkpt>
<trkpt lat="43.96132973022759" lon="5.322563834488392"><ele></ele><time>2015-2-3T4:59:53Z</time></trkpt>
<trkpt lat="43.9612359367311" lon="5.32320823520422"><ele></ele><time>2015-2-3T4:59:56Z</time></trkpt>
<trkpt lat="43.961137533187866" lon="5.323907034471631"><ele></ele><time>2015-2-3T4:59:59Z</time></trkpt>
<trkpt lat="43.961049690842628" lon="5.324547579512"><ele></ele><time>2015-2-3T5:0:2Z</time></trkpt>
<trkpt lat="43.961238786578178" lon="5.325191225856543"><ele></ele><time>2015-2-3T5:0:5Z</time></trkpt>
<trkpt lat="43.961532907560468" lon="5.325685255229473"><ele></ele><time>2015-2-3T5:0:8Z</time></trkpt>
<trkpt lat="43.961959462612867" lon="5.326097309589386"><ele></ele><time>2015-2-3T5:0:11Z</time></trkpt>
<trkpt lat="43.962358525022864" lon="5.32647717744112"><ele></ele><time>2015-2-3T5:0:14Z</time></trkpt>
<trkpt lat="43.962667565792799" lon="5.327057372778654"><ele></ele><time>2015-2-3T5:0:17Z</time></trkpt>
<trkpt lat="43.96280930377543" lon="5.327769499272108"><ele></ele><time>2015-2-3T5:0:20Z</time></trkpt>
<trkpt lat="43.962824558839202" lon="5.328479614108801"><ele></ele><time>2015-2-3T5:0:23Z</time></trkpt>
<trkpt lat="43.963045254349709" lon="5.329072466120124"><ele></ele><time>2015-2-3T5:0:26Z</time></trkpt>
<trkpt lat="43.963372735306621" lon="5.329628773033619"><ele></ele><time>2015-2-3T5:0:29Z</time></trkpt>
<trkpt lat="43.963551269844174" lon="5.330208716914058"><ele></ele><time>2015-2-3T5:0:32Z</time></trkpt>
<trkpt lat="43.963580941781402" lon="5.33085965551436"><ele></ele><time>2015-2-3T5:0:35Z</time></trkpt>
<trkpt lat="43.963683033362031" lon="5.331509336829186"><ele></ele><time>2015-2-3T5:0:38Z</time></trkpt>
<trkpt lat="43.963827034458518" lon="5.332138063386083"><ele></ele><time>2015-2-3T5:0:41Z</time></trkpt>
<trkpt lat="43.963961312547326" lon="5.332781709730625"><ele></ele><time>2015-2-3T5:0:44Z</time></trkpt>
<trkpt lat="43.964102631434798" lon="5.333426697179675"><ele></ele><time>2015-2-3T5:0:47Z</time></trkpt>
<trkpt lat="43.964222492650151" lon="5.334127256646752"><ele></ele><time>2015-2-3T5:0:50Z</time></trkpt>
<trkpt lat="43.963990481570363" lon="5.33471591770649"><ele></ele><time>2015-2-3T5:0:53Z</time></trkpt>
<trkpt lat="43.964008502662182" lon="5.335352690890431"><ele></ele><time>2015-2-3T5:0:56Z</time></trkpt>
<trkpt lat="43.963870536535978" lon="5.335878571495414"><ele></ele><time>2015-2-3T5:0:59Z</time></trkpt>
<trkpt lat="43.963426882401109" lon="5.33605232834816"><ele></ele><time>2015-2-3T5:1:2Z</time></trkpt>
<trkpt lat="43.963096886873245" lon="5.336511991918087"><ele></ele><time>2015-2-3T5:1:5Z</time></trkpt>
<trkpt lat="43.962638396769762" lon="5.336572425439954"><ele></ele><time>2015-2-3T5:1:8Z</time></trkpt>
<trkpt lat="43.962206477299333" lon="5.336797395721078"><ele></ele><time>2015-2-3T5:1:11Z</time></trkpt>
<trkpt lat="43.961819484829903" lon="5.337182292714715"><ele></ele><time>2015-2-3T5:1:14Z</time></trkpt>
<trkpt lat="43.961447244510055" lon="5.337540954351425"><ele></ele><time>2015-2-3T5:1:17Z</time></trkpt>
<trkpt lat="43.961044242605567" lon="5.337823675945401"><ele></ele><time>2015-2-3T5:1:20Z</time></trkpt>
<trkpt lat="43.960619447752833" lon="5.338046466931701"><ele></ele><time>2015-2-3T5:1:23Z</time></trkpt>
<trkpt lat="43.960179565474391" lon="5.338245201855898"><ele></ele><time>2015-2-3T5:1:26Z</time></trkpt>
<trkpt lat="43.959731552749872" lon="5.338351232931018"><ele></ele><time>2015-2-3T5:1:29Z</time></trkpt>
<trkpt lat="43.959345063194633" lon="5.338733363896608"><ele></ele><time>2015-2-3T5:1:32Z</time></trkpt>
<trkpt lat="43.95900241099298" lon="5.339156817644835"><ele></ele><time>2015-2-3T5:1:35Z</time></trkpt>
<trkpt lat="43.958592033013701" lon="5.339501230046153"><ele></ele><time>2015-2-3T5:1:38Z</time></trkpt>
<trkpt lat="43.958148630335927" lon="5.339755872264504"><ele></ele><time>2015-2-3T5:1:41Z</time></trkpt>
<trkpt lat="43.957742191851139" lon="5.340060386806727"><ele></ele><time>2015-2-3T5:1:44Z</time></trkpt>
<trkpt lat="43.957441700622439" lon="5.340587105602026"><ele></ele><time>2015-2-3T5:1:47Z</time></trkpt>
<trkpt lat="43.957093767821789" lon="5.341040985658765"><ele></ele><time>2015-2-3T5:1:50Z</time></trkpt>
<trkpt lat="43.956672828644514" lon="5.34129973500967"><ele></ele><time>2015-2-3T5:1:53Z</time></trkpt>
<trkpt lat="43.956281812861562" lon="5.341664766892791"><ele></ele><time>2015-2-3T5:1:56Z</time></trkpt>
<trkpt lat="43.955885097384453" lon="5.341961318627"><ele></ele><time>2015-2-3T5:1:59Z</time></trkpt>
<trkpt lat="43.955447226762772" lon="5.342174889519811"><ele></ele><time>2015-2-3T5:2:2Z</time></trkpt>
<trkpt lat="43.954992508515716" lon="5.342276813462377"><ele></ele><time>2015-2-3T5:2:5Z</time></trkpt>
<trkpt lat="43.954537287354469" lon="5.342355184257031"><ele></ele><time>2015-2-3T5:2:8Z</time></trkpt>
<trkpt lat="43.954077875241637" lon="5.342442942783237"><ele></ele><time>2015-2-3T5:2:11Z</time></trkpt>
<trkpt lat="43.953629359602928" lon="5.342512596398592"><ele></ele><time>2015-2-3T5:2:14Z</time></trkpt>
<trkpt lat="43.953166678547859" lon="5.342445457354188"><ele></ele><time>2015-2-3T5:2:17Z</time></trkpt>
<trkpt lat="43.952704416587949" lon="5.34234244376421"><ele></ele><time>2015-2-3T5:2:20Z</time></trkpt>
<trkpt lat="43.952298648655415" lon="5.342079000547528"><ele></ele><time>2015-2-3T5:2:23Z</time></trkpt>
<trkpt lat="43.951888103038073" lon="5.341919241473079"><ele></ele><time>2015-2-3T5:2:26Z</time></trkpt>
<trkpt lat="43.951536230742931" lon="5.342329535633326"><ele></ele><time>2015-2-3T5:2:29Z</time></trkpt>
<trkpt lat="43.951218221336603" lon="5.342831443995237"><ele></ele><time>2015-2-3T5:2:32Z</time></trkpt>
<trkpt lat="43.951094755902886" lon="5.3434516210109"><ele></ele><time>2015-2-3T5:2:35Z</time></trkpt>
<trkpt lat="43.951150998473167" lon="5.344099709764123"><ele></ele><time>2015-2-3T5:2:38Z</time></trkpt>
<trkpt lat="43.95122392103076" lon="5.344730447977781"><ele></ele><time>2015-2-3T5:2:41Z</time></trkpt>
<trkpt lat="43.951162900775671" lon="5.345353810116649"><ele></ele><time>2015-2-3T5:2:44Z</time></trkpt>
<trkpt lat="43.950804825872183" lon="5.34572521224618"><ele></ele><time>2015-2-3T5:2:47Z</time></trkpt>
<trkpt lat="43.95068253390491" lon="5.346353938803077"><ele></ele><time>2015-2-3T5:2:50Z</time></trkpt>
<trkpt lat="43.95063316449523" lon="5.347053073346615"><ele></ele><time>2015-2-3T5:2:53Z</time></trkpt>
<trkpt lat="43.950597625225782" lon="5.347720356658101"><ele></ele><time>2015-2-3T5:2:56Z</time></trkpt>
<trkpt lat="43.950686221942306" lon="5.348422760143876"><ele></ele><time>2015-2-3T5:2:59Z</time></trkpt>
<trkpt lat="43.950446331873536" lon="5.348878316581249"><ele></ele><time>2015-2-3T5:3:2Z</time></trkpt>
<trkpt lat="43.95011767745018" lon="5.34936161711812"><ele></ele><time>2015-2-3T5:3:5Z</time></trkpt>
<trkpt lat="43.950009299442172" lon="5.350018255412579"><ele></ele><time>2015-2-3T5:3:8Z</time></trkpt>
<trkpt lat="43.95015531219542" lon="5.350697692483664"><ele></ele><time>2015-2-3T5:3:11Z</time></trkpt>
<trkpt lat="43.950212812051177" lon="5.351314349099994"><ele></ele><time>2015-2-3T5:3:14Z</time></trkpt>
<trkpt lat="43.949840990826488" lon="5.351672004908323"><ele></ele><time>2015-2-3T5:3:17Z</time></trkpt>
<trkpt lat="43.949576793238521" lon="5.352183803915978"><ele></ele><time>2015-2-3T5:3:20Z</time></trkpt>
<trkpt lat="43.949400605633855" lon="5.352836418896914"><ele></ele><time>2015-2-3T5:3:23Z</time></trkpt>
<trkpt lat="43.949337741360068" lon="5.353455003350973"><ele></ele><time>2015-2-3T5:3:26Z</time></trkpt>
<trkpt lat="43.949343776330352" lon="5.354098817333579"><ele></ele><time>2015-2-3T5:3:29Z</time></trkpt>
<trkpt lat="43.949584672227502" lon="5.354714384302497"><ele></ele><time>2015-2-3T5:3:32Z</time></trkpt>
<trkpt lat="43.949848031625152" lon="5.35525786690414"><ele></ele><time>2015-2-3T5:3:35Z</time></trkpt>
<trkpt lat="43.949512084946036" lon="5.355666903778911"><ele></ele><time>2015-2-3T5:3:38Z</time></trkpt>
<trkpt lat="43.949061473831534" lon="5.355855831876397"><ele></ele><time>2015-2-3T5:3:41Z</time></trkpt>
<trkpt lat="43.948747152462602" lon="5.35633091814816"><ele></ele><time>2015-2-3T5:3:44Z</time></trkpt>
<trkpt lat="43.948763832449913" lon="5.357030723243952"><ele></ele><time>2015-2-3T5:3:47Z</time></trkpt>
<trkpt lat="43.948742039501667" lon="5.357688199728727"><ele></ele><time>2015-2-3T5:3:50Z</time></trkpt>
<trkpt lat="43.948701554909348" lon="5.358340814709663"><ele></ele><time>2015-2-3T5:3:53Z</time></trkpt>
<trkpt lat="43.948785290122032" lon="5.358957974240184"><ele></ele><time>2015-2-3T5:3:56Z</time></trkpt>
<trkpt lat="43.948482032865286" lon="5.359482932835817"><ele></ele><time>2015-2-3T5:3:59Z</time></trkpt>
<trkpt lat="43.948521511629224" lon="5.360163543373346"><ele></ele><time>2015-2-3T5:4:2Z</time></trkpt>
<trkpt lat="43.948249183595181" lon="5.360720939934254"><ele></ele><time>2015-2-3T5:4:5Z</time></trkpt>
<trkpt lat="43.947973502799869" lon="5.361223183572292"><ele></ele><time>2015-2-3T5:4:8Z</time></trkpt>
<trkpt lat="43.947779377922416" lon="5.361823495477438"><ele></ele><time>2015-2-3T5:4:11Z</time></trkpt>
<trkpt lat="43.947577038779855" lon="5.362468399107456"><ele></ele><time>2015-2-3T5:4:14Z</time></trkpt>
<trkpt lat="43.947317283600569" lon="5.363099640235305"><ele></ele><time>2015-2-3T5:4:17Z</time></trkpt>
<trkpt lat="43.94702760502696" lon="5.363719565793872"><ele></ele><time>2015-2-3T5:4:20Z</time></trkpt>
<trkpt lat="43.946772795170546" lon="5.364351728931069"><ele></ele><time>2015-2-3T5:4:23Z</time></trkpt>
<trkpt lat="43.946721078827977" lon="5.365049438551068"><ele></ele><time>2015-2-3T5:4:26Z</time></trkpt>
<trkpt lat="43.946740692481399" lon="5.365769108757377"><ele></ele><time>2015-2-3T5:4:29Z</time></trkpt>
<trkpt lat="43.946739686653018" lon="5.366476289927959"><ele></ele><time>2015-2-3T5:4:32Z</time></trkpt>
<trkpt lat="43.946746475994587" lon="5.367133263498545"><ele></ele><time>2015-2-3T5:4:35Z</time></trkpt>
<trkpt lat="43.946741195395589" lon="5.367316491901875"><ele></ele><time>2015-2-3T5:4:38Z</time></trkpt>
</trkseg></trk></gpx>